<?xml version='1.0' encoding='UTF-8'?><gpx version="1.1" creator="JPX - https://github.com/jenetics/jpx" xmlns="http://www.topografix.com/GPX/1/1"><trk><trkseg><trkpt lat="40.8385953" lon="8.4012881"><ele>0.9999999999999999</ele><time>2026-04-26T07:12:20.978Z</time></trkpt><trkpt lat="40.838664" lon="8.401314"><ele>1.0</ele><time>2026-04-26T07:12:23.978Z</time></trkpt><trkpt lat="40.8387453" lon="8.4013519"><ele>1.0</ele><time>2026-04-26T07:12:26.979Z</time></trkpt><trkpt lat="40.8386806" lon="8.4012838"><ele>1.0</ele><time>2026-04-26T07:13:06.98Z</time></trkpt><trkpt lat="40.8385969" lon="8.4012609"><ele>0.9999999999999999</ele><time>2026-04-26T07:13:08.98Z</time></trkpt><trkpt lat="40.8385337" lon="8.401241"><ele>1.0</ele><time>2026-04-26T07:13:10.98Z</time></trkpt><trkpt lat="40.8384693" lon="8.4012174"><ele>1.8</ele><time>2026-04-26T07:13:31.978Z</time></trkpt><trkpt lat="40.8383865" lon="8.401211"><ele>2.6</ele><time>2026-04-26T07:13:33.978Z</time></trkpt><trkpt lat="40.8382915" lon="8.401208"><ele>3.4</ele><time>2026-04-26T07:13:35.979Z</time></trkpt><trkpt lat="40.8381862" lon="8.4012064"><ele>4.2</ele><time>2026-04-26T07:13:37.979Z</time></trkpt><trkpt lat="40.8380817" lon="8.401212"><ele>5.0</ele><time>2026-04-26T07:13:39.979Z</time></trkpt><trkpt lat="40.8379867" lon="8.4012064"><ele>5.0</ele><time>2026-04-26T07:13:41.979Z</time></trkpt><trkpt lat="40.8378963" lon="8.4011984"><ele>5.0</ele><time>2026-04-26T07:13:43.98Z</time></trkpt><trkpt lat="40.837813" lon="8.4011978"><ele>5.0</ele><time>2026-04-26T07:13:45.981Z</time></trkpt><trkpt lat="40.8377321" lon="8.4011896"><ele>5.0</ele><time>2026-04-26T07:13:47.98Z</time></trkpt><trkpt lat="40.837639" lon="8.4011843"><ele>5.0</ele><time>2026-04-26T07:13:49.978Z</time></trkpt><trkpt lat="40.8375314" lon="8.4011858"><ele>5.2</ele><time>2026-04-26T07:13:51.978Z</time></trkpt><trkpt lat="40.8374211" lon="8.4011867"><ele>5.4</ele><time>2026-04-26T07:13:53.98Z</time></trkpt><trkpt lat="40.8373182" lon="8.4011836"><ele>5.6</ele><time>2026-04-26T07:13:55.979Z</time></trkpt><trkpt lat="40.8372077" lon="8.4011806"><ele>5.8</ele><time>2026-04-26T07:13:57.979Z</time></trkpt><trkpt lat="40.8370905" lon="8.4011792"><ele>6.0</ele><time>2026-04-26T07:13:59.979Z</time></trkpt><trkpt lat="40.8369692" lon="8.4011774"><ele>6.0</ele><time>2026-04-26T07:14:01.98Z</time></trkpt><trkpt lat="40.8368525" lon="8.4011841"><ele>6.0</ele><time>2026-04-26T07:14:03.978Z</time></trkpt><trkpt lat="40.8367323" lon="8.4011799"><ele>6.0</ele><time>2026-04-26T07:14:05.979Z</time></trkpt><trkpt lat="40.8366682" lon="8.4011788"><ele>6.0</ele><time>2026-04-26T07:14:06.978Z</time></trkpt><trkpt lat="40.8366025" lon="8.4011785"><ele>6.0</ele><time>2026-04-26T07:14:07.978Z</time></trkpt><trkpt lat="40.8365351" lon="8.401182"><ele>6.0</ele><time>2026-04-26T07:14:08.98Z</time></trkpt><trkpt lat="40.8364675" lon="8.4011801"><ele>6.428571428571428</ele><time>2026-04-26T07:14:09.98Z</time></trkpt><trkpt lat="40.8364019" lon="8.4011762"><ele>6.857142857142858</ele><time>2026-04-26T07:14:10.978Z</time></trkpt><trkpt lat="40.8363374" lon="8.4011712"><ele>7.2857142857142865</ele><time>2026-04-26T07:14:11.979Z</time></trkpt><trkpt lat="40.8362721" lon="8.4011639"><ele>7.714285714285714</ele><time>2026-04-26T07:14:12.98Z</time></trkpt><trkpt lat="40.8362069" lon="8.4011605"><ele>8.142857142857142</ele><time>2026-04-26T07:14:13.981Z</time></trkpt><trkpt lat="40.8361415" lon="8.4011572"><ele>8.571428571428573</ele><time>2026-04-26T07:14:14.98Z</time></trkpt><trkpt lat="40.8360758" lon="8.4011537"><ele>9.0</ele><time>2026-04-26T07:14:15.981Z</time></trkpt><trkpt lat="40.83601" lon="8.4011605"><ele>9.4</ele><time>2026-04-26T07:14:16.98Z</time></trkpt><trkpt lat="40.8359456" lon="8.4011631"><ele>9.8</ele><time>2026-04-26T07:14:17.98Z</time></trkpt><trkpt lat="40.8358815" lon="8.4011625"><ele>10.200000000000001</ele><time>2026-04-26T07:14:18.98Z</time></trkpt><trkpt lat="40.8357596" lon="8.401162"><ele>10.600000000000001</ele><time>2026-04-26T07:14:20.979Z</time></trkpt><trkpt lat="40.8356419" lon="8.4011847"><ele>11.0</ele><time>2026-04-26T07:14:22.979Z</time></trkpt><trkpt lat="40.8355478" lon="8.4012183"><ele>11.0</ele><time>2026-04-26T07:14:24.98Z</time></trkpt><trkpt lat="40.8354788" lon="8.4012528"><ele>11.0</ele><time>2026-04-26T07:14:26.98Z</time></trkpt><trkpt lat="40.835401" lon="8.4012939"><ele>11.0</ele><time>2026-04-26T07:14:28.979Z</time></trkpt><trkpt lat="40.8353126" lon="8.401341"><ele>11.0</ele><time>2026-04-26T07:14:30.978Z</time></trkpt><trkpt lat="40.8352073" lon="8.4013853"><ele>11.0</ele><time>2026-04-26T07:14:32.979Z</time></trkpt><trkpt lat="40.8350983" lon="8.4014299"><ele>11.0</ele><time>2026-04-26T07:14:34.98Z</time></trkpt><trkpt lat="40.8349849" lon="8.4014806"><ele>11.0</ele><time>2026-04-26T07:14:36.98Z</time></trkpt><trkpt lat="40.834873" lon="8.4015246"><ele>11.0</ele><time>2026-04-26T07:14:38.98Z</time></trkpt><trkpt lat="40.834762" lon="8.4015635"><ele>11.0</ele><time>2026-04-26T07:14:40.979Z</time></trkpt><trkpt lat="40.8346501" lon="8.4016052"><ele>11.0</ele><time>2026-04-26T07:14:42.981Z</time></trkpt><trkpt lat="40.8345386" lon="8.4016464"><ele>11.0</ele><time>2026-04-26T07:14:44.981Z</time></trkpt><trkpt lat="40.8344225" lon="8.4016903"><ele>11.0</ele><time>2026-04-26T07:14:46.98Z</time></trkpt><trkpt lat="40.834307" lon="8.4017286"><ele>11.0</ele><time>2026-04-26T07:14:48.978Z</time></trkpt><trkpt lat="40.8341921" lon="8.4017701"><ele>11.25</ele><time>2026-04-26T07:14:50.98Z</time></trkpt><trkpt lat="40.8340754" lon="8.401812"><ele>11.5</ele><time>2026-04-26T07:14:52.979Z</time></trkpt><trkpt lat="40.8339595" lon="8.4018588"><ele>11.75</ele><time>2026-04-26T07:14:54.981Z</time></trkpt><trkpt lat="40.8338444" lon="8.4019065"><ele>12.0</ele><time>2026-04-26T07:14:56.98Z</time></trkpt><trkpt lat="40.8337295" lon="8.4019501"><ele>12.0</ele><time>2026-04-26T07:14:58.978Z</time></trkpt><trkpt lat="40.83362" lon="8.4019999"><ele>12.0</ele><time>2026-04-26T07:15:00.98Z</time></trkpt><trkpt lat="40.8335173" lon="8.4020626"><ele>12.0</ele><time>2026-04-26T07:15:02.978Z</time></trkpt><trkpt lat="40.833413" lon="8.402139"><ele>12.0</ele><time>2026-04-26T07:15:04.978Z</time></trkpt><trkpt lat="40.8333577" lon="8.4021789"><ele>12.0</ele><time>2026-04-26T07:15:05.979Z</time></trkpt><trkpt lat="40.8332999" lon="8.402223"><ele>12.428571428571427</ele><time>2026-04-26T07:15:06.979Z</time></trkpt><trkpt lat="40.8332403" lon="8.4022702"><ele>12.857142857142858</ele><time>2026-04-26T07:15:07.979Z</time></trkpt><trkpt lat="40.833178" lon="8.4023157"><ele>13.285714285714285</ele><time>2026-04-26T07:15:08.98Z</time></trkpt><trkpt lat="40.8331143" lon="8.4023621"><ele>13.714285714285714</ele><time>2026-04-26T07:15:09.978Z</time></trkpt><trkpt lat="40.8330484" lon="8.4024107"><ele>14.142857142857142</ele><time>2026-04-26T07:15:10.98Z</time></trkpt><trkpt lat="40.8329817" lon="8.4024564"><ele>14.571428571428571</ele><time>2026-04-26T07:15:11.979Z</time></trkpt><trkpt lat="40.8329168" lon="8.4025007"><ele>15.0</ele><time>2026-04-26T07:15:12.979Z</time></trkpt><trkpt lat="40.8328535" lon="8.4025447"><ele>15.0</ele><time>2026-04-26T07:15:13.978Z</time></trkpt><trkpt lat="40.8327876" lon="8.4025907"><ele>15.0</ele><time>2026-04-26T07:15:14.979Z</time></trkpt><trkpt lat="40.8327196" lon="8.4026368"><ele>15.0</ele><time>2026-04-26T07:15:15.981Z</time></trkpt><trkpt lat="40.8326502" lon="8.4026838"><ele>15.0</ele><time>2026-04-26T07:15:16.98Z</time></trkpt><trkpt lat="40.8325803" lon="8.4027364"><ele>15.0</ele><time>2026-04-26T07:15:17.979Z</time></trkpt><trkpt lat="40.832511" lon="8.4027856"><ele>15.0</ele><time>2026-04-26T07:15:18.978Z</time></trkpt><trkpt lat="40.8324429" lon="8.4028374"><ele>15.0</ele><time>2026-04-26T07:15:19.979Z</time></trkpt><trkpt lat="40.8323755" lon="8.4028873"><ele>15.0</ele><time>2026-04-26T07:15:20.978Z</time></trkpt><trkpt lat="40.8323117" lon="8.402931"><ele>15.0</ele><time>2026-04-26T07:15:21.979Z</time></trkpt><trkpt lat="40.832209" lon="8.402993"><ele>15.0</ele><time>2026-04-26T07:15:23.979Z</time></trkpt><trkpt lat="40.832137" lon="8.4030455"><ele>15.0</ele><time>2026-04-26T07:15:25.979Z</time></trkpt><trkpt lat="40.8320708" lon="8.4031026"><ele>15.0</ele><time>2026-04-26T07:15:27.978Z</time></trkpt><trkpt lat="40.8319969" lon="8.4031677"><ele>15.0</ele><time>2026-04-26T07:15:29.979Z</time></trkpt><trkpt lat="40.8319109" lon="8.4032412"><ele>15.0</ele><time>2026-04-26T07:15:31.98Z</time></trkpt><trkpt lat="40.8318407" lon="8.4033502"><ele>15.0</ele><time>2026-04-26T07:15:33.979Z</time></trkpt><trkpt lat="40.8317905" lon="8.403443"><ele>15.0</ele><time>2026-04-26T07:15:35.978Z</time></trkpt><trkpt lat="40.8317416" lon="8.4035069"><ele>15.0</ele><time>2026-04-26T07:15:37.98Z</time></trkpt><trkpt lat="40.831681" lon="8.4035701"><ele>15.0</ele><time>2026-04-26T07:19:12.981Z</time></trkpt><trkpt lat="40.8315981" lon="8.4036075"><ele>14.833333333333334</ele><time>2026-04-26T07:19:14.981Z</time></trkpt><trkpt lat="40.8315001" lon="8.4036393"><ele>14.666666666666668</ele><time>2026-04-26T07:19:16.98Z</time></trkpt><trkpt lat="40.8313881" lon="8.4036726"><ele>14.5</ele><time>2026-04-26T07:19:18.979Z</time></trkpt><trkpt lat="40.8313236" lon="8.4036981"><ele>14.333333333333334</ele><time>2026-04-26T07:19:19.978Z</time></trkpt><trkpt lat="40.8312577" lon="8.4037332"><ele>14.166666666666668</ele><time>2026-04-26T07:19:20.98Z</time></trkpt><trkpt lat="40.8311901" lon="8.4037722"><ele>14.0</ele><time>2026-04-26T07:19:21.978Z</time></trkpt><trkpt lat="40.8311206" lon="8.4038168"><ele>13.833333333333334</ele><time>2026-04-26T07:19:22.979Z</time></trkpt><trkpt lat="40.8310499" lon="8.4038676"><ele>13.666666666666668</ele><time>2026-04-26T07:19:23.979Z</time></trkpt><trkpt lat="40.8309775" lon="8.4039204"><ele>13.5</ele><time>2026-04-26T07:19:24.978Z</time></trkpt><trkpt lat="40.8309044" lon="8.403971"><ele>13.333333333333332</ele><time>2026-04-26T07:19:25.978Z</time></trkpt><trkpt lat="40.8308294" lon="8.4040184"><ele>13.166666666666666</ele><time>2026-04-26T07:19:26.98Z</time></trkpt><trkpt lat="40.8307534" lon="8.404064"><ele>13.0</ele><time>2026-04-26T07:19:27.979Z</time></trkpt><trkpt lat="40.8306831" lon="8.4041058"><ele>13.600000000000001</ele><time>2026-04-26T07:19:28.979Z</time></trkpt><trkpt lat="40.8305845" lon="8.4041685"><ele>14.200000000000001</ele><time>2026-04-26T07:19:30.98Z</time></trkpt><trkpt lat="40.8305299" lon="8.4042334"><ele>14.8</ele><time>2026-04-26T07:19:32.98Z</time></trkpt><trkpt lat="40.830537" lon="8.4043506"><ele>15.4</ele><time>2026-04-26T07:19:34.981Z</time></trkpt><trkpt lat="40.8305703" lon="8.4045034"><ele>16.0</ele><time>2026-04-26T07:19:36.981Z</time></trkpt><trkpt lat="40.83059" lon="8.4046426"><ele>16.333333333333332</ele><time>2026-04-26T07:19:38.98Z</time></trkpt><trkpt lat="40.8305581" lon="8.4047847"><ele>16.666666666666664</ele><time>2026-04-26T07:19:40.98Z</time></trkpt><trkpt lat="40.8305026" lon="8.4049194"><ele>17.0</ele><time>2026-04-26T07:19:42.978Z</time></trkpt><trkpt lat="40.8304717" lon="8.4049929"><ele>17.333333333333332</ele><time>2026-04-26T07:19:43.98Z</time></trkpt><trkpt lat="40.8304426" lon="8.4050755"><ele>17.666666666666668</ele><time>2026-04-26T07:19:44.979Z</time></trkpt><trkpt lat="40.8304238" lon="8.4051654"><ele>18.0</ele><time>2026-04-26T07:19:45.978Z</time></trkpt><trkpt lat="40.8304245" lon="8.4052527"><ele>18.0</ele><time>2026-04-26T07:19:46.979Z</time></trkpt><trkpt lat="40.8304446" lon="8.4053317"><ele>18.0</ele><time>2026-04-26T07:19:47.979Z</time></trkpt><trkpt lat="40.830479" lon="8.4054041"><ele>18.0</ele><time>2026-04-26T07:19:48.98Z</time></trkpt><trkpt lat="40.8305248" lon="8.4055366"><ele>18.0</ele><time>2026-04-26T07:19:50.981Z</time></trkpt><trkpt lat="40.8305333" lon="8.405668"><ele>18.0</ele><time>2026-04-26T07:19:52.981Z</time></trkpt><trkpt lat="40.8304678" lon="8.4058138"><ele>17.833333333333332</ele><time>2026-04-26T07:19:54.981Z</time></trkpt><trkpt lat="40.8304315" lon="8.4058993"><ele>17.666666666666668</ele><time>2026-04-26T07:19:55.978Z</time></trkpt><trkpt lat="40.8303935" lon="8.4059927"><ele>17.5</ele><time>2026-04-26T07:19:56.981Z</time></trkpt><trkpt lat="40.830357" lon="8.4060924"><ele>17.333333333333336</ele><time>2026-04-26T07:19:57.979Z</time></trkpt><trkpt lat="40.8303182" lon="8.4061882"><ele>17.166666666666668</ele><time>2026-04-26T07:19:58.979Z</time></trkpt><trkpt lat="40.8302803" lon="8.4062818"><ele>17.0</ele><time>2026-04-26T07:19:59.983Z</time></trkpt><trkpt lat="40.8302396" lon="8.4063835"><ele>17.0</ele><time>2026-04-26T07:20:00.979Z</time></trkpt><trkpt lat="40.8301984" lon="8.4064899"><ele>17.0</ele><time>2026-04-26T07:20:01.979Z</time></trkpt><trkpt lat="40.8301583" lon="8.4065975"><ele>17.0</ele><time>2026-04-26T07:20:02.979Z</time></trkpt><trkpt lat="40.830119" lon="8.4067084"><ele>17.0</ele><time>2026-04-26T07:20:03.978Z</time></trkpt><trkpt lat="40.8300791" lon="8.4068205"><ele>17.0</ele><time>2026-04-26T07:20:04.979Z</time></trkpt><trkpt lat="40.8300392" lon="8.406927"><ele>16.833333333333336</ele><time>2026-04-26T07:20:05.978Z</time></trkpt><trkpt lat="40.8300042" lon="8.4070297"><ele>16.666666666666668</ele><time>2026-04-26T07:20:06.979Z</time></trkpt><trkpt lat="40.8299713" lon="8.4071303"><ele>16.5</ele><time>2026-04-26T07:20:07.978Z</time></trkpt><trkpt lat="40.8299357" lon="8.4072343"><ele>16.333333333333332</ele><time>2026-04-26T07:20:08.979Z</time></trkpt><trkpt lat="40.8298989" lon="8.4073415"><ele>16.166666666666664</ele><time>2026-04-26T07:20:09.978Z</time></trkpt><trkpt lat="40.8298625" lon="8.4074519"><ele>16.0</ele><time>2026-04-26T07:20:10.979Z</time></trkpt><trkpt lat="40.8298287" lon="8.4075604"><ele>15.999999999999998</ele><time>2026-04-26T07:20:11.978Z</time></trkpt><trkpt lat="40.8298027" lon="8.407671"><ele>16.0</ele><time>2026-04-26T07:20:12.978Z</time></trkpt><trkpt lat="40.8297887" lon="8.407786"><ele>16.0</ele><time>2026-04-26T07:20:13.978Z</time></trkpt><trkpt lat="40.8297872" lon="8.4079094"><ele>16.0</ele><time>2026-04-26T07:20:14.978Z</time></trkpt><trkpt lat="40.8297887" lon="8.4080301"><ele>15.999999999999998</ele><time>2026-04-26T07:20:15.979Z</time></trkpt><trkpt lat="40.8297868" lon="8.4081467"><ele>16.0</ele><time>2026-04-26T07:20:16.978Z</time></trkpt><trkpt lat="40.8297843" lon="8.4082641"><ele>15.833333333333332</ele><time>2026-04-26T07:20:17.978Z</time></trkpt><trkpt lat="40.8297805" lon="8.4083756"><ele>15.666666666666666</ele><time>2026-04-26T07:20:18.979Z</time></trkpt><trkpt lat="40.8297739" lon="8.4084813"><ele>15.5</ele><time>2026-04-26T07:20:19.981Z</time></trkpt><trkpt lat="40.8297639" lon="8.4085879"><ele>15.333333333333332</ele><time>2026-04-26T07:20:20.979Z</time></trkpt><trkpt lat="40.829749" lon="8.4087021"><ele>15.166666666666666</ele><time>2026-04-26T07:20:21.979Z</time></trkpt><trkpt lat="40.8297306" lon="8.4088243"><ele>15.0</ele><time>2026-04-26T07:20:22.979Z</time></trkpt><trkpt lat="40.8297098" lon="8.4089513"><ele>15.0</ele><time>2026-04-26T07:20:23.979Z</time></trkpt><trkpt lat="40.8296896" lon="8.4090806"><ele>15.0</ele><time>2026-04-26T07:20:24.981Z</time></trkpt><trkpt lat="40.8296655" lon="8.409207"><ele>15.0</ele><time>2026-04-26T07:20:25.979Z</time></trkpt><trkpt lat="40.8296467" lon="8.4093318"><ele>15.0</ele><time>2026-04-26T07:20:26.98Z</time></trkpt><trkpt lat="40.829627" lon="8.4094551"><ele>15.0</ele><time>2026-04-26T07:20:27.978Z</time></trkpt><trkpt lat="40.829604" lon="8.409577"><ele>15.0</ele><time>2026-04-26T07:20:28.977Z</time></trkpt><trkpt lat="40.8295804" lon="8.4096976"><ele>15.0</ele><time>2026-04-26T07:20:29.979Z</time></trkpt><trkpt lat="40.8295552" lon="8.4098193"><ele>15.0</ele><time>2026-04-26T07:20:30.979Z</time></trkpt><trkpt lat="40.8295255" lon="8.409939"><ele>15.0</ele><time>2026-04-26T07:20:31.979Z</time></trkpt><trkpt lat="40.8294871" lon="8.4100549"><ele>15.0</ele><time>2026-04-26T07:20:32.979Z</time></trkpt><trkpt lat="40.8294423" lon="8.410166"><ele>15.0</ele><time>2026-04-26T07:20:33.981Z</time></trkpt><trkpt lat="40.8293957" lon="8.4102659"><ele>15.0</ele><time>2026-04-26T07:20:34.979Z</time></trkpt><trkpt lat="40.8293478" lon="8.4103571"><ele>15.0</ele><time>2026-04-26T07:20:35.978Z</time></trkpt><trkpt lat="40.8292983" lon="8.410442"><ele>15.0</ele><time>2026-04-26T07:20:36.98Z</time></trkpt><trkpt lat="40.8292482" lon="8.4105217"><ele>15.0</ele><time>2026-04-26T07:20:37.979Z</time></trkpt><trkpt lat="40.8292012" lon="8.4105876"><ele>15.0</ele><time>2026-04-26T07:20:38.979Z</time></trkpt><trkpt lat="40.8291309" lon="8.4106897"><ele>15.0</ele><time>2026-04-26T07:20:40.979Z</time></trkpt><trkpt lat="40.8290551" lon="8.4107993"><ele>15.0</ele><time>2026-04-26T07:20:53.978Z</time></trkpt><trkpt lat="40.8289689" lon="8.4109269"><ele>15.0</ele><time>2026-04-26T07:20:55.979Z</time></trkpt><trkpt lat="40.8289111" lon="8.4110097"><ele>15.0</ele><time>2026-04-26T07:20:56.978Z</time></trkpt><trkpt lat="40.8288464" lon="8.4111015"><ele>15.0</ele><time>2026-04-26T07:20:57.979Z</time></trkpt><trkpt lat="40.8287806" lon="8.4111998"><ele>15.0</ele><time>2026-04-26T07:20:58.979Z</time></trkpt><trkpt lat="40.8287078" lon="8.4113053"><ele>15.0</ele><time>2026-04-26T07:20:59.978Z</time></trkpt><trkpt lat="40.8286313" lon="8.4114197"><ele>15.0</ele><time>2026-04-26T07:21:00.978Z</time></trkpt><trkpt lat="40.8285545" lon="8.411527"><ele>15.0</ele><time>2026-04-26T07:21:01.98Z</time></trkpt><trkpt lat="40.8284792" lon="8.4116307"><ele>15.0</ele><time>2026-04-26T07:21:02.98Z</time></trkpt><trkpt lat="40.828405" lon="8.4117339"><ele>15.8</ele><time>2026-04-26T07:21:03.979Z</time></trkpt><trkpt lat="40.8283322" lon="8.4118365"><ele>16.6</ele><time>2026-04-26T07:21:04.979Z</time></trkpt><trkpt lat="40.8282629" lon="8.4119398"><ele>17.4</ele><time>2026-04-26T07:21:05.979Z</time></trkpt><trkpt lat="40.8282009" lon="8.4120399"><ele>18.2</ele><time>2026-04-26T07:21:06.98Z</time></trkpt><trkpt lat="40.8281462" lon="8.4121273"><ele>19.0</ele><time>2026-04-26T07:21:07.978Z</time></trkpt><trkpt lat="40.8280963" lon="8.4122069"><ele>19.0</ele><time>2026-04-26T07:21:08.978Z</time></trkpt><trkpt lat="40.8280429" lon="8.4122844"><ele>19.0</ele><time>2026-04-26T07:21:09.978Z</time></trkpt><trkpt lat="40.8279915" lon="8.4123585"><ele>19.0</ele><time>2026-04-26T07:21:10.977Z</time></trkpt><trkpt lat="40.8279386" lon="8.4124354"><ele>19.0</ele><time>2026-04-26T07:21:11.979Z</time></trkpt><trkpt lat="40.8278873" lon="8.412513"><ele>19.0</ele><time>2026-04-26T07:21:12.978Z</time></trkpt><trkpt lat="40.8278404" lon="8.4125843"><ele>19.0</ele><time>2026-04-26T07:21:13.979Z</time></trkpt><trkpt lat="40.827797" lon="8.4126471"><ele>19.0</ele><time>2026-04-26T07:21:14.979Z</time></trkpt><trkpt lat="40.8277183" lon="8.4127614"><ele>19.0</ele><time>2026-04-26T07:21:16.979Z</time></trkpt><trkpt lat="40.8276582" lon="8.4128418"><ele>19.0</ele><time>2026-04-26T07:21:18.978Z</time></trkpt><trkpt lat="40.8276028" lon="8.4129106"><ele>19.0</ele><time>2026-04-26T07:21:20.979Z</time></trkpt><trkpt lat="40.8275472" lon="8.4129985"><ele>19.0</ele><time>2026-04-26T07:21:22.979Z</time></trkpt><trkpt lat="40.8274754" lon="8.4131033"><ele>19.0</ele><time>2026-04-26T07:21:24.978Z</time></trkpt><trkpt lat="40.8274019" lon="8.4132292"><ele>19.5</ele><time>2026-04-26T07:21:26.978Z</time></trkpt><trkpt lat="40.8273214" lon="8.413346"><ele>20.0</ele><time>2026-04-26T07:21:28.978Z</time></trkpt><trkpt lat="40.8272402" lon="8.4134622"><ele>20.5</ele><time>2026-04-26T07:21:30.978Z</time></trkpt><trkpt lat="40.8272004" lon="8.4135279"><ele>21.0</ele><time>2026-04-26T07:21:31.977Z</time></trkpt><trkpt lat="40.8271617" lon="8.4135998"><ele>21.5</ele><time>2026-04-26T07:21:32.98Z</time></trkpt><trkpt lat="40.8271243" lon="8.4136713"><ele>22.0</ele><time>2026-04-26T07:21:33.979Z</time></trkpt><trkpt lat="40.8270341" lon="8.4137904"><ele>22.400000000000002</ele><time>2026-04-26T07:21:35.978Z</time></trkpt><trkpt lat="40.8269467" lon="8.4138929"><ele>22.8</ele><time>2026-04-26T07:21:37.978Z</time></trkpt><trkpt lat="40.826871" lon="8.4140117"><ele>23.2</ele><time>2026-04-26T07:21:39.978Z</time></trkpt><trkpt lat="40.8267913" lon="8.4141103"><ele>23.6</ele><time>2026-04-26T07:21:41.978Z</time></trkpt><trkpt lat="40.8267096" lon="8.4141795"><ele>24.0</ele><time>2026-04-26T07:21:43.978Z</time></trkpt><trkpt lat="40.8266299" lon="8.4142506"><ele>24.0</ele><time>2026-04-26T07:21:45.979Z</time></trkpt><trkpt lat="40.8265318" lon="8.4143249"><ele>24.0</ele><time>2026-04-26T07:21:47.979Z</time></trkpt><trkpt lat="40.826446" lon="8.4143921"><ele>24.0</ele><time>2026-04-26T07:21:49.978Z</time></trkpt><trkpt lat="40.8263955" lon="8.4144542"><ele>24.0</ele><time>2026-04-26T07:21:51.978Z</time></trkpt><trkpt lat="40.8263894" lon="8.4145567"><ele>24.0</ele><time>2026-04-26T07:21:54.978Z</time></trkpt><trkpt lat="40.8264515" lon="8.4146317"><ele>24.0</ele><time>2026-04-26T07:21:56.98Z</time></trkpt><trkpt lat="40.8265297" lon="8.4147465"><ele>23.833333333333332</ele><time>2026-04-26T07:21:58.979Z</time></trkpt><trkpt lat="40.8265808" lon="8.4148147"><ele>23.666666666666668</ele><time>2026-04-26T07:21:59.979Z</time></trkpt><trkpt lat="40.826634" lon="8.4148879"><ele>23.5</ele><time>2026-04-26T07:22:00.979Z</time></trkpt><trkpt lat="40.826688" lon="8.4149604"><ele>23.333333333333336</ele><time>2026-04-26T07:22:01.979Z</time></trkpt><trkpt lat="40.8267452" lon="8.4150342"><ele>23.166666666666668</ele><time>2026-04-26T07:22:02.978Z</time></trkpt><trkpt lat="40.826807" lon="8.4151124"><ele>23.0</ele><time>2026-04-26T07:22:03.978Z</time></trkpt><trkpt lat="40.8268697" lon="8.4151931"><ele>22.833333333333336</ele><time>2026-04-26T07:22:04.979Z</time></trkpt><trkpt lat="40.8269298" lon="8.4152659"><ele>22.666666666666668</ele><time>2026-04-26T07:22:05.979Z</time></trkpt><trkpt lat="40.8269854" lon="8.4153325"><ele>22.5</ele><time>2026-04-26T07:22:06.978Z</time></trkpt><trkpt lat="40.8270371" lon="8.4153973"><ele>22.333333333333332</ele><time>2026-04-26T07:22:07.979Z</time></trkpt><trkpt lat="40.827083" lon="8.4154571"><ele>22.166666666666664</ele><time>2026-04-26T07:22:08.978Z</time></trkpt><trkpt lat="40.8271652" lon="8.415561"><ele>22.0</ele><time>2026-04-26T07:22:10.98Z</time></trkpt><trkpt lat="40.8272482" lon="8.4156727"><ele>22.0</ele><time>2026-04-26T07:22:12.979Z</time></trkpt><trkpt lat="40.8273017" lon="8.4157306"><ele>22.0</ele><time>2026-04-26T07:22:13.979Z</time></trkpt><trkpt lat="40.8273597" lon="8.4157992"><ele>22.0</ele><time>2026-04-26T07:22:14.978Z</time></trkpt><trkpt lat="40.827412" lon="8.4158846"><ele>22.0</ele><time>2026-04-26T07:22:15.979Z</time></trkpt><trkpt lat="40.8274681" lon="8.4159716"><ele>22.0</ele><time>2026-04-26T07:22:16.977Z</time></trkpt><trkpt lat="40.827527" lon="8.4160527"><ele>22.0</ele><time>2026-04-26T07:22:17.978Z</time></trkpt><trkpt lat="40.8275841" lon="8.4161292"><ele>22.0</ele><time>2026-04-26T07:22:18.979Z</time></trkpt><trkpt lat="40.8276371" lon="8.4161994"><ele>22.0</ele><time>2026-04-26T07:22:19.978Z</time></trkpt><trkpt lat="40.8277052" lon="8.4163075"><ele>22.0</ele><time>2026-04-26T07:22:21.979Z</time></trkpt><trkpt lat="40.8277167" lon="8.416402"><ele>22.0</ele><time>2026-04-26T07:22:23.982Z</time></trkpt><trkpt lat="40.8276548" lon="8.4165015"><ele>22.0</ele><time>2026-04-26T07:22:25.98Z</time></trkpt><trkpt lat="40.8276014" lon="8.4165648"><ele>22.0</ele><time>2026-04-26T07:22:26.979Z</time></trkpt><trkpt lat="40.8275392" lon="8.4166407"><ele>22.0</ele><time>2026-04-26T07:22:27.978Z</time></trkpt><trkpt lat="40.8274755" lon="8.4167199"><ele>22.0</ele><time>2026-04-26T07:22:28.978Z</time></trkpt><trkpt lat="40.8274107" lon="8.4167977"><ele>22.0</ele><time>2026-04-26T07:22:29.979Z</time></trkpt><trkpt lat="40.8273398" lon="8.4168778"><ele>22.0</ele><time>2026-04-26T07:22:30.978Z</time></trkpt><trkpt lat="40.8272707" lon="8.4169671"><ele>22.0</ele><time>2026-04-26T07:22:31.979Z</time></trkpt><trkpt lat="40.8272025" lon="8.4170637"><ele>22.400000000000002</ele><time>2026-04-26T07:22:32.979Z</time></trkpt><trkpt lat="40.8271304" lon="8.4171596"><ele>22.8</ele><time>2026-04-26T07:22:33.979Z</time></trkpt><trkpt lat="40.8270569" lon="8.4172525"><ele>23.2</ele><time>2026-04-26T07:22:34.979Z</time></trkpt><trkpt lat="40.8269869" lon="8.417345"><ele>23.6</ele><time>2026-04-26T07:22:35.978Z</time></trkpt><trkpt lat="40.8269205" lon="8.4174439"><ele>24.0</ele><time>2026-04-26T07:22:36.978Z</time></trkpt><trkpt lat="40.8268576" lon="8.417552"><ele>24.2</ele><time>2026-04-26T07:22:37.979Z</time></trkpt><trkpt lat="40.8268013" lon="8.4176666"><ele>24.4</ele><time>2026-04-26T07:22:38.979Z</time></trkpt><trkpt lat="40.826751" lon="8.41779"><ele>24.6</ele><time>2026-04-26T07:22:39.979Z</time></trkpt><trkpt lat="40.8267043" lon="8.4179183"><ele>24.8</ele><time>2026-04-26T07:22:40.979Z</time></trkpt><trkpt lat="40.8266559" lon="8.4180479"><ele>25.0</ele><time>2026-04-26T07:22:41.978Z</time></trkpt><trkpt lat="40.8266081" lon="8.418181"><ele>25.2</ele><time>2026-04-26T07:22:42.978Z</time></trkpt><trkpt lat="40.8265654" lon="8.4183188"><ele>25.4</ele><time>2026-04-26T07:22:43.979Z</time></trkpt><trkpt lat="40.826528" lon="8.4184588"><ele>25.6</ele><time>2026-04-26T07:22:44.978Z</time></trkpt><trkpt lat="40.826494" lon="8.418596"><ele>25.8</ele><time>2026-04-26T07:22:45.978Z</time></trkpt><trkpt lat="40.8264631" lon="8.4187252"><ele>26.0</ele><time>2026-04-26T07:22:46.978Z</time></trkpt><trkpt lat="40.8264379" lon="8.4188448"><ele>25.999999999999996</ele><time>2026-04-26T07:22:47.979Z</time></trkpt><trkpt lat="40.8264148" lon="8.4189487"><ele>26.0</ele><time>2026-04-26T07:22:48.981Z</time></trkpt><trkpt lat="40.8263945" lon="8.4190415"><ele>26.0</ele><time>2026-04-26T07:22:49.982Z</time></trkpt><trkpt lat="40.8263764" lon="8.4191228"><ele>26.0</ele><time>2026-04-26T07:22:50.981Z</time></trkpt><trkpt lat="40.8263202" lon="8.4192516"><ele>25.999999999999996</ele><time>2026-04-26T07:22:52.979Z</time></trkpt><trkpt lat="40.8262313" lon="8.4193238"><ele>26.0</ele><time>2026-04-26T07:22:54.978Z</time></trkpt><trkpt lat="40.8261243" lon="8.4193446"><ele>26.0</ele><time>2026-04-26T07:22:56.98Z</time></trkpt><trkpt lat="40.8260092" lon="8.4194023"><ele>26.0</ele><time>2026-04-26T07:22:58.978Z</time></trkpt><trkpt lat="40.8259327" lon="8.4195156"><ele>26.0</ele><time>2026-04-26T07:23:00.981Z</time></trkpt><trkpt lat="40.825957" lon="8.4196745"><ele>26.0</ele><time>2026-04-26T07:23:02.978Z</time></trkpt><trkpt lat="40.825998" lon="8.4197747"><ele>26.0</ele><time>2026-04-26T07:23:03.977Z</time></trkpt><trkpt lat="40.8260372" lon="8.419883"><ele>26.0</ele><time>2026-04-26T07:23:04.979Z</time></trkpt><trkpt lat="40.8260753" lon="8.4199962"><ele>26.0</ele><time>2026-04-26T07:23:05.977Z</time></trkpt><trkpt lat="40.8261148" lon="8.4201132"><ele>26.0</ele><time>2026-04-26T07:23:06.977Z</time></trkpt><trkpt lat="40.8261583" lon="8.4202354"><ele>26.0</ele><time>2026-04-26T07:23:07.978Z</time></trkpt><trkpt lat="40.826203" lon="8.4203499"><ele>26.0</ele><time>2026-04-26T07:23:08.979Z</time></trkpt><trkpt lat="40.8262485" lon="8.4204573"><ele>26.0</ele><time>2026-04-26T07:23:09.978Z</time></trkpt><trkpt lat="40.8262998" lon="8.4205641"><ele>26.0</ele><time>2026-04-26T07:23:10.979Z</time></trkpt><trkpt lat="40.8263553" lon="8.4206718"><ele>26.0</ele><time>2026-04-26T07:23:11.978Z</time></trkpt><trkpt lat="40.8264175" lon="8.4207813"><ele>26.0</ele><time>2026-04-26T07:23:12.978Z</time></trkpt><trkpt lat="40.8264834" lon="8.4208923"><ele>26.0</ele><time>2026-04-26T07:23:13.979Z</time></trkpt><trkpt lat="40.8265515" lon="8.4210069"><ele>26.0</ele><time>2026-04-26T07:23:14.978Z</time></trkpt><trkpt lat="40.826624" lon="8.4211224"><ele>26.0</ele><time>2026-04-26T07:23:15.979Z</time></trkpt><trkpt lat="40.8267002" lon="8.4212378"><ele>26.0</ele><time>2026-04-26T07:23:16.979Z</time></trkpt><trkpt lat="40.8267763" lon="8.4213571"><ele>26.0</ele><time>2026-04-26T07:23:17.979Z</time></trkpt><trkpt lat="40.8268543" lon="8.4214754"><ele>25.75</ele><time>2026-04-26T07:23:18.977Z</time></trkpt><trkpt lat="40.8269317" lon="8.4215938"><ele>25.5</ele><time>2026-04-26T07:23:19.981Z</time></trkpt><trkpt lat="40.8270106" lon="8.4217135"><ele>25.25</ele><time>2026-04-26T07:23:20.978Z</time></trkpt><trkpt lat="40.8270902" lon="8.4218353"><ele>25.0</ele><time>2026-04-26T07:23:21.979Z</time></trkpt><trkpt lat="40.82717" lon="8.4219566"><ele>25.0</ele><time>2026-04-26T07:23:22.979Z</time></trkpt><trkpt lat="40.8272484" lon="8.4220787"><ele>25.0</ele><time>2026-04-26T07:23:23.979Z</time></trkpt><trkpt lat="40.827324" lon="8.4221973"><ele>25.0</ele><time>2026-04-26T07:23:24.978Z</time></trkpt><trkpt lat="40.8274019" lon="8.422311"><ele>25.0</ele><time>2026-04-26T07:23:25.978Z</time></trkpt><trkpt lat="40.8274778" lon="8.4224183"><ele>24.8</ele><time>2026-04-26T07:23:26.979Z</time></trkpt><trkpt lat="40.8275525" lon="8.4225219"><ele>24.6</ele><time>2026-04-26T07:23:27.98Z</time></trkpt><trkpt lat="40.8276203" lon="8.4226174"><ele>24.4</ele><time>2026-04-26T07:23:28.979Z</time></trkpt><trkpt lat="40.8276768" lon="8.4226961"><ele>24.2</ele><time>2026-04-26T07:23:29.98Z</time></trkpt><trkpt lat="40.8277492" lon="8.4227977"><ele>24.0</ele><time>2026-04-26T07:23:31.979Z</time></trkpt><trkpt lat="40.8277976" lon="8.4228611"><ele>24.0</ele><time>2026-04-26T07:23:34.979Z</time></trkpt><trkpt lat="40.8278591" lon="8.4228937"><ele>24.0</ele><time>2026-04-26T07:23:44.979Z</time></trkpt><trkpt lat="40.8279531" lon="8.422993"><ele>24.0</ele><time>2026-04-26T07:23:46.979Z</time></trkpt><trkpt lat="40.8280093" lon="8.423053"><ele>24.0</ele><time>2026-04-26T07:23:47.979Z</time></trkpt><trkpt lat="40.8280676" lon="8.423114"><ele>24.0</ele><time>2026-04-26T07:23:48.977Z</time></trkpt><trkpt lat="40.8281303" lon="8.4231751"><ele>24.0</ele><time>2026-04-26T07:23:49.978Z</time></trkpt><trkpt lat="40.8281977" lon="8.4232372"><ele>23.666666666666668</ele><time>2026-04-26T07:23:50.981Z</time></trkpt><trkpt lat="40.8282705" lon="8.4232995"><ele>23.333333333333332</ele><time>2026-04-26T07:23:51.978Z</time></trkpt><trkpt lat="40.8283418" lon="8.4233582"><ele>23.0</ele><time>2026-04-26T07:23:52.979Z</time></trkpt><trkpt lat="40.828401" lon="8.4234063"><ele>22.666666666666664</ele><time>2026-04-26T07:23:53.979Z</time></trkpt><trkpt lat="40.8284591" lon="8.4234555"><ele>22.333333333333332</ele><time>2026-04-26T07:23:55.981Z</time></trkpt><trkpt lat="40.8284584" lon="8.4235455"><ele>22.0</ele><time>2026-04-26T07:24:07.979Z</time></trkpt><trkpt lat="40.8284296" lon="8.423675"><ele>22.200000000000003</ele><time>2026-04-26T07:24:09.979Z</time></trkpt><trkpt lat="40.8284003" lon="8.4238147"><ele>22.4</ele><time>2026-04-26T07:24:11.978Z</time></trkpt><trkpt lat="40.8283916" lon="8.4239541"><ele>22.6</ele><time>2026-04-26T07:24:13.98Z</time></trkpt><trkpt lat="40.8284076" lon="8.4240974"><ele>22.799999999999997</ele><time>2026-04-26T07:24:15.98Z</time></trkpt><trkpt lat="40.8284336" lon="8.4242393"><ele>23.0</ele><time>2026-04-26T07:24:17.981Z</time></trkpt><trkpt lat="40.828452" lon="8.4243864"><ele>23.0</ele><time>2026-04-26T07:24:19.981Z</time></trkpt><trkpt lat="40.8284504" lon="8.4245379"><ele>23.0</ele><time>2026-04-26T07:24:21.98Z</time></trkpt><trkpt lat="40.8284419" lon="8.424704"><ele>23.0</ele><time>2026-04-26T07:24:23.979Z</time></trkpt><trkpt lat="40.8284359" lon="8.4247898"><ele>23.0</ele><time>2026-04-26T07:24:24.979Z</time></trkpt><trkpt lat="40.828429" lon="8.4248775"><ele>23.0</ele><time>2026-04-26T07:24:25.979Z</time></trkpt><trkpt lat="40.8284194" lon="8.4249619"><ele>23.0</ele><time>2026-04-26T07:24:26.98Z</time></trkpt><trkpt lat="40.8284057" lon="8.4250457"><ele>23.28571428571429</ele><time>2026-04-26T07:24:27.98Z</time></trkpt><trkpt lat="40.8283898" lon="8.4251328"><ele>23.57142857142857</ele><time>2026-04-26T07:24:28.979Z</time></trkpt><trkpt lat="40.8283729" lon="8.4252178"><ele>23.857142857142858</ele><time>2026-04-26T07:24:29.98Z</time></trkpt><trkpt lat="40.8283539" lon="8.4253023"><ele>24.142857142857146</ele><time>2026-04-26T07:24:30.981Z</time></trkpt><trkpt lat="40.8283311" lon="8.4253863"><ele>24.42857142857143</ele><time>2026-04-26T07:24:31.98Z</time></trkpt><trkpt lat="40.8283083" lon="8.4254697"><ele>24.714285714285715</ele><time>2026-04-26T07:24:32.981Z</time></trkpt><trkpt lat="40.8282835" lon="8.4255529"><ele>25.0</ele><time>2026-04-26T07:24:33.981Z</time></trkpt><trkpt lat="40.8282596" lon="8.4256381"><ele>25.4</ele><time>2026-04-26T07:24:34.978Z</time></trkpt><trkpt lat="40.8282362" lon="8.4257182"><ele>25.8</ele><time>2026-04-26T07:24:35.98Z</time></trkpt><trkpt lat="40.8281742" lon="8.4258477"><ele>26.200000000000003</ele><time>2026-04-26T07:24:37.979Z</time></trkpt><trkpt lat="40.8280833" lon="8.4259182"><ele>26.6</ele><time>2026-04-26T07:24:39.979Z</time></trkpt><trkpt lat="40.8279608" lon="8.4259513"><ele>27.0</ele><time>2026-04-26T07:24:41.979Z</time></trkpt><trkpt lat="40.8278612" lon="8.4260199"><ele>27.0</ele><time>2026-04-26T07:24:43.983Z</time></trkpt><trkpt lat="40.8277692" lon="8.4261276"><ele>27.0</ele><time>2026-04-26T07:24:45.978Z</time></trkpt><trkpt lat="40.827715" lon="8.4261737"><ele>27.0</ele><time>2026-04-26T07:24:46.979Z</time></trkpt><trkpt lat="40.8276605" lon="8.4262206"><ele>27.0</ele><time>2026-04-26T07:24:47.979Z</time></trkpt><trkpt lat="40.8275997" lon="8.4262715"><ele>27.0</ele><time>2026-04-26T07:24:48.979Z</time></trkpt><trkpt lat="40.8275423" lon="8.4263295"><ele>27.0</ele><time>2026-04-26T07:24:49.981Z</time></trkpt><trkpt lat="40.8274859" lon="8.4263868"><ele>28.0</ele><time>2026-04-26T07:24:50.979Z</time></trkpt><trkpt lat="40.8274272" lon="8.4264468"><ele>29.000000000000004</ele><time>2026-04-26T07:24:51.98Z</time></trkpt><trkpt lat="40.8273682" lon="8.4265072"><ele>30.000000000000004</ele><time>2026-04-26T07:24:52.979Z</time></trkpt><trkpt lat="40.8273185" lon="8.4265651"><ele>31.0</ele><time>2026-04-26T07:24:53.98Z</time></trkpt><trkpt lat="40.827244" lon="8.4266842"><ele>32.0</ele><time>2026-04-26T07:24:55.98Z</time></trkpt><trkpt lat="40.8271885" lon="8.4268298"><ele>32.0</ele><time>2026-04-26T07:24:57.98Z</time></trkpt><trkpt lat="40.8271716" lon="8.4269808"><ele>32.0</ele><time>2026-04-26T07:24:59.979Z</time></trkpt><trkpt lat="40.8271755" lon="8.4271501"><ele>32.0</ele><time>2026-04-26T07:25:01.978Z</time></trkpt><trkpt lat="40.8271763" lon="8.4272352"><ele>32.0</ele><time>2026-04-26T07:25:02.979Z</time></trkpt><trkpt lat="40.8271688" lon="8.4273211"><ele>32.0</ele><time>2026-04-26T07:25:03.979Z</time></trkpt><trkpt lat="40.8271396" lon="8.4274761"><ele>32.0</ele><time>2026-04-26T07:25:05.98Z</time></trkpt><trkpt lat="40.8270925" lon="8.4276002"><ele>32.0</ele><time>2026-04-26T07:25:07.98Z</time></trkpt><trkpt lat="40.8270098" lon="8.4277341"><ele>32.0</ele><time>2026-04-26T07:25:09.98Z</time></trkpt><trkpt lat="40.8269551" lon="8.4278055"><ele>32.0</ele><time>2026-04-26T07:25:10.98Z</time></trkpt><trkpt lat="40.8269002" lon="8.4278726"><ele>32.0</ele><time>2026-04-26T07:25:11.979Z</time></trkpt><trkpt lat="40.8268513" lon="8.4279337"><ele>33.0</ele><time>2026-04-26T07:25:12.979Z</time></trkpt><trkpt lat="40.8267635" lon="8.4280553"><ele>34.0</ele><time>2026-04-26T07:25:14.981Z</time></trkpt><trkpt lat="40.8267185" lon="8.4281275"><ele>35.0</ele><time>2026-04-26T07:25:15.979Z</time></trkpt><trkpt lat="40.8266735" lon="8.4282041"><ele>36.0</ele><time>2026-04-26T07:25:16.979Z</time></trkpt><trkpt lat="40.8266291" lon="8.4282803"><ele>37.0</ele><time>2026-04-26T07:25:17.979Z</time></trkpt><trkpt lat="40.826585" lon="8.4283553"><ele>38.0</ele><time>2026-04-26T07:25:18.979Z</time></trkpt><trkpt lat="40.8265394" lon="8.4284263"><ele>38.0</ele><time>2026-04-26T07:25:19.978Z</time></trkpt><trkpt lat="40.8264898" lon="8.4284915"><ele>38.0</ele><time>2026-04-26T07:25:20.98Z</time></trkpt><trkpt lat="40.8264388" lon="8.4285561"><ele>38.0</ele><time>2026-04-26T07:25:21.979Z</time></trkpt><trkpt lat="40.8263903" lon="8.4286212"><ele>38.0</ele><time>2026-04-26T07:25:22.978Z</time></trkpt><trkpt lat="40.8263443" lon="8.4286806"><ele>38.0</ele><time>2026-04-26T07:25:23.979Z</time></trkpt><trkpt lat="40.8262696" lon="8.4287872"><ele>38.0</ele><time>2026-04-26T07:25:25.979Z</time></trkpt><trkpt lat="40.8262113" lon="8.4288851"><ele>38.199999999999996</ele><time>2026-04-26T07:25:27.978Z</time></trkpt><trkpt lat="40.826154" lon="8.4289858"><ele>38.4</ele><time>2026-04-26T07:25:29.98Z</time></trkpt><trkpt lat="40.8260993" lon="8.4291008"><ele>38.599999999999994</ele><time>2026-04-26T07:25:31.979Z</time></trkpt><trkpt lat="40.8260336" lon="8.4292215"><ele>38.8</ele><time>2026-04-26T07:25:33.979Z</time></trkpt><trkpt lat="40.8259558" lon="8.4293475"><ele>39.0</ele><time>2026-04-26T07:25:35.979Z</time></trkpt><trkpt lat="40.8258825" lon="8.4294657"><ele>39.0</ele><time>2026-04-26T07:25:37.98Z</time></trkpt><trkpt lat="40.8258265" lon="8.4295581"><ele>39.0</ele><time>2026-04-26T07:25:39.98Z</time></trkpt><trkpt lat="40.8257621" lon="8.4296536"><ele>39.0</ele><time>2026-04-26T07:25:56.979Z</time></trkpt><trkpt lat="40.8256798" lon="8.4297751"><ele>39.0</ele><time>2026-04-26T07:25:58.979Z</time></trkpt><trkpt lat="40.8256358" lon="8.429843"><ele>39.0</ele><time>2026-04-26T07:25:59.981Z</time></trkpt><trkpt lat="40.8255953" lon="8.4299078"><ele>39.0</ele><time>2026-04-26T07:26:00.979Z</time></trkpt><trkpt lat="40.8255385" lon="8.429992"><ele>38.85714285714286</ele><time>2026-04-26T07:26:02.98Z</time></trkpt><trkpt lat="40.8254915" lon="8.4300532"><ele>38.71428571428571</ele><time>2026-04-26T07:26:07.98Z</time></trkpt><trkpt lat="40.8255402" lon="8.4299861"><ele>38.57142857142857</ele><time>2026-04-26T07:26:19.98Z</time></trkpt><trkpt lat="40.8256191" lon="8.43002"><ele>38.42857142857143</ele><time>2026-04-26T07:26:25.98Z</time></trkpt><trkpt lat="40.8256665" lon="8.4300822"><ele>38.28571428571429</ele><time>2026-04-26T07:26:27.979Z</time></trkpt><trkpt lat="40.8256098" lon="8.4300013"><ele>38.14285714285714</ele><time>2026-04-26T07:26:45.98Z</time></trkpt><trkpt lat="40.8255917" lon="8.4299122"><ele>38.0</ele><time>2026-04-26T07:26:48.979Z</time></trkpt><trkpt lat="40.8256481" lon="8.4298225"><ele>38.0</ele><time>2026-04-26T07:26:50.98Z</time></trkpt><trkpt lat="40.8257098" lon="8.4297294"><ele>38.0</ele><time>2026-04-26T07:26:52.98Z</time></trkpt><trkpt lat="40.8257562" lon="8.4296565"><ele>38.0</ele><time>2026-04-26T07:26:54.979Z</time></trkpt><trkpt lat="40.825835" lon="8.4296672"><ele>38.0</ele><time>2026-04-26T07:26:59.978Z</time></trkpt><trkpt lat="40.825892" lon="8.4297278"><ele>38.0</ele><time>2026-04-26T07:27:01.979Z</time></trkpt><trkpt lat="40.8259599" lon="8.4297824"><ele>38.0</ele><time>2026-04-26T07:27:03.979Z</time></trkpt><trkpt lat="40.826021" lon="8.4298374"><ele>38.0</ele><time>2026-04-26T07:27:05.979Z</time></trkpt><trkpt lat="40.8259435" lon="8.4298109"><ele>38.0</ele><time>2026-04-26T07:28:48.979Z</time></trkpt><trkpt lat="40.8258878" lon="8.4297291"><ele>38.0</ele><time>2026-04-26T07:28:50.979Z</time></trkpt><trkpt lat="40.8258326" lon="8.42966"><ele>38.0</ele><time>2026-04-26T07:28:52.978Z</time></trkpt><trkpt lat="40.8258245" lon="8.4295405"><ele>38.0</ele><time>2026-04-26T07:28:55.979Z</time></trkpt><trkpt lat="40.8258647" lon="8.4294542"><ele>38.0</ele><time>2026-04-26T07:28:57.978Z</time></trkpt><trkpt lat="40.8259251" lon="8.4293502"><ele>37.25</ele><time>2026-04-26T07:28:59.979Z</time></trkpt><trkpt lat="40.8259963" lon="8.4292311"><ele>36.5</ele><time>2026-04-26T07:29:01.979Z</time></trkpt><trkpt lat="40.8260659" lon="8.4291063"><ele>35.75</ele><time>2026-04-26T07:29:03.978Z</time></trkpt><trkpt lat="40.8261343" lon="8.4289825"><ele>35.0</ele><time>2026-04-26T07:29:05.979Z</time></trkpt><trkpt lat="40.8262067" lon="8.4288612"><ele>35.5</ele><time>2026-04-26T07:29:07.979Z</time></trkpt><trkpt lat="40.8262767" lon="8.4287434"><ele>36.0</ele><time>2026-04-26T07:29:09.978Z</time></trkpt><trkpt lat="40.8263537" lon="8.4286378"><ele>36.5</ele><time>2026-04-26T07:29:11.978Z</time></trkpt><trkpt lat="40.8263985" lon="8.4285759"><ele>37.0</ele><time>2026-04-26T07:29:12.979Z</time></trkpt><trkpt lat="40.8264456" lon="8.4285078"><ele>37.5</ele><time>2026-04-26T07:29:13.978Z</time></trkpt><trkpt lat="40.8264967" lon="8.428439"><ele>38.0</ele><time>2026-04-26T07:29:14.978Z</time></trkpt><trkpt lat="40.8265432" lon="8.4283697"><ele>38.0</ele><time>2026-04-26T07:29:15.978Z</time></trkpt><trkpt lat="40.8265817" lon="8.4282992"><ele>38.0</ele><time>2026-04-26T07:29:16.978Z</time></trkpt><trkpt lat="40.8266203" lon="8.4282318"><ele>38.0</ele><time>2026-04-26T07:29:17.979Z</time></trkpt><trkpt lat="40.8266911" lon="8.428105"><ele>38.0</ele><time>2026-04-26T07:29:19.978Z</time></trkpt><trkpt lat="40.8267684" lon="8.4279832"><ele>38.0</ele><time>2026-04-26T07:29:21.978Z</time></trkpt><trkpt lat="40.8268548" lon="8.4278705"><ele>36.8</ele><time>2026-04-26T07:29:23.978Z</time></trkpt><trkpt lat="40.8269458" lon="8.4277579"><ele>35.599999999999994</ele><time>2026-04-26T07:29:25.979Z</time></trkpt><trkpt lat="40.8270297" lon="8.4276437"><ele>34.400000000000006</ele><time>2026-04-26T07:29:27.979Z</time></trkpt><trkpt lat="40.8270909" lon="8.427538"><ele>33.2</ele><time>2026-04-26T07:29:29.981Z</time></trkpt><trkpt lat="40.827125" lon="8.4274089"><ele>32.0</ele><time>2026-04-26T07:29:31.978Z</time></trkpt><trkpt lat="40.8271474" lon="8.4272443"><ele>31.999999999999996</ele><time>2026-04-26T07:29:33.98Z</time></trkpt><trkpt lat="40.8271511" lon="8.4271517"><ele>32.0</ele><time>2026-04-26T07:29:34.98Z</time></trkpt><trkpt lat="40.8271463" lon="8.4270564"><ele>32.0</ele><time>2026-04-26T07:29:35.978Z</time></trkpt><trkpt lat="40.8271422" lon="8.4269703"><ele>32.0</ele><time>2026-04-26T07:29:36.978Z</time></trkpt><trkpt lat="40.8271647" lon="8.4268289"><ele>31.999999999999996</ele><time>2026-04-26T07:29:38.98Z</time></trkpt><trkpt lat="40.827221" lon="8.4266832"><ele>32.0</ele><time>2026-04-26T07:29:40.979Z</time></trkpt><trkpt lat="40.8272592" lon="8.4266082"><ele>31.999999999999996</ele><time>2026-04-26T07:29:41.979Z</time></trkpt><trkpt lat="40.8273079" lon="8.4265402"><ele>32.0</ele><time>2026-04-26T07:29:42.979Z</time></trkpt><trkpt lat="40.8273647" lon="8.4264844"><ele>32.0</ele><time>2026-04-26T07:29:43.979Z</time></trkpt><trkpt lat="40.8274237" lon="8.4264345"><ele>32.0</ele><time>2026-04-26T07:29:44.981Z</time></trkpt><trkpt lat="40.8274786" lon="8.4263834"><ele>31.999999999999996</ele><time>2026-04-26T07:29:45.98Z</time></trkpt><trkpt lat="40.827573" lon="8.4262892"><ele>32.0</ele><time>2026-04-26T07:29:47.979Z</time></trkpt><trkpt lat="40.8276704" lon="8.4261925"><ele>31.166666666666664</ele><time>2026-04-26T07:29:49.979Z</time></trkpt><trkpt lat="40.8277647" lon="8.4261035"><ele>30.333333333333332</ele><time>2026-04-26T07:29:51.979Z</time></trkpt><trkpt lat="40.8278168" lon="8.4260547"><ele>29.5</ele><time>2026-04-26T07:29:52.979Z</time></trkpt><trkpt lat="40.8278715" lon="8.425998"><ele>28.666666666666664</ele><time>2026-04-26T07:29:53.979Z</time></trkpt><trkpt lat="40.8279223" lon="8.4259484"><ele>27.833333333333332</ele><time>2026-04-26T07:29:54.978Z</time></trkpt><trkpt lat="40.8280261" lon="8.4258886"><ele>27.0</ele><time>2026-04-26T07:29:56.979Z</time></trkpt><trkpt lat="40.8281282" lon="8.4258542"><ele>27.0</ele><time>2026-04-26T07:29:58.978Z</time></trkpt><trkpt lat="40.8281986" lon="8.425774"><ele>27.0</ele><time>2026-04-26T07:30:00.98Z</time></trkpt><trkpt lat="40.8282459" lon="8.4256304"><ele>27.0</ele><time>2026-04-26T07:30:02.979Z</time></trkpt><trkpt lat="40.8282672" lon="8.4255411"><ele>27.0</ele><time>2026-04-26T07:30:03.98Z</time></trkpt><trkpt lat="40.828293" lon="8.4254477"><ele>27.0</ele><time>2026-04-26T07:30:04.979Z</time></trkpt><trkpt lat="40.8283155" lon="8.4253565"><ele>27.0</ele><time>2026-04-26T07:30:05.979Z</time></trkpt><trkpt lat="40.8283358" lon="8.425271"><ele>26.6</ele><time>2026-04-26T07:30:06.979Z</time></trkpt><trkpt lat="40.8283681" lon="8.4251138"><ele>26.200000000000003</ele><time>2026-04-26T07:30:08.979Z</time></trkpt><trkpt lat="40.8283949" lon="8.4249479"><ele>25.8</ele><time>2026-04-26T07:30:10.981Z</time></trkpt><trkpt lat="40.828405" lon="8.424856"><ele>25.4</ele><time>2026-04-26T07:30:11.979Z</time></trkpt><trkpt lat="40.8284134" lon="8.4247529"><ele>25.0</ele><time>2026-04-26T07:30:12.979Z</time></trkpt><trkpt lat="40.8284176" lon="8.4246461"><ele>24.666666666666668</ele><time>2026-04-26T07:30:13.978Z</time></trkpt><trkpt lat="40.8284217" lon="8.4245375"><ele>24.333333333333336</ele><time>2026-04-26T07:30:14.979Z</time></trkpt><trkpt lat="40.8284237" lon="8.4244306"><ele>24.0</ele><time>2026-04-26T07:30:15.979Z</time></trkpt><trkpt lat="40.8284229" lon="8.4243302"><ele>23.666666666666668</ele><time>2026-04-26T07:30:16.978Z</time></trkpt><trkpt lat="40.8284159" lon="8.4242406"><ele>23.333333333333336</ele><time>2026-04-26T07:30:17.979Z</time></trkpt><trkpt lat="40.8283871" lon="8.4240822"><ele>23.0</ele><time>2026-04-26T07:30:19.98Z</time></trkpt><trkpt lat="40.8283792" lon="8.4239182"><ele>22.799999999999997</ele><time>2026-04-26T07:30:21.979Z</time></trkpt><trkpt lat="40.8284065" lon="8.423755"><ele>22.6</ele><time>2026-04-26T07:30:23.979Z</time></trkpt><trkpt lat="40.828426" lon="8.4236715"><ele>22.4</ele><time>2026-04-26T07:30:24.979Z</time></trkpt><trkpt lat="40.8284527" lon="8.4235477"><ele>22.200000000000003</ele><time>2026-04-26T07:30:26.978Z</time></trkpt><trkpt lat="40.8285147" lon="8.4234815"><ele>22.0</ele><time>2026-04-26T07:30:30.979Z</time></trkpt><trkpt lat="40.8286007" lon="8.4235359"><ele>22.0</ele><time>2026-04-26T07:30:32.981Z</time></trkpt><trkpt lat="40.8286596" lon="8.423585"><ele>22.0</ele><time>2026-04-26T07:30:33.981Z</time></trkpt><trkpt lat="40.8287263" lon="8.4236398"><ele>22.0</ele><time>2026-04-26T07:30:34.979Z</time></trkpt><trkpt lat="40.8287955" lon="8.4236952"><ele>22.0</ele><time>2026-04-26T07:30:35.979Z</time></trkpt><trkpt lat="40.8288648" lon="8.4237501"><ele>22.0</ele><time>2026-04-26T07:30:36.98Z</time></trkpt><trkpt lat="40.8289363" lon="8.4238073"><ele>22.0</ele><time>2026-04-26T07:30:37.979Z</time></trkpt><trkpt lat="40.8290103" lon="8.4238681"><ele>22.0</ele><time>2026-04-26T07:30:38.98Z</time></trkpt><trkpt lat="40.8290867" lon="8.4239295"><ele>22.0</ele><time>2026-04-26T07:30:39.98Z</time></trkpt><trkpt lat="40.8291651" lon="8.4239923"><ele>22.0</ele><time>2026-04-26T07:30:40.98Z</time></trkpt><trkpt lat="40.8292452" lon="8.4240565"><ele>22.0</ele><time>2026-04-26T07:30:41.981Z</time></trkpt><trkpt lat="40.8293266" lon="8.4241233"><ele>22.0</ele><time>2026-04-26T07:30:42.981Z</time></trkpt><trkpt lat="40.8294086" lon="8.4241922"><ele>22.0</ele><time>2026-04-26T07:30:43.978Z</time></trkpt><trkpt lat="40.8294937" lon="8.42426"><ele>22.0</ele><time>2026-04-26T07:30:44.978Z</time></trkpt><trkpt lat="40.8295813" lon="8.4243316"><ele>22.0</ele><time>2026-04-26T07:30:45.979Z</time></trkpt><trkpt lat="40.8296714" lon="8.4244058"><ele>22.0</ele><time>2026-04-26T07:30:46.979Z</time></trkpt><trkpt lat="40.8297602" lon="8.4244791"><ele>22.0</ele><time>2026-04-26T07:30:47.979Z</time></trkpt><trkpt lat="40.8298498" lon="8.4245502"><ele>22.0</ele><time>2026-04-26T07:30:48.983Z</time></trkpt><trkpt lat="40.8299417" lon="8.4246228"><ele>22.0</ele><time>2026-04-26T07:30:49.98Z</time></trkpt><trkpt lat="40.8300356" lon="8.4246956"><ele>22.0</ele><time>2026-04-26T07:30:50.981Z</time></trkpt><trkpt lat="40.8301314" lon="8.4247706"><ele>22.0</ele><time>2026-04-26T07:30:51.981Z</time></trkpt><trkpt lat="40.8302275" lon="8.4248473"><ele>22.0</ele><time>2026-04-26T07:30:52.979Z</time></trkpt><trkpt lat="40.8303257" lon="8.4249258"><ele>22.75</ele><time>2026-04-26T07:30:53.979Z</time></trkpt><trkpt lat="40.8304253" lon="8.4250056"><ele>23.5</ele><time>2026-04-26T07:30:54.983Z</time></trkpt><trkpt lat="40.8305262" lon="8.4250829"><ele>24.25</ele><time>2026-04-26T07:30:55.979Z</time></trkpt><trkpt lat="40.8306274" lon="8.4251589"><ele>25.0</ele><time>2026-04-26T07:30:56.98Z</time></trkpt><trkpt lat="40.8307285" lon="8.4252353"><ele>25.0</ele><time>2026-04-26T07:30:57.981Z</time></trkpt><trkpt lat="40.830829" lon="8.4253108"><ele>25.0</ele><time>2026-04-26T07:30:58.981Z</time></trkpt><trkpt lat="40.8309297" lon="8.4253882"><ele>25.0</ele><time>2026-04-26T07:30:59.988Z</time></trkpt><trkpt lat="40.8310289" lon="8.4254667"><ele>25.0</ele><time>2026-04-26T07:31:00.98Z</time></trkpt><trkpt lat="40.8311279" lon="8.425545"><ele>25.2</ele><time>2026-04-26T07:31:01.981Z</time></trkpt><trkpt lat="40.8312269" lon="8.4256229"><ele>25.4</ele><time>2026-04-26T07:31:02.981Z</time></trkpt><trkpt lat="40.8313249" lon="8.4257012"><ele>25.6</ele><time>2026-04-26T07:31:03.981Z</time></trkpt><trkpt lat="40.8314199" lon="8.4257779"><ele>25.8</ele><time>2026-04-26T07:31:04.981Z</time></trkpt><trkpt lat="40.8315099" lon="8.4258521"><ele>26.0</ele><time>2026-04-26T07:31:05.98Z</time></trkpt><trkpt lat="40.8315953" lon="8.4259205"><ele>25.999999999999996</ele><time>2026-04-26T07:31:06.98Z</time></trkpt><trkpt lat="40.8316765" lon="8.4259848"><ele>26.0</ele><time>2026-04-26T07:31:07.981Z</time></trkpt><trkpt lat="40.8317518" lon="8.4260503"><ele>26.0</ele><time>2026-04-26T07:31:08.981Z</time></trkpt><trkpt lat="40.83182" lon="8.4261206"><ele>26.0</ele><time>2026-04-26T07:31:09.98Z</time></trkpt><trkpt lat="40.831875" lon="8.4262027"><ele>25.999999999999996</ele><time>2026-04-26T07:31:10.981Z</time></trkpt><trkpt lat="40.8319114" lon="8.4262936"><ele>26.0</ele><time>2026-04-26T07:31:11.978Z</time></trkpt><trkpt lat="40.8319252" lon="8.4263881"><ele>26.166666666666664</ele><time>2026-04-26T07:31:12.978Z</time></trkpt><trkpt lat="40.8319229" lon="8.426481"><ele>26.333333333333332</ele><time>2026-04-26T07:31:13.979Z</time></trkpt><trkpt lat="40.8319054" lon="8.4265737"><ele>26.5</ele><time>2026-04-26T07:31:14.979Z</time></trkpt><trkpt lat="40.8318748" lon="8.426665"><ele>26.666666666666664</ele><time>2026-04-26T07:31:15.978Z</time></trkpt><trkpt lat="40.8318331" lon="8.426758"><ele>26.833333333333332</ele><time>2026-04-26T07:31:16.981Z</time></trkpt><trkpt lat="40.8317856" lon="8.4268539"><ele>27.0</ele><time>2026-04-26T07:31:17.979Z</time></trkpt><trkpt lat="40.831738" lon="8.4269562"><ele>27.0</ele><time>2026-04-26T07:31:18.98Z</time></trkpt><trkpt lat="40.8316882" lon="8.4270613"><ele>27.000000000000004</ele><time>2026-04-26T07:31:19.978Z</time></trkpt><trkpt lat="40.8316354" lon="8.4271676"><ele>27.000000000000004</ele><time>2026-04-26T07:31:20.978Z</time></trkpt><trkpt lat="40.8315809" lon="8.4272753"><ele>27.0</ele><time>2026-04-26T07:31:21.978Z</time></trkpt><trkpt lat="40.8315236" lon="8.4273832"><ele>27.0</ele><time>2026-04-26T07:31:22.978Z</time></trkpt><trkpt lat="40.8314656" lon="8.4274936"><ele>27.200000000000003</ele><time>2026-04-26T07:31:23.979Z</time></trkpt><trkpt lat="40.8314048" lon="8.4276024"><ele>27.400000000000002</ele><time>2026-04-26T07:31:24.979Z</time></trkpt><trkpt lat="40.8313417" lon="8.4277093"><ele>27.599999999999998</ele><time>2026-04-26T07:31:25.978Z</time></trkpt><trkpt lat="40.831278" lon="8.4278166"><ele>27.799999999999997</ele><time>2026-04-26T07:31:26.979Z</time></trkpt><trkpt lat="40.8312146" lon="8.4279239"><ele>28.0</ele><time>2026-04-26T07:31:27.979Z</time></trkpt><trkpt lat="40.831151" lon="8.4280343"><ele>28.0</ele><time>2026-04-26T07:31:28.978Z</time></trkpt><trkpt lat="40.8310867" lon="8.4281475"><ele>27.999999999999996</ele><time>2026-04-26T07:31:29.978Z</time></trkpt><trkpt lat="40.8310229" lon="8.4282637"><ele>27.999999999999996</ele><time>2026-04-26T07:31:30.979Z</time></trkpt><trkpt lat="40.8309568" lon="8.4283815"><ele>28.0</ele><time>2026-04-26T07:31:31.979Z</time></trkpt><trkpt lat="40.8308876" lon="8.4284992"><ele>28.0</ele><time>2026-04-26T07:31:32.979Z</time></trkpt><trkpt lat="40.8308164" lon="8.4286179"><ele>28.25</ele><time>2026-04-26T07:31:33.979Z</time></trkpt><trkpt lat="40.8307439" lon="8.4287381"><ele>28.5</ele><time>2026-04-26T07:31:34.979Z</time></trkpt><trkpt lat="40.8306717" lon="8.4288596"><ele>28.75</ele><time>2026-04-26T07:31:35.98Z</time></trkpt><trkpt lat="40.8305986" lon="8.4289823"><ele>29.0</ele><time>2026-04-26T07:31:36.979Z</time></trkpt><trkpt lat="40.830524" lon="8.4291046"><ele>29.0</ele><time>2026-04-26T07:31:37.978Z</time></trkpt><trkpt lat="40.8304498" lon="8.4292286"><ele>29.0</ele><time>2026-04-26T07:31:38.979Z</time></trkpt><trkpt lat="40.8303767" lon="8.4293545"><ele>29.0</ele><time>2026-04-26T07:31:39.981Z</time></trkpt><trkpt lat="40.8303035" lon="8.4294807"><ele>29.0</ele><time>2026-04-26T07:31:40.978Z</time></trkpt><trkpt lat="40.8302311" lon="8.4296073"><ele>29.5</ele><time>2026-04-26T07:31:41.982Z</time></trkpt><trkpt lat="40.8301577" lon="8.4297333"><ele>30.0</ele><time>2026-04-26T07:31:42.98Z</time></trkpt><trkpt lat="40.8300849" lon="8.4298586"><ele>30.5</ele><time>2026-04-26T07:31:43.979Z</time></trkpt><trkpt lat="40.8300122" lon="8.4299818"><ele>31.0</ele><time>2026-04-26T07:31:44.979Z</time></trkpt><trkpt lat="40.8299412" lon="8.4301026"><ele>31.0</ele><time>2026-04-26T07:31:45.978Z</time></trkpt><trkpt lat="40.829873" lon="8.4302174"><ele>31.0</ele><time>2026-04-26T07:31:46.978Z</time></trkpt><trkpt lat="40.8298102" lon="8.430323"><ele>31.0</ele><time>2026-04-26T07:31:47.979Z</time></trkpt><trkpt lat="40.8297525" lon="8.4304212"><ele>31.0</ele><time>2026-04-26T07:31:48.978Z</time></trkpt><trkpt lat="40.8296985" lon="8.4305119"><ele>31.0</ele><time>2026-04-26T07:31:49.979Z</time></trkpt><trkpt lat="40.829646" lon="8.4305985"><ele>29.666666666666668</ele><time>2026-04-26T07:31:50.979Z</time></trkpt><trkpt lat="40.8295939" lon="8.430683"><ele>28.333333333333336</ele><time>2026-04-26T07:31:51.978Z</time></trkpt><trkpt lat="40.8295437" lon="8.4307668"><ele>27.0</ele><time>2026-04-26T07:31:52.978Z</time></trkpt><trkpt lat="40.8294955" lon="8.4308478"><ele>25.666666666666668</ele><time>2026-04-26T07:31:53.978Z</time></trkpt><trkpt lat="40.8294498" lon="8.4309227"><ele>24.333333333333336</ele><time>2026-04-26T07:31:54.978Z</time></trkpt><trkpt lat="40.8294059" lon="8.4309915"><ele>23.0</ele><time>2026-04-26T07:31:55.98Z</time></trkpt><trkpt lat="40.8293323" lon="8.4311139"><ele>25.166666666666668</ele><time>2026-04-26T07:31:57.978Z</time></trkpt><trkpt lat="40.8292862" lon="8.4311857"><ele>27.333333333333336</ele><time>2026-04-26T07:31:59.98Z</time></trkpt><trkpt lat="40.829195" lon="8.4312102"><ele>29.5</ele><time>2026-04-26T07:32:34.98Z</time></trkpt><trkpt lat="40.8291405" lon="8.431255"><ele>31.666666666666668</ele><time>2026-04-26T07:32:36.981Z</time></trkpt><trkpt lat="40.8290893" lon="8.4313399"><ele>33.833333333333336</ele><time>2026-04-26T07:32:38.98Z</time></trkpt><trkpt lat="40.8290317" lon="8.4314506"><ele>36.0</ele><time>2026-04-26T07:32:40.978Z</time></trkpt><trkpt lat="40.8289739" lon="8.4315607"><ele>36.0</ele><time>2026-04-26T07:32:42.979Z</time></trkpt><trkpt lat="40.828903" lon="8.4316835"><ele>36.0</ele><time>2026-04-26T07:32:44.979Z</time></trkpt><trkpt lat="40.8288268" lon="8.4317966"><ele>36.0</ele><time>2026-04-26T07:32:46.979Z</time></trkpt><trkpt lat="40.8287542" lon="8.4318912"><ele>36.0</ele><time>2026-04-26T07:32:48.979Z</time></trkpt><trkpt lat="40.8286814" lon="8.4319582"><ele>36.0</ele><time>2026-04-26T07:32:50.979Z</time></trkpt><trkpt lat="40.8286264" lon="8.4320213"><ele>36.0</ele><time>2026-04-26T07:32:53.979Z</time></trkpt><trkpt lat="40.8285768" lon="8.4321358"><ele>36.0</ele><time>2026-04-26T07:33:03.979Z</time></trkpt><trkpt lat="40.8285272" lon="8.4322265"><ele>36.0</ele><time>2026-04-26T07:33:05.979Z</time></trkpt><trkpt lat="40.8284844" lon="8.4323238"><ele>36.0</ele><time>2026-04-26T07:33:07.979Z</time></trkpt><trkpt lat="40.8284502" lon="8.4324308"><ele>36.0</ele><time>2026-04-26T07:33:09.981Z</time></trkpt><trkpt lat="40.8284051" lon="8.432539"><ele>36.6</ele><time>2026-04-26T07:33:11.979Z</time></trkpt><trkpt lat="40.8283271" lon="8.4326391"><ele>37.2</ele><time>2026-04-26T07:33:13.98Z</time></trkpt><trkpt lat="40.8282422" lon="8.4327346"><ele>37.8</ele><time>2026-04-26T07:33:15.979Z</time></trkpt><trkpt lat="40.8281554" lon="8.4328345"><ele>38.4</ele><time>2026-04-26T07:33:17.979Z</time></trkpt><trkpt lat="40.8280771" lon="8.4329355"><ele>39.0</ele><time>2026-04-26T07:33:19.979Z</time></trkpt><trkpt lat="40.8280096" lon="8.4330181"><ele>37.833333333333336</ele><time>2026-04-26T07:33:21.979Z</time></trkpt><trkpt lat="40.8279424" lon="8.4330728"><ele>36.666666666666664</ele><time>2026-04-26T07:33:23.979Z</time></trkpt><trkpt lat="40.8278858" lon="8.4331457"><ele>35.5</ele><time>2026-04-26T07:33:25.978Z</time></trkpt><trkpt lat="40.827834" lon="8.4332683"><ele>34.33333333333333</ele><time>2026-04-26T07:33:27.978Z</time></trkpt><trkpt lat="40.827782" lon="8.4333827"><ele>33.166666666666664</ele><time>2026-04-26T07:33:29.979Z</time></trkpt><trkpt lat="40.8277416" lon="8.4334609"><ele>32.0</ele><time>2026-04-26T07:33:31.978Z</time></trkpt><trkpt lat="40.8276914" lon="8.4335405"><ele>33.4</ele><time>2026-04-26T07:33:34.98Z</time></trkpt><trkpt lat="40.8276369" lon="8.4336287"><ele>34.800000000000004</ele><time>2026-04-26T07:34:22.983Z</time></trkpt><trkpt lat="40.8275773" lon="8.4337264"><ele>36.2</ele><time>2026-04-26T07:34:24.98Z</time></trkpt><trkpt lat="40.8275224" lon="8.4338245"><ele>37.6</ele><time>2026-04-26T07:34:26.979Z</time></trkpt><trkpt lat="40.8274651" lon="8.4339241"><ele>39.0</ele><time>2026-04-26T07:34:28.978Z</time></trkpt><trkpt lat="40.8274078" lon="8.4340192"><ele>39.0</ele><time>2026-04-26T07:34:30.978Z</time></trkpt><trkpt lat="40.8273438" lon="8.4341143"><ele>39.0</ele><time>2026-04-26T07:34:32.978Z</time></trkpt><trkpt lat="40.8272779" lon="8.4342251"><ele>39.0</ele><time>2026-04-26T07:34:34.981Z</time></trkpt><trkpt lat="40.8272217" lon="8.4343414"><ele>39.0</ele><time>2026-04-26T07:34:36.98Z</time></trkpt><trkpt lat="40.8271566" lon="8.4344547"><ele>39.0</ele><time>2026-04-26T07:34:38.979Z</time></trkpt><trkpt lat="40.8270903" lon="8.4345715"><ele>38.0</ele><time>2026-04-26T07:34:40.979Z</time></trkpt><trkpt lat="40.8270233" lon="8.4346867"><ele>37.0</ele><time>2026-04-26T07:34:42.979Z</time></trkpt><trkpt lat="40.8269547" lon="8.4348054"><ele>36.0</ele><time>2026-04-26T07:34:44.978Z</time></trkpt><trkpt lat="40.8268911" lon="8.4349431"><ele>35.0</ele><time>2026-04-26T07:34:46.98Z</time></trkpt><trkpt lat="40.8268218" lon="8.4350661"><ele>36.2</ele><time>2026-04-26T07:34:48.979Z</time></trkpt><trkpt lat="40.82675" lon="8.4351636"><ele>37.4</ele><time>2026-04-26T07:34:50.98Z</time></trkpt><trkpt lat="40.8266689" lon="8.4352864"><ele>38.599999999999994</ele><time>2026-04-26T07:34:52.979Z</time></trkpt><trkpt lat="40.8266028" lon="8.4354021"><ele>39.8</ele><time>2026-04-26T07:34:54.979Z</time></trkpt><trkpt lat="40.8265429" lon="8.4355141"><ele>41.0</ele><time>2026-04-26T07:34:56.98Z</time></trkpt><trkpt lat="40.8265015" lon="8.4356341"><ele>41.0</ele><time>2026-04-26T07:34:58.982Z</time></trkpt><trkpt lat="40.8264686" lon="8.4357522"><ele>41.0</ele><time>2026-04-26T07:35:00.982Z</time></trkpt><trkpt lat="40.8264028" lon="8.4358733"><ele>41.0</ele><time>2026-04-26T07:35:02.98Z</time></trkpt><trkpt lat="40.8263127" lon="8.4359719"><ele>41.0</ele><time>2026-04-26T07:35:04.98Z</time></trkpt><trkpt lat="40.8262382" lon="8.4360428"><ele>41.0</ele><time>2026-04-26T07:35:06.98Z</time></trkpt><trkpt lat="40.8261826" lon="8.4361018"><ele>41.0</ele><time>2026-04-26T07:35:09.98Z</time></trkpt><trkpt lat="40.8261768" lon="8.4362176"><ele>41.0</ele><time>2026-04-26T07:35:22.982Z</time></trkpt><trkpt lat="40.8261726" lon="8.4363225"><ele>41.0</ele><time>2026-04-26T07:35:24.979Z</time></trkpt><trkpt lat="40.8261898" lon="8.4364318"><ele>41.0</ele><time>2026-04-26T07:35:27.98Z</time></trkpt><trkpt lat="40.8261691" lon="8.4365203"><ele>41.0</ele><time>2026-04-26T07:35:33.98Z</time></trkpt><trkpt lat="40.8261288" lon="8.4365932"><ele>41.0</ele><time>2026-04-26T07:35:36.982Z</time></trkpt><trkpt lat="40.8260822" lon="8.4366945"><ele>41.166666666666664</ele><time>2026-04-26T07:35:39.981Z</time></trkpt><trkpt lat="40.8260376" lon="8.4367836"><ele>41.33333333333333</ele><time>2026-04-26T07:35:41.981Z</time></trkpt><trkpt lat="40.825994" lon="8.4368813"><ele>41.5</ele><time>2026-04-26T07:35:43.98Z</time></trkpt><trkpt lat="40.8259551" lon="8.4369777"><ele>41.666666666666664</ele><time>2026-04-26T07:35:45.981Z</time></trkpt><trkpt lat="40.8259182" lon="8.4370779"><ele>41.833333333333336</ele><time>2026-04-26T07:35:47.981Z</time></trkpt><trkpt lat="40.8258724" lon="8.4371818"><ele>42.0</ele><time>2026-04-26T07:35:49.98Z</time></trkpt><trkpt lat="40.8258272" lon="8.4372763"><ele>40.800000000000004</ele><time>2026-04-26T07:35:51.982Z</time></trkpt><trkpt lat="40.8257822" lon="8.4373391"><ele>39.6</ele><time>2026-04-26T07:35:53.981Z</time></trkpt><trkpt lat="40.8257031" lon="8.4374374"><ele>38.400000000000006</ele><time>2026-04-26T07:37:13.98Z</time></trkpt><trkpt lat="40.8256126" lon="8.4374927"><ele>37.2</ele><time>2026-04-26T07:37:15.979Z</time></trkpt><trkpt lat="40.8255168" lon="8.4375623"><ele>36.0</ele><time>2026-04-26T07:37:17.98Z</time></trkpt><trkpt lat="40.8254152" lon="8.4376205"><ele>36.0</ele><time>2026-04-26T07:37:19.98Z</time></trkpt><trkpt lat="40.8253073" lon="8.4376417"><ele>36.0</ele><time>2026-04-26T07:37:21.979Z</time></trkpt><trkpt lat="40.8252135" lon="8.4376581"><ele>36.0</ele><time>2026-04-26T07:37:23.979Z</time></trkpt><trkpt lat="40.8251296" lon="8.4377081"><ele>36.0</ele><time>2026-04-26T07:37:25.979Z</time></trkpt><trkpt lat="40.8250533" lon="8.437794"><ele>36.0</ele><time>2026-04-26T07:37:27.98Z</time></trkpt><trkpt lat="40.8250013" lon="8.4379178"><ele>37.0</ele><time>2026-04-26T07:37:29.981Z</time></trkpt><trkpt lat="40.8249955" lon="8.438063"><ele>38.0</ele><time>2026-04-26T07:37:31.98Z</time></trkpt><trkpt lat="40.8250007" lon="8.4382096"><ele>39.0</ele><time>2026-04-26T07:37:33.979Z</time></trkpt><trkpt lat="40.8249743" lon="8.4383363"><ele>40.0</ele><time>2026-04-26T07:37:35.979Z</time></trkpt><trkpt lat="40.8249187" lon="8.4383823"><ele>41.0</ele><time>2026-04-26T07:37:37.98Z</time></trkpt><trkpt lat="40.8248363" lon="8.4383841"><ele>41.0</ele><time>2026-04-26T07:37:39.978Z</time></trkpt><trkpt lat="40.824728" lon="8.4383935"><ele>41.0</ele><time>2026-04-26T07:37:41.978Z</time></trkpt><trkpt lat="40.8246324" lon="8.4384505"><ele>41.0</ele><time>2026-04-26T07:37:43.979Z</time></trkpt><trkpt lat="40.8245787" lon="8.4385344"><ele>41.0</ele><time>2026-04-26T07:37:45.98Z</time></trkpt><trkpt lat="40.8245433" lon="8.4386424"><ele>41.0</ele><time>2026-04-26T07:37:47.979Z</time></trkpt><trkpt lat="40.8245188" lon="8.4387604"><ele>38.599999999999994</ele><time>2026-04-26T07:37:49.979Z</time></trkpt><trkpt lat="40.824495" lon="8.4388865"><ele>36.199999999999996</ele><time>2026-04-26T07:37:51.981Z</time></trkpt><trkpt lat="40.8244603" lon="8.4390048"><ele>33.8</ele><time>2026-04-26T07:37:53.98Z</time></trkpt><trkpt lat="40.8244176" lon="8.4391374"><ele>31.4</ele><time>2026-04-26T07:37:55.981Z</time></trkpt><trkpt lat="40.8243747" lon="8.4392579"><ele>29.0</ele><time>2026-04-26T07:37:57.982Z</time></trkpt><trkpt lat="40.8243342" lon="8.4393791"><ele>29.6</ele><time>2026-04-26T07:37:59.979Z</time></trkpt><trkpt lat="40.8242869" lon="8.4394926"><ele>30.2</ele><time>2026-04-26T07:38:01.98Z</time></trkpt><trkpt lat="40.8242231" lon="8.4395844"><ele>30.800000000000004</ele><time>2026-04-26T07:38:03.98Z</time></trkpt><trkpt lat="40.8241411" lon="8.439643"><ele>31.400000000000002</ele><time>2026-04-26T07:38:05.98Z</time></trkpt><trkpt lat="40.824052" lon="8.4396524"><ele>32.0</ele><time>2026-04-26T07:38:07.981Z</time></trkpt><trkpt lat="40.8239682" lon="8.4396374"><ele>35.0</ele><time>2026-04-26T07:38:09.98Z</time></trkpt><trkpt lat="40.8238749" lon="8.4396043"><ele>38.0</ele><time>2026-04-26T07:38:11.979Z</time></trkpt><trkpt lat="40.8237709" lon="8.4395691"><ele>41.0</ele><time>2026-04-26T07:38:13.981Z</time></trkpt><trkpt lat="40.823656" lon="8.4395079"><ele>44.0</ele><time>2026-04-26T07:38:15.98Z</time></trkpt><trkpt lat="40.8235514" lon="8.439444"><ele>47.0</ele><time>2026-04-26T07:38:17.983Z</time></trkpt><trkpt lat="40.8234602" lon="8.4394169"><ele>47.33333333333333</ele><time>2026-04-26T07:38:19.98Z</time></trkpt><trkpt lat="40.8233845" lon="8.4394588"><ele>47.666666666666664</ele><time>2026-04-26T07:38:21.98Z</time></trkpt><trkpt lat="40.8233412" lon="8.4395646"><ele>48.0</ele><time>2026-04-26T07:38:23.98Z</time></trkpt><trkpt lat="40.8233604" lon="8.4396779"><ele>48.33333333333333</ele><time>2026-04-26T07:38:25.98Z</time></trkpt><trkpt lat="40.8233926" lon="8.4397506"><ele>48.666666666666664</ele><time>2026-04-26T07:38:26.981Z</time></trkpt><trkpt lat="40.8234499" lon="8.4398809"><ele>49.0</ele><time>2026-04-26T07:38:28.981Z</time></trkpt><trkpt lat="40.8234799" lon="8.4399756"><ele>46.166666666666664</ele><time>2026-04-26T07:38:30.981Z</time></trkpt><trkpt lat="40.823512" lon="8.4400639"><ele>43.33333333333333</ele><time>2026-04-26T07:38:33.98Z</time></trkpt><trkpt lat="40.8235351" lon="8.4401441"><ele>40.5</ele><time>2026-04-26T07:38:35.979Z</time></trkpt><trkpt lat="40.8235457" lon="8.4402433"><ele>37.666666666666664</ele><time>2026-04-26T07:38:37.98Z</time></trkpt><trkpt lat="40.8235491" lon="8.4403481"><ele>34.83333333333333</ele><time>2026-04-26T07:38:39.98Z</time></trkpt><trkpt lat="40.8235267" lon="8.4404568"><ele>32.0</ele><time>2026-04-26T07:38:41.981Z</time></trkpt><trkpt lat="40.823499" lon="8.4405748"><ele>34.6</ele><time>2026-04-26T07:38:43.98Z</time></trkpt><trkpt lat="40.8234727" lon="8.4406886"><ele>37.2</ele><time>2026-04-26T07:38:45.981Z</time></trkpt><trkpt lat="40.8234294" lon="8.4407722"><ele>39.8</ele><time>2026-04-26T07:38:47.979Z</time></trkpt><trkpt lat="40.8233713" lon="8.4408592"><ele>42.4</ele><time>2026-04-26T07:38:49.98Z</time></trkpt><trkpt lat="40.823299" lon="8.4409543"><ele>45.0</ele><time>2026-04-26T07:38:51.98Z</time></trkpt><trkpt lat="40.8232117" lon="8.4410493"><ele>45.0</ele><time>2026-04-26T07:38:53.98Z</time></trkpt><trkpt lat="40.823129" lon="8.4411478"><ele>45.0</ele><time>2026-04-26T07:38:55.981Z</time></trkpt><trkpt lat="40.8230494" lon="8.4412469"><ele>45.0</ele><time>2026-04-26T07:38:57.979Z</time></trkpt><trkpt lat="40.8229743" lon="8.4413545"><ele>45.0</ele><time>2026-04-26T07:38:59.981Z</time></trkpt><trkpt lat="40.8228982" lon="8.4414691"><ele>45.0</ele><time>2026-04-26T07:39:01.979Z</time></trkpt><trkpt lat="40.822822" lon="8.4415961"><ele>47.4</ele><time>2026-04-26T07:39:03.981Z</time></trkpt><trkpt lat="40.8227596" lon="8.4417141"><ele>49.8</ele><time>2026-04-26T07:39:05.979Z</time></trkpt><trkpt lat="40.8227193" lon="8.441834"><ele>52.2</ele><time>2026-04-26T07:39:07.98Z</time></trkpt><trkpt lat="40.8226674" lon="8.4419679"><ele>54.6</ele><time>2026-04-26T07:39:09.981Z</time></trkpt><trkpt lat="40.8226344" lon="8.4420394"><ele>57.0</ele><time>2026-04-26T07:39:10.983Z</time></trkpt><trkpt lat="40.8226116" lon="8.4421885"><ele>57.0</ele><time>2026-04-26T07:39:12.98Z</time></trkpt><trkpt lat="40.8225931" lon="8.442313"><ele>57.0</ele><time>2026-04-26T07:39:14.981Z</time></trkpt><trkpt lat="40.8225909" lon="8.4424441"><ele>57.0</ele><time>2026-04-26T07:39:16.98Z</time></trkpt><trkpt lat="40.8225832" lon="8.4425666"><ele>57.0</ele><time>2026-04-26T07:39:18.981Z</time></trkpt><trkpt lat="40.8225744" lon="8.4426821"><ele>57.0</ele><time>2026-04-26T07:39:20.981Z</time></trkpt><trkpt lat="40.822567" lon="8.4427985"><ele>57.0</ele><time>2026-04-26T07:39:22.982Z</time></trkpt><trkpt lat="40.8225611" lon="8.4429078"><ele>57.0</ele><time>2026-04-26T07:39:24.981Z</time></trkpt><trkpt lat="40.8225455" lon="8.4430345"><ele>57.0</ele><time>2026-04-26T07:39:26.98Z</time></trkpt><trkpt lat="40.8225139" lon="8.4431563"><ele>57.0</ele><time>2026-04-26T07:39:28.98Z</time></trkpt><trkpt lat="40.8224814" lon="8.443281"><ele>57.0</ele><time>2026-04-26T07:39:30.981Z</time></trkpt><trkpt lat="40.8224268" lon="8.4433997"><ele>56.0</ele><time>2026-04-26T07:39:32.982Z</time></trkpt><trkpt lat="40.8223821" lon="8.4435052"><ele>55.0</ele><time>2026-04-26T07:39:34.981Z</time></trkpt><trkpt lat="40.8223394" lon="8.4436088"><ele>54.0</ele><time>2026-04-26T07:39:36.981Z</time></trkpt><trkpt lat="40.8222793" lon="8.4437172"><ele>53.0</ele><time>2026-04-26T07:39:38.98Z</time></trkpt><trkpt lat="40.8222121" lon="8.4438199"><ele>52.0</ele><time>2026-04-26T07:39:40.979Z</time></trkpt><trkpt lat="40.8221399" lon="8.443911"><ele>49.2</ele><time>2026-04-26T07:39:42.982Z</time></trkpt><trkpt lat="40.8220694" lon="8.4439962"><ele>46.400000000000006</ele><time>2026-04-26T07:39:44.983Z</time></trkpt><trkpt lat="40.8219947" lon="8.4440623"><ele>43.599999999999994</ele><time>2026-04-26T07:39:46.98Z</time></trkpt><trkpt lat="40.8219214" lon="8.4441504"><ele>40.8</ele><time>2026-04-26T07:39:48.98Z</time></trkpt><trkpt lat="40.8218656" lon="8.4442613"><ele>38.0</ele><time>2026-04-26T07:39:50.981Z</time></trkpt><trkpt lat="40.821829" lon="8.444384"><ele>41.666666666666664</ele><time>2026-04-26T07:39:52.981Z</time></trkpt><trkpt lat="40.8217999" lon="8.4444929"><ele>45.33333333333333</ele><time>2026-04-26T07:39:54.981Z</time></trkpt><trkpt lat="40.821761" lon="8.4445776"><ele>49.0</ele><time>2026-04-26T07:39:56.981Z</time></trkpt><trkpt lat="40.8216736" lon="8.4446179"><ele>52.666666666666664</ele><time>2026-04-26T07:39:59.98Z</time></trkpt><trkpt lat="40.8215913" lon="8.4445958"><ele>56.333333333333336</ele><time>2026-04-26T07:40:01.981Z</time></trkpt><trkpt lat="40.8215143" lon="8.4445763"><ele>60.0</ele><time>2026-04-26T07:40:03.979Z</time></trkpt><trkpt lat="40.821446" lon="8.4445927"><ele>57.5</ele><time>2026-04-26T07:40:05.983Z</time></trkpt><trkpt lat="40.8214063" lon="8.4446751"><ele>55.0</ele><time>2026-04-26T07:40:07.98Z</time></trkpt><trkpt lat="40.8214109" lon="8.4447849"><ele>52.5</ele><time>2026-04-26T07:40:09.98Z</time></trkpt><trkpt lat="40.8214118" lon="8.4448914"><ele>50.0</ele><time>2026-04-26T07:40:11.981Z</time></trkpt><trkpt lat="40.8213955" lon="8.4450207"><ele>47.5</ele><time>2026-04-26T07:40:13.979Z</time></trkpt><trkpt lat="40.8213657" lon="8.4451368"><ele>45.0</ele><time>2026-04-26T07:40:15.98Z</time></trkpt><trkpt lat="40.8213296" lon="8.4452571"><ele>45.0</ele><time>2026-04-26T07:40:17.981Z</time></trkpt><trkpt lat="40.8212969" lon="8.4453422"><ele>45.0</ele><time>2026-04-26T07:40:19.98Z</time></trkpt><trkpt lat="40.8212382" lon="8.4455043"><ele>45.0</ele><time>2026-04-26T07:45:59.98Z</time></trkpt><trkpt lat="40.8211907" lon="8.4455819"><ele>45.0</ele><time>2026-04-26T07:46:01.979Z</time></trkpt><trkpt lat="40.8211466" lon="8.4456603"><ele>45.0</ele><time>2026-04-26T07:46:03.978Z</time></trkpt><trkpt lat="40.8210974" lon="8.4457601"><ele>45.0</ele><time>2026-04-26T07:46:06.979Z</time></trkpt><trkpt lat="40.8210553" lon="8.445833"><ele>46.14285714285714</ele><time>2026-04-26T07:46:08.98Z</time></trkpt><trkpt lat="40.8210256" lon="8.4459102"><ele>47.28571428571429</ele><time>2026-04-26T07:46:10.979Z</time></trkpt><trkpt lat="40.8210034" lon="8.4459909"><ele>48.42857142857143</ele><time>2026-04-26T07:46:12.98Z</time></trkpt><trkpt lat="40.8209909" lon="8.4460811"><ele>49.57142857142857</ele><time>2026-04-26T07:46:14.98Z</time></trkpt><trkpt lat="40.8209758" lon="8.4461757"><ele>50.71428571428571</ele><time>2026-04-26T07:46:16.98Z</time></trkpt><trkpt lat="40.8209506" lon="8.4462638"><ele>51.85714285714286</ele><time>2026-04-26T07:46:18.981Z</time></trkpt><trkpt lat="40.8209103" lon="8.4463581"><ele>53.0</ele><time>2026-04-26T07:46:20.98Z</time></trkpt><trkpt lat="40.8208594" lon="8.4464445"><ele>53.00000000000001</ele><time>2026-04-26T07:46:22.981Z</time></trkpt><trkpt lat="40.8208158" lon="8.4465271"><ele>53.0</ele><time>2026-04-26T07:46:24.981Z</time></trkpt><trkpt lat="40.8207835" lon="8.4466251"><ele>53.0</ele><time>2026-04-26T07:46:26.98Z</time></trkpt><trkpt lat="40.8207719" lon="8.4467228"><ele>53.0</ele><time>2026-04-26T07:46:28.981Z</time></trkpt><trkpt lat="40.8207507" lon="8.4468235"><ele>53.00000000000001</ele><time>2026-04-26T07:46:30.98Z</time></trkpt><trkpt lat="40.8207418" lon="8.4469331"><ele>53.0</ele><time>2026-04-26T07:46:32.981Z</time></trkpt><trkpt lat="40.8207205" lon="8.4470484"><ele>52.16666666666667</ele><time>2026-04-26T07:46:34.981Z</time></trkpt><trkpt lat="40.8206995" lon="8.4471442"><ele>51.333333333333336</ele><time>2026-04-26T07:46:36.98Z</time></trkpt><trkpt lat="40.8206815" lon="8.4472279"><ele>50.5</ele><time>2026-04-26T07:46:38.98Z</time></trkpt><trkpt lat="40.820664" lon="8.4473412"><ele>49.66666666666667</ele><time>2026-04-26T07:46:40.979Z</time></trkpt><trkpt lat="40.8206609" lon="8.447453"><ele>48.833333333333336</ele><time>2026-04-26T07:46:42.98Z</time></trkpt><trkpt lat="40.8206428" lon="8.4475588"><ele>48.0</ele><time>2026-04-26T07:46:44.98Z</time></trkpt><trkpt lat="40.8206124" lon="8.4476385"><ele>48.0</ele><time>2026-04-26T07:46:46.979Z</time></trkpt><trkpt lat="40.8205515" lon="8.4475559"><ele>48.0</ele><time>2026-04-26T07:47:07.981Z</time></trkpt><trkpt lat="40.8205443" lon="8.4474531"><ele>48.0</ele><time>2026-04-26T07:47:09.98Z</time></trkpt><trkpt lat="40.8205554" lon="8.4473323"><ele>48.0</ele><time>2026-04-26T07:47:11.979Z</time></trkpt><trkpt lat="40.8205714" lon="8.4472055"><ele>48.0</ele><time>2026-04-26T07:47:13.98Z</time></trkpt><trkpt lat="40.8205486" lon="8.4471057"><ele>48.0</ele><time>2026-04-26T07:47:15.979Z</time></trkpt><trkpt lat="40.8204732" lon="8.4470664"><ele>48.0</ele><time>2026-04-26T07:47:18.981Z</time></trkpt><trkpt lat="40.8204115" lon="8.4471503"><ele>48.0</ele><time>2026-04-26T07:47:20.981Z</time></trkpt><trkpt lat="40.8203576" lon="8.4472447"><ele>48.0</ele><time>2026-04-26T07:47:22.98Z</time></trkpt><trkpt lat="40.8202958" lon="8.4473445"><ele>48.0</ele><time>2026-04-26T07:47:24.981Z</time></trkpt><trkpt lat="40.8202358" lon="8.447447"><ele>48.0</ele><time>2026-04-26T07:47:26.98Z</time></trkpt><trkpt lat="40.8201741" lon="8.4475585"><ele>47.166666666666664</ele><time>2026-04-26T07:47:28.981Z</time></trkpt><trkpt lat="40.8201195" lon="8.4476545"><ele>46.333333333333336</ele><time>2026-04-26T07:47:30.981Z</time></trkpt><trkpt lat="40.8200875" lon="8.4477308"><ele>45.5</ele><time>2026-04-26T07:47:32.981Z</time></trkpt><trkpt lat="40.8200836" lon="8.4478425"><ele>44.66666666666667</ele><time>2026-04-26T07:47:35.98Z</time></trkpt><trkpt lat="40.8201125" lon="8.4479284"><ele>43.833333333333336</ele><time>2026-04-26T07:47:37.98Z</time></trkpt><trkpt lat="40.8201593" lon="8.4480109"><ele>43.0</ele><time>2026-04-26T07:47:39.982Z</time></trkpt><trkpt lat="40.8201995" lon="8.4480834"><ele>43.00000000000001</ele><time>2026-04-26T07:47:41.982Z</time></trkpt><trkpt lat="40.8201839" lon="8.4481859"><ele>43.0</ele><time>2026-04-26T07:47:44.98Z</time></trkpt><trkpt lat="40.8201409" lon="8.448282"><ele>43.0</ele><time>2026-04-26T07:47:47.98Z</time></trkpt><trkpt lat="40.8200993" lon="8.448356"><ele>43.0</ele><time>2026-04-26T07:47:49.98Z</time></trkpt><trkpt lat="40.8200782" lon="8.4484382"><ele>43.0</ele><time>2026-04-26T07:47:51.98Z</time></trkpt><trkpt lat="40.8200373" lon="8.4485329"><ele>43.00000000000001</ele><time>2026-04-26T07:47:54.981Z</time></trkpt><trkpt lat="40.8200016" lon="8.4486038"><ele>43.0</ele><time>2026-04-26T07:47:56.981Z</time></trkpt><trkpt lat="40.8199535" lon="8.4487072"><ele>46.5</ele><time>2026-04-26T07:47:59.981Z</time></trkpt><trkpt lat="40.8199276" lon="8.4488087"><ele>50.0</ele><time>2026-04-26T07:48:01.98Z</time></trkpt><trkpt lat="40.8198946" lon="8.4489235"><ele>53.5</ele><time>2026-04-26T07:48:03.981Z</time></trkpt><trkpt lat="40.8198726" lon="8.4490335"><ele>57.0</ele><time>2026-04-26T07:48:05.981Z</time></trkpt><trkpt lat="40.8198512" lon="8.4491562"><ele>60.49999999999999</ele><time>2026-04-26T07:48:07.98Z</time></trkpt><trkpt lat="40.8198309" lon="8.4492677"><ele>64.0</ele><time>2026-04-26T07:48:09.98Z</time></trkpt><trkpt lat="40.8198172" lon="8.4493741"><ele>63.99999999999999</ele><time>2026-04-26T07:48:11.981Z</time></trkpt><trkpt lat="40.8197933" lon="8.4494767"><ele>64.0</ele><time>2026-04-26T07:48:13.981Z</time></trkpt><trkpt lat="40.8197531" lon="8.4495757"><ele>64.0</ele><time>2026-04-26T07:48:15.981Z</time></trkpt><trkpt lat="40.8197046" lon="8.4496611"><ele>64.0</ele><time>2026-04-26T07:48:17.979Z</time></trkpt><trkpt lat="40.8196418" lon="8.4497274"><ele>63.99999999999999</ele><time>2026-04-26T07:48:19.981Z</time></trkpt><trkpt lat="40.8195756" lon="8.4497362"><ele>64.0</ele><time>2026-04-26T07:48:21.979Z</time></trkpt><trkpt lat="40.8195115" lon="8.4496929"><ele>63.99999999999999</ele><time>2026-04-26T07:48:24.98Z</time></trkpt><trkpt lat="40.8194597" lon="8.4496244"><ele>64.0</ele><time>2026-04-26T07:48:27.979Z</time></trkpt><trkpt lat="40.8194083" lon="8.4495255"><ele>64.0</ele><time>2026-04-26T07:48:30.981Z</time></trkpt><trkpt lat="40.8193491" lon="8.4494405"><ele>64.0</ele><time>2026-04-26T07:48:33.98Z</time></trkpt><trkpt lat="40.8192891" lon="8.4493841"><ele>63.99999999999999</ele><time>2026-04-26T07:48:35.98Z</time></trkpt><trkpt lat="40.8192243" lon="8.4493289"><ele>64.0</ele><time>2026-04-26T07:48:37.981Z</time></trkpt><trkpt lat="40.8191599" lon="8.4492714"><ele>64.5</ele><time>2026-04-26T07:48:39.98Z</time></trkpt><trkpt lat="40.8190852" lon="8.4492313"><ele>65.0</ele><time>2026-04-26T07:48:41.98Z</time></trkpt><trkpt lat="40.819007" lon="8.4492515"><ele>65.5</ele><time>2026-04-26T07:48:44.98Z</time></trkpt><trkpt lat="40.8189696" lon="8.44936"><ele>66.0</ele><time>2026-04-26T07:48:47.98Z</time></trkpt><trkpt lat="40.8189703" lon="8.4494693"><ele>66.5</ele><time>2026-04-26T07:48:49.98Z</time></trkpt><trkpt lat="40.8189778" lon="8.4495767"><ele>67.0</ele><time>2026-04-26T07:48:51.98Z</time></trkpt><trkpt lat="40.818976" lon="8.4496885"><ele>67.0</ele><time>2026-04-26T07:48:53.979Z</time></trkpt><trkpt lat="40.818968" lon="8.4498002"><ele>67.0</ele><time>2026-04-26T07:48:55.979Z</time></trkpt><trkpt lat="40.8189691" lon="8.4499119"><ele>67.0</ele><time>2026-04-26T07:48:57.98Z</time></trkpt><trkpt lat="40.818965" lon="8.4500211"><ele>67.0</ele><time>2026-04-26T07:48:59.98Z</time></trkpt><trkpt lat="40.8189545" lon="8.4501251"><ele>67.0</ele><time>2026-04-26T07:49:01.98Z</time></trkpt><trkpt lat="40.8189357" lon="8.4502286"><ele>67.0</ele><time>2026-04-26T07:49:03.981Z</time></trkpt><trkpt lat="40.8188899" lon="8.4503354"><ele>67.0</ele><time>2026-04-26T07:49:05.98Z</time></trkpt><trkpt lat="40.8188342" lon="8.4504385"><ele>67.0</ele><time>2026-04-26T07:49:07.979Z</time></trkpt><trkpt lat="40.8188006" lon="8.4505591"><ele>67.0</ele><time>2026-04-26T07:49:09.979Z</time></trkpt><trkpt lat="40.8187505" lon="8.4506876"><ele>67.0</ele><time>2026-04-26T07:49:11.979Z</time></trkpt><trkpt lat="40.8186886" lon="8.4508099"><ele>67.0</ele><time>2026-04-26T07:49:13.981Z</time></trkpt><trkpt lat="40.8186519" lon="8.4509377"><ele>65.8</ele><time>2026-04-26T07:49:15.979Z</time></trkpt><trkpt lat="40.8186165" lon="8.4510896"><ele>64.6</ele><time>2026-04-26T07:49:17.98Z</time></trkpt><trkpt lat="40.81859" lon="8.4512429"><ele>63.39999999999999</ele><time>2026-04-26T07:49:19.979Z</time></trkpt><trkpt lat="40.8185748" lon="8.4513246"><ele>62.199999999999996</ele><time>2026-04-26T07:49:20.979Z</time></trkpt><trkpt lat="40.8185361" lon="8.4514739"><ele>61.0</ele><time>2026-04-26T07:49:22.979Z</time></trkpt><trkpt lat="40.8185215" lon="8.4516137"><ele>61.599999999999994</ele><time>2026-04-26T07:49:24.979Z</time></trkpt><trkpt lat="40.8184984" lon="8.451762"><ele>62.199999999999996</ele><time>2026-04-26T07:49:26.981Z</time></trkpt><trkpt lat="40.8184854" lon="8.4519012"><ele>62.800000000000004</ele><time>2026-04-26T07:49:28.979Z</time></trkpt><trkpt lat="40.8184704" lon="8.4520356"><ele>63.400000000000006</ele><time>2026-04-26T07:49:30.979Z</time></trkpt><trkpt lat="40.8184481" lon="8.4521663"><ele>64.0</ele><time>2026-04-26T07:49:32.979Z</time></trkpt><trkpt lat="40.8184272" lon="8.4522831"><ele>63.99999999999999</ele><time>2026-04-26T07:49:34.981Z</time></trkpt><trkpt lat="40.8184123" lon="8.4523956"><ele>64.0</ele><time>2026-04-26T07:49:36.98Z</time></trkpt><trkpt lat="40.8183872" lon="8.452502"><ele>64.0</ele><time>2026-04-26T07:49:38.981Z</time></trkpt><trkpt lat="40.8183545" lon="8.4525835"><ele>64.0</ele><time>2026-04-26T07:49:40.98Z</time></trkpt><trkpt lat="40.8182789" lon="8.4526561"><ele>63.99999999999999</ele><time>2026-04-26T07:49:43.981Z</time></trkpt><trkpt lat="40.8182094" lon="8.4526551"><ele>64.0</ele><time>2026-04-26T07:49:45.979Z</time></trkpt><trkpt lat="40.8181274" lon="8.4526399"><ele>63.99999999999999</ele><time>2026-04-26T07:49:47.979Z</time></trkpt><trkpt lat="40.8180453" lon="8.4525967"><ele>64.0</ele><time>2026-04-26T07:49:49.981Z</time></trkpt><trkpt lat="40.817968" lon="8.4525502"><ele>64.0</ele><time>2026-04-26T07:49:51.98Z</time></trkpt><trkpt lat="40.8178911" lon="8.4525241"><ele>64.0</ele><time>2026-04-26T07:49:53.979Z</time></trkpt><trkpt lat="40.8178174" lon="8.4526104"><ele>63.99999999999999</ele><time>2026-04-26T07:49:56.981Z</time></trkpt><trkpt lat="40.8177867" lon="8.4526948"><ele>64.0</ele><time>2026-04-26T07:49:58.981Z</time></trkpt><trkpt lat="40.8177874" lon="8.4527997"><ele>63.99999999999999</ele><time>2026-04-26T07:50:08.981Z</time></trkpt><trkpt lat="40.8178186" lon="8.4528763"><ele>64.0</ele><time>2026-04-26T07:50:10.98Z</time></trkpt><trkpt lat="40.817861" lon="8.4529653"><ele>64.0</ele><time>2026-04-26T07:50:12.98Z</time></trkpt><trkpt lat="40.817921" lon="8.4530273"><ele>64.0</ele><time>2026-04-26T07:50:14.98Z</time></trkpt><trkpt lat="40.8179821" lon="8.4530919"><ele>63.99999999999999</ele><time>2026-04-26T07:50:16.979Z</time></trkpt><trkpt lat="40.8180451" lon="8.4531626"><ele>64.0</ele><time>2026-04-26T07:50:18.98Z</time></trkpt><trkpt lat="40.8180985" lon="8.4532539"><ele>62.99999999999999</ele><time>2026-04-26T07:50:20.981Z</time></trkpt><trkpt lat="40.8181468" lon="8.4533543"><ele>62.0</ele><time>2026-04-26T07:50:22.98Z</time></trkpt><trkpt lat="40.8181825" lon="8.4534583"><ele>61.0</ele><time>2026-04-26T07:50:24.98Z</time></trkpt><trkpt lat="40.8182228" lon="8.4535505"><ele>60.0</ele><time>2026-04-26T07:50:26.981Z</time></trkpt><trkpt lat="40.8182805" lon="8.4536269"><ele>58.99999999999999</ele><time>2026-04-26T07:50:28.978Z</time></trkpt><trkpt lat="40.8183376" lon="8.4537137"><ele>58.0</ele><time>2026-04-26T07:50:30.98Z</time></trkpt><trkpt lat="40.8183962" lon="8.4538061"><ele>56.99999999999999</ele><time>2026-04-26T07:50:32.98Z</time></trkpt><trkpt lat="40.8184468" lon="8.4538944"><ele>56.0</ele><time>2026-04-26T07:50:34.979Z</time></trkpt><trkpt lat="40.8184784" lon="8.4539708"><ele>55.0</ele><time>2026-04-26T07:50:36.98Z</time></trkpt><trkpt lat="40.8185256" lon="8.4540703"><ele>54.0</ele><time>2026-04-26T07:50:39.98Z</time></trkpt><trkpt lat="40.8185721" lon="8.454157"><ele>52.99999999999999</ele><time>2026-04-26T07:50:42.98Z</time></trkpt><trkpt lat="40.8185913" lon="8.4542371"><ele>52.0</ele><time>2026-04-26T07:50:44.981Z</time></trkpt><trkpt lat="40.8186196" lon="8.4543272"><ele>49.166666666666664</ele><time>2026-04-26T07:50:46.979Z</time></trkpt><trkpt lat="40.8186546" lon="8.4544198"><ele>46.33333333333333</ele><time>2026-04-26T07:50:48.98Z</time></trkpt><trkpt lat="40.8186541" lon="8.4545193"><ele>43.5</ele><time>2026-04-26T07:50:50.98Z</time></trkpt><trkpt lat="40.8186252" lon="8.4546194"><ele>40.666666666666664</ele><time>2026-04-26T07:50:52.979Z</time></trkpt><trkpt lat="40.8185868" lon="8.454713"><ele>37.83333333333333</ele><time>2026-04-26T07:50:54.979Z</time></trkpt><trkpt lat="40.8185498" lon="8.4548006"><ele>35.0</ele><time>2026-04-26T07:50:56.98Z</time></trkpt><trkpt lat="40.8185009" lon="8.4548747"><ele>34.83333333333333</ele><time>2026-04-26T07:50:58.98Z</time></trkpt><trkpt lat="40.818438" lon="8.4549458"><ele>34.666666666666664</ele><time>2026-04-26T07:51:00.98Z</time></trkpt><trkpt lat="40.8183797" lon="8.455035"><ele>34.5</ele><time>2026-04-26T07:51:02.98Z</time></trkpt><trkpt lat="40.818336" lon="8.4551511"><ele>34.333333333333336</ele><time>2026-04-26T07:51:04.98Z</time></trkpt><trkpt lat="40.8183218" lon="8.4552649"><ele>34.16666666666667</ele><time>2026-04-26T07:51:06.979Z</time></trkpt><trkpt lat="40.8183155" lon="8.4553828"><ele>34.0</ele><time>2026-04-26T07:51:08.981Z</time></trkpt><trkpt lat="40.8183046" lon="8.4555184"><ele>34.0</ele><time>2026-04-26T07:51:10.981Z</time></trkpt><trkpt lat="40.8182853" lon="8.4556156"><ele>34.0</ele><time>2026-04-26T07:51:12.979Z</time></trkpt><trkpt lat="40.8182419" lon="8.4556894"><ele>34.0</ele><time>2026-04-26T07:51:14.979Z</time></trkpt><trkpt lat="40.8181827" lon="8.4557854"><ele>34.0</ele><time>2026-04-26T07:51:17.981Z</time></trkpt><trkpt lat="40.818145" lon="8.4558534"><ele>34.0</ele><time>2026-04-26T07:51:19.98Z</time></trkpt><trkpt lat="40.8181183" lon="8.4559775"><ele>34.0</ele><time>2026-04-26T07:51:22.979Z</time></trkpt><trkpt lat="40.8181184" lon="8.4560696"><ele>34.0</ele><time>2026-04-26T07:51:24.98Z</time></trkpt><trkpt lat="40.8181067" lon="8.4561676"><ele>34.0</ele><time>2026-04-26T07:51:26.98Z</time></trkpt><trkpt lat="40.8180807" lon="8.4562692"><ele>34.0</ele><time>2026-04-26T07:51:28.98Z</time></trkpt><trkpt lat="40.8180431" lon="8.4563592"><ele>34.0</ele><time>2026-04-26T07:51:30.98Z</time></trkpt><trkpt lat="40.8180093" lon="8.4564399"><ele>34.0</ele><time>2026-04-26T07:51:32.98Z</time></trkpt><trkpt lat="40.8179608" lon="8.4565417"><ele>34.0</ele><time>2026-04-26T07:51:34.979Z</time></trkpt><trkpt lat="40.817902" lon="8.4566438"><ele>32.4</ele><time>2026-04-26T07:51:36.979Z</time></trkpt><trkpt lat="40.8178512" lon="8.4567454"><ele>30.799999999999997</ele><time>2026-04-26T07:51:38.98Z</time></trkpt><trkpt lat="40.8177976" lon="8.456853"><ele>29.200000000000003</ele><time>2026-04-26T07:51:40.981Z</time></trkpt><trkpt lat="40.817752" lon="8.4569564"><ele>27.6</ele><time>2026-04-26T07:51:42.98Z</time></trkpt><trkpt lat="40.8177071" lon="8.4570638"><ele>26.0</ele><time>2026-04-26T07:51:44.979Z</time></trkpt><trkpt lat="40.8176639" lon="8.4571678"><ele>26.333333333333332</ele><time>2026-04-26T07:51:46.98Z</time></trkpt><trkpt lat="40.8176149" lon="8.4572687"><ele>26.666666666666664</ele><time>2026-04-26T07:51:48.98Z</time></trkpt><trkpt lat="40.8175571" lon="8.4573648"><ele>27.0</ele><time>2026-04-26T07:51:50.98Z</time></trkpt><trkpt lat="40.8175154" lon="8.4574566"><ele>27.333333333333336</ele><time>2026-04-26T07:51:52.979Z</time></trkpt><trkpt lat="40.8174662" lon="8.4575469"><ele>27.666666666666668</ele><time>2026-04-26T07:51:54.979Z</time></trkpt><trkpt lat="40.8174323" lon="8.4576304"><ele>28.0</ele><time>2026-04-26T07:51:56.979Z</time></trkpt><trkpt lat="40.8174185" lon="8.4577342"><ele>28.0</ele><time>2026-04-26T07:51:59.98Z</time></trkpt><trkpt lat="40.8174674" lon="8.4578088"><ele>27.999999999999996</ele><time>2026-04-26T07:52:03.981Z</time></trkpt><trkpt lat="40.8175527" lon="8.4578746"><ele>27.999999999999996</ele><time>2026-04-26T07:52:06.979Z</time></trkpt><trkpt lat="40.8176334" lon="8.4579189"><ele>28.0</ele><time>2026-04-26T07:52:08.98Z</time></trkpt><trkpt lat="40.8177226" lon="8.4579695"><ele>28.0</ele><time>2026-04-26T07:52:10.98Z</time></trkpt><trkpt lat="40.8178107" lon="8.4580146"><ele>25.857142857142858</ele><time>2026-04-26T07:52:12.979Z</time></trkpt><trkpt lat="40.8178924" lon="8.458052"><ele>23.714285714285715</ele><time>2026-04-26T07:52:14.98Z</time></trkpt><trkpt lat="40.8179704" lon="8.4580875"><ele>21.57142857142857</ele><time>2026-04-26T07:52:16.98Z</time></trkpt><trkpt lat="40.8180374" lon="8.4581222"><ele>19.42857142857143</ele><time>2026-04-26T07:52:18.98Z</time></trkpt><trkpt lat="40.818103" lon="8.4581403"><ele>17.285714285714285</ele><time>2026-04-26T07:52:20.98Z</time></trkpt><trkpt lat="40.8181602" lon="8.4581777"><ele>15.142857142857142</ele><time>2026-04-26T07:52:23.979Z</time></trkpt><trkpt lat="40.8182095" lon="8.4582306"><ele>13.0</ele><time>2026-04-26T07:52:26.979Z</time></trkpt><trkpt lat="40.8182725" lon="8.4582982"><ele>13.0</ele><time>2026-04-26T07:53:01.979Z</time></trkpt><trkpt lat="40.8183549" lon="8.4583555"><ele>13.0</ele><time>2026-04-26T07:53:04.978Z</time></trkpt><trkpt lat="40.8184242" lon="8.4584494"><ele>13.0</ele><time>2026-04-26T07:53:06.978Z</time></trkpt><trkpt lat="40.8184576" lon="8.4585283"><ele>13.0</ele><time>2026-04-26T07:53:07.979Z</time></trkpt><trkpt lat="40.81848" lon="8.4586399"><ele>13.0</ele><time>2026-04-26T07:53:08.979Z</time></trkpt><trkpt lat="40.8185018" lon="8.4587718"><ele>11.0</ele><time>2026-04-26T07:53:09.978Z</time></trkpt><trkpt lat="40.8185161" lon="8.4589266"><ele>9.0</ele><time>2026-04-26T07:53:10.979Z</time></trkpt><trkpt lat="40.8185285" lon="8.4590866"><ele>7.0</ele><time>2026-04-26T07:53:11.979Z</time></trkpt><trkpt lat="40.8185379" lon="8.4592527"><ele>5.0</ele><time>2026-04-26T07:53:12.978Z</time></trkpt><trkpt lat="40.8185361" lon="8.4594202"><ele>5.0</ele><time>2026-04-26T07:53:13.979Z</time></trkpt><trkpt lat="40.8185245" lon="8.4595821"><ele>5.0</ele><time>2026-04-26T07:53:14.98Z</time></trkpt><trkpt lat="40.8184967" lon="8.4597516"><ele>5.0</ele><time>2026-04-26T07:53:15.98Z</time></trkpt><trkpt lat="40.8184577" lon="8.4599205"><ele>5.0</ele><time>2026-04-26T07:53:16.979Z</time></trkpt><trkpt lat="40.818412" lon="8.4600826"><ele>5.25</ele><time>2026-04-26T07:53:17.979Z</time></trkpt><trkpt lat="40.8183569" lon="8.4602413"><ele>5.5</ele><time>2026-04-26T07:53:18.979Z</time></trkpt><trkpt lat="40.8183017" lon="8.4604005"><ele>5.75</ele><time>2026-04-26T07:53:19.979Z</time></trkpt><trkpt lat="40.8182461" lon="8.4605544"><ele>6.0</ele><time>2026-04-26T07:53:20.98Z</time></trkpt><trkpt lat="40.8181886" lon="8.4607061"><ele>6.0</ele><time>2026-04-26T07:53:21.979Z</time></trkpt><trkpt lat="40.8181282" lon="8.4608559"><ele>6.0</ele><time>2026-04-26T07:53:22.981Z</time></trkpt><trkpt lat="40.8180703" lon="8.4610096"><ele>6.0</ele><time>2026-04-26T07:53:23.98Z</time></trkpt><trkpt lat="40.8180153" lon="8.4611628"><ele>6.0</ele><time>2026-04-26T07:53:24.979Z</time></trkpt><trkpt lat="40.8179558" lon="8.4613151"><ele>6.25</ele><time>2026-04-26T07:53:25.978Z</time></trkpt><trkpt lat="40.8178927" lon="8.4614646"><ele>6.5</ele><time>2026-04-26T07:53:26.979Z</time></trkpt><trkpt lat="40.8178222" lon="8.4616123"><ele>6.75</ele><time>2026-04-26T07:53:27.979Z</time></trkpt><trkpt lat="40.8177551" lon="8.461761"><ele>7.0</ele><time>2026-04-26T07:53:28.979Z</time></trkpt><trkpt lat="40.8176871" lon="8.4619092"><ele>7.25</ele><time>2026-04-26T07:53:29.979Z</time></trkpt><trkpt lat="40.8176208" lon="8.4620557"><ele>7.5</ele><time>2026-04-26T07:53:30.98Z</time></trkpt><trkpt lat="40.8175514" lon="8.4621978"><ele>7.75</ele><time>2026-04-26T07:53:31.979Z</time></trkpt><trkpt lat="40.8174876" lon="8.4623454"><ele>8.0</ele><time>2026-04-26T07:53:32.983Z</time></trkpt><trkpt lat="40.8174204" lon="8.4624901"><ele>8.0</ele><time>2026-04-26T07:53:33.979Z</time></trkpt><trkpt lat="40.8173557" lon="8.4626349"><ele>8.0</ele><time>2026-04-26T07:53:34.98Z</time></trkpt><trkpt lat="40.8172867" lon="8.4627778"><ele>8.0</ele><time>2026-04-26T07:53:35.98Z</time></trkpt><trkpt lat="40.8172206" lon="8.4629249"><ele>8.0</ele><time>2026-04-26T07:53:36.98Z</time></trkpt><trkpt lat="40.8171573" lon="8.4630739"><ele>8.0</ele><time>2026-04-26T07:53:37.979Z</time></trkpt><trkpt lat="40.8170956" lon="8.4632241"><ele>8.0</ele><time>2026-04-26T07:53:38.98Z</time></trkpt><trkpt lat="40.8170358" lon="8.4633786"><ele>8.0</ele><time>2026-04-26T07:53:39.979Z</time></trkpt><trkpt lat="40.816979" lon="8.4635351"><ele>8.0</ele><time>2026-04-26T07:53:40.98Z</time></trkpt><trkpt lat="40.8169158" lon="8.4636884"><ele>8.0</ele><time>2026-04-26T07:53:41.979Z</time></trkpt><trkpt lat="40.8168551" lon="8.4638437"><ele>8.0</ele><time>2026-04-26T07:53:42.979Z</time></trkpt><trkpt lat="40.8167927" lon="8.4639964"><ele>8.0</ele><time>2026-04-26T07:53:43.98Z</time></trkpt><trkpt lat="40.8167287" lon="8.4641496"><ele>8.0</ele><time>2026-04-26T07:53:44.979Z</time></trkpt><trkpt lat="40.8166673" lon="8.4643038"><ele>7.75</ele><time>2026-04-26T07:53:45.98Z</time></trkpt><trkpt lat="40.8166047" lon="8.4644575"><ele>7.5</ele><time>2026-04-26T07:53:46.979Z</time></trkpt><trkpt lat="40.8165425" lon="8.4646102"><ele>7.25</ele><time>2026-04-26T07:53:47.98Z</time></trkpt><trkpt lat="40.8164825" lon="8.4647617"><ele>7.0</ele><time>2026-04-26T07:53:48.979Z</time></trkpt><trkpt lat="40.8164237" lon="8.4649069"><ele>7.0</ele><time>2026-04-26T07:53:49.98Z</time></trkpt><trkpt lat="40.8163692" lon="8.4650466"><ele>6.999999999999999</ele><time>2026-04-26T07:53:50.98Z</time></trkpt><trkpt lat="40.8163156" lon="8.4651808"><ele>6.999999999999999</ele><time>2026-04-26T07:53:51.979Z</time></trkpt><trkpt lat="40.8162615" lon="8.4653061"><ele>7.0</ele><time>2026-04-26T07:53:52.978Z</time></trkpt><trkpt lat="40.8162095" lon="8.4654254"><ele>7.0</ele><time>2026-04-26T07:53:53.98Z</time></trkpt><trkpt lat="40.8161588" lon="8.4655378"><ele>7.000000000000001</ele><time>2026-04-26T07:53:54.98Z</time></trkpt><trkpt lat="40.8161114" lon="8.4656429"><ele>7.0</ele><time>2026-04-26T07:53:55.984Z</time></trkpt><trkpt lat="40.8160664" lon="8.4657446"><ele>7.0</ele><time>2026-04-26T07:53:56.981Z</time></trkpt><trkpt lat="40.8160135" lon="8.4658329"><ele>7.0</ele><time>2026-04-26T07:53:57.981Z</time></trkpt><trkpt lat="40.8159509" lon="8.4659032"><ele>7.000000000000001</ele><time>2026-04-26T07:53:58.981Z</time></trkpt><trkpt lat="40.8158799" lon="8.4659483"><ele>7.0</ele><time>2026-04-26T07:53:59.979Z</time></trkpt><trkpt lat="40.8158057" lon="8.4659748"><ele>6.833333333333334</ele><time>2026-04-26T07:54:00.979Z</time></trkpt><trkpt lat="40.8157297" lon="8.4660034"><ele>6.666666666666667</ele><time>2026-04-26T07:54:01.981Z</time></trkpt><trkpt lat="40.8156574" lon="8.4660397"><ele>6.5</ele><time>2026-04-26T07:54:02.982Z</time></trkpt><trkpt lat="40.8155891" lon="8.4660973"><ele>6.333333333333334</ele><time>2026-04-26T07:54:03.98Z</time></trkpt><trkpt lat="40.8155255" lon="8.4661706"><ele>6.166666666666667</ele><time>2026-04-26T07:54:04.98Z</time></trkpt><trkpt lat="40.8154658" lon="8.4662588"><ele>6.0</ele><time>2026-04-26T07:54:05.981Z</time></trkpt><trkpt lat="40.8154106" lon="8.4663629"><ele>6.0</ele><time>2026-04-26T07:54:06.982Z</time></trkpt><trkpt lat="40.8153602" lon="8.4664793"><ele>6.0</ele><time>2026-04-26T07:54:07.981Z</time></trkpt><trkpt lat="40.8153112" lon="8.4666096"><ele>6.0</ele><time>2026-04-26T07:54:08.981Z</time></trkpt><trkpt lat="40.8152644" lon="8.4667453"><ele>6.0</ele><time>2026-04-26T07:54:09.98Z</time></trkpt><trkpt lat="40.8152179" lon="8.4668807"><ele>6.0</ele><time>2026-04-26T07:54:10.98Z</time></trkpt><trkpt lat="40.8151683" lon="8.4670243"><ele>5.25</ele><time>2026-04-26T07:54:11.981Z</time></trkpt><trkpt lat="40.815117" lon="8.4671738"><ele>4.5</ele><time>2026-04-26T07:54:12.981Z</time></trkpt><trkpt lat="40.8150607" lon="8.4673245"><ele>3.75</ele><time>2026-04-26T07:54:13.98Z</time></trkpt><trkpt lat="40.8150019" lon="8.4674785"><ele>3.0</ele><time>2026-04-26T07:54:14.981Z</time></trkpt><trkpt lat="40.8149379" lon="8.4676316"><ele>3.0</ele><time>2026-04-26T07:54:15.981Z</time></trkpt><trkpt lat="40.8148691" lon="8.4677838"><ele>3.0</ele><time>2026-04-26T07:54:16.981Z</time></trkpt><trkpt lat="40.8147991" lon="8.4679375"><ele>3.0</ele><time>2026-04-26T07:54:17.98Z</time></trkpt><trkpt lat="40.8147274" lon="8.4680932"><ele>3.0</ele><time>2026-04-26T07:54:18.981Z</time></trkpt><trkpt lat="40.814655" lon="8.4682501"><ele>3.0</ele><time>2026-04-26T07:54:19.981Z</time></trkpt><trkpt lat="40.8145784" lon="8.4684051"><ele>3.0</ele><time>2026-04-26T07:54:20.981Z</time></trkpt><trkpt lat="40.8145046" lon="8.4685612"><ele>3.0</ele><time>2026-04-26T07:54:21.98Z</time></trkpt><trkpt lat="40.814432" lon="8.4687198"><ele>3.0</ele><time>2026-04-26T07:54:22.98Z</time></trkpt><trkpt lat="40.8143614" lon="8.4688826"><ele>3.0</ele><time>2026-04-26T07:54:23.981Z</time></trkpt><trkpt lat="40.8142969" lon="8.4690512"><ele>3.0</ele><time>2026-04-26T07:54:24.981Z</time></trkpt><trkpt lat="40.8142427" lon="8.4692271"><ele>3.0</ele><time>2026-04-26T07:54:25.98Z</time></trkpt><trkpt lat="40.8141957" lon="8.4694084"><ele>3.0</ele><time>2026-04-26T07:54:26.979Z</time></trkpt><trkpt lat="40.8141556" lon="8.4695953"><ele>3.333333333333333</ele><time>2026-04-26T07:54:27.979Z</time></trkpt><trkpt lat="40.8141163" lon="8.4697857"><ele>3.6666666666666665</ele><time>2026-04-26T07:54:28.981Z</time></trkpt><trkpt lat="40.8140792" lon="8.4699781"><ele>4.0</ele><time>2026-04-26T07:54:29.98Z</time></trkpt><trkpt lat="40.8140451" lon="8.4701725"><ele>4.0</ele><time>2026-04-26T07:54:30.979Z</time></trkpt><trkpt lat="40.8140167" lon="8.4703692"><ele>4.0</ele><time>2026-04-26T07:54:31.979Z</time></trkpt><trkpt lat="40.8139855" lon="8.4705665"><ele>4.0</ele><time>2026-04-26T07:54:32.981Z</time></trkpt><trkpt lat="40.8139505" lon="8.4707635"><ele>3.6666666666666665</ele><time>2026-04-26T07:54:33.981Z</time></trkpt><trkpt lat="40.8139176" lon="8.4709616"><ele>3.333333333333333</ele><time>2026-04-26T07:54:34.979Z</time></trkpt><trkpt lat="40.8138846" lon="8.4711578"><ele>3.0</ele><time>2026-04-26T07:54:35.98Z</time></trkpt><trkpt lat="40.8138477" lon="8.4713544"><ele>2.3333333333333335</ele><time>2026-04-26T07:54:36.981Z</time></trkpt><trkpt lat="40.813815" lon="8.4715514"><ele>1.6666666666666665</ele><time>2026-04-26T07:54:37.981Z</time></trkpt><trkpt lat="40.8137786" lon="8.4717491"><ele>1.0</ele><time>2026-04-26T07:54:38.98Z</time></trkpt><trkpt lat="40.8137441" lon="8.4719487"><ele>0.3333333333333333</ele><time>2026-04-26T07:54:39.981Z</time></trkpt><trkpt lat="40.8137082" lon="8.4721449"><ele>-0.3333333333333333</ele><time>2026-04-26T07:54:40.98Z</time></trkpt><trkpt lat="40.8136738" lon="8.4723412"><ele>-1.0</ele><time>2026-04-26T07:54:41.981Z</time></trkpt><trkpt lat="40.813638" lon="8.4725362"><ele>-1.0</ele><time>2026-04-26T07:54:42.98Z</time></trkpt><trkpt lat="40.8135991" lon="8.4727299"><ele>-1.0</ele><time>2026-04-26T07:54:43.979Z</time></trkpt><trkpt lat="40.8135638" lon="8.4729258"><ele>-1.0</ele><time>2026-04-26T07:54:44.981Z</time></trkpt><trkpt lat="40.8135291" lon="8.4731218"><ele>-1.0</ele><time>2026-04-26T07:54:45.98Z</time></trkpt><trkpt lat="40.8134974" lon="8.4733202"><ele>-1.0</ele><time>2026-04-26T07:54:46.979Z</time></trkpt><trkpt lat="40.8134581" lon="8.473512"><ele>-1.0</ele><time>2026-04-26T07:54:47.979Z</time></trkpt><trkpt lat="40.8134167" lon="8.4737006"><ele>-0.5</ele><time>2026-04-26T07:54:48.98Z</time></trkpt><trkpt lat="40.8133678" lon="8.4738852"><ele>0.0</ele><time>2026-04-26T07:54:49.979Z</time></trkpt><trkpt lat="40.8133108" lon="8.4740649"><ele>0.5</ele><time>2026-04-26T07:54:50.98Z</time></trkpt><trkpt lat="40.8132443" lon="8.4742389"><ele>1.0</ele><time>2026-04-26T07:54:51.979Z</time></trkpt><trkpt lat="40.8131705" lon="8.4744065"><ele>1.0</ele><time>2026-04-26T07:54:52.979Z</time></trkpt><trkpt lat="40.8130857" lon="8.4745635"><ele>1.0</ele><time>2026-04-26T07:54:53.981Z</time></trkpt><trkpt lat="40.812989" lon="8.4747082"><ele>1.0</ele><time>2026-04-26T07:54:54.979Z</time></trkpt><trkpt lat="40.8128822" lon="8.4748399"><ele>1.0</ele><time>2026-04-26T07:54:55.982Z</time></trkpt><trkpt lat="40.8127671" lon="8.4749597"><ele>1.75</ele><time>2026-04-26T07:54:56.982Z</time></trkpt><trkpt lat="40.8126458" lon="8.4750669"><ele>2.5</ele><time>2026-04-26T07:54:57.98Z</time></trkpt><trkpt lat="40.8125175" lon="8.4751583"><ele>3.25</ele><time>2026-04-26T07:54:58.982Z</time></trkpt><trkpt lat="40.8123833" lon="8.4752386"><ele>4.0</ele><time>2026-04-26T07:54:59.983Z</time></trkpt><trkpt lat="40.8122443" lon="8.4753052"><ele>4.0</ele><time>2026-04-26T07:55:00.981Z</time></trkpt><trkpt lat="40.8120969" lon="8.4753582"><ele>4.0</ele><time>2026-04-26T07:55:01.982Z</time></trkpt><trkpt lat="40.811943" lon="8.4754005"><ele>4.0</ele><time>2026-04-26T07:55:02.981Z</time></trkpt><trkpt lat="40.8117969" lon="8.4754399"><ele>4.0</ele><time>2026-04-26T07:55:03.98Z</time></trkpt><trkpt lat="40.8116481" lon="8.4754765"><ele>4.0</ele><time>2026-04-26T07:55:04.982Z</time></trkpt><trkpt lat="40.8115005" lon="8.4755121"><ele>4.0</ele><time>2026-04-26T07:55:05.978Z</time></trkpt><trkpt lat="40.8113574" lon="8.4755452"><ele>4.0</ele><time>2026-04-26T07:55:06.978Z</time></trkpt><trkpt lat="40.8112191" lon="8.4755789"><ele>4.0</ele><time>2026-04-26T07:55:07.979Z</time></trkpt><trkpt lat="40.8110774" lon="8.4756156"><ele>4.0</ele><time>2026-04-26T07:55:08.98Z</time></trkpt><trkpt lat="40.8109336" lon="8.4756538"><ele>4.0</ele><time>2026-04-26T07:55:09.979Z</time></trkpt><trkpt lat="40.8107895" lon="8.4756907"><ele>4.0</ele><time>2026-04-26T07:55:10.978Z</time></trkpt><trkpt lat="40.8106478" lon="8.4757261"><ele>5.5</ele><time>2026-04-26T07:55:11.979Z</time></trkpt><trkpt lat="40.8105012" lon="8.4757651"><ele>7.0</ele><time>2026-04-26T07:55:12.979Z</time></trkpt><trkpt lat="40.8103583" lon="8.4758012"><ele>8.5</ele><time>2026-04-26T07:55:13.98Z</time></trkpt><trkpt lat="40.8102117" lon="8.4758394"><ele>10.0</ele><time>2026-04-26T07:55:14.98Z</time></trkpt><trkpt lat="40.8100652" lon="8.4758751"><ele>10.75</ele><time>2026-04-26T07:55:15.979Z</time></trkpt><trkpt lat="40.809921" lon="8.4759142"><ele>11.5</ele><time>2026-04-26T07:55:16.98Z</time></trkpt><trkpt lat="40.8097753" lon="8.4759547"><ele>12.25</ele><time>2026-04-26T07:55:17.98Z</time></trkpt><trkpt lat="40.8096312" lon="8.4759951"><ele>13.0</ele><time>2026-04-26T07:55:18.979Z</time></trkpt><trkpt lat="40.8094923" lon="8.4760314"><ele>13.0</ele><time>2026-04-26T07:55:19.98Z</time></trkpt><trkpt lat="40.8093538" lon="8.4760652"><ele>13.0</ele><time>2026-04-26T07:55:20.979Z</time></trkpt><trkpt lat="40.8092137" lon="8.4761018"><ele>13.0</ele><time>2026-04-26T07:55:21.978Z</time></trkpt><trkpt lat="40.8090743" lon="8.4761395"><ele>13.0</ele><time>2026-04-26T07:55:22.98Z</time></trkpt><trkpt lat="40.8089359" lon="8.4761775"><ele>13.5</ele><time>2026-04-26T07:55:23.979Z</time></trkpt><trkpt lat="40.808802" lon="8.4762136"><ele>14.0</ele><time>2026-04-26T07:55:24.979Z</time></trkpt><trkpt lat="40.8086655" lon="8.4762494"><ele>14.5</ele><time>2026-04-26T07:55:25.98Z</time></trkpt><trkpt lat="40.8085308" lon="8.4762856"><ele>15.0</ele><time>2026-04-26T07:55:26.981Z</time></trkpt><trkpt lat="40.8084001" lon="8.4763214"><ele>16.0</ele><time>2026-04-26T07:55:27.981Z</time></trkpt><trkpt lat="40.8082706" lon="8.4763558"><ele>17.0</ele><time>2026-04-26T07:55:28.98Z</time></trkpt><trkpt lat="40.8081388" lon="8.4763912"><ele>18.0</ele><time>2026-04-26T07:55:29.979Z</time></trkpt><trkpt lat="40.8080064" lon="8.4764229"><ele>19.0</ele><time>2026-04-26T07:55:30.979Z</time></trkpt><trkpt lat="40.8078775" lon="8.4764561"><ele>19.0</ele><time>2026-04-26T07:55:31.979Z</time></trkpt><trkpt lat="40.8077562" lon="8.4764834"><ele>19.0</ele><time>2026-04-26T07:55:32.98Z</time></trkpt><trkpt lat="40.8076436" lon="8.4765096"><ele>19.0</ele><time>2026-04-26T07:55:33.98Z</time></trkpt><trkpt lat="40.8075383" lon="8.476534"><ele>19.0</ele><time>2026-04-26T07:55:34.98Z</time></trkpt><trkpt lat="40.8074415" lon="8.4765582"><ele>19.0</ele><time>2026-04-26T07:55:35.98Z</time></trkpt><trkpt lat="40.8073527" lon="8.4765824"><ele>19.5</ele><time>2026-04-26T07:55:36.981Z</time></trkpt><trkpt lat="40.8072736" lon="8.4766012"><ele>20.0</ele><time>2026-04-26T07:55:37.981Z</time></trkpt><trkpt lat="40.8072021" lon="8.4766104"><ele>20.5</ele><time>2026-04-26T07:55:38.98Z</time></trkpt><trkpt lat="40.807139" lon="8.4766085"><ele>21.0</ele><time>2026-04-26T07:55:39.981Z</time></trkpt><trkpt lat="40.8070354" lon="8.4765956"><ele>21.5</ele><time>2026-04-26T07:55:41.981Z</time></trkpt><trkpt lat="40.8069373" lon="8.4766291"><ele>22.0</ele><time>2026-04-26T07:55:43.982Z</time></trkpt><trkpt lat="40.8068332" lon="8.4766925"><ele>22.333333333333332</ele><time>2026-04-26T07:55:45.979Z</time></trkpt><trkpt lat="40.8067093" lon="8.4767335"><ele>22.666666666666664</ele><time>2026-04-26T07:55:47.979Z</time></trkpt><trkpt lat="40.8066369" lon="8.4767506"><ele>23.0</ele><time>2026-04-26T07:55:48.979Z</time></trkpt><trkpt lat="40.8065615" lon="8.476774"><ele>23.333333333333332</ele><time>2026-04-26T07:55:49.98Z</time></trkpt><trkpt lat="40.8064935" lon="8.4767936"><ele>23.666666666666668</ele><time>2026-04-26T07:55:50.98Z</time></trkpt><trkpt lat="40.8064035" lon="8.4768176"><ele>24.0</ele><time>2026-04-26T07:55:52.979Z</time></trkpt><trkpt lat="40.8063387" lon="8.4768632"><ele>24.0</ele><time>2026-04-26T07:55:55.979Z</time></trkpt><trkpt lat="40.8064187" lon="8.4768971"><ele>24.0</ele><time>2026-04-26T07:55:59.981Z</time></trkpt><trkpt lat="40.8065389" lon="8.47687"><ele>24.0</ele><time>2026-04-26T07:56:01.98Z</time></trkpt><trkpt lat="40.806616" lon="8.4768515"><ele>24.0</ele><time>2026-04-26T07:56:02.979Z</time></trkpt><trkpt lat="40.8066934" lon="8.4768353"><ele>24.0</ele><time>2026-04-26T07:56:03.979Z</time></trkpt><trkpt lat="40.8067614" lon="8.4768237"><ele>24.0</ele><time>2026-04-26T07:56:04.979Z</time></trkpt><trkpt lat="40.8068246" lon="8.4768171"><ele>23.666666666666668</ele><time>2026-04-26T07:56:05.98Z</time></trkpt><trkpt lat="40.8069231" lon="8.4768457"><ele>23.333333333333332</ele><time>2026-04-26T07:56:07.98Z</time></trkpt><trkpt lat="40.8069649" lon="8.4769435"><ele>23.0</ele><time>2026-04-26T07:56:09.979Z</time></trkpt><trkpt lat="40.8069612" lon="8.4770312"><ele>22.666666666666664</ele><time>2026-04-26T07:56:10.979Z</time></trkpt><trkpt lat="40.8069448" lon="8.4771373"><ele>22.333333333333332</ele><time>2026-04-26T07:56:11.98Z</time></trkpt><trkpt lat="40.8069265" lon="8.4772542"><ele>22.0</ele><time>2026-04-26T07:56:12.98Z</time></trkpt><trkpt lat="40.8069076" lon="8.4773776"><ele>21.5</ele><time>2026-04-26T07:56:13.979Z</time></trkpt><trkpt lat="40.8068932" lon="8.4775017"><ele>21.0</ele><time>2026-04-26T07:56:14.979Z</time></trkpt><trkpt lat="40.8068792" lon="8.4776238"><ele>20.5</ele><time>2026-04-26T07:56:15.98Z</time></trkpt><trkpt lat="40.8068657" lon="8.4777378"><ele>20.0</ele><time>2026-04-26T07:56:16.979Z</time></trkpt><trkpt lat="40.8068549" lon="8.4778447"><ele>19.5</ele><time>2026-04-26T07:56:17.979Z</time></trkpt><trkpt lat="40.8068543" lon="8.4779401"><ele>19.0</ele><time>2026-04-26T07:56:18.98Z</time></trkpt><trkpt lat="40.8068695" lon="8.4780233"><ele>19.0</ele><time>2026-04-26T07:56:19.979Z</time></trkpt><trkpt lat="40.8069427" lon="8.4781562"><ele>19.0</ele><time>2026-04-26T07:56:21.978Z</time></trkpt><trkpt lat="40.8069846" lon="8.4782266"><ele>19.0</ele><time>2026-04-26T07:56:22.981Z</time></trkpt><trkpt lat="40.8070228" lon="8.4783056"><ele>19.0</ele><time>2026-04-26T07:56:23.98Z</time></trkpt><trkpt lat="40.8070618" lon="8.4783896"><ele>19.0</ele><time>2026-04-26T07:56:24.978Z</time></trkpt><trkpt lat="40.807101" lon="8.478473"><ele>19.0</ele><time>2026-04-26T07:56:25.979Z</time></trkpt><trkpt lat="40.8071439" lon="8.4785557"><ele>19.0</ele><time>2026-04-26T07:56:26.98Z</time></trkpt><trkpt lat="40.8071915" lon="8.4786386"><ele>19.0</ele><time>2026-04-26T07:56:27.98Z</time></trkpt><trkpt lat="40.8072389" lon="8.4787227"><ele>19.0</ele><time>2026-04-26T07:56:28.978Z</time></trkpt><trkpt lat="40.8072856" lon="8.478812"><ele>19.0</ele><time>2026-04-26T07:56:29.98Z</time></trkpt><trkpt lat="40.8073376" lon="8.4789051"><ele>19.0</ele><time>2026-04-26T07:56:30.98Z</time></trkpt><trkpt lat="40.8073903" lon="8.4790033"><ele>19.0</ele><time>2026-04-26T07:56:31.98Z</time></trkpt><trkpt lat="40.8074406" lon="8.479109"><ele>18.8</ele><time>2026-04-26T07:56:32.98Z</time></trkpt><trkpt lat="40.8074939" lon="8.4792161"><ele>18.599999999999998</ele><time>2026-04-26T07:56:33.981Z</time></trkpt><trkpt lat="40.8075465" lon="8.4793236"><ele>18.4</ele><time>2026-04-26T07:56:34.98Z</time></trkpt><trkpt lat="40.8075954" lon="8.4794315"><ele>18.2</ele><time>2026-04-26T07:56:35.978Z</time></trkpt><trkpt lat="40.8076432" lon="8.4795393"><ele>18.0</ele><time>2026-04-26T07:56:36.978Z</time></trkpt><trkpt lat="40.8076943" lon="8.4796471"><ele>17.4</ele><time>2026-04-26T07:56:37.98Z</time></trkpt><trkpt lat="40.8077456" lon="8.4797529"><ele>16.8</ele><time>2026-04-26T07:56:38.98Z</time></trkpt><trkpt lat="40.807796" lon="8.4798604"><ele>16.2</ele><time>2026-04-26T07:56:39.978Z</time></trkpt><trkpt lat="40.8078493" lon="8.4799653"><ele>15.6</ele><time>2026-04-26T07:56:40.98Z</time></trkpt><trkpt lat="40.8079039" lon="8.4800681"><ele>15.0</ele><time>2026-04-26T07:56:41.984Z</time></trkpt><trkpt lat="40.8079577" lon="8.4801727"><ele>15.0</ele><time>2026-04-26T07:56:42.979Z</time></trkpt><trkpt lat="40.8080091" lon="8.4802811"><ele>15.0</ele><time>2026-04-26T07:56:43.981Z</time></trkpt><trkpt lat="40.8080627" lon="8.4803895"><ele>15.0</ele><time>2026-04-26T07:56:44.978Z</time></trkpt><trkpt lat="40.8081122" lon="8.4804985"><ele>15.0</ele><time>2026-04-26T07:56:45.98Z</time></trkpt><trkpt lat="40.8081636" lon="8.4806088"><ele>15.0</ele><time>2026-04-26T07:56:46.98Z</time></trkpt><trkpt lat="40.8082176" lon="8.4807214"><ele>15.0</ele><time>2026-04-26T07:56:47.979Z</time></trkpt><trkpt lat="40.8082712" lon="8.4808336"><ele>15.0</ele><time>2026-04-26T07:56:48.979Z</time></trkpt><trkpt lat="40.8083275" lon="8.4809438"><ele>15.0</ele><time>2026-04-26T07:56:49.978Z</time></trkpt><trkpt lat="40.8083804" lon="8.4810548"><ele>15.0</ele><time>2026-04-26T07:56:50.979Z</time></trkpt><trkpt lat="40.8084316" lon="8.481169"><ele>15.0</ele><time>2026-04-26T07:56:51.979Z</time></trkpt><trkpt lat="40.8084848" lon="8.4812869"><ele>14.8</ele><time>2026-04-26T07:56:52.979Z</time></trkpt><trkpt lat="40.8085404" lon="8.4814084"><ele>14.6</ele><time>2026-04-26T07:56:53.98Z</time></trkpt><trkpt lat="40.808593" lon="8.481523"><ele>14.399999999999999</ele><time>2026-04-26T07:56:54.98Z</time></trkpt><trkpt lat="40.8086459" lon="8.4816374"><ele>14.2</ele><time>2026-04-26T07:56:55.981Z</time></trkpt><trkpt lat="40.8086983" lon="8.4817516"><ele>14.0</ele><time>2026-04-26T07:56:56.979Z</time></trkpt><trkpt lat="40.8087496" lon="8.4818628"><ele>14.0</ele><time>2026-04-26T07:56:57.979Z</time></trkpt><trkpt lat="40.8087948" lon="8.4819747"><ele>13.999999999999998</ele><time>2026-04-26T07:56:58.979Z</time></trkpt><trkpt lat="40.8088403" lon="8.4820904"><ele>13.999999999999998</ele><time>2026-04-26T07:56:59.979Z</time></trkpt><trkpt lat="40.8088893" lon="8.4822135"><ele>14.0</ele><time>2026-04-26T07:57:00.979Z</time></trkpt><trkpt lat="40.8089421" lon="8.4823358"><ele>14.0</ele><time>2026-04-26T07:57:01.98Z</time></trkpt><trkpt lat="40.8089939" lon="8.4824513"><ele>13.799999999999999</ele><time>2026-04-26T07:57:02.98Z</time></trkpt><trkpt lat="40.8090414" lon="8.4825627"><ele>13.599999999999998</ele><time>2026-04-26T07:57:03.98Z</time></trkpt><trkpt lat="40.8090925" lon="8.4826783"><ele>13.4</ele><time>2026-04-26T07:57:04.98Z</time></trkpt><trkpt lat="40.8091419" lon="8.4827974"><ele>13.2</ele><time>2026-04-26T07:57:05.982Z</time></trkpt><trkpt lat="40.8091948" lon="8.4829097"><ele>13.0</ele><time>2026-04-26T07:57:06.979Z</time></trkpt><trkpt lat="40.8092425" lon="8.4830146"><ele>12.8</ele><time>2026-04-26T07:57:07.98Z</time></trkpt><trkpt lat="40.8092929" lon="8.483119"><ele>12.600000000000001</ele><time>2026-04-26T07:57:08.98Z</time></trkpt><trkpt lat="40.8093438" lon="8.4832268"><ele>12.399999999999999</ele><time>2026-04-26T07:57:09.979Z</time></trkpt><trkpt lat="40.8093919" lon="8.4833383"><ele>12.2</ele><time>2026-04-26T07:57:10.98Z</time></trkpt><trkpt lat="40.8094418" lon="8.4834547"><ele>12.0</ele><time>2026-04-26T07:57:11.98Z</time></trkpt><trkpt lat="40.8094963" lon="8.4835754"><ele>12.0</ele><time>2026-04-26T07:57:12.981Z</time></trkpt><trkpt lat="40.8095528" lon="8.4836957"><ele>12.0</ele><time>2026-04-26T07:57:13.981Z</time></trkpt><trkpt lat="40.8096083" lon="8.483812"><ele>12.0</ele><time>2026-04-26T07:57:14.98Z</time></trkpt><trkpt lat="40.8096697" lon="8.4839292"><ele>12.0</ele><time>2026-04-26T07:57:15.98Z</time></trkpt><trkpt lat="40.8097254" lon="8.4840385"><ele>12.0</ele><time>2026-04-26T07:57:16.979Z</time></trkpt><trkpt lat="40.8097798" lon="8.4841472"><ele>12.0</ele><time>2026-04-26T07:57:17.979Z</time></trkpt><trkpt lat="40.8098326" lon="8.4842514"><ele>12.0</ele><time>2026-04-26T07:57:18.979Z</time></trkpt><trkpt lat="40.8098893" lon="8.4843618"><ele>12.0</ele><time>2026-04-26T07:57:19.978Z</time></trkpt><trkpt lat="40.8099452" lon="8.484482"><ele>12.0</ele><time>2026-04-26T07:57:20.979Z</time></trkpt><trkpt lat="40.8099999" lon="8.4846082"><ele>12.0</ele><time>2026-04-26T07:57:21.978Z</time></trkpt><trkpt lat="40.8100603" lon="8.4847477"><ele>11.8</ele><time>2026-04-26T07:57:22.979Z</time></trkpt><trkpt lat="40.810115" lon="8.4848899"><ele>11.6</ele><time>2026-04-26T07:57:23.979Z</time></trkpt><trkpt lat="40.8101616" lon="8.4850194"><ele>11.4</ele><time>2026-04-26T07:57:24.979Z</time></trkpt><trkpt lat="40.8102094" lon="8.4851351"><ele>11.200000000000001</ele><time>2026-04-26T07:57:25.978Z</time></trkpt><trkpt lat="40.810255" lon="8.4852416"><ele>11.0</ele><time>2026-04-26T07:57:26.979Z</time></trkpt><trkpt lat="40.8103024" lon="8.4853437"><ele>10.666666666666666</ele><time>2026-04-26T07:57:27.979Z</time></trkpt><trkpt lat="40.8103435" lon="8.4854478"><ele>10.333333333333332</ele><time>2026-04-26T07:57:28.979Z</time></trkpt><trkpt lat="40.8103838" lon="8.4855511"><ele>10.0</ele><time>2026-04-26T07:57:29.978Z</time></trkpt><trkpt lat="40.8104232" lon="8.4856527"><ele>9.666666666666666</ele><time>2026-04-26T07:57:30.978Z</time></trkpt><trkpt lat="40.8104632" lon="8.4857517"><ele>9.333333333333334</ele><time>2026-04-26T07:57:31.979Z</time></trkpt><trkpt lat="40.8105003" lon="8.4858455"><ele>9.0</ele><time>2026-04-26T07:57:32.98Z</time></trkpt><trkpt lat="40.8105401" lon="8.4859384"><ele>9.000000000000002</ele><time>2026-04-26T07:57:33.981Z</time></trkpt><trkpt lat="40.8105755" lon="8.4860265"><ele>9.0</ele><time>2026-04-26T07:57:34.981Z</time></trkpt><trkpt lat="40.8106091" lon="8.4861087"><ele>9.0</ele><time>2026-04-26T07:57:35.979Z</time></trkpt><trkpt lat="40.8106419" lon="8.4861827"><ele>9.0</ele><time>2026-04-26T07:57:36.979Z</time></trkpt><trkpt lat="40.8106787" lon="8.4862536"><ele>9.0</ele><time>2026-04-26T07:57:37.98Z</time></trkpt><trkpt lat="40.8107211" lon="8.4863258"><ele>9.000000000000002</ele><time>2026-04-26T07:57:38.979Z</time></trkpt><trkpt lat="40.8107578" lon="8.4863986"><ele>9.0</ele><time>2026-04-26T07:57:39.98Z</time></trkpt><trkpt lat="40.8108082" lon="8.486524"><ele>9.0</ele><time>2026-04-26T07:57:41.979Z</time></trkpt><trkpt lat="40.8108119" lon="8.4866528"><ele>9.0</ele><time>2026-04-26T07:57:43.98Z</time></trkpt><trkpt lat="40.8107991" lon="8.4867497"><ele>9.0</ele><time>2026-04-26T07:57:44.979Z</time></trkpt><trkpt lat="40.8107776" lon="8.4868585"><ele>9.0</ele><time>2026-04-26T07:57:45.98Z</time></trkpt><trkpt lat="40.8107578" lon="8.486962"><ele>9.0</ele><time>2026-04-26T07:57:46.978Z</time></trkpt><trkpt lat="40.810743" lon="8.4870635"><ele>9.0</ele><time>2026-04-26T07:57:47.979Z</time></trkpt><trkpt lat="40.8107241" lon="8.4871607"><ele>9.000000000000002</ele><time>2026-04-26T07:57:48.981Z</time></trkpt><trkpt lat="40.8106988" lon="8.4872491"><ele>9.0</ele><time>2026-04-26T07:57:49.981Z</time></trkpt><trkpt lat="40.8106694" lon="8.4873308"><ele>9.0</ele><time>2026-04-26T07:57:50.981Z</time></trkpt><trkpt lat="40.8106363" lon="8.4874118"><ele>9.0</ele><time>2026-04-26T07:57:51.981Z</time></trkpt><trkpt lat="40.810598" lon="8.487484"><ele>9.0</ele><time>2026-04-26T07:57:52.98Z</time></trkpt><trkpt lat="40.8105562" lon="8.4875625"><ele>9.000000000000002</ele><time>2026-04-26T07:57:53.98Z</time></trkpt><trkpt lat="40.8105127" lon="8.4876377"><ele>9.0</ele><time>2026-04-26T07:57:54.98Z</time></trkpt><trkpt lat="40.8104675" lon="8.4877162"><ele>9.0</ele><time>2026-04-26T07:57:55.978Z</time></trkpt><trkpt lat="40.8104262" lon="8.4877982"><ele>9.0</ele><time>2026-04-26T07:57:56.98Z</time></trkpt><trkpt lat="40.8103889" lon="8.4878922"><ele>9.0</ele><time>2026-04-26T07:57:57.979Z</time></trkpt><trkpt lat="40.8103609" lon="8.4879938"><ele>9.0</ele><time>2026-04-26T07:57:58.981Z</time></trkpt><trkpt lat="40.8103342" lon="8.4880923"><ele>9.0</ele><time>2026-04-26T07:57:59.981Z</time></trkpt><trkpt lat="40.8103043" lon="8.4881892"><ele>9.0</ele><time>2026-04-26T07:58:00.981Z</time></trkpt><trkpt lat="40.8102705" lon="8.4882799"><ele>8.833333333333334</ele><time>2026-04-26T07:58:01.98Z</time></trkpt><trkpt lat="40.8102294" lon="8.4883584"><ele>8.666666666666666</ele><time>2026-04-26T07:58:02.981Z</time></trkpt><trkpt lat="40.8101836" lon="8.488427"><ele>8.5</ele><time>2026-04-26T07:58:03.981Z</time></trkpt><trkpt lat="40.8101365" lon="8.488488"><ele>8.333333333333332</ele><time>2026-04-26T07:58:04.979Z</time></trkpt><trkpt lat="40.8100469" lon="8.4886036"><ele>8.166666666666666</ele><time>2026-04-26T07:58:06.979Z</time></trkpt><trkpt lat="40.810003" lon="8.4886678"><ele>8.0</ele><time>2026-04-26T07:58:07.979Z</time></trkpt><trkpt lat="40.8099597" lon="8.488733"><ele>7.857142857142857</ele><time>2026-04-26T07:58:08.98Z</time></trkpt><trkpt lat="40.8099186" lon="8.4888019"><ele>7.7142857142857135</ele><time>2026-04-26T07:58:09.979Z</time></trkpt><trkpt lat="40.8098742" lon="8.488876"><ele>7.571428571428571</ele><time>2026-04-26T07:58:10.979Z</time></trkpt><trkpt lat="40.8098276" lon="8.4889528"><ele>7.428571428571429</ele><time>2026-04-26T07:58:11.981Z</time></trkpt><trkpt lat="40.8097809" lon="8.4890347"><ele>7.285714285714286</ele><time>2026-04-26T07:58:12.979Z</time></trkpt><trkpt lat="40.8097359" lon="8.4891201"><ele>7.142857142857142</ele><time>2026-04-26T07:58:13.978Z</time></trkpt><trkpt lat="40.8096965" lon="8.4892053"><ele>7.0</ele><time>2026-04-26T07:58:14.98Z</time></trkpt><trkpt lat="40.8096641" lon="8.4892839"><ele>7.0</ele><time>2026-04-26T07:58:15.98Z</time></trkpt><trkpt lat="40.8096068" lon="8.4894219"><ele>6.999999999999999</ele><time>2026-04-26T07:58:17.979Z</time></trkpt><trkpt lat="40.8095909" lon="8.4895532"><ele>6.999999999999999</ele><time>2026-04-26T07:58:19.98Z</time></trkpt><trkpt lat="40.8096202" lon="8.4896672"><ele>7.0</ele><time>2026-04-26T07:58:21.981Z</time></trkpt><trkpt lat="40.8096941" lon="8.4897978"><ele>7.0</ele><time>2026-04-26T07:58:23.979Z</time></trkpt><trkpt lat="40.8097406" lon="8.4898734"><ele>6.833333333333334</ele><time>2026-04-26T07:58:24.98Z</time></trkpt><trkpt lat="40.8097934" lon="8.4899559"><ele>6.666666666666667</ele><time>2026-04-26T07:58:25.98Z</time></trkpt><trkpt lat="40.8098438" lon="8.4900356"><ele>6.5</ele><time>2026-04-26T07:58:26.978Z</time></trkpt><trkpt lat="40.8098945" lon="8.4901177"><ele>6.333333333333334</ele><time>2026-04-26T07:58:27.98Z</time></trkpt><trkpt lat="40.8099478" lon="8.4901998"><ele>6.166666666666667</ele><time>2026-04-26T07:58:28.979Z</time></trkpt><trkpt lat="40.8100007" lon="8.4902809"><ele>6.0</ele><time>2026-04-26T07:58:29.98Z</time></trkpt><trkpt lat="40.8100489" lon="8.4903581"><ele>5.999999999999999</ele><time>2026-04-26T07:58:30.979Z</time></trkpt><trkpt lat="40.8100879" lon="8.4904286"><ele>6.0</ele><time>2026-04-26T07:58:31.982Z</time></trkpt><trkpt lat="40.8101271" lon="8.4904994"><ele>6.0</ele><time>2026-04-26T07:58:32.981Z</time></trkpt><trkpt lat="40.8101743" lon="8.4905821"><ele>6.0</ele><time>2026-04-26T07:58:33.98Z</time></trkpt><trkpt lat="40.810225" lon="8.490657"><ele>6.0</ele><time>2026-04-26T07:58:34.981Z</time></trkpt><trkpt lat="40.8102723" lon="8.4907332"><ele>5.999999999999999</ele><time>2026-04-26T07:58:35.981Z</time></trkpt><trkpt lat="40.8103164" lon="8.4908095"><ele>6.0</ele><time>2026-04-26T07:58:36.98Z</time></trkpt><trkpt lat="40.8103565" lon="8.4908868"><ele>5.666666666666667</ele><time>2026-04-26T07:58:37.98Z</time></trkpt><trkpt lat="40.8103937" lon="8.4909613"><ele>5.333333333333333</ele><time>2026-04-26T07:58:38.981Z</time></trkpt><trkpt lat="40.8104304" lon="8.491036"><ele>5.0</ele><time>2026-04-26T07:58:39.981Z</time></trkpt><trkpt lat="40.8104675" lon="8.4911049"><ele>4.666666666666666</ele><time>2026-04-26T07:58:40.981Z</time></trkpt><trkpt lat="40.8105089" lon="8.4911691"><ele>4.333333333333333</ele><time>2026-04-26T07:58:41.983Z</time></trkpt><trkpt lat="40.8105791" lon="8.4912883"><ele>4.0</ele><time>2026-04-26T07:58:43.98Z</time></trkpt><trkpt lat="40.8106435" lon="8.4914065"><ele>4.0</ele><time>2026-04-26T07:58:45.979Z</time></trkpt><trkpt lat="40.810695" lon="8.4915327"><ele>4.0</ele><time>2026-04-26T07:58:47.98Z</time></trkpt><trkpt lat="40.810741" lon="8.4916577"><ele>4.0</ele><time>2026-04-26T07:58:49.978Z</time></trkpt><trkpt lat="40.8107992" lon="8.4917917"><ele>4.0</ele><time>2026-04-26T07:58:51.98Z</time></trkpt><trkpt lat="40.8108668" lon="8.4919095"><ele>4.0</ele><time>2026-04-26T07:58:53.979Z</time></trkpt><trkpt lat="40.8109247" lon="8.4920119"><ele>4.0</ele><time>2026-04-26T07:58:55.981Z</time></trkpt><trkpt lat="40.8109835" lon="8.4921198"><ele>4.0</ele><time>2026-04-26T07:58:57.98Z</time></trkpt><trkpt lat="40.8110532" lon="8.4922289"><ele>4.0</ele><time>2026-04-26T07:58:59.981Z</time></trkpt><trkpt lat="40.8111286" lon="8.4923514"><ele>4.0</ele><time>2026-04-26T07:59:01.98Z</time></trkpt><trkpt lat="40.8111996" lon="8.4924537"><ele>4.0</ele><time>2026-04-26T07:59:03.98Z</time></trkpt><trkpt lat="40.8112508" lon="8.4925503"><ele>4.333333333333333</ele><time>2026-04-26T07:59:05.98Z</time></trkpt><trkpt lat="40.8112879" lon="8.4926905"><ele>4.666666666666666</ele><time>2026-04-26T07:59:07.98Z</time></trkpt><trkpt lat="40.8113129" lon="8.4927702"><ele>5.0</ele><time>2026-04-26T07:59:08.981Z</time></trkpt><trkpt lat="40.8113427" lon="8.4928551"><ele>5.333333333333333</ele><time>2026-04-26T07:59:09.98Z</time></trkpt><trkpt lat="40.8113773" lon="8.4929395"><ele>5.666666666666667</ele><time>2026-04-26T07:59:10.98Z</time></trkpt><trkpt lat="40.8114217" lon="8.493018"><ele>6.0</ele><time>2026-04-26T07:59:11.981Z</time></trkpt><trkpt lat="40.8114609" lon="8.4931037"><ele>5.999999999999999</ele><time>2026-04-26T07:59:12.981Z</time></trkpt><trkpt lat="40.8114955" lon="8.4931883"><ele>6.0</ele><time>2026-04-26T07:59:13.981Z</time></trkpt><trkpt lat="40.8115259" lon="8.4932736"><ele>6.0</ele><time>2026-04-26T07:59:14.981Z</time></trkpt><trkpt lat="40.8115527" lon="8.4933632"><ele>6.0</ele><time>2026-04-26T07:59:15.979Z</time></trkpt><trkpt lat="40.8115793" lon="8.4934583"><ele>6.0</ele><time>2026-04-26T07:59:16.978Z</time></trkpt><trkpt lat="40.8116057" lon="8.4935533"><ele>5.999999999999999</ele><time>2026-04-26T07:59:17.979Z</time></trkpt><trkpt lat="40.8116317" lon="8.4936502"><ele>6.0</ele><time>2026-04-26T07:59:18.979Z</time></trkpt><trkpt lat="40.8116577" lon="8.4937384"><ele>6.0</ele><time>2026-04-26T07:59:19.979Z</time></trkpt><trkpt lat="40.811686" lon="8.4938209"><ele>6.0</ele><time>2026-04-26T07:59:20.979Z</time></trkpt><trkpt lat="40.8117155" lon="8.4939006"><ele>6.0</ele><time>2026-04-26T07:59:21.978Z</time></trkpt><trkpt lat="40.8117441" lon="8.4939841"><ele>6.0</ele><time>2026-04-26T07:59:22.981Z</time></trkpt><trkpt lat="40.8117695" lon="8.4940647"><ele>6.0</ele><time>2026-04-26T07:59:23.98Z</time></trkpt><trkpt lat="40.8117956" lon="8.4941444"><ele>6.0</ele><time>2026-04-26T07:59:24.98Z</time></trkpt><trkpt lat="40.811841" lon="8.4942958"><ele>5.75</ele><time>2026-04-26T07:59:26.979Z</time></trkpt><trkpt lat="40.8118883" lon="8.4944466"><ele>5.5</ele><time>2026-04-26T07:59:28.978Z</time></trkpt><trkpt lat="40.811944" lon="8.4945871"><ele>5.25</ele><time>2026-04-26T07:59:30.981Z</time></trkpt><trkpt lat="40.8120006" lon="8.4947242"><ele>5.0</ele><time>2026-04-26T07:59:32.981Z</time></trkpt><trkpt lat="40.8120607" lon="8.4948606"><ele>4.8</ele><time>2026-04-26T07:59:34.98Z</time></trkpt><trkpt lat="40.8121278" lon="8.4949894"><ele>4.6</ele><time>2026-04-26T07:59:36.978Z</time></trkpt><trkpt lat="40.8121774" lon="8.495139"><ele>4.4</ele><time>2026-04-26T07:59:38.979Z</time></trkpt><trkpt lat="40.8121971" lon="8.495221"><ele>4.2</ele><time>2026-04-26T07:59:39.979Z</time></trkpt><trkpt lat="40.8122153" lon="8.4953026"><ele>4.0</ele><time>2026-04-26T07:59:40.978Z</time></trkpt><trkpt lat="40.8122502" lon="8.495448"><ele>3.6</ele><time>2026-04-26T07:59:42.979Z</time></trkpt><trkpt lat="40.8122859" lon="8.4955972"><ele>3.2</ele><time>2026-04-26T07:59:44.978Z</time></trkpt><trkpt lat="40.8123081" lon="8.4957278"><ele>2.8000000000000003</ele><time>2026-04-26T07:59:46.979Z</time></trkpt><trkpt lat="40.8123066" lon="8.495873"><ele>2.4000000000000004</ele><time>2026-04-26T07:59:48.98Z</time></trkpt><trkpt lat="40.8123019" lon="8.4959621"><ele>2.0</ele><time>2026-04-26T07:59:49.978Z</time></trkpt><trkpt lat="40.8123009" lon="8.4960513"><ele>2.0</ele><time>2026-04-26T07:59:50.98Z</time></trkpt><trkpt lat="40.8123037" lon="8.4962107"><ele>2.0</ele><time>2026-04-26T07:59:52.981Z</time></trkpt><trkpt lat="40.8123068" lon="8.496339"><ele>2.0</ele><time>2026-04-26T07:59:54.98Z</time></trkpt><trkpt lat="40.8123281" lon="8.4964403"><ele>2.0</ele><time>2026-04-26T07:59:56.98Z</time></trkpt><trkpt lat="40.8123897" lon="8.4965424"><ele>2.0</ele><time>2026-04-26T07:59:58.981Z</time></trkpt><trkpt lat="40.8124628" lon="8.4966322"><ele>2.0</ele><time>2026-04-26T08:00:00.981Z</time></trkpt><trkpt lat="40.8125266" lon="8.4967284"><ele>2.0</ele><time>2026-04-26T08:00:02.979Z</time></trkpt><trkpt lat="40.8125861" lon="8.4968425"><ele>2.0</ele><time>2026-04-26T08:00:04.981Z</time></trkpt><trkpt lat="40.8126477" lon="8.4969667"><ele>2.0</ele><time>2026-04-26T08:00:06.981Z</time></trkpt><trkpt lat="40.8126972" lon="8.4970878"><ele>2.0</ele><time>2026-04-26T08:00:08.981Z</time></trkpt><trkpt lat="40.8127299" lon="8.4971987"><ele>2.0</ele><time>2026-04-26T08:00:10.981Z</time></trkpt><trkpt lat="40.8127481" lon="8.4973193"><ele>2.0</ele><time>2026-04-26T08:00:12.981Z</time></trkpt><trkpt lat="40.8127501" lon="8.4974462"><ele>2.0</ele><time>2026-04-26T08:00:14.98Z</time></trkpt><trkpt lat="40.8127377" lon="8.497582"><ele>2.0</ele><time>2026-04-26T08:00:16.979Z</time></trkpt><trkpt lat="40.812717" lon="8.4977229"><ele>2.0</ele><time>2026-04-26T08:00:18.979Z</time></trkpt><trkpt lat="40.812692" lon="8.4978637"><ele>2.1666666666666665</ele><time>2026-04-26T08:00:20.979Z</time></trkpt><trkpt lat="40.8126693" lon="8.4979951"><ele>2.333333333333333</ele><time>2026-04-26T08:00:22.98Z</time></trkpt><trkpt lat="40.8126428" lon="8.4981601"><ele>2.5</ele><time>2026-04-26T08:00:24.98Z</time></trkpt><trkpt lat="40.8126318" lon="8.4982452"><ele>2.6666666666666665</ele><time>2026-04-26T08:00:25.979Z</time></trkpt><trkpt lat="40.812618" lon="8.4983304"><ele>2.8333333333333335</ele><time>2026-04-26T08:00:26.979Z</time></trkpt><trkpt lat="40.8125997" lon="8.4984201"><ele>3.0</ele><time>2026-04-26T08:00:27.979Z</time></trkpt><trkpt lat="40.8125825" lon="8.4985127"><ele>3.2</ele><time>2026-04-26T08:00:28.98Z</time></trkpt><trkpt lat="40.812574" lon="8.4986146"><ele>3.4</ele><time>2026-04-26T08:00:29.98Z</time></trkpt><trkpt lat="40.8125738" lon="8.4987222"><ele>3.6000000000000005</ele><time>2026-04-26T08:00:30.981Z</time></trkpt><trkpt lat="40.812578" lon="8.4988413"><ele>3.8000000000000003</ele><time>2026-04-26T08:00:31.982Z</time></trkpt><trkpt lat="40.8125871" lon="8.4989897"><ele>4.0</ele><time>2026-04-26T08:00:32.981Z</time></trkpt><trkpt lat="40.8125923" lon="8.4991553"><ele>4.0</ele><time>2026-04-26T08:00:33.981Z</time></trkpt><trkpt lat="40.812599" lon="8.4993269"><ele>4.0</ele><time>2026-04-26T08:00:34.979Z</time></trkpt><trkpt lat="40.812607" lon="8.4994927"><ele>4.0</ele><time>2026-04-26T08:00:35.981Z</time></trkpt><trkpt lat="40.8126207" lon="8.4996441"><ele>4.0</ele><time>2026-04-26T08:00:36.979Z</time></trkpt><trkpt lat="40.8126372" lon="8.4997911"><ele>4.0</ele><time>2026-04-26T08:00:37.979Z</time></trkpt><trkpt lat="40.8126512" lon="8.4999309"><ele>4.0</ele><time>2026-04-26T08:00:38.983Z</time></trkpt><trkpt lat="40.8126622" lon="8.5000602"><ele>4.0</ele><time>2026-04-26T08:00:39.979Z</time></trkpt><trkpt lat="40.8126757" lon="8.500183"><ele>4.0</ele><time>2026-04-26T08:00:40.981Z</time></trkpt><trkpt lat="40.8126884" lon="8.5003069"><ele>4.0</ele><time>2026-04-26T08:00:41.98Z</time></trkpt><trkpt lat="40.8127024" lon="8.5004346"><ele>4.2</ele><time>2026-04-26T08:00:42.98Z</time></trkpt><trkpt lat="40.8127146" lon="8.5005658"><ele>4.4</ele><time>2026-04-26T08:00:43.98Z</time></trkpt><trkpt lat="40.8127262" lon="8.500702"><ele>4.6</ele><time>2026-04-26T08:00:44.98Z</time></trkpt><trkpt lat="40.8127368" lon="8.500838"><ele>4.8</ele><time>2026-04-26T08:00:45.98Z</time></trkpt><trkpt lat="40.8127389" lon="8.5009705"><ele>5.0</ele><time>2026-04-26T08:00:46.979Z</time></trkpt><trkpt lat="40.8127357" lon="8.5010934"><ele>5.0</ele><time>2026-04-26T08:00:47.979Z</time></trkpt><trkpt lat="40.8127255" lon="8.501205"><ele>5.0</ele><time>2026-04-26T08:00:48.979Z</time></trkpt><trkpt lat="40.8127144" lon="8.5013078"><ele>5.0</ele><time>2026-04-26T08:00:49.979Z</time></trkpt><trkpt lat="40.8127049" lon="8.5014136"><ele>5.0</ele><time>2026-04-26T08:00:50.978Z</time></trkpt><trkpt lat="40.8127011" lon="8.5015225"><ele>5.0</ele><time>2026-04-26T08:00:51.979Z</time></trkpt><trkpt lat="40.8127026" lon="8.5016241"><ele>5.0</ele><time>2026-04-26T08:00:52.979Z</time></trkpt><trkpt lat="40.8127054" lon="8.5017144"><ele>5.25</ele><time>2026-04-26T08:00:53.978Z</time></trkpt><trkpt lat="40.8127019" lon="8.5018777"><ele>5.5</ele><time>2026-04-26T08:00:55.98Z</time></trkpt><trkpt lat="40.8126942" lon="8.5020401"><ele>5.75</ele><time>2026-04-26T08:00:57.98Z</time></trkpt><trkpt lat="40.8126879" lon="8.5021923"><ele>6.0</ele><time>2026-04-26T08:00:59.98Z</time></trkpt><trkpt lat="40.8126842" lon="8.5023271"><ele>6.0</ele><time>2026-04-26T08:01:01.98Z</time></trkpt><trkpt lat="40.812685" lon="8.5024328"><ele>6.0</ele><time>2026-04-26T08:01:03.98Z</time></trkpt><trkpt lat="40.8126896" lon="8.502531"><ele>6.0</ele><time>2026-04-26T08:01:05.98Z</time></trkpt><trkpt lat="40.8126917" lon="8.5026444"><ele>6.0</ele><time>2026-04-26T08:01:07.981Z</time></trkpt><trkpt lat="40.8126901" lon="8.5027676"><ele>6.0</ele><time>2026-04-26T08:01:09.98Z</time></trkpt><trkpt lat="40.8126838" lon="8.5028859"><ele>6.0</ele><time>2026-04-26T08:01:11.98Z</time></trkpt><trkpt lat="40.8126755" lon="8.5029998"><ele>6.0</ele><time>2026-04-26T08:01:13.979Z</time></trkpt><trkpt lat="40.8126673" lon="8.5031158"><ele>6.0</ele><time>2026-04-26T08:01:15.978Z</time></trkpt><trkpt lat="40.812665" lon="8.5032241"><ele>6.0</ele><time>2026-04-26T08:01:17.978Z</time></trkpt><trkpt lat="40.8126594" lon="8.503359"><ele>6.0</ele><time>2026-04-26T08:01:19.978Z</time></trkpt><trkpt lat="40.8126466" lon="8.5035004"><ele>6.0</ele><time>2026-04-26T08:01:21.979Z</time></trkpt><trkpt lat="40.8126373" lon="8.5036426"><ele>6.0</ele><time>2026-04-26T08:01:23.978Z</time></trkpt><trkpt lat="40.8126501" lon="8.5037926"><ele>6.0</ele><time>2026-04-26T08:01:25.98Z</time></trkpt><trkpt lat="40.8126891" lon="8.5039238"><ele>6.0</ele><time>2026-04-26T08:01:27.978Z</time></trkpt><trkpt lat="40.8127722" lon="8.5040217"><ele>6.0</ele><time>2026-04-26T08:01:29.98Z</time></trkpt><trkpt lat="40.8128278" lon="8.5040643"><ele>6.0</ele><time>2026-04-26T08:01:30.978Z</time></trkpt><trkpt lat="40.8128834" lon="8.5041058"><ele>5.999999999999999</ele><time>2026-04-26T08:01:31.979Z</time></trkpt><trkpt lat="40.8129427" lon="8.5041471"><ele>6.0</ele><time>2026-04-26T08:01:32.978Z</time></trkpt><trkpt lat="40.8130077" lon="8.5041855"><ele>6.0</ele><time>2026-04-26T08:01:33.979Z</time></trkpt><trkpt lat="40.8130728" lon="8.5042238"><ele>6.0</ele><time>2026-04-26T08:01:34.978Z</time></trkpt><trkpt lat="40.8131375" lon="8.5042639"><ele>6.0</ele><time>2026-04-26T08:01:35.979Z</time></trkpt><trkpt lat="40.8132014" lon="8.5043118"><ele>5.999999999999999</ele><time>2026-04-26T08:01:36.978Z</time></trkpt><trkpt lat="40.813256" lon="8.5043701"><ele>6.0</ele><time>2026-04-26T08:01:37.979Z</time></trkpt><trkpt lat="40.8132962" lon="8.5044399"><ele>6.0</ele><time>2026-04-26T08:01:38.979Z</time></trkpt><trkpt lat="40.8133249" lon="8.5045222"><ele>6.0</ele><time>2026-04-26T08:01:39.978Z</time></trkpt><trkpt lat="40.8133474" lon="8.5046145"><ele>6.0</ele><time>2026-04-26T08:01:40.979Z</time></trkpt><trkpt lat="40.8133576" lon="8.5047214"><ele>6.0</ele><time>2026-04-26T08:01:41.978Z</time></trkpt><trkpt lat="40.8133706" lon="8.5048278"><ele>6.0</ele><time>2026-04-26T08:01:42.98Z</time></trkpt><trkpt lat="40.8133842" lon="8.5049329"><ele>6.0</ele><time>2026-04-26T08:01:43.978Z</time></trkpt><trkpt lat="40.8133983" lon="8.505036"><ele>6.0</ele><time>2026-04-26T08:01:44.978Z</time></trkpt><trkpt lat="40.813413" lon="8.5051432"><ele>6.0</ele><time>2026-04-26T08:01:45.979Z</time></trkpt><trkpt lat="40.8134272" lon="8.5052548"><ele>6.0</ele><time>2026-04-26T08:01:46.979Z</time></trkpt><trkpt lat="40.8134428" lon="8.5053673"><ele>6.0</ele><time>2026-04-26T08:01:47.98Z</time></trkpt><trkpt lat="40.8134564" lon="8.5054819"><ele>6.0</ele><time>2026-04-26T08:01:48.98Z</time></trkpt><trkpt lat="40.8134719" lon="8.5055932"><ele>6.0</ele><time>2026-04-26T08:01:49.979Z</time></trkpt><trkpt lat="40.8134877" lon="8.5057054"><ele>5.666666666666667</ele><time>2026-04-26T08:01:50.98Z</time></trkpt><trkpt lat="40.8135071" lon="8.5058161"><ele>5.333333333333333</ele><time>2026-04-26T08:01:51.978Z</time></trkpt><trkpt lat="40.8135261" lon="8.5059264"><ele>5.0</ele><time>2026-04-26T08:01:52.979Z</time></trkpt><trkpt lat="40.8135429" lon="8.5060374"><ele>4.666666666666666</ele><time>2026-04-26T08:01:53.979Z</time></trkpt><trkpt lat="40.8135608" lon="8.5061504"><ele>4.333333333333333</ele><time>2026-04-26T08:01:54.979Z</time></trkpt><trkpt lat="40.8135811" lon="8.5062638"><ele>4.0</ele><time>2026-04-26T08:01:55.979Z</time></trkpt><trkpt lat="40.8136016" lon="8.5063782"><ele>3.9999999999999996</ele><time>2026-04-26T08:01:56.979Z</time></trkpt><trkpt lat="40.8136187" lon="8.5064934"><ele>4.0</ele><time>2026-04-26T08:01:57.978Z</time></trkpt><trkpt lat="40.8136321" lon="8.5066085"><ele>4.0</ele><time>2026-04-26T08:01:58.981Z</time></trkpt><trkpt lat="40.8136421" lon="8.5067221"><ele>4.0</ele><time>2026-04-26T08:01:59.98Z</time></trkpt><trkpt lat="40.8136496" lon="8.5068332"><ele>3.9999999999999996</ele><time>2026-04-26T08:02:00.98Z</time></trkpt><trkpt lat="40.8136556" lon="8.5069381"><ele>4.0</ele><time>2026-04-26T08:02:01.977Z</time></trkpt><trkpt lat="40.813663" lon="8.5070355"><ele>3.833333333333333</ele><time>2026-04-26T08:02:02.979Z</time></trkpt><trkpt lat="40.8136727" lon="8.5071287"><ele>3.6666666666666665</ele><time>2026-04-26T08:02:03.979Z</time></trkpt><trkpt lat="40.8136861" lon="8.5072168"><ele>3.5</ele><time>2026-04-26T08:02:04.978Z</time></trkpt><trkpt lat="40.8137077" lon="8.5073591"><ele>3.333333333333333</ele><time>2026-04-26T08:02:06.981Z</time></trkpt><trkpt lat="40.8137226" lon="8.5074586"><ele>3.1666666666666665</ele><time>2026-04-26T08:02:09.981Z</time></trkpt><trkpt lat="40.8137326" lon="8.507567"><ele>3.0</ele><time>2026-04-26T08:02:14.98Z</time></trkpt><trkpt lat="40.8137547" lon="8.5077262"><ele>3.0</ele><time>2026-04-26T08:02:16.978Z</time></trkpt><trkpt lat="40.8137628" lon="8.5078167"><ele>3.0</ele><time>2026-04-26T08:02:17.978Z</time></trkpt><trkpt lat="40.8137759" lon="8.5079178"><ele>3.0</ele><time>2026-04-26T08:02:18.977Z</time></trkpt><trkpt lat="40.8137914" lon="8.508026"><ele>3.0</ele><time>2026-04-26T08:02:19.979Z</time></trkpt><trkpt lat="40.8138066" lon="8.5081355"><ele>3.0</ele><time>2026-04-26T08:02:20.978Z</time></trkpt><trkpt lat="40.8138244" lon="8.5082497"><ele>3.0</ele><time>2026-04-26T08:02:21.979Z</time></trkpt><trkpt lat="40.8138415" lon="8.5083655"><ele>3.2</ele><time>2026-04-26T08:02:22.979Z</time></trkpt><trkpt lat="40.8138589" lon="8.5084828"><ele>3.4</ele><time>2026-04-26T08:02:23.979Z</time></trkpt><trkpt lat="40.8138744" lon="8.5086022"><ele>3.6000000000000005</ele><time>2026-04-26T08:02:24.98Z</time></trkpt><trkpt lat="40.8138915" lon="8.5087287"><ele>3.8000000000000003</ele><time>2026-04-26T08:02:25.979Z</time></trkpt><trkpt lat="40.8139055" lon="8.5088537"><ele>4.0</ele><time>2026-04-26T08:02:26.978Z</time></trkpt><trkpt lat="40.8139178" lon="8.5089777"><ele>4.2</ele><time>2026-04-26T08:02:27.978Z</time></trkpt><trkpt lat="40.8139308" lon="8.5091055"><ele>4.4</ele><time>2026-04-26T08:02:28.979Z</time></trkpt><trkpt lat="40.8139451" lon="8.5092356"><ele>4.6</ele><time>2026-04-26T08:02:29.979Z</time></trkpt><trkpt lat="40.8139631" lon="8.5093648"><ele>4.8</ele><time>2026-04-26T08:02:30.978Z</time></trkpt><trkpt lat="40.8139818" lon="8.5094962"><ele>5.0</ele><time>2026-04-26T08:02:31.979Z</time></trkpt><trkpt lat="40.8140008" lon="8.509629"><ele>5.2</ele><time>2026-04-26T08:02:32.978Z</time></trkpt><trkpt lat="40.8140225" lon="8.5097612"><ele>5.4</ele><time>2026-04-26T08:02:33.98Z</time></trkpt><trkpt lat="40.8140433" lon="8.5098923"><ele>5.6</ele><time>2026-04-26T08:02:34.978Z</time></trkpt><trkpt lat="40.8140657" lon="8.5100227"><ele>5.8</ele><time>2026-04-26T08:02:35.979Z</time></trkpt><trkpt lat="40.8140902" lon="8.5101534"><ele>6.0</ele><time>2026-04-26T08:02:36.979Z</time></trkpt><trkpt lat="40.8141141" lon="8.5102848"><ele>6.0</ele><time>2026-04-26T08:02:37.979Z</time></trkpt><trkpt lat="40.8141389" lon="8.5104167"><ele>6.0</ele><time>2026-04-26T08:02:38.98Z</time></trkpt><trkpt lat="40.8141633" lon="8.5105486"><ele>6.0</ele><time>2026-04-26T08:02:39.98Z</time></trkpt><trkpt lat="40.814189" lon="8.5106809"><ele>6.0</ele><time>2026-04-26T08:02:40.979Z</time></trkpt><trkpt lat="40.8142136" lon="8.5108151"><ele>6.0</ele><time>2026-04-26T08:02:41.98Z</time></trkpt><trkpt lat="40.8142329" lon="8.5109504"><ele>6.0</ele><time>2026-04-26T08:02:42.979Z</time></trkpt><trkpt lat="40.8142518" lon="8.5110864"><ele>6.0</ele><time>2026-04-26T08:02:43.979Z</time></trkpt><trkpt lat="40.8142725" lon="8.5112225"><ele>6.0</ele><time>2026-04-26T08:02:44.98Z</time></trkpt><trkpt lat="40.8142935" lon="8.5113592"><ele>6.0</ele><time>2026-04-26T08:02:45.979Z</time></trkpt><trkpt lat="40.8143165" lon="8.5114979"><ele>6.0</ele><time>2026-04-26T08:02:46.977Z</time></trkpt><trkpt lat="40.8143383" lon="8.5116404"><ele>6.0</ele><time>2026-04-26T08:02:47.978Z</time></trkpt><trkpt lat="40.8143608" lon="8.5117838"><ele>6.0</ele><time>2026-04-26T08:02:48.978Z</time></trkpt><trkpt lat="40.8143855" lon="8.5119273"><ele>6.0</ele><time>2026-04-26T08:02:49.978Z</time></trkpt><trkpt lat="40.8144087" lon="8.5120699"><ele>6.0</ele><time>2026-04-26T08:02:50.979Z</time></trkpt><trkpt lat="40.8144272" lon="8.5122124"><ele>6.0</ele><time>2026-04-26T08:02:51.979Z</time></trkpt><trkpt lat="40.8144414" lon="8.5123526"><ele>6.0</ele><time>2026-04-26T08:02:52.979Z</time></trkpt><trkpt lat="40.814452" lon="8.5124901"><ele>6.0</ele><time>2026-04-26T08:02:53.979Z</time></trkpt><trkpt lat="40.8144633" lon="8.5126258"><ele>6.0</ele><time>2026-04-26T08:02:54.981Z</time></trkpt><trkpt lat="40.814477" lon="8.512759"><ele>6.0</ele><time>2026-04-26T08:02:55.981Z</time></trkpt><trkpt lat="40.8144917" lon="8.5128874"><ele>6.0</ele><time>2026-04-26T08:02:56.98Z</time></trkpt><trkpt lat="40.8145054" lon="8.5130078"><ele>6.0</ele><time>2026-04-26T08:02:57.979Z</time></trkpt><trkpt lat="40.8145174" lon="8.5131229"><ele>6.0</ele><time>2026-04-26T08:02:58.978Z</time></trkpt><trkpt lat="40.8145285" lon="8.5132385"><ele>6.0</ele><time>2026-04-26T08:02:59.98Z</time></trkpt><trkpt lat="40.8145401" lon="8.5133564"><ele>6.0</ele><time>2026-04-26T08:03:00.979Z</time></trkpt><trkpt lat="40.8145524" lon="8.5134787"><ele>6.0</ele><time>2026-04-26T08:03:01.981Z</time></trkpt><trkpt lat="40.8145688" lon="8.5136042"><ele>6.0</ele><time>2026-04-26T08:03:02.98Z</time></trkpt><trkpt lat="40.8145893" lon="8.5137299"><ele>6.0</ele><time>2026-04-26T08:03:03.98Z</time></trkpt><trkpt lat="40.8146136" lon="8.5138531"><ele>6.0</ele><time>2026-04-26T08:03:04.977Z</time></trkpt><trkpt lat="40.8146425" lon="8.5139708"><ele>6.0</ele><time>2026-04-26T08:03:05.98Z</time></trkpt><trkpt lat="40.8146798" lon="8.5140795"><ele>6.0</ele><time>2026-04-26T08:03:06.979Z</time></trkpt><trkpt lat="40.8147259" lon="8.5141772"><ele>6.199999999999999</ele><time>2026-04-26T08:03:07.978Z</time></trkpt><trkpt lat="40.8147868" lon="8.5142648"><ele>6.3999999999999995</ele><time>2026-04-26T08:03:08.981Z</time></trkpt><trkpt lat="40.8148597" lon="8.5143398"><ele>6.6</ele><time>2026-04-26T08:03:09.977Z</time></trkpt><trkpt lat="40.8149395" lon="8.5144089"><ele>6.8</ele><time>2026-04-26T08:03:10.978Z</time></trkpt><trkpt lat="40.8150183" lon="8.5144784"><ele>7.0</ele><time>2026-04-26T08:03:11.979Z</time></trkpt><trkpt lat="40.8150949" lon="8.5145459"><ele>7.500000000000001</ele><time>2026-04-26T08:03:12.978Z</time></trkpt><trkpt lat="40.8151716" lon="8.5146039"><ele>8.0</ele><time>2026-04-26T08:03:13.978Z</time></trkpt><trkpt lat="40.8152421" lon="8.5146572"><ele>8.5</ele><time>2026-04-26T08:03:14.979Z</time></trkpt><trkpt lat="40.8153052" lon="8.514711"><ele>9.0</ele><time>2026-04-26T08:03:15.979Z</time></trkpt><trkpt lat="40.8153537" lon="8.5147726"><ele>9.5</ele><time>2026-04-26T08:03:16.98Z</time></trkpt><trkpt lat="40.8154047" lon="8.5149141"><ele>10.0</ele><time>2026-04-26T08:03:18.978Z</time></trkpt><trkpt lat="40.8153837" lon="8.5150864"><ele>10.0</ele><time>2026-04-26T08:03:20.98Z</time></trkpt><trkpt lat="40.8153476" lon="8.5151908"><ele>10.0</ele><time>2026-04-26T08:03:21.979Z</time></trkpt><trkpt lat="40.8153077" lon="8.5153052"><ele>10.0</ele><time>2026-04-26T08:03:22.978Z</time></trkpt><trkpt lat="40.8152677" lon="8.5154255"><ele>10.0</ele><time>2026-04-26T08:03:23.98Z</time></trkpt><trkpt lat="40.8152291" lon="8.5155491"><ele>10.0</ele><time>2026-04-26T08:03:24.981Z</time></trkpt><trkpt lat="40.8151927" lon="8.5156766"><ele>9.6</ele><time>2026-04-26T08:03:25.979Z</time></trkpt><trkpt lat="40.8151539" lon="8.5158062"><ele>9.2</ele><time>2026-04-26T08:03:26.979Z</time></trkpt><trkpt lat="40.8151122" lon="8.5159396"><ele>8.8</ele><time>2026-04-26T08:03:27.979Z</time></trkpt><trkpt lat="40.8150691" lon="8.5160763"><ele>8.4</ele><time>2026-04-26T08:03:28.98Z</time></trkpt><trkpt lat="40.8150243" lon="8.5162181"><ele>8.0</ele><time>2026-04-26T08:03:29.979Z</time></trkpt><trkpt lat="40.8149788" lon="8.5163621"><ele>8.0</ele><time>2026-04-26T08:03:30.979Z</time></trkpt><trkpt lat="40.8149289" lon="8.5165076"><ele>8.0</ele><time>2026-04-26T08:03:31.979Z</time></trkpt><trkpt lat="40.8148763" lon="8.5166539"><ele>8.0</ele><time>2026-04-26T08:03:32.98Z</time></trkpt><trkpt lat="40.8148218" lon="8.5168032"><ele>8.0</ele><time>2026-04-26T08:03:33.981Z</time></trkpt><trkpt lat="40.8147657" lon="8.5169518"><ele>8.0</ele><time>2026-04-26T08:03:34.981Z</time></trkpt><trkpt lat="40.8147098" lon="8.5171031"><ele>8.0</ele><time>2026-04-26T08:03:35.981Z</time></trkpt><trkpt lat="40.8146534" lon="8.5172568"><ele>8.0</ele><time>2026-04-26T08:03:36.981Z</time></trkpt><trkpt lat="40.8145956" lon="8.5174133"><ele>8.0</ele><time>2026-04-26T08:03:37.981Z</time></trkpt><trkpt lat="40.8145366" lon="8.5175719"><ele>8.0</ele><time>2026-04-26T08:03:38.98Z</time></trkpt><trkpt lat="40.8144779" lon="8.5177313"><ele>8.0</ele><time>2026-04-26T08:03:39.979Z</time></trkpt><trkpt lat="40.8144179" lon="8.5178902"><ele>8.0</ele><time>2026-04-26T08:03:40.979Z</time></trkpt><trkpt lat="40.8143591" lon="8.5180518"><ele>8.0</ele><time>2026-04-26T08:03:41.978Z</time></trkpt><trkpt lat="40.8143007" lon="8.5182143"><ele>8.0</ele><time>2026-04-26T08:03:42.978Z</time></trkpt><trkpt lat="40.8142457" lon="8.5183791"><ele>8.0</ele><time>2026-04-26T08:03:43.981Z</time></trkpt><trkpt lat="40.8141936" lon="8.5185443"><ele>8.0</ele><time>2026-04-26T08:03:44.979Z</time></trkpt><trkpt lat="40.8141486" lon="8.5187107"><ele>8.0</ele><time>2026-04-26T08:03:45.981Z</time></trkpt><trkpt lat="40.8141123" lon="8.518879"><ele>8.0</ele><time>2026-04-26T08:03:46.98Z</time></trkpt><trkpt lat="40.814085" lon="8.5190512"><ele>8.0</ele><time>2026-04-26T08:03:47.98Z</time></trkpt><trkpt lat="40.81406" lon="8.5192264"><ele>8.0</ele><time>2026-04-26T08:03:48.982Z</time></trkpt><trkpt lat="40.8140349" lon="8.5193989"><ele>8.0</ele><time>2026-04-26T08:03:49.981Z</time></trkpt><trkpt lat="40.8140064" lon="8.5195618"><ele>8.25</ele><time>2026-04-26T08:03:50.98Z</time></trkpt><trkpt lat="40.8139744" lon="8.5197156"><ele>8.5</ele><time>2026-04-26T08:03:51.983Z</time></trkpt><trkpt lat="40.813936" lon="8.5198657"><ele>8.75</ele><time>2026-04-26T08:03:52.981Z</time></trkpt><trkpt lat="40.813893" lon="8.520011"><ele>9.0</ele><time>2026-04-26T08:03:53.979Z</time></trkpt><trkpt lat="40.8138413" lon="8.520154"><ele>9.0</ele><time>2026-04-26T08:03:54.979Z</time></trkpt><trkpt lat="40.8137833" lon="8.5202972"><ele>9.0</ele><time>2026-04-26T08:03:55.979Z</time></trkpt><trkpt lat="40.8137271" lon="8.5204424"><ele>9.0</ele><time>2026-04-26T08:03:56.979Z</time></trkpt><trkpt lat="40.8136797" lon="8.5205931"><ele>9.0</ele><time>2026-04-26T08:03:57.981Z</time></trkpt><trkpt lat="40.8136301" lon="8.5207446"><ele>9.0</ele><time>2026-04-26T08:03:58.979Z</time></trkpt><trkpt lat="40.8135791" lon="8.5208988"><ele>9.0</ele><time>2026-04-26T08:03:59.98Z</time></trkpt><trkpt lat="40.8135278" lon="8.5210552"><ele>9.0</ele><time>2026-04-26T08:04:00.981Z</time></trkpt><trkpt lat="40.8134757" lon="8.5212106"><ele>9.0</ele><time>2026-04-26T08:04:01.98Z</time></trkpt><trkpt lat="40.8134252" lon="8.5213672"><ele>9.25</ele><time>2026-04-26T08:04:02.982Z</time></trkpt><trkpt lat="40.8133739" lon="8.5215265"><ele>9.5</ele><time>2026-04-26T08:04:03.981Z</time></trkpt><trkpt lat="40.813323" lon="8.521685"><ele>9.75</ele><time>2026-04-26T08:04:04.981Z</time></trkpt><trkpt lat="40.8132728" lon="8.5218418"><ele>10.0</ele><time>2026-04-26T08:04:05.98Z</time></trkpt><trkpt lat="40.8132229" lon="8.5219953"><ele>10.0</ele><time>2026-04-26T08:04:06.98Z</time></trkpt><trkpt lat="40.8131687" lon="8.5221432"><ele>10.0</ele><time>2026-04-26T08:04:07.979Z</time></trkpt><trkpt lat="40.8131126" lon="8.5222889"><ele>10.0</ele><time>2026-04-26T08:04:08.981Z</time></trkpt><trkpt lat="40.8130506" lon="8.5224338"><ele>10.0</ele><time>2026-04-26T08:04:09.978Z</time></trkpt><trkpt lat="40.8129819" lon="8.5225755"><ele>10.0</ele><time>2026-04-26T08:04:10.98Z</time></trkpt><trkpt lat="40.8129081" lon="8.5227117"><ele>10.0</ele><time>2026-04-26T08:04:11.981Z</time></trkpt><trkpt lat="40.8128295" lon="8.5228419"><ele>10.0</ele><time>2026-04-26T08:04:12.979Z</time></trkpt><trkpt lat="40.8127469" lon="8.5229694"><ele>10.0</ele><time>2026-04-26T08:04:13.981Z</time></trkpt><trkpt lat="40.8126645" lon="8.5230926"><ele>10.5</ele><time>2026-04-26T08:04:14.979Z</time></trkpt><trkpt lat="40.8125885" lon="8.5232131"><ele>11.0</ele><time>2026-04-26T08:04:15.98Z</time></trkpt><trkpt lat="40.8125197" lon="8.5233349"><ele>11.5</ele><time>2026-04-26T08:04:16.98Z</time></trkpt><trkpt lat="40.8124523" lon="8.5234534"><ele>12.0</ele><time>2026-04-26T08:04:17.979Z</time></trkpt><trkpt lat="40.8123848" lon="8.5235652"><ele>12.0</ele><time>2026-04-26T08:04:18.978Z</time></trkpt><trkpt lat="40.8123178" lon="8.5236699"><ele>12.0</ele><time>2026-04-26T08:04:19.978Z</time></trkpt><trkpt lat="40.8122473" lon="8.5237648"><ele>12.0</ele><time>2026-04-26T08:04:20.98Z</time></trkpt><trkpt lat="40.8121709" lon="8.5238569"><ele>12.0</ele><time>2026-04-26T08:04:21.979Z</time></trkpt><trkpt lat="40.8120919" lon="8.5239521"><ele>12.0</ele><time>2026-04-26T08:04:22.979Z</time></trkpt><trkpt lat="40.8120102" lon="8.5240492"><ele>11.75</ele><time>2026-04-26T08:04:23.981Z</time></trkpt><trkpt lat="40.8119269" lon="8.5241497"><ele>11.5</ele><time>2026-04-26T08:04:24.982Z</time></trkpt><trkpt lat="40.811845" lon="8.5242553"><ele>11.25</ele><time>2026-04-26T08:04:25.98Z</time></trkpt><trkpt lat="40.811765" lon="8.5243664"><ele>11.0</ele><time>2026-04-26T08:04:26.981Z</time></trkpt><trkpt lat="40.8116891" lon="8.5244774"><ele>11.0</ele><time>2026-04-26T08:04:27.98Z</time></trkpt><trkpt lat="40.8116173" lon="8.5245863"><ele>11.0</ele><time>2026-04-26T08:04:28.981Z</time></trkpt><trkpt lat="40.8115486" lon="8.5246934"><ele>11.0</ele><time>2026-04-26T08:04:29.98Z</time></trkpt><trkpt lat="40.8114814" lon="8.5247985"><ele>11.0</ele><time>2026-04-26T08:04:30.981Z</time></trkpt><trkpt lat="40.8114146" lon="8.5249022"><ele>11.0</ele><time>2026-04-26T08:04:31.98Z</time></trkpt><trkpt lat="40.8113453" lon="8.5250066"><ele>11.0</ele><time>2026-04-26T08:04:32.981Z</time></trkpt><trkpt lat="40.8112725" lon="8.5251083"><ele>11.0</ele><time>2026-04-26T08:04:33.979Z</time></trkpt><trkpt lat="40.8111955" lon="8.5252035"><ele>11.0</ele><time>2026-04-26T08:04:34.979Z</time></trkpt><trkpt lat="40.8111163" lon="8.5252917"><ele>11.0</ele><time>2026-04-26T08:04:35.979Z</time></trkpt><trkpt lat="40.811037" lon="8.5253774"><ele>11.0</ele><time>2026-04-26T08:04:36.979Z</time></trkpt><trkpt lat="40.8109554" lon="8.5254635"><ele>11.200000000000001</ele><time>2026-04-26T08:04:37.979Z</time></trkpt><trkpt lat="40.8108733" lon="8.5255519"><ele>11.4</ele><time>2026-04-26T08:04:38.98Z</time></trkpt><trkpt lat="40.8107934" lon="8.5256431"><ele>11.6</ele><time>2026-04-26T08:04:39.98Z</time></trkpt><trkpt lat="40.8107181" lon="8.5257367"><ele>11.8</ele><time>2026-04-26T08:04:40.98Z</time></trkpt><trkpt lat="40.8106497" lon="8.52583"><ele>12.0</ele><time>2026-04-26T08:04:41.98Z</time></trkpt><trkpt lat="40.8105885" lon="8.525921"><ele>12.0</ele><time>2026-04-26T08:04:42.979Z</time></trkpt><trkpt lat="40.8105407" lon="8.5260119"><ele>12.0</ele><time>2026-04-26T08:04:43.979Z</time></trkpt><trkpt lat="40.8105117" lon="8.5261071"><ele>12.0</ele><time>2026-04-26T08:04:44.98Z</time></trkpt><trkpt lat="40.8104999" lon="8.5262094"><ele>12.0</ele><time>2026-04-26T08:04:45.978Z</time></trkpt><trkpt lat="40.8105004" lon="8.5263166"><ele>12.0</ele><time>2026-04-26T08:04:46.979Z</time></trkpt><trkpt lat="40.8105078" lon="8.526431"><ele>12.0</ele><time>2026-04-26T08:04:47.978Z</time></trkpt><trkpt lat="40.8105181" lon="8.5265471"><ele>12.0</ele><time>2026-04-26T08:04:48.979Z</time></trkpt><trkpt lat="40.8105349" lon="8.5266605"><ele>12.0</ele><time>2026-04-26T08:04:49.978Z</time></trkpt><trkpt lat="40.8105681" lon="8.5267664"><ele>12.0</ele><time>2026-04-26T08:04:50.98Z</time></trkpt><trkpt lat="40.8106179" lon="8.5268637"><ele>12.0</ele><time>2026-04-26T08:04:51.98Z</time></trkpt><trkpt lat="40.8106753" lon="8.5269501"><ele>12.0</ele><time>2026-04-26T08:04:52.981Z</time></trkpt><trkpt lat="40.810744" lon="8.5270227"><ele>12.0</ele><time>2026-04-26T08:04:53.979Z</time></trkpt><trkpt lat="40.8108172" lon="8.5270922"><ele>12.0</ele><time>2026-04-26T08:04:54.98Z</time></trkpt><trkpt lat="40.8108904" lon="8.5271612"><ele>12.0</ele><time>2026-04-26T08:04:55.979Z</time></trkpt><trkpt lat="40.8109648" lon="8.527228"><ele>12.0</ele><time>2026-04-26T08:04:56.979Z</time></trkpt><trkpt lat="40.8110372" lon="8.5272964"><ele>12.0</ele><time>2026-04-26T08:04:57.98Z</time></trkpt><trkpt lat="40.8111087" lon="8.5273662"><ele>12.0</ele><time>2026-04-26T08:04:58.979Z</time></trkpt><trkpt lat="40.8111782" lon="8.5274383"><ele>12.0</ele><time>2026-04-26T08:04:59.979Z</time></trkpt><trkpt lat="40.811241" lon="8.5275092"><ele>12.0</ele><time>2026-04-26T08:05:00.979Z</time></trkpt><trkpt lat="40.8112986" lon="8.5275779"><ele>12.0</ele><time>2026-04-26T08:05:01.979Z</time></trkpt><trkpt lat="40.8113535" lon="8.5276477"><ele>12.0</ele><time>2026-04-26T08:05:02.98Z</time></trkpt><trkpt lat="40.8114077" lon="8.5277158"><ele>12.0</ele><time>2026-04-26T08:05:03.979Z</time></trkpt><trkpt lat="40.8114603" lon="8.5277815"><ele>12.0</ele><time>2026-04-26T08:05:04.98Z</time></trkpt><trkpt lat="40.811532" lon="8.5279007"><ele>12.0</ele><time>2026-04-26T08:05:06.979Z</time></trkpt><trkpt lat="40.811547" lon="8.5280264"><ele>12.0</ele><time>2026-04-26T08:05:08.978Z</time></trkpt><trkpt lat="40.8115132" lon="8.5281949"><ele>12.0</ele><time>2026-04-26T08:05:10.98Z</time></trkpt><trkpt lat="40.8114861" lon="8.5282916"><ele>12.0</ele><time>2026-04-26T08:05:11.981Z</time></trkpt><trkpt lat="40.8114593" lon="8.5283957"><ele>12.0</ele><time>2026-04-26T08:05:12.979Z</time></trkpt><trkpt lat="40.8114306" lon="8.5285063"><ele>12.0</ele><time>2026-04-26T08:05:13.981Z</time></trkpt><trkpt lat="40.8113968" lon="8.5286196"><ele>12.0</ele><time>2026-04-26T08:05:14.98Z</time></trkpt><trkpt lat="40.8113617" lon="8.528732"><ele>12.0</ele><time>2026-04-26T08:05:15.98Z</time></trkpt><trkpt lat="40.8113262" lon="8.5288395"><ele>12.0</ele><time>2026-04-26T08:05:16.978Z</time></trkpt><trkpt lat="40.8112926" lon="8.5289496"><ele>12.0</ele><time>2026-04-26T08:05:17.978Z</time></trkpt><trkpt lat="40.8112663" lon="8.5290642"><ele>12.0</ele><time>2026-04-26T08:05:18.978Z</time></trkpt><trkpt lat="40.8112485" lon="8.5291851"><ele>12.0</ele><time>2026-04-26T08:05:19.979Z</time></trkpt><trkpt lat="40.8112325" lon="8.5293084"><ele>12.0</ele><time>2026-04-26T08:05:20.979Z</time></trkpt><trkpt lat="40.8112247" lon="8.5294363"><ele>12.0</ele><time>2026-04-26T08:05:21.979Z</time></trkpt><trkpt lat="40.8112232" lon="8.5295654"><ele>12.0</ele><time>2026-04-26T08:05:22.979Z</time></trkpt><trkpt lat="40.8112267" lon="8.529696"><ele>12.0</ele><time>2026-04-26T08:05:23.978Z</time></trkpt><trkpt lat="40.8112296" lon="8.5298291"><ele>12.0</ele><time>2026-04-26T08:05:24.979Z</time></trkpt><trkpt lat="40.8112343" lon="8.5299671"><ele>12.0</ele><time>2026-04-26T08:05:25.979Z</time></trkpt><trkpt lat="40.8112433" lon="8.530107"><ele>12.0</ele><time>2026-04-26T08:05:26.978Z</time></trkpt><trkpt lat="40.8112671" lon="8.5302435"><ele>12.0</ele><time>2026-04-26T08:05:27.979Z</time></trkpt><trkpt lat="40.81131" lon="8.5303713"><ele>12.0</ele><time>2026-04-26T08:05:28.979Z</time></trkpt><trkpt lat="40.8113713" lon="8.5304945"><ele>12.0</ele><time>2026-04-26T08:05:29.979Z</time></trkpt><trkpt lat="40.8114429" lon="8.530618"><ele>12.0</ele><time>2026-04-26T08:05:30.978Z</time></trkpt><trkpt lat="40.8115201" lon="8.5307459"><ele>12.0</ele><time>2026-04-26T08:05:31.979Z</time></trkpt><trkpt lat="40.8115979" lon="8.5308703"><ele>12.0</ele><time>2026-04-26T08:05:32.981Z</time></trkpt><trkpt lat="40.8116771" lon="8.5309911"><ele>12.0</ele><time>2026-04-26T08:05:33.98Z</time></trkpt><trkpt lat="40.8117546" lon="8.5311092"><ele>12.0</ele><time>2026-04-26T08:05:34.98Z</time></trkpt><trkpt lat="40.8118213" lon="8.5312249"><ele>12.0</ele><time>2026-04-26T08:05:35.98Z</time></trkpt><trkpt lat="40.8118825" lon="8.5313324"><ele>12.0</ele><time>2026-04-26T08:05:36.98Z</time></trkpt><trkpt lat="40.8119312" lon="8.531428"><ele>12.0</ele><time>2026-04-26T08:05:37.981Z</time></trkpt><trkpt lat="40.8119693" lon="8.5315229"><ele>11.833333333333334</ele><time>2026-04-26T08:05:38.98Z</time></trkpt><trkpt lat="40.8119895" lon="8.5316077"><ele>11.666666666666666</ele><time>2026-04-26T08:05:39.981Z</time></trkpt><trkpt lat="40.8119168" lon="8.5317133"><ele>11.5</ele><time>2026-04-26T08:05:41.979Z</time></trkpt><trkpt lat="40.8118614" lon="8.5317617"><ele>11.333333333333332</ele><time>2026-04-26T08:05:42.979Z</time></trkpt><trkpt lat="40.8117979" lon="8.5318126"><ele>11.166666666666666</ele><time>2026-04-26T08:05:43.98Z</time></trkpt><trkpt lat="40.8117278" lon="8.5318609"><ele>11.0</ele><time>2026-04-26T08:05:44.98Z</time></trkpt><trkpt lat="40.8116468" lon="8.5319122"><ele>11.166666666666666</ele><time>2026-04-26T08:05:45.981Z</time></trkpt><trkpt lat="40.8115711" lon="8.5319725"><ele>11.333333333333332</ele><time>2026-04-26T08:05:46.98Z</time></trkpt><trkpt lat="40.8114962" lon="8.5320387"><ele>11.5</ele><time>2026-04-26T08:05:47.98Z</time></trkpt><trkpt lat="40.8114232" lon="8.5321042"><ele>11.666666666666666</ele><time>2026-04-26T08:05:48.979Z</time></trkpt><trkpt lat="40.8113569" lon="8.5321698"><ele>11.833333333333334</ele><time>2026-04-26T08:05:49.979Z</time></trkpt><trkpt lat="40.811296" lon="8.532233"><ele>12.0</ele><time>2026-04-26T08:05:50.978Z</time></trkpt><trkpt lat="40.8112395" lon="8.5322906"><ele>12.0</ele><time>2026-04-26T08:05:51.979Z</time></trkpt><trkpt lat="40.8111895" lon="8.5323458"><ele>12.0</ele><time>2026-04-26T08:05:52.982Z</time></trkpt><trkpt lat="40.8111181" lon="8.5324402"><ele>12.0</ele><time>2026-04-26T08:05:54.978Z</time></trkpt><trkpt lat="40.8111034" lon="8.5325317"><ele>12.0</ele><time>2026-04-26T08:05:56.979Z</time></trkpt><trkpt lat="40.8111784" lon="8.5326536"><ele>12.0</ele><time>2026-04-26T08:05:58.978Z</time></trkpt><trkpt lat="40.8112367" lon="8.5327381"><ele>12.0</ele><time>2026-04-26T08:05:59.98Z</time></trkpt><trkpt lat="40.811299" lon="8.5328296"><ele>12.2</ele><time>2026-04-26T08:06:00.979Z</time></trkpt><trkpt lat="40.811362" lon="8.532923"><ele>12.399999999999999</ele><time>2026-04-26T08:06:01.981Z</time></trkpt><trkpt lat="40.8114263" lon="8.5330247"><ele>12.600000000000001</ele><time>2026-04-26T08:06:02.98Z</time></trkpt><trkpt lat="40.8114889" lon="8.5331293"><ele>12.8</ele><time>2026-04-26T08:06:03.982Z</time></trkpt><trkpt lat="40.8115536" lon="8.5332391"><ele>13.0</ele><time>2026-04-26T08:06:04.98Z</time></trkpt><trkpt lat="40.8116215" lon="8.53335"><ele>13.0</ele><time>2026-04-26T08:06:05.98Z</time></trkpt><trkpt lat="40.8116889" lon="8.5334604"><ele>13.0</ele><time>2026-04-26T08:06:06.98Z</time></trkpt><trkpt lat="40.8117559" lon="8.5335732"><ele>13.0</ele><time>2026-04-26T08:06:07.981Z</time></trkpt><trkpt lat="40.8118272" lon="8.5336839"><ele>13.0</ele><time>2026-04-26T08:06:08.981Z</time></trkpt><trkpt lat="40.8118995" lon="8.533799"><ele>13.0</ele><time>2026-04-26T08:06:09.98Z</time></trkpt><trkpt lat="40.8119684" lon="8.5339145"><ele>13.4</ele><time>2026-04-26T08:06:10.98Z</time></trkpt><trkpt lat="40.8120324" lon="8.5340293"><ele>13.8</ele><time>2026-04-26T08:06:11.979Z</time></trkpt><trkpt lat="40.8120922" lon="8.5341381"><ele>14.2</ele><time>2026-04-26T08:06:12.979Z</time></trkpt><trkpt lat="40.8121501" lon="8.5342403"><ele>14.6</ele><time>2026-04-26T08:06:13.978Z</time></trkpt><trkpt lat="40.8122014" lon="8.5343314"><ele>15.0</ele><time>2026-04-26T08:06:14.98Z</time></trkpt><trkpt lat="40.8122443" lon="8.5344118"><ele>15.0</ele><time>2026-04-26T08:06:15.978Z</time></trkpt><trkpt lat="40.8122711" lon="8.5344874"><ele>15.0</ele><time>2026-04-26T08:06:16.98Z</time></trkpt><trkpt lat="40.8122692" lon="8.5345946"><ele>15.0</ele><time>2026-04-26T08:06:18.981Z</time></trkpt><trkpt lat="40.8121761" lon="8.5346473"><ele>15.0</ele><time>2026-04-26T08:06:20.98Z</time></trkpt><trkpt lat="40.8121024" lon="8.5346536"><ele>15.0</ele><time>2026-04-26T08:06:21.978Z</time></trkpt><trkpt lat="40.8120197" lon="8.5346722"><ele>15.0</ele><time>2026-04-26T08:06:22.979Z</time></trkpt><trkpt lat="40.8119383" lon="8.5347071"><ele>15.0</ele><time>2026-04-26T08:06:23.978Z</time></trkpt><trkpt lat="40.8118546" lon="8.534749"><ele>15.0</ele><time>2026-04-26T08:06:24.979Z</time></trkpt><trkpt lat="40.8117694" lon="8.5347982"><ele>15.0</ele><time>2026-04-26T08:06:25.979Z</time></trkpt><trkpt lat="40.8116826" lon="8.5348545"><ele>15.0</ele><time>2026-04-26T08:06:26.98Z</time></trkpt><trkpt lat="40.8115991" lon="8.5349168"><ele>15.0</ele><time>2026-04-26T08:06:27.979Z</time></trkpt><trkpt lat="40.8115211" lon="8.5349795"><ele>15.0</ele><time>2026-04-26T08:06:28.979Z</time></trkpt><trkpt lat="40.811448" lon="8.5350422"><ele>15.0</ele><time>2026-04-26T08:06:29.978Z</time></trkpt><trkpt lat="40.8113784" lon="8.5350988"><ele>15.0</ele><time>2026-04-26T08:06:30.98Z</time></trkpt><trkpt lat="40.811318" lon="8.53515"><ele>15.0</ele><time>2026-04-26T08:06:31.981Z</time></trkpt><trkpt lat="40.8112625" lon="8.5352028"><ele>15.0</ele><time>2026-04-26T08:06:32.982Z</time></trkpt><trkpt lat="40.8112145" lon="8.5352638"><ele>15.0</ele><time>2026-04-26T08:06:33.981Z</time></trkpt><trkpt lat="40.8111844" lon="8.5353433"><ele>15.0</ele><time>2026-04-26T08:06:34.98Z</time></trkpt><trkpt lat="40.8111692" lon="8.5354372"><ele>15.4</ele><time>2026-04-26T08:06:35.98Z</time></trkpt><trkpt lat="40.8111633" lon="8.5355413"><ele>15.8</ele><time>2026-04-26T08:06:36.981Z</time></trkpt><trkpt lat="40.8111603" lon="8.535656"><ele>16.2</ele><time>2026-04-26T08:06:37.98Z</time></trkpt><trkpt lat="40.8111543" lon="8.5357752"><ele>16.6</ele><time>2026-04-26T08:06:38.981Z</time></trkpt><trkpt lat="40.8111455" lon="8.5359031"><ele>17.0</ele><time>2026-04-26T08:06:39.98Z</time></trkpt><trkpt lat="40.8111398" lon="8.5360364"><ele>17.0</ele><time>2026-04-26T08:06:40.979Z</time></trkpt><trkpt lat="40.8111342" lon="8.5361756"><ele>17.0</ele><time>2026-04-26T08:06:41.978Z</time></trkpt><trkpt lat="40.811128" lon="8.5363163"><ele>17.0</ele><time>2026-04-26T08:06:42.979Z</time></trkpt><trkpt lat="40.8111194" lon="8.5364552"><ele>17.0</ele><time>2026-04-26T08:06:43.981Z</time></trkpt><trkpt lat="40.8111116" lon="8.5365987"><ele>17.0</ele><time>2026-04-26T08:06:44.98Z</time></trkpt><trkpt lat="40.8111044" lon="8.5367467"><ele>17.0</ele><time>2026-04-26T08:06:45.979Z</time></trkpt><trkpt lat="40.8110955" lon="8.5368959"><ele>17.0</ele><time>2026-04-26T08:06:46.978Z</time></trkpt><trkpt lat="40.8110874" lon="8.5370424"><ele>17.0</ele><time>2026-04-26T08:06:47.978Z</time></trkpt><trkpt lat="40.8110772" lon="8.5371848"><ele>17.0</ele><time>2026-04-26T08:06:48.979Z</time></trkpt><trkpt lat="40.8110644" lon="8.5373252"><ele>17.0</ele><time>2026-04-26T08:06:49.978Z</time></trkpt><trkpt lat="40.8110534" lon="8.5374685"><ele>17.2</ele><time>2026-04-26T08:06:50.979Z</time></trkpt><trkpt lat="40.8110473" lon="8.5376123"><ele>17.4</ele><time>2026-04-26T08:06:51.978Z</time></trkpt><trkpt lat="40.8110465" lon="8.5377527"><ele>17.6</ele><time>2026-04-26T08:06:52.979Z</time></trkpt><trkpt lat="40.8110534" lon="8.5378897"><ele>17.8</ele><time>2026-04-26T08:06:53.979Z</time></trkpt><trkpt lat="40.8110657" lon="8.538017"><ele>18.0</ele><time>2026-04-26T08:06:54.98Z</time></trkpt><trkpt lat="40.8110827" lon="8.5381345"><ele>18.166666666666668</ele><time>2026-04-26T08:06:55.978Z</time></trkpt><trkpt lat="40.8110979" lon="8.5382446"><ele>18.333333333333332</ele><time>2026-04-26T08:06:56.978Z</time></trkpt><trkpt lat="40.8111102" lon="8.538347"><ele>18.5</ele><time>2026-04-26T08:06:57.979Z</time></trkpt><trkpt lat="40.8111146" lon="8.5384451"><ele>18.666666666666664</ele><time>2026-04-26T08:06:58.978Z</time></trkpt><trkpt lat="40.8111094" lon="8.5385467"><ele>18.833333333333332</ele><time>2026-04-26T08:06:59.981Z</time></trkpt><trkpt lat="40.8110863" lon="8.5386521"><ele>19.0</ele><time>2026-04-26T08:07:00.979Z</time></trkpt><trkpt lat="40.8110492" lon="8.5387586"><ele>19.0</ele><time>2026-04-26T08:07:01.979Z</time></trkpt><trkpt lat="40.8110048" lon="8.5388633"><ele>19.0</ele><time>2026-04-26T08:07:02.978Z</time></trkpt><trkpt lat="40.8109564" lon="8.538965"><ele>19.0</ele><time>2026-04-26T08:07:03.978Z</time></trkpt><trkpt lat="40.8109091" lon="8.5390628"><ele>19.0</ele><time>2026-04-26T08:07:04.98Z</time></trkpt><trkpt lat="40.8108643" lon="8.5391534"><ele>19.0</ele><time>2026-04-26T08:07:05.979Z</time></trkpt><trkpt lat="40.8108243" lon="8.5392315"><ele>19.0</ele><time>2026-04-26T08:07:06.979Z</time></trkpt><trkpt lat="40.8107632" lon="8.5393402"><ele>19.166666666666664</ele><time>2026-04-26T08:07:08.978Z</time></trkpt><trkpt lat="40.8107388" lon="8.5394207"><ele>19.333333333333332</ele><time>2026-04-26T08:07:11.979Z</time></trkpt><trkpt lat="40.8107755" lon="8.5395226"><ele>19.5</ele><time>2026-04-26T08:07:13.979Z</time></trkpt><trkpt lat="40.8108251" lon="8.5395849"><ele>19.666666666666668</ele><time>2026-04-26T08:07:14.979Z</time></trkpt><trkpt lat="40.810886" lon="8.5396624"><ele>19.833333333333336</ele><time>2026-04-26T08:07:15.978Z</time></trkpt><trkpt lat="40.8109507" lon="8.5397474"><ele>20.0</ele><time>2026-04-26T08:07:16.978Z</time></trkpt><trkpt lat="40.8110219" lon="8.5398362"><ele>20.2</ele><time>2026-04-26T08:07:17.979Z</time></trkpt><trkpt lat="40.8110941" lon="8.5399287"><ele>20.4</ele><time>2026-04-26T08:07:18.979Z</time></trkpt><trkpt lat="40.8111703" lon="8.5400277"><ele>20.6</ele><time>2026-04-26T08:07:19.979Z</time></trkpt><trkpt lat="40.81125" lon="8.5401313"><ele>20.8</ele><time>2026-04-26T08:07:20.979Z</time></trkpt><trkpt lat="40.8113284" lon="8.540229"><ele>21.0</ele><time>2026-04-26T08:07:21.978Z</time></trkpt><trkpt lat="40.8114011" lon="8.5403208"><ele>21.166666666666668</ele><time>2026-04-26T08:07:22.979Z</time></trkpt><trkpt lat="40.8114637" lon="8.5404029"><ele>21.333333333333332</ele><time>2026-04-26T08:07:23.979Z</time></trkpt><trkpt lat="40.8115143" lon="8.5404746"><ele>21.5</ele><time>2026-04-26T08:07:24.978Z</time></trkpt><trkpt lat="40.8115714" lon="8.5405942"><ele>21.666666666666664</ele><time>2026-04-26T08:07:26.979Z</time></trkpt><trkpt lat="40.8115592" lon="8.540687"><ele>21.833333333333332</ele><time>2026-04-26T08:07:28.981Z</time></trkpt><trkpt lat="40.8114883" lon="8.5407545"><ele>22.0</ele><time>2026-04-26T08:07:30.979Z</time></trkpt><trkpt lat="40.8114184" lon="8.5408215"><ele>22.0</ele><time>2026-04-26T08:07:32.983Z</time></trkpt><trkpt lat="40.8113529" lon="8.5409034"><ele>22.0</ele><time>2026-04-26T08:07:34.979Z</time></trkpt><trkpt lat="40.8112786" lon="8.5409878"><ele>22.0</ele><time>2026-04-26T08:07:36.979Z</time></trkpt><trkpt lat="40.8112066" lon="8.5410645"><ele>22.0</ele><time>2026-04-26T08:07:38.981Z</time></trkpt><trkpt lat="40.8111415" lon="8.5411552"><ele>22.0</ele><time>2026-04-26T08:07:40.981Z</time></trkpt><trkpt lat="40.8110693" lon="8.5412434"><ele>22.0</ele><time>2026-04-26T08:07:42.978Z</time></trkpt><trkpt lat="40.8109965" lon="8.5413437"><ele>22.0</ele><time>2026-04-26T08:07:44.98Z</time></trkpt><trkpt lat="40.8109212" lon="8.5414462"><ele>22.0</ele><time>2026-04-26T08:07:46.98Z</time></trkpt><trkpt lat="40.8108474" lon="8.541568"><ele>22.0</ele><time>2026-04-26T08:07:48.979Z</time></trkpt><trkpt lat="40.8108094" lon="8.5416362"><ele>22.0</ele><time>2026-04-26T08:07:49.979Z</time></trkpt><trkpt lat="40.8107676" lon="8.5417095"><ele>22.333333333333332</ele><time>2026-04-26T08:07:50.979Z</time></trkpt><trkpt lat="40.8107178" lon="8.5417804"><ele>22.666666666666664</ele><time>2026-04-26T08:07:51.978Z</time></trkpt><trkpt lat="40.8106639" lon="8.5418519"><ele>23.0</ele><time>2026-04-26T08:07:52.979Z</time></trkpt><trkpt lat="40.810608" lon="8.5419264"><ele>23.333333333333332</ele><time>2026-04-26T08:07:53.979Z</time></trkpt><trkpt lat="40.810555" lon="8.5419984"><ele>23.666666666666668</ele><time>2026-04-26T08:07:54.98Z</time></trkpt><trkpt lat="40.8105031" lon="8.5420737"><ele>24.0</ele><time>2026-04-26T08:07:55.978Z</time></trkpt><trkpt lat="40.81045" lon="8.5421492"><ele>24.0</ele><time>2026-04-26T08:07:56.979Z</time></trkpt><trkpt lat="40.8103944" lon="8.5422235"><ele>24.0</ele><time>2026-04-26T08:07:57.98Z</time></trkpt><trkpt lat="40.8103421" lon="8.5422932"><ele>24.0</ele><time>2026-04-26T08:07:58.979Z</time></trkpt><trkpt lat="40.8102896" lon="8.5423584"><ele>24.0</ele><time>2026-04-26T08:07:59.981Z</time></trkpt><trkpt lat="40.8102373" lon="8.54243"><ele>24.0</ele><time>2026-04-26T08:08:00.98Z</time></trkpt><trkpt lat="40.8101883" lon="8.542508"><ele>24.0</ele><time>2026-04-26T08:08:01.978Z</time></trkpt><trkpt lat="40.8101385" lon="8.5425912"><ele>24.5</ele><time>2026-04-26T08:08:02.98Z</time></trkpt><trkpt lat="40.8100855" lon="8.542675"><ele>25.0</ele><time>2026-04-26T08:08:03.979Z</time></trkpt><trkpt lat="40.8100338" lon="8.5427607"><ele>25.5</ele><time>2026-04-26T08:08:04.978Z</time></trkpt><trkpt lat="40.8099846" lon="8.5428466"><ele>26.0</ele><time>2026-04-26T08:08:05.98Z</time></trkpt><trkpt lat="40.8099346" lon="8.5429342"><ele>26.5</ele><time>2026-04-26T08:08:06.978Z</time></trkpt><trkpt lat="40.8098845" lon="8.5430231"><ele>27.0</ele><time>2026-04-26T08:08:07.98Z</time></trkpt><trkpt lat="40.809835" lon="8.5431105"><ele>27.166666666666668</ele><time>2026-04-26T08:08:08.979Z</time></trkpt><trkpt lat="40.8097838" lon="8.5431969"><ele>27.333333333333336</ele><time>2026-04-26T08:08:09.979Z</time></trkpt><trkpt lat="40.8097368" lon="8.5432808"><ele>27.5</ele><time>2026-04-26T08:08:10.978Z</time></trkpt><trkpt lat="40.80969" lon="8.5433631"><ele>27.666666666666668</ele><time>2026-04-26T08:08:11.981Z</time></trkpt><trkpt lat="40.8096456" lon="8.5434419"><ele>27.833333333333336</ele><time>2026-04-26T08:08:12.979Z</time></trkpt><trkpt lat="40.809601" lon="8.5435222"><ele>28.0</ele><time>2026-04-26T08:08:13.979Z</time></trkpt><trkpt lat="40.8095553" lon="8.5435993"><ele>28.0</ele><time>2026-04-26T08:08:14.979Z</time></trkpt><trkpt lat="40.8095145" lon="8.5436762"><ele>28.0</ele><time>2026-04-26T08:08:15.979Z</time></trkpt><trkpt lat="40.8094808" lon="8.5437565"><ele>28.0</ele><time>2026-04-26T08:08:16.978Z</time></trkpt><trkpt lat="40.8094543" lon="8.5438392"><ele>28.0</ele><time>2026-04-26T08:08:17.979Z</time></trkpt><trkpt lat="40.809445" lon="8.5439285"><ele>28.0</ele><time>2026-04-26T08:08:18.98Z</time></trkpt><trkpt lat="40.8094483" lon="8.5440134"><ele>28.0</ele><time>2026-04-26T08:08:19.98Z</time></trkpt><trkpt lat="40.8094688" lon="8.5440967"><ele>28.0</ele><time>2026-04-26T08:08:20.98Z</time></trkpt><trkpt lat="40.8095101" lon="8.5441795"><ele>28.599999999999998</ele><time>2026-04-26T08:08:21.979Z</time></trkpt><trkpt lat="40.8095657" lon="8.544257"><ele>29.199999999999996</ele><time>2026-04-26T08:08:22.978Z</time></trkpt><trkpt lat="40.8096378" lon="8.5443275"><ele>29.8</ele><time>2026-04-26T08:08:23.979Z</time></trkpt><trkpt lat="40.809719" lon="8.5443924"><ele>30.4</ele><time>2026-04-26T08:08:24.979Z</time></trkpt><trkpt lat="40.8097997" lon="8.5444614"><ele>31.0</ele><time>2026-04-26T08:08:25.98Z</time></trkpt><trkpt lat="40.8098746" lon="8.544536"><ele>31.4</ele><time>2026-04-26T08:08:26.98Z</time></trkpt><trkpt lat="40.8099487" lon="8.5446138"><ele>31.8</ele><time>2026-04-26T08:08:27.979Z</time></trkpt><trkpt lat="40.8100209" lon="8.5446984"><ele>32.199999999999996</ele><time>2026-04-26T08:08:28.98Z</time></trkpt><trkpt lat="40.8100913" lon="8.5447802"><ele>32.6</ele><time>2026-04-26T08:08:29.98Z</time></trkpt><trkpt lat="40.8101618" lon="8.5448601"><ele>33.0</ele><time>2026-04-26T08:08:30.982Z</time></trkpt><trkpt lat="40.8102267" lon="8.5449304"><ele>32.333333333333336</ele><time>2026-04-26T08:08:31.98Z</time></trkpt><trkpt lat="40.810286" lon="8.5449952"><ele>31.666666666666664</ele><time>2026-04-26T08:08:32.982Z</time></trkpt><trkpt lat="40.8103382" lon="8.5450569"><ele>31.0</ele><time>2026-04-26T08:08:33.979Z</time></trkpt><trkpt lat="40.8103758" lon="8.5451282"><ele>30.333333333333332</ele><time>2026-04-26T08:08:34.978Z</time></trkpt><trkpt lat="40.8103993" lon="8.5452902"><ele>29.666666666666664</ele><time>2026-04-26T08:08:36.98Z</time></trkpt><trkpt lat="40.8103912" lon="8.5453848"><ele>29.0</ele><time>2026-04-26T08:08:37.98Z</time></trkpt><trkpt lat="40.8103721" lon="8.5454872"><ele>28.999999999999996</ele><time>2026-04-26T08:08:38.981Z</time></trkpt><trkpt lat="40.8103462" lon="8.545585"><ele>29.0</ele><time>2026-04-26T08:08:39.98Z</time></trkpt><trkpt lat="40.8103097" lon="8.5456764"><ele>29.0</ele><time>2026-04-26T08:08:40.981Z</time></trkpt><trkpt lat="40.810261" lon="8.5457639"><ele>29.0</ele><time>2026-04-26T08:08:41.979Z</time></trkpt><trkpt lat="40.81021" lon="8.5458458"><ele>28.999999999999996</ele><time>2026-04-26T08:08:42.979Z</time></trkpt><trkpt lat="40.8101495" lon="8.5459227"><ele>29.0</ele><time>2026-04-26T08:08:43.979Z</time></trkpt><trkpt lat="40.8100874" lon="8.5459946"><ele>29.666666666666664</ele><time>2026-04-26T08:08:44.978Z</time></trkpt><trkpt lat="40.8100229" lon="8.5460643"><ele>30.333333333333332</ele><time>2026-04-26T08:08:45.978Z</time></trkpt><trkpt lat="40.8099598" lon="8.5461328"><ele>31.0</ele><time>2026-04-26T08:08:46.978Z</time></trkpt><trkpt lat="40.809897" lon="8.5461912"><ele>31.666666666666664</ele><time>2026-04-26T08:08:47.979Z</time></trkpt><trkpt lat="40.8098314" lon="8.5462359"><ele>32.333333333333336</ele><time>2026-04-26T08:08:48.979Z</time></trkpt><trkpt lat="40.8097597" lon="8.5462674"><ele>33.0</ele><time>2026-04-26T08:08:49.979Z</time></trkpt><trkpt lat="40.8096838" lon="8.5462974"><ele>33.5</ele><time>2026-04-26T08:08:50.979Z</time></trkpt><trkpt lat="40.8096041" lon="8.5463277"><ele>34.0</ele><time>2026-04-26T08:08:51.978Z</time></trkpt><trkpt lat="40.8095264" lon="8.5463685"><ele>34.5</ele><time>2026-04-26T08:08:52.979Z</time></trkpt><trkpt lat="40.8094546" lon="8.5464205"><ele>35.0</ele><time>2026-04-26T08:08:53.98Z</time></trkpt><trkpt lat="40.8093905" lon="8.5464734"><ele>35.5</ele><time>2026-04-26T08:08:54.978Z</time></trkpt><trkpt lat="40.809343" lon="8.5465283"><ele>36.0</ele><time>2026-04-26T08:08:55.979Z</time></trkpt><trkpt lat="40.8092855" lon="8.5466516"><ele>36.8</ele><time>2026-04-26T08:08:57.979Z</time></trkpt><trkpt lat="40.8091873" lon="8.5466258"><ele>37.6</ele><time>2026-04-26T08:09:26.979Z</time></trkpt><trkpt lat="40.8090906" lon="8.5466526"><ele>38.4</ele><time>2026-04-26T08:09:28.979Z</time></trkpt><trkpt lat="40.8089735" lon="8.5466845"><ele>39.2</ele><time>2026-04-26T08:09:30.978Z</time></trkpt><trkpt lat="40.8089109" lon="8.5467073"><ele>40.0</ele><time>2026-04-26T08:09:31.979Z</time></trkpt><trkpt lat="40.8088473" lon="8.5467336"><ele>40.0</ele><time>2026-04-26T08:09:32.979Z</time></trkpt><trkpt lat="40.8087834" lon="8.546757"><ele>40.0</ele><time>2026-04-26T08:09:33.98Z</time></trkpt><trkpt lat="40.8087211" lon="8.5467871"><ele>40.0</ele><time>2026-04-26T08:09:34.981Z</time></trkpt><trkpt lat="40.8086552" lon="8.5468234"><ele>40.0</ele><time>2026-04-26T08:09:35.978Z</time></trkpt><trkpt lat="40.8085924" lon="8.5468547"><ele>40.0</ele><time>2026-04-26T08:09:36.979Z</time></trkpt><trkpt lat="40.8085268" lon="8.5468863"><ele>40.0</ele><time>2026-04-26T08:09:37.979Z</time></trkpt><trkpt lat="40.8084621" lon="8.5469179"><ele>40.0</ele><time>2026-04-26T08:09:38.978Z</time></trkpt><trkpt lat="40.8083969" lon="8.5469433"><ele>40.0</ele><time>2026-04-26T08:09:39.979Z</time></trkpt><trkpt lat="40.8083294" lon="8.5469664"><ele>40.0</ele><time>2026-04-26T08:09:40.981Z</time></trkpt><trkpt lat="40.8082577" lon="8.5469906"><ele>40.0</ele><time>2026-04-26T08:09:41.979Z</time></trkpt><trkpt lat="40.8081824" lon="8.5470175"><ele>40.0</ele><time>2026-04-26T08:09:42.98Z</time></trkpt><trkpt lat="40.8081059" lon="8.5470402"><ele>40.0</ele><time>2026-04-26T08:09:43.979Z</time></trkpt><trkpt lat="40.8080293" lon="8.5470636"><ele>40.0</ele><time>2026-04-26T08:09:44.981Z</time></trkpt><trkpt lat="40.8079591" lon="8.5470862"><ele>40.4</ele><time>2026-04-26T08:09:45.978Z</time></trkpt><trkpt lat="40.8078979" lon="8.5471079"><ele>40.8</ele><time>2026-04-26T08:09:46.978Z</time></trkpt><trkpt lat="40.8077993" lon="8.5471349"><ele>41.2</ele><time>2026-04-26T08:09:48.978Z</time></trkpt><trkpt lat="40.8077025" lon="8.5471713"><ele>41.6</ele><time>2026-04-26T08:09:50.979Z</time></trkpt><trkpt lat="40.8075976" lon="8.5472599"><ele>42.0</ele><time>2026-04-26T08:09:52.978Z</time></trkpt><trkpt lat="40.8075193" lon="8.5473689"><ele>42.333333333333336</ele><time>2026-04-26T08:09:54.979Z</time></trkpt><trkpt lat="40.807458" lon="8.5475062"><ele>42.666666666666664</ele><time>2026-04-26T08:09:56.978Z</time></trkpt><trkpt lat="40.8074233" lon="8.5475835"><ele>43.0</ele><time>2026-04-26T08:09:57.978Z</time></trkpt><trkpt lat="40.8073895" lon="8.5476664"><ele>43.33333333333333</ele><time>2026-04-26T08:09:58.979Z</time></trkpt><trkpt lat="40.8073546" lon="8.5477572"><ele>43.666666666666664</ele><time>2026-04-26T08:09:59.978Z</time></trkpt><trkpt lat="40.8073254" lon="8.5478484"><ele>44.0</ele><time>2026-04-26T08:10:00.979Z</time></trkpt><trkpt lat="40.8073013" lon="8.5479435"><ele>44.400000000000006</ele><time>2026-04-26T08:10:01.978Z</time></trkpt><trkpt lat="40.8072834" lon="8.5480353"><ele>44.8</ele><time>2026-04-26T08:10:02.98Z</time></trkpt><trkpt lat="40.8072556" lon="8.5481901"><ele>45.2</ele><time>2026-04-26T08:10:04.98Z</time></trkpt><trkpt lat="40.8072376" lon="8.5483463"><ele>45.599999999999994</ele><time>2026-04-26T08:10:06.98Z</time></trkpt><trkpt lat="40.8072133" lon="8.5484735"><ele>46.0</ele><time>2026-04-26T08:10:08.979Z</time></trkpt><trkpt lat="40.8071862" lon="8.5485896"><ele>46.0</ele><time>2026-04-26T08:10:10.979Z</time></trkpt><trkpt lat="40.8071611" lon="8.5486973"><ele>46.0</ele><time>2026-04-26T08:10:12.978Z</time></trkpt><trkpt lat="40.8071369" lon="8.5487863"><ele>46.0</ele><time>2026-04-26T08:10:14.978Z</time></trkpt><trkpt lat="40.8071134" lon="8.5488697"><ele>46.0</ele><time>2026-04-26T08:10:17.979Z</time></trkpt><trkpt lat="40.8071156" lon="8.5489582"><ele>46.0</ele><time>2026-04-26T08:10:21.978Z</time></trkpt><trkpt lat="40.8071591" lon="8.5488818"><ele>46.0</ele><time>2026-04-26T08:10:34.979Z</time></trkpt><trkpt lat="40.8071738" lon="8.5487423"><ele>46.0</ele><time>2026-04-26T08:10:36.981Z</time></trkpt><trkpt lat="40.807198" lon="8.5485929"><ele>46.0</ele><time>2026-04-26T08:10:38.982Z</time></trkpt><trkpt lat="40.8072209" lon="8.5484594"><ele>46.0</ele><time>2026-04-26T08:10:40.978Z</time></trkpt><trkpt lat="40.8072385" lon="8.5483181"><ele>46.0</ele><time>2026-04-26T08:10:42.979Z</time></trkpt><trkpt lat="40.8072598" lon="8.5481684"><ele>46.0</ele><time>2026-04-26T08:10:44.98Z</time></trkpt><trkpt lat="40.8072782" lon="8.5480864"><ele>46.0</ele><time>2026-04-26T08:10:45.979Z</time></trkpt><trkpt lat="40.8072991" lon="8.5480003"><ele>46.0</ele><time>2026-04-26T08:10:46.98Z</time></trkpt><trkpt lat="40.807322" lon="8.5479136"><ele>46.0</ele><time>2026-04-26T08:10:47.978Z</time></trkpt><trkpt lat="40.8073455" lon="8.5478302"><ele>46.0</ele><time>2026-04-26T08:10:48.978Z</time></trkpt><trkpt lat="40.8074005" lon="8.5476776"><ele>46.0</ele><time>2026-04-26T08:10:50.979Z</time></trkpt><trkpt lat="40.807426" lon="8.547601"><ele>46.0</ele><time>2026-04-26T08:10:51.978Z</time></trkpt><trkpt lat="40.8074729" lon="8.54746"><ele>45.66666666666667</ele><time>2026-04-26T08:10:53.98Z</time></trkpt><trkpt lat="40.8075154" lon="8.5473391"><ele>45.333333333333336</ele><time>2026-04-26T08:10:55.978Z</time></trkpt><trkpt lat="40.8075801" lon="8.5472487"><ele>45.0</ele><time>2026-04-26T08:10:57.978Z</time></trkpt><trkpt lat="40.8076813" lon="8.5471702"><ele>44.666666666666664</ele><time>2026-04-26T08:10:59.979Z</time></trkpt><trkpt lat="40.8077437" lon="8.547143"><ele>44.33333333333333</ele><time>2026-04-26T08:11:00.978Z</time></trkpt><trkpt lat="40.8078069" lon="8.5471218"><ele>44.0</ele><time>2026-04-26T08:11:01.98Z</time></trkpt><trkpt lat="40.8078725" lon="8.5470999"><ele>43.666666666666664</ele><time>2026-04-26T08:11:02.98Z</time></trkpt><trkpt lat="40.8079389" lon="8.5470772"><ele>43.33333333333333</ele><time>2026-04-26T08:11:03.979Z</time></trkpt><trkpt lat="40.8080064" lon="8.5470564"><ele>43.0</ele><time>2026-04-26T08:11:04.981Z</time></trkpt><trkpt lat="40.8080685" lon="8.5470381"><ele>42.666666666666664</ele><time>2026-04-26T08:11:05.98Z</time></trkpt><trkpt lat="40.8081315" lon="8.5470212"><ele>42.333333333333336</ele><time>2026-04-26T08:11:06.981Z</time></trkpt><trkpt lat="40.8081925" lon="8.5470001"><ele>42.0</ele><time>2026-04-26T08:11:07.979Z</time></trkpt><trkpt lat="40.8083168" lon="8.5469591"><ele>41.714285714285715</ele><time>2026-04-26T08:11:09.978Z</time></trkpt><trkpt lat="40.8083829" lon="8.546937"><ele>41.42857142857143</ele><time>2026-04-26T08:11:10.98Z</time></trkpt><trkpt lat="40.8084478" lon="8.5469096"><ele>41.14285714285714</ele><time>2026-04-26T08:11:11.981Z</time></trkpt><trkpt lat="40.8085136" lon="8.5468802"><ele>40.85714285714286</ele><time>2026-04-26T08:11:12.98Z</time></trkpt><trkpt lat="40.8085812" lon="8.5468514"><ele>40.57142857142857</ele><time>2026-04-26T08:11:13.981Z</time></trkpt><trkpt lat="40.8086508" lon="8.5468216"><ele>40.285714285714285</ele><time>2026-04-26T08:11:14.979Z</time></trkpt><trkpt lat="40.808714" lon="8.5467918"><ele>40.0</ele><time>2026-04-26T08:11:15.981Z</time></trkpt><trkpt lat="40.8087791" lon="8.5467639"><ele>40.0</ele><time>2026-04-26T08:11:16.978Z</time></trkpt><trkpt lat="40.808846" lon="8.5467383"><ele>40.0</ele><time>2026-04-26T08:11:17.978Z</time></trkpt><trkpt lat="40.8089102" lon="8.5467129"><ele>40.0</ele><time>2026-04-26T08:11:18.979Z</time></trkpt><trkpt lat="40.8090268" lon="8.5466652"><ele>40.0</ele><time>2026-04-26T08:11:20.978Z</time></trkpt><trkpt lat="40.8091266" lon="8.5466373"><ele>40.0</ele><time>2026-04-26T08:11:22.979Z</time></trkpt><trkpt lat="40.8092026" lon="8.5466221"><ele>40.0</ele><time>2026-04-26T08:11:24.979Z</time></trkpt><trkpt lat="40.8092802" lon="8.5466679"><ele>40.0</ele><time>2026-04-26T08:11:27.978Z</time></trkpt><trkpt lat="40.8093196" lon="8.5467547"><ele>40.0</ele><time>2026-04-26T08:11:30.98Z</time></trkpt><trkpt lat="40.8093341" lon="8.5468568"><ele>40.0</ele><time>2026-04-26T08:11:33.981Z</time></trkpt><trkpt lat="40.8093749" lon="8.5469696"><ele>40.0</ele><time>2026-04-26T08:11:36.978Z</time></trkpt><trkpt lat="40.8094027" lon="8.5470793"><ele>40.0</ele><time>2026-04-26T08:11:39.979Z</time></trkpt><trkpt lat="40.8094313" lon="8.547199"><ele>40.0</ele><time>2026-04-26T08:11:42.979Z</time></trkpt><trkpt lat="40.8094611" lon="8.5473134"><ele>39.8</ele><time>2026-04-26T08:11:44.979Z</time></trkpt><trkpt lat="40.8095022" lon="8.5474472"><ele>39.6</ele><time>2026-04-26T08:11:46.979Z</time></trkpt><trkpt lat="40.8095344" lon="8.5476043"><ele>39.4</ele><time>2026-04-26T08:11:48.978Z</time></trkpt><trkpt lat="40.8095529" lon="8.547693"><ele>39.2</ele><time>2026-04-26T08:11:49.978Z</time></trkpt><trkpt lat="40.8095726" lon="8.5477874"><ele>39.0</ele><time>2026-04-26T08:11:50.98Z</time></trkpt><trkpt lat="40.8095916" lon="8.5478817"><ele>39.0</ele><time>2026-04-26T08:11:51.978Z</time></trkpt><trkpt lat="40.8096152" lon="8.5479792"><ele>39.0</ele><time>2026-04-26T08:11:52.977Z</time></trkpt><trkpt lat="40.8096419" lon="8.5480754"><ele>39.0</ele><time>2026-04-26T08:11:53.978Z</time></trkpt><trkpt lat="40.8096674" lon="8.5481743"><ele>39.0</ele><time>2026-04-26T08:11:54.978Z</time></trkpt><trkpt lat="40.8096907" lon="8.5482745"><ele>39.0</ele><time>2026-04-26T08:11:55.978Z</time></trkpt><trkpt lat="40.8097123" lon="8.548376"><ele>39.0</ele><time>2026-04-26T08:11:56.978Z</time></trkpt><trkpt lat="40.8097388" lon="8.5484794"><ele>39.0</ele><time>2026-04-26T08:11:57.978Z</time></trkpt><trkpt lat="40.8097683" lon="8.548586"><ele>39.0</ele><time>2026-04-26T08:11:58.981Z</time></trkpt><trkpt lat="40.8097951" lon="8.5486959"><ele>39.0</ele><time>2026-04-26T08:11:59.979Z</time></trkpt><trkpt lat="40.8098222" lon="8.5488103"><ele>39.0</ele><time>2026-04-26T08:12:00.98Z</time></trkpt><trkpt lat="40.8098513" lon="8.5489288"><ele>39.0</ele><time>2026-04-26T08:12:01.978Z</time></trkpt><trkpt lat="40.8098828" lon="8.5490495"><ele>39.6</ele><time>2026-04-26T08:12:02.98Z</time></trkpt><trkpt lat="40.8099156" lon="8.5491707"><ele>40.2</ele><time>2026-04-26T08:12:03.98Z</time></trkpt><trkpt lat="40.8099475" lon="8.5492931"><ele>40.800000000000004</ele><time>2026-04-26T08:12:04.979Z</time></trkpt><trkpt lat="40.8099781" lon="8.5494136"><ele>41.4</ele><time>2026-04-26T08:12:05.979Z</time></trkpt><trkpt lat="40.8100098" lon="8.5495319"><ele>42.0</ele><time>2026-04-26T08:12:06.978Z</time></trkpt><trkpt lat="40.8100446" lon="8.5496502"><ele>42.0</ele><time>2026-04-26T08:12:07.979Z</time></trkpt><trkpt lat="40.810075" lon="8.5497705"><ele>42.0</ele><time>2026-04-26T08:12:08.98Z</time></trkpt><trkpt lat="40.8101036" lon="8.5498921"><ele>42.0</ele><time>2026-04-26T08:12:09.979Z</time></trkpt><trkpt lat="40.8101352" lon="8.5500143"><ele>42.0</ele><time>2026-04-26T08:12:10.978Z</time></trkpt><trkpt lat="40.8101694" lon="8.5501368"><ele>42.0</ele><time>2026-04-26T08:12:11.979Z</time></trkpt><trkpt lat="40.8102013" lon="8.5502586"><ele>42.400000000000006</ele><time>2026-04-26T08:12:12.979Z</time></trkpt><trkpt lat="40.8102328" lon="8.5503806"><ele>42.800000000000004</ele><time>2026-04-26T08:12:13.978Z</time></trkpt><trkpt lat="40.8102646" lon="8.5505055"><ele>43.2</ele><time>2026-04-26T08:12:14.979Z</time></trkpt><trkpt lat="40.8102946" lon="8.5506316"><ele>43.6</ele><time>2026-04-26T08:12:15.978Z</time></trkpt><trkpt lat="40.8103231" lon="8.5507593"><ele>44.0</ele><time>2026-04-26T08:12:16.977Z</time></trkpt><trkpt lat="40.8103536" lon="8.5508864"><ele>44.0</ele><time>2026-04-26T08:12:17.979Z</time></trkpt><trkpt lat="40.8103829" lon="8.5510094"><ele>44.0</ele><time>2026-04-26T08:12:18.977Z</time></trkpt><trkpt lat="40.8104167" lon="8.5511305"><ele>44.0</ele><time>2026-04-26T08:12:19.979Z</time></trkpt><trkpt lat="40.8104513" lon="8.5512495"><ele>44.0</ele><time>2026-04-26T08:12:20.979Z</time></trkpt><trkpt lat="40.81048" lon="8.5513722"><ele>44.0</ele><time>2026-04-26T08:12:21.979Z</time></trkpt><trkpt lat="40.8105066" lon="8.5515006"><ele>44.800000000000004</ele><time>2026-04-26T08:12:22.978Z</time></trkpt><trkpt lat="40.8105379" lon="8.5516334"><ele>45.6</ele><time>2026-04-26T08:12:23.979Z</time></trkpt><trkpt lat="40.8105727" lon="8.5517701"><ele>46.4</ele><time>2026-04-26T08:12:24.979Z</time></trkpt><trkpt lat="40.810604" lon="8.5519086"><ele>47.2</ele><time>2026-04-26T08:12:25.978Z</time></trkpt><trkpt lat="40.8106388" lon="8.5520478"><ele>48.0</ele><time>2026-04-26T08:12:26.978Z</time></trkpt><trkpt lat="40.8106754" lon="8.55219"><ele>48.75</ele><time>2026-04-26T08:12:27.979Z</time></trkpt><trkpt lat="40.8107132" lon="8.5523319"><ele>49.5</ele><time>2026-04-26T08:12:28.979Z</time></trkpt><trkpt lat="40.8107515" lon="8.5524768"><ele>50.25</ele><time>2026-04-26T08:12:29.978Z</time></trkpt><trkpt lat="40.8107854" lon="8.5526219"><ele>51.0</ele><time>2026-04-26T08:12:30.978Z</time></trkpt><trkpt lat="40.810821" lon="8.552771"><ele>51.75</ele><time>2026-04-26T08:12:31.98Z</time></trkpt><trkpt lat="40.8108566" lon="8.5529198"><ele>52.5</ele><time>2026-04-26T08:12:32.979Z</time></trkpt><trkpt lat="40.8108942" lon="8.5530702"><ele>53.25</ele><time>2026-04-26T08:12:33.979Z</time></trkpt><trkpt lat="40.8109328" lon="8.5532227"><ele>54.0</ele><time>2026-04-26T08:12:34.978Z</time></trkpt><trkpt lat="40.8109712" lon="8.5533743"><ele>53.75</ele><time>2026-04-26T08:12:35.98Z</time></trkpt><trkpt lat="40.8110087" lon="8.5535267"><ele>53.5</ele><time>2026-04-26T08:12:36.979Z</time></trkpt><trkpt lat="40.8110477" lon="8.5536827"><ele>53.25</ele><time>2026-04-26T08:12:37.979Z</time></trkpt><trkpt lat="40.8110878" lon="8.5538381"><ele>53.0</ele><time>2026-04-26T08:12:38.979Z</time></trkpt><trkpt lat="40.8111316" lon="8.5539919"><ele>53.0</ele><time>2026-04-26T08:12:39.98Z</time></trkpt><trkpt lat="40.8111734" lon="8.5541468"><ele>53.0</ele><time>2026-04-26T08:12:40.979Z</time></trkpt><trkpt lat="40.8112152" lon="8.5543012"><ele>53.0</ele><time>2026-04-26T08:12:41.979Z</time></trkpt><trkpt lat="40.8112569" lon="8.5544581"><ele>53.0</ele><time>2026-04-26T08:12:42.981Z</time></trkpt><trkpt lat="40.8113002" lon="8.5546159"><ele>53.75</ele><time>2026-04-26T08:12:43.981Z</time></trkpt><trkpt lat="40.8113434" lon="8.5547711"><ele>54.5</ele><time>2026-04-26T08:12:44.98Z</time></trkpt><trkpt lat="40.8113848" lon="8.5549297"><ele>55.25</ele><time>2026-04-26T08:12:45.98Z</time></trkpt><trkpt lat="40.8114284" lon="8.5550893"><ele>56.0</ele><time>2026-04-26T08:12:46.979Z</time></trkpt><trkpt lat="40.8114727" lon="8.5552487"><ele>56.75</ele><time>2026-04-26T08:12:47.978Z</time></trkpt><trkpt lat="40.8115175" lon="8.5554103"><ele>57.5</ele><time>2026-04-26T08:12:48.98Z</time></trkpt><trkpt lat="40.8115595" lon="8.5555777"><ele>58.25</ele><time>2026-04-26T08:12:49.979Z</time></trkpt><trkpt lat="40.811598" lon="8.5557416"><ele>59.0</ele><time>2026-04-26T08:12:50.98Z</time></trkpt><trkpt lat="40.8116337" lon="8.5558905"><ele>59.0</ele><time>2026-04-26T08:12:51.979Z</time></trkpt><trkpt lat="40.8116673" lon="8.55603"><ele>59.00000000000001</ele><time>2026-04-26T08:12:52.977Z</time></trkpt><trkpt lat="40.8117029" lon="8.5561648"><ele>59.00000000000001</ele><time>2026-04-26T08:12:53.98Z</time></trkpt><trkpt lat="40.8117374" lon="8.5563008"><ele>59.0</ele><time>2026-04-26T08:12:54.979Z</time></trkpt><trkpt lat="40.8117731" lon="8.5564398"><ele>59.0</ele><time>2026-04-26T08:12:55.98Z</time></trkpt><trkpt lat="40.8118082" lon="8.5565843"><ele>58.25</ele><time>2026-04-26T08:12:56.98Z</time></trkpt><trkpt lat="40.8118459" lon="8.5567305"><ele>57.5</ele><time>2026-04-26T08:12:57.981Z</time></trkpt><trkpt lat="40.8118851" lon="8.5568793"><ele>56.75</ele><time>2026-04-26T08:12:58.98Z</time></trkpt><trkpt lat="40.8119216" lon="8.5570288"><ele>56.0</ele><time>2026-04-26T08:12:59.981Z</time></trkpt><trkpt lat="40.8119545" lon="8.557174"><ele>56.0</ele><time>2026-04-26T08:13:00.98Z</time></trkpt><trkpt lat="40.811987" lon="8.5573142"><ele>55.99999999999999</ele><time>2026-04-26T08:13:01.98Z</time></trkpt><trkpt lat="40.8120211" lon="8.5574498"><ele>55.99999999999999</ele><time>2026-04-26T08:13:02.981Z</time></trkpt><trkpt lat="40.8120552" lon="8.5575804"><ele>56.0</ele><time>2026-04-26T08:13:03.981Z</time></trkpt><trkpt lat="40.8120929" lon="8.5577075"><ele>56.0</ele><time>2026-04-26T08:13:04.982Z</time></trkpt><trkpt lat="40.8121288" lon="8.5578338"><ele>56.0</ele><time>2026-04-26T08:13:05.98Z</time></trkpt><trkpt lat="40.8121609" lon="8.5579661"><ele>55.99999999999999</ele><time>2026-04-26T08:13:06.979Z</time></trkpt><trkpt lat="40.8121936" lon="8.5581018"><ele>55.99999999999999</ele><time>2026-04-26T08:13:07.978Z</time></trkpt><trkpt lat="40.8122245" lon="8.5582432"><ele>56.0</ele><time>2026-04-26T08:13:08.979Z</time></trkpt><trkpt lat="40.812263" lon="8.5583844"><ele>56.0</ele><time>2026-04-26T08:13:09.979Z</time></trkpt><trkpt lat="40.8123032" lon="8.5585299"><ele>56.0</ele><time>2026-04-26T08:13:10.979Z</time></trkpt><trkpt lat="40.8123429" lon="8.5586795"><ele>56.0</ele><time>2026-04-26T08:13:11.98Z</time></trkpt><trkpt lat="40.8123808" lon="8.5588317"><ele>56.0</ele><time>2026-04-26T08:13:12.981Z</time></trkpt><trkpt lat="40.812421" lon="8.5589882"><ele>56.0</ele><time>2026-04-26T08:13:13.98Z</time></trkpt><trkpt lat="40.8124632" lon="8.5591502"><ele>56.5</ele><time>2026-04-26T08:13:14.981Z</time></trkpt><trkpt lat="40.8125047" lon="8.5593131"><ele>57.0</ele><time>2026-04-26T08:13:15.978Z</time></trkpt><trkpt lat="40.8125483" lon="8.5594772"><ele>57.5</ele><time>2026-04-26T08:13:16.979Z</time></trkpt><trkpt lat="40.8125916" lon="8.5596431"><ele>58.0</ele><time>2026-04-26T08:13:17.978Z</time></trkpt><trkpt lat="40.8126338" lon="8.5598122"><ele>57.75</ele><time>2026-04-26T08:13:18.978Z</time></trkpt><trkpt lat="40.8126768" lon="8.5599814"><ele>57.5</ele><time>2026-04-26T08:13:19.981Z</time></trkpt><trkpt lat="40.8127201" lon="8.5601489"><ele>57.25</ele><time>2026-04-26T08:13:20.98Z</time></trkpt><trkpt lat="40.8127605" lon="8.5603085"><ele>57.0</ele><time>2026-04-26T08:13:21.98Z</time></trkpt><trkpt lat="40.8127981" lon="8.5604564"><ele>57.0</ele><time>2026-04-26T08:13:22.981Z</time></trkpt><trkpt lat="40.812833" lon="8.5605947"><ele>57.0</ele><time>2026-04-26T08:13:23.981Z</time></trkpt><trkpt lat="40.8128663" lon="8.5607315"><ele>57.0</ele><time>2026-04-26T08:13:24.98Z</time></trkpt><trkpt lat="40.8129025" lon="8.5608714"><ele>57.0</ele><time>2026-04-26T08:13:25.979Z</time></trkpt><trkpt lat="40.8129383" lon="8.5610147"><ele>57.0</ele><time>2026-04-26T08:13:26.979Z</time></trkpt><trkpt lat="40.8129744" lon="8.5611634"><ele>57.5</ele><time>2026-04-26T08:13:27.98Z</time></trkpt><trkpt lat="40.8130129" lon="8.5613128"><ele>58.0</ele><time>2026-04-26T08:13:28.979Z</time></trkpt><trkpt lat="40.8130494" lon="8.5614638"><ele>58.5</ele><time>2026-04-26T08:13:29.981Z</time></trkpt><trkpt lat="40.8130825" lon="8.5616035"><ele>59.0</ele><time>2026-04-26T08:13:30.979Z</time></trkpt><trkpt lat="40.8131232" lon="8.5617398"><ele>59.0</ele><time>2026-04-26T08:13:31.979Z</time></trkpt><trkpt lat="40.8131594" lon="8.5618761"><ele>59.00000000000001</ele><time>2026-04-26T08:13:32.979Z</time></trkpt><trkpt lat="40.8131917" lon="8.5620173"><ele>59.00000000000001</ele><time>2026-04-26T08:13:33.979Z</time></trkpt><trkpt lat="40.8132256" lon="8.5621579"><ele>59.0</ele><time>2026-04-26T08:13:34.979Z</time></trkpt><trkpt lat="40.8132598" lon="8.5622927"><ele>59.0</ele><time>2026-04-26T08:13:35.978Z</time></trkpt><trkpt lat="40.8132904" lon="8.5624192"><ele>59.00000000000001</ele><time>2026-04-26T08:13:36.978Z</time></trkpt><trkpt lat="40.8133162" lon="8.562532"><ele>59.0</ele><time>2026-04-26T08:13:37.979Z</time></trkpt><trkpt lat="40.8133398" lon="8.5626294"><ele>59.0</ele><time>2026-04-26T08:13:38.979Z</time></trkpt><trkpt lat="40.8133637" lon="8.5627129"><ele>59.0</ele><time>2026-04-26T08:13:39.979Z</time></trkpt><trkpt lat="40.8133972" lon="8.5628435"><ele>59.00000000000001</ele><time>2026-04-26T08:13:41.98Z</time></trkpt><trkpt lat="40.8134224" lon="8.5629412"><ele>59.0</ele><time>2026-04-26T08:13:43.98Z</time></trkpt><trkpt lat="40.8134446" lon="8.5630227"><ele>58.800000000000004</ele><time>2026-04-26T08:13:46.98Z</time></trkpt><trkpt lat="40.8134691" lon="8.5631416"><ele>58.60000000000001</ele><time>2026-04-26T08:13:53.98Z</time></trkpt><trkpt lat="40.8135098" lon="8.5633125"><ele>58.4</ele><time>2026-04-26T08:13:55.982Z</time></trkpt><trkpt lat="40.8135312" lon="8.5634104"><ele>58.2</ele><time>2026-04-26T08:13:56.981Z</time></trkpt><trkpt lat="40.8135561" lon="8.5635148"><ele>58.0</ele><time>2026-04-26T08:13:57.98Z</time></trkpt><trkpt lat="40.813586" lon="8.5636244"><ele>56.8</ele><time>2026-04-26T08:13:58.982Z</time></trkpt><trkpt lat="40.8136154" lon="8.5637384"><ele>55.599999999999994</ele><time>2026-04-26T08:13:59.981Z</time></trkpt><trkpt lat="40.8136455" lon="8.5638597"><ele>54.400000000000006</ele><time>2026-04-26T08:14:00.98Z</time></trkpt><trkpt lat="40.8136762" lon="8.5639819"><ele>53.2</ele><time>2026-04-26T08:14:01.982Z</time></trkpt><trkpt lat="40.8137072" lon="8.5641055"><ele>52.0</ele><time>2026-04-26T08:14:02.981Z</time></trkpt><trkpt lat="40.8137363" lon="8.5642289"><ele>52.0</ele><time>2026-04-26T08:14:03.981Z</time></trkpt><trkpt lat="40.8137666" lon="8.564355"><ele>52.0</ele><time>2026-04-26T08:14:04.981Z</time></trkpt><trkpt lat="40.8138008" lon="8.5644819"><ele>52.0</ele><time>2026-04-26T08:14:05.981Z</time></trkpt><trkpt lat="40.8138346" lon="8.5646102"><ele>52.0</ele><time>2026-04-26T08:14:06.981Z</time></trkpt><trkpt lat="40.8138714" lon="8.564741"><ele>52.0</ele><time>2026-04-26T08:14:07.981Z</time></trkpt><trkpt lat="40.8139097" lon="8.5648744"><ele>52.0</ele><time>2026-04-26T08:14:08.98Z</time></trkpt><trkpt lat="40.8139418" lon="8.5650121"><ele>52.0</ele><time>2026-04-26T08:14:09.979Z</time></trkpt><trkpt lat="40.813974" lon="8.565152"><ele>52.0</ele><time>2026-04-26T08:14:10.981Z</time></trkpt><trkpt lat="40.8140113" lon="8.5652961"><ele>52.0</ele><time>2026-04-26T08:14:11.979Z</time></trkpt><trkpt lat="40.8140503" lon="8.5654431"><ele>52.25</ele><time>2026-04-26T08:14:12.98Z</time></trkpt><trkpt lat="40.8140873" lon="8.5655931"><ele>52.5</ele><time>2026-04-26T08:14:13.979Z</time></trkpt><trkpt lat="40.8141275" lon="8.5657482"><ele>52.75</ele><time>2026-04-26T08:14:14.98Z</time></trkpt><trkpt lat="40.8141677" lon="8.5659045"><ele>53.0</ele><time>2026-04-26T08:14:15.98Z</time></trkpt><trkpt lat="40.8142087" lon="8.5660613"><ele>53.0</ele><time>2026-04-26T08:14:16.979Z</time></trkpt><trkpt lat="40.814249" lon="8.5662164"><ele>53.0</ele><time>2026-04-26T08:14:17.98Z</time></trkpt><trkpt lat="40.8142865" lon="8.5663661"><ele>53.0</ele><time>2026-04-26T08:14:18.978Z</time></trkpt><trkpt lat="40.8143216" lon="8.566515"><ele>53.0</ele><time>2026-04-26T08:14:19.98Z</time></trkpt><trkpt lat="40.8143553" lon="8.5666646"><ele>52.4</ele><time>2026-04-26T08:14:20.979Z</time></trkpt><trkpt lat="40.8143858" lon="8.5668126"><ele>51.8</ele><time>2026-04-26T08:14:21.98Z</time></trkpt><trkpt lat="40.8144196" lon="8.5669581"><ele>51.2</ele><time>2026-04-26T08:14:22.979Z</time></trkpt><trkpt lat="40.8144522" lon="8.5670953"><ele>50.6</ele><time>2026-04-26T08:14:23.98Z</time></trkpt><trkpt lat="40.8144873" lon="8.5672229"><ele>50.0</ele><time>2026-04-26T08:14:24.978Z</time></trkpt><trkpt lat="40.8145167" lon="8.5673463"><ele>50.00000000000001</ele><time>2026-04-26T08:14:25.979Z</time></trkpt><trkpt lat="40.8145486" lon="8.5674639"><ele>50.0</ele><time>2026-04-26T08:14:26.98Z</time></trkpt><trkpt lat="40.814579" lon="8.5675751"><ele>50.0</ele><time>2026-04-26T08:14:27.979Z</time></trkpt><trkpt lat="40.8146088" lon="8.5676845"><ele>50.0</ele><time>2026-04-26T08:14:28.979Z</time></trkpt><trkpt lat="40.8146356" lon="8.5677908"><ele>50.00000000000001</ele><time>2026-04-26T08:14:29.979Z</time></trkpt><trkpt lat="40.8146589" lon="8.5678942"><ele>50.0</ele><time>2026-04-26T08:14:30.979Z</time></trkpt><trkpt lat="40.8146841" lon="8.5679942"><ele>50.00000000000001</ele><time>2026-04-26T08:14:31.979Z</time></trkpt><trkpt lat="40.8147073" lon="8.5680836"><ele>50.0</ele><time>2026-04-26T08:14:32.981Z</time></trkpt><trkpt lat="40.814749" lon="8.5682167"><ele>50.0</ele><time>2026-04-26T08:14:34.981Z</time></trkpt><trkpt lat="40.8148168" lon="8.5682699"><ele>50.0</ele><time>2026-04-26T08:14:36.981Z</time></trkpt><trkpt lat="40.8149295" lon="8.5682276"><ele>50.00000000000001</ele><time>2026-04-26T08:14:38.98Z</time></trkpt><trkpt lat="40.814994" lon="8.5681925"><ele>50.0</ele><time>2026-04-26T08:14:39.979Z</time></trkpt><trkpt lat="40.8150634" lon="8.5681572"><ele>50.00000000000001</ele><time>2026-04-26T08:14:40.979Z</time></trkpt><trkpt lat="40.815133" lon="8.5681124"><ele>50.0</ele><time>2026-04-26T08:14:41.98Z</time></trkpt><trkpt lat="40.8152036" lon="8.5680613"><ele>50.0</ele><time>2026-04-26T08:14:42.98Z</time></trkpt><trkpt lat="40.8152711" lon="8.5680062"><ele>50.0</ele><time>2026-04-26T08:14:43.981Z</time></trkpt><trkpt lat="40.8153369" lon="8.5679544"><ele>50.00000000000001</ele><time>2026-04-26T08:14:44.98Z</time></trkpt><trkpt lat="40.8154032" lon="8.5679009"><ele>50.0</ele><time>2026-04-26T08:14:45.979Z</time></trkpt><trkpt lat="40.8154676" lon="8.5678468"><ele>49.57142857142858</ele><time>2026-04-26T08:14:46.98Z</time></trkpt><trkpt lat="40.8155285" lon="8.567793"><ele>49.142857142857146</ele><time>2026-04-26T08:14:47.981Z</time></trkpt><trkpt lat="40.8155901" lon="8.5677459"><ele>48.714285714285715</ele><time>2026-04-26T08:14:48.98Z</time></trkpt><trkpt lat="40.8156491" lon="8.5677002"><ele>48.28571428571429</ele><time>2026-04-26T08:14:49.979Z</time></trkpt><trkpt lat="40.8157082" lon="8.5676504"><ele>47.857142857142854</ele><time>2026-04-26T08:14:50.978Z</time></trkpt><trkpt lat="40.8157655" lon="8.5676014"><ele>47.42857142857143</ele><time>2026-04-26T08:14:51.978Z</time></trkpt><trkpt lat="40.8158213" lon="8.5675539"><ele>47.0</ele><time>2026-04-26T08:14:52.981Z</time></trkpt><trkpt lat="40.8158727" lon="8.5675029"><ele>47.0</ele><time>2026-04-26T08:14:53.983Z</time></trkpt><trkpt lat="40.8159242" lon="8.5674498"><ele>47.0</ele><time>2026-04-26T08:14:54.981Z</time></trkpt><trkpt lat="40.8159746" lon="8.5673918"><ele>47.0</ele><time>2026-04-26T08:14:55.981Z</time></trkpt><trkpt lat="40.8160269" lon="8.5673327"><ele>47.0</ele><time>2026-04-26T08:14:56.981Z</time></trkpt><trkpt lat="40.8160823" lon="8.5672744"><ele>47.0</ele><time>2026-04-26T08:14:57.981Z</time></trkpt><trkpt lat="40.8161418" lon="8.5672225"><ele>47.0</ele><time>2026-04-26T08:14:58.981Z</time></trkpt><trkpt lat="40.8162052" lon="8.5671833"><ele>47.0</ele><time>2026-04-26T08:14:59.984Z</time></trkpt><trkpt lat="40.8162706" lon="8.5671593"><ele>46.57142857142857</ele><time>2026-04-26T08:15:00.979Z</time></trkpt><trkpt lat="40.8163371" lon="8.5671429"><ele>46.14285714285714</ele><time>2026-04-26T08:15:01.979Z</time></trkpt><trkpt lat="40.8164036" lon="8.5671223"><ele>45.714285714285715</ele><time>2026-04-26T08:15:02.979Z</time></trkpt><trkpt lat="40.8164683" lon="8.5670934"><ele>45.285714285714285</ele><time>2026-04-26T08:15:03.979Z</time></trkpt><trkpt lat="40.81653" lon="8.5670592"><ele>44.857142857142854</ele><time>2026-04-26T08:15:04.979Z</time></trkpt><trkpt lat="40.8165904" lon="8.5670254"><ele>44.42857142857143</ele><time>2026-04-26T08:15:05.981Z</time></trkpt><trkpt lat="40.8166489" lon="8.5669932"><ele>44.0</ele><time>2026-04-26T08:15:06.978Z</time></trkpt><trkpt lat="40.816759" lon="8.5669357"><ele>43.6</ele><time>2026-04-26T08:15:08.98Z</time></trkpt><trkpt lat="40.8168576" lon="8.5669035"><ele>43.2</ele><time>2026-04-26T08:15:10.98Z</time></trkpt><trkpt lat="40.816948" lon="8.5669231"><ele>42.800000000000004</ele><time>2026-04-26T08:15:12.979Z</time></trkpt><trkpt lat="40.8170275" lon="8.566974"><ele>42.400000000000006</ele><time>2026-04-26T08:15:14.981Z</time></trkpt><trkpt lat="40.8170882" lon="8.5670602"><ele>42.0</ele><time>2026-04-26T08:15:16.98Z</time></trkpt><trkpt lat="40.8171341" lon="8.567201"><ele>42.0</ele><time>2026-04-26T08:15:18.979Z</time></trkpt><trkpt lat="40.81716" lon="8.5672774"><ele>42.0</ele><time>2026-04-26T08:15:19.979Z</time></trkpt><trkpt lat="40.8171879" lon="8.567355"><ele>42.0</ele><time>2026-04-26T08:15:20.98Z</time></trkpt><trkpt lat="40.817248" lon="8.5674937"><ele>42.0</ele><time>2026-04-26T08:15:22.982Z</time></trkpt><trkpt lat="40.817308" lon="8.5676247"><ele>42.0</ele><time>2026-04-26T08:15:24.979Z</time></trkpt><trkpt lat="40.8173726" lon="8.5677437"><ele>42.0</ele><time>2026-04-26T08:15:26.98Z</time></trkpt><trkpt lat="40.8174485" lon="8.5678433"><ele>42.0</ele><time>2026-04-26T08:15:28.979Z</time></trkpt><trkpt lat="40.8175343" lon="8.5679434"><ele>42.0</ele><time>2026-04-26T08:15:30.979Z</time></trkpt><trkpt lat="40.817612" lon="8.568053"><ele>42.0</ele><time>2026-04-26T08:15:32.98Z</time></trkpt><trkpt lat="40.8176477" lon="8.5681831"><ele>42.0</ele><time>2026-04-26T08:15:34.978Z</time></trkpt><trkpt lat="40.8176417" lon="8.5683266"><ele>42.2</ele><time>2026-04-26T08:15:36.98Z</time></trkpt><trkpt lat="40.8176235" lon="8.5684924"><ele>42.400000000000006</ele><time>2026-04-26T08:15:38.98Z</time></trkpt><trkpt lat="40.817627" lon="8.568645"><ele>42.599999999999994</ele><time>2026-04-26T08:15:40.978Z</time></trkpt><trkpt lat="40.817655" lon="8.5687726"><ele>42.8</ele><time>2026-04-26T08:15:42.979Z</time></trkpt><trkpt lat="40.8176894" lon="8.5688806"><ele>43.0</ele><time>2026-04-26T08:15:44.979Z</time></trkpt><trkpt lat="40.8177368" lon="8.5689683"><ele>42.66666666666667</ele><time>2026-04-26T08:15:46.979Z</time></trkpt><trkpt lat="40.8177826" lon="8.5690593"><ele>42.333333333333336</ele><time>2026-04-26T08:15:48.978Z</time></trkpt><trkpt lat="40.8178045" lon="8.5691946"><ele>42.0</ele><time>2026-04-26T08:15:50.979Z</time></trkpt><trkpt lat="40.8178018" lon="8.5693579"><ele>41.666666666666664</ele><time>2026-04-26T08:15:52.979Z</time></trkpt><trkpt lat="40.8177826" lon="8.5694393"><ele>41.33333333333333</ele><time>2026-04-26T08:15:53.979Z</time></trkpt><trkpt lat="40.8177562" lon="8.5695197"><ele>41.0</ele><time>2026-04-26T08:15:54.978Z</time></trkpt><trkpt lat="40.817726" lon="8.5696018"><ele>40.99999999999999</ele><time>2026-04-26T08:15:55.979Z</time></trkpt><trkpt lat="40.8176927" lon="8.5696811"><ele>41.0</ele><time>2026-04-26T08:15:56.98Z</time></trkpt><trkpt lat="40.8176603" lon="8.5697597"><ele>41.0</ele><time>2026-04-26T08:15:57.978Z</time></trkpt><trkpt lat="40.8176291" lon="8.5698366"><ele>41.0</ele><time>2026-04-26T08:15:58.98Z</time></trkpt><trkpt lat="40.8175901" lon="8.5699099"><ele>41.0</ele><time>2026-04-26T08:15:59.98Z</time></trkpt><trkpt lat="40.8175405" lon="8.5699809"><ele>40.99999999999999</ele><time>2026-04-26T08:16:00.98Z</time></trkpt><trkpt lat="40.8174876" lon="8.5700488"><ele>41.0</ele><time>2026-04-26T08:16:01.979Z</time></trkpt><trkpt lat="40.8174319" lon="8.5701173"><ele>41.42857142857142</ele><time>2026-04-26T08:16:02.979Z</time></trkpt><trkpt lat="40.8173747" lon="8.570183"><ele>41.857142857142854</ele><time>2026-04-26T08:16:03.979Z</time></trkpt><trkpt lat="40.8173137" lon="8.5702382"><ele>42.285714285714285</ele><time>2026-04-26T08:16:04.978Z</time></trkpt><trkpt lat="40.817252" lon="8.570287"><ele>42.71428571428571</ele><time>2026-04-26T08:16:05.978Z</time></trkpt><trkpt lat="40.8171882" lon="8.5703334"><ele>43.14285714285714</ele><time>2026-04-26T08:16:06.979Z</time></trkpt><trkpt lat="40.817121" lon="8.5703776"><ele>43.57142857142857</ele><time>2026-04-26T08:16:07.98Z</time></trkpt><trkpt lat="40.8170527" lon="8.5704169"><ele>44.0</ele><time>2026-04-26T08:16:08.979Z</time></trkpt><trkpt lat="40.8169862" lon="8.5704582"><ele>44.142857142857146</ele><time>2026-04-26T08:16:09.978Z</time></trkpt><trkpt lat="40.8169193" lon="8.5705029"><ele>44.285714285714285</ele><time>2026-04-26T08:16:10.979Z</time></trkpt><trkpt lat="40.8168509" lon="8.5705439"><ele>44.42857142857143</ele><time>2026-04-26T08:16:11.978Z</time></trkpt><trkpt lat="40.8167894" lon="8.5705876"><ele>44.57142857142857</ele><time>2026-04-26T08:16:12.978Z</time></trkpt><trkpt lat="40.8167338" lon="8.5706374"><ele>44.714285714285715</ele><time>2026-04-26T08:16:13.979Z</time></trkpt><trkpt lat="40.8166797" lon="8.5706972"><ele>44.857142857142854</ele><time>2026-04-26T08:16:14.978Z</time></trkpt><trkpt lat="40.8166281" lon="8.570772"><ele>45.0</ele><time>2026-04-26T08:16:15.978Z</time></trkpt><trkpt lat="40.8165868" lon="8.5708529"><ele>45.5</ele><time>2026-04-26T08:16:16.979Z</time></trkpt><trkpt lat="40.8165542" lon="8.5709269"><ele>46.0</ele><time>2026-04-26T08:16:17.979Z</time></trkpt><trkpt lat="40.8165073" lon="8.5710501"><ele>46.5</ele><time>2026-04-26T08:16:19.98Z</time></trkpt><trkpt lat="40.816462" lon="8.5711745"><ele>47.0</ele><time>2026-04-26T08:16:21.979Z</time></trkpt><trkpt lat="40.8164032" lon="8.5712929"><ele>47.5</ele><time>2026-04-26T08:16:23.978Z</time></trkpt><trkpt lat="40.8163602" lon="8.571357"><ele>48.0</ele><time>2026-04-26T08:16:24.979Z</time></trkpt><trkpt lat="40.8163082" lon="8.5714179"><ele>48.285714285714285</ele><time>2026-04-26T08:16:25.979Z</time></trkpt><trkpt lat="40.8162528" lon="8.5714728"><ele>48.57142857142857</ele><time>2026-04-26T08:16:26.979Z</time></trkpt><trkpt lat="40.8161977" lon="8.5715274"><ele>48.85714285714286</ele><time>2026-04-26T08:16:27.978Z</time></trkpt><trkpt lat="40.8161395" lon="8.5715832"><ele>49.14285714285714</ele><time>2026-04-26T08:16:28.978Z</time></trkpt><trkpt lat="40.8160831" lon="8.571646"><ele>49.42857142857143</ele><time>2026-04-26T08:16:29.979Z</time></trkpt><trkpt lat="40.8160285" lon="8.5717139"><ele>49.714285714285715</ele><time>2026-04-26T08:16:30.979Z</time></trkpt><trkpt lat="40.8159712" lon="8.5717832"><ele>50.0</ele><time>2026-04-26T08:16:31.979Z</time></trkpt><trkpt lat="40.8159141" lon="8.5718535"><ele>50.50000000000001</ele><time>2026-04-26T08:16:32.978Z</time></trkpt><trkpt lat="40.8158595" lon="8.5719266"><ele>51.0</ele><time>2026-04-26T08:16:33.979Z</time></trkpt><trkpt lat="40.8158001" lon="8.5720019"><ele>51.5</ele><time>2026-04-26T08:16:34.978Z</time></trkpt><trkpt lat="40.8157408" lon="8.5720815"><ele>52.0</ele><time>2026-04-26T08:16:35.979Z</time></trkpt><trkpt lat="40.815678" lon="8.572167"><ele>52.50000000000001</ele><time>2026-04-26T08:16:36.979Z</time></trkpt><trkpt lat="40.8156096" lon="8.5722468"><ele>53.0</ele><time>2026-04-26T08:16:37.979Z</time></trkpt><trkpt lat="40.8155356" lon="8.5723232"><ele>53.16666666666667</ele><time>2026-04-26T08:16:38.979Z</time></trkpt><trkpt lat="40.8154669" lon="8.5723894"><ele>53.333333333333336</ele><time>2026-04-26T08:16:39.98Z</time></trkpt><trkpt lat="40.815407" lon="8.5724529"><ele>53.5</ele><time>2026-04-26T08:16:40.979Z</time></trkpt><trkpt lat="40.8153588" lon="8.5725245"><ele>53.66666666666667</ele><time>2026-04-26T08:16:41.979Z</time></trkpt><trkpt lat="40.8153214" lon="8.5726017"><ele>53.833333333333336</ele><time>2026-04-26T08:16:42.978Z</time></trkpt><trkpt lat="40.8153344" lon="8.5727582"><ele>54.0</ele><time>2026-04-26T08:16:44.98Z</time></trkpt><trkpt lat="40.8153932" lon="8.5728219"><ele>54.833333333333336</ele><time>2026-04-26T08:16:45.979Z</time></trkpt><trkpt lat="40.8154631" lon="8.5728736"><ele>55.66666666666667</ele><time>2026-04-26T08:16:46.979Z</time></trkpt><trkpt lat="40.8155382" lon="8.572917"><ele>56.5</ele><time>2026-04-26T08:16:47.98Z</time></trkpt><trkpt lat="40.8156142" lon="8.5729656"><ele>57.333333333333336</ele><time>2026-04-26T08:16:48.979Z</time></trkpt><trkpt lat="40.8156884" lon="8.5730256"><ele>58.16666666666667</ele><time>2026-04-26T08:16:49.979Z</time></trkpt><trkpt lat="40.8157537" lon="8.573083"><ele>59.0</ele><time>2026-04-26T08:16:50.978Z</time></trkpt><trkpt lat="40.8158159" lon="8.5731416"><ele>59.00000000000001</ele><time>2026-04-26T08:16:51.978Z</time></trkpt><trkpt lat="40.8158769" lon="8.5732085"><ele>59.0</ele><time>2026-04-26T08:16:52.979Z</time></trkpt><trkpt lat="40.8159357" lon="8.5732839"><ele>59.0</ele><time>2026-04-26T08:16:53.979Z</time></trkpt><trkpt lat="40.8159895" lon="8.5733545"><ele>59.0</ele><time>2026-04-26T08:16:54.979Z</time></trkpt><trkpt lat="40.8160387" lon="8.573423"><ele>59.00000000000001</ele><time>2026-04-26T08:16:55.978Z</time></trkpt><trkpt lat="40.8160862" lon="8.573498"><ele>59.0</ele><time>2026-04-26T08:16:56.978Z</time></trkpt><trkpt lat="40.8161325" lon="8.5735821"><ele>58.333333333333336</ele><time>2026-04-26T08:16:57.98Z</time></trkpt><trkpt lat="40.8161787" lon="8.573675"><ele>57.66666666666667</ele><time>2026-04-26T08:16:58.98Z</time></trkpt><trkpt lat="40.8162204" lon="8.5737705"><ele>57.0</ele><time>2026-04-26T08:16:59.979Z</time></trkpt><trkpt lat="40.8162569" lon="8.5738607"><ele>56.33333333333333</ele><time>2026-04-26T08:17:00.979Z</time></trkpt><trkpt lat="40.8162868" lon="8.5739468"><ele>55.666666666666664</ele><time>2026-04-26T08:17:01.979Z</time></trkpt><trkpt lat="40.8163091" lon="8.5740352"><ele>55.0</ele><time>2026-04-26T08:17:02.981Z</time></trkpt><trkpt lat="40.8163295" lon="8.5741287"><ele>54.99999999999999</ele><time>2026-04-26T08:17:03.978Z</time></trkpt><trkpt lat="40.8163514" lon="8.5742286"><ele>55.0</ele><time>2026-04-26T08:17:04.979Z</time></trkpt><trkpt lat="40.8163655" lon="8.5743335"><ele>55.0</ele><time>2026-04-26T08:17:05.979Z</time></trkpt><trkpt lat="40.8163817" lon="8.5744457"><ele>55.0</ele><time>2026-04-26T08:17:06.98Z</time></trkpt><trkpt lat="40.8163977" lon="8.5745599"><ele>54.99999999999999</ele><time>2026-04-26T08:17:07.98Z</time></trkpt><trkpt lat="40.8164165" lon="8.5746817"><ele>55.0</ele><time>2026-04-26T08:17:08.979Z</time></trkpt><trkpt lat="40.8164363" lon="8.5748093"><ele>55.6</ele><time>2026-04-26T08:17:09.979Z</time></trkpt><trkpt lat="40.816456" lon="8.5749437"><ele>56.2</ele><time>2026-04-26T08:17:10.979Z</time></trkpt><trkpt lat="40.8164772" lon="8.5750827"><ele>56.8</ele><time>2026-04-26T08:17:11.981Z</time></trkpt><trkpt lat="40.8164972" lon="8.5752234"><ele>57.4</ele><time>2026-04-26T08:17:12.98Z</time></trkpt><trkpt lat="40.8165157" lon="8.5753639"><ele>58.0</ele><time>2026-04-26T08:17:13.978Z</time></trkpt><trkpt lat="40.8165299" lon="8.5755033"><ele>58.0</ele><time>2026-04-26T08:17:14.981Z</time></trkpt><trkpt lat="40.8165419" lon="8.5756411"><ele>58.0</ele><time>2026-04-26T08:17:15.979Z</time></trkpt><trkpt lat="40.8165557" lon="8.5757774"><ele>58.0</ele><time>2026-04-26T08:17:16.978Z</time></trkpt><trkpt lat="40.8165788" lon="8.5759154"><ele>58.0</ele><time>2026-04-26T08:17:17.978Z</time></trkpt><trkpt lat="40.816608" lon="8.57605"><ele>58.0</ele><time>2026-04-26T08:17:18.978Z</time></trkpt><trkpt lat="40.8166407" lon="8.5761837"><ele>58.4</ele><time>2026-04-26T08:17:19.979Z</time></trkpt><trkpt lat="40.8166714" lon="8.5763237"><ele>58.8</ele><time>2026-04-26T08:17:20.98Z</time></trkpt><trkpt lat="40.8166955" lon="8.5764608"><ele>59.2</ele><time>2026-04-26T08:17:21.979Z</time></trkpt><trkpt lat="40.8167164" lon="8.5765945"><ele>59.6</ele><time>2026-04-26T08:17:22.98Z</time></trkpt><trkpt lat="40.81674" lon="8.576729"><ele>60.0</ele><time>2026-04-26T08:17:23.981Z</time></trkpt><trkpt lat="40.8167704" lon="8.5768625"><ele>60.0</ele><time>2026-04-26T08:17:24.981Z</time></trkpt><trkpt lat="40.8168057" lon="8.5769981"><ele>60.0</ele><time>2026-04-26T08:17:25.978Z</time></trkpt><trkpt lat="40.8168466" lon="8.5771363"><ele>60.0</ele><time>2026-04-26T08:17:26.979Z</time></trkpt><trkpt lat="40.8168892" lon="8.5772795"><ele>60.0</ele><time>2026-04-26T08:17:27.979Z</time></trkpt><trkpt lat="40.8169249" lon="8.5774211"><ele>60.0</ele><time>2026-04-26T08:17:28.978Z</time></trkpt><trkpt lat="40.8169586" lon="8.5775633"><ele>60.0</ele><time>2026-04-26T08:17:29.98Z</time></trkpt><trkpt lat="40.816994" lon="8.5777057"><ele>60.0</ele><time>2026-04-26T08:17:30.978Z</time></trkpt><trkpt lat="40.8170303" lon="8.577851"><ele>60.0</ele><time>2026-04-26T08:17:31.979Z</time></trkpt><trkpt lat="40.8170634" lon="8.5779988"><ele>60.0</ele><time>2026-04-26T08:17:32.979Z</time></trkpt><trkpt lat="40.8170969" lon="8.5781499"><ele>60.0</ele><time>2026-04-26T08:17:33.979Z</time></trkpt><trkpt lat="40.817131" lon="8.5783021"><ele>60.0</ele><time>2026-04-26T08:17:34.979Z</time></trkpt><trkpt lat="40.8171607" lon="8.5784561"><ele>60.0</ele><time>2026-04-26T08:17:35.978Z</time></trkpt><trkpt lat="40.8171912" lon="8.5786112"><ele>60.75</ele><time>2026-04-26T08:17:36.979Z</time></trkpt><trkpt lat="40.8172256" lon="8.5787681"><ele>61.5</ele><time>2026-04-26T08:17:37.979Z</time></trkpt><trkpt lat="40.8172648" lon="8.5789203"><ele>62.25</ele><time>2026-04-26T08:17:38.982Z</time></trkpt><trkpt lat="40.8173059" lon="8.5790656"><ele>63.0</ele><time>2026-04-26T08:17:39.979Z</time></trkpt><trkpt lat="40.8173453" lon="8.5792016"><ele>63.0</ele><time>2026-04-26T08:17:40.98Z</time></trkpt><trkpt lat="40.8173861" lon="8.579331"><ele>63.0</ele><time>2026-04-26T08:17:41.978Z</time></trkpt><trkpt lat="40.8174213" lon="8.5794578"><ele>63.0</ele><time>2026-04-26T08:17:42.98Z</time></trkpt><trkpt lat="40.8174525" lon="8.5795916"><ele>63.0</ele><time>2026-04-26T08:17:43.981Z</time></trkpt><trkpt lat="40.817482" lon="8.5797281"><ele>63.0</ele><time>2026-04-26T08:17:44.979Z</time></trkpt><trkpt lat="40.8175077" lon="8.5798679"><ele>63.0</ele><time>2026-04-26T08:17:45.979Z</time></trkpt><trkpt lat="40.8175343" lon="8.5800089"><ele>63.0</ele><time>2026-04-26T08:17:46.978Z</time></trkpt><trkpt lat="40.8175655" lon="8.5801467"><ele>63.0</ele><time>2026-04-26T08:17:47.978Z</time></trkpt><trkpt lat="40.8175936" lon="8.5802773"><ele>63.0</ele><time>2026-04-26T08:17:48.981Z</time></trkpt><trkpt lat="40.8176217" lon="8.5804009"><ele>63.0</ele><time>2026-04-26T08:17:49.979Z</time></trkpt><trkpt lat="40.8176459" lon="8.5805186"><ele>61.2</ele><time>2026-04-26T08:17:50.98Z</time></trkpt><trkpt lat="40.8176724" lon="8.580636"><ele>59.4</ele><time>2026-04-26T08:17:51.979Z</time></trkpt><trkpt lat="40.8177018" lon="8.5807531"><ele>57.60000000000001</ele><time>2026-04-26T08:17:52.979Z</time></trkpt><trkpt lat="40.8177309" lon="8.580866"><ele>55.800000000000004</ele><time>2026-04-26T08:17:53.98Z</time></trkpt><trkpt lat="40.8177695" lon="8.5809753"><ele>54.0</ele><time>2026-04-26T08:17:54.978Z</time></trkpt><trkpt lat="40.8178055" lon="8.5810763"><ele>54.0</ele><time>2026-04-26T08:17:55.978Z</time></trkpt><trkpt lat="40.8178374" lon="8.5811716"><ele>54.0</ele><time>2026-04-26T08:17:56.98Z</time></trkpt><trkpt lat="40.8178703" lon="8.5812617"><ele>54.0</ele><time>2026-04-26T08:17:57.979Z</time></trkpt><trkpt lat="40.8179081" lon="8.5813522"><ele>54.0</ele><time>2026-04-26T08:17:58.979Z</time></trkpt><trkpt lat="40.8179473" lon="8.5814477"><ele>54.0</ele><time>2026-04-26T08:17:59.981Z</time></trkpt><trkpt lat="40.8179925" lon="8.58155"><ele>54.0</ele><time>2026-04-26T08:18:00.982Z</time></trkpt><trkpt lat="40.8180419" lon="8.5816611"><ele>54.0</ele><time>2026-04-26T08:18:01.983Z</time></trkpt><trkpt lat="40.8180955" lon="8.5817781"><ele>54.00000000000001</ele><time>2026-04-26T08:18:02.978Z</time></trkpt><trkpt lat="40.8181513" lon="8.5818991"><ele>54.00000000000001</ele><time>2026-04-26T08:18:03.978Z</time></trkpt><trkpt lat="40.8182057" lon="8.5820213"><ele>54.0</ele><time>2026-04-26T08:18:04.979Z</time></trkpt><trkpt lat="40.818259" lon="8.5821399"><ele>54.0</ele><time>2026-04-26T08:18:05.98Z</time></trkpt><trkpt lat="40.8183123" lon="8.5822497"><ele>54.400000000000006</ele><time>2026-04-26T08:18:06.979Z</time></trkpt><trkpt lat="40.8183687" lon="8.5823497"><ele>54.800000000000004</ele><time>2026-04-26T08:18:07.981Z</time></trkpt><trkpt lat="40.8184325" lon="8.5824394"><ele>55.199999999999996</ele><time>2026-04-26T08:18:08.979Z</time></trkpt><trkpt lat="40.8184984" lon="8.5825286"><ele>55.599999999999994</ele><time>2026-04-26T08:18:09.978Z</time></trkpt><trkpt lat="40.8185626" lon="8.5826146"><ele>56.0</ele><time>2026-04-26T08:18:10.979Z</time></trkpt><trkpt lat="40.8186241" lon="8.5826967"><ele>55.0</ele><time>2026-04-26T08:18:11.982Z</time></trkpt><trkpt lat="40.8186812" lon="8.5827826"><ele>53.99999999999999</ele><time>2026-04-26T08:18:12.98Z</time></trkpt><trkpt lat="40.8187371" lon="8.5828783"><ele>53.0</ele><time>2026-04-26T08:18:13.981Z</time></trkpt><trkpt lat="40.8187919" lon="8.5829748"><ele>52.0</ele><time>2026-04-26T08:18:14.981Z</time></trkpt><trkpt lat="40.8188434" lon="8.5830765"><ele>51.0</ele><time>2026-04-26T08:18:15.979Z</time></trkpt><trkpt lat="40.8188952" lon="8.5831798"><ele>51.0</ele><time>2026-04-26T08:18:16.979Z</time></trkpt><trkpt lat="40.8189482" lon="8.5832812"><ele>51.0</ele><time>2026-04-26T08:18:17.979Z</time></trkpt><trkpt lat="40.8190059" lon="8.5833729"><ele>51.0</ele><time>2026-04-26T08:18:18.979Z</time></trkpt><trkpt lat="40.8190635" lon="8.5834616"><ele>51.0</ele><time>2026-04-26T08:18:19.977Z</time></trkpt><trkpt lat="40.8191216" lon="8.5835461"><ele>51.0</ele><time>2026-04-26T08:18:20.978Z</time></trkpt><trkpt lat="40.819181" lon="8.5836237"><ele>51.0</ele><time>2026-04-26T08:18:21.979Z</time></trkpt><trkpt lat="40.8192371" lon="8.583692"><ele>51.199999999999996</ele><time>2026-04-26T08:18:22.979Z</time></trkpt><trkpt lat="40.8192891" lon="8.5837545"><ele>51.4</ele><time>2026-04-26T08:18:23.979Z</time></trkpt><trkpt lat="40.8193636" lon="8.5838764"><ele>51.6</ele><time>2026-04-26T08:18:25.978Z</time></trkpt><trkpt lat="40.8193813" lon="8.5840158"><ele>51.8</ele><time>2026-04-26T08:18:27.979Z</time></trkpt><trkpt lat="40.8193199" lon="8.584172"><ele>52.0</ele><time>2026-04-26T08:18:29.98Z</time></trkpt><trkpt lat="40.8192745" lon="8.5842516"><ele>52.0</ele><time>2026-04-26T08:18:30.981Z</time></trkpt><trkpt lat="40.8192268" lon="8.5843276"><ele>52.0</ele><time>2026-04-26T08:18:31.981Z</time></trkpt><trkpt lat="40.819188" lon="8.5843954"><ele>52.0</ele><time>2026-04-26T08:18:32.98Z</time></trkpt><trkpt lat="40.8191365" lon="8.5845212"><ele>52.0</ele><time>2026-04-26T08:18:34.981Z</time></trkpt><trkpt lat="40.819147" lon="8.5846563"><ele>52.0</ele><time>2026-04-26T08:18:36.982Z</time></trkpt><trkpt lat="40.8192198" lon="8.5847741"><ele>52.166666666666664</ele><time>2026-04-26T08:18:38.979Z</time></trkpt><trkpt lat="40.8192669" lon="8.58484"><ele>52.33333333333333</ele><time>2026-04-26T08:18:39.979Z</time></trkpt><trkpt lat="40.8193141" lon="8.5849119"><ele>52.5</ele><time>2026-04-26T08:18:40.978Z</time></trkpt><trkpt lat="40.8193576" lon="8.5849821"><ele>52.66666666666667</ele><time>2026-04-26T08:18:41.978Z</time></trkpt><trkpt lat="40.8193981" lon="8.5850489"><ele>52.833333333333336</ele><time>2026-04-26T08:18:42.978Z</time></trkpt><trkpt lat="40.8194566" lon="8.5851539"><ele>53.0</ele><time>2026-04-26T08:18:44.979Z</time></trkpt><trkpt lat="40.8194625" lon="8.5852595"><ele>53.16666666666667</ele><time>2026-04-26T08:18:48.978Z</time></trkpt><trkpt lat="40.8194114" lon="8.5853276"><ele>53.333333333333336</ele><time>2026-04-26T08:18:50.981Z</time></trkpt><trkpt lat="40.8193064" lon="8.5854281"><ele>53.5</ele><time>2026-04-26T08:18:52.982Z</time></trkpt><trkpt lat="40.8192536" lon="8.5854893"><ele>53.66666666666667</ele><time>2026-04-26T08:18:53.981Z</time></trkpt><trkpt lat="40.8192039" lon="8.585559"><ele>53.833333333333336</ele><time>2026-04-26T08:18:54.981Z</time></trkpt><trkpt lat="40.8191541" lon="8.5856281"><ele>54.0</ele><time>2026-04-26T08:18:55.979Z</time></trkpt><trkpt lat="40.8191058" lon="8.5856938"><ele>54.0</ele><time>2026-04-26T08:18:56.98Z</time></trkpt><trkpt lat="40.8190542" lon="8.5857595"><ele>54.0</ele><time>2026-04-26T08:18:57.98Z</time></trkpt><trkpt lat="40.819001" lon="8.5858182"><ele>54.0</ele><time>2026-04-26T08:18:58.98Z</time></trkpt><trkpt lat="40.8189565" lon="8.5858893"><ele>54.0</ele><time>2026-04-26T08:18:59.98Z</time></trkpt><trkpt lat="40.8189187" lon="8.5859599"><ele>54.0</ele><time>2026-04-26T08:19:00.981Z</time></trkpt><trkpt lat="40.8188963" lon="8.5861226"><ele>54.0</ele><time>2026-04-26T08:19:02.982Z</time></trkpt><trkpt lat="40.8189238" lon="8.5862283"><ele>54.166666666666664</ele><time>2026-04-26T08:19:03.981Z</time></trkpt><trkpt lat="40.8189644" lon="8.586334"><ele>54.33333333333333</ele><time>2026-04-26T08:19:04.981Z</time></trkpt><trkpt lat="40.8189878" lon="8.5864233"><ele>54.5</ele><time>2026-04-26T08:19:05.981Z</time></trkpt><trkpt lat="40.8190134" lon="8.5865129"><ele>54.666666666666664</ele><time>2026-04-26T08:19:06.98Z</time></trkpt><trkpt lat="40.8190446" lon="8.5866531"><ele>54.83333333333333</ele><time>2026-04-26T08:19:08.978Z</time></trkpt><trkpt lat="40.8190792" lon="8.5867784"><ele>55.0</ele><time>2026-04-26T08:19:10.979Z</time></trkpt><trkpt lat="40.8191172" lon="8.5869085"><ele>54.99999999999999</ele><time>2026-04-26T08:19:12.98Z</time></trkpt><trkpt lat="40.8191368" lon="8.58699"><ele>55.0</ele><time>2026-04-26T08:19:13.982Z</time></trkpt><trkpt lat="40.8191568" lon="8.5870831"><ele>55.0</ele><time>2026-04-26T08:19:14.979Z</time></trkpt><trkpt lat="40.8191761" lon="8.5871854"><ele>55.0</ele><time>2026-04-26T08:19:15.979Z</time></trkpt><trkpt lat="40.819197" lon="8.5872934"><ele>54.99999999999999</ele><time>2026-04-26T08:19:16.98Z</time></trkpt><trkpt lat="40.8192252" lon="8.5874068"><ele>55.0</ele><time>2026-04-26T08:19:17.979Z</time></trkpt><trkpt lat="40.819255" lon="8.5875257"><ele>55.2</ele><time>2026-04-26T08:19:18.979Z</time></trkpt><trkpt lat="40.8192883" lon="8.5876502"><ele>55.4</ele><time>2026-04-26T08:19:19.979Z</time></trkpt><trkpt lat="40.8193212" lon="8.5877791"><ele>55.599999999999994</ele><time>2026-04-26T08:19:20.981Z</time></trkpt><trkpt lat="40.8193523" lon="8.5879074"><ele>55.8</ele><time>2026-04-26T08:19:21.981Z</time></trkpt><trkpt lat="40.8193862" lon="8.5880313"><ele>56.0</ele><time>2026-04-26T08:19:22.981Z</time></trkpt><trkpt lat="40.8194228" lon="8.5881501"><ele>55.333333333333336</ele><time>2026-04-26T08:19:23.98Z</time></trkpt><trkpt lat="40.8194534" lon="8.5882691"><ele>54.66666666666667</ele><time>2026-04-26T08:19:24.98Z</time></trkpt><trkpt lat="40.8194771" lon="8.5883839"><ele>54.0</ele><time>2026-04-26T08:19:25.979Z</time></trkpt><trkpt lat="40.8194983" lon="8.5884964"><ele>53.33333333333333</ele><time>2026-04-26T08:19:26.978Z</time></trkpt><trkpt lat="40.81952" lon="8.588605"><ele>52.666666666666664</ele><time>2026-04-26T08:19:27.979Z</time></trkpt><trkpt lat="40.819544" lon="8.5887088"><ele>52.0</ele><time>2026-04-26T08:19:28.98Z</time></trkpt><trkpt lat="40.8195692" lon="8.5888105"><ele>51.99999999999999</ele><time>2026-04-26T08:19:29.979Z</time></trkpt><trkpt lat="40.8195937" lon="8.5889116"><ele>52.0</ele><time>2026-04-26T08:19:30.978Z</time></trkpt><trkpt lat="40.8196181" lon="8.5890149"><ele>52.0</ele><time>2026-04-26T08:19:31.978Z</time></trkpt><trkpt lat="40.8196398" lon="8.5891184"><ele>52.0</ele><time>2026-04-26T08:19:32.979Z</time></trkpt><trkpt lat="40.8196599" lon="8.5892224"><ele>51.99999999999999</ele><time>2026-04-26T08:19:33.978Z</time></trkpt><trkpt lat="40.8196799" lon="8.5893277"><ele>52.0</ele><time>2026-04-26T08:19:34.98Z</time></trkpt><trkpt lat="40.8196965" lon="8.5894338"><ele>52.0</ele><time>2026-04-26T08:19:35.978Z</time></trkpt><trkpt lat="40.819716" lon="8.5895371"><ele>52.0</ele><time>2026-04-26T08:19:36.979Z</time></trkpt><trkpt lat="40.819738" lon="8.589638"><ele>52.0</ele><time>2026-04-26T08:19:37.978Z</time></trkpt><trkpt lat="40.8197576" lon="8.5897331"><ele>52.0</ele><time>2026-04-26T08:19:38.98Z</time></trkpt><trkpt lat="40.8197727" lon="8.5898199"><ele>52.0</ele><time>2026-04-26T08:19:39.981Z</time></trkpt><trkpt lat="40.8197919" lon="8.5899061"><ele>52.0</ele><time>2026-04-26T08:19:40.981Z</time></trkpt><trkpt lat="40.8198148" lon="8.5899994"><ele>52.0</ele><time>2026-04-26T08:19:41.98Z</time></trkpt><trkpt lat="40.8198417" lon="8.5901002"><ele>51.99999999999999</ele><time>2026-04-26T08:19:42.98Z</time></trkpt><trkpt lat="40.8198655" lon="8.5902048"><ele>52.0</ele><time>2026-04-26T08:19:43.981Z</time></trkpt><trkpt lat="40.8198895" lon="8.5903054"><ele>52.0</ele><time>2026-04-26T08:19:44.98Z</time></trkpt><trkpt lat="40.8199114" lon="8.5903993"><ele>52.0</ele><time>2026-04-26T08:19:45.981Z</time></trkpt><trkpt lat="40.8199302" lon="8.5904852"><ele>51.99999999999999</ele><time>2026-04-26T08:19:46.979Z</time></trkpt><trkpt lat="40.8199569" lon="8.5906333"><ele>52.0</ele><time>2026-04-26T08:19:48.98Z</time></trkpt><trkpt lat="40.8199854" lon="8.5907599"><ele>52.2</ele><time>2026-04-26T08:19:50.979Z</time></trkpt><trkpt lat="40.8200127" lon="8.5908868"><ele>52.400000000000006</ele><time>2026-04-26T08:19:52.978Z</time></trkpt><trkpt lat="40.8200403" lon="8.5910112"><ele>52.599999999999994</ele><time>2026-04-26T08:19:54.979Z</time></trkpt><trkpt lat="40.8200677" lon="8.5911391"><ele>52.8</ele><time>2026-04-26T08:19:56.979Z</time></trkpt><trkpt lat="40.8200894" lon="8.5912553"><ele>53.0</ele><time>2026-04-26T08:19:58.979Z</time></trkpt><trkpt lat="40.8200848" lon="8.5913413"><ele>53.2</ele><time>2026-04-26T08:20:05.979Z</time></trkpt><trkpt lat="40.8199904" lon="8.5913335"><ele>53.4</ele><time>2026-04-26T08:20:08.978Z</time></trkpt><trkpt lat="40.8199141" lon="8.5912969"><ele>53.60000000000001</ele><time>2026-04-26T08:20:09.978Z</time></trkpt><trkpt lat="40.8198103" lon="8.5912547"><ele>53.800000000000004</ele><time>2026-04-26T08:20:10.979Z</time></trkpt><trkpt lat="40.8197111" lon="8.5912134"><ele>54.0</ele><time>2026-04-26T08:20:11.978Z</time></trkpt><trkpt lat="40.8196184" lon="8.5911769"><ele>54.0</ele><time>2026-04-26T08:20:12.977Z</time></trkpt><trkpt lat="40.8195325" lon="8.5911472"><ele>54.0</ele><time>2026-04-26T08:20:13.979Z</time></trkpt><trkpt lat="40.8194586" lon="8.5911167"><ele>54.0</ele><time>2026-04-26T08:20:14.979Z</time></trkpt><trkpt lat="40.8193664" lon="8.5910795"><ele>54.0</ele><time>2026-04-26T08:20:16.978Z</time></trkpt><trkpt lat="40.8193034" lon="8.591065"><ele>54.0</ele><time>2026-04-26T08:20:19.979Z</time></trkpt><trkpt lat="40.819301" lon="8.5911661"><ele>54.0</ele><time>2026-04-26T08:20:24.979Z</time></trkpt><trkpt lat="40.8193576" lon="8.5912539"><ele>54.0</ele><time>2026-04-26T08:20:27.978Z</time></trkpt><trkpt lat="40.8194155" lon="8.5913363"><ele>54.0</ele><time>2026-04-26T08:20:29.979Z</time></trkpt><trkpt lat="40.8194912" lon="8.5914632"><ele>54.0</ele><time>2026-04-26T08:20:31.978Z</time></trkpt><trkpt lat="40.8195314" lon="8.5915371"><ele>54.0</ele><time>2026-04-26T08:20:32.98Z</time></trkpt><trkpt lat="40.8195758" lon="8.5916117"><ele>54.0</ele><time>2026-04-26T08:20:33.978Z</time></trkpt><trkpt lat="40.8196247" lon="8.5916932"><ele>54.0</ele><time>2026-04-26T08:20:34.979Z</time></trkpt><trkpt lat="40.8196774" lon="8.5917784"><ele>54.0</ele><time>2026-04-26T08:20:35.979Z</time></trkpt><trkpt lat="40.8197254" lon="8.5918658"><ele>54.0</ele><time>2026-04-26T08:20:36.979Z</time></trkpt><trkpt lat="40.819769" lon="8.5919531"><ele>54.0</ele><time>2026-04-26T08:20:37.98Z</time></trkpt><trkpt lat="40.8198161" lon="8.5920436"><ele>54.0</ele><time>2026-04-26T08:20:38.979Z</time></trkpt><trkpt lat="40.8198711" lon="8.5921335"><ele>54.0</ele><time>2026-04-26T08:20:39.979Z</time></trkpt><trkpt lat="40.8199267" lon="8.5922197"><ele>54.0</ele><time>2026-04-26T08:20:40.978Z</time></trkpt><trkpt lat="40.8199805" lon="8.5923002"><ele>54.333333333333336</ele><time>2026-04-26T08:20:41.978Z</time></trkpt><trkpt lat="40.820033" lon="8.5923687"><ele>54.66666666666667</ele><time>2026-04-26T08:20:42.978Z</time></trkpt><trkpt lat="40.8200846" lon="8.5924255"><ele>55.0</ele><time>2026-04-26T08:20:43.979Z</time></trkpt><trkpt lat="40.8201795" lon="8.5925275"><ele>55.333333333333336</ele><time>2026-04-26T08:20:45.978Z</time></trkpt><trkpt lat="40.8202338" lon="8.5925808"><ele>55.66666666666667</ele><time>2026-04-26T08:20:46.98Z</time></trkpt><trkpt lat="40.8202948" lon="8.59263"><ele>56.0</ele><time>2026-04-26T08:20:47.979Z</time></trkpt><trkpt lat="40.8203622" lon="8.5926697"><ele>56.16666666666667</ele><time>2026-04-26T08:20:48.981Z</time></trkpt><trkpt lat="40.8204288" lon="8.5927098"><ele>56.333333333333336</ele><time>2026-04-26T08:20:49.98Z</time></trkpt><trkpt lat="40.8204967" lon="8.5927462"><ele>56.5</ele><time>2026-04-26T08:20:50.978Z</time></trkpt><trkpt lat="40.8205637" lon="8.5927776"><ele>56.66666666666667</ele><time>2026-04-26T08:20:51.978Z</time></trkpt><trkpt lat="40.8206243" lon="8.5928061"><ele>56.833333333333336</ele><time>2026-04-26T08:20:52.979Z</time></trkpt><trkpt lat="40.8207187" lon="8.5928755"><ele>57.0</ele><time>2026-04-26T08:20:54.979Z</time></trkpt><trkpt lat="40.8208083" lon="8.5929576"><ele>57.2</ele><time>2026-04-26T08:20:56.979Z</time></trkpt><trkpt lat="40.8209034" lon="8.5930481"><ele>57.400000000000006</ele><time>2026-04-26T08:20:58.978Z</time></trkpt><trkpt lat="40.8209978" lon="8.5931309"><ele>57.599999999999994</ele><time>2026-04-26T08:21:00.979Z</time></trkpt><trkpt lat="40.8210901" lon="8.593197"><ele>57.8</ele><time>2026-04-26T08:21:02.978Z</time></trkpt><trkpt lat="40.8211823" lon="8.5932469"><ele>58.0</ele><time>2026-04-26T08:21:04.979Z</time></trkpt><trkpt lat="40.8212746" lon="8.5932678"><ele>57.0</ele><time>2026-04-26T08:21:06.979Z</time></trkpt><trkpt lat="40.821374" lon="8.5932753"><ele>56.0</ele><time>2026-04-26T08:21:08.978Z</time></trkpt><trkpt lat="40.8214747" lon="8.5932942"><ele>55.0</ele><time>2026-04-26T08:21:10.978Z</time></trkpt><trkpt lat="40.8215799" lon="8.59332"><ele>54.0</ele><time>2026-04-26T08:21:12.979Z</time></trkpt><trkpt lat="40.8216835" lon="8.593343"><ele>53.0</ele><time>2026-04-26T08:21:14.978Z</time></trkpt><trkpt lat="40.8217847" lon="8.59337"><ele>52.2</ele><time>2026-04-26T08:21:16.977Z</time></trkpt><trkpt lat="40.8218863" lon="8.5933994"><ele>51.4</ele><time>2026-04-26T08:21:18.978Z</time></trkpt><trkpt lat="40.8219869" lon="8.5934295"><ele>50.6</ele><time>2026-04-26T08:21:20.981Z</time></trkpt><trkpt lat="40.8220779" lon="8.5934612"><ele>49.800000000000004</ele><time>2026-04-26T08:21:22.978Z</time></trkpt><trkpt lat="40.8221741" lon="8.5934883"><ele>49.0</ele><time>2026-04-26T08:21:24.979Z</time></trkpt><trkpt lat="40.8222627" lon="8.5935246"><ele>49.0</ele><time>2026-04-26T08:21:26.978Z</time></trkpt><trkpt lat="40.8223481" lon="8.5935591"><ele>49.0</ele><time>2026-04-26T08:21:28.98Z</time></trkpt><trkpt lat="40.8224382" lon="8.5935832"><ele>49.0</ele><time>2026-04-26T08:21:30.979Z</time></trkpt><trkpt lat="40.8225275" lon="8.5935913"><ele>49.0</ele><time>2026-04-26T08:21:32.978Z</time></trkpt><trkpt lat="40.8226163" lon="8.5935862"><ele>49.0</ele><time>2026-04-26T08:21:34.979Z</time></trkpt><trkpt lat="40.8227077" lon="8.5935845"><ele>47.800000000000004</ele><time>2026-04-26T08:21:36.979Z</time></trkpt><trkpt lat="40.8228041" lon="8.5935823"><ele>46.6</ele><time>2026-04-26T08:21:38.979Z</time></trkpt><trkpt lat="40.8228968" lon="8.5935759"><ele>45.4</ele><time>2026-04-26T08:21:40.978Z</time></trkpt><trkpt lat="40.8229886" lon="8.5935562"><ele>44.2</ele><time>2026-04-26T08:21:42.978Z</time></trkpt><trkpt lat="40.8230773" lon="8.5935501"><ele>43.0</ele><time>2026-04-26T08:21:44.978Z</time></trkpt><trkpt lat="40.8231602" lon="8.593562"><ele>43.0</ele><time>2026-04-26T08:21:46.977Z</time></trkpt><trkpt lat="40.8232263" lon="8.5935746"><ele>43.0</ele><time>2026-04-26T08:21:48.979Z</time></trkpt><trkpt lat="40.8232942" lon="8.5936148"><ele>43.0</ele><time>2026-04-26T08:21:52.98Z</time></trkpt><trkpt lat="40.8233002" lon="8.5937113"><ele>43.0</ele><time>2026-04-26T08:21:54.98Z</time></trkpt><trkpt lat="40.8232526" lon="8.5938743"><ele>43.0</ele><time>2026-04-26T08:21:56.98Z</time></trkpt><trkpt lat="40.8232146" lon="8.5939611"><ele>43.0</ele><time>2026-04-26T08:21:57.98Z</time></trkpt><trkpt lat="40.8231631" lon="8.5940504"><ele>43.333333333333336</ele><time>2026-04-26T08:21:58.979Z</time></trkpt><trkpt lat="40.8231074" lon="8.5941379"><ele>43.66666666666667</ele><time>2026-04-26T08:21:59.978Z</time></trkpt><trkpt lat="40.8230521" lon="8.5942256"><ele>44.0</ele><time>2026-04-26T08:22:00.978Z</time></trkpt><trkpt lat="40.8229997" lon="8.5943163"><ele>44.333333333333336</ele><time>2026-04-26T08:22:01.979Z</time></trkpt><trkpt lat="40.822947" lon="8.5944116"><ele>44.666666666666664</ele><time>2026-04-26T08:22:02.98Z</time></trkpt><trkpt lat="40.8228934" lon="8.5945057"><ele>45.0</ele><time>2026-04-26T08:22:03.979Z</time></trkpt><trkpt lat="40.8228384" lon="8.5946011"><ele>45.6</ele><time>2026-04-26T08:22:04.979Z</time></trkpt><trkpt lat="40.8227849" lon="8.5946979"><ele>46.2</ele><time>2026-04-26T08:22:05.978Z</time></trkpt><trkpt lat="40.8227299" lon="8.5947945"><ele>46.8</ele><time>2026-04-26T08:22:06.978Z</time></trkpt><trkpt lat="40.8226734" lon="8.5948923"><ele>47.4</ele><time>2026-04-26T08:22:07.978Z</time></trkpt><trkpt lat="40.8226181" lon="8.5949849"><ele>48.0</ele><time>2026-04-26T08:22:08.98Z</time></trkpt><trkpt lat="40.8225637" lon="8.595076"><ele>48.0</ele><time>2026-04-26T08:22:09.979Z</time></trkpt><trkpt lat="40.8225097" lon="8.5951651"><ele>48.0</ele><time>2026-04-26T08:22:10.979Z</time></trkpt><trkpt lat="40.8224542" lon="8.5952572"><ele>48.0</ele><time>2026-04-26T08:22:11.979Z</time></trkpt><trkpt lat="40.8223984" lon="8.5953512"><ele>48.0</ele><time>2026-04-26T08:22:12.978Z</time></trkpt><trkpt lat="40.8223396" lon="8.5954426"><ele>48.0</ele><time>2026-04-26T08:22:13.979Z</time></trkpt><trkpt lat="40.8222788" lon="8.5955299"><ele>48.0</ele><time>2026-04-26T08:22:14.98Z</time></trkpt><trkpt lat="40.8222145" lon="8.5956257"><ele>48.0</ele><time>2026-04-26T08:22:15.978Z</time></trkpt><trkpt lat="40.8221457" lon="8.5957259"><ele>48.0</ele><time>2026-04-26T08:22:16.979Z</time></trkpt><trkpt lat="40.8220715" lon="8.595828"><ele>48.0</ele><time>2026-04-26T08:22:17.978Z</time></trkpt><trkpt lat="40.8219941" lon="8.5959334"><ele>48.0</ele><time>2026-04-26T08:22:18.978Z</time></trkpt><trkpt lat="40.8219138" lon="8.5960462"><ele>48.0</ele><time>2026-04-26T08:22:19.978Z</time></trkpt><trkpt lat="40.8218303" lon="8.5961669"><ele>48.25</ele><time>2026-04-26T08:22:20.979Z</time></trkpt><trkpt lat="40.8217488" lon="8.5962898"><ele>48.5</ele><time>2026-04-26T08:22:21.979Z</time></trkpt><trkpt lat="40.8216725" lon="8.5964089"><ele>48.75</ele><time>2026-04-26T08:22:22.979Z</time></trkpt><trkpt lat="40.8215982" lon="8.596522"><ele>49.0</ele><time>2026-04-26T08:22:23.978Z</time></trkpt><trkpt lat="40.8215247" lon="8.5966292"><ele>49.0</ele><time>2026-04-26T08:22:24.979Z</time></trkpt><trkpt lat="40.8214526" lon="8.5967308"><ele>49.0</ele><time>2026-04-26T08:22:25.979Z</time></trkpt><trkpt lat="40.8213832" lon="8.5968274"><ele>49.0</ele><time>2026-04-26T08:22:26.978Z</time></trkpt><trkpt lat="40.8213168" lon="8.5969186"><ele>49.0</ele><time>2026-04-26T08:22:27.978Z</time></trkpt><trkpt lat="40.8212506" lon="8.5970033"><ele>49.0</ele><time>2026-04-26T08:22:28.978Z</time></trkpt><trkpt lat="40.8211867" lon="8.5970831"><ele>48.99999999999999</ele><time>2026-04-26T08:22:29.978Z</time></trkpt><trkpt lat="40.8211256" lon="8.5971605"><ele>49.0</ele><time>2026-04-26T08:22:30.979Z</time></trkpt><trkpt lat="40.8210636" lon="8.5972376"><ele>49.0</ele><time>2026-04-26T08:22:31.979Z</time></trkpt><trkpt lat="40.8210019" lon="8.5973151"><ele>49.0</ele><time>2026-04-26T08:22:32.979Z</time></trkpt><trkpt lat="40.8209357" lon="8.5973961"><ele>48.99999999999999</ele><time>2026-04-26T08:22:33.978Z</time></trkpt><trkpt lat="40.8208648" lon="8.5974735"><ele>49.0</ele><time>2026-04-26T08:22:34.979Z</time></trkpt><trkpt lat="40.8207874" lon="8.5975471"><ele>49.400000000000006</ele><time>2026-04-26T08:22:35.978Z</time></trkpt><trkpt lat="40.8207069" lon="8.5976191"><ele>49.8</ele><time>2026-04-26T08:22:36.979Z</time></trkpt><trkpt lat="40.8206256" lon="8.5976992"><ele>50.2</ele><time>2026-04-26T08:22:37.98Z</time></trkpt><trkpt lat="40.8205438" lon="8.5977894"><ele>50.599999999999994</ele><time>2026-04-26T08:22:38.979Z</time></trkpt><trkpt lat="40.8204623" lon="8.597884"><ele>51.0</ele><time>2026-04-26T08:22:39.977Z</time></trkpt><trkpt lat="40.8203793" lon="8.5979806"><ele>51.0</ele><time>2026-04-26T08:22:40.979Z</time></trkpt><trkpt lat="40.8202951" lon="8.5980787"><ele>51.0</ele><time>2026-04-26T08:22:41.977Z</time></trkpt><trkpt lat="40.8202114" lon="8.5981761"><ele>51.0</ele><time>2026-04-26T08:22:42.981Z</time></trkpt><trkpt lat="40.8201332" lon="8.598268"><ele>51.0</ele><time>2026-04-26T08:22:43.977Z</time></trkpt><trkpt lat="40.8200629" lon="8.598354"><ele>51.0</ele><time>2026-04-26T08:22:44.978Z</time></trkpt><trkpt lat="40.8200031" lon="8.5984387"><ele>51.166666666666664</ele><time>2026-04-26T08:22:45.979Z</time></trkpt><trkpt lat="40.8199505" lon="8.59852"><ele>51.33333333333333</ele><time>2026-04-26T08:22:46.978Z</time></trkpt><trkpt lat="40.8199019" lon="8.5985948"><ele>51.5</ele><time>2026-04-26T08:22:47.978Z</time></trkpt><trkpt lat="40.8198537" lon="8.5986639"><ele>51.666666666666664</ele><time>2026-04-26T08:22:48.979Z</time></trkpt><trkpt lat="40.8198001" lon="8.5987349"><ele>51.83333333333333</ele><time>2026-04-26T08:22:49.978Z</time></trkpt><trkpt lat="40.8197412" lon="8.5988098"><ele>52.0</ele><time>2026-04-26T08:22:50.979Z</time></trkpt><trkpt lat="40.8196773" lon="8.5988896"><ele>51.99999999999999</ele><time>2026-04-26T08:22:51.977Z</time></trkpt><trkpt lat="40.8196143" lon="8.5989671"><ele>52.0</ele><time>2026-04-26T08:22:52.977Z</time></trkpt><trkpt lat="40.8195571" lon="8.5990405"><ele>52.0</ele><time>2026-04-26T08:22:53.979Z</time></trkpt><trkpt lat="40.8195003" lon="8.5991129"><ele>52.0</ele><time>2026-04-26T08:22:54.978Z</time></trkpt><trkpt lat="40.81944" lon="8.5991885"><ele>51.99999999999999</ele><time>2026-04-26T08:22:55.979Z</time></trkpt><trkpt lat="40.8193763" lon="8.5992699"><ele>52.0</ele><time>2026-04-26T08:22:56.978Z</time></trkpt><trkpt lat="40.8193097" lon="8.5993546"><ele>52.49999999999999</ele><time>2026-04-26T08:22:57.978Z</time></trkpt><trkpt lat="40.8192382" lon="8.5994354"><ele>53.0</ele><time>2026-04-26T08:22:58.978Z</time></trkpt><trkpt lat="40.8191649" lon="8.5995091"><ele>53.5</ele><time>2026-04-26T08:22:59.978Z</time></trkpt><trkpt lat="40.8190929" lon="8.5995777"><ele>54.0</ele><time>2026-04-26T08:23:00.978Z</time></trkpt><trkpt lat="40.8190276" lon="8.5996402"><ele>54.49999999999999</ele><time>2026-04-26T08:23:01.977Z</time></trkpt><trkpt lat="40.8189692" lon="8.5996959"><ele>55.0</ele><time>2026-04-26T08:23:02.979Z</time></trkpt><trkpt lat="40.8189164" lon="8.5997426"><ele>54.99999999999999</ele><time>2026-04-26T08:23:03.977Z</time></trkpt><trkpt lat="40.8188344" lon="8.5998069"><ele>55.0</ele><time>2026-04-26T08:23:05.979Z</time></trkpt><trkpt lat="40.8187478" lon="8.5998291"><ele>55.0</ele><time>2026-04-26T08:23:08.979Z</time></trkpt><trkpt lat="40.8186895" lon="8.5997934"><ele>55.0</ele><time>2026-04-26T08:23:10.978Z</time></trkpt><trkpt lat="40.8186266" lon="8.5997065"><ele>54.99999999999999</ele><time>2026-04-26T08:23:12.979Z</time></trkpt><trkpt lat="40.8185729" lon="8.5996248"><ele>55.0</ele><time>2026-04-26T08:23:14.978Z</time></trkpt><trkpt lat="40.8185028" lon="8.5995146"><ele>55.8</ele><time>2026-04-26T08:23:29.977Z</time></trkpt><trkpt lat="40.8184471" lon="8.5994344"><ele>56.6</ele><time>2026-04-26T08:23:30.978Z</time></trkpt><trkpt lat="40.8183801" lon="8.5993221"><ele>57.400000000000006</ele><time>2026-04-26T08:23:31.978Z</time></trkpt><trkpt lat="40.818301" lon="8.599208"><ele>58.2</ele><time>2026-04-26T08:23:32.979Z</time></trkpt><trkpt lat="40.8182134" lon="8.5990877"><ele>59.0</ele><time>2026-04-26T08:23:33.978Z</time></trkpt><trkpt lat="40.8181239" lon="8.5989719"><ele>59.0</ele><time>2026-04-26T08:23:34.978Z</time></trkpt><trkpt lat="40.8180345" lon="8.5988567"><ele>59.0</ele><time>2026-04-26T08:23:35.978Z</time></trkpt><trkpt lat="40.8179538" lon="8.5987387"><ele>59.0</ele><time>2026-04-26T08:23:36.979Z</time></trkpt><trkpt lat="40.8178761" lon="8.5986261"><ele>59.0</ele><time>2026-04-26T08:23:37.978Z</time></trkpt><trkpt lat="40.8178017" lon="8.5985186"><ele>59.00000000000001</ele><time>2026-04-26T08:23:38.979Z</time></trkpt><trkpt lat="40.8177383" lon="8.5984252"><ele>59.0</ele><time>2026-04-26T08:23:39.979Z</time></trkpt><trkpt lat="40.8176848" lon="8.5983453"><ele>59.0</ele><time>2026-04-26T08:23:40.978Z</time></trkpt><trkpt lat="40.8176437" lon="8.5982807"><ele>59.0</ele><time>2026-04-26T08:23:41.978Z</time></trkpt><trkpt lat="40.8175881" lon="8.598193"><ele>59.00000000000001</ele><time>2026-04-26T08:23:43.979Z</time></trkpt><trkpt lat="40.8175114" lon="8.598182"><ele>59.0</ele><time>2026-04-26T08:23:46.978Z</time></trkpt><trkpt lat="40.817436" lon="8.5982712"><ele>60.50000000000001</ele><time>2026-04-26T08:23:48.98Z</time></trkpt><trkpt lat="40.8173846" lon="8.5983263"><ele>62.0</ele><time>2026-04-26T08:23:49.978Z</time></trkpt><trkpt lat="40.8173316" lon="8.5983738"><ele>63.5</ele><time>2026-04-26T08:23:50.978Z</time></trkpt><trkpt lat="40.8172311" lon="8.598457"><ele>65.0</ele><time>2026-04-26T08:23:52.979Z</time></trkpt><trkpt lat="40.8171252" lon="8.598553"><ele>66.5</ele><time>2026-04-26T08:23:54.979Z</time></trkpt><trkpt lat="40.8170701" lon="8.5986051"><ele>68.0</ele><time>2026-04-26T08:23:55.979Z</time></trkpt><trkpt lat="40.817017" lon="8.5986549"><ele>67.6</ele><time>2026-04-26T08:23:56.979Z</time></trkpt><trkpt lat="40.8169639" lon="8.5987016"><ele>67.19999999999999</ele><time>2026-04-26T08:23:57.978Z</time></trkpt><trkpt lat="40.8168627" lon="8.5987938"><ele>66.8</ele><time>2026-04-26T08:23:59.977Z</time></trkpt><trkpt lat="40.8167566" lon="8.5988927"><ele>66.39999999999999</ele><time>2026-04-26T08:24:01.977Z</time></trkpt><trkpt lat="40.816701" lon="8.5989494"><ele>66.0</ele><time>2026-04-26T08:24:02.979Z</time></trkpt><trkpt lat="40.8166485" lon="8.5990006"><ele>67.0</ele><time>2026-04-26T08:24:03.978Z</time></trkpt><trkpt lat="40.8165486" lon="8.599103"><ele>68.0</ele><time>2026-04-26T08:24:05.979Z</time></trkpt><trkpt lat="40.8164911" lon="8.5991558"><ele>69.0</ele><time>2026-04-26T08:24:06.979Z</time></trkpt><trkpt lat="40.8164389" lon="8.5992067"><ele>70.0</ele><time>2026-04-26T08:24:07.978Z</time></trkpt><trkpt lat="40.8163871" lon="8.5992558"><ele>71.0</ele><time>2026-04-26T08:24:08.979Z</time></trkpt><trkpt lat="40.8163253" lon="8.5992948"><ele>72.0</ele><time>2026-04-26T08:24:09.979Z</time></trkpt><trkpt lat="40.8162605" lon="8.5993193"><ele>72.0</ele><time>2026-04-26T08:24:10.981Z</time></trkpt><trkpt lat="40.816188" lon="8.59933"><ele>72.0</ele><time>2026-04-26T08:24:11.978Z</time></trkpt><trkpt lat="40.8161111" lon="8.599325"><ele>72.0</ele><time>2026-04-26T08:24:12.979Z</time></trkpt><trkpt lat="40.8160311" lon="8.5993082"><ele>72.0</ele><time>2026-04-26T08:24:13.978Z</time></trkpt><trkpt lat="40.8159496" lon="8.5992891"><ele>72.0</ele><time>2026-04-26T08:24:14.978Z</time></trkpt><trkpt lat="40.8158721" lon="8.5992763"><ele>72.0</ele><time>2026-04-26T08:24:15.977Z</time></trkpt><trkpt lat="40.815801" lon="8.5992645"><ele>72.83333333333333</ele><time>2026-04-26T08:24:16.978Z</time></trkpt><trkpt lat="40.81573" lon="8.59925"><ele>73.66666666666667</ele><time>2026-04-26T08:24:17.978Z</time></trkpt><trkpt lat="40.81566" lon="8.5992414"><ele>74.5</ele><time>2026-04-26T08:24:18.979Z</time></trkpt><trkpt lat="40.81559" lon="8.599232"><ele>75.33333333333334</ele><time>2026-04-26T08:24:19.98Z</time></trkpt><trkpt lat="40.8155199" lon="8.5992214"><ele>76.16666666666667</ele><time>2026-04-26T08:24:20.978Z</time></trkpt><trkpt lat="40.8154545" lon="8.5992066"><ele>77.0</ele><time>2026-04-26T08:24:21.978Z</time></trkpt><trkpt lat="40.8153399" lon="8.5991624"><ele>77.0</ele><time>2026-04-26T08:24:23.978Z</time></trkpt><trkpt lat="40.8152496" lon="8.5990721"><ele>77.0</ele><time>2026-04-26T08:24:25.978Z</time></trkpt><trkpt lat="40.8151703" lon="8.5989845"><ele>77.0</ele><time>2026-04-26T08:24:27.978Z</time></trkpt><trkpt lat="40.815085" lon="8.5989272"><ele>77.0</ele><time>2026-04-26T08:24:29.977Z</time></trkpt><trkpt lat="40.8150073" lon="8.5989387"><ele>77.0</ele><time>2026-04-26T08:24:32.98Z</time></trkpt><trkpt lat="40.8149963" lon="8.5990372"><ele>78.6</ele><time>2026-04-26T08:24:34.978Z</time></trkpt><trkpt lat="40.8149901" lon="8.5991893"><ele>80.2</ele><time>2026-04-26T08:24:36.978Z</time></trkpt><trkpt lat="40.815007" lon="8.5993405"><ele>81.8</ele><time>2026-04-26T08:24:38.978Z</time></trkpt><trkpt lat="40.8150549" lon="8.5995"><ele>83.4</ele><time>2026-04-26T08:24:40.979Z</time></trkpt><trkpt lat="40.81509" lon="8.5995872"><ele>85.0</ele><time>2026-04-26T08:24:41.979Z</time></trkpt><trkpt lat="40.8151281" lon="8.5996742"><ele>83.66666666666666</ele><time>2026-04-26T08:24:42.978Z</time></trkpt><trkpt lat="40.8151672" lon="8.5997607"><ele>82.33333333333333</ele><time>2026-04-26T08:24:43.978Z</time></trkpt><trkpt lat="40.8152057" lon="8.5998478"><ele>81.0</ele><time>2026-04-26T08:24:44.979Z</time></trkpt><trkpt lat="40.8152455" lon="8.5999413"><ele>79.66666666666667</ele><time>2026-04-26T08:24:45.978Z</time></trkpt><trkpt lat="40.8152914" lon="8.6000432"><ele>78.33333333333334</ele><time>2026-04-26T08:24:46.977Z</time></trkpt><trkpt lat="40.8153437" lon="8.6001562"><ele>77.0</ele><time>2026-04-26T08:24:47.98Z</time></trkpt><trkpt lat="40.815395" lon="8.6002786"><ele>77.75</ele><time>2026-04-26T08:24:48.979Z</time></trkpt><trkpt lat="40.8154516" lon="8.6004079"><ele>78.5</ele><time>2026-04-26T08:24:49.979Z</time></trkpt><trkpt lat="40.8155093" lon="8.6005421"><ele>79.25</ele><time>2026-04-26T08:24:50.978Z</time></trkpt><trkpt lat="40.8155678" lon="8.6006798"><ele>80.0</ele><time>2026-04-26T08:24:51.979Z</time></trkpt><trkpt lat="40.815628" lon="8.6008182"><ele>80.0</ele><time>2026-04-26T08:24:52.978Z</time></trkpt><trkpt lat="40.815688" lon="8.6009567"><ele>80.0</ele><time>2026-04-26T08:24:53.979Z</time></trkpt><trkpt lat="40.8157501" lon="8.6010952"><ele>80.0</ele><time>2026-04-26T08:24:54.978Z</time></trkpt><trkpt lat="40.8158053" lon="8.6012319"><ele>80.0</ele><time>2026-04-26T08:24:55.978Z</time></trkpt><trkpt lat="40.8158583" lon="8.6013639"><ele>79.8</ele><time>2026-04-26T08:24:56.978Z</time></trkpt><trkpt lat="40.8159097" lon="8.6014918"><ele>79.6</ele><time>2026-04-26T08:24:57.979Z</time></trkpt><trkpt lat="40.8159583" lon="8.6016158"><ele>79.4</ele><time>2026-04-26T08:24:58.98Z</time></trkpt><trkpt lat="40.8159932" lon="8.6017381"><ele>79.2</ele><time>2026-04-26T08:24:59.979Z</time></trkpt><trkpt lat="40.8160141" lon="8.6018621"><ele>79.0</ele><time>2026-04-26T08:25:00.978Z</time></trkpt><trkpt lat="40.8160261" lon="8.6019971"><ele>75.5</ele><time>2026-04-26T08:25:01.98Z</time></trkpt><trkpt lat="40.8160348" lon="8.6021428"><ele>72.0</ele><time>2026-04-26T08:25:02.98Z</time></trkpt><trkpt lat="40.8160407" lon="8.6022994"><ele>68.5</ele><time>2026-04-26T08:25:03.978Z</time></trkpt><trkpt lat="40.8160423" lon="8.6024638"><ele>65.0</ele><time>2026-04-26T08:25:04.977Z</time></trkpt><trkpt lat="40.816043" lon="8.6026278"><ele>65.0</ele><time>2026-04-26T08:25:05.978Z</time></trkpt><trkpt lat="40.8160425" lon="8.6027871"><ele>65.0</ele><time>2026-04-26T08:25:06.977Z</time></trkpt><trkpt lat="40.8160379" lon="8.6029408"><ele>65.0</ele><time>2026-04-26T08:25:07.978Z</time></trkpt><trkpt lat="40.8160293" lon="8.6030862"><ele>65.0</ele><time>2026-04-26T08:25:08.979Z</time></trkpt><trkpt lat="40.81601" lon="8.6032256"><ele>65.0</ele><time>2026-04-26T08:25:09.978Z</time></trkpt><trkpt lat="40.8159788" lon="8.6033529"><ele>65.0</ele><time>2026-04-26T08:25:10.979Z</time></trkpt><trkpt lat="40.815937" lon="8.6034767"><ele>65.0</ele><time>2026-04-26T08:25:11.978Z</time></trkpt><trkpt lat="40.8158924" lon="8.6035935"><ele>65.0</ele><time>2026-04-26T08:25:12.979Z</time></trkpt><trkpt lat="40.8158561" lon="8.6037047"><ele>65.0</ele><time>2026-04-26T08:25:13.978Z</time></trkpt><trkpt lat="40.8158389" lon="8.6038117"><ele>65.0</ele><time>2026-04-26T08:25:14.978Z</time></trkpt><trkpt lat="40.8158464" lon="8.6039107"><ele>65.0</ele><time>2026-04-26T08:25:15.978Z</time></trkpt><trkpt lat="40.8158672" lon="8.6039939"><ele>65.0</ele><time>2026-04-26T08:25:16.978Z</time></trkpt><trkpt lat="40.8159601" lon="8.6041183"><ele>65.0</ele><time>2026-04-26T08:25:18.977Z</time></trkpt><trkpt lat="40.8160171" lon="8.6041864"><ele>65.0</ele><time>2026-04-26T08:25:19.977Z</time></trkpt><trkpt lat="40.8160737" lon="8.6042602"><ele>65.0</ele><time>2026-04-26T08:25:20.979Z</time></trkpt><trkpt lat="40.8161289" lon="8.6043355"><ele>64.0</ele><time>2026-04-26T08:25:21.977Z</time></trkpt><trkpt lat="40.816177" lon="8.6044183"><ele>63.0</ele><time>2026-04-26T08:25:22.977Z</time></trkpt><trkpt lat="40.8162248" lon="8.6045078"><ele>62.0</ele><time>2026-04-26T08:25:23.978Z</time></trkpt><trkpt lat="40.8162439" lon="8.6046112"><ele>61.0</ele><time>2026-04-26T08:25:24.977Z</time></trkpt><trkpt lat="40.8162442" lon="8.6047097"><ele>60.00000000000001</ele><time>2026-04-26T08:25:25.978Z</time></trkpt><trkpt lat="40.8162334" lon="8.6048058"><ele>59.0</ele><time>2026-04-26T08:25:26.978Z</time></trkpt><trkpt lat="40.8162028" lon="8.6048898"><ele>58.00000000000001</ele><time>2026-04-26T08:25:27.977Z</time></trkpt><trkpt lat="40.816168" lon="8.60497"><ele>57.0</ele><time>2026-04-26T08:25:28.978Z</time></trkpt><trkpt lat="40.8161307" lon="8.6050485"><ele>56.0</ele><time>2026-04-26T08:25:29.978Z</time></trkpt><trkpt lat="40.8160976" lon="8.60513"><ele>55.0</ele><time>2026-04-26T08:25:30.979Z</time></trkpt><trkpt lat="40.81607" lon="8.6052086"><ele>54.00000000000001</ele><time>2026-04-26T08:25:31.979Z</time></trkpt><trkpt lat="40.8160547" lon="8.6052897"><ele>53.0</ele><time>2026-04-26T08:25:32.979Z</time></trkpt><trkpt lat="40.8160726" lon="8.6054489"><ele>53.00000000000001</ele><time>2026-04-26T08:25:34.979Z</time></trkpt><trkpt lat="40.8161084" lon="8.6055293"><ele>53.0</ele><time>2026-04-26T08:25:35.979Z</time></trkpt><trkpt lat="40.8161631" lon="8.6056106"><ele>53.0</ele><time>2026-04-26T08:25:36.977Z</time></trkpt><trkpt lat="40.8162259" lon="8.6056894"><ele>53.0</ele><time>2026-04-26T08:25:37.978Z</time></trkpt><trkpt lat="40.8162948" lon="8.6057639"><ele>53.00000000000001</ele><time>2026-04-26T08:25:38.978Z</time></trkpt><trkpt lat="40.8163637" lon="8.6058364"><ele>53.0</ele><time>2026-04-26T08:25:39.978Z</time></trkpt><trkpt lat="40.8164299" lon="8.6059094"><ele>53.00000000000001</ele><time>2026-04-26T08:25:40.979Z</time></trkpt><trkpt lat="40.8164899" lon="8.6059853"><ele>53.0</ele><time>2026-04-26T08:25:41.978Z</time></trkpt><trkpt lat="40.8165432" lon="8.6060632"><ele>53.0</ele><time>2026-04-26T08:25:42.978Z</time></trkpt><trkpt lat="40.8165884" lon="8.6061417"><ele>53.0</ele><time>2026-04-26T08:25:43.978Z</time></trkpt><trkpt lat="40.8166362" lon="8.6062708"><ele>53.00000000000001</ele><time>2026-04-26T08:25:45.977Z</time></trkpt><trkpt lat="40.8166368" lon="8.6063865"><ele>53.0</ele><time>2026-04-26T08:25:47.977Z</time></trkpt><trkpt lat="40.816575" lon="8.6065295"><ele>53.16666666666667</ele><time>2026-04-26T08:25:49.978Z</time></trkpt><trkpt lat="40.8165273" lon="8.6066145"><ele>53.333333333333336</ele><time>2026-04-26T08:25:50.979Z</time></trkpt><trkpt lat="40.8164796" lon="8.6067124"><ele>53.5</ele><time>2026-04-26T08:25:51.979Z</time></trkpt><trkpt lat="40.8164397" lon="8.6068165"><ele>53.66666666666667</ele><time>2026-04-26T08:25:52.978Z</time></trkpt><trkpt lat="40.8164137" lon="8.6069286"><ele>53.833333333333336</ele><time>2026-04-26T08:25:53.979Z</time></trkpt><trkpt lat="40.8163957" lon="8.6070405"><ele>54.0</ele><time>2026-04-26T08:25:54.978Z</time></trkpt><trkpt lat="40.8163993" lon="8.607146"><ele>54.285714285714285</ele><time>2026-04-26T08:25:55.979Z</time></trkpt><trkpt lat="40.8164099" lon="8.6072407"><ele>54.57142857142857</ele><time>2026-04-26T08:25:56.98Z</time></trkpt><trkpt lat="40.8164208" lon="8.6073345"><ele>54.85714285714286</ele><time>2026-04-26T08:25:57.977Z</time></trkpt><trkpt lat="40.8164254" lon="8.607426"><ele>55.14285714285714</ele><time>2026-04-26T08:25:58.977Z</time></trkpt><trkpt lat="40.8164255" lon="8.6075142"><ele>55.42857142857143</ele><time>2026-04-26T08:25:59.978Z</time></trkpt><trkpt lat="40.8164266" lon="8.6076041"><ele>55.714285714285715</ele><time>2026-04-26T08:26:00.978Z</time></trkpt><trkpt lat="40.8164295" lon="8.6076951"><ele>56.0</ele><time>2026-04-26T08:26:01.979Z</time></trkpt><trkpt lat="40.8164369" lon="8.6077862"><ele>55.66666666666667</ele><time>2026-04-26T08:26:02.978Z</time></trkpt><trkpt lat="40.816458" lon="8.6078758"><ele>55.333333333333336</ele><time>2026-04-26T08:26:03.978Z</time></trkpt><trkpt lat="40.8164907" lon="8.6079666"><ele>55.0</ele><time>2026-04-26T08:26:04.978Z</time></trkpt><trkpt lat="40.8165393" lon="8.6080557"><ele>54.66666666666667</ele><time>2026-04-26T08:26:05.979Z</time></trkpt><trkpt lat="40.816601" lon="8.6081512"><ele>54.333333333333336</ele><time>2026-04-26T08:26:06.978Z</time></trkpt><trkpt lat="40.8166739" lon="8.6082438"><ele>54.0</ele><time>2026-04-26T08:26:07.978Z</time></trkpt><trkpt lat="40.8167542" lon="8.6083296"><ele>52.800000000000004</ele><time>2026-04-26T08:26:08.979Z</time></trkpt><trkpt lat="40.8168391" lon="8.6084163"><ele>51.60000000000001</ele><time>2026-04-26T08:26:09.979Z</time></trkpt><trkpt lat="40.8169228" lon="8.608501"><ele>50.4</ele><time>2026-04-26T08:26:10.979Z</time></trkpt><trkpt lat="40.8170068" lon="8.6085822"><ele>49.2</ele><time>2026-04-26T08:26:11.978Z</time></trkpt><trkpt lat="40.8170872" lon="8.6086624"><ele>48.0</ele><time>2026-04-26T08:26:12.978Z</time></trkpt><trkpt lat="40.8171592" lon="8.6087506"><ele>46.599999999999994</ele><time>2026-04-26T08:26:13.978Z</time></trkpt><trkpt lat="40.8172312" lon="8.6088393"><ele>45.199999999999996</ele><time>2026-04-26T08:26:14.979Z</time></trkpt><trkpt lat="40.8173034" lon="8.608927"><ele>43.8</ele><time>2026-04-26T08:26:15.977Z</time></trkpt><trkpt lat="40.8173715" lon="8.6090157"><ele>42.4</ele><time>2026-04-26T08:26:16.978Z</time></trkpt><trkpt lat="40.8174338" lon="8.609113"><ele>41.0</ele><time>2026-04-26T08:26:17.978Z</time></trkpt><trkpt lat="40.8174926" lon="8.6092139"><ele>41.0</ele><time>2026-04-26T08:26:18.978Z</time></trkpt><trkpt lat="40.8175532" lon="8.6093085"><ele>41.0</ele><time>2026-04-26T08:26:19.979Z</time></trkpt><trkpt lat="40.8176165" lon="8.6093963"><ele>41.0</ele><time>2026-04-26T08:26:20.979Z</time></trkpt><trkpt lat="40.8176847" lon="8.6094801"><ele>41.0</ele><time>2026-04-26T08:26:21.978Z</time></trkpt><trkpt lat="40.8177562" lon="8.6095615"><ele>41.0</ele><time>2026-04-26T08:26:22.977Z</time></trkpt><trkpt lat="40.817828" lon="8.6096368"><ele>39.0</ele><time>2026-04-26T08:26:23.978Z</time></trkpt><trkpt lat="40.8178982" lon="8.6097086"><ele>37.0</ele><time>2026-04-26T08:26:24.978Z</time></trkpt><trkpt lat="40.8179642" lon="8.6097779"><ele>35.0</ele><time>2026-04-26T08:26:25.979Z</time></trkpt><trkpt lat="40.8180261" lon="8.6098419"><ele>33.0</ele><time>2026-04-26T08:26:26.979Z</time></trkpt><trkpt lat="40.8180823" lon="8.6099051"><ele>30.999999999999996</ele><time>2026-04-26T08:26:27.978Z</time></trkpt><trkpt lat="40.8181299" lon="8.6099765"><ele>29.0</ele><time>2026-04-26T08:26:28.978Z</time></trkpt><trkpt lat="40.8181658" lon="8.6100623"><ele>29.0</ele><time>2026-04-26T08:26:29.977Z</time></trkpt><trkpt lat="40.8182001" lon="8.6101685"><ele>29.0</ele><time>2026-04-26T08:26:30.977Z</time></trkpt><trkpt lat="40.8182368" lon="8.6102816"><ele>29.0</ele><time>2026-04-26T08:26:31.979Z</time></trkpt><trkpt lat="40.818273" lon="8.6103986"><ele>29.0</ele><time>2026-04-26T08:26:32.979Z</time></trkpt><trkpt lat="40.8183045" lon="8.6105144"><ele>29.0</ele><time>2026-04-26T08:26:33.978Z</time></trkpt><trkpt lat="40.8183309" lon="8.6106274"><ele>28.428571428571434</ele><time>2026-04-26T08:26:34.977Z</time></trkpt><trkpt lat="40.818355" lon="8.6107293"><ele>27.857142857142858</ele><time>2026-04-26T08:26:35.977Z</time></trkpt><trkpt lat="40.818384" lon="8.6108216"><ele>27.28571428571429</ele><time>2026-04-26T08:26:36.978Z</time></trkpt><trkpt lat="40.8184188" lon="8.6109018"><ele>26.714285714285715</ele><time>2026-04-26T08:26:37.979Z</time></trkpt><trkpt lat="40.8184634" lon="8.6109731"><ele>26.142857142857146</ele><time>2026-04-26T08:26:38.979Z</time></trkpt><trkpt lat="40.8185048" lon="8.6110468"><ele>25.571428571428573</ele><time>2026-04-26T08:26:39.978Z</time></trkpt><trkpt lat="40.8185406" lon="8.6111193"><ele>25.0</ele><time>2026-04-26T08:26:40.978Z</time></trkpt><trkpt lat="40.8185746" lon="8.6111911"><ele>24.166666666666668</ele><time>2026-04-26T08:26:41.977Z</time></trkpt><trkpt lat="40.8186545" lon="8.6113145"><ele>23.333333333333336</ele><time>2026-04-26T08:26:43.978Z</time></trkpt><trkpt lat="40.8187381" lon="8.6113831"><ele>22.5</ele><time>2026-04-26T08:26:45.978Z</time></trkpt><trkpt lat="40.8188015" lon="8.6114436"><ele>21.666666666666668</ele><time>2026-04-26T08:26:48.979Z</time></trkpt><trkpt lat="40.8188433" lon="8.6115105"><ele>20.833333333333336</ele><time>2026-04-26T08:26:52.978Z</time></trkpt><trkpt lat="40.818893" lon="8.6115754"><ele>20.0</ele><time>2026-04-26T08:26:55.979Z</time></trkpt><trkpt lat="40.8189502" lon="8.6116677"><ele>20.0</ele><time>2026-04-26T08:26:58.978Z</time></trkpt><trkpt lat="40.8190344" lon="8.6116924"><ele>20.0</ele><time>2026-04-26T08:27:01.978Z</time></trkpt><trkpt lat="40.8191007" lon="8.6117243"><ele>20.0</ele><time>2026-04-26T08:27:03.979Z</time></trkpt><trkpt lat="40.8191768" lon="8.6118097"><ele>20.0</ele><time>2026-04-26T08:27:06.98Z</time></trkpt><trkpt lat="40.8192521" lon="8.6118706"><ele>20.0</ele><time>2026-04-26T08:27:08.979Z</time></trkpt><trkpt lat="40.8193426" lon="8.6119579"><ele>20.2</ele><time>2026-04-26T08:27:10.978Z</time></trkpt><trkpt lat="40.8194301" lon="8.6120529"><ele>20.4</ele><time>2026-04-26T08:27:12.978Z</time></trkpt><trkpt lat="40.8194939" lon="8.612173"><ele>20.6</ele><time>2026-04-26T08:27:14.979Z</time></trkpt><trkpt lat="40.8195427" lon="8.6123195"><ele>20.8</ele><time>2026-04-26T08:27:16.978Z</time></trkpt><trkpt lat="40.8195619" lon="8.6123999"><ele>21.0</ele><time>2026-04-26T08:27:17.979Z</time></trkpt><trkpt lat="40.8195811" lon="8.6124822"><ele>21.0</ele><time>2026-04-26T08:27:18.979Z</time></trkpt><trkpt lat="40.8196012" lon="8.6125612"><ele>21.0</ele><time>2026-04-26T08:27:19.977Z</time></trkpt><trkpt lat="40.8196359" lon="8.612705"><ele>21.0</ele><time>2026-04-26T08:27:21.978Z</time></trkpt><trkpt lat="40.8196394" lon="8.6128521"><ele>21.0</ele><time>2026-04-26T08:27:23.979Z</time></trkpt><trkpt lat="40.8196257" lon="8.6129991"><ele>21.0</ele><time>2026-04-26T08:27:25.979Z</time></trkpt><trkpt lat="40.8196058" lon="8.6131457"><ele>21.6</ele><time>2026-04-26T08:27:27.977Z</time></trkpt><trkpt lat="40.8195921" lon="8.6132866"><ele>22.200000000000003</ele><time>2026-04-26T08:27:29.978Z</time></trkpt><trkpt lat="40.8195847" lon="8.6134193"><ele>22.799999999999997</ele><time>2026-04-26T08:27:31.979Z</time></trkpt><trkpt lat="40.8195751" lon="8.6135634"><ele>23.4</ele><time>2026-04-26T08:27:33.977Z</time></trkpt><trkpt lat="40.8195589" lon="8.6137098"><ele>24.0</ele><time>2026-04-26T08:27:35.977Z</time></trkpt><trkpt lat="40.819563" lon="8.6138725"><ele>24.833333333333332</ele><time>2026-04-26T08:27:37.978Z</time></trkpt><trkpt lat="40.8195645" lon="8.613956"><ele>25.666666666666664</ele><time>2026-04-26T08:27:38.98Z</time></trkpt><trkpt lat="40.8195636" lon="8.6140393"><ele>26.5</ele><time>2026-04-26T08:27:39.979Z</time></trkpt><trkpt lat="40.8195622" lon="8.6141225"><ele>27.333333333333332</ele><time>2026-04-26T08:27:40.979Z</time></trkpt><trkpt lat="40.8195613" lon="8.6142071"><ele>28.166666666666664</ele><time>2026-04-26T08:27:41.978Z</time></trkpt><trkpt lat="40.8195706" lon="8.6143483"><ele>29.0</ele><time>2026-04-26T08:27:43.978Z</time></trkpt><trkpt lat="40.8195804" lon="8.614477"><ele>30.6</ele><time>2026-04-26T08:27:45.979Z</time></trkpt><trkpt lat="40.8195987" lon="8.6146223"><ele>32.2</ele><time>2026-04-26T08:27:47.979Z</time></trkpt><trkpt lat="40.819616" lon="8.6147818"><ele>33.800000000000004</ele><time>2026-04-26T08:27:49.98Z</time></trkpt><trkpt lat="40.8196286" lon="8.6149281"><ele>35.4</ele><time>2026-04-26T08:27:51.979Z</time></trkpt><trkpt lat="40.819641" lon="8.6150308"><ele>37.0</ele><time>2026-04-26T08:27:53.979Z</time></trkpt><trkpt lat="40.8196847" lon="8.615093"><ele>37.0</ele><time>2026-04-26T08:27:56.979Z</time></trkpt><trkpt lat="40.8196579" lon="8.6152252"><ele>37.0</ele><time>2026-04-26T08:28:11.978Z</time></trkpt><trkpt lat="40.8196357" lon="8.6153858"><ele>37.0</ele><time>2026-04-26T08:28:13.978Z</time></trkpt><trkpt lat="40.8196437" lon="8.6155299"><ele>37.0</ele><time>2026-04-26T08:28:15.978Z</time></trkpt><trkpt lat="40.8196329" lon="8.6156558"><ele>37.0</ele><time>2026-04-26T08:28:17.98Z</time></trkpt><trkpt lat="40.819598" lon="8.6157683"><ele>38.2</ele><time>2026-04-26T08:28:19.978Z</time></trkpt><trkpt lat="40.8195652" lon="8.6158926"><ele>39.400000000000006</ele><time>2026-04-26T08:28:21.98Z</time></trkpt><trkpt lat="40.8195493" lon="8.6160235"><ele>40.599999999999994</ele><time>2026-04-26T08:28:23.979Z</time></trkpt><trkpt lat="40.8195694" lon="8.6161681"><ele>41.8</ele><time>2026-04-26T08:28:25.979Z</time></trkpt><trkpt lat="40.819605" lon="8.6163263"><ele>43.0</ele><time>2026-04-26T08:28:27.98Z</time></trkpt><trkpt lat="40.8196215" lon="8.6164112"><ele>43.714285714285715</ele><time>2026-04-26T08:28:28.979Z</time></trkpt><trkpt lat="40.8196347" lon="8.6164964"><ele>44.42857142857143</ele><time>2026-04-26T08:28:29.978Z</time></trkpt><trkpt lat="40.8196458" lon="8.6165845"><ele>45.14285714285714</ele><time>2026-04-26T08:28:30.979Z</time></trkpt><trkpt lat="40.8196595" lon="8.6166794"><ele>45.85714285714286</ele><time>2026-04-26T08:28:31.979Z</time></trkpt><trkpt lat="40.8196762" lon="8.6167781"><ele>46.57142857142857</ele><time>2026-04-26T08:28:32.98Z</time></trkpt><trkpt lat="40.8196912" lon="8.6168772"><ele>47.285714285714285</ele><time>2026-04-26T08:28:33.979Z</time></trkpt><trkpt lat="40.8197035" lon="8.6169797"><ele>48.0</ele><time>2026-04-26T08:28:34.978Z</time></trkpt><trkpt lat="40.8197152" lon="8.6170833"><ele>48.5</ele><time>2026-04-26T08:28:35.979Z</time></trkpt><trkpt lat="40.819727" lon="8.6171869"><ele>49.0</ele><time>2026-04-26T08:28:36.979Z</time></trkpt><trkpt lat="40.8197422" lon="8.6172926"><ele>49.5</ele><time>2026-04-26T08:28:37.98Z</time></trkpt><trkpt lat="40.8197644" lon="8.6173944"><ele>50.0</ele><time>2026-04-26T08:28:38.979Z</time></trkpt><trkpt lat="40.8197902" lon="8.6174972"><ele>50.5</ele><time>2026-04-26T08:28:39.979Z</time></trkpt><trkpt lat="40.8198167" lon="8.617603"><ele>51.0</ele><time>2026-04-26T08:28:40.978Z</time></trkpt><trkpt lat="40.8198452" lon="8.6177115"><ele>50.833333333333336</ele><time>2026-04-26T08:28:41.98Z</time></trkpt><trkpt lat="40.8198749" lon="8.6178189"><ele>50.66666666666667</ele><time>2026-04-26T08:28:42.978Z</time></trkpt><trkpt lat="40.8199093" lon="8.6179219"><ele>50.5</ele><time>2026-04-26T08:28:43.979Z</time></trkpt><trkpt lat="40.8199493" lon="8.6180224"><ele>50.333333333333336</ele><time>2026-04-26T08:28:44.981Z</time></trkpt><trkpt lat="40.8199957" lon="8.6181209"><ele>50.16666666666667</ele><time>2026-04-26T08:28:45.98Z</time></trkpt><trkpt lat="40.8200574" lon="8.6182116"><ele>50.0</ele><time>2026-04-26T08:28:46.978Z</time></trkpt><trkpt lat="40.8201333" lon="8.6182846"><ele>51.0</ele><time>2026-04-26T08:28:47.98Z</time></trkpt><trkpt lat="40.8202124" lon="8.6183568"><ele>52.0</ele><time>2026-04-26T08:28:48.979Z</time></trkpt><trkpt lat="40.8202872" lon="8.6184362"><ele>53.0</ele><time>2026-04-26T08:28:49.98Z</time></trkpt><trkpt lat="40.8203591" lon="8.6185201"><ele>54.0</ele><time>2026-04-26T08:28:50.98Z</time></trkpt><trkpt lat="40.8204334" lon="8.6185994"><ele>55.0</ele><time>2026-04-26T08:28:51.979Z</time></trkpt><trkpt lat="40.8205114" lon="8.6186733"><ele>55.0</ele><time>2026-04-26T08:28:52.979Z</time></trkpt><trkpt lat="40.8205931" lon="8.6187431"><ele>55.0</ele><time>2026-04-26T08:28:53.979Z</time></trkpt><trkpt lat="40.8206746" lon="8.6188143"><ele>55.0</ele><time>2026-04-26T08:28:54.979Z</time></trkpt><trkpt lat="40.8207541" lon="8.6188891"><ele>55.0</ele><time>2026-04-26T08:28:55.98Z</time></trkpt><trkpt lat="40.8208306" lon="8.6189677"><ele>55.0</ele><time>2026-04-26T08:28:56.979Z</time></trkpt><trkpt lat="40.8209049" lon="8.6190524"><ele>55.0</ele><time>2026-04-26T08:28:57.98Z</time></trkpt><trkpt lat="40.8209754" lon="8.6191409"><ele>55.0</ele><time>2026-04-26T08:28:58.979Z</time></trkpt><trkpt lat="40.8210429" lon="8.6192302"><ele>55.0</ele><time>2026-04-26T08:28:59.98Z</time></trkpt><trkpt lat="40.8211114" lon="8.6193188"><ele>55.0</ele><time>2026-04-26T08:29:00.979Z</time></trkpt><trkpt lat="40.821183" lon="8.6194007"><ele>55.0</ele><time>2026-04-26T08:29:01.98Z</time></trkpt><trkpt lat="40.8212625" lon="8.6194758"><ele>56.6</ele><time>2026-04-26T08:29:02.979Z</time></trkpt><trkpt lat="40.8213451" lon="8.619544"><ele>58.2</ele><time>2026-04-26T08:29:03.978Z</time></trkpt><trkpt lat="40.8214312" lon="8.6196062"><ele>59.8</ele><time>2026-04-26T08:29:04.979Z</time></trkpt><trkpt lat="40.8215123" lon="8.619664"><ele>61.4</ele><time>2026-04-26T08:29:05.98Z</time></trkpt><trkpt lat="40.8215813" lon="8.6197206"><ele>63.0</ele><time>2026-04-26T08:29:06.978Z</time></trkpt><trkpt lat="40.8216669" lon="8.6197973"><ele>63.0</ele><time>2026-04-26T08:29:08.98Z</time></trkpt><trkpt lat="40.8217332" lon="8.6198544"><ele>63.0</ele><time>2026-04-26T08:29:10.978Z</time></trkpt><trkpt lat="40.821822" lon="8.6199167"><ele>63.0</ele><time>2026-04-26T08:29:12.978Z</time></trkpt><trkpt lat="40.8218825" lon="8.619953"><ele>63.0</ele><time>2026-04-26T08:29:13.98Z</time></trkpt><trkpt lat="40.8219488" lon="8.6199875"><ele>63.0</ele><time>2026-04-26T08:29:14.979Z</time></trkpt><trkpt lat="40.822014" lon="8.620024"><ele>63.0</ele><time>2026-04-26T08:29:15.98Z</time></trkpt><trkpt lat="40.822084" lon="8.6200586"><ele>63.0</ele><time>2026-04-26T08:29:16.98Z</time></trkpt><trkpt lat="40.8221562" lon="8.6200887"><ele>63.0</ele><time>2026-04-26T08:29:17.982Z</time></trkpt><trkpt lat="40.8222319" lon="8.620122"><ele>63.0</ele><time>2026-04-26T08:29:18.979Z</time></trkpt><trkpt lat="40.8223073" lon="8.6201541"><ele>63.0</ele><time>2026-04-26T08:29:19.978Z</time></trkpt><trkpt lat="40.8223858" lon="8.6201905"><ele>63.0</ele><time>2026-04-26T08:29:20.979Z</time></trkpt><trkpt lat="40.8224621" lon="8.620224"><ele>63.0</ele><time>2026-04-26T08:29:21.979Z</time></trkpt><trkpt lat="40.8225367" lon="8.6202542"><ele>63.0</ele><time>2026-04-26T08:29:22.978Z</time></trkpt><trkpt lat="40.822613" lon="8.6202825"><ele>63.0</ele><time>2026-04-26T08:29:23.979Z</time></trkpt><trkpt lat="40.8226942" lon="8.6203076"><ele>63.0</ele><time>2026-04-26T08:29:24.98Z</time></trkpt><trkpt lat="40.8227773" lon="8.6203327"><ele>63.0</ele><time>2026-04-26T08:29:25.979Z</time></trkpt><trkpt lat="40.8228634" lon="8.6203558"><ele>63.0</ele><time>2026-04-26T08:29:26.979Z</time></trkpt><trkpt lat="40.8229458" lon="8.6203812"><ele>63.0</ele><time>2026-04-26T08:29:27.98Z</time></trkpt><trkpt lat="40.823027" lon="8.6204064"><ele>64.16666666666667</ele><time>2026-04-26T08:29:28.978Z</time></trkpt><trkpt lat="40.8231054" lon="8.6204315"><ele>65.33333333333333</ele><time>2026-04-26T08:29:29.979Z</time></trkpt><trkpt lat="40.8231834" lon="8.6204561"><ele>66.5</ele><time>2026-04-26T08:29:30.979Z</time></trkpt><trkpt lat="40.8232618" lon="8.6204814"><ele>67.66666666666666</ele><time>2026-04-26T08:29:31.979Z</time></trkpt><trkpt lat="40.8233413" lon="8.6205144"><ele>68.83333333333333</ele><time>2026-04-26T08:29:32.98Z</time></trkpt><trkpt lat="40.8234236" lon="8.6205558"><ele>70.0</ele><time>2026-04-26T08:29:33.979Z</time></trkpt><trkpt lat="40.8235263" lon="8.6206125"><ele>70.4</ele><time>2026-04-26T08:29:34.978Z</time></trkpt><trkpt lat="40.8236301" lon="8.6206727"><ele>70.8</ele><time>2026-04-26T08:29:35.978Z</time></trkpt><trkpt lat="40.8237211" lon="8.6207211"><ele>71.2</ele><time>2026-04-26T08:29:36.979Z</time></trkpt><trkpt lat="40.8238079" lon="8.6207666"><ele>71.6</ele><time>2026-04-26T08:29:37.979Z</time></trkpt><trkpt lat="40.8238897" lon="8.6207984"><ele>72.0</ele><time>2026-04-26T08:29:38.98Z</time></trkpt><trkpt lat="40.8239661" lon="8.6208157"><ele>72.0</ele><time>2026-04-26T08:29:39.982Z</time></trkpt><trkpt lat="40.8240402" lon="8.6208145"><ele>72.0</ele><time>2026-04-26T08:29:40.979Z</time></trkpt><trkpt lat="40.824102" lon="8.6207804"><ele>72.0</ele><time>2026-04-26T08:29:41.979Z</time></trkpt><trkpt lat="40.8241588" lon="8.6207157"><ele>72.0</ele><time>2026-04-26T08:29:42.978Z</time></trkpt><trkpt lat="40.8242231" lon="8.6206377"><ele>72.0</ele><time>2026-04-26T08:29:43.978Z</time></trkpt><trkpt lat="40.8242905" lon="8.6205608"><ele>72.0</ele><time>2026-04-26T08:29:44.979Z</time></trkpt><trkpt lat="40.8243607" lon="8.6204786"><ele>72.33333333333333</ele><time>2026-04-26T08:29:45.979Z</time></trkpt><trkpt lat="40.8244307" lon="8.6203991"><ele>72.66666666666667</ele><time>2026-04-26T08:29:46.979Z</time></trkpt><trkpt lat="40.8244981" lon="8.6203204"><ele>73.0</ele><time>2026-04-26T08:29:47.98Z</time></trkpt><trkpt lat="40.8245593" lon="8.6202472"><ele>73.33333333333334</ele><time>2026-04-26T08:29:48.982Z</time></trkpt><trkpt lat="40.8246159" lon="8.6201826"><ele>73.66666666666667</ele><time>2026-04-26T08:29:49.979Z</time></trkpt><trkpt lat="40.8246734" lon="8.6201369"><ele>74.0</ele><time>2026-04-26T08:29:50.979Z</time></trkpt><trkpt lat="40.8247367" lon="8.620112"><ele>74.0</ele><time>2026-04-26T08:29:51.978Z</time></trkpt><trkpt lat="40.8248118" lon="8.6201102"><ele>74.0</ele><time>2026-04-26T08:29:52.978Z</time></trkpt><trkpt lat="40.8248948" lon="8.6201269"><ele>74.0</ele><time>2026-04-26T08:29:53.978Z</time></trkpt><trkpt lat="40.82498" lon="8.6201691"><ele>74.0</ele><time>2026-04-26T08:29:54.978Z</time></trkpt><trkpt lat="40.8250565" lon="8.6202234"><ele>74.0</ele><time>2026-04-26T08:29:55.978Z</time></trkpt><trkpt lat="40.82512" lon="8.6202756"><ele>74.0</ele><time>2026-04-26T08:29:56.978Z</time></trkpt><trkpt lat="40.8252105" lon="8.620368"><ele>74.83333333333334</ele><time>2026-04-26T08:29:58.978Z</time></trkpt><trkpt lat="40.8252474" lon="8.6204435"><ele>75.66666666666667</ele><time>2026-04-26T08:30:00.978Z</time></trkpt><trkpt lat="40.8252682" lon="8.6205301"><ele>76.5</ele><time>2026-04-26T08:30:02.98Z</time></trkpt><trkpt lat="40.8253069" lon="8.6206469"><ele>77.33333333333333</ele><time>2026-04-26T08:30:04.979Z</time></trkpt><trkpt lat="40.8253494" lon="8.6208074"><ele>78.16666666666666</ele><time>2026-04-26T08:30:06.978Z</time></trkpt><trkpt lat="40.8253763" lon="8.6208974"><ele>79.0</ele><time>2026-04-26T08:30:07.979Z</time></trkpt><trkpt lat="40.825406" lon="8.6209901"><ele>79.00000000000001</ele><time>2026-04-26T08:30:08.98Z</time></trkpt><trkpt lat="40.8254355" lon="8.6210815"><ele>79.0</ele><time>2026-04-26T08:30:09.98Z</time></trkpt><trkpt lat="40.8254619" lon="8.6211771"><ele>79.0</ele><time>2026-04-26T08:30:10.979Z</time></trkpt><trkpt lat="40.8254887" lon="8.6212698"><ele>79.0</ele><time>2026-04-26T08:30:11.979Z</time></trkpt><trkpt lat="40.825517" lon="8.6213606"><ele>79.0</ele><time>2026-04-26T08:30:12.979Z</time></trkpt><trkpt lat="40.8255459" lon="8.6214493"><ele>79.00000000000001</ele><time>2026-04-26T08:30:13.979Z</time></trkpt><trkpt lat="40.8255726" lon="8.6215355"><ele>79.0</ele><time>2026-04-26T08:30:14.978Z</time></trkpt><trkpt lat="40.8256" lon="8.6216203"><ele>79.28571428571429</ele><time>2026-04-26T08:30:15.979Z</time></trkpt><trkpt lat="40.8256249" lon="8.6217102"><ele>79.57142857142857</ele><time>2026-04-26T08:30:16.978Z</time></trkpt><trkpt lat="40.8256472" lon="8.6218001"><ele>79.85714285714286</ele><time>2026-04-26T08:30:17.979Z</time></trkpt><trkpt lat="40.8256715" lon="8.6218862"><ele>80.14285714285714</ele><time>2026-04-26T08:30:18.979Z</time></trkpt><trkpt lat="40.8257005" lon="8.6219719"><ele>80.42857142857143</ele><time>2026-04-26T08:30:19.98Z</time></trkpt><trkpt lat="40.8257252" lon="8.6220641"><ele>80.71428571428572</ele><time>2026-04-26T08:30:20.978Z</time></trkpt><trkpt lat="40.8257554" lon="8.6221571"><ele>81.0</ele><time>2026-04-26T08:30:21.979Z</time></trkpt><trkpt lat="40.8257912" lon="8.6222515"><ele>81.33333333333333</ele><time>2026-04-26T08:30:22.978Z</time></trkpt><trkpt lat="40.8258261" lon="8.6223489"><ele>81.66666666666667</ele><time>2026-04-26T08:30:23.98Z</time></trkpt><trkpt lat="40.8258587" lon="8.6224516"><ele>82.0</ele><time>2026-04-26T08:30:24.979Z</time></trkpt><trkpt lat="40.8258929" lon="8.6225545"><ele>82.33333333333334</ele><time>2026-04-26T08:30:25.979Z</time></trkpt><trkpt lat="40.8259274" lon="8.6226575"><ele>82.66666666666667</ele><time>2026-04-26T08:30:26.978Z</time></trkpt><trkpt lat="40.8259661" lon="8.6227507"><ele>83.0</ele><time>2026-04-26T08:30:27.978Z</time></trkpt><trkpt lat="40.8260063" lon="8.622832"><ele>83.5</ele><time>2026-04-26T08:30:28.978Z</time></trkpt><trkpt lat="40.8260638" lon="8.6228986"><ele>84.0</ele><time>2026-04-26T08:30:29.978Z</time></trkpt><trkpt lat="40.8261358" lon="8.6229529"><ele>84.5</ele><time>2026-04-26T08:30:30.978Z</time></trkpt><trkpt lat="40.8262188" lon="8.6229999"><ele>85.0</ele><time>2026-04-26T08:30:31.98Z</time></trkpt><trkpt lat="40.8263044" lon="8.62305"><ele>85.5</ele><time>2026-04-26T08:30:32.98Z</time></trkpt><trkpt lat="40.8263999" lon="8.6230954"><ele>86.0</ele><time>2026-04-26T08:30:33.979Z</time></trkpt><trkpt lat="40.8264983" lon="8.6231313"><ele>86.0</ele><time>2026-04-26T08:30:34.979Z</time></trkpt><trkpt lat="40.8266081" lon="8.6231521"><ele>86.0</ele><time>2026-04-26T08:30:35.98Z</time></trkpt><trkpt lat="40.8267208" lon="8.623162"><ele>86.0</ele><time>2026-04-26T08:30:36.98Z</time></trkpt><trkpt lat="40.8268335" lon="8.6231742"><ele>86.0</ele><time>2026-04-26T08:30:37.979Z</time></trkpt><trkpt lat="40.8269451" lon="8.6231854"><ele>86.0</ele><time>2026-04-26T08:30:38.979Z</time></trkpt><trkpt lat="40.8270507" lon="8.6231973"><ele>85.66666666666667</ele><time>2026-04-26T08:30:39.978Z</time></trkpt><trkpt lat="40.8271466" lon="8.6232033"><ele>85.33333333333334</ele><time>2026-04-26T08:30:40.98Z</time></trkpt><trkpt lat="40.8272327" lon="8.6232025"><ele>85.0</ele><time>2026-04-26T08:30:41.98Z</time></trkpt><trkpt lat="40.8273158" lon="8.6231924"><ele>84.66666666666667</ele><time>2026-04-26T08:30:42.979Z</time></trkpt><trkpt lat="40.8274007" lon="8.6231754"><ele>84.33333333333333</ele><time>2026-04-26T08:30:43.979Z</time></trkpt><trkpt lat="40.8274893" lon="8.6231654"><ele>84.0</ele><time>2026-04-26T08:30:44.979Z</time></trkpt><trkpt lat="40.827576" lon="8.6231722"><ele>83.33333333333333</ele><time>2026-04-26T08:30:45.979Z</time></trkpt><trkpt lat="40.8276654" lon="8.6231999"><ele>82.66666666666667</ele><time>2026-04-26T08:30:46.98Z</time></trkpt><trkpt lat="40.8277442" lon="8.6232271"><ele>82.0</ele><time>2026-04-26T08:30:47.978Z</time></trkpt><trkpt lat="40.8278144" lon="8.6232488"><ele>81.33333333333334</ele><time>2026-04-26T08:30:48.979Z</time></trkpt><trkpt lat="40.8278856" lon="8.6232675"><ele>80.66666666666667</ele><time>2026-04-26T08:30:49.979Z</time></trkpt><trkpt lat="40.8279601" lon="8.6232799"><ele>80.0</ele><time>2026-04-26T08:30:50.978Z</time></trkpt><trkpt lat="40.8280375" lon="8.623283"><ele>80.0</ele><time>2026-04-26T08:30:51.979Z</time></trkpt><trkpt lat="40.8281149" lon="8.6232762"><ele>80.0</ele><time>2026-04-26T08:30:52.98Z</time></trkpt><trkpt lat="40.8281849" lon="8.623265"><ele>80.0</ele><time>2026-04-26T08:30:53.978Z</time></trkpt><trkpt lat="40.8283008" lon="8.6232501"><ele>80.0</ele><time>2026-04-26T08:30:55.978Z</time></trkpt><trkpt lat="40.8283892" lon="8.6232631"><ele>80.0</ele><time>2026-04-26T08:30:57.978Z</time></trkpt><trkpt lat="40.8284681" lon="8.6233146"><ele>80.0</ele><time>2026-04-26T08:30:59.979Z</time></trkpt><trkpt lat="40.8285508" lon="8.6234135"><ele>80.42857142857143</ele><time>2026-04-26T08:31:01.979Z</time></trkpt><trkpt lat="40.8285897" lon="8.6234821"><ele>80.85714285714286</ele><time>2026-04-26T08:31:02.98Z</time></trkpt><trkpt lat="40.8286294" lon="8.6235554"><ele>81.28571428571428</ele><time>2026-04-26T08:31:03.979Z</time></trkpt><trkpt lat="40.8286731" lon="8.6236297"><ele>81.71428571428572</ele><time>2026-04-26T08:31:04.979Z</time></trkpt><trkpt lat="40.8287253" lon="8.6237078"><ele>82.14285714285715</ele><time>2026-04-26T08:31:05.979Z</time></trkpt><trkpt lat="40.8287772" lon="8.6237939"><ele>82.57142857142857</ele><time>2026-04-26T08:31:06.979Z</time></trkpt><trkpt lat="40.8288187" lon="8.6238748"><ele>83.0</ele><time>2026-04-26T08:31:07.978Z</time></trkpt><trkpt lat="40.8288717" lon="8.6240252"><ele>83.83333333333334</ele><time>2026-04-26T08:31:09.98Z</time></trkpt><trkpt lat="40.8288975" lon="8.6241102"><ele>84.66666666666667</ele><time>2026-04-26T08:31:10.978Z</time></trkpt><trkpt lat="40.828914" lon="8.6242031"><ele>85.5</ele><time>2026-04-26T08:31:11.979Z</time></trkpt><trkpt lat="40.8289253" lon="8.6243026"><ele>86.33333333333333</ele><time>2026-04-26T08:31:12.978Z</time></trkpt><trkpt lat="40.8289369" lon="8.6244069"><ele>87.16666666666666</ele><time>2026-04-26T08:31:13.98Z</time></trkpt><trkpt lat="40.8289476" lon="8.6245183"><ele>88.0</ele><time>2026-04-26T08:31:14.978Z</time></trkpt><trkpt lat="40.8289647" lon="8.6246288"><ele>88.66666666666666</ele><time>2026-04-26T08:31:15.978Z</time></trkpt><trkpt lat="40.8289911" lon="8.6247379"><ele>89.33333333333333</ele><time>2026-04-26T08:31:16.978Z</time></trkpt><trkpt lat="40.8290291" lon="8.6248419"><ele>90.0</ele><time>2026-04-26T08:31:17.978Z</time></trkpt><trkpt lat="40.8290782" lon="8.6249428"><ele>90.66666666666667</ele><time>2026-04-26T08:31:18.978Z</time></trkpt><trkpt lat="40.8291283" lon="8.6250396"><ele>91.33333333333334</ele><time>2026-04-26T08:31:19.978Z</time></trkpt><trkpt lat="40.8291757" lon="8.6251242"><ele>92.0</ele><time>2026-04-26T08:31:20.979Z</time></trkpt><trkpt lat="40.8292152" lon="8.6251895"><ele>92.0</ele><time>2026-04-26T08:31:21.978Z</time></trkpt><trkpt lat="40.8292714" lon="8.625282"><ele>92.0</ele><time>2026-04-26T08:31:23.982Z</time></trkpt><trkpt lat="40.8293181" lon="8.6253742"><ele>92.0</ele><time>2026-04-26T08:31:25.979Z</time></trkpt><trkpt lat="40.829342" lon="8.6254973"><ele>92.0</ele><time>2026-04-26T08:31:27.98Z</time></trkpt><trkpt lat="40.8293672" lon="8.6256494"><ele>92.0</ele><time>2026-04-26T08:31:29.979Z</time></trkpt><trkpt lat="40.8293982" lon="8.6257987"><ele>93.83333333333334</ele><time>2026-04-26T08:31:31.979Z</time></trkpt><trkpt lat="40.8294152" lon="8.625951"><ele>95.66666666666667</ele><time>2026-04-26T08:31:33.979Z</time></trkpt><trkpt lat="40.8294332" lon="8.6261124"><ele>97.5</ele><time>2026-04-26T08:31:35.979Z</time></trkpt><trkpt lat="40.8294387" lon="8.6261972"><ele>99.33333333333334</ele><time>2026-04-26T08:31:36.979Z</time></trkpt><trkpt lat="40.8294464" lon="8.6262833"><ele>101.16666666666667</ele><time>2026-04-26T08:31:37.979Z</time></trkpt><trkpt lat="40.8294549" lon="8.6263681"><ele>103.0</ele><time>2026-04-26T08:31:38.98Z</time></trkpt><trkpt lat="40.8294905" lon="8.6265213"><ele>103.4</ele><time>2026-04-26T08:31:40.978Z</time></trkpt><trkpt lat="40.8295126" lon="8.6266564"><ele>103.80000000000001</ele><time>2026-04-26T08:31:42.979Z</time></trkpt><trkpt lat="40.8295505" lon="8.6267815"><ele>104.2</ele><time>2026-04-26T08:31:44.98Z</time></trkpt><trkpt lat="40.8295904" lon="8.6269193"><ele>104.6</ele><time>2026-04-26T08:31:46.98Z</time></trkpt><trkpt lat="40.8296394" lon="8.6270447"><ele>105.0</ele><time>2026-04-26T08:31:48.978Z</time></trkpt><trkpt lat="40.8297082" lon="8.627166"><ele>105.6</ele><time>2026-04-26T08:31:50.979Z</time></trkpt><trkpt lat="40.8297964" lon="8.6272588"><ele>106.2</ele><time>2026-04-26T08:31:52.978Z</time></trkpt><trkpt lat="40.8298841" lon="8.627357"><ele>106.80000000000001</ele><time>2026-04-26T08:31:54.979Z</time></trkpt><trkpt lat="40.8299587" lon="8.627466"><ele>107.4</ele><time>2026-04-26T08:31:56.979Z</time></trkpt><trkpt lat="40.8300324" lon="8.6275659"><ele>108.0</ele><time>2026-04-26T08:31:58.979Z</time></trkpt><trkpt lat="40.8300932" lon="8.6276813"><ele>108.0</ele><time>2026-04-26T08:32:00.978Z</time></trkpt><trkpt lat="40.8301318" lon="8.627799"><ele>108.00000000000001</ele><time>2026-04-26T08:32:02.979Z</time></trkpt><trkpt lat="40.8301821" lon="8.6279068"><ele>108.00000000000001</ele><time>2026-04-26T08:32:04.98Z</time></trkpt><trkpt lat="40.8302401" lon="8.6279822"><ele>108.0</ele><time>2026-04-26T08:32:06.978Z</time></trkpt><trkpt lat="40.8303052" lon="8.6280441"><ele>108.0</ele><time>2026-04-26T08:32:08.98Z</time></trkpt><trkpt lat="40.8303907" lon="8.6280997"><ele>111.0</ele><time>2026-04-26T08:32:10.98Z</time></trkpt><trkpt lat="40.8304834" lon="8.6281382"><ele>114.00000000000001</ele><time>2026-04-26T08:32:12.979Z</time></trkpt><trkpt lat="40.8305856" lon="8.6281559"><ele>117.00000000000001</ele><time>2026-04-26T08:32:14.98Z</time></trkpt><trkpt lat="40.8306876" lon="8.6281823"><ele>120.0</ele><time>2026-04-26T08:32:16.979Z</time></trkpt><trkpt lat="40.8307723" lon="8.6282383"><ele>123.0</ele><time>2026-04-26T08:32:18.978Z</time></trkpt><trkpt lat="40.8308434" lon="8.6283433"><ele>123.0</ele><time>2026-04-26T08:32:20.98Z</time></trkpt><trkpt lat="40.8309066" lon="8.628474"><ele>123.00000000000001</ele><time>2026-04-26T08:32:22.979Z</time></trkpt><trkpt lat="40.8309605" lon="8.6286174"><ele>123.00000000000001</ele><time>2026-04-26T08:32:24.978Z</time></trkpt><trkpt lat="40.831011" lon="8.6287359"><ele>123.0</ele><time>2026-04-26T08:32:26.98Z</time></trkpt><trkpt lat="40.8310642" lon="8.628808"><ele>123.0</ele><time>2026-04-26T08:32:28.978Z</time></trkpt><trkpt lat="40.8311045" lon="8.6288755"><ele>124.33333333333333</ele><time>2026-04-26T08:32:30.979Z</time></trkpt><trkpt lat="40.8311556" lon="8.6289598"><ele>125.66666666666666</ele><time>2026-04-26T08:32:32.985Z</time></trkpt><trkpt lat="40.8312028" lon="8.6290364"><ele>127.0</ele><time>2026-04-26T08:32:34.98Z</time></trkpt><trkpt lat="40.8312557" lon="8.6291267"><ele>128.33333333333331</ele><time>2026-04-26T08:33:19.98Z</time></trkpt><trkpt lat="40.8313071" lon="8.6292147"><ele>129.66666666666666</ele><time>2026-04-26T08:33:21.979Z</time></trkpt><trkpt lat="40.8313649" lon="8.6292951"><ele>131.0</ele><time>2026-04-26T08:33:23.98Z</time></trkpt><trkpt lat="40.8314327" lon="8.6293813"><ele>132.6</ele><time>2026-04-26T08:33:25.98Z</time></trkpt><trkpt lat="40.8315097" lon="8.6294796"><ele>134.2</ele><time>2026-04-26T08:33:27.98Z</time></trkpt><trkpt lat="40.8315971" lon="8.6295505"><ele>135.8</ele><time>2026-04-26T08:33:29.98Z</time></trkpt><trkpt lat="40.8316795" lon="8.6295938"><ele>137.4</ele><time>2026-04-26T08:33:31.98Z</time></trkpt><trkpt lat="40.8317573" lon="8.6296339"><ele>139.0</ele><time>2026-04-26T08:33:33.979Z</time></trkpt><trkpt lat="40.8318406" lon="8.6296743"><ele>140.0</ele><time>2026-04-26T08:33:35.981Z</time></trkpt><trkpt lat="40.8319404" lon="8.6297238"><ele>141.0</ele><time>2026-04-26T08:33:37.979Z</time></trkpt><trkpt lat="40.8320589" lon="8.629774"><ele>142.0</ele><time>2026-04-26T08:33:39.979Z</time></trkpt><trkpt lat="40.8321234" lon="8.6297867"><ele>143.0</ele><time>2026-04-26T08:33:40.98Z</time></trkpt><trkpt lat="40.8321962" lon="8.6297963"><ele>144.0</ele><time>2026-04-26T08:33:41.979Z</time></trkpt><trkpt lat="40.8322673" lon="8.6298031"><ele>145.0</ele><time>2026-04-26T08:33:42.98Z</time></trkpt><trkpt lat="40.8323884" lon="8.6298192"><ele>145.0</ele><time>2026-04-26T08:33:44.98Z</time></trkpt><trkpt lat="40.8324847" lon="8.6298814"><ele>145.0</ele><time>2026-04-26T08:33:46.981Z</time></trkpt><trkpt lat="40.832558" lon="8.630002"><ele>145.0</ele><time>2026-04-26T08:33:48.98Z</time></trkpt><trkpt lat="40.8325922" lon="8.6300767"><ele>145.0</ele><time>2026-04-26T08:33:49.986Z</time></trkpt><trkpt lat="40.8326245" lon="8.6301537"><ele>145.0</ele><time>2026-04-26T08:33:50.981Z</time></trkpt><trkpt lat="40.8326477" lon="8.630232"><ele>145.0</ele><time>2026-04-26T08:33:51.979Z</time></trkpt><trkpt lat="40.8326658" lon="8.6303154"><ele>146.0</ele><time>2026-04-26T08:33:52.98Z</time></trkpt><trkpt lat="40.8326752" lon="8.6303999"><ele>147.0</ele><time>2026-04-26T08:33:53.98Z</time></trkpt><trkpt lat="40.8326817" lon="8.6304837"><ele>148.0</ele><time>2026-04-26T08:33:54.98Z</time></trkpt><trkpt lat="40.8326974" lon="8.6305654"><ele>149.0</ele><time>2026-04-26T08:33:55.98Z</time></trkpt><trkpt lat="40.8327223" lon="8.6306464"><ele>150.0</ele><time>2026-04-26T08:33:56.979Z</time></trkpt><trkpt lat="40.8327524" lon="8.6307299"><ele>151.0</ele><time>2026-04-26T08:33:57.979Z</time></trkpt><trkpt lat="40.8327856" lon="8.6308141"><ele>152.0</ele><time>2026-04-26T08:33:58.979Z</time></trkpt><trkpt lat="40.8328201" lon="8.6309021"><ele>152.0</ele><time>2026-04-26T08:33:59.98Z</time></trkpt><trkpt lat="40.8328566" lon="8.6309986"><ele>152.0</ele><time>2026-04-26T08:34:00.98Z</time></trkpt><trkpt lat="40.8328944" lon="8.6310976"><ele>152.0</ele><time>2026-04-26T08:34:01.98Z</time></trkpt><trkpt lat="40.8329227" lon="8.6312013"><ele>152.0</ele><time>2026-04-26T08:34:02.979Z</time></trkpt><trkpt lat="40.8329442" lon="8.6313043"><ele>152.0</ele><time>2026-04-26T08:34:03.978Z</time></trkpt><trkpt lat="40.8329612" lon="8.6314011"><ele>152.0</ele><time>2026-04-26T08:34:04.978Z</time></trkpt><trkpt lat="40.8329724" lon="8.6314923"><ele>152.5</ele><time>2026-04-26T08:34:05.98Z</time></trkpt><trkpt lat="40.8329869" lon="8.6315818"><ele>153.0</ele><time>2026-04-26T08:34:06.979Z</time></trkpt><trkpt lat="40.8330097" lon="8.6316663"><ele>153.5</ele><time>2026-04-26T08:34:07.981Z</time></trkpt><trkpt lat="40.8330428" lon="8.6317423"><ele>154.0</ele><time>2026-04-26T08:34:08.98Z</time></trkpt><trkpt lat="40.8330939" lon="8.6318107"><ele>154.5</ele><time>2026-04-26T08:34:09.979Z</time></trkpt><trkpt lat="40.8331677" lon="8.6318714"><ele>155.0</ele><time>2026-04-26T08:34:10.979Z</time></trkpt><trkpt lat="40.8332463" lon="8.6319194"><ele>155.0</ele><time>2026-04-26T08:34:11.978Z</time></trkpt><trkpt lat="40.8333219" lon="8.6319637"><ele>155.0</ele><time>2026-04-26T08:34:12.978Z</time></trkpt><trkpt lat="40.8333972" lon="8.632003"><ele>155.0</ele><time>2026-04-26T08:34:13.98Z</time></trkpt><trkpt lat="40.8334719" lon="8.6320424"><ele>155.0</ele><time>2026-04-26T08:34:14.981Z</time></trkpt><trkpt lat="40.8335412" lon="8.6320725"><ele>155.0</ele><time>2026-04-26T08:34:15.979Z</time></trkpt><trkpt lat="40.8336058" lon="8.6320994"><ele>155.0</ele><time>2026-04-26T08:34:16.978Z</time></trkpt><trkpt lat="40.8337179" lon="8.6321423"><ele>155.0</ele><time>2026-04-26T08:34:18.978Z</time></trkpt><trkpt lat="40.8338061" lon="8.6321895"><ele>155.0</ele><time>2026-04-26T08:34:20.979Z</time></trkpt><trkpt lat="40.8339239" lon="8.6322604"><ele>155.0</ele><time>2026-04-26T08:34:22.978Z</time></trkpt><trkpt lat="40.8339923" lon="8.6323107"><ele>155.0</ele><time>2026-04-26T08:34:23.98Z</time></trkpt><trkpt lat="40.8340672" lon="8.6323709"><ele>155.0</ele><time>2026-04-26T08:34:24.979Z</time></trkpt><trkpt lat="40.834152" lon="8.6324373"><ele>155.0</ele><time>2026-04-26T08:34:25.98Z</time></trkpt><trkpt lat="40.8342472" lon="8.6325113"><ele>155.0</ele><time>2026-04-26T08:34:26.981Z</time></trkpt><trkpt lat="40.8343443" lon="8.6325907"><ele>155.0</ele><time>2026-04-26T08:34:27.978Z</time></trkpt><trkpt lat="40.8344411" lon="8.6326691"><ele>155.0</ele><time>2026-04-26T08:34:28.978Z</time></trkpt><trkpt lat="40.8345345" lon="8.6327416"><ele>155.0</ele><time>2026-04-26T08:34:29.981Z</time></trkpt><trkpt lat="40.8346237" lon="8.6328087"><ele>154.2</ele><time>2026-04-26T08:34:30.979Z</time></trkpt><trkpt lat="40.8347093" lon="8.6328751"><ele>153.4</ele><time>2026-04-26T08:34:31.98Z</time></trkpt><trkpt lat="40.8347911" lon="8.6329409"><ele>152.6</ele><time>2026-04-26T08:34:32.979Z</time></trkpt><trkpt lat="40.8348689" lon="8.6330037"><ele>151.8</ele><time>2026-04-26T08:34:33.979Z</time></trkpt><trkpt lat="40.8349431" lon="8.6330621"><ele>151.0</ele><time>2026-04-26T08:34:34.979Z</time></trkpt><trkpt lat="40.8350156" lon="8.633118"><ele>151.0</ele><time>2026-04-26T08:34:35.979Z</time></trkpt><trkpt lat="40.8350897" lon="8.6331751"><ele>151.0</ele><time>2026-04-26T08:34:36.978Z</time></trkpt><trkpt lat="40.8351647" lon="8.6332306"><ele>151.0</ele><time>2026-04-26T08:34:37.978Z</time></trkpt><trkpt lat="40.8352382" lon="8.6332889"><ele>151.0</ele><time>2026-04-26T08:34:38.982Z</time></trkpt><trkpt lat="40.8353099" lon="8.6333522"><ele>151.0</ele><time>2026-04-26T08:34:39.979Z</time></trkpt><trkpt lat="40.8353793" lon="8.6334202"><ele>151.0</ele><time>2026-04-26T08:34:40.981Z</time></trkpt><trkpt lat="40.8354414" lon="8.6334953"><ele>150.0</ele><time>2026-04-26T08:34:41.979Z</time></trkpt><trkpt lat="40.835492" lon="8.6335771"><ele>149.0</ele><time>2026-04-26T08:34:42.98Z</time></trkpt><trkpt lat="40.8355322" lon="8.6336597"><ele>148.0</ele><time>2026-04-26T08:34:43.979Z</time></trkpt><trkpt lat="40.8355678" lon="8.6337384"><ele>147.0</ele><time>2026-04-26T08:34:44.981Z</time></trkpt><trkpt lat="40.8356207" lon="8.6338641"><ele>146.0</ele><time>2026-04-26T08:34:46.978Z</time></trkpt><trkpt lat="40.8356629" lon="8.6339987"><ele>145.0</ele><time>2026-04-26T08:38:48.979Z</time></trkpt><trkpt lat="40.8356964" lon="8.6340893"><ele>145.0</ele><time>2026-04-26T08:38:50.979Z</time></trkpt><trkpt lat="40.8357319" lon="8.6341933"><ele>145.0</ele><time>2026-04-26T08:38:52.978Z</time></trkpt><trkpt lat="40.8357731" lon="8.6343022"><ele>145.0</ele><time>2026-04-26T08:38:54.978Z</time></trkpt><trkpt lat="40.8358219" lon="8.634407"><ele>145.0</ele><time>2026-04-26T08:38:56.978Z</time></trkpt><trkpt lat="40.8358688" lon="8.6345184"><ele>145.0</ele><time>2026-04-26T08:38:58.978Z</time></trkpt><trkpt lat="40.8359117" lon="8.6346457"><ele>143.8</ele><time>2026-04-26T08:39:00.978Z</time></trkpt><trkpt lat="40.8359539" lon="8.6347675"><ele>142.6</ele><time>2026-04-26T08:39:02.978Z</time></trkpt><trkpt lat="40.8359956" lon="8.6348897"><ele>141.4</ele><time>2026-04-26T08:39:04.979Z</time></trkpt><trkpt lat="40.8360481" lon="8.6350069"><ele>140.2</ele><time>2026-04-26T08:39:06.979Z</time></trkpt><trkpt lat="40.8361117" lon="8.635133"><ele>139.0</ele><time>2026-04-26T08:39:08.978Z</time></trkpt><trkpt lat="40.8361788" lon="8.6352637"><ele>136.0</ele><time>2026-04-26T08:39:10.98Z</time></trkpt><trkpt lat="40.8362228" lon="8.6354107"><ele>133.0</ele><time>2026-04-26T08:39:12.978Z</time></trkpt><trkpt lat="40.8362547" lon="8.6355619"><ele>130.0</ele><time>2026-04-26T08:39:14.979Z</time></trkpt><trkpt lat="40.8362935" lon="8.6357029"><ele>127.0</ele><time>2026-04-26T08:39:16.977Z</time></trkpt><trkpt lat="40.8363339" lon="8.6358355"><ele>127.00000000000001</ele><time>2026-04-26T08:39:18.978Z</time></trkpt><trkpt lat="40.8363827" lon="8.6359854"><ele>127.0</ele><time>2026-04-26T08:39:20.979Z</time></trkpt><trkpt lat="40.8364103" lon="8.6360646"><ele>127.0</ele><time>2026-04-26T08:39:21.978Z</time></trkpt><trkpt lat="40.8364378" lon="8.6361444"><ele>127.0</ele><time>2026-04-26T08:39:22.978Z</time></trkpt><trkpt lat="40.8364652" lon="8.6362237"><ele>127.00000000000001</ele><time>2026-04-26T08:39:23.977Z</time></trkpt><trkpt lat="40.8364953" lon="8.6363016"><ele>127.0</ele><time>2026-04-26T08:39:24.978Z</time></trkpt><trkpt lat="40.8365247" lon="8.636379"><ele>126.85714285714286</ele><time>2026-04-26T08:39:25.979Z</time></trkpt><trkpt lat="40.8365565" lon="8.6364525"><ele>126.71428571428571</ele><time>2026-04-26T08:39:26.979Z</time></trkpt><trkpt lat="40.8365892" lon="8.6365267"><ele>126.57142857142857</ele><time>2026-04-26T08:39:27.978Z</time></trkpt><trkpt lat="40.8366254" lon="8.6366016"><ele>126.42857142857143</ele><time>2026-04-26T08:39:28.978Z</time></trkpt><trkpt lat="40.8366652" lon="8.636674"><ele>126.28571428571428</ele><time>2026-04-26T08:39:29.978Z</time></trkpt><trkpt lat="40.8367115" lon="8.6367418"><ele>126.14285714285714</ele><time>2026-04-26T08:39:30.98Z</time></trkpt><trkpt lat="40.8367604" lon="8.6368075"><ele>126.0</ele><time>2026-04-26T08:39:31.978Z</time></trkpt><trkpt lat="40.8368107" lon="8.636873"><ele>126.33333333333333</ele><time>2026-04-26T08:39:32.978Z</time></trkpt><trkpt lat="40.8368582" lon="8.6369384"><ele>126.66666666666666</ele><time>2026-04-26T08:39:33.978Z</time></trkpt><trkpt lat="40.8369006" lon="8.6370029"><ele>127.0</ele><time>2026-04-26T08:39:34.979Z</time></trkpt><trkpt lat="40.8369393" lon="8.6370701"><ele>127.33333333333333</ele><time>2026-04-26T08:39:35.978Z</time></trkpt><trkpt lat="40.8370061" lon="8.6372011"><ele>127.66666666666666</ele><time>2026-04-26T08:39:37.979Z</time></trkpt><trkpt lat="40.8370571" lon="8.637334"><ele>128.0</ele><time>2026-04-26T08:39:39.978Z</time></trkpt><trkpt lat="40.8371058" lon="8.6374954"><ele>127.99999999999999</ele><time>2026-04-26T08:39:41.979Z</time></trkpt><trkpt lat="40.8371338" lon="8.6375841"><ele>128.0</ele><time>2026-04-26T08:39:42.979Z</time></trkpt><trkpt lat="40.837161" lon="8.6376747"><ele>128.0</ele><time>2026-04-26T08:39:43.982Z</time></trkpt><trkpt lat="40.8371939" lon="8.6377661"><ele>128.0</ele><time>2026-04-26T08:39:44.978Z</time></trkpt><trkpt lat="40.8372295" lon="8.6378584"><ele>127.99999999999999</ele><time>2026-04-26T08:39:45.979Z</time></trkpt><trkpt lat="40.8372646" lon="8.637952"><ele>128.0</ele><time>2026-04-26T08:39:46.977Z</time></trkpt><trkpt lat="40.8372984" lon="8.6380459"><ele>127.49999999999999</ele><time>2026-04-26T08:39:47.978Z</time></trkpt><trkpt lat="40.837333" lon="8.6381391"><ele>127.0</ele><time>2026-04-26T08:39:48.978Z</time></trkpt><trkpt lat="40.8373677" lon="8.6382306"><ele>126.5</ele><time>2026-04-26T08:39:49.978Z</time></trkpt><trkpt lat="40.8374022" lon="8.6383184"><ele>126.0</ele><time>2026-04-26T08:39:50.978Z</time></trkpt><trkpt lat="40.8374349" lon="8.6384075"><ele>125.49999999999999</ele><time>2026-04-26T08:39:51.978Z</time></trkpt><trkpt lat="40.8374678" lon="8.6384984"><ele>125.0</ele><time>2026-04-26T08:39:52.978Z</time></trkpt><trkpt lat="40.8375025" lon="8.6385906"><ele>124.85714285714286</ele><time>2026-04-26T08:39:53.977Z</time></trkpt><trkpt lat="40.8375331" lon="8.6386836"><ele>124.71428571428572</ele><time>2026-04-26T08:39:54.978Z</time></trkpt><trkpt lat="40.8375634" lon="8.638774"><ele>124.57142857142858</ele><time>2026-04-26T08:39:55.978Z</time></trkpt><trkpt lat="40.837594" lon="8.6388626"><ele>124.42857142857143</ele><time>2026-04-26T08:39:56.979Z</time></trkpt><trkpt lat="40.8376234" lon="8.6389508"><ele>124.2857142857143</ele><time>2026-04-26T08:39:57.978Z</time></trkpt><trkpt lat="40.8376541" lon="8.6390372"><ele>124.14285714285715</ele><time>2026-04-26T08:39:58.979Z</time></trkpt><trkpt lat="40.837688" lon="8.6391167"><ele>124.0</ele><time>2026-04-26T08:39:59.978Z</time></trkpt><trkpt lat="40.8377217" lon="8.6391943"><ele>123.50000000000001</ele><time>2026-04-26T08:40:00.978Z</time></trkpt><trkpt lat="40.8377577" lon="8.6392711"><ele>123.0</ele><time>2026-04-26T08:40:01.977Z</time></trkpt><trkpt lat="40.8377925" lon="8.6393458"><ele>122.5</ele><time>2026-04-26T08:40:02.977Z</time></trkpt><trkpt lat="40.8378401" lon="8.6394623"><ele>122.0</ele><time>2026-04-26T08:40:04.977Z</time></trkpt><trkpt lat="40.8378683" lon="8.6395481"><ele>121.50000000000001</ele><time>2026-04-26T08:40:07.981Z</time></trkpt><trkpt lat="40.8379173" lon="8.6396584"><ele>121.0</ele><time>2026-04-26T08:40:30.979Z</time></trkpt><trkpt lat="40.8379512" lon="8.6397643"><ele>121.00000000000001</ele><time>2026-04-26T08:40:32.978Z</time></trkpt><trkpt lat="40.8379799" lon="8.639871"><ele>121.0</ele><time>2026-04-26T08:40:34.978Z</time></trkpt><trkpt lat="40.8380136" lon="8.6399734"><ele>121.0</ele><time>2026-04-26T08:40:36.978Z</time></trkpt><trkpt lat="40.8380456" lon="8.640078"><ele>121.0</ele><time>2026-04-26T08:40:38.978Z</time></trkpt><trkpt lat="40.8380759" lon="8.6401841"><ele>121.00000000000001</ele><time>2026-04-26T08:40:40.977Z</time></trkpt><trkpt lat="40.8381142" lon="8.6402812"><ele>121.0</ele><time>2026-04-26T08:40:42.979Z</time></trkpt><trkpt lat="40.8381481" lon="8.6403727"><ele>121.00000000000001</ele><time>2026-04-26T08:40:44.979Z</time></trkpt><trkpt lat="40.8381855" lon="8.6404603"><ele>121.0</ele><time>2026-04-26T08:40:46.98Z</time></trkpt><trkpt lat="40.8382209" lon="8.6405467"><ele>121.0</ele><time>2026-04-26T08:40:48.978Z</time></trkpt><trkpt lat="40.8382542" lon="8.6406365"><ele>121.0</ele><time>2026-04-26T08:40:50.978Z</time></trkpt><trkpt lat="40.8382921" lon="8.640723"><ele>121.00000000000001</ele><time>2026-04-26T08:40:52.978Z</time></trkpt><trkpt lat="40.8383317" lon="8.6408105"><ele>121.0</ele><time>2026-04-26T08:40:54.979Z</time></trkpt><trkpt lat="40.8383764" lon="8.6408947"><ele>121.0</ele><time>2026-04-26T08:40:56.979Z</time></trkpt><trkpt lat="40.8384338" lon="8.6409836"><ele>121.0</ele><time>2026-04-26T08:40:58.979Z</time></trkpt><trkpt lat="40.8385021" lon="8.6410738"><ele>121.0</ele><time>2026-04-26T08:41:00.978Z</time></trkpt><trkpt lat="40.8385786" lon="8.6411616"><ele>121.0</ele><time>2026-04-26T08:41:02.98Z</time></trkpt><trkpt lat="40.8386579" lon="8.6412419"><ele>121.0</ele><time>2026-04-26T08:41:04.978Z</time></trkpt><trkpt lat="40.8387376" lon="8.6413279"><ele>120.25</ele><time>2026-04-26T08:41:06.978Z</time></trkpt><trkpt lat="40.8388221" lon="8.6414199"><ele>119.5</ele><time>2026-04-26T08:41:08.98Z</time></trkpt><trkpt lat="40.8389154" lon="8.641518"><ele>118.75</ele><time>2026-04-26T08:41:10.978Z</time></trkpt><trkpt lat="40.839008" lon="8.6416133"><ele>118.0</ele><time>2026-04-26T08:41:12.978Z</time></trkpt><trkpt lat="40.839093" lon="8.641696"><ele>118.0</ele><time>2026-04-26T08:41:14.979Z</time></trkpt><trkpt lat="40.8391714" lon="8.6417695"><ele>118.00000000000001</ele><time>2026-04-26T08:41:16.978Z</time></trkpt><trkpt lat="40.8392605" lon="8.6418458"><ele>118.00000000000001</ele><time>2026-04-26T08:41:18.979Z</time></trkpt><trkpt lat="40.8393482" lon="8.6419308"><ele>118.0</ele><time>2026-04-26T08:41:20.978Z</time></trkpt><trkpt lat="40.839431" lon="8.6420237"><ele>118.0</ele><time>2026-04-26T08:41:22.979Z</time></trkpt><trkpt lat="40.8395136" lon="8.642119"><ele>117.0</ele><time>2026-04-26T08:41:24.978Z</time></trkpt><trkpt lat="40.8396001" lon="8.6422128"><ele>116.00000000000001</ele><time>2026-04-26T08:41:26.981Z</time></trkpt><trkpt lat="40.8396857" lon="8.6423002"><ele>115.00000000000001</ele><time>2026-04-26T08:41:28.977Z</time></trkpt><trkpt lat="40.8397682" lon="8.6423925"><ele>114.0</ele><time>2026-04-26T08:41:30.979Z</time></trkpt><trkpt lat="40.8398561" lon="8.6424867"><ele>113.0</ele><time>2026-04-26T08:41:32.978Z</time></trkpt><trkpt lat="40.8399446" lon="8.642575"><ele>113.0</ele><time>2026-04-26T08:41:34.979Z</time></trkpt><trkpt lat="40.8400334" lon="8.642674"><ele>113.00000000000001</ele><time>2026-04-26T08:41:36.978Z</time></trkpt><trkpt lat="40.840131" lon="8.6427819"><ele>113.00000000000001</ele><time>2026-04-26T08:41:38.978Z</time></trkpt><trkpt lat="40.8401825" lon="8.6428388"><ele>113.0</ele><time>2026-04-26T08:41:39.979Z</time></trkpt><trkpt lat="40.8402351" lon="8.6428986"><ele>113.0</ele><time>2026-04-26T08:41:40.979Z</time></trkpt><trkpt lat="40.8402895" lon="8.6429596"><ele>112.14285714285715</ele><time>2026-04-26T08:41:41.98Z</time></trkpt><trkpt lat="40.8403457" lon="8.6430212"><ele>111.28571428571428</ele><time>2026-04-26T08:41:42.978Z</time></trkpt><trkpt lat="40.8403991" lon="8.64308"><ele>110.42857142857143</ele><time>2026-04-26T08:41:43.98Z</time></trkpt><trkpt lat="40.8404517" lon="8.6431403"><ele>109.57142857142858</ele><time>2026-04-26T08:41:44.98Z</time></trkpt><trkpt lat="40.8405029" lon="8.6432033"><ele>108.71428571428572</ele><time>2026-04-26T08:41:45.978Z</time></trkpt><trkpt lat="40.8405508" lon="8.6432677"><ele>107.85714285714286</ele><time>2026-04-26T08:41:46.979Z</time></trkpt><trkpt lat="40.8405977" lon="8.6433344"><ele>107.0</ele><time>2026-04-26T08:41:47.981Z</time></trkpt><trkpt lat="40.8406452" lon="8.6433998"><ele>106.99999999999999</ele><time>2026-04-26T08:41:48.978Z</time></trkpt><trkpt lat="40.8406895" lon="8.6434645"><ele>107.0</ele><time>2026-04-26T08:41:49.978Z</time></trkpt><trkpt lat="40.8407308" lon="8.6435299"><ele>107.0</ele><time>2026-04-26T08:41:50.978Z</time></trkpt><trkpt lat="40.840775" lon="8.6435909"><ele>107.0</ele><time>2026-04-26T08:41:51.978Z</time></trkpt><trkpt lat="40.8408677" lon="8.6437036"><ele>106.99999999999999</ele><time>2026-04-26T08:41:53.979Z</time></trkpt><trkpt lat="40.8409515" lon="8.6438269"><ele>107.0</ele><time>2026-04-26T08:41:55.978Z</time></trkpt><trkpt lat="40.8409937" lon="8.6438985"><ele>106.00000000000001</ele><time>2026-04-26T08:41:56.978Z</time></trkpt><trkpt lat="40.8410369" lon="8.6439694"><ele>105.0</ele><time>2026-04-26T08:41:57.978Z</time></trkpt><trkpt lat="40.8410785" lon="8.6440392"><ele>104.0</ele><time>2026-04-26T08:41:58.979Z</time></trkpt><trkpt lat="40.8411227" lon="8.6441096"><ele>103.0</ele><time>2026-04-26T08:41:59.979Z</time></trkpt><trkpt lat="40.8411683" lon="8.6441797"><ele>102.0</ele><time>2026-04-26T08:42:00.977Z</time></trkpt><trkpt lat="40.8412117" lon="8.6442499"><ele>101.00000000000001</ele><time>2026-04-26T08:42:01.978Z</time></trkpt><trkpt lat="40.8412546" lon="8.6443221"><ele>100.0</ele><time>2026-04-26T08:42:02.979Z</time></trkpt><trkpt lat="40.8412978" lon="8.6443969"><ele>98.71428571428572</ele><time>2026-04-26T08:42:03.978Z</time></trkpt><trkpt lat="40.8413453" lon="8.6444711"><ele>97.42857142857143</ele><time>2026-04-26T08:42:04.978Z</time></trkpt><trkpt lat="40.8413939" lon="8.6445404"><ele>96.14285714285714</ele><time>2026-04-26T08:42:05.98Z</time></trkpt><trkpt lat="40.8414432" lon="8.6446077"><ele>94.85714285714286</ele><time>2026-04-26T08:42:06.978Z</time></trkpt><trkpt lat="40.8414906" lon="8.644671"><ele>93.57142857142857</ele><time>2026-04-26T08:42:07.98Z</time></trkpt><trkpt lat="40.8415365" lon="8.6447336"><ele>92.28571428571429</ele><time>2026-04-26T08:42:08.978Z</time></trkpt><trkpt lat="40.8415851" lon="8.6447939"><ele>91.0</ele><time>2026-04-26T08:42:09.978Z</time></trkpt><trkpt lat="40.8416381" lon="8.6448535"><ele>91.0</ele><time>2026-04-26T08:42:10.978Z</time></trkpt><trkpt lat="40.8416924" lon="8.6449162"><ele>91.0</ele><time>2026-04-26T08:42:11.98Z</time></trkpt><trkpt lat="40.8417458" lon="8.6449785"><ele>91.0</ele><time>2026-04-26T08:42:12.979Z</time></trkpt><trkpt lat="40.8417979" lon="8.6450363"><ele>91.0</ele><time>2026-04-26T08:42:13.978Z</time></trkpt><trkpt lat="40.8418492" lon="8.6450941"><ele>91.0</ele><time>2026-04-26T08:42:14.979Z</time></trkpt><trkpt lat="40.8418975" lon="8.6451556"><ele>91.0</ele><time>2026-04-26T08:42:15.978Z</time></trkpt><trkpt lat="40.841958" lon="8.6452965"><ele>89.8</ele><time>2026-04-26T08:42:17.979Z</time></trkpt><trkpt lat="40.8419557" lon="8.6454499"><ele>88.6</ele><time>2026-04-26T08:42:19.978Z</time></trkpt><trkpt lat="40.8419502" lon="8.6455337"><ele>87.4</ele><time>2026-04-26T08:42:20.979Z</time></trkpt><trkpt lat="40.8419605" lon="8.6456797"><ele>86.2</ele><time>2026-04-26T08:42:22.977Z</time></trkpt><trkpt lat="40.8420057" lon="8.6458003"><ele>85.0</ele><time>2026-04-26T08:42:29.978Z</time></trkpt><trkpt lat="40.8420698" lon="8.6458859"><ele>85.0</ele><time>2026-04-26T08:42:31.977Z</time></trkpt><trkpt lat="40.8421045" lon="8.645984"><ele>85.0</ele><time>2026-04-26T08:42:33.978Z</time></trkpt><trkpt lat="40.8420354" lon="8.6460252"><ele>85.0</ele><time>2026-04-26T08:42:35.977Z</time></trkpt><trkpt lat="40.8419459" lon="8.6459428"><ele>85.0</ele><time>2026-04-26T08:42:37.979Z</time></trkpt><trkpt lat="40.8418994" lon="8.6458861"><ele>85.0</ele><time>2026-04-26T08:42:38.978Z</time></trkpt><trkpt lat="40.8418509" lon="8.6458324"><ele>85.0</ele><time>2026-04-26T08:42:39.977Z</time></trkpt><trkpt lat="40.8417987" lon="8.6457847"><ele>84.66666666666666</ele><time>2026-04-26T08:42:40.978Z</time></trkpt><trkpt lat="40.8417437" lon="8.6457411"><ele>84.33333333333333</ele><time>2026-04-26T08:42:41.979Z</time></trkpt><trkpt lat="40.841617" lon="8.6457156"><ele>84.0</ele><time>2026-04-26T08:42:43.978Z</time></trkpt><trkpt lat="40.8415498" lon="8.6457368"><ele>83.66666666666667</ele><time>2026-04-26T08:42:44.978Z</time></trkpt><trkpt lat="40.8414916" lon="8.6457799"><ele>83.33333333333334</ele><time>2026-04-26T08:42:45.979Z</time></trkpt><trkpt lat="40.8414473" lon="8.6458407"><ele>83.0</ele><time>2026-04-26T08:42:46.978Z</time></trkpt><trkpt lat="40.8414086" lon="8.6459875"><ele>81.5</ele><time>2026-04-26T08:42:48.978Z</time></trkpt><trkpt lat="40.8414558" lon="8.6461294"><ele>80.0</ele><time>2026-04-26T08:42:50.979Z</time></trkpt><trkpt lat="40.8415431" lon="8.6462493"><ele>78.5</ele><time>2026-04-26T08:42:52.978Z</time></trkpt><trkpt lat="40.8415825" lon="8.6463149"><ele>77.0</ele><time>2026-04-26T08:42:53.978Z</time></trkpt><trkpt lat="40.8416156" lon="8.6463866"><ele>75.5</ele><time>2026-04-26T08:42:54.977Z</time></trkpt><trkpt lat="40.8416457" lon="8.6464607"><ele>74.0</ele><time>2026-04-26T08:42:55.977Z</time></trkpt><trkpt lat="40.8416798" lon="8.6465358"><ele>74.0</ele><time>2026-04-26T08:42:56.978Z</time></trkpt><trkpt lat="40.8417134" lon="8.6466085"><ele>74.0</ele><time>2026-04-26T08:42:57.978Z</time></trkpt><trkpt lat="40.8417441" lon="8.646683"><ele>74.0</ele><time>2026-04-26T08:42:58.978Z</time></trkpt><trkpt lat="40.841781" lon="8.6467554"><ele>74.0</ele><time>2026-04-26T08:42:59.978Z</time></trkpt><trkpt lat="40.8418654" lon="8.6468756"><ele>74.0</ele><time>2026-04-26T08:43:01.977Z</time></trkpt><trkpt lat="40.8419684" lon="8.6469429"><ele>74.0</ele><time>2026-04-26T08:43:03.977Z</time></trkpt><trkpt lat="40.8420753" lon="8.6469417"><ele>72.5</ele><time>2026-04-26T08:43:05.979Z</time></trkpt><trkpt lat="40.8421843" lon="8.6469279"><ele>71.0</ele><time>2026-04-26T08:43:07.978Z</time></trkpt><trkpt lat="40.8422941" lon="8.6469609"><ele>69.5</ele><time>2026-04-26T08:43:09.979Z</time></trkpt><trkpt lat="40.8423905" lon="8.6470521"><ele>68.0</ele><time>2026-04-26T08:43:11.978Z</time></trkpt><trkpt lat="40.8424501" lon="8.6471758"><ele>66.5</ele><time>2026-04-26T08:43:13.978Z</time></trkpt><trkpt lat="40.8424799" lon="8.6472512"><ele>65.0</ele><time>2026-04-26T08:43:14.979Z</time></trkpt><trkpt lat="40.8425112" lon="8.6473353"><ele>63.5</ele><time>2026-04-26T08:43:15.978Z</time></trkpt><trkpt lat="40.8425401" lon="8.6474134"><ele>62.0</ele><time>2026-04-26T08:43:16.979Z</time></trkpt><trkpt lat="40.8425832" lon="8.6475524"><ele>60.50000000000001</ele><time>2026-04-26T08:43:18.978Z</time></trkpt><trkpt lat="40.8425968" lon="8.6476883"><ele>59.0</ele><time>2026-04-26T08:43:20.978Z</time></trkpt><trkpt lat="40.8426231" lon="8.6478187"><ele>59.00000000000001</ele><time>2026-04-26T08:43:22.979Z</time></trkpt><trkpt lat="40.8426616" lon="8.6479341"><ele>59.0</ele><time>2026-04-26T08:43:24.979Z</time></trkpt><trkpt lat="40.8427325" lon="8.6480115"><ele>59.0</ele><time>2026-04-26T08:43:26.978Z</time></trkpt><trkpt lat="40.8428396" lon="8.648029"><ele>59.0</ele><time>2026-04-26T08:43:28.978Z</time></trkpt><trkpt lat="40.8429048" lon="8.6480303"><ele>59.00000000000001</ele><time>2026-04-26T08:43:29.979Z</time></trkpt><trkpt lat="40.842968" lon="8.6480256"><ele>59.0</ele><time>2026-04-26T08:43:30.979Z</time></trkpt><trkpt lat="40.8430933" lon="8.6480164"><ele>59.0</ele><time>2026-04-26T08:43:32.98Z</time></trkpt><trkpt lat="40.8432169" lon="8.6480099"><ele>59.00000000000001</ele><time>2026-04-26T08:43:34.977Z</time></trkpt><trkpt lat="40.8433279" lon="8.6480083"><ele>59.00000000000001</ele><time>2026-04-26T08:43:36.977Z</time></trkpt><trkpt lat="40.8434099" lon="8.648016"><ele>59.0</ele><time>2026-04-26T08:43:38.979Z</time></trkpt><trkpt lat="40.8434752" lon="8.6480276"><ele>59.0</ele><time>2026-04-26T08:43:47.979Z</time></trkpt><trkpt lat="40.8435635" lon="8.6480358"><ele>58.5</ele><time>2026-04-26T08:43:50.979Z</time></trkpt><trkpt lat="40.8436678" lon="8.6480649"><ele>58.0</ele><time>2026-04-26T08:43:52.977Z</time></trkpt><trkpt lat="40.8437893" lon="8.6480953"><ele>57.5</ele><time>2026-04-26T08:43:54.978Z</time></trkpt><trkpt lat="40.8438983" lon="8.6481588"><ele>57.0</ele><time>2026-04-26T08:43:56.979Z</time></trkpt><trkpt lat="40.8439957" lon="8.6482567"><ele>57.0</ele><time>2026-04-26T08:43:58.979Z</time></trkpt><trkpt lat="40.8440648" lon="8.6483902"><ele>57.0</ele><time>2026-04-26T08:44:00.979Z</time></trkpt><trkpt lat="40.8440975" lon="8.6484649"><ele>57.0</ele><time>2026-04-26T08:44:01.978Z</time></trkpt><trkpt lat="40.8441312" lon="8.6485416"><ele>57.0</ele><time>2026-04-26T08:44:02.979Z</time></trkpt><trkpt lat="40.8441617" lon="8.6486191"><ele>57.0</ele><time>2026-04-26T08:44:03.979Z</time></trkpt><trkpt lat="40.8441944" lon="8.6486981"><ele>57.0</ele><time>2026-04-26T08:44:04.978Z</time></trkpt><trkpt lat="40.8442304" lon="8.6487784"><ele>58.333333333333336</ele><time>2026-04-26T08:44:05.978Z</time></trkpt><trkpt lat="40.8442655" lon="8.6488532"><ele>59.66666666666667</ele><time>2026-04-26T08:44:06.979Z</time></trkpt><trkpt lat="40.8443036" lon="8.6489216"><ele>61.0</ele><time>2026-04-26T08:44:07.979Z</time></trkpt><trkpt lat="40.8443864" lon="8.6490461"><ele>62.333333333333336</ele><time>2026-04-26T08:44:09.978Z</time></trkpt><trkpt lat="40.8444478" lon="8.6491785"><ele>63.66666666666667</ele><time>2026-04-26T08:44:11.978Z</time></trkpt><trkpt lat="40.8444792" lon="8.6492551"><ele>65.0</ele><time>2026-04-26T08:44:12.978Z</time></trkpt><trkpt lat="40.8445115" lon="8.6493396"><ele>65.57142857142858</ele><time>2026-04-26T08:44:13.977Z</time></trkpt><trkpt lat="40.8445374" lon="8.6494286"><ele>66.14285714285714</ele><time>2026-04-26T08:44:14.977Z</time></trkpt><trkpt lat="40.8445544" lon="8.6495154"><ele>66.71428571428572</ele><time>2026-04-26T08:44:15.978Z</time></trkpt><trkpt lat="40.8445659" lon="8.6496027"><ele>67.28571428571429</ele><time>2026-04-26T08:44:16.978Z</time></trkpt><trkpt lat="40.8445715" lon="8.6496957"><ele>67.85714285714286</ele><time>2026-04-26T08:44:17.979Z</time></trkpt><trkpt lat="40.8445761" lon="8.6497877"><ele>68.42857142857143</ele><time>2026-04-26T08:44:18.979Z</time></trkpt><trkpt lat="40.8445772" lon="8.6498733"><ele>69.0</ele><time>2026-04-26T08:44:19.979Z</time></trkpt><trkpt lat="40.8445733" lon="8.6500234"><ele>69.5</ele><time>2026-04-26T08:44:21.978Z</time></trkpt><trkpt lat="40.8445933" lon="8.6501578"><ele>70.0</ele><time>2026-04-26T08:44:23.979Z</time></trkpt><trkpt lat="40.8446094" lon="8.6502781"><ele>70.5</ele><time>2026-04-26T08:44:25.98Z</time></trkpt><trkpt lat="40.8445964" lon="8.6504236"><ele>71.0</ele><time>2026-04-26T08:44:27.978Z</time></trkpt><trkpt lat="40.8445824" lon="8.6505072"><ele>71.5</ele><time>2026-04-26T08:44:28.977Z</time></trkpt><trkpt lat="40.844566" lon="8.6505968"><ele>72.0</ele><time>2026-04-26T08:44:29.979Z</time></trkpt><trkpt lat="40.8445524" lon="8.650694"><ele>72.33333333333333</ele><time>2026-04-26T08:44:30.979Z</time></trkpt><trkpt lat="40.8445427" lon="8.6507914"><ele>72.66666666666667</ele><time>2026-04-26T08:44:31.978Z</time></trkpt><trkpt lat="40.8445368" lon="8.6508898"><ele>73.0</ele><time>2026-04-26T08:44:32.978Z</time></trkpt><trkpt lat="40.8445285" lon="8.6509947"><ele>73.33333333333334</ele><time>2026-04-26T08:44:33.979Z</time></trkpt><trkpt lat="40.8445237" lon="8.651099"><ele>73.66666666666667</ele><time>2026-04-26T08:44:34.978Z</time></trkpt><trkpt lat="40.844523" lon="8.6511976"><ele>74.0</ele><time>2026-04-26T08:44:35.978Z</time></trkpt><trkpt lat="40.844525" lon="8.6512928"><ele>74.0</ele><time>2026-04-26T08:44:36.978Z</time></trkpt><trkpt lat="40.8445349" lon="8.651381"><ele>74.0</ele><time>2026-04-26T08:44:37.979Z</time></trkpt><trkpt lat="40.844568" lon="8.6515285"><ele>74.0</ele><time>2026-04-26T08:44:39.979Z</time></trkpt><trkpt lat="40.8446131" lon="8.6516648"><ele>74.0</ele><time>2026-04-26T08:44:41.978Z</time></trkpt><trkpt lat="40.8446882" lon="8.6517914"><ele>74.0</ele><time>2026-04-26T08:44:43.979Z</time></trkpt><trkpt lat="40.8447364" lon="8.6518507"><ele>74.0</ele><time>2026-04-26T08:44:44.978Z</time></trkpt><trkpt lat="40.8447834" lon="8.6519109"><ele>74.0</ele><time>2026-04-26T08:44:45.979Z</time></trkpt><trkpt lat="40.8448309" lon="8.6519699"><ele>74.0</ele><time>2026-04-26T08:44:46.978Z</time></trkpt><trkpt lat="40.8448806" lon="8.6520293"><ele>74.0</ele><time>2026-04-26T08:44:47.978Z</time></trkpt><trkpt lat="40.8449292" lon="8.6520938"><ele>74.0</ele><time>2026-04-26T08:44:48.979Z</time></trkpt><trkpt lat="40.8449755" lon="8.6521575"><ele>74.0</ele><time>2026-04-26T08:44:49.98Z</time></trkpt><trkpt lat="40.8450192" lon="8.6522267"><ele>74.0</ele><time>2026-04-26T08:44:50.98Z</time></trkpt><trkpt lat="40.8450595" lon="8.6522971"><ele>74.0</ele><time>2026-04-26T08:44:51.979Z</time></trkpt><trkpt lat="40.8450996" lon="8.6523672"><ele>74.0</ele><time>2026-04-26T08:44:52.98Z</time></trkpt><trkpt lat="40.8451363" lon="8.6524418"><ele>74.0</ele><time>2026-04-26T08:44:53.98Z</time></trkpt><trkpt lat="40.8451747" lon="8.652517"><ele>74.0</ele><time>2026-04-26T08:44:54.979Z</time></trkpt><trkpt lat="40.8452089" lon="8.6525955"><ele>74.0</ele><time>2026-04-26T08:44:55.978Z</time></trkpt><trkpt lat="40.8452367" lon="8.6526821"><ele>74.0</ele><time>2026-04-26T08:44:56.978Z</time></trkpt><trkpt lat="40.8452569" lon="8.6527748"><ele>74.0</ele><time>2026-04-26T08:44:57.978Z</time></trkpt><trkpt lat="40.8452717" lon="8.6528683"><ele>75.57142857142857</ele><time>2026-04-26T08:44:58.977Z</time></trkpt><trkpt lat="40.8452851" lon="8.6529561"><ele>77.14285714285714</ele><time>2026-04-26T08:44:59.978Z</time></trkpt><trkpt lat="40.8453021" lon="8.6530437"><ele>78.71428571428572</ele><time>2026-04-26T08:45:00.979Z</time></trkpt><trkpt lat="40.8453238" lon="8.6531308"><ele>80.28571428571428</ele><time>2026-04-26T08:45:01.979Z</time></trkpt><trkpt lat="40.8453521" lon="8.6532191"><ele>81.85714285714285</ele><time>2026-04-26T08:45:02.979Z</time></trkpt><trkpt lat="40.8453807" lon="8.653307"><ele>83.42857142857143</ele><time>2026-04-26T08:45:03.977Z</time></trkpt><trkpt lat="40.8454087" lon="8.6533908"><ele>85.0</ele><time>2026-04-26T08:45:04.977Z</time></trkpt><trkpt lat="40.8454399" lon="8.6534735"><ele>85.0</ele><time>2026-04-26T08:45:05.979Z</time></trkpt><trkpt lat="40.8454679" lon="8.6535597"><ele>85.0</ele><time>2026-04-26T08:45:06.979Z</time></trkpt><trkpt lat="40.8455011" lon="8.6536475"><ele>85.0</ele><time>2026-04-26T08:45:07.978Z</time></trkpt><trkpt lat="40.8455321" lon="8.6537359"><ele>85.0</ele><time>2026-04-26T08:45:08.98Z</time></trkpt><trkpt lat="40.8455661" lon="8.6538244"><ele>85.0</ele><time>2026-04-26T08:45:09.979Z</time></trkpt><trkpt lat="40.8456002" lon="8.6539115"><ele>85.0</ele><time>2026-04-26T08:45:10.98Z</time></trkpt><trkpt lat="40.8456399" lon="8.6539955"><ele>85.0</ele><time>2026-04-26T08:45:11.98Z</time></trkpt><trkpt lat="40.8456829" lon="8.6540803"><ele>84.16666666666666</ele><time>2026-04-26T08:45:12.979Z</time></trkpt><trkpt lat="40.8457334" lon="8.6541613"><ele>83.33333333333333</ele><time>2026-04-26T08:45:13.978Z</time></trkpt><trkpt lat="40.8457834" lon="8.6542311"><ele>82.5</ele><time>2026-04-26T08:45:14.978Z</time></trkpt><trkpt lat="40.8458617" lon="8.6543389"><ele>81.66666666666667</ele><time>2026-04-26T08:45:16.977Z</time></trkpt><trkpt lat="40.8459041" lon="8.6544723"><ele>80.83333333333334</ele><time>2026-04-26T08:45:18.979Z</time></trkpt><trkpt lat="40.8459171" lon="8.6545578"><ele>80.0</ele><time>2026-04-26T08:45:19.978Z</time></trkpt><trkpt lat="40.8459297" lon="8.6546541"><ele>80.0</ele><time>2026-04-26T08:45:20.979Z</time></trkpt><trkpt lat="40.845951" lon="8.6547551"><ele>80.0</ele><time>2026-04-26T08:45:21.978Z</time></trkpt><trkpt lat="40.8459869" lon="8.6548507"><ele>80.0</ele><time>2026-04-26T08:45:22.978Z</time></trkpt><trkpt lat="40.8460303" lon="8.6549378"><ele>80.0</ele><time>2026-04-26T08:45:23.979Z</time></trkpt><trkpt lat="40.8460693" lon="8.6550182"><ele>80.0</ele><time>2026-04-26T08:45:24.979Z</time></trkpt><trkpt lat="40.8461055" lon="8.6550974"><ele>80.0</ele><time>2026-04-26T08:45:25.978Z</time></trkpt><trkpt lat="40.8461336" lon="8.6551849"><ele>81.0</ele><time>2026-04-26T08:45:26.978Z</time></trkpt><trkpt lat="40.8461529" lon="8.6552762"><ele>82.0</ele><time>2026-04-26T08:45:27.978Z</time></trkpt><trkpt lat="40.8461699" lon="8.6553729"><ele>83.0</ele><time>2026-04-26T08:45:28.978Z</time></trkpt><trkpt lat="40.8461879" lon="8.655471"><ele>84.0</ele><time>2026-04-26T08:45:29.98Z</time></trkpt><trkpt lat="40.846213" lon="8.6555701"><ele>85.0</ele><time>2026-04-26T08:45:30.979Z</time></trkpt><trkpt lat="40.8462482" lon="8.6556656"><ele>86.0</ele><time>2026-04-26T08:45:31.982Z</time></trkpt><trkpt lat="40.8462873" lon="8.6557586"><ele>86.0</ele><time>2026-04-26T08:45:32.978Z</time></trkpt><trkpt lat="40.8463297" lon="8.6558531"><ele>86.0</ele><time>2026-04-26T08:45:33.977Z</time></trkpt><trkpt lat="40.8463715" lon="8.6559432"><ele>86.0</ele><time>2026-04-26T08:45:34.977Z</time></trkpt><trkpt lat="40.8464139" lon="8.6560323"><ele>86.0</ele><time>2026-04-26T08:45:35.978Z</time></trkpt><trkpt lat="40.8464656" lon="8.6561187"><ele>86.0</ele><time>2026-04-26T08:45:36.977Z</time></trkpt><trkpt lat="40.8465259" lon="8.6561889"><ele>86.0</ele><time>2026-04-26T08:45:37.979Z</time></trkpt><trkpt lat="40.8465901" lon="8.6562457"><ele>85.0</ele><time>2026-04-26T08:45:38.978Z</time></trkpt><trkpt lat="40.8466558" lon="8.6563025"><ele>84.0</ele><time>2026-04-26T08:45:39.978Z</time></trkpt><trkpt lat="40.8467253" lon="8.6563611"><ele>83.0</ele><time>2026-04-26T08:45:40.978Z</time></trkpt><trkpt lat="40.8467923" lon="8.656423"><ele>82.0</ele><time>2026-04-26T08:45:41.977Z</time></trkpt><trkpt lat="40.8468554" lon="8.656485"><ele>81.0</ele><time>2026-04-26T08:45:42.979Z</time></trkpt><trkpt lat="40.846915" lon="8.6565442"><ele>80.0</ele><time>2026-04-26T08:45:43.978Z</time></trkpt><trkpt lat="40.8469705" lon="8.6566065"><ele>82.16666666666667</ele><time>2026-04-26T08:45:44.979Z</time></trkpt><trkpt lat="40.8470208" lon="8.6566797"><ele>84.33333333333334</ele><time>2026-04-26T08:45:45.978Z</time></trkpt><trkpt lat="40.8470711" lon="8.6567675"><ele>86.5</ele><time>2026-04-26T08:45:46.981Z</time></trkpt><trkpt lat="40.8471255" lon="8.6568479"><ele>88.66666666666667</ele><time>2026-04-26T08:45:47.979Z</time></trkpt><trkpt lat="40.8471855" lon="8.6569234"><ele>90.83333333333333</ele><time>2026-04-26T08:45:48.978Z</time></trkpt><trkpt lat="40.8472498" lon="8.6569942"><ele>93.0</ele><time>2026-04-26T08:45:49.979Z</time></trkpt><trkpt lat="40.8473134" lon="8.6570605"><ele>93.16666666666667</ele><time>2026-04-26T08:45:50.979Z</time></trkpt><trkpt lat="40.8473726" lon="8.6571322"><ele>93.33333333333333</ele><time>2026-04-26T08:45:51.978Z</time></trkpt><trkpt lat="40.8474213" lon="8.6572169"><ele>93.5</ele><time>2026-04-26T08:45:52.979Z</time></trkpt><trkpt lat="40.8474612" lon="8.6573216"><ele>93.66666666666666</ele><time>2026-04-26T08:45:53.979Z</time></trkpt><trkpt lat="40.8474986" lon="8.6574319"><ele>93.83333333333333</ele><time>2026-04-26T08:45:54.978Z</time></trkpt><trkpt lat="40.8475335" lon="8.6575435"><ele>94.0</ele><time>2026-04-26T08:45:55.978Z</time></trkpt><trkpt lat="40.8475636" lon="8.657649"><ele>94.0</ele><time>2026-04-26T08:45:56.98Z</time></trkpt><trkpt lat="40.8475901" lon="8.6577542"><ele>94.0</ele><time>2026-04-26T08:45:57.979Z</time></trkpt><trkpt lat="40.8476188" lon="8.657858"><ele>94.0</ele><time>2026-04-26T08:45:58.977Z</time></trkpt><trkpt lat="40.8476552" lon="8.6579569"><ele>94.0</ele><time>2026-04-26T08:45:59.98Z</time></trkpt><trkpt lat="40.8476954" lon="8.6580571"><ele>94.0</ele><time>2026-04-26T08:46:00.978Z</time></trkpt><trkpt lat="40.8477442" lon="8.6581565"><ele>94.0</ele><time>2026-04-26T08:46:01.978Z</time></trkpt><trkpt lat="40.8477865" lon="8.6582494"><ele>95.83333333333333</ele><time>2026-04-26T08:46:02.978Z</time></trkpt><trkpt lat="40.847817" lon="8.6583388"><ele>97.66666666666666</ele><time>2026-04-26T08:46:03.978Z</time></trkpt><trkpt lat="40.8478398" lon="8.6584301"><ele>99.5</ele><time>2026-04-26T08:46:04.979Z</time></trkpt><trkpt lat="40.8478499" lon="8.658515"><ele>101.33333333333333</ele><time>2026-04-26T08:46:05.978Z</time></trkpt><trkpt lat="40.8478615" lon="8.6586748"><ele>103.16666666666667</ele><time>2026-04-26T08:46:07.977Z</time></trkpt><trkpt lat="40.8479067" lon="8.658789"><ele>105.0</ele><time>2026-04-26T08:46:09.979Z</time></trkpt><trkpt lat="40.8479956" lon="8.6588557"><ele>105.0</ele><time>2026-04-26T08:46:11.978Z</time></trkpt><trkpt lat="40.8480829" lon="8.6589034"><ele>105.0</ele><time>2026-04-26T08:46:13.978Z</time></trkpt><trkpt lat="40.84817" lon="8.6589346"><ele>105.0</ele><time>2026-04-26T08:46:15.978Z</time></trkpt><trkpt lat="40.8482361" lon="8.6590179"><ele>105.0</ele><time>2026-04-26T08:46:17.978Z</time></trkpt><trkpt lat="40.8482834" lon="8.6591529"><ele>105.0</ele><time>2026-04-26T08:46:19.979Z</time></trkpt><trkpt lat="40.8482949" lon="8.6592409"><ele>105.0</ele><time>2026-04-26T08:46:20.979Z</time></trkpt><trkpt lat="40.8483033" lon="8.6593318"><ele>105.0</ele><time>2026-04-26T08:46:21.977Z</time></trkpt><trkpt lat="40.8483128" lon="8.6594164"><ele>105.0</ele><time>2026-04-26T08:46:22.977Z</time></trkpt><trkpt lat="40.8483352" lon="8.6595683"><ele>105.0</ele><time>2026-04-26T08:46:24.979Z</time></trkpt><trkpt lat="40.8483798" lon="8.6596969"><ele>105.0</ele><time>2026-04-26T08:46:26.982Z</time></trkpt><trkpt lat="40.8484461" lon="8.6597596"><ele>105.0</ele><time>2026-04-26T08:46:28.978Z</time></trkpt><trkpt lat="40.8485403" lon="8.6597546"><ele>104.4</ele><time>2026-04-26T08:46:30.978Z</time></trkpt><trkpt lat="40.8486535" lon="8.6597164"><ele>103.8</ele><time>2026-04-26T08:46:32.979Z</time></trkpt><trkpt lat="40.8487746" lon="8.6596759"><ele>103.19999999999999</ele><time>2026-04-26T08:46:34.978Z</time></trkpt><trkpt lat="40.8488835" lon="8.6596258"><ele>102.6</ele><time>2026-04-26T08:46:36.977Z</time></trkpt><trkpt lat="40.8489703" lon="8.6596206"><ele>102.0</ele><time>2026-04-26T08:46:38.978Z</time></trkpt><trkpt lat="40.8490517" lon="8.6596908"><ele>102.0</ele><time>2026-04-26T08:46:40.979Z</time></trkpt><trkpt lat="40.8490863" lon="8.659826"><ele>102.0</ele><time>2026-04-26T08:46:42.978Z</time></trkpt><trkpt lat="40.8490697" lon="8.6599107"><ele>102.0</ele><time>2026-04-26T08:46:43.978Z</time></trkpt><trkpt lat="40.8490243" lon="8.6600451"><ele>102.0</ele><time>2026-04-26T08:46:45.978Z</time></trkpt><trkpt lat="40.8489892" lon="8.6601638"><ele>102.0</ele><time>2026-04-26T08:46:47.979Z</time></trkpt><trkpt lat="40.8489805" lon="8.6602544"><ele>102.39999999999999</ele><time>2026-04-26T08:46:49.979Z</time></trkpt><trkpt lat="40.848956" lon="8.6603643"><ele>102.8</ele><time>2026-04-26T08:47:11.98Z</time></trkpt><trkpt lat="40.8489459" lon="8.6605166"><ele>103.2</ele><time>2026-04-26T08:47:13.981Z</time></trkpt><trkpt lat="40.8489413" lon="8.6606009"><ele>103.6</ele><time>2026-04-26T08:47:14.98Z</time></trkpt><trkpt lat="40.8489153" lon="8.6607528"><ele>104.0</ele><time>2026-04-26T08:47:16.978Z</time></trkpt><trkpt lat="40.848877" lon="8.6608914"><ele>103.99999999999999</ele><time>2026-04-26T08:47:18.979Z</time></trkpt><trkpt lat="40.8488543" lon="8.6609707"><ele>104.0</ele><time>2026-04-26T08:47:19.98Z</time></trkpt><trkpt lat="40.8488318" lon="8.6610546"><ele>104.0</ele><time>2026-04-26T08:47:20.979Z</time></trkpt><trkpt lat="40.8488087" lon="8.6611449"><ele>104.0</ele><time>2026-04-26T08:47:21.979Z</time></trkpt><trkpt lat="40.848791" lon="8.6612311"><ele>103.99999999999999</ele><time>2026-04-26T08:47:22.979Z</time></trkpt><trkpt lat="40.8487408" lon="8.6613822"><ele>104.0</ele><time>2026-04-26T08:47:24.979Z</time></trkpt><trkpt lat="40.8486656" lon="8.6615216"><ele>105.49999999999999</ele><time>2026-04-26T08:47:26.98Z</time></trkpt><trkpt lat="40.8486121" lon="8.6615862"><ele>107.0</ele><time>2026-04-26T08:47:27.978Z</time></trkpt><trkpt lat="40.8485522" lon="8.6616494"><ele>108.5</ele><time>2026-04-26T08:47:28.978Z</time></trkpt><trkpt lat="40.8484884" lon="8.6617079"><ele>110.0</ele><time>2026-04-26T08:47:29.979Z</time></trkpt><trkpt lat="40.8484223" lon="8.6617651"><ele>111.49999999999999</ele><time>2026-04-26T08:47:30.979Z</time></trkpt><trkpt lat="40.8483605" lon="8.661824"><ele>113.0</ele><time>2026-04-26T08:47:31.98Z</time></trkpt><trkpt lat="40.848306" lon="8.6618843"><ele>113.16666666666666</ele><time>2026-04-26T08:47:32.98Z</time></trkpt><trkpt lat="40.8482596" lon="8.6619528"><ele>113.33333333333333</ele><time>2026-04-26T08:47:33.98Z</time></trkpt><trkpt lat="40.8482227" lon="8.6620263"><ele>113.5</ele><time>2026-04-26T08:47:34.979Z</time></trkpt><trkpt lat="40.84818" lon="8.6621815"><ele>113.66666666666666</ele><time>2026-04-26T08:47:36.978Z</time></trkpt><trkpt lat="40.8481602" lon="8.6623056"><ele>113.83333333333333</ele><time>2026-04-26T08:47:38.981Z</time></trkpt><trkpt lat="40.8481076" lon="8.6623676"><ele>114.0</ele><time>2026-04-26T08:47:41.98Z</time></trkpt><trkpt lat="40.8480662" lon="8.6622762"><ele>114.0</ele><time>2026-04-26T08:47:44.98Z</time></trkpt><trkpt lat="40.8480976" lon="8.6621252"><ele>114.0</ele><time>2026-04-26T08:47:46.979Z</time></trkpt><trkpt lat="40.8481198" lon="8.6620378"><ele>114.0</ele><time>2026-04-26T08:47:47.979Z</time></trkpt><trkpt lat="40.8481354" lon="8.6619503"><ele>114.0</ele><time>2026-04-26T08:47:48.979Z</time></trkpt><trkpt lat="40.8481482" lon="8.6618671"><ele>114.0</ele><time>2026-04-26T08:47:49.979Z</time></trkpt><trkpt lat="40.8481661" lon="8.6617184"><ele>114.0</ele><time>2026-04-26T08:47:51.98Z</time></trkpt><trkpt lat="40.8481546" lon="8.6616179"><ele>114.0</ele><time>2026-04-26T08:47:53.981Z</time></trkpt><trkpt lat="40.8480671" lon="8.6616082"><ele>114.0</ele><time>2026-04-26T08:47:56.982Z</time></trkpt><trkpt lat="40.8480036" lon="8.6617345"><ele>114.0</ele><time>2026-04-26T08:47:58.979Z</time></trkpt><trkpt lat="40.847972" lon="8.6618117"><ele>114.0</ele><time>2026-04-26T08:47:59.98Z</time></trkpt><trkpt lat="40.8479287" lon="8.6618926"><ele>114.0</ele><time>2026-04-26T08:48:00.978Z</time></trkpt><trkpt lat="40.8478781" lon="8.6619702"><ele>114.0</ele><time>2026-04-26T08:48:01.981Z</time></trkpt><trkpt lat="40.8478242" lon="8.6620521"><ele>114.0</ele><time>2026-04-26T08:48:02.979Z</time></trkpt><trkpt lat="40.8477778" lon="8.6621373"><ele>114.0</ele><time>2026-04-26T08:48:03.98Z</time></trkpt><trkpt lat="40.8477372" lon="8.6622262"><ele>114.0</ele><time>2026-04-26T08:48:04.978Z</time></trkpt><trkpt lat="40.8477017" lon="8.6623082"><ele>114.0</ele><time>2026-04-26T08:48:05.979Z</time></trkpt><trkpt lat="40.8476647" lon="8.6623813"><ele>114.0</ele><time>2026-04-26T08:48:06.979Z</time></trkpt><trkpt lat="40.8476199" lon="8.6624428"><ele>114.0</ele><time>2026-04-26T08:48:07.979Z</time></trkpt><trkpt lat="40.8475198" lon="8.6625164"><ele>118.6</ele><time>2026-04-26T08:48:09.978Z</time></trkpt><trkpt lat="40.8474152" lon="8.6624993"><ele>123.2</ele><time>2026-04-26T08:48:11.979Z</time></trkpt><trkpt lat="40.8473458" lon="8.662403"><ele>127.79999999999998</ele><time>2026-04-26T08:48:13.978Z</time></trkpt><trkpt lat="40.8473017" lon="8.6622435"><ele>132.4</ele><time>2026-04-26T08:48:15.979Z</time></trkpt><trkpt lat="40.8472814" lon="8.6621424"><ele>137.0</ele><time>2026-04-26T08:48:16.98Z</time></trkpt><trkpt lat="40.8472636" lon="8.6620359"><ele>137.0</ele><time>2026-04-26T08:48:17.979Z</time></trkpt><trkpt lat="40.8472463" lon="8.6619385"><ele>137.0</ele><time>2026-04-26T08:48:18.98Z</time></trkpt><trkpt lat="40.8472017" lon="8.6618048"><ele>137.0</ele><time>2026-04-26T08:48:20.979Z</time></trkpt><trkpt lat="40.8471386" lon="8.6617387"><ele>137.0</ele><time>2026-04-26T08:48:22.979Z</time></trkpt><trkpt lat="40.8470746" lon="8.6617529"><ele>137.0</ele><time>2026-04-26T08:48:24.979Z</time></trkpt><trkpt lat="40.8470415" lon="8.6618696"><ele>137.0</ele><time>2026-04-26T08:48:26.979Z</time></trkpt><trkpt lat="40.847041" lon="8.6620149"><ele>137.0</ele><time>2026-04-26T08:48:28.98Z</time></trkpt><trkpt lat="40.8470013" lon="8.6621095"><ele>137.0</ele><time>2026-04-26T08:48:30.979Z</time></trkpt><trkpt lat="40.8469398" lon="8.6621612"><ele>137.0</ele><time>2026-04-26T08:48:32.98Z</time></trkpt><trkpt lat="40.8468637" lon="8.6622142"><ele>137.0</ele><time>2026-04-26T08:48:36.979Z</time></trkpt><trkpt lat="40.8468009" lon="8.6622636"><ele>137.0</ele><time>2026-04-26T08:48:38.979Z</time></trkpt><trkpt lat="40.846738" lon="8.6623109"><ele>137.0</ele><time>2026-04-26T08:48:40.98Z</time></trkpt><trkpt lat="40.8466699" lon="8.662379"><ele>140.33333333333331</ele><time>2026-04-26T08:48:42.981Z</time></trkpt><trkpt lat="40.8465919" lon="8.6624434"><ele>143.66666666666666</ele><time>2026-04-26T08:48:44.979Z</time></trkpt><trkpt lat="40.8465189" lon="8.6625007"><ele>147.0</ele><time>2026-04-26T08:48:46.979Z</time></trkpt><trkpt lat="40.8464505" lon="8.662553"><ele>150.33333333333334</ele><time>2026-04-26T08:48:58.978Z</time></trkpt><trkpt lat="40.8463847" lon="8.6625806"><ele>153.66666666666669</ele><time>2026-04-26T08:49:01.979Z</time></trkpt><trkpt lat="40.8464574" lon="8.662564"><ele>157.0</ele><time>2026-04-26T08:49:56.978Z</time></trkpt><trkpt lat="40.8465283" lon="8.6624969"><ele>156.99999999999997</ele><time>2026-04-26T08:49:59.98Z</time></trkpt><trkpt lat="40.8465912" lon="8.6624426"><ele>157.0</ele><time>2026-04-26T08:50:02.98Z</time></trkpt><trkpt lat="40.8466533" lon="8.6623997"><ele>157.0</ele><time>2026-04-26T08:50:05.978Z</time></trkpt><trkpt lat="40.8467065" lon="8.6623518"><ele>157.0</ele><time>2026-04-26T08:50:08.978Z</time></trkpt><trkpt lat="40.846752" lon="8.6622867"><ele>157.0</ele><time>2026-04-26T08:50:11.978Z</time></trkpt><trkpt lat="40.8468097" lon="8.6622441"><ele>156.99999999999997</ele><time>2026-04-26T08:50:14.979Z</time></trkpt><trkpt lat="40.8468814" lon="8.6621929"><ele>157.0</ele><time>2026-04-26T08:51:44.979Z</time></trkpt><trkpt lat="40.8469483" lon="8.6621512"><ele>154.99999999999997</ele><time>2026-04-26T08:51:46.981Z</time></trkpt><trkpt lat="40.8470088" lon="8.6620907"><ele>153.0</ele><time>2026-04-26T08:51:48.981Z</time></trkpt><trkpt lat="40.8470458" lon="8.6620046"><ele>151.0</ele><time>2026-04-26T08:51:50.979Z</time></trkpt><trkpt lat="40.8470616" lon="8.6619035"><ele>149.0</ele><time>2026-04-26T08:51:52.979Z</time></trkpt><trkpt lat="40.847092" lon="8.6618202"><ele>147.0</ele><time>2026-04-26T08:51:54.979Z</time></trkpt><trkpt lat="40.8471419" lon="8.6617683"><ele>144.99999999999997</ele><time>2026-04-26T08:51:56.979Z</time></trkpt><trkpt lat="40.8472151" lon="8.6618228"><ele>143.0</ele><time>2026-04-26T08:51:59.98Z</time></trkpt><trkpt lat="40.8472483" lon="8.6619394"><ele>141.8</ele><time>2026-04-26T08:52:01.979Z</time></trkpt><trkpt lat="40.8472761" lon="8.6620847"><ele>140.60000000000002</ele><time>2026-04-26T08:52:03.978Z</time></trkpt><trkpt lat="40.847305" lon="8.6622195"><ele>139.39999999999998</ele><time>2026-04-26T08:52:05.978Z</time></trkpt><trkpt lat="40.847345" lon="8.66235"><ele>138.2</ele><time>2026-04-26T08:52:07.979Z</time></trkpt><trkpt lat="40.8474061" lon="8.6624552"><ele>137.0</ele><time>2026-04-26T08:52:09.98Z</time></trkpt><trkpt lat="40.8474706" lon="8.6625158"><ele>137.0</ele><time>2026-04-26T08:52:11.979Z</time></trkpt><trkpt lat="40.847552" lon="8.6625109"><ele>137.0</ele><time>2026-04-26T08:52:13.979Z</time></trkpt><trkpt lat="40.8476353" lon="8.6624585"><ele>137.0</ele><time>2026-04-26T08:52:15.978Z</time></trkpt><trkpt lat="40.8477026" lon="8.6623854"><ele>137.0</ele><time>2026-04-26T08:52:17.979Z</time></trkpt><trkpt lat="40.8477486" lon="8.6622928"><ele>137.0</ele><time>2026-04-26T08:52:19.98Z</time></trkpt><trkpt lat="40.8477871" lon="8.6621885"><ele>137.0</ele><time>2026-04-26T08:52:21.979Z</time></trkpt><trkpt lat="40.8478338" lon="8.662083"><ele>133.2</ele><time>2026-04-26T08:52:23.979Z</time></trkpt><trkpt lat="40.8478895" lon="8.6619723"><ele>129.39999999999998</ele><time>2026-04-26T08:52:25.979Z</time></trkpt><trkpt lat="40.8479526" lon="8.6618577"><ele>125.60000000000001</ele><time>2026-04-26T08:52:27.979Z</time></trkpt><trkpt lat="40.8480106" lon="8.6617254"><ele>121.80000000000001</ele><time>2026-04-26T08:52:29.981Z</time></trkpt><trkpt lat="40.8480671" lon="8.661625"><ele>118.0</ele><time>2026-04-26T08:52:31.979Z</time></trkpt><trkpt lat="40.8481434" lon="8.6616232"><ele>118.0</ele><time>2026-04-26T08:52:34.979Z</time></trkpt><trkpt lat="40.8481565" lon="8.6617135"><ele>118.00000000000001</ele><time>2026-04-26T08:52:36.978Z</time></trkpt><trkpt lat="40.8481413" lon="8.6618399"><ele>118.00000000000001</ele><time>2026-04-26T08:52:38.978Z</time></trkpt><trkpt lat="40.8481347" lon="8.6619776"><ele>118.0</ele><time>2026-04-26T08:52:40.979Z</time></trkpt><trkpt lat="40.8481024" lon="8.6621069"><ele>118.0</ele><time>2026-04-26T08:52:42.979Z</time></trkpt><trkpt lat="40.8480616" lon="8.6622371"><ele>117.33333333333334</ele><time>2026-04-26T08:52:44.979Z</time></trkpt><trkpt lat="40.8480592" lon="8.6623503"><ele>116.66666666666667</ele><time>2026-04-26T08:52:46.978Z</time></trkpt><trkpt lat="40.8481464" lon="8.6623789"><ele>116.0</ele><time>2026-04-26T08:52:49.978Z</time></trkpt><trkpt lat="40.8481878" lon="8.6622536"><ele>115.33333333333334</ele><time>2026-04-26T08:52:51.979Z</time></trkpt><trkpt lat="40.8481963" lon="8.6621657"><ele>114.66666666666667</ele><time>2026-04-26T08:52:52.978Z</time></trkpt><trkpt lat="40.8482115" lon="8.6620818"><ele>114.0</ele><time>2026-04-26T08:52:53.98Z</time></trkpt><trkpt lat="40.8482323" lon="8.6620022"><ele>113.80000000000001</ele><time>2026-04-26T08:52:54.979Z</time></trkpt><trkpt lat="40.8483005" lon="8.6618807"><ele>113.60000000000001</ele><time>2026-04-26T08:52:56.979Z</time></trkpt><trkpt lat="40.8483924" lon="8.6617835"><ele>113.4</ele><time>2026-04-26T08:52:58.979Z</time></trkpt><trkpt lat="40.8484988" lon="8.6616768"><ele>113.2</ele><time>2026-04-26T08:53:00.978Z</time></trkpt><trkpt lat="40.8485523" lon="8.6616254"><ele>113.0</ele><time>2026-04-26T08:53:01.98Z</time></trkpt><trkpt lat="40.848602" lon="8.6615712"><ele>112.99999999999999</ele><time>2026-04-26T08:53:02.98Z</time></trkpt><trkpt lat="40.8486533" lon="8.6615158"><ele>113.0</ele><time>2026-04-26T08:53:03.978Z</time></trkpt><trkpt lat="40.8487016" lon="8.6614581"><ele>113.0</ele><time>2026-04-26T08:53:04.979Z</time></trkpt><trkpt lat="40.8487625" lon="8.661338"><ele>113.0</ele><time>2026-04-26T08:53:06.981Z</time></trkpt><trkpt lat="40.8487914" lon="8.6611949"><ele>112.99999999999999</ele><time>2026-04-26T08:53:08.978Z</time></trkpt><trkpt lat="40.8488106" lon="8.6611119"><ele>113.0</ele><time>2026-04-26T08:53:09.978Z</time></trkpt><trkpt lat="40.8488487" lon="8.6609714"><ele>111.49999999999999</ele><time>2026-04-26T08:53:11.983Z</time></trkpt><trkpt lat="40.8488788" lon="8.6608618"><ele>110.0</ele><time>2026-04-26T08:53:13.978Z</time></trkpt><trkpt lat="40.8489044" lon="8.660762"><ele>108.5</ele><time>2026-04-26T08:53:15.979Z</time></trkpt><trkpt lat="40.8489258" lon="8.6606454"><ele>107.0</ele><time>2026-04-26T08:53:17.98Z</time></trkpt><trkpt lat="40.8489409" lon="8.6605226"><ele>105.49999999999999</ele><time>2026-04-26T08:53:19.98Z</time></trkpt><trkpt lat="40.8489482" lon="8.6604074"><ele>104.0</ele><time>2026-04-26T08:53:21.979Z</time></trkpt><trkpt lat="40.8489874" lon="8.6603227"><ele>104.0</ele><time>2026-04-26T08:53:24.979Z</time></trkpt><trkpt lat="40.8490369" lon="8.6603748"><ele>104.0</ele><time>2026-04-26T08:53:37.979Z</time></trkpt><trkpt lat="40.8490936" lon="8.6604794"><ele>104.0</ele><time>2026-04-26T08:53:39.978Z</time></trkpt><trkpt lat="40.8491811" lon="8.6605797"><ele>104.0</ele><time>2026-04-26T08:53:41.979Z</time></trkpt><trkpt lat="40.8492871" lon="8.6606239"><ele>104.0</ele><time>2026-04-26T08:53:43.979Z</time></trkpt><trkpt lat="40.8493939" lon="8.6606527"><ele>105.99999999999999</ele><time>2026-04-26T08:53:45.979Z</time></trkpt><trkpt lat="40.8494591" lon="8.6607096"><ele>108.0</ele><time>2026-04-26T08:53:47.979Z</time></trkpt><trkpt lat="40.8494726" lon="8.6607967"><ele>110.0</ele><time>2026-04-26T08:53:49.979Z</time></trkpt><trkpt lat="40.8494453" lon="8.6609255"><ele>112.0</ele><time>2026-04-26T08:53:51.978Z</time></trkpt><trkpt lat="40.8494358" lon="8.6610847"><ele>113.99999999999999</ele><time>2026-04-26T08:53:53.978Z</time></trkpt><trkpt lat="40.8494331" lon="8.6611731"><ele>116.0</ele><time>2026-04-26T08:53:54.98Z</time></trkpt><trkpt lat="40.8494275" lon="8.6612654"><ele>115.49999999999999</ele><time>2026-04-26T08:53:55.978Z</time></trkpt><trkpt lat="40.8494174" lon="8.6613621"><ele>115.0</ele><time>2026-04-26T08:53:56.98Z</time></trkpt><trkpt lat="40.8494024" lon="8.6614615"><ele>114.5</ele><time>2026-04-26T08:53:57.978Z</time></trkpt><trkpt lat="40.8493801" lon="8.6615577"><ele>114.0</ele><time>2026-04-26T08:53:58.978Z</time></trkpt><trkpt lat="40.8493476" lon="8.6616496"><ele>113.49999999999999</ele><time>2026-04-26T08:53:59.979Z</time></trkpt><trkpt lat="40.849309" lon="8.66174"><ele>113.0</ele><time>2026-04-26T08:54:00.978Z</time></trkpt><trkpt lat="40.8492628" lon="8.6618246"><ele>112.99999999999999</ele><time>2026-04-26T08:54:01.979Z</time></trkpt><trkpt lat="40.8492073" lon="8.6619007"><ele>113.0</ele><time>2026-04-26T08:54:02.979Z</time></trkpt><trkpt lat="40.8491463" lon="8.6619749"><ele>113.0</ele><time>2026-04-26T08:54:03.979Z</time></trkpt><trkpt lat="40.849087" lon="8.662056"><ele>113.0</ele><time>2026-04-26T08:54:04.978Z</time></trkpt><trkpt lat="40.849026" lon="8.6621399"><ele>112.99999999999999</ele><time>2026-04-26T08:54:05.979Z</time></trkpt><trkpt lat="40.8489721" lon="8.6622247"><ele>113.0</ele><time>2026-04-26T08:54:06.981Z</time></trkpt><trkpt lat="40.8489285" lon="8.662312"><ele>114.33333333333333</ele><time>2026-04-26T08:54:07.978Z</time></trkpt><trkpt lat="40.8488986" lon="8.6624023"><ele>115.66666666666666</ele><time>2026-04-26T08:54:08.979Z</time></trkpt><trkpt lat="40.8488871" lon="8.6624999"><ele>117.0</ele><time>2026-04-26T08:54:09.978Z</time></trkpt><trkpt lat="40.8488894" lon="8.6626041"><ele>118.33333333333334</ele><time>2026-04-26T08:54:10.978Z</time></trkpt><trkpt lat="40.8489041" lon="8.6627111"><ele>119.66666666666667</ele><time>2026-04-26T08:54:11.978Z</time></trkpt><trkpt lat="40.8489274" lon="8.6628205"><ele>121.0</ele><time>2026-04-26T08:54:12.979Z</time></trkpt><trkpt lat="40.8489468" lon="8.6629307"><ele>121.0</ele><time>2026-04-26T08:54:13.978Z</time></trkpt><trkpt lat="40.848966" lon="8.6630453"><ele>121.0</ele><time>2026-04-26T08:54:14.979Z</time></trkpt><trkpt lat="40.8489883" lon="8.6631634"><ele>121.0</ele><time>2026-04-26T08:54:15.979Z</time></trkpt><trkpt lat="40.849007" lon="8.6632836"><ele>121.0</ele><time>2026-04-26T08:54:16.978Z</time></trkpt><trkpt lat="40.8490172" lon="8.6634053"><ele>121.0</ele><time>2026-04-26T08:54:17.978Z</time></trkpt><trkpt lat="40.8490288" lon="8.6635244"><ele>121.33333333333334</ele><time>2026-04-26T08:54:18.979Z</time></trkpt><trkpt lat="40.8490398" lon="8.6636434"><ele>121.66666666666667</ele><time>2026-04-26T08:54:19.98Z</time></trkpt><trkpt lat="40.8490494" lon="8.6637624"><ele>122.0</ele><time>2026-04-26T08:54:20.98Z</time></trkpt><trkpt lat="40.8490542" lon="8.6638816"><ele>122.33333333333334</ele><time>2026-04-26T08:54:21.979Z</time></trkpt><trkpt lat="40.8490589" lon="8.6639987"><ele>122.66666666666667</ele><time>2026-04-26T08:54:22.979Z</time></trkpt><trkpt lat="40.8490624" lon="8.6641163"><ele>123.0</ele><time>2026-04-26T08:54:23.978Z</time></trkpt><trkpt lat="40.8490672" lon="8.664234"><ele>123.0</ele><time>2026-04-26T08:54:24.978Z</time></trkpt><trkpt lat="40.849076" lon="8.6643505"><ele>123.0</ele><time>2026-04-26T08:54:25.979Z</time></trkpt><trkpt lat="40.8490967" lon="8.6644628"><ele>123.0</ele><time>2026-04-26T08:54:26.98Z</time></trkpt><trkpt lat="40.8491289" lon="8.6645715"><ele>123.0</ele><time>2026-04-26T08:54:27.98Z</time></trkpt><trkpt lat="40.8491677" lon="8.6646751"><ele>123.0</ele><time>2026-04-26T08:54:28.978Z</time></trkpt><trkpt lat="40.8492111" lon="8.6647747"><ele>123.0</ele><time>2026-04-26T08:54:29.978Z</time></trkpt><trkpt lat="40.8492513" lon="8.6648759"><ele>123.66666666666667</ele><time>2026-04-26T08:54:30.979Z</time></trkpt><trkpt lat="40.8492894" lon="8.6649775"><ele>124.33333333333334</ele><time>2026-04-26T08:54:31.979Z</time></trkpt><trkpt lat="40.8493248" lon="8.6650796"><ele>125.0</ele><time>2026-04-26T08:54:32.978Z</time></trkpt><trkpt lat="40.849351" lon="8.6651875"><ele>125.66666666666667</ele><time>2026-04-26T08:54:33.979Z</time></trkpt><trkpt lat="40.8493658" lon="8.6653006"><ele>126.33333333333334</ele><time>2026-04-26T08:54:34.978Z</time></trkpt><trkpt lat="40.8493693" lon="8.6654151"><ele>127.0</ele><time>2026-04-26T08:54:35.979Z</time></trkpt><trkpt lat="40.8493673" lon="8.6655276"><ele>130.2</ele><time>2026-04-26T08:54:36.978Z</time></trkpt><trkpt lat="40.8493625" lon="8.665642"><ele>133.39999999999998</ele><time>2026-04-26T08:54:37.979Z</time></trkpt><trkpt lat="40.8493529" lon="8.6657619"><ele>136.60000000000002</ele><time>2026-04-26T08:54:38.98Z</time></trkpt><trkpt lat="40.8493434" lon="8.6658814"><ele>139.8</ele><time>2026-04-26T08:54:39.979Z</time></trkpt><trkpt lat="40.849332" lon="8.6659999"><ele>143.0</ele><time>2026-04-26T08:54:40.979Z</time></trkpt><trkpt lat="40.8493217" lon="8.666119"><ele>144.83333333333331</ele><time>2026-04-26T08:54:41.978Z</time></trkpt><trkpt lat="40.8493148" lon="8.6662389"><ele>146.66666666666666</ele><time>2026-04-26T08:54:42.98Z</time></trkpt><trkpt lat="40.8493108" lon="8.6663572"><ele>148.5</ele><time>2026-04-26T08:54:43.978Z</time></trkpt><trkpt lat="40.8493118" lon="8.6664629"><ele>150.33333333333334</ele><time>2026-04-26T08:54:44.979Z</time></trkpt><trkpt lat="40.8493159" lon="8.6665585"><ele>152.16666666666669</ele><time>2026-04-26T08:54:45.978Z</time></trkpt><trkpt lat="40.8493184" lon="8.666653"><ele>154.0</ele><time>2026-04-26T08:54:46.978Z</time></trkpt><trkpt lat="40.8493136" lon="8.6667481"><ele>154.0</ele><time>2026-04-26T08:54:47.978Z</time></trkpt><trkpt lat="40.8492982" lon="8.6668495"><ele>154.0</ele><time>2026-04-26T08:54:48.978Z</time></trkpt><trkpt lat="40.8492749" lon="8.6669622"><ele>154.0</ele><time>2026-04-26T08:54:49.979Z</time></trkpt><trkpt lat="40.8492611" lon="8.6670838"><ele>154.0</ele><time>2026-04-26T08:54:50.978Z</time></trkpt><trkpt lat="40.8492601" lon="8.6672142"><ele>154.0</ele><time>2026-04-26T08:54:51.979Z</time></trkpt><trkpt lat="40.8492675" lon="8.6673468"><ele>154.6</ele><time>2026-04-26T08:54:52.979Z</time></trkpt><trkpt lat="40.8492817" lon="8.6674776"><ele>155.2</ele><time>2026-04-26T08:54:53.978Z</time></trkpt><trkpt lat="40.849303" lon="8.6676034"><ele>155.79999999999998</ele><time>2026-04-26T08:54:54.978Z</time></trkpt><trkpt lat="40.8493274" lon="8.6677292"><ele>156.4</ele><time>2026-04-26T08:54:55.979Z</time></trkpt><trkpt lat="40.8493601" lon="8.6678508"><ele>157.0</ele><time>2026-04-26T08:54:56.979Z</time></trkpt><trkpt lat="40.8493982" lon="8.6679693"><ele>158.0</ele><time>2026-04-26T08:54:57.979Z</time></trkpt><trkpt lat="40.8494403" lon="8.6680853"><ele>159.0</ele><time>2026-04-26T08:54:58.98Z</time></trkpt><trkpt lat="40.849486" lon="8.6681919"><ele>160.0</ele><time>2026-04-26T08:54:59.979Z</time></trkpt><trkpt lat="40.8495197" lon="8.668301"><ele>161.0</ele><time>2026-04-26T08:55:00.978Z</time></trkpt><trkpt lat="40.8495431" lon="8.6684089"><ele>162.0</ele><time>2026-04-26T08:55:01.978Z</time></trkpt><trkpt lat="40.8495542" lon="8.6685258"><ele>162.6</ele><time>2026-04-26T08:55:02.979Z</time></trkpt><trkpt lat="40.8495632" lon="8.6686489"><ele>163.2</ele><time>2026-04-26T08:55:03.979Z</time></trkpt><trkpt lat="40.8495715" lon="8.6687746"><ele>163.8</ele><time>2026-04-26T08:55:04.978Z</time></trkpt><trkpt lat="40.8495773" lon="8.6689038"><ele>164.4</ele><time>2026-04-26T08:55:05.978Z</time></trkpt><trkpt lat="40.8495811" lon="8.6690332"><ele>165.0</ele><time>2026-04-26T08:55:06.979Z</time></trkpt><trkpt lat="40.8495801" lon="8.6691618"><ele>165.0</ele><time>2026-04-26T08:55:07.979Z</time></trkpt><trkpt lat="40.8495696" lon="8.6692919"><ele>165.0</ele><time>2026-04-26T08:55:08.98Z</time></trkpt><trkpt lat="40.8495472" lon="8.6694192"><ele>165.0</ele><time>2026-04-26T08:55:09.978Z</time></trkpt><trkpt lat="40.8495126" lon="8.6695443"><ele>165.0</ele><time>2026-04-26T08:55:10.979Z</time></trkpt><trkpt lat="40.8494764" lon="8.6696679"><ele>165.0</ele><time>2026-04-26T08:55:11.979Z</time></trkpt><trkpt lat="40.8494533" lon="8.669788"><ele>165.33333333333334</ele><time>2026-04-26T08:55:12.978Z</time></trkpt><trkpt lat="40.8494475" lon="8.6699107"><ele>165.66666666666666</ele><time>2026-04-26T08:55:13.979Z</time></trkpt><trkpt lat="40.849449" lon="8.6700357"><ele>166.0</ele><time>2026-04-26T08:55:14.98Z</time></trkpt><trkpt lat="40.8494586" lon="8.6701522"><ele>166.33333333333331</ele><time>2026-04-26T08:55:15.978Z</time></trkpt><trkpt lat="40.849466" lon="8.670257"><ele>166.66666666666666</ele><time>2026-04-26T08:55:16.978Z</time></trkpt><trkpt lat="40.8494614" lon="8.670341"><ele>167.0</ele><time>2026-04-26T08:55:17.978Z</time></trkpt><trkpt lat="40.8494323" lon="8.670464"><ele>167.39999999999998</ele><time>2026-04-26T08:55:19.979Z</time></trkpt><trkpt lat="40.8493736" lon="8.6705427"><ele>167.79999999999998</ele><time>2026-04-26T08:55:21.979Z</time></trkpt><trkpt lat="40.8493216" lon="8.670628"><ele>168.2</ele><time>2026-04-26T08:55:23.978Z</time></trkpt><trkpt lat="40.8492938" lon="8.670743"><ele>168.6</ele><time>2026-04-26T08:55:25.979Z</time></trkpt><trkpt lat="40.8492901" lon="8.6708673"><ele>169.0</ele><time>2026-04-26T08:55:27.978Z</time></trkpt><trkpt lat="40.8492943" lon="8.6710116"><ele>165.25</ele><time>2026-04-26T08:55:29.979Z</time></trkpt><trkpt lat="40.8492861" lon="8.6711837"><ele>161.5</ele><time>2026-04-26T08:55:31.979Z</time></trkpt><trkpt lat="40.8492644" lon="8.6713336"><ele>157.75</ele><time>2026-04-26T08:55:33.98Z</time></trkpt><trkpt lat="40.8492523" lon="8.6714753"><ele>154.0</ele><time>2026-04-26T08:55:35.978Z</time></trkpt><trkpt lat="40.8492425" lon="8.6716319"><ele>154.0</ele><time>2026-04-26T08:55:37.978Z</time></trkpt><trkpt lat="40.8492533" lon="8.671793"><ele>154.0</ele><time>2026-04-26T08:55:39.979Z</time></trkpt><trkpt lat="40.8492837" lon="8.6719456"><ele>154.0</ele><time>2026-04-26T08:55:41.978Z</time></trkpt><trkpt lat="40.8493309" lon="8.6720952"><ele>154.0</ele><time>2026-04-26T08:55:43.979Z</time></trkpt><trkpt lat="40.8493847" lon="8.6722451"><ele>154.28571428571428</ele><time>2026-04-26T08:55:45.98Z</time></trkpt><trkpt lat="40.8494142" lon="8.6723199"><ele>154.57142857142856</ele><time>2026-04-26T08:55:46.979Z</time></trkpt><trkpt lat="40.849448" lon="8.6723947"><ele>154.85714285714286</ele><time>2026-04-26T08:55:47.978Z</time></trkpt><trkpt lat="40.849483" lon="8.6724706"><ele>155.14285714285714</ele><time>2026-04-26T08:55:48.979Z</time></trkpt><trkpt lat="40.8495215" lon="8.6725426"><ele>155.42857142857142</ele><time>2026-04-26T08:55:49.978Z</time></trkpt><trkpt lat="40.8495633" lon="8.6726094"><ele>155.71428571428572</ele><time>2026-04-26T08:55:50.978Z</time></trkpt><trkpt lat="40.8496067" lon="8.6726764"><ele>156.0</ele><time>2026-04-26T08:55:51.978Z</time></trkpt><trkpt lat="40.8496515" lon="8.6727465"><ele>157.33333333333334</ele><time>2026-04-26T08:55:52.979Z</time></trkpt><trkpt lat="40.8496981" lon="8.6728226"><ele>158.66666666666666</ele><time>2026-04-26T08:55:53.98Z</time></trkpt><trkpt lat="40.8497432" lon="8.672906"><ele>160.0</ele><time>2026-04-26T08:55:54.978Z</time></trkpt><trkpt lat="40.8497783" lon="8.6729985"><ele>161.33333333333331</ele><time>2026-04-26T08:55:55.979Z</time></trkpt><trkpt lat="40.8498043" lon="8.6730984"><ele>162.66666666666666</ele><time>2026-04-26T08:55:56.98Z</time></trkpt><trkpt lat="40.8498237" lon="8.6731982"><ele>164.0</ele><time>2026-04-26T08:55:57.979Z</time></trkpt><trkpt lat="40.8498443" lon="8.6732908"><ele>164.0</ele><time>2026-04-26T08:55:58.978Z</time></trkpt><trkpt lat="40.8498704" lon="8.6733734"><ele>164.0</ele><time>2026-04-26T08:55:59.979Z</time></trkpt><trkpt lat="40.8499052" lon="8.6734435"><ele>164.0</ele><time>2026-04-26T08:56:00.979Z</time></trkpt><trkpt lat="40.8499612" lon="8.6734956"><ele>164.0</ele><time>2026-04-26T08:56:01.978Z</time></trkpt><trkpt lat="40.8500365" lon="8.6735417"><ele>164.0</ele><time>2026-04-26T08:56:02.979Z</time></trkpt><trkpt lat="40.8501248" lon="8.6735907"><ele>164.0</ele><time>2026-04-26T08:56:03.978Z</time></trkpt><trkpt lat="40.8501976" lon="8.6736478"><ele>165.83333333333331</ele><time>2026-04-26T08:56:04.98Z</time></trkpt><trkpt lat="40.8502472" lon="8.6737126"><ele>167.66666666666666</ele><time>2026-04-26T08:56:05.978Z</time></trkpt><trkpt lat="40.8502886" lon="8.6737881"><ele>169.5</ele><time>2026-04-26T08:56:06.978Z</time></trkpt><trkpt lat="40.8503267" lon="8.6738751"><ele>171.33333333333334</ele><time>2026-04-26T08:56:07.979Z</time></trkpt><trkpt lat="40.8503615" lon="8.673972"><ele>173.16666666666669</ele><time>2026-04-26T08:56:08.979Z</time></trkpt><trkpt lat="40.8503932" lon="8.6740787"><ele>175.0</ele><time>2026-04-26T08:56:09.979Z</time></trkpt><trkpt lat="40.850422" lon="8.6741891"><ele>175.0</ele><time>2026-04-26T08:56:10.978Z</time></trkpt><trkpt lat="40.8504482" lon="8.6742994"><ele>175.0</ele><time>2026-04-26T08:56:11.978Z</time></trkpt><trkpt lat="40.8504715" lon="8.6744095"><ele>175.0</ele><time>2026-04-26T08:56:12.978Z</time></trkpt><trkpt lat="40.8504918" lon="8.6745181"><ele>175.0</ele><time>2026-04-26T08:56:13.979Z</time></trkpt><trkpt lat="40.8505104" lon="8.6746229"><ele>175.0</ele><time>2026-04-26T08:56:14.979Z</time></trkpt><trkpt lat="40.8505351" lon="8.6747204"><ele>175.0</ele><time>2026-04-26T08:56:15.978Z</time></trkpt><trkpt lat="40.850575" lon="8.6748093"><ele>177.83333333333334</ele><time>2026-04-26T08:56:16.978Z</time></trkpt><trkpt lat="40.850634" lon="8.6748882"><ele>180.66666666666669</ele><time>2026-04-26T08:56:17.979Z</time></trkpt><trkpt lat="40.8507083" lon="8.6749538"><ele>183.5</ele><time>2026-04-26T08:56:18.98Z</time></trkpt><trkpt lat="40.8507884" lon="8.6750078"><ele>186.33333333333334</ele><time>2026-04-26T08:56:19.979Z</time></trkpt><trkpt lat="40.8508763" lon="8.6750421"><ele>189.16666666666666</ele><time>2026-04-26T08:56:20.98Z</time></trkpt><trkpt lat="40.8509663" lon="8.6750519"><ele>192.0</ele><time>2026-04-26T08:56:21.979Z</time></trkpt><trkpt lat="40.8510622" lon="8.6750386"><ele>194.0</ele><time>2026-04-26T08:56:22.979Z</time></trkpt><trkpt lat="40.8511666" lon="8.675011"><ele>196.0</ele><time>2026-04-26T08:56:23.979Z</time></trkpt><trkpt lat="40.8512821" lon="8.6749719"><ele>198.0</ele><time>2026-04-26T08:56:24.979Z</time></trkpt><trkpt lat="40.8514007" lon="8.6749273"><ele>200.0</ele><time>2026-04-26T08:56:25.978Z</time></trkpt><trkpt lat="40.851513" lon="8.67488"><ele>200.00000000000003</ele><time>2026-04-26T08:56:26.979Z</time></trkpt><trkpt lat="40.8516109" lon="8.6748352"><ele>200.0</ele><time>2026-04-26T08:56:27.978Z</time></trkpt><trkpt lat="40.8516973" lon="8.6747987"><ele>200.0</ele><time>2026-04-26T08:56:28.979Z</time></trkpt><trkpt lat="40.8517778" lon="8.6747707"><ele>200.0</ele><time>2026-04-26T08:56:29.978Z</time></trkpt><trkpt lat="40.8518555" lon="8.6747606"><ele>200.00000000000003</ele><time>2026-04-26T08:56:30.978Z</time></trkpt><trkpt lat="40.851929" lon="8.6747766"><ele>200.0</ele><time>2026-04-26T08:56:31.979Z</time></trkpt><trkpt lat="40.8519895" lon="8.6748029"><ele>200.2</ele><time>2026-04-26T08:56:32.979Z</time></trkpt><trkpt lat="40.8520696" lon="8.6749178"><ele>200.4</ele><time>2026-04-26T08:56:34.978Z</time></trkpt><trkpt lat="40.8520946" lon="8.6750137"><ele>200.60000000000002</ele><time>2026-04-26T08:56:35.978Z</time></trkpt><trkpt lat="40.8521281" lon="8.675119"><ele>200.8</ele><time>2026-04-26T08:56:36.978Z</time></trkpt><trkpt lat="40.8521655" lon="8.6752425"><ele>201.0</ele><time>2026-04-26T08:56:37.978Z</time></trkpt><trkpt lat="40.8522056" lon="8.6753764"><ele>203.60000000000002</ele><time>2026-04-26T08:56:38.978Z</time></trkpt><trkpt lat="40.8522484" lon="8.6755106"><ele>206.2</ele><time>2026-04-26T08:56:39.978Z</time></trkpt><trkpt lat="40.852292" lon="8.6756383"><ele>208.79999999999998</ele><time>2026-04-26T08:56:40.979Z</time></trkpt><trkpt lat="40.8523318" lon="8.675755"><ele>211.39999999999998</ele><time>2026-04-26T08:56:41.979Z</time></trkpt><trkpt lat="40.8523661" lon="8.6758663"><ele>214.0</ele><time>2026-04-26T08:56:42.978Z</time></trkpt><trkpt lat="40.8523908" lon="8.6759777"><ele>214.0</ele><time>2026-04-26T08:56:43.978Z</time></trkpt><trkpt lat="40.8524052" lon="8.676096"><ele>213.99999999999997</ele><time>2026-04-26T08:56:44.979Z</time></trkpt><trkpt lat="40.8524129" lon="8.6762231"><ele>213.99999999999997</ele><time>2026-04-26T08:56:45.978Z</time></trkpt><trkpt lat="40.8524169" lon="8.6763593"><ele>214.0</ele><time>2026-04-26T08:56:46.978Z</time></trkpt><trkpt lat="40.8524196" lon="8.6764979"><ele>214.0</ele><time>2026-04-26T08:56:47.979Z</time></trkpt><trkpt lat="40.8524289" lon="8.6766291"><ele>216.33333333333331</ele><time>2026-04-26T08:56:48.978Z</time></trkpt><trkpt lat="40.852443" lon="8.6767498"><ele>218.66666666666666</ele><time>2026-04-26T08:56:49.978Z</time></trkpt><trkpt lat="40.8524546" lon="8.6768537"><ele>221.0</ele><time>2026-04-26T08:56:50.979Z</time></trkpt><trkpt lat="40.8524547" lon="8.6769472"><ele>223.33333333333331</ele><time>2026-04-26T08:56:51.979Z</time></trkpt><trkpt lat="40.8524337" lon="8.6770373"><ele>225.66666666666666</ele><time>2026-04-26T08:56:52.979Z</time></trkpt><trkpt lat="40.8523928" lon="8.6771205"><ele>228.0</ele><time>2026-04-26T08:56:53.978Z</time></trkpt><trkpt lat="40.8523329" lon="8.6772063"><ele>230.2</ele><time>2026-04-26T08:56:54.979Z</time></trkpt><trkpt lat="40.85227" lon="8.6773002"><ele>232.4</ele><time>2026-04-26T08:56:55.978Z</time></trkpt><trkpt lat="40.852216" lon="8.6774107"><ele>234.59999999999997</ele><time>2026-04-26T08:56:56.98Z</time></trkpt><trkpt lat="40.8521744" lon="8.6775362"><ele>236.79999999999998</ele><time>2026-04-26T08:56:57.979Z</time></trkpt><trkpt lat="40.8521443" lon="8.6776721"><ele>239.0</ele><time>2026-04-26T08:56:58.981Z</time></trkpt><trkpt lat="40.8521231" lon="8.6778096"><ele>240.79999999999998</ele><time>2026-04-26T08:56:59.978Z</time></trkpt><trkpt lat="40.8521035" lon="8.6779401"><ele>242.59999999999997</ele><time>2026-04-26T08:57:00.978Z</time></trkpt><trkpt lat="40.85208" lon="8.678055"><ele>244.4</ele><time>2026-04-26T08:57:01.978Z</time></trkpt><trkpt lat="40.8520516" lon="8.6781598"><ele>246.2</ele><time>2026-04-26T08:57:02.979Z</time></trkpt><trkpt lat="40.8519897" lon="8.678354"><ele>248.0</ele><time>2026-04-26T08:57:04.978Z</time></trkpt><trkpt lat="40.8519635" lon="8.6784435"><ele>248.00000000000003</ele><time>2026-04-26T08:57:05.979Z</time></trkpt><trkpt lat="40.8519426" lon="8.6785304"><ele>248.0</ele><time>2026-04-26T08:57:06.98Z</time></trkpt><trkpt lat="40.8519258" lon="8.6786149"><ele>248.0</ele><time>2026-04-26T08:57:07.979Z</time></trkpt><trkpt lat="40.8518948" lon="8.6787265"><ele>248.0</ele><time>2026-04-26T08:57:09.979Z</time></trkpt><trkpt lat="40.8519305" lon="8.678835"><ele>248.00000000000003</ele><time>2026-04-26T08:57:24.981Z</time></trkpt><trkpt lat="40.851993" lon="8.6789723"><ele>248.0</ele><time>2026-04-26T08:57:26.979Z</time></trkpt><trkpt lat="40.85203" lon="8.6790427"><ele>249.00000000000003</ele><time>2026-04-26T08:57:27.979Z</time></trkpt><trkpt lat="40.8521069" lon="8.6791521"><ele>250.0</ele><time>2026-04-26T08:57:29.979Z</time></trkpt><trkpt lat="40.8521725" lon="8.6792303"><ele>251.0</ele><time>2026-04-26T08:57:31.979Z</time></trkpt><trkpt lat="40.8522315" lon="8.6793332"><ele>252.0</ele><time>2026-04-26T08:57:33.978Z</time></trkpt><trkpt lat="40.8522635" lon="8.6794068"><ele>253.00000000000003</ele><time>2026-04-26T08:57:34.978Z</time></trkpt><trkpt lat="40.8522962" lon="8.679489"><ele>254.0</ele><time>2026-04-26T08:57:35.98Z</time></trkpt><trkpt lat="40.8523279" lon="8.6795715"><ele>255.6</ele><time>2026-04-26T08:57:36.979Z</time></trkpt><trkpt lat="40.8523518" lon="8.6796514"><ele>257.2</ele><time>2026-04-26T08:57:37.978Z</time></trkpt><trkpt lat="40.8523763" lon="8.6798111"><ele>258.79999999999995</ele><time>2026-04-26T08:57:39.977Z</time></trkpt><trkpt lat="40.8523965" lon="8.6799599"><ele>260.4</ele><time>2026-04-26T08:57:41.978Z</time></trkpt><trkpt lat="40.8524574" lon="8.6800501"><ele>262.0</ele><time>2026-04-26T08:57:43.979Z</time></trkpt><trkpt lat="40.8525487" lon="8.6800598"><ele>264.0</ele><time>2026-04-26T08:57:45.982Z</time></trkpt><trkpt lat="40.8526479" lon="8.6799379"><ele>266.0</ele><time>2026-04-26T08:57:47.979Z</time></trkpt><trkpt lat="40.8526831" lon="8.6798475"><ele>268.0</ele><time>2026-04-26T08:57:48.979Z</time></trkpt><trkpt lat="40.8527133" lon="8.6797505"><ele>270.0</ele><time>2026-04-26T08:57:49.978Z</time></trkpt><trkpt lat="40.8527385" lon="8.6796556"><ele>272.0</ele><time>2026-04-26T08:57:50.978Z</time></trkpt><trkpt lat="40.8527609" lon="8.6795562"><ele>274.0</ele><time>2026-04-26T08:57:51.979Z</time></trkpt><trkpt lat="40.8527908" lon="8.6794614"><ele>272.16666666666663</ele><time>2026-04-26T08:57:52.979Z</time></trkpt><trkpt lat="40.8528269" lon="8.6793618"><ele>270.3333333333333</ele><time>2026-04-26T08:57:53.978Z</time></trkpt><trkpt lat="40.8528683" lon="8.6792695"><ele>268.5</ele><time>2026-04-26T08:57:54.978Z</time></trkpt><trkpt lat="40.8529129" lon="8.6791866"><ele>266.6666666666667</ele><time>2026-04-26T08:57:55.979Z</time></trkpt><trkpt lat="40.8529669" lon="8.6791135"><ele>264.83333333333337</ele><time>2026-04-26T08:57:56.979Z</time></trkpt><trkpt lat="40.8530308" lon="8.6790465"><ele>263.0</ele><time>2026-04-26T08:57:57.979Z</time></trkpt><trkpt lat="40.8530987" lon="8.6789807"><ele>263.0</ele><time>2026-04-26T08:57:58.979Z</time></trkpt><trkpt lat="40.8531693" lon="8.6789195"><ele>263.0</ele><time>2026-04-26T08:57:59.979Z</time></trkpt><trkpt lat="40.8532427" lon="8.6788741"><ele>263.0</ele><time>2026-04-26T08:58:00.978Z</time></trkpt><trkpt lat="40.8533208" lon="8.6788407"><ele>263.0</ele><time>2026-04-26T08:58:01.979Z</time></trkpt><trkpt lat="40.8533986" lon="8.6788195"><ele>263.0</ele><time>2026-04-26T08:58:02.978Z</time></trkpt><trkpt lat="40.8534704" lon="8.6788088"><ele>263.0</ele><time>2026-04-26T08:58:03.979Z</time></trkpt><trkpt lat="40.8535426" lon="8.6788091"><ele>263.1666666666667</ele><time>2026-04-26T08:58:04.978Z</time></trkpt><trkpt lat="40.8536154" lon="8.678821"><ele>263.33333333333337</ele><time>2026-04-26T08:58:05.979Z</time></trkpt><trkpt lat="40.8536904" lon="8.6788491"><ele>263.5</ele><time>2026-04-26T08:58:06.978Z</time></trkpt><trkpt lat="40.8537678" lon="8.6788891"><ele>263.6666666666667</ele><time>2026-04-26T08:58:07.979Z</time></trkpt><trkpt lat="40.8538493" lon="8.6789403"><ele>263.8333333333333</ele><time>2026-04-26T08:58:08.979Z</time></trkpt><trkpt lat="40.8539354" lon="8.6790016"><ele>264.0</ele><time>2026-04-26T08:58:09.979Z</time></trkpt><trkpt lat="40.8540236" lon="8.6790705"><ele>264.0</ele><time>2026-04-26T08:58:10.979Z</time></trkpt><trkpt lat="40.8541155" lon="8.6791529"><ele>264.0</ele><time>2026-04-26T08:58:11.98Z</time></trkpt><trkpt lat="40.8542067" lon="8.6792448"><ele>264.0</ele><time>2026-04-26T08:58:12.978Z</time></trkpt><trkpt lat="40.8542966" lon="8.6793514"><ele>264.0</ele><time>2026-04-26T08:58:13.98Z</time></trkpt><trkpt lat="40.8543806" lon="8.6794639"><ele>265.4</ele><time>2026-04-26T08:58:14.98Z</time></trkpt><trkpt lat="40.8544564" lon="8.6795724"><ele>266.79999999999995</ele><time>2026-04-26T08:58:15.978Z</time></trkpt><trkpt lat="40.8545322" lon="8.6796631"><ele>268.20000000000005</ele><time>2026-04-26T08:58:16.979Z</time></trkpt><trkpt lat="40.8546096" lon="8.6797366"><ele>269.6</ele><time>2026-04-26T08:58:17.978Z</time></trkpt><trkpt lat="40.854682" lon="8.6797939"><ele>271.0</ele><time>2026-04-26T08:58:18.98Z</time></trkpt><trkpt lat="40.854748" lon="8.6798395"><ele>271.0</ele><time>2026-04-26T08:58:19.979Z</time></trkpt><trkpt lat="40.854806" lon="8.6798937"><ele>271.0</ele><time>2026-04-26T08:58:20.98Z</time></trkpt><trkpt lat="40.8548559" lon="8.6799656"><ele>271.0</ele><time>2026-04-26T08:58:21.978Z</time></trkpt><trkpt lat="40.8549024" lon="8.6800562"><ele>271.0</ele><time>2026-04-26T08:58:22.979Z</time></trkpt><trkpt lat="40.8549472" lon="8.6801654"><ele>271.0</ele><time>2026-04-26T08:58:23.979Z</time></trkpt><trkpt lat="40.854988" lon="8.6802931"><ele>271.0</ele><time>2026-04-26T08:58:24.978Z</time></trkpt><trkpt lat="40.8550321" lon="8.6804211"><ele>270.5</ele><time>2026-04-26T08:58:25.978Z</time></trkpt><trkpt lat="40.8550852" lon="8.680542"><ele>270.0</ele><time>2026-04-26T08:58:26.98Z</time></trkpt><trkpt lat="40.8551556" lon="8.6806551"><ele>269.5</ele><time>2026-04-26T08:58:27.978Z</time></trkpt><trkpt lat="40.8552395" lon="8.6807656"><ele>269.0</ele><time>2026-04-26T08:58:28.979Z</time></trkpt><trkpt lat="40.8553226" lon="8.6808719"><ele>269.0</ele><time>2026-04-26T08:58:29.979Z</time></trkpt><trkpt lat="40.8553951" lon="8.6809764"><ele>269.0</ele><time>2026-04-26T08:58:30.979Z</time></trkpt><trkpt lat="40.8554585" lon="8.6810837"><ele>269.0</ele><time>2026-04-26T08:58:31.978Z</time></trkpt><trkpt lat="40.8555132" lon="8.6811844"><ele>269.0</ele><time>2026-04-26T08:58:32.98Z</time></trkpt><trkpt lat="40.855562" lon="8.6812776"><ele>269.0</ele><time>2026-04-26T08:58:33.979Z</time></trkpt><trkpt lat="40.8556011" lon="8.6813659"><ele>271.57142857142856</ele><time>2026-04-26T08:58:34.979Z</time></trkpt><trkpt lat="40.855638" lon="8.6814429"><ele>274.14285714285717</ele><time>2026-04-26T08:58:35.978Z</time></trkpt><trkpt lat="40.8556729" lon="8.6815157"><ele>276.7142857142857</ele><time>2026-04-26T08:58:36.98Z</time></trkpt><trkpt lat="40.8557036" lon="8.6815922"><ele>279.2857142857143</ele><time>2026-04-26T08:58:37.98Z</time></trkpt><trkpt lat="40.8557314" lon="8.6816739"><ele>281.8571428571429</ele><time>2026-04-26T08:58:38.979Z</time></trkpt><trkpt lat="40.8557637" lon="8.6817625"><ele>284.42857142857144</ele><time>2026-04-26T08:58:39.978Z</time></trkpt><trkpt lat="40.8558121" lon="8.6818472"><ele>287.0</ele><time>2026-04-26T08:58:40.979Z</time></trkpt><trkpt lat="40.8558703" lon="8.6819254"><ele>288.2</ele><time>2026-04-26T08:58:41.979Z</time></trkpt><trkpt lat="40.8559277" lon="8.682002"><ele>289.4</ele><time>2026-04-26T08:58:42.978Z</time></trkpt><trkpt lat="40.8559797" lon="8.6820849"><ele>290.6</ele><time>2026-04-26T08:58:43.978Z</time></trkpt><trkpt lat="40.8560296" lon="8.6821815"><ele>291.8</ele><time>2026-04-26T08:58:44.981Z</time></trkpt><trkpt lat="40.8560875" lon="8.6823043"><ele>293.0</ele><time>2026-04-26T08:58:45.978Z</time></trkpt><trkpt lat="40.8561524" lon="8.6824261"><ele>293.0</ele><time>2026-04-26T08:58:46.978Z</time></trkpt><trkpt lat="40.8562177" lon="8.6825238"><ele>293.0</ele><time>2026-04-26T08:58:47.979Z</time></trkpt><trkpt lat="40.8562804" lon="8.682603"><ele>293.0</ele><time>2026-04-26T08:58:48.979Z</time></trkpt><trkpt lat="40.8563393" lon="8.6826851"><ele>293.0</ele><time>2026-04-26T08:58:49.978Z</time></trkpt><trkpt lat="40.8563887" lon="8.6827734"><ele>293.0</ele><time>2026-04-26T08:58:50.979Z</time></trkpt><trkpt lat="40.8564277" lon="8.6828665"><ele>293.0</ele><time>2026-04-26T08:58:51.979Z</time></trkpt><trkpt lat="40.8564624" lon="8.6829669"><ele>294.6666666666667</ele><time>2026-04-26T08:58:52.979Z</time></trkpt><trkpt lat="40.8564925" lon="8.6830712"><ele>296.33333333333337</ele><time>2026-04-26T08:58:53.978Z</time></trkpt><trkpt lat="40.8565169" lon="8.6831811"><ele>298.0</ele><time>2026-04-26T08:58:54.979Z</time></trkpt><trkpt lat="40.8565311" lon="8.6832945"><ele>299.6666666666667</ele><time>2026-04-26T08:58:55.98Z</time></trkpt><trkpt lat="40.856539" lon="8.6834053"><ele>301.3333333333333</ele><time>2026-04-26T08:58:56.979Z</time></trkpt><trkpt lat="40.8565378" lon="8.6835199"><ele>303.0</ele><time>2026-04-26T08:58:57.978Z</time></trkpt><trkpt lat="40.8565338" lon="8.6836321"><ele>303.8333333333333</ele><time>2026-04-26T08:58:58.979Z</time></trkpt><trkpt lat="40.8565195" lon="8.6837417"><ele>304.6666666666667</ele><time>2026-04-26T08:58:59.98Z</time></trkpt><trkpt lat="40.8565015" lon="8.6838515"><ele>305.5</ele><time>2026-04-26T08:59:00.98Z</time></trkpt><trkpt lat="40.8564793" lon="8.6839662"><ele>306.33333333333337</ele><time>2026-04-26T08:59:01.979Z</time></trkpt><trkpt lat="40.8564551" lon="8.6840745"><ele>307.1666666666667</ele><time>2026-04-26T08:59:02.979Z</time></trkpt><trkpt lat="40.8564282" lon="8.6841716"><ele>308.0</ele><time>2026-04-26T08:59:03.978Z</time></trkpt><trkpt lat="40.8564028" lon="8.6842696"><ele>308.0</ele><time>2026-04-26T08:59:04.979Z</time></trkpt><trkpt lat="40.8563756" lon="8.6843857"><ele>308.0</ele><time>2026-04-26T08:59:05.978Z</time></trkpt><trkpt lat="40.8563502" lon="8.6845195"><ele>308.0</ele><time>2026-04-26T08:59:06.979Z</time></trkpt><trkpt lat="40.856334" lon="8.6846625"><ele>308.0</ele><time>2026-04-26T08:59:07.979Z</time></trkpt><trkpt lat="40.856323" lon="8.6848123"><ele>308.0</ele><time>2026-04-26T08:59:08.98Z</time></trkpt><trkpt lat="40.8563203" lon="8.6849626"><ele>306.0</ele><time>2026-04-26T08:59:09.978Z</time></trkpt><trkpt lat="40.856319" lon="8.6851127"><ele>304.0</ele><time>2026-04-26T08:59:10.978Z</time></trkpt><trkpt lat="40.8563184" lon="8.6852566"><ele>302.0</ele><time>2026-04-26T08:59:11.978Z</time></trkpt><trkpt lat="40.8563155" lon="8.6853915"><ele>300.0</ele><time>2026-04-26T08:59:12.98Z</time></trkpt><trkpt lat="40.8563066" lon="8.6855185"><ele>298.0</ele><time>2026-04-26T08:59:13.979Z</time></trkpt><trkpt lat="40.8562969" lon="8.6856442"><ele>298.4</ele><time>2026-04-26T08:59:14.979Z</time></trkpt><trkpt lat="40.8562881" lon="8.6857789"><ele>298.8</ele><time>2026-04-26T08:59:15.979Z</time></trkpt><trkpt lat="40.8562838" lon="8.6859231"><ele>299.2</ele><time>2026-04-26T08:59:16.979Z</time></trkpt><trkpt lat="40.8562872" lon="8.686074"><ele>299.6</ele><time>2026-04-26T08:59:17.978Z</time></trkpt><trkpt lat="40.8562989" lon="8.6862288"><ele>300.0</ele><time>2026-04-26T08:59:18.979Z</time></trkpt><trkpt lat="40.8563235" lon="8.6863855"><ele>300.0</ele><time>2026-04-26T08:59:19.979Z</time></trkpt><trkpt lat="40.8563584" lon="8.6865489"><ele>300.0</ele><time>2026-04-26T08:59:20.979Z</time></trkpt><trkpt lat="40.8564025" lon="8.6867175"><ele>300.0</ele><time>2026-04-26T08:59:21.978Z</time></trkpt><trkpt lat="40.8564485" lon="8.6868941"><ele>300.0</ele><time>2026-04-26T08:59:22.979Z</time></trkpt><trkpt lat="40.8564848" lon="8.6870815"><ele>304.25</ele><time>2026-04-26T08:59:23.979Z</time></trkpt><trkpt lat="40.856507" lon="8.6872716"><ele>308.5</ele><time>2026-04-26T08:59:24.978Z</time></trkpt><trkpt lat="40.8565259" lon="8.6874611"><ele>312.75</ele><time>2026-04-26T08:59:25.981Z</time></trkpt><trkpt lat="40.8565526" lon="8.6876511"><ele>317.0</ele><time>2026-04-26T08:59:26.98Z</time></trkpt><trkpt lat="40.8565835" lon="8.6878413"><ele>319.75</ele><time>2026-04-26T08:59:27.979Z</time></trkpt><trkpt lat="40.8566106" lon="8.6880269"><ele>322.5</ele><time>2026-04-26T08:59:28.978Z</time></trkpt><trkpt lat="40.8566289" lon="8.6881996"><ele>325.25</ele><time>2026-04-26T08:59:29.979Z</time></trkpt><trkpt lat="40.8566367" lon="8.6883574"><ele>328.0</ele><time>2026-04-26T08:59:30.979Z</time></trkpt><trkpt lat="40.8566323" lon="8.6885106"><ele>331.75</ele><time>2026-04-26T08:59:31.979Z</time></trkpt><trkpt lat="40.8566283" lon="8.6886623"><ele>335.5</ele><time>2026-04-26T08:59:32.979Z</time></trkpt><trkpt lat="40.8566391" lon="8.6888106"><ele>339.25</ele><time>2026-04-26T08:59:33.979Z</time></trkpt><trkpt lat="40.8566553" lon="8.6889614"><ele>343.0</ele><time>2026-04-26T08:59:34.978Z</time></trkpt><trkpt lat="40.856668" lon="8.6891054"><ele>343.0</ele><time>2026-04-26T08:59:35.979Z</time></trkpt><trkpt lat="40.8566685" lon="8.6892492"><ele>343.0</ele><time>2026-04-26T08:59:36.979Z</time></trkpt><trkpt lat="40.8566585" lon="8.689404"><ele>343.0</ele><time>2026-04-26T08:59:37.979Z</time></trkpt><trkpt lat="40.8566405" lon="8.6895524"><ele>343.0</ele><time>2026-04-26T08:59:38.978Z</time></trkpt><trkpt lat="40.8566264" lon="8.6896968"><ele>346.0</ele><time>2026-04-26T08:59:39.981Z</time></trkpt><trkpt lat="40.8566332" lon="8.6898481"><ele>349.0</ele><time>2026-04-26T08:59:40.98Z</time></trkpt><trkpt lat="40.8566534" lon="8.6900208"><ele>352.0</ele><time>2026-04-26T08:59:41.98Z</time></trkpt><trkpt lat="40.8566774" lon="8.6901998"><ele>355.0</ele><time>2026-04-26T08:59:42.979Z</time></trkpt><trkpt lat="40.8567021" lon="8.6903595"><ele>354.5</ele><time>2026-04-26T08:59:43.978Z</time></trkpt><trkpt lat="40.8567298" lon="8.6904901"><ele>354.0</ele><time>2026-04-26T08:59:44.979Z</time></trkpt><trkpt lat="40.8567619" lon="8.6905968"><ele>353.5</ele><time>2026-04-26T08:59:45.979Z</time></trkpt><trkpt lat="40.856795" lon="8.6906865"><ele>353.0</ele><time>2026-04-26T08:59:46.979Z</time></trkpt><trkpt lat="40.8568428" lon="8.690814"><ele>352.5</ele><time>2026-04-26T08:59:48.979Z</time></trkpt><trkpt lat="40.8568727" lon="8.6908912"><ele>352.0</ele><time>2026-04-26T08:59:50.98Z</time></trkpt><trkpt lat="40.8569093" lon="8.6909594"><ele>352.0</ele><time>2026-04-26T08:59:53.979Z</time></trkpt><trkpt lat="40.8569853" lon="8.6910356"><ele>352.0</ele><time>2026-04-26T08:59:56.98Z</time></trkpt><trkpt lat="40.8570569" lon="8.6911175"><ele>352.0</ele><time>2026-04-26T08:59:58.979Z</time></trkpt><trkpt lat="40.8571329" lon="8.6912005"><ele>352.0</ele><time>2026-04-26T09:00:00.98Z</time></trkpt><trkpt lat="40.8571912" lon="8.6912629"><ele>352.0</ele><time>2026-04-26T09:00:02.98Z</time></trkpt><trkpt lat="40.8572594" lon="8.6912929"><ele>352.0</ele><time>2026-04-26T09:00:07.979Z</time></trkpt><trkpt lat="40.8571753" lon="8.6912284"><ele>352.0</ele><time>2026-04-26T09:00:18.979Z</time></trkpt><trkpt lat="40.8571138" lon="8.6911545"><ele>352.0</ele><time>2026-04-26T09:00:19.978Z</time></trkpt><trkpt lat="40.8570558" lon="8.6910931"><ele>352.0</ele><time>2026-04-26T09:00:20.981Z</time></trkpt><trkpt lat="40.8570017" lon="8.6910331"><ele>352.0</ele><time>2026-04-26T09:00:21.978Z</time></trkpt><trkpt lat="40.8569033" lon="8.6909498"><ele>352.0</ele><time>2026-04-26T09:00:23.978Z</time></trkpt><trkpt lat="40.8567862" lon="8.690927"><ele>353.40000000000003</ele><time>2026-04-26T09:00:25.978Z</time></trkpt><trkpt lat="40.8567152" lon="8.6909531"><ele>354.8</ele><time>2026-04-26T09:00:26.978Z</time></trkpt><trkpt lat="40.8566246" lon="8.6910124"><ele>356.2</ele><time>2026-04-26T09:00:27.979Z</time></trkpt><trkpt lat="40.8565283" lon="8.6910764"><ele>357.6</ele><time>2026-04-26T09:00:28.978Z</time></trkpt><trkpt lat="40.8564378" lon="8.6911238"><ele>359.0</ele><time>2026-04-26T09:00:29.978Z</time></trkpt><trkpt lat="40.8563434" lon="8.6911551"><ele>359.1666666666667</ele><time>2026-04-26T09:00:30.978Z</time></trkpt><trkpt lat="40.8562457" lon="8.6911728"><ele>359.33333333333337</ele><time>2026-04-26T09:00:31.98Z</time></trkpt><trkpt lat="40.8561466" lon="8.6911843"><ele>359.5</ele><time>2026-04-26T09:00:32.982Z</time></trkpt><trkpt lat="40.8560561" lon="8.6911978"><ele>359.6666666666667</ele><time>2026-04-26T09:00:33.98Z</time></trkpt><trkpt lat="40.8559757" lon="8.6912176"><ele>359.8333333333333</ele><time>2026-04-26T09:00:34.979Z</time></trkpt><trkpt lat="40.8559058" lon="8.6912432"><ele>360.0</ele><time>2026-04-26T09:00:35.979Z</time></trkpt><trkpt lat="40.8558024" lon="8.6913065"><ele>359.6</ele><time>2026-04-26T09:00:37.979Z</time></trkpt><trkpt lat="40.8557372" lon="8.6914003"><ele>359.2</ele><time>2026-04-26T09:00:39.979Z</time></trkpt><trkpt lat="40.8556953" lon="8.6915506"><ele>358.79999999999995</ele><time>2026-04-26T09:00:41.978Z</time></trkpt><trkpt lat="40.8556745" lon="8.6916402"><ele>358.4</ele><time>2026-04-26T09:00:42.979Z</time></trkpt><trkpt lat="40.8556544" lon="8.6917408"><ele>358.0</ele><time>2026-04-26T09:00:43.978Z</time></trkpt><trkpt lat="40.8556348" lon="8.691847"><ele>356.16666666666663</ele><time>2026-04-26T09:00:44.98Z</time></trkpt><trkpt lat="40.8556139" lon="8.6919562"><ele>354.3333333333333</ele><time>2026-04-26T09:00:45.979Z</time></trkpt><trkpt lat="40.8555899" lon="8.6920684"><ele>352.5</ele><time>2026-04-26T09:00:46.981Z</time></trkpt><trkpt lat="40.8555697" lon="8.6921809"><ele>350.6666666666667</ele><time>2026-04-26T09:00:47.979Z</time></trkpt><trkpt lat="40.8555471" lon="8.6922933"><ele>348.83333333333337</ele><time>2026-04-26T09:00:48.978Z</time></trkpt><trkpt lat="40.855526" lon="8.6924055"><ele>347.0</ele><time>2026-04-26T09:00:49.979Z</time></trkpt><trkpt lat="40.8555024" lon="8.6925191"><ele>347.0</ele><time>2026-04-26T09:00:50.979Z</time></trkpt><trkpt lat="40.8554804" lon="8.6926353"><ele>347.0</ele><time>2026-04-26T09:00:51.979Z</time></trkpt><trkpt lat="40.855454" lon="8.6927528"><ele>347.0</ele><time>2026-04-26T09:00:52.98Z</time></trkpt><trkpt lat="40.8554315" lon="8.6928705"><ele>347.0</ele><time>2026-04-26T09:00:53.978Z</time></trkpt><trkpt lat="40.8554073" lon="8.6929875"><ele>347.0</ele><time>2026-04-26T09:00:54.978Z</time></trkpt><trkpt lat="40.8553801" lon="8.6930984"><ele>346.33333333333337</ele><time>2026-04-26T09:00:55.978Z</time></trkpt><trkpt lat="40.8553472" lon="8.6932042"><ele>345.6666666666667</ele><time>2026-04-26T09:00:56.978Z</time></trkpt><trkpt lat="40.8553142" lon="8.6933047"><ele>345.0</ele><time>2026-04-26T09:00:57.979Z</time></trkpt><trkpt lat="40.8552857" lon="8.6934021"><ele>344.3333333333333</ele><time>2026-04-26T09:00:58.978Z</time></trkpt><trkpt lat="40.8552558" lon="8.6935095"><ele>343.66666666666663</ele><time>2026-04-26T09:00:59.978Z</time></trkpt><trkpt lat="40.8552279" lon="8.693619"><ele>343.0</ele><time>2026-04-26T09:01:00.979Z</time></trkpt><trkpt lat="40.855202" lon="8.6937245"><ele>343.0</ele><time>2026-04-26T09:01:01.979Z</time></trkpt><trkpt lat="40.8551747" lon="8.6938257"><ele>343.0</ele><time>2026-04-26T09:01:02.98Z</time></trkpt><trkpt lat="40.8551553" lon="8.6939219"><ele>343.0</ele><time>2026-04-26T09:01:03.978Z</time></trkpt><trkpt lat="40.8551442" lon="8.6940194"><ele>343.0</ele><time>2026-04-26T09:01:04.979Z</time></trkpt><trkpt lat="40.8551396" lon="8.6941107"><ele>343.0</ele><time>2026-04-26T09:01:05.979Z</time></trkpt><trkpt lat="40.8551177" lon="8.6942405"><ele>343.0</ele><time>2026-04-26T09:01:07.979Z</time></trkpt><trkpt lat="40.8550356" lon="8.6943138"><ele>340.59999999999997</ele><time>2026-04-26T09:01:09.979Z</time></trkpt><trkpt lat="40.8549017" lon="8.6943408"><ele>338.2</ele><time>2026-04-26T09:01:11.978Z</time></trkpt><trkpt lat="40.8548226" lon="8.6943558"><ele>335.8</ele><time>2026-04-26T09:01:12.979Z</time></trkpt><trkpt lat="40.8547416" lon="8.6943637"><ele>333.4</ele><time>2026-04-26T09:01:13.979Z</time></trkpt><trkpt lat="40.8546582" lon="8.6943812"><ele>331.0</ele><time>2026-04-26T09:01:14.98Z</time></trkpt><trkpt lat="40.8545739" lon="8.6944136"><ele>330.6</ele><time>2026-04-26T09:01:15.979Z</time></trkpt><trkpt lat="40.8544898" lon="8.6944537"><ele>330.20000000000005</ele><time>2026-04-26T09:01:16.979Z</time></trkpt><trkpt lat="40.8544007" lon="8.6945021"><ele>329.79999999999995</ele><time>2026-04-26T09:01:17.979Z</time></trkpt><trkpt lat="40.8543065" lon="8.6945565"><ele>329.4</ele><time>2026-04-26T09:01:18.978Z</time></trkpt><trkpt lat="40.8542119" lon="8.694613"><ele>329.0</ele><time>2026-04-26T09:01:19.978Z</time></trkpt><trkpt lat="40.8541161" lon="8.6946688"><ele>328.0</ele><time>2026-04-26T09:01:20.979Z</time></trkpt><trkpt lat="40.8540204" lon="8.6947205"><ele>327.0</ele><time>2026-04-26T09:01:21.979Z</time></trkpt><trkpt lat="40.8539269" lon="8.6947754"><ele>326.0</ele><time>2026-04-26T09:01:22.978Z</time></trkpt><trkpt lat="40.8538357" lon="8.69483"><ele>325.0</ele><time>2026-04-26T09:01:23.978Z</time></trkpt><trkpt lat="40.8537519" lon="8.6948829"><ele>324.0</ele><time>2026-04-26T09:01:24.979Z</time></trkpt><trkpt lat="40.8536756" lon="8.6949298"><ele>324.0</ele><time>2026-04-26T09:01:25.979Z</time></trkpt><trkpt lat="40.8536051" lon="8.6949745"><ele>324.0</ele><time>2026-04-26T09:01:26.979Z</time></trkpt><trkpt lat="40.8535397" lon="8.6950177"><ele>324.0</ele><time>2026-04-26T09:01:27.979Z</time></trkpt><trkpt lat="40.8534797" lon="8.6950606"><ele>324.0</ele><time>2026-04-26T09:01:28.978Z</time></trkpt><trkpt lat="40.8534226" lon="8.6951119"><ele>324.0</ele><time>2026-04-26T09:01:29.98Z</time></trkpt><trkpt lat="40.8533669" lon="8.6951821"><ele>324.0</ele><time>2026-04-26T09:01:30.979Z</time></trkpt><trkpt lat="40.8533202" lon="8.6952687"><ele>324.0</ele><time>2026-04-26T09:01:31.979Z</time></trkpt><trkpt lat="40.8532847" lon="8.6953628"><ele>324.4</ele><time>2026-04-26T09:01:32.978Z</time></trkpt><trkpt lat="40.8532578" lon="8.6954531"><ele>324.79999999999995</ele><time>2026-04-26T09:01:33.979Z</time></trkpt><trkpt lat="40.8532445" lon="8.6955388"><ele>325.20000000000005</ele><time>2026-04-26T09:01:34.978Z</time></trkpt><trkpt lat="40.8532448" lon="8.6956834"><ele>325.6</ele><time>2026-04-26T09:01:36.978Z</time></trkpt><trkpt lat="40.8532947" lon="8.6957993"><ele>326.0</ele><time>2026-04-26T09:01:38.979Z</time></trkpt><trkpt lat="40.8533508" lon="8.695949"><ele>326.0</ele><time>2026-04-26T09:01:40.979Z</time></trkpt><trkpt lat="40.8533727" lon="8.6960445"><ele>326.0</ele><time>2026-04-26T09:01:41.978Z</time></trkpt><trkpt lat="40.8533916" lon="8.6961498"><ele>326.0</ele><time>2026-04-26T09:01:42.978Z</time></trkpt><trkpt lat="40.853416" lon="8.6962595"><ele>326.0</ele><time>2026-04-26T09:01:43.979Z</time></trkpt><trkpt lat="40.8534419" lon="8.6963741"><ele>326.0</ele><time>2026-04-26T09:01:44.979Z</time></trkpt><trkpt lat="40.8534679" lon="8.6964944"><ele>326.0</ele><time>2026-04-26T09:01:45.98Z</time></trkpt><trkpt lat="40.8534959" lon="8.6966184"><ele>324.6</ele><time>2026-04-26T09:01:46.978Z</time></trkpt><trkpt lat="40.8535307" lon="8.6967433"><ele>323.20000000000005</ele><time>2026-04-26T09:01:47.978Z</time></trkpt><trkpt lat="40.8535671" lon="8.696873"><ele>321.79999999999995</ele><time>2026-04-26T09:01:48.978Z</time></trkpt><trkpt lat="40.853606" lon="8.6969973"><ele>320.4</ele><time>2026-04-26T09:01:49.978Z</time></trkpt><trkpt lat="40.8536417" lon="8.6971172"><ele>319.0</ele><time>2026-04-26T09:01:50.979Z</time></trkpt><trkpt lat="40.8536768" lon="8.697233"><ele>318.5</ele><time>2026-04-26T09:01:51.979Z</time></trkpt><trkpt lat="40.8537069" lon="8.6973401"><ele>318.0</ele><time>2026-04-26T09:01:52.979Z</time></trkpt><trkpt lat="40.8537243" lon="8.6974357"><ele>317.5</ele><time>2026-04-26T09:01:53.979Z</time></trkpt><trkpt lat="40.8537214" lon="8.6975194"><ele>317.0</ele><time>2026-04-26T09:01:54.979Z</time></trkpt><trkpt lat="40.8536893" lon="8.6976061"><ele>316.5</ele><time>2026-04-26T09:01:55.979Z</time></trkpt><trkpt lat="40.8536446" lon="8.6977008"><ele>316.0</ele><time>2026-04-26T09:01:56.978Z</time></trkpt><trkpt lat="40.8535939" lon="8.6978092"><ele>316.0</ele><time>2026-04-26T09:01:57.978Z</time></trkpt><trkpt lat="40.8535505" lon="8.6979257"><ele>316.0</ele><time>2026-04-26T09:01:58.979Z</time></trkpt><trkpt lat="40.8535074" lon="8.6980389"><ele>316.0</ele><time>2026-04-26T09:01:59.978Z</time></trkpt><trkpt lat="40.8534646" lon="8.6981474"><ele>316.0</ele><time>2026-04-26T09:02:00.978Z</time></trkpt><trkpt lat="40.853425" lon="8.6982488"><ele>316.0</ele><time>2026-04-26T09:02:01.979Z</time></trkpt><trkpt lat="40.8533836" lon="8.6983438"><ele>316.00000000000006</ele><time>2026-04-26T09:02:02.979Z</time></trkpt><trkpt lat="40.8533396" lon="8.6984285"><ele>316.0</ele><time>2026-04-26T09:02:03.979Z</time></trkpt><trkpt lat="40.8532921" lon="8.6985034"><ele>316.0</ele><time>2026-04-26T09:02:04.981Z</time></trkpt><trkpt lat="40.8532409" lon="8.6985708"><ele>316.0</ele><time>2026-04-26T09:02:05.978Z</time></trkpt><trkpt lat="40.8531841" lon="8.6986278"><ele>316.0</ele><time>2026-04-26T09:02:06.979Z</time></trkpt><trkpt lat="40.853127" lon="8.6986831"><ele>316.00000000000006</ele><time>2026-04-26T09:02:07.979Z</time></trkpt><trkpt lat="40.8530692" lon="8.6987536"><ele>316.0</ele><time>2026-04-26T09:02:08.979Z</time></trkpt><trkpt lat="40.8530114" lon="8.6988264"><ele>315.8333333333333</ele><time>2026-04-26T09:02:09.979Z</time></trkpt><trkpt lat="40.8529534" lon="8.6989081"><ele>315.66666666666663</ele><time>2026-04-26T09:02:10.978Z</time></trkpt><trkpt lat="40.8528989" lon="8.6989997"><ele>315.5</ele><time>2026-04-26T09:02:11.979Z</time></trkpt><trkpt lat="40.8528472" lon="8.6990959"><ele>315.3333333333333</ele><time>2026-04-26T09:02:12.979Z</time></trkpt><trkpt lat="40.8528008" lon="8.6991947"><ele>315.1666666666667</ele><time>2026-04-26T09:02:13.98Z</time></trkpt><trkpt lat="40.8527561" lon="8.6992926"><ele>315.0</ele><time>2026-04-26T09:02:14.978Z</time></trkpt><trkpt lat="40.8527078" lon="8.6993859"><ele>314.5</ele><time>2026-04-26T09:02:15.979Z</time></trkpt><trkpt lat="40.8526561" lon="8.6994777"><ele>314.0</ele><time>2026-04-26T09:02:16.979Z</time></trkpt><trkpt lat="40.8525981" lon="8.6995607"><ele>313.5</ele><time>2026-04-26T09:02:17.979Z</time></trkpt><trkpt lat="40.8525384" lon="8.6996457"><ele>313.0</ele><time>2026-04-26T09:02:18.978Z</time></trkpt><trkpt lat="40.8524812" lon="8.699742"><ele>312.5</ele><time>2026-04-26T09:02:19.979Z</time></trkpt><trkpt lat="40.852436" lon="8.6998514"><ele>312.0</ele><time>2026-04-26T09:02:20.979Z</time></trkpt><trkpt lat="40.8524" lon="8.6999724"><ele>311.6</ele><time>2026-04-26T09:02:21.978Z</time></trkpt><trkpt lat="40.8523695" lon="8.7000997"><ele>311.2</ele><time>2026-04-26T09:02:22.979Z</time></trkpt><trkpt lat="40.8523366" lon="8.7002264"><ele>310.8</ele><time>2026-04-26T09:02:23.979Z</time></trkpt><trkpt lat="40.8522908" lon="8.7003499"><ele>310.4</ele><time>2026-04-26T09:02:24.977Z</time></trkpt><trkpt lat="40.8522385" lon="8.7004752"><ele>310.0</ele><time>2026-04-26T09:02:25.98Z</time></trkpt><trkpt lat="40.8521866" lon="8.7006009"><ele>309.0</ele><time>2026-04-26T09:02:26.979Z</time></trkpt><trkpt lat="40.8521471" lon="8.7007268"><ele>308.0</ele><time>2026-04-26T09:02:27.978Z</time></trkpt><trkpt lat="40.8521191" lon="8.7008634"><ele>307.0</ele><time>2026-04-26T09:02:28.979Z</time></trkpt><trkpt lat="40.8520943" lon="8.7010099"><ele>306.0</ele><time>2026-04-26T09:02:29.979Z</time></trkpt><trkpt lat="40.8520669" lon="8.7011678"><ele>305.0</ele><time>2026-04-26T09:02:30.978Z</time></trkpt><trkpt lat="40.8520285" lon="8.7013254"><ele>304.5</ele><time>2026-04-26T09:02:31.981Z</time></trkpt><trkpt lat="40.8519804" lon="8.7014811"><ele>304.0</ele><time>2026-04-26T09:02:32.978Z</time></trkpt><trkpt lat="40.8519309" lon="8.7016349"><ele>303.5</ele><time>2026-04-26T09:02:33.979Z</time></trkpt><trkpt lat="40.8518848" lon="8.7017878"><ele>303.0</ele><time>2026-04-26T09:02:34.979Z</time></trkpt><trkpt lat="40.8518423" lon="8.7019364"><ele>303.25</ele><time>2026-04-26T09:02:35.978Z</time></trkpt><trkpt lat="40.851804" lon="8.7020865"><ele>303.5</ele><time>2026-04-26T09:02:36.978Z</time></trkpt><trkpt lat="40.8517692" lon="8.7022359"><ele>303.75</ele><time>2026-04-26T09:02:37.979Z</time></trkpt><trkpt lat="40.8517379" lon="8.7023912"><ele>304.0</ele><time>2026-04-26T09:02:38.978Z</time></trkpt><trkpt lat="40.8517104" lon="8.7025525"><ele>304.0</ele><time>2026-04-26T09:02:39.979Z</time></trkpt><trkpt lat="40.8516855" lon="8.7027183"><ele>304.0</ele><time>2026-04-26T09:02:40.978Z</time></trkpt><trkpt lat="40.8516613" lon="8.7028851"><ele>304.0</ele><time>2026-04-26T09:02:41.979Z</time></trkpt><trkpt lat="40.8516396" lon="8.7030519"><ele>304.0</ele><time>2026-04-26T09:02:42.979Z</time></trkpt><trkpt lat="40.8516169" lon="8.7032176"><ele>304.25</ele><time>2026-04-26T09:02:43.98Z</time></trkpt><trkpt lat="40.8515859" lon="8.7033778"><ele>304.5</ele><time>2026-04-26T09:02:44.979Z</time></trkpt><trkpt lat="40.8515416" lon="8.7035345"><ele>304.75</ele><time>2026-04-26T09:02:45.978Z</time></trkpt><trkpt lat="40.851483" lon="8.7036836"><ele>305.0</ele><time>2026-04-26T09:02:46.979Z</time></trkpt><trkpt lat="40.8514153" lon="8.703826"><ele>304.5</ele><time>2026-04-26T09:02:47.979Z</time></trkpt><trkpt lat="40.8513392" lon="8.7039673"><ele>304.0</ele><time>2026-04-26T09:02:48.979Z</time></trkpt><trkpt lat="40.8512603" lon="8.7041039"><ele>303.5</ele><time>2026-04-26T09:02:49.979Z</time></trkpt><trkpt lat="40.8511803" lon="8.7042282"><ele>303.0</ele><time>2026-04-26T09:02:50.979Z</time></trkpt><trkpt lat="40.8511023" lon="8.704345"><ele>302.75</ele><time>2026-04-26T09:02:51.977Z</time></trkpt><trkpt lat="40.8510375" lon="8.7044689"><ele>302.5</ele><time>2026-04-26T09:02:52.978Z</time></trkpt><trkpt lat="40.8509834" lon="8.7046032"><ele>302.25</ele><time>2026-04-26T09:02:53.978Z</time></trkpt><trkpt lat="40.8509374" lon="8.7047408"><ele>302.0</ele><time>2026-04-26T09:02:54.978Z</time></trkpt><trkpt lat="40.8509026" lon="8.7048807"><ele>301.6</ele><time>2026-04-26T09:02:55.978Z</time></trkpt><trkpt lat="40.8508709" lon="8.7050174"><ele>301.2</ele><time>2026-04-26T09:02:56.978Z</time></trkpt><trkpt lat="40.8508379" lon="8.7051534"><ele>300.8</ele><time>2026-04-26T09:02:57.981Z</time></trkpt><trkpt lat="40.8507891" lon="8.7052763"><ele>300.4</ele><time>2026-04-26T09:02:58.979Z</time></trkpt><trkpt lat="40.8507286" lon="8.7053914"><ele>300.0</ele><time>2026-04-26T09:02:59.978Z</time></trkpt><trkpt lat="40.8506556" lon="8.7055071"><ele>300.0</ele><time>2026-04-26T09:03:00.978Z</time></trkpt><trkpt lat="40.8505766" lon="8.7056246"><ele>300.0</ele><time>2026-04-26T09:03:01.979Z</time></trkpt><trkpt lat="40.8504863" lon="8.70574"><ele>300.0</ele><time>2026-04-26T09:03:02.979Z</time></trkpt><trkpt lat="40.8503965" lon="8.7058517"><ele>300.0</ele><time>2026-04-26T09:03:03.979Z</time></trkpt><trkpt lat="40.8503089" lon="8.7059694"><ele>300.0</ele><time>2026-04-26T09:03:04.979Z</time></trkpt><trkpt lat="40.8502264" lon="8.7061077"><ele>300.0</ele><time>2026-04-26T09:03:05.978Z</time></trkpt><trkpt lat="40.8501539" lon="8.7062661"><ele>300.0</ele><time>2026-04-26T09:03:06.979Z</time></trkpt><trkpt lat="40.8500913" lon="8.706433"><ele>300.0</ele><time>2026-04-26T09:03:07.979Z</time></trkpt><trkpt lat="40.8500318" lon="8.7066144"><ele>301.0</ele><time>2026-04-26T09:03:08.979Z</time></trkpt><trkpt lat="40.8499739" lon="8.7067991"><ele>302.0</ele><time>2026-04-26T09:03:09.979Z</time></trkpt><trkpt lat="40.8499185" lon="8.7069802"><ele>303.0</ele><time>2026-04-26T09:03:10.978Z</time></trkpt><trkpt lat="40.8498697" lon="8.7071539"><ele>304.0</ele><time>2026-04-26T09:03:11.978Z</time></trkpt><trkpt lat="40.8498269" lon="8.7073231"><ele>304.75</ele><time>2026-04-26T09:03:12.979Z</time></trkpt><trkpt lat="40.8497862" lon="8.7074976"><ele>305.5</ele><time>2026-04-26T09:03:13.977Z</time></trkpt><trkpt lat="40.8497496" lon="8.7076724"><ele>306.25</ele><time>2026-04-26T09:03:14.979Z</time></trkpt><trkpt lat="40.8497229" lon="8.7078388"><ele>307.0</ele><time>2026-04-26T09:03:15.979Z</time></trkpt><trkpt lat="40.8496992" lon="8.7079936"><ele>307.2</ele><time>2026-04-26T09:03:16.978Z</time></trkpt><trkpt lat="40.8496817" lon="8.708143"><ele>307.4</ele><time>2026-04-26T09:03:17.979Z</time></trkpt><trkpt lat="40.8496657" lon="8.7082869"><ele>307.6</ele><time>2026-04-26T09:03:18.978Z</time></trkpt><trkpt lat="40.8496508" lon="8.7084183"><ele>307.8</ele><time>2026-04-26T09:03:19.978Z</time></trkpt><trkpt lat="40.849638" lon="8.7085344"><ele>308.0</ele><time>2026-04-26T09:03:20.979Z</time></trkpt><trkpt lat="40.8496251" lon="8.7086358"><ele>308.83333333333337</ele><time>2026-04-26T09:03:21.979Z</time></trkpt><trkpt lat="40.8496135" lon="8.7087209"><ele>309.6666666666667</ele><time>2026-04-26T09:03:22.98Z</time></trkpt><trkpt lat="40.8495951" lon="8.7088529"><ele>310.5</ele><time>2026-04-26T09:03:24.979Z</time></trkpt><trkpt lat="40.8495831" lon="8.7089489"><ele>311.3333333333333</ele><time>2026-04-26T09:03:27.978Z</time></trkpt><trkpt lat="40.8495818" lon="8.7090493"><ele>312.16666666666663</ele><time>2026-04-26T09:03:30.979Z</time></trkpt><trkpt lat="40.8495722" lon="8.7091669"><ele>313.0</ele><time>2026-04-26T09:03:32.979Z</time></trkpt><trkpt lat="40.8495613" lon="8.7093223"><ele>314.5</ele><time>2026-04-26T09:03:34.979Z</time></trkpt><trkpt lat="40.8495492" lon="8.7094131"><ele>316.0</ele><time>2026-04-26T09:03:35.978Z</time></trkpt><trkpt lat="40.849542" lon="8.7095099"><ele>317.5</ele><time>2026-04-26T09:03:36.978Z</time></trkpt><trkpt lat="40.8495389" lon="8.7096116"><ele>319.0</ele><time>2026-04-26T09:03:37.978Z</time></trkpt><trkpt lat="40.8495412" lon="8.7097149"><ele>320.5</ele><time>2026-04-26T09:03:38.979Z</time></trkpt><trkpt lat="40.8495441" lon="8.7098154"><ele>322.0</ele><time>2026-04-26T09:03:39.978Z</time></trkpt><trkpt lat="40.849537" lon="8.7099153"><ele>322.0</ele><time>2026-04-26T09:03:40.979Z</time></trkpt><trkpt lat="40.8495147" lon="8.7099989"><ele>322.0</ele><time>2026-04-26T09:03:41.979Z</time></trkpt><trkpt lat="40.8494511" lon="8.71005"><ele>322.0</ele><time>2026-04-26T09:03:42.979Z</time></trkpt><trkpt lat="40.8493677" lon="8.7100765"><ele>322.0</ele><time>2026-04-26T09:03:43.979Z</time></trkpt><trkpt lat="40.8492752" lon="8.7100902"><ele>322.0</ele><time>2026-04-26T09:03:44.979Z</time></trkpt><trkpt lat="40.8491938" lon="8.7101281"><ele>322.0</ele><time>2026-04-26T09:03:45.978Z</time></trkpt><trkpt lat="40.849117" lon="8.7101763"><ele>322.8333333333333</ele><time>2026-04-26T09:03:46.979Z</time></trkpt><trkpt lat="40.8490556" lon="8.7102413"><ele>323.66666666666663</ele><time>2026-04-26T09:03:47.979Z</time></trkpt><trkpt lat="40.8490037" lon="8.7103152"><ele>324.5</ele><time>2026-04-26T09:03:48.979Z</time></trkpt><trkpt lat="40.8489484" lon="8.7103851"><ele>325.3333333333333</ele><time>2026-04-26T09:03:49.978Z</time></trkpt><trkpt lat="40.8488869" lon="8.7104523"><ele>326.1666666666667</ele><time>2026-04-26T09:03:50.979Z</time></trkpt><trkpt lat="40.8488228" lon="8.710519"><ele>327.0</ele><time>2026-04-26T09:03:51.978Z</time></trkpt><trkpt lat="40.8487626" lon="8.7105861"><ele>327.7142857142857</ele><time>2026-04-26T09:03:52.978Z</time></trkpt><trkpt lat="40.8487126" lon="8.7106612"><ele>328.42857142857144</ele><time>2026-04-26T09:03:53.978Z</time></trkpt><trkpt lat="40.848673" lon="8.7107384"><ele>329.1428571428571</ele><time>2026-04-26T09:03:54.979Z</time></trkpt><trkpt lat="40.8486436" lon="8.7108231"><ele>329.8571428571429</ele><time>2026-04-26T09:03:55.978Z</time></trkpt><trkpt lat="40.8486268" lon="8.7109167"><ele>330.5714285714286</ele><time>2026-04-26T09:03:56.98Z</time></trkpt><trkpt lat="40.8486144" lon="8.71101"><ele>331.2857142857143</ele><time>2026-04-26T09:03:57.979Z</time></trkpt><trkpt lat="40.8486008" lon="8.7111002"><ele>332.0</ele><time>2026-04-26T09:03:58.978Z</time></trkpt><trkpt lat="40.848569" lon="8.7112394"><ele>332.0</ele><time>2026-04-26T09:04:00.979Z</time></trkpt><trkpt lat="40.8485249" lon="8.7113434"><ele>332.0</ele><time>2026-04-26T09:04:02.978Z</time></trkpt><trkpt lat="40.8484437" lon="8.7114423"><ele>332.0</ele><time>2026-04-26T09:04:04.977Z</time></trkpt><trkpt lat="40.8483477" lon="8.7115255"><ele>332.0</ele><time>2026-04-26T09:04:06.979Z</time></trkpt><trkpt lat="40.8482298" lon="8.7115819"><ele>332.0</ele><time>2026-04-26T09:04:08.98Z</time></trkpt><trkpt lat="40.8481632" lon="8.7115965"><ele>332.4285714285714</ele><time>2026-04-26T09:04:09.981Z</time></trkpt><trkpt lat="40.8480938" lon="8.7116058"><ele>332.8571428571429</ele><time>2026-04-26T09:04:10.98Z</time></trkpt><trkpt lat="40.8480217" lon="8.7116128"><ele>333.2857142857143</ele><time>2026-04-26T09:04:11.98Z</time></trkpt><trkpt lat="40.8479492" lon="8.711621"><ele>333.71428571428567</ele><time>2026-04-26T09:04:12.979Z</time></trkpt><trkpt lat="40.8478805" lon="8.7116288"><ele>334.1428571428571</ele><time>2026-04-26T09:04:13.98Z</time></trkpt><trkpt lat="40.8478129" lon="8.7116335"><ele>334.57142857142856</ele><time>2026-04-26T09:04:14.978Z</time></trkpt><trkpt lat="40.8477433" lon="8.7116441"><ele>335.0</ele><time>2026-04-26T09:04:15.978Z</time></trkpt><trkpt lat="40.847675" lon="8.7116699"><ele>335.1666666666667</ele><time>2026-04-26T09:04:16.978Z</time></trkpt><trkpt lat="40.8476146" lon="8.711722"><ele>335.33333333333337</ele><time>2026-04-26T09:04:17.979Z</time></trkpt><trkpt lat="40.8475719" lon="8.7117981"><ele>335.5</ele><time>2026-04-26T09:04:18.979Z</time></trkpt><trkpt lat="40.8475422" lon="8.7118908"><ele>335.6666666666667</ele><time>2026-04-26T09:04:19.979Z</time></trkpt><trkpt lat="40.8475306" lon="8.7120016"><ele>335.8333333333333</ele><time>2026-04-26T09:04:20.98Z</time></trkpt><trkpt lat="40.8475242" lon="8.7121144"><ele>336.0</ele><time>2026-04-26T09:04:21.978Z</time></trkpt><trkpt lat="40.8475134" lon="8.7122284"><ele>336.14285714285717</ele><time>2026-04-26T09:04:22.978Z</time></trkpt><trkpt lat="40.8475" lon="8.712339"><ele>336.2857142857143</ele><time>2026-04-26T09:04:23.979Z</time></trkpt><trkpt lat="40.8474868" lon="8.7124375"><ele>336.42857142857144</ele><time>2026-04-26T09:04:24.978Z</time></trkpt><trkpt lat="40.8474748" lon="8.7125287"><ele>336.57142857142856</ele><time>2026-04-26T09:04:25.979Z</time></trkpt><trkpt lat="40.8474605" lon="8.7126184"><ele>336.7142857142857</ele><time>2026-04-26T09:04:26.979Z</time></trkpt><trkpt lat="40.8474386" lon="8.7127082"><ele>336.8571428571429</ele><time>2026-04-26T09:04:27.978Z</time></trkpt><trkpt lat="40.847407" lon="8.7127917"><ele>337.0</ele><time>2026-04-26T09:04:28.978Z</time></trkpt><trkpt lat="40.8473671" lon="8.7128777"><ele>336.16666666666663</ele><time>2026-04-26T09:04:29.979Z</time></trkpt><trkpt lat="40.8473265" lon="8.7129686"><ele>335.3333333333333</ele><time>2026-04-26T09:04:30.979Z</time></trkpt><trkpt lat="40.8472954" lon="8.7130681"><ele>334.5</ele><time>2026-04-26T09:04:31.979Z</time></trkpt><trkpt lat="40.8472791" lon="8.7131743"><ele>333.6666666666667</ele><time>2026-04-26T09:04:32.981Z</time></trkpt><trkpt lat="40.8472802" lon="8.7132804"><ele>332.83333333333337</ele><time>2026-04-26T09:04:33.979Z</time></trkpt><trkpt lat="40.8472985" lon="8.7133851"><ele>332.0</ele><time>2026-04-26T09:04:34.978Z</time></trkpt><trkpt lat="40.8473327" lon="8.7134876"><ele>332.6</ele><time>2026-04-26T09:04:35.978Z</time></trkpt><trkpt lat="40.8473745" lon="8.7135858"><ele>333.20000000000005</ele><time>2026-04-26T09:04:36.978Z</time></trkpt><trkpt lat="40.8474193" lon="8.7136819"><ele>333.8</ele><time>2026-04-26T09:04:37.978Z</time></trkpt><trkpt lat="40.8474672" lon="8.7137823"><ele>334.4</ele><time>2026-04-26T09:04:38.982Z</time></trkpt><trkpt lat="40.8475167" lon="8.7138868"><ele>335.0</ele><time>2026-04-26T09:04:39.979Z</time></trkpt><trkpt lat="40.847569" lon="8.7139935"><ele>332.6</ele><time>2026-04-26T09:04:40.979Z</time></trkpt><trkpt lat="40.8476274" lon="8.7141004"><ele>330.2</ele><time>2026-04-26T09:04:41.979Z</time></trkpt><trkpt lat="40.8476859" lon="8.7142058"><ele>327.79999999999995</ele><time>2026-04-26T09:04:42.98Z</time></trkpt><trkpt lat="40.8477406" lon="8.7143124"><ele>325.4</ele><time>2026-04-26T09:04:43.98Z</time></trkpt><trkpt lat="40.8477909" lon="8.7144217"><ele>323.0</ele><time>2026-04-26T09:04:44.979Z</time></trkpt><trkpt lat="40.8478404" lon="8.7145325"><ele>323.0</ele><time>2026-04-26T09:04:45.978Z</time></trkpt><trkpt lat="40.8478871" lon="8.7146455"><ele>323.0</ele><time>2026-04-26T09:04:46.979Z</time></trkpt><trkpt lat="40.8479304" lon="8.7147602"><ele>323.0</ele><time>2026-04-26T09:04:47.979Z</time></trkpt><trkpt lat="40.8479673" lon="8.7148695"><ele>323.0</ele><time>2026-04-26T09:04:48.978Z</time></trkpt><trkpt lat="40.8479994" lon="8.7149783"><ele>323.0</ele><time>2026-04-26T09:04:49.979Z</time></trkpt><trkpt lat="40.8480258" lon="8.7150813"><ele>323.0</ele><time>2026-04-26T09:04:50.979Z</time></trkpt><trkpt lat="40.8480448" lon="8.7151864"><ele>323.0</ele><time>2026-04-26T09:04:51.979Z</time></trkpt><trkpt lat="40.8480531" lon="8.7153001"><ele>323.0</ele><time>2026-04-26T09:04:52.98Z</time></trkpt><trkpt lat="40.8480479" lon="8.7154222"><ele>323.0</ele><time>2026-04-26T09:04:53.977Z</time></trkpt><trkpt lat="40.8480282" lon="8.715548"><ele>323.0</ele><time>2026-04-26T09:04:54.979Z</time></trkpt><trkpt lat="40.8479977" lon="8.7156727"><ele>323.1666666666667</ele><time>2026-04-26T09:04:55.977Z</time></trkpt><trkpt lat="40.8479554" lon="8.7157906"><ele>323.33333333333337</ele><time>2026-04-26T09:04:56.979Z</time></trkpt><trkpt lat="40.847909" lon="8.715893"><ele>323.5</ele><time>2026-04-26T09:04:57.979Z</time></trkpt><trkpt lat="40.8478629" lon="8.7159818"><ele>323.6666666666667</ele><time>2026-04-26T09:04:58.979Z</time></trkpt><trkpt lat="40.8478184" lon="8.7160603"><ele>323.8333333333333</ele><time>2026-04-26T09:04:59.979Z</time></trkpt><trkpt lat="40.8477729" lon="8.7161378"><ele>324.0</ele><time>2026-04-26T09:05:00.978Z</time></trkpt><trkpt lat="40.8477243" lon="8.7162158"><ele>325.3333333333333</ele><time>2026-04-26T09:05:01.978Z</time></trkpt><trkpt lat="40.8476714" lon="8.7162952"><ele>326.6666666666667</ele><time>2026-04-26T09:05:02.979Z</time></trkpt><trkpt lat="40.8476175" lon="8.7163775"><ele>328.0</ele><time>2026-04-26T09:05:03.978Z</time></trkpt><trkpt lat="40.8475621" lon="8.7164612"><ele>329.33333333333337</ele><time>2026-04-26T09:05:04.98Z</time></trkpt><trkpt lat="40.847506" lon="8.7165444"><ele>330.6666666666667</ele><time>2026-04-26T09:05:05.979Z</time></trkpt><trkpt lat="40.8474499" lon="8.7166257"><ele>332.0</ele><time>2026-04-26T09:05:06.978Z</time></trkpt><trkpt lat="40.8473944" lon="8.7167059"><ele>332.0</ele><time>2026-04-26T09:05:07.979Z</time></trkpt><trkpt lat="40.8473363" lon="8.7167823"><ele>332.0</ele><time>2026-04-26T09:05:08.979Z</time></trkpt><trkpt lat="40.847276" lon="8.7168595"><ele>332.0</ele><time>2026-04-26T09:05:09.978Z</time></trkpt><trkpt lat="40.8472151" lon="8.7169364"><ele>332.0</ele><time>2026-04-26T09:05:10.981Z</time></trkpt><trkpt lat="40.8471489" lon="8.7170125"><ele>332.0</ele><time>2026-04-26T09:05:11.978Z</time></trkpt><trkpt lat="40.8470768" lon="8.7170842"><ele>332.0</ele><time>2026-04-26T09:05:12.978Z</time></trkpt><trkpt lat="40.8470028" lon="8.7171564"><ele>333.20000000000005</ele><time>2026-04-26T09:05:13.979Z</time></trkpt><trkpt lat="40.8469267" lon="8.7172317"><ele>334.4</ele><time>2026-04-26T09:05:14.979Z</time></trkpt><trkpt lat="40.8468487" lon="8.7173086"><ele>335.6</ele><time>2026-04-26T09:05:15.978Z</time></trkpt><trkpt lat="40.8467699" lon="8.7173861"><ele>336.79999999999995</ele><time>2026-04-26T09:05:16.978Z</time></trkpt><trkpt lat="40.8466913" lon="8.7174685"><ele>338.0</ele><time>2026-04-26T09:05:17.978Z</time></trkpt><trkpt lat="40.8466118" lon="8.7175503"><ele>338.0</ele><time>2026-04-26T09:05:18.977Z</time></trkpt><trkpt lat="40.8465281" lon="8.7176281"><ele>338.0</ele><time>2026-04-26T09:05:19.978Z</time></trkpt><trkpt lat="40.8464421" lon="8.7177002"><ele>338.0</ele><time>2026-04-26T09:05:20.979Z</time></trkpt><trkpt lat="40.8463521" lon="8.7177676"><ele>338.0</ele><time>2026-04-26T09:05:21.978Z</time></trkpt><trkpt lat="40.8462594" lon="8.7178292"><ele>338.0</ele><time>2026-04-26T09:05:22.978Z</time></trkpt><trkpt lat="40.8461673" lon="8.7178828"><ele>338.2</ele><time>2026-04-26T09:05:23.979Z</time></trkpt><trkpt lat="40.8460744" lon="8.7179259"><ele>338.4</ele><time>2026-04-26T09:05:24.978Z</time></trkpt><trkpt lat="40.8459844" lon="8.7179695"><ele>338.59999999999997</ele><time>2026-04-26T09:05:25.979Z</time></trkpt><trkpt lat="40.8458974" lon="8.7180193"><ele>338.79999999999995</ele><time>2026-04-26T09:05:26.979Z</time></trkpt><trkpt lat="40.8458153" lon="8.7180842"><ele>339.0</ele><time>2026-04-26T09:05:27.978Z</time></trkpt><trkpt lat="40.8457393" lon="8.7181686"><ele>339.0</ele><time>2026-04-26T09:05:28.978Z</time></trkpt><trkpt lat="40.8456662" lon="8.7182656"><ele>339.0</ele><time>2026-04-26T09:05:29.979Z</time></trkpt><trkpt lat="40.8455969" lon="8.7183719"><ele>339.0</ele><time>2026-04-26T09:05:30.981Z</time></trkpt><trkpt lat="40.8455328" lon="8.7184837"><ele>339.0</ele><time>2026-04-26T09:05:31.98Z</time></trkpt><trkpt lat="40.8454813" lon="8.71861"><ele>339.0</ele><time>2026-04-26T09:05:32.979Z</time></trkpt><trkpt lat="40.8454466" lon="8.7187485"><ele>341.25</ele><time>2026-04-26T09:05:33.977Z</time></trkpt><trkpt lat="40.8454205" lon="8.7188973"><ele>343.5</ele><time>2026-04-26T09:05:34.979Z</time></trkpt><trkpt lat="40.8454002" lon="8.7190557"><ele>345.75</ele><time>2026-04-26T09:05:35.978Z</time></trkpt><trkpt lat="40.8453856" lon="8.7192264"><ele>348.0</ele><time>2026-04-26T09:05:36.979Z</time></trkpt><trkpt lat="40.8453687" lon="8.7194025"><ele>350.5</ele><time>2026-04-26T09:05:37.98Z</time></trkpt><trkpt lat="40.8453451" lon="8.7195828"><ele>353.0</ele><time>2026-04-26T09:05:38.979Z</time></trkpt><trkpt lat="40.8453084" lon="8.719765"><ele>355.5</ele><time>2026-04-26T09:05:39.98Z</time></trkpt><trkpt lat="40.8452634" lon="8.7199491"><ele>358.0</ele><time>2026-04-26T09:05:40.977Z</time></trkpt><trkpt lat="40.8452178" lon="8.7201342"><ele>359.25</ele><time>2026-04-26T09:05:41.978Z</time></trkpt><trkpt lat="40.8451737" lon="8.7203192"><ele>360.5</ele><time>2026-04-26T09:05:42.979Z</time></trkpt><trkpt lat="40.8451347" lon="8.7205057"><ele>361.75</ele><time>2026-04-26T09:05:43.978Z</time></trkpt><trkpt lat="40.8451018" lon="8.7206881"><ele>363.0</ele><time>2026-04-26T09:05:44.978Z</time></trkpt><trkpt lat="40.8450726" lon="8.7208655"><ele>368.5</ele><time>2026-04-26T09:05:45.979Z</time></trkpt><trkpt lat="40.844997" lon="8.7213504"><ele>374.0</ele><time>2026-04-26T09:05:48.978Z</time></trkpt><trkpt lat="40.8449626" lon="8.7215054"><ele>374.0</ele><time>2026-04-26T09:05:49.978Z</time></trkpt><trkpt lat="40.8449176" lon="8.7216572"><ele>374.0</ele><time>2026-04-26T09:05:50.978Z</time></trkpt><trkpt lat="40.8448667" lon="8.7218098"><ele>374.0</ele><time>2026-04-26T09:05:51.98Z</time></trkpt><trkpt lat="40.8448175" lon="8.721973"><ele>374.0</ele><time>2026-04-26T09:05:52.977Z</time></trkpt><trkpt lat="40.8447672" lon="8.7221441"><ele>374.0</ele><time>2026-04-26T09:05:53.978Z</time></trkpt><trkpt lat="40.8447151" lon="8.7223104"><ele>374.0</ele><time>2026-04-26T09:05:54.978Z</time></trkpt><trkpt lat="40.8446646" lon="8.7224717"><ele>374.0</ele><time>2026-04-26T09:05:55.978Z</time></trkpt><trkpt lat="40.8446231" lon="8.7226283"><ele>374.0</ele><time>2026-04-26T09:05:56.978Z</time></trkpt><trkpt lat="40.8445894" lon="8.722788"><ele>374.0</ele><time>2026-04-26T09:05:57.979Z</time></trkpt><trkpt lat="40.8445626" lon="8.7229471"><ele>374.0</ele><time>2026-04-26T09:05:58.979Z</time></trkpt><trkpt lat="40.8445411" lon="8.7230988"><ele>374.0</ele><time>2026-04-26T09:05:59.978Z</time></trkpt><trkpt lat="40.844525" lon="8.723242"><ele>374.0</ele><time>2026-04-26T09:06:00.978Z</time></trkpt><trkpt lat="40.8445172" lon="8.7233846"><ele>374.0</ele><time>2026-04-26T09:06:01.979Z</time></trkpt><trkpt lat="40.8445176" lon="8.7235341"><ele>374.0</ele><time>2026-04-26T09:06:02.978Z</time></trkpt><trkpt lat="40.8445183" lon="8.7236927"><ele>374.0</ele><time>2026-04-26T09:06:03.978Z</time></trkpt><trkpt lat="40.8445149" lon="8.723855"><ele>374.0</ele><time>2026-04-26T09:06:04.977Z</time></trkpt><trkpt lat="40.8444986" lon="8.7240293"><ele>375.25</ele><time>2026-04-26T09:06:05.979Z</time></trkpt><trkpt lat="40.8444731" lon="8.7242038"><ele>376.5</ele><time>2026-04-26T09:06:06.979Z</time></trkpt><trkpt lat="40.8444379" lon="8.7243731"><ele>377.75</ele><time>2026-04-26T09:06:07.978Z</time></trkpt><trkpt lat="40.8443901" lon="8.7245348"><ele>379.0</ele><time>2026-04-26T09:06:08.979Z</time></trkpt><trkpt lat="40.8443297" lon="8.7246943"><ele>381.0</ele><time>2026-04-26T09:06:09.978Z</time></trkpt><trkpt lat="40.844261" lon="8.7248499"><ele>383.0</ele><time>2026-04-26T09:06:10.978Z</time></trkpt><trkpt lat="40.8441867" lon="8.7249986"><ele>385.0</ele><time>2026-04-26T09:06:11.977Z</time></trkpt><trkpt lat="40.8441051" lon="8.7251344"><ele>387.0</ele><time>2026-04-26T09:06:12.977Z</time></trkpt><trkpt lat="40.8440192" lon="8.725255"><ele>388.8</ele><time>2026-04-26T09:06:13.979Z</time></trkpt><trkpt lat="40.8439395" lon="8.7253606"><ele>390.6</ele><time>2026-04-26T09:06:14.978Z</time></trkpt><trkpt lat="40.8438697" lon="8.7254635"><ele>392.40000000000003</ele><time>2026-04-26T09:06:15.979Z</time></trkpt><trkpt lat="40.843809" lon="8.7255761"><ele>394.20000000000005</ele><time>2026-04-26T09:06:16.98Z</time></trkpt><trkpt lat="40.8437596" lon="8.7257094"><ele>396.0</ele><time>2026-04-26T09:06:17.977Z</time></trkpt><trkpt lat="40.8437252" lon="8.7258632"><ele>396.0</ele><time>2026-04-26T09:06:18.979Z</time></trkpt><trkpt lat="40.8437028" lon="8.7260255"><ele>396.0</ele><time>2026-04-26T09:06:19.981Z</time></trkpt><trkpt lat="40.843685" lon="8.7261781"><ele>396.0</ele><time>2026-04-26T09:06:20.978Z</time></trkpt><trkpt lat="40.84368" lon="8.7263094"><ele>396.0</ele><time>2026-04-26T09:06:21.978Z</time></trkpt><trkpt lat="40.8436962" lon="8.7264257"><ele>396.0</ele><time>2026-04-26T09:06:22.978Z</time></trkpt><trkpt lat="40.8437389" lon="8.7265359"><ele>397.25</ele><time>2026-04-26T09:06:23.978Z</time></trkpt><trkpt lat="40.8438111" lon="8.72664"><ele>398.5</ele><time>2026-04-26T09:06:24.978Z</time></trkpt><trkpt lat="40.8439076" lon="8.7267454"><ele>399.75</ele><time>2026-04-26T09:06:25.979Z</time></trkpt><trkpt lat="40.8440081" lon="8.7268612"><ele>401.0</ele><time>2026-04-26T09:06:26.978Z</time></trkpt><trkpt lat="40.8440945" lon="8.7269947"><ele>401.0</ele><time>2026-04-26T09:06:27.979Z</time></trkpt><trkpt lat="40.844164" lon="8.7271436"><ele>401.0</ele><time>2026-04-26T09:06:28.979Z</time></trkpt><trkpt lat="40.8442189" lon="8.7272945"><ele>401.0</ele><time>2026-04-26T09:06:29.978Z</time></trkpt><trkpt lat="40.8442747" lon="8.7274391"><ele>401.0</ele><time>2026-04-26T09:06:30.978Z</time></trkpt><trkpt lat="40.8443379" lon="8.7275739"><ele>401.25</ele><time>2026-04-26T09:06:31.978Z</time></trkpt><trkpt lat="40.8443994" lon="8.7276983"><ele>401.5</ele><time>2026-04-26T09:06:32.98Z</time></trkpt><trkpt lat="40.8444544" lon="8.7278241"><ele>401.75</ele><time>2026-04-26T09:06:33.979Z</time></trkpt><trkpt lat="40.8445046" lon="8.7279583"><ele>402.0</ele><time>2026-04-26T09:06:34.978Z</time></trkpt><trkpt lat="40.8445473" lon="8.7281045"><ele>402.0</ele><time>2026-04-26T09:06:35.978Z</time></trkpt><trkpt lat="40.8445855" lon="8.7282593"><ele>402.0</ele><time>2026-04-26T09:06:36.978Z</time></trkpt><trkpt lat="40.8446228" lon="8.7284204"><ele>402.0</ele><time>2026-04-26T09:06:37.981Z</time></trkpt><trkpt lat="40.8446598" lon="8.7285831"><ele>402.0</ele><time>2026-04-26T09:06:38.98Z</time></trkpt><trkpt lat="40.8446959" lon="8.7287426"><ele>401.75</ele><time>2026-04-26T09:06:39.979Z</time></trkpt><trkpt lat="40.8447335" lon="8.7288979"><ele>401.5</ele><time>2026-04-26T09:06:40.979Z</time></trkpt><trkpt lat="40.8447685" lon="8.7290478"><ele>401.25</ele><time>2026-04-26T09:06:41.979Z</time></trkpt><trkpt lat="40.844806" lon="8.7291904"><ele>401.0</ele><time>2026-04-26T09:06:42.978Z</time></trkpt><trkpt lat="40.8448459" lon="8.7293319"><ele>402.0</ele><time>2026-04-26T09:06:43.978Z</time></trkpt><trkpt lat="40.8448881" lon="8.7294682"><ele>403.0</ele><time>2026-04-26T09:06:44.979Z</time></trkpt><trkpt lat="40.8449331" lon="8.7295938"><ele>404.0</ele><time>2026-04-26T09:06:45.979Z</time></trkpt><trkpt lat="40.8449816" lon="8.7297073"><ele>405.0</ele><time>2026-04-26T09:06:46.978Z</time></trkpt><trkpt lat="40.8450285" lon="8.7298108"><ele>406.0</ele><time>2026-04-26T09:06:47.979Z</time></trkpt><trkpt lat="40.8450718" lon="8.7299097"><ele>406.0</ele><time>2026-04-26T09:06:48.978Z</time></trkpt><trkpt lat="40.8451082" lon="8.7300037"><ele>406.0</ele><time>2026-04-26T09:06:49.979Z</time></trkpt><trkpt lat="40.8451345" lon="8.730105"><ele>406.0</ele><time>2026-04-26T09:06:50.978Z</time></trkpt><trkpt lat="40.84515" lon="8.7302201"><ele>406.0</ele><time>2026-04-26T09:06:51.979Z</time></trkpt><trkpt lat="40.8451449" lon="8.730351"><ele>406.0</ele><time>2026-04-26T09:06:52.979Z</time></trkpt><trkpt lat="40.8451333" lon="8.730487"><ele>407.0</ele><time>2026-04-26T09:06:53.978Z</time></trkpt><trkpt lat="40.8451207" lon="8.7306331"><ele>408.0</ele><time>2026-04-26T09:06:54.978Z</time></trkpt><trkpt lat="40.8451144" lon="8.7307743"><ele>409.0</ele><time>2026-04-26T09:06:55.979Z</time></trkpt><trkpt lat="40.8451057" lon="8.7309107"><ele>410.0</ele><time>2026-04-26T09:06:56.979Z</time></trkpt><trkpt lat="40.8450946" lon="8.7310342"><ele>411.0</ele><time>2026-04-26T09:06:57.978Z</time></trkpt><trkpt lat="40.8450768" lon="8.7311465"><ele>411.4</ele><time>2026-04-26T09:06:58.979Z</time></trkpt><trkpt lat="40.8450488" lon="8.7312505"><ele>411.8</ele><time>2026-04-26T09:06:59.978Z</time></trkpt><trkpt lat="40.8450109" lon="8.7313555"><ele>412.2</ele><time>2026-04-26T09:07:00.978Z</time></trkpt><trkpt lat="40.8449676" lon="8.7314702"><ele>412.59999999999997</ele><time>2026-04-26T09:07:01.978Z</time></trkpt><trkpt lat="40.8449256" lon="8.7315898"><ele>413.0</ele><time>2026-04-26T09:07:02.978Z</time></trkpt><trkpt lat="40.8448913" lon="8.7317194"><ele>413.0</ele><time>2026-04-26T09:07:03.98Z</time></trkpt><trkpt lat="40.8448651" lon="8.7318537"><ele>413.0</ele><time>2026-04-26T09:07:04.979Z</time></trkpt><trkpt lat="40.8448435" lon="8.7319818"><ele>413.0</ele><time>2026-04-26T09:07:05.979Z</time></trkpt><trkpt lat="40.8448182" lon="8.7321056"><ele>413.0</ele><time>2026-04-26T09:07:06.979Z</time></trkpt><trkpt lat="40.8447839" lon="8.7322349"><ele>413.0</ele><time>2026-04-26T09:07:07.98Z</time></trkpt><trkpt lat="40.8447394" lon="8.7323674"><ele>413.2</ele><time>2026-04-26T09:07:08.979Z</time></trkpt><trkpt lat="40.8446901" lon="8.7324972"><ele>413.4</ele><time>2026-04-26T09:07:09.978Z</time></trkpt><trkpt lat="40.8446419" lon="8.7326307"><ele>413.59999999999997</ele><time>2026-04-26T09:07:10.978Z</time></trkpt><trkpt lat="40.8445966" lon="8.7327669"><ele>413.79999999999995</ele><time>2026-04-26T09:07:11.978Z</time></trkpt><trkpt lat="40.844553" lon="8.7329043"><ele>414.0</ele><time>2026-04-26T09:07:12.979Z</time></trkpt><trkpt lat="40.8445116" lon="8.7330421"><ele>413.6</ele><time>2026-04-26T09:07:13.978Z</time></trkpt><trkpt lat="40.8444731" lon="8.7331734"><ele>413.2</ele><time>2026-04-26T09:07:14.979Z</time></trkpt><trkpt lat="40.8444372" lon="8.7332989"><ele>412.8</ele><time>2026-04-26T09:07:15.978Z</time></trkpt><trkpt lat="40.8444018" lon="8.7334226"><ele>412.40000000000003</ele><time>2026-04-26T09:07:16.979Z</time></trkpt><trkpt lat="40.8443677" lon="8.7335523"><ele>412.0</ele><time>2026-04-26T09:07:17.978Z</time></trkpt><trkpt lat="40.8443355" lon="8.7336874"><ele>412.8</ele><time>2026-04-26T09:07:18.978Z</time></trkpt><trkpt lat="40.8443029" lon="8.7338248"><ele>413.6</ele><time>2026-04-26T09:07:19.979Z</time></trkpt><trkpt lat="40.8442681" lon="8.7339588"><ele>414.40000000000003</ele><time>2026-04-26T09:07:20.978Z</time></trkpt><trkpt lat="40.8442309" lon="8.73409"><ele>415.20000000000005</ele><time>2026-04-26T09:07:21.978Z</time></trkpt><trkpt lat="40.8441954" lon="8.7342198"><ele>416.0</ele><time>2026-04-26T09:07:22.977Z</time></trkpt><trkpt lat="40.8441579" lon="8.734351"><ele>418.20000000000005</ele><time>2026-04-26T09:07:23.978Z</time></trkpt><trkpt lat="40.8441202" lon="8.7344775"><ele>420.40000000000003</ele><time>2026-04-26T09:07:24.978Z</time></trkpt><trkpt lat="40.8440896" lon="8.7345991"><ele>422.6</ele><time>2026-04-26T09:07:25.979Z</time></trkpt><trkpt lat="40.844084" lon="8.7347178"><ele>424.8</ele><time>2026-04-26T09:07:26.98Z</time></trkpt><trkpt lat="40.8441027" lon="8.7348307"><ele>427.0</ele><time>2026-04-26T09:07:27.979Z</time></trkpt><trkpt lat="40.8441474" lon="8.7349381"><ele>427.0</ele><time>2026-04-26T09:07:28.978Z</time></trkpt><trkpt lat="40.8442233" lon="8.7350067"><ele>427.00000000000006</ele><time>2026-04-26T09:07:29.978Z</time></trkpt><trkpt lat="40.8443028" lon="8.735055"><ele>427.00000000000006</ele><time>2026-04-26T09:07:30.979Z</time></trkpt><trkpt lat="40.8443925" lon="8.7350729"><ele>427.0</ele><time>2026-04-26T09:07:31.979Z</time></trkpt><trkpt lat="40.8444917" lon="8.7350625"><ele>427.0</ele><time>2026-04-26T09:07:32.979Z</time></trkpt><trkpt lat="40.8445905" lon="8.7350537"><ele>426.6</ele><time>2026-04-26T09:07:33.978Z</time></trkpt><trkpt lat="40.8446856" lon="8.7350588"><ele>426.20000000000005</ele><time>2026-04-26T09:07:34.978Z</time></trkpt><trkpt lat="40.8447768" lon="8.7350788"><ele>425.8</ele><time>2026-04-26T09:07:35.98Z</time></trkpt><trkpt lat="40.8448703" lon="8.7351093"><ele>425.4</ele><time>2026-04-26T09:07:36.98Z</time></trkpt><trkpt lat="40.8449686" lon="8.7351469"><ele>425.0</ele><time>2026-04-26T09:07:37.979Z</time></trkpt><trkpt lat="40.8450686" lon="8.7351905"><ele>424.4</ele><time>2026-04-26T09:07:38.978Z</time></trkpt><trkpt lat="40.8451686" lon="8.7352407"><ele>423.8</ele><time>2026-04-26T09:07:39.979Z</time></trkpt><trkpt lat="40.8452655" lon="8.7352951"><ele>423.20000000000005</ele><time>2026-04-26T09:07:40.979Z</time></trkpt><trkpt lat="40.8453538" lon="8.735348"><ele>422.6</ele><time>2026-04-26T09:07:41.978Z</time></trkpt><trkpt lat="40.8454282" lon="8.7354021"><ele>422.0</ele><time>2026-04-26T09:07:42.978Z</time></trkpt><trkpt lat="40.8454834" lon="8.7354607"><ele>421.99999999999994</ele><time>2026-04-26T09:07:43.977Z</time></trkpt><trkpt lat="40.8455427" lon="8.7355673"><ele>422.0</ele><time>2026-04-26T09:07:45.979Z</time></trkpt><trkpt lat="40.8455134" lon="8.7356596"><ele>422.0</ele><time>2026-04-26T09:07:48.979Z</time></trkpt><trkpt lat="40.8454276" lon="8.7356759"><ele>422.0</ele><time>2026-04-26T09:07:50.978Z</time></trkpt><trkpt lat="40.8453645" lon="8.7356687"><ele>421.99999999999994</ele><time>2026-04-26T09:07:51.979Z</time></trkpt><trkpt lat="40.8452977" lon="8.7356648"><ele>422.0</ele><time>2026-04-26T09:07:52.978Z</time></trkpt><trkpt lat="40.8452192" lon="8.7356716"><ele>421.99999999999994</ele><time>2026-04-26T09:07:53.977Z</time></trkpt><trkpt lat="40.8451466" lon="8.7356813"><ele>422.0</ele><time>2026-04-26T09:07:54.977Z</time></trkpt><trkpt lat="40.8450482" lon="8.7357224"><ele>422.0</ele><time>2026-04-26T09:07:56.979Z</time></trkpt><trkpt lat="40.8450185" lon="8.7358133"><ele>422.0</ele><time>2026-04-26T09:07:58.978Z</time></trkpt><trkpt lat="40.8450264" lon="8.735897"><ele>421.99999999999994</ele><time>2026-04-26T09:07:59.978Z</time></trkpt><trkpt lat="40.8450502" lon="8.7360009"><ele>422.0</ele><time>2026-04-26T09:08:00.979Z</time></trkpt><trkpt lat="40.8450766" lon="8.7361159"><ele>421.8</ele><time>2026-04-26T09:08:01.979Z</time></trkpt><trkpt lat="40.8451068" lon="8.7362393"><ele>421.6</ele><time>2026-04-26T09:08:02.978Z</time></trkpt><trkpt lat="40.8451358" lon="8.7363667"><ele>421.40000000000003</ele><time>2026-04-26T09:08:03.978Z</time></trkpt><trkpt lat="40.8451628" lon="8.7365049"><ele>421.20000000000005</ele><time>2026-04-26T09:08:04.979Z</time></trkpt><trkpt lat="40.8451916" lon="8.7366469"><ele>421.0</ele><time>2026-04-26T09:08:05.978Z</time></trkpt><trkpt lat="40.8452195" lon="8.7367928"><ele>421.5</ele><time>2026-04-26T09:08:06.979Z</time></trkpt><trkpt lat="40.8452471" lon="8.7369438"><ele>422.0</ele><time>2026-04-26T09:08:07.978Z</time></trkpt><trkpt lat="40.8452763" lon="8.7370981"><ele>422.5</ele><time>2026-04-26T09:08:08.979Z</time></trkpt><trkpt lat="40.8453048" lon="8.7372531"><ele>423.0</ele><time>2026-04-26T09:08:09.979Z</time></trkpt><trkpt lat="40.8453348" lon="8.7374092"><ele>423.0</ele><time>2026-04-26T09:08:10.979Z</time></trkpt><trkpt lat="40.8453684" lon="8.7375649"><ele>423.0</ele><time>2026-04-26T09:08:11.978Z</time></trkpt><trkpt lat="40.8454039" lon="8.7377216"><ele>423.0</ele><time>2026-04-26T09:08:12.978Z</time></trkpt><trkpt lat="40.8454376" lon="8.7378828"><ele>423.0</ele><time>2026-04-26T09:08:13.979Z</time></trkpt><trkpt lat="40.8454699" lon="8.7380459"><ele>424.25</ele><time>2026-04-26T09:08:14.981Z</time></trkpt><trkpt lat="40.8455027" lon="8.7382114"><ele>425.5</ele><time>2026-04-26T09:08:15.979Z</time></trkpt><trkpt lat="40.8455357" lon="8.738381"><ele>426.75</ele><time>2026-04-26T09:08:16.979Z</time></trkpt><trkpt lat="40.8455688" lon="8.7385543"><ele>428.0</ele><time>2026-04-26T09:08:17.978Z</time></trkpt><trkpt lat="40.8456044" lon="8.7387294"><ele>429.25</ele><time>2026-04-26T09:08:18.979Z</time></trkpt><trkpt lat="40.845639" lon="8.7389073"><ele>430.5</ele><time>2026-04-26T09:08:19.978Z</time></trkpt><trkpt lat="40.8456721" lon="8.7390891"><ele>431.75</ele><time>2026-04-26T09:08:20.979Z</time></trkpt><trkpt lat="40.8457041" lon="8.7392745"><ele>433.0</ele><time>2026-04-26T09:08:21.978Z</time></trkpt><trkpt lat="40.8457396" lon="8.7394604"><ele>433.5</ele><time>2026-04-26T09:08:22.979Z</time></trkpt><trkpt lat="40.8457773" lon="8.7396469"><ele>434.0</ele><time>2026-04-26T09:08:23.978Z</time></trkpt><trkpt lat="40.8458144" lon="8.7398357"><ele>434.5</ele><time>2026-04-26T09:08:24.978Z</time></trkpt><trkpt lat="40.8458484" lon="8.7400285"><ele>435.0</ele><time>2026-04-26T09:08:25.979Z</time></trkpt><trkpt lat="40.8458797" lon="8.7402224"><ele>435.33333333333337</ele><time>2026-04-26T09:08:26.978Z</time></trkpt><trkpt lat="40.8459062" lon="8.7404209"><ele>435.6666666666667</ele><time>2026-04-26T09:08:27.978Z</time></trkpt><trkpt lat="40.8459279" lon="8.7406246"><ele>436.0</ele><time>2026-04-26T09:08:28.978Z</time></trkpt><trkpt lat="40.8459463" lon="8.7408321"><ele>431.33333333333337</ele><time>2026-04-26T09:08:29.982Z</time></trkpt><trkpt lat="40.8459663" lon="8.7410447"><ele>426.66666666666663</ele><time>2026-04-26T09:08:30.979Z</time></trkpt><trkpt lat="40.8459898" lon="8.74126"><ele>422.0</ele><time>2026-04-26T09:08:31.979Z</time></trkpt><trkpt lat="40.8460171" lon="8.7414808"><ele>422.0</ele><time>2026-04-26T09:08:32.978Z</time></trkpt><trkpt lat="40.8460415" lon="8.7417124"><ele>422.0</ele><time>2026-04-26T09:08:33.978Z</time></trkpt><trkpt lat="40.8460635" lon="8.7419499"><ele>422.0</ele><time>2026-04-26T09:08:34.979Z</time></trkpt><trkpt lat="40.8460857" lon="8.7421908"><ele>423.0</ele><time>2026-04-26T09:08:35.979Z</time></trkpt><trkpt lat="40.8461073" lon="8.7424343"><ele>424.0</ele><time>2026-04-26T09:08:36.978Z</time></trkpt><trkpt lat="40.8461297" lon="8.7426825"><ele>425.0</ele><time>2026-04-26T09:08:37.979Z</time></trkpt><trkpt lat="40.8461538" lon="8.7429289"><ele>425.0</ele><time>2026-04-26T09:08:38.979Z</time></trkpt><trkpt lat="40.8461741" lon="8.7431795"><ele>425.0</ele><time>2026-04-26T09:08:39.979Z</time></trkpt><trkpt lat="40.8461942" lon="8.7434301"><ele>425.0</ele><time>2026-04-26T09:08:40.978Z</time></trkpt><trkpt lat="40.8462192" lon="8.7436811"><ele>424.3333333333333</ele><time>2026-04-26T09:08:41.978Z</time></trkpt><trkpt lat="40.846251" lon="8.7439303"><ele>423.66666666666663</ele><time>2026-04-26T09:08:42.979Z</time></trkpt><trkpt lat="40.8463013" lon="8.7441726"><ele>423.0</ele><time>2026-04-26T09:08:43.979Z</time></trkpt><trkpt lat="40.8463748" lon="8.7443986"><ele>423.0</ele><time>2026-04-26T09:08:44.979Z</time></trkpt><trkpt lat="40.8464678" lon="8.7446094"><ele>423.0</ele><time>2026-04-26T09:08:45.979Z</time></trkpt><trkpt lat="40.8465725" lon="8.7448038"><ele>423.0</ele><time>2026-04-26T09:08:46.978Z</time></trkpt><trkpt lat="40.846683" lon="8.7449851"><ele>423.0</ele><time>2026-04-26T09:08:47.978Z</time></trkpt><trkpt lat="40.8467942" lon="8.7451619"><ele>423.0</ele><time>2026-04-26T09:08:48.979Z</time></trkpt><trkpt lat="40.8469031" lon="8.7453375"><ele>423.0</ele><time>2026-04-26T09:08:49.98Z</time></trkpt><trkpt lat="40.8470093" lon="8.7455142"><ele>427.0</ele><time>2026-04-26T09:08:50.979Z</time></trkpt><trkpt lat="40.8471146" lon="8.7456861"><ele>431.0</ele><time>2026-04-26T09:08:51.978Z</time></trkpt><trkpt lat="40.8472191" lon="8.745857"><ele>435.0</ele><time>2026-04-26T09:08:52.979Z</time></trkpt><trkpt lat="40.8473176" lon="8.7460297"><ele>436.33333333333337</ele><time>2026-04-26T09:08:53.979Z</time></trkpt><trkpt lat="40.8474053" lon="8.7462073"><ele>437.6666666666667</ele><time>2026-04-26T09:08:54.979Z</time></trkpt><trkpt lat="40.8474812" lon="8.7463949"><ele>439.0</ele><time>2026-04-26T09:08:55.979Z</time></trkpt><trkpt lat="40.8475447" lon="8.7465893"><ele>439.0</ele><time>2026-04-26T09:08:56.979Z</time></trkpt><trkpt lat="40.8475968" lon="8.7467874"><ele>439.0</ele><time>2026-04-26T09:08:57.978Z</time></trkpt><trkpt lat="40.8476397" lon="8.7469849"><ele>439.0</ele><time>2026-04-26T09:08:58.978Z</time></trkpt><trkpt lat="40.8476798" lon="8.7471787"><ele>437.25</ele><time>2026-04-26T09:08:59.978Z</time></trkpt><trkpt lat="40.8477173" lon="8.7473656"><ele>435.5</ele><time>2026-04-26T09:09:00.98Z</time></trkpt><trkpt lat="40.8477536" lon="8.7475475"><ele>433.75</ele><time>2026-04-26T09:09:01.978Z</time></trkpt><trkpt lat="40.8477868" lon="8.7477266"><ele>432.0</ele><time>2026-04-26T09:09:02.979Z</time></trkpt><trkpt lat="40.8478199" lon="8.7479033"><ele>431.25</ele><time>2026-04-26T09:09:03.979Z</time></trkpt><trkpt lat="40.8478534" lon="8.7480758"><ele>430.5</ele><time>2026-04-26T09:09:04.978Z</time></trkpt><trkpt lat="40.8478861" lon="8.7482381"><ele>429.75</ele><time>2026-04-26T09:09:05.978Z</time></trkpt><trkpt lat="40.847919" lon="8.7483926"><ele>429.0</ele><time>2026-04-26T09:09:06.978Z</time></trkpt><trkpt lat="40.8479499" lon="8.7485443"><ele>428.75</ele><time>2026-04-26T09:09:07.978Z</time></trkpt><trkpt lat="40.8479795" lon="8.7486953"><ele>428.5</ele><time>2026-04-26T09:09:08.98Z</time></trkpt><trkpt lat="40.8480101" lon="8.7488464"><ele>428.25</ele><time>2026-04-26T09:09:09.979Z</time></trkpt><trkpt lat="40.8480395" lon="8.7489988"><ele>428.0</ele><time>2026-04-26T09:09:10.978Z</time></trkpt><trkpt lat="40.8480662" lon="8.7491516"><ele>428.0</ele><time>2026-04-26T09:09:11.978Z</time></trkpt><trkpt lat="40.8480915" lon="8.7493058"><ele>428.0</ele><time>2026-04-26T09:09:12.979Z</time></trkpt><trkpt lat="40.8481181" lon="8.7494627"><ele>428.0</ele><time>2026-04-26T09:09:13.978Z</time></trkpt><trkpt lat="40.8481476" lon="8.7496227"><ele>428.0</ele><time>2026-04-26T09:09:14.978Z</time></trkpt><trkpt lat="40.8481782" lon="8.7497836"><ele>427.5</ele><time>2026-04-26T09:09:15.978Z</time></trkpt><trkpt lat="40.8482096" lon="8.7499466"><ele>427.0</ele><time>2026-04-26T09:09:16.979Z</time></trkpt><trkpt lat="40.848242" lon="8.7501134"><ele>426.5</ele><time>2026-04-26T09:09:17.979Z</time></trkpt><trkpt lat="40.848273" lon="8.7502824"><ele>426.0</ele><time>2026-04-26T09:09:18.977Z</time></trkpt><trkpt lat="40.8483043" lon="8.7504549"><ele>424.75</ele><time>2026-04-26T09:09:19.979Z</time></trkpt><trkpt lat="40.8483366" lon="8.7506305"><ele>423.5</ele><time>2026-04-26T09:09:20.979Z</time></trkpt><trkpt lat="40.8483688" lon="8.7508076"><ele>422.25</ele><time>2026-04-26T09:09:21.979Z</time></trkpt><trkpt lat="40.8484023" lon="8.7509884"><ele>421.0</ele><time>2026-04-26T09:09:22.982Z</time></trkpt><trkpt lat="40.8484357" lon="8.7511706"><ele>419.75</ele><time>2026-04-26T09:09:23.978Z</time></trkpt><trkpt lat="40.8484737" lon="8.7513504"><ele>418.5</ele><time>2026-04-26T09:09:24.979Z</time></trkpt><trkpt lat="40.8485221" lon="8.7515249"><ele>417.25</ele><time>2026-04-26T09:09:25.978Z</time></trkpt><trkpt lat="40.8485831" lon="8.7516964"><ele>416.0</ele><time>2026-04-26T09:09:26.978Z</time></trkpt><trkpt lat="40.8486551" lon="8.7518632"><ele>414.75</ele><time>2026-04-26T09:09:27.978Z</time></trkpt><trkpt lat="40.8487323" lon="8.7520282"><ele>413.5</ele><time>2026-04-26T09:09:28.979Z</time></trkpt><trkpt lat="40.8488092" lon="8.7521951"><ele>412.25</ele><time>2026-04-26T09:09:29.978Z</time></trkpt><trkpt lat="40.8488841" lon="8.7523645"><ele>411.0</ele><time>2026-04-26T09:09:30.979Z</time></trkpt><trkpt lat="40.8489598" lon="8.7525325"><ele>411.0</ele><time>2026-04-26T09:09:31.979Z</time></trkpt><trkpt lat="40.8490375" lon="8.7526996"><ele>411.0</ele><time>2026-04-26T09:09:32.979Z</time></trkpt><trkpt lat="40.8491158" lon="8.7528651"><ele>411.0</ele><time>2026-04-26T09:09:33.978Z</time></trkpt><trkpt lat="40.8491924" lon="8.7530309"><ele>411.0</ele><time>2026-04-26T09:09:34.979Z</time></trkpt><trkpt lat="40.8492666" lon="8.7531942"><ele>409.25</ele><time>2026-04-26T09:09:35.979Z</time></trkpt><trkpt lat="40.8493401" lon="8.7533556"><ele>407.5</ele><time>2026-04-26T09:09:36.979Z</time></trkpt><trkpt lat="40.8494128" lon="8.7535176"><ele>405.75</ele><time>2026-04-26T09:09:37.979Z</time></trkpt><trkpt lat="40.8494837" lon="8.7536807"><ele>404.0</ele><time>2026-04-26T09:09:38.979Z</time></trkpt><trkpt lat="40.8495504" lon="8.7538453"><ele>404.0</ele><time>2026-04-26T09:09:39.979Z</time></trkpt><trkpt lat="40.8496126" lon="8.7540155"><ele>404.0</ele><time>2026-04-26T09:09:40.978Z</time></trkpt><trkpt lat="40.8496654" lon="8.7541907"><ele>404.0</ele><time>2026-04-26T09:09:41.978Z</time></trkpt><trkpt lat="40.8497092" lon="8.7543693"><ele>404.0</ele><time>2026-04-26T09:09:42.978Z</time></trkpt><trkpt lat="40.8497429" lon="8.7545511"><ele>404.0</ele><time>2026-04-26T09:09:43.979Z</time></trkpt><trkpt lat="40.8497676" lon="8.7547382"><ele>404.0</ele><time>2026-04-26T09:09:44.979Z</time></trkpt><trkpt lat="40.8497843" lon="8.7549275"><ele>404.0</ele><time>2026-04-26T09:09:45.978Z</time></trkpt><trkpt lat="40.8497998" lon="8.7551179"><ele>404.0</ele><time>2026-04-26T09:09:46.977Z</time></trkpt><trkpt lat="40.8498187" lon="8.755309"><ele>402.75</ele><time>2026-04-26T09:09:47.978Z</time></trkpt><trkpt lat="40.8498381" lon="8.7555012"><ele>401.5</ele><time>2026-04-26T09:09:48.979Z</time></trkpt><trkpt lat="40.849856" lon="8.7556963"><ele>400.25</ele><time>2026-04-26T09:09:49.978Z</time></trkpt><trkpt lat="40.8498775" lon="8.75589"><ele>399.0</ele><time>2026-04-26T09:09:50.979Z</time></trkpt><trkpt lat="40.849905" lon="8.7560833"><ele>396.66666666666663</ele><time>2026-04-26T09:09:51.978Z</time></trkpt><trkpt lat="40.8499407" lon="8.7562743"><ele>394.3333333333333</ele><time>2026-04-26T09:09:52.978Z</time></trkpt><trkpt lat="40.8499853" lon="8.756467"><ele>392.0</ele><time>2026-04-26T09:09:53.979Z</time></trkpt><trkpt lat="40.8500347" lon="8.7566605"><ele>392.0</ele><time>2026-04-26T09:09:54.979Z</time></trkpt><trkpt lat="40.8500923" lon="8.7568523"><ele>392.0</ele><time>2026-04-26T09:09:55.979Z</time></trkpt><trkpt lat="40.8501531" lon="8.7570425"><ele>392.0</ele><time>2026-04-26T09:09:56.978Z</time></trkpt><trkpt lat="40.8502173" lon="8.7572363"><ele>390.0</ele><time>2026-04-26T09:09:57.977Z</time></trkpt><trkpt lat="40.8502842" lon="8.757432"><ele>388.0</ele><time>2026-04-26T09:09:58.979Z</time></trkpt><trkpt lat="40.8503492" lon="8.7576321"><ele>386.0</ele><time>2026-04-26T09:09:59.979Z</time></trkpt><trkpt lat="40.8504149" lon="8.7578313"><ele>386.0</ele><time>2026-04-26T09:10:00.979Z</time></trkpt><trkpt lat="40.8504822" lon="8.7580291"><ele>386.0</ele><time>2026-04-26T09:10:01.979Z</time></trkpt><trkpt lat="40.8505492" lon="8.758226"><ele>386.0</ele><time>2026-04-26T09:10:02.979Z</time></trkpt><trkpt lat="40.8506154" lon="8.7584243"><ele>385.66666666666663</ele><time>2026-04-26T09:10:03.979Z</time></trkpt><trkpt lat="40.850677" lon="8.7586234"><ele>385.33333333333337</ele><time>2026-04-26T09:10:04.979Z</time></trkpt><trkpt lat="40.8507412" lon="8.7588218"><ele>385.0</ele><time>2026-04-26T09:10:05.978Z</time></trkpt><trkpt lat="40.8508057" lon="8.7590201"><ele>385.0</ele><time>2026-04-26T09:10:06.98Z</time></trkpt><trkpt lat="40.8508722" lon="8.7592194"><ele>385.0</ele><time>2026-04-26T09:10:07.978Z</time></trkpt><trkpt lat="40.8509373" lon="8.7594202"><ele>385.0</ele><time>2026-04-26T09:10:08.978Z</time></trkpt><trkpt lat="40.8510033" lon="8.7596227"><ele>384.6666666666667</ele><time>2026-04-26T09:10:09.979Z</time></trkpt><trkpt lat="40.8510685" lon="8.7598259"><ele>384.33333333333337</ele><time>2026-04-26T09:10:10.978Z</time></trkpt><trkpt lat="40.8511336" lon="8.7600277"><ele>384.0</ele><time>2026-04-26T09:10:11.979Z</time></trkpt><trkpt lat="40.8512011" lon="8.7602285"><ele>385.33333333333337</ele><time>2026-04-26T09:10:12.977Z</time></trkpt><trkpt lat="40.8512662" lon="8.7604285"><ele>386.6666666666667</ele><time>2026-04-26T09:10:13.979Z</time></trkpt><trkpt lat="40.8513324" lon="8.7606271"><ele>388.0</ele><time>2026-04-26T09:10:14.978Z</time></trkpt><trkpt lat="40.8513993" lon="8.7608257"><ele>388.0</ele><time>2026-04-26T09:10:15.978Z</time></trkpt><trkpt lat="40.8514663" lon="8.7610216"><ele>388.0</ele><time>2026-04-26T09:10:16.979Z</time></trkpt><trkpt lat="40.8515326" lon="8.7612204"><ele>388.0</ele><time>2026-04-26T09:10:17.979Z</time></trkpt><trkpt lat="40.8515966" lon="8.7614223"><ele>388.0</ele><time>2026-04-26T09:10:18.979Z</time></trkpt><trkpt lat="40.8516625" lon="8.7616218"><ele>388.0</ele><time>2026-04-26T09:10:19.978Z</time></trkpt><trkpt lat="40.8517323" lon="8.7618185"><ele>388.0</ele><time>2026-04-26T09:10:20.979Z</time></trkpt><trkpt lat="40.851807" lon="8.7620121"><ele>388.6666666666667</ele><time>2026-04-26T09:10:21.978Z</time></trkpt><trkpt lat="40.8518907" lon="8.7621993"><ele>389.33333333333337</ele><time>2026-04-26T09:10:22.978Z</time></trkpt><trkpt lat="40.8519857" lon="8.7623796"><ele>390.0</ele><time>2026-04-26T09:10:23.979Z</time></trkpt><trkpt lat="40.8520912" lon="8.762553"><ele>389.0</ele><time>2026-04-26T09:10:24.979Z</time></trkpt><trkpt lat="40.8522014" lon="8.7627192"><ele>388.0</ele><time>2026-04-26T09:10:25.979Z</time></trkpt><trkpt lat="40.8523193" lon="8.7628788"><ele>387.0</ele><time>2026-04-26T09:10:26.981Z</time></trkpt><trkpt lat="40.8524428" lon="8.7630344"><ele>387.0</ele><time>2026-04-26T09:10:27.981Z</time></trkpt><trkpt lat="40.8525688" lon="8.7631899"><ele>387.0</ele><time>2026-04-26T09:10:28.979Z</time></trkpt><trkpt lat="40.8526951" lon="8.7633467"><ele>387.0</ele><time>2026-04-26T09:10:29.979Z</time></trkpt><trkpt lat="40.8528221" lon="8.7635042"><ele>386.66666666666663</ele><time>2026-04-26T09:10:30.978Z</time></trkpt><trkpt lat="40.8529484" lon="8.7636648"><ele>386.3333333333333</ele><time>2026-04-26T09:10:31.978Z</time></trkpt><trkpt lat="40.8530735" lon="8.7638258"><ele>386.0</ele><time>2026-04-26T09:10:32.979Z</time></trkpt><trkpt lat="40.8531974" lon="8.7639867"><ele>386.0</ele><time>2026-04-26T09:10:33.981Z</time></trkpt><trkpt lat="40.853319" lon="8.7641473"><ele>386.0</ele><time>2026-04-26T09:10:34.979Z</time></trkpt><trkpt lat="40.8534354" lon="8.7643067"><ele>386.0</ele><time>2026-04-26T09:10:35.979Z</time></trkpt><trkpt lat="40.8535407" lon="8.7644625"><ele>385.75</ele><time>2026-04-26T09:10:36.979Z</time></trkpt><trkpt lat="40.8536309" lon="8.7646067"><ele>385.5</ele><time>2026-04-26T09:10:37.979Z</time></trkpt><trkpt lat="40.8537094" lon="8.7647404"><ele>385.25</ele><time>2026-04-26T09:10:38.98Z</time></trkpt><trkpt lat="40.853776" lon="8.7648652"><ele>385.0</ele><time>2026-04-26T09:10:39.978Z</time></trkpt><trkpt lat="40.8538329" lon="8.7649852"><ele>385.00000000000006</ele><time>2026-04-26T09:10:40.978Z</time></trkpt><trkpt lat="40.8538807" lon="8.7650974"><ele>385.0</ele><time>2026-04-26T09:10:41.979Z</time></trkpt><trkpt lat="40.8539166" lon="8.7652059"><ele>385.0</ele><time>2026-04-26T09:10:42.978Z</time></trkpt><trkpt lat="40.8539398" lon="8.7653101"><ele>385.0</ele><time>2026-04-26T09:10:43.978Z</time></trkpt><trkpt lat="40.8539514" lon="8.7654021"><ele>385.00000000000006</ele><time>2026-04-26T09:10:44.98Z</time></trkpt><trkpt lat="40.8539511" lon="8.7654865"><ele>385.0</ele><time>2026-04-26T09:10:45.979Z</time></trkpt><trkpt lat="40.8539016" lon="8.7655898"><ele>385.00000000000006</ele><time>2026-04-26T09:10:47.978Z</time></trkpt><trkpt lat="40.853822" lon="8.7656438"><ele>385.0</ele><time>2026-04-26T09:10:49.979Z</time></trkpt><trkpt lat="40.8537213" lon="8.7657081"><ele>385.0</ele><time>2026-04-26T09:10:51.978Z</time></trkpt><trkpt lat="40.8536641" lon="8.7657454"><ele>385.0</ele><time>2026-04-26T09:10:52.977Z</time></trkpt><trkpt lat="40.8536038" lon="8.7657835"><ele>385.00000000000006</ele><time>2026-04-26T09:10:53.978Z</time></trkpt><trkpt lat="40.8535416" lon="8.7658229"><ele>385.0</ele><time>2026-04-26T09:10:54.978Z</time></trkpt><trkpt lat="40.8534797" lon="8.7658615"><ele>385.33333333333337</ele><time>2026-04-26T09:10:55.978Z</time></trkpt><trkpt lat="40.8534186" lon="8.7658975"><ele>385.6666666666667</ele><time>2026-04-26T09:10:56.979Z</time></trkpt><trkpt lat="40.853356" lon="8.7659335"><ele>386.0</ele><time>2026-04-26T09:10:57.978Z</time></trkpt><trkpt lat="40.8532852" lon="8.7659715"><ele>386.33333333333337</ele><time>2026-04-26T09:10:58.978Z</time></trkpt><trkpt lat="40.8532054" lon="8.7660117"><ele>386.6666666666667</ele><time>2026-04-26T09:10:59.979Z</time></trkpt><trkpt lat="40.8531267" lon="8.7660517"><ele>387.0</ele><time>2026-04-26T09:11:00.979Z</time></trkpt><trkpt lat="40.8530476" lon="8.766095"><ele>387.0</ele><time>2026-04-26T09:11:01.979Z</time></trkpt><trkpt lat="40.8529641" lon="8.766142"><ele>387.0</ele><time>2026-04-26T09:11:02.979Z</time></trkpt><trkpt lat="40.8528787" lon="8.7661905"><ele>387.0</ele><time>2026-04-26T09:11:03.977Z</time></trkpt><trkpt lat="40.8527911" lon="8.7662381"><ele>387.0</ele><time>2026-04-26T09:11:04.978Z</time></trkpt><trkpt lat="40.8527022" lon="8.7662816"><ele>387.0</ele><time>2026-04-26T09:11:05.977Z</time></trkpt><trkpt lat="40.8526115" lon="8.7663271"><ele>387.8</ele><time>2026-04-26T09:11:06.979Z</time></trkpt><trkpt lat="40.8525175" lon="8.7663726"><ele>388.6</ele><time>2026-04-26T09:11:07.978Z</time></trkpt><trkpt lat="40.8524232" lon="8.7664206"><ele>389.40000000000003</ele><time>2026-04-26T09:11:08.978Z</time></trkpt><trkpt lat="40.8523257" lon="8.7664681"><ele>390.20000000000005</ele><time>2026-04-26T09:11:09.98Z</time></trkpt><trkpt lat="40.8522305" lon="8.7665149"><ele>391.0</ele><time>2026-04-26T09:11:10.978Z</time></trkpt><trkpt lat="40.8521354" lon="8.7665668"><ele>391.0</ele><time>2026-04-26T09:11:11.978Z</time></trkpt><trkpt lat="40.8520389" lon="8.7666213"><ele>391.0</ele><time>2026-04-26T09:11:12.978Z</time></trkpt><trkpt lat="40.8519486" lon="8.7666729"><ele>391.0</ele><time>2026-04-26T09:11:13.979Z</time></trkpt><trkpt lat="40.8518623" lon="8.7667266"><ele>391.0</ele><time>2026-04-26T09:11:14.979Z</time></trkpt><trkpt lat="40.8517717" lon="8.7667913"><ele>391.0</ele><time>2026-04-26T09:11:15.979Z</time></trkpt><trkpt lat="40.8516804" lon="8.7668712"><ele>391.75</ele><time>2026-04-26T09:11:16.978Z</time></trkpt><trkpt lat="40.8515911" lon="8.7669603"><ele>392.5</ele><time>2026-04-26T09:11:17.978Z</time></trkpt><trkpt lat="40.8514962" lon="8.7670534"><ele>393.25</ele><time>2026-04-26T09:11:18.977Z</time></trkpt><trkpt lat="40.8513935" lon="8.7671448"><ele>394.0</ele><time>2026-04-26T09:11:19.979Z</time></trkpt><trkpt lat="40.8512871" lon="8.7672347"><ele>394.0</ele><time>2026-04-26T09:11:20.978Z</time></trkpt><trkpt lat="40.8511775" lon="8.7673236"><ele>394.0</ele><time>2026-04-26T09:11:21.978Z</time></trkpt><trkpt lat="40.8510692" lon="8.7674124"><ele>394.0</ele><time>2026-04-26T09:11:22.979Z</time></trkpt><trkpt lat="40.8509655" lon="8.7674969"><ele>394.0</ele><time>2026-04-26T09:11:23.979Z</time></trkpt><trkpt lat="40.850865" lon="8.7675803"><ele>394.4</ele><time>2026-04-26T09:11:24.977Z</time></trkpt><trkpt lat="40.8507684" lon="8.7676637"><ele>394.79999999999995</ele><time>2026-04-26T09:11:25.978Z</time></trkpt><trkpt lat="40.850674" lon="8.7677452"><ele>395.20000000000005</ele><time>2026-04-26T09:11:26.979Z</time></trkpt><trkpt lat="40.8505835" lon="8.7678223"><ele>395.6</ele><time>2026-04-26T09:11:27.979Z</time></trkpt><trkpt lat="40.850497" lon="8.7678933"><ele>396.0</ele><time>2026-04-26T09:11:28.979Z</time></trkpt><trkpt lat="40.8504127" lon="8.7679581"><ele>396.20000000000005</ele><time>2026-04-26T09:11:29.979Z</time></trkpt><trkpt lat="40.8503302" lon="8.7680199"><ele>396.40000000000003</ele><time>2026-04-26T09:11:30.98Z</time></trkpt><trkpt lat="40.8502466" lon="8.7680788"><ele>396.6</ele><time>2026-04-26T09:11:31.979Z</time></trkpt><trkpt lat="40.8501612" lon="8.7681396"><ele>396.8</ele><time>2026-04-26T09:11:32.978Z</time></trkpt><trkpt lat="40.8500737" lon="8.7682036"><ele>397.0</ele><time>2026-04-26T09:11:33.979Z</time></trkpt><trkpt lat="40.8499898" lon="8.7682714"><ele>397.40000000000003</ele><time>2026-04-26T09:11:34.979Z</time></trkpt><trkpt lat="40.8499104" lon="8.7683415"><ele>397.8</ele><time>2026-04-26T09:11:35.978Z</time></trkpt><trkpt lat="40.8498321" lon="8.7684098"><ele>398.2</ele><time>2026-04-26T09:11:36.979Z</time></trkpt><trkpt lat="40.8497513" lon="8.7684766"><ele>398.6</ele><time>2026-04-26T09:11:37.978Z</time></trkpt><trkpt lat="40.8496697" lon="8.7685439"><ele>399.0</ele><time>2026-04-26T09:11:38.978Z</time></trkpt><trkpt lat="40.8495905" lon="8.7686253"><ele>399.2</ele><time>2026-04-26T09:11:39.978Z</time></trkpt><trkpt lat="40.8495162" lon="8.7687233"><ele>399.4</ele><time>2026-04-26T09:11:40.978Z</time></trkpt><trkpt lat="40.849448" lon="8.7688314"><ele>399.6</ele><time>2026-04-26T09:11:41.979Z</time></trkpt><trkpt lat="40.8493872" lon="8.7689462"><ele>399.8</ele><time>2026-04-26T09:11:42.98Z</time></trkpt><trkpt lat="40.8493387" lon="8.7690731"><ele>400.0</ele><time>2026-04-26T09:11:43.977Z</time></trkpt><trkpt lat="40.8492998" lon="8.7692111"><ele>399.8</ele><time>2026-04-26T09:11:44.98Z</time></trkpt><trkpt lat="40.8492623" lon="8.7693475"><ele>399.6</ele><time>2026-04-26T09:11:45.979Z</time></trkpt><trkpt lat="40.8492257" lon="8.7694729"><ele>399.4</ele><time>2026-04-26T09:11:46.978Z</time></trkpt><trkpt lat="40.8491886" lon="8.7695948"><ele>399.2</ele><time>2026-04-26T09:11:47.977Z</time></trkpt><trkpt lat="40.8491458" lon="8.7697173"><ele>399.0</ele><time>2026-04-26T09:11:48.981Z</time></trkpt><trkpt lat="40.8490981" lon="8.7698415"><ele>398.6</ele><time>2026-04-26T09:11:49.978Z</time></trkpt><trkpt lat="40.8490494" lon="8.7699647"><ele>398.2</ele><time>2026-04-26T09:11:50.98Z</time></trkpt><trkpt lat="40.8490005" lon="8.7700796"><ele>397.8</ele><time>2026-04-26T09:11:51.979Z</time></trkpt><trkpt lat="40.8489538" lon="8.7701864"><ele>397.40000000000003</ele><time>2026-04-26T09:11:52.978Z</time></trkpt><trkpt lat="40.8489132" lon="8.7702836"><ele>397.0</ele><time>2026-04-26T09:11:53.978Z</time></trkpt><trkpt lat="40.8488732" lon="8.7703734"><ele>396.85714285714283</ele><time>2026-04-26T09:11:54.978Z</time></trkpt><trkpt lat="40.8488266" lon="8.7704555"><ele>396.71428571428567</ele><time>2026-04-26T09:11:55.978Z</time></trkpt><trkpt lat="40.8487707" lon="8.7705242"><ele>396.57142857142856</ele><time>2026-04-26T09:11:56.978Z</time></trkpt><trkpt lat="40.8487123" lon="8.7705772"><ele>396.42857142857144</ele><time>2026-04-26T09:11:57.978Z</time></trkpt><trkpt lat="40.8486548" lon="8.7706171"><ele>396.2857142857143</ele><time>2026-04-26T09:11:58.979Z</time></trkpt><trkpt lat="40.8485953" lon="8.770654"><ele>396.14285714285717</ele><time>2026-04-26T09:11:59.978Z</time></trkpt><trkpt lat="40.8485333" lon="8.7706934"><ele>396.0</ele><time>2026-04-26T09:12:00.978Z</time></trkpt><trkpt lat="40.8484754" lon="8.770734"><ele>395.75</ele><time>2026-04-26T09:12:01.977Z</time></trkpt><trkpt lat="40.8483767" lon="8.7708328"><ele>395.5</ele><time>2026-04-26T09:12:03.979Z</time></trkpt><trkpt lat="40.8483119" lon="8.7709703"><ele>395.25</ele><time>2026-04-26T09:12:05.978Z</time></trkpt><trkpt lat="40.8482788" lon="8.7711189"><ele>395.0</ele><time>2026-04-26T09:12:07.978Z</time></trkpt><trkpt lat="40.8482456" lon="8.7712596"><ele>394.8</ele><time>2026-04-26T09:12:09.978Z</time></trkpt><trkpt lat="40.8482056" lon="8.7713876"><ele>394.6</ele><time>2026-04-26T09:12:11.978Z</time></trkpt><trkpt lat="40.8481673" lon="8.7715188"><ele>394.4</ele><time>2026-04-26T09:12:13.98Z</time></trkpt><trkpt lat="40.8481308" lon="8.7716566"><ele>394.2</ele><time>2026-04-26T09:12:15.978Z</time></trkpt><trkpt lat="40.8480988" lon="8.7717884"><ele>394.0</ele><time>2026-04-26T09:12:17.98Z</time></trkpt><trkpt lat="40.8480693" lon="8.7719195"><ele>393.4</ele><time>2026-04-26T09:12:19.977Z</time></trkpt><trkpt lat="40.8480438" lon="8.772055"><ele>392.79999999999995</ele><time>2026-04-26T09:12:21.978Z</time></trkpt><trkpt lat="40.8480167" lon="8.7721902"><ele>392.20000000000005</ele><time>2026-04-26T09:12:23.978Z</time></trkpt><trkpt lat="40.8480085" lon="8.772325"><ele>391.6</ele><time>2026-04-26T09:12:25.977Z</time></trkpt><trkpt lat="40.8480089" lon="8.7724642"><ele>391.0</ele><time>2026-04-26T09:12:27.978Z</time></trkpt><trkpt lat="40.8479842" lon="8.7726245"><ele>390.6666666666667</ele><time>2026-04-26T09:12:29.977Z</time></trkpt><trkpt lat="40.8479613" lon="8.7727116"><ele>390.33333333333337</ele><time>2026-04-26T09:12:30.977Z</time></trkpt><trkpt lat="40.8479349" lon="8.7727993"><ele>390.0</ele><time>2026-04-26T09:12:31.977Z</time></trkpt><trkpt lat="40.8479038" lon="8.7728907"><ele>389.66666666666663</ele><time>2026-04-26T09:12:32.979Z</time></trkpt><trkpt lat="40.8478736" lon="8.7729842"><ele>389.3333333333333</ele><time>2026-04-26T09:12:33.978Z</time></trkpt><trkpt lat="40.8478421" lon="8.7730791"><ele>389.0</ele><time>2026-04-26T09:12:34.977Z</time></trkpt><trkpt lat="40.847812" lon="8.7731741"><ele>388.99999999999994</ele><time>2026-04-26T09:12:35.978Z</time></trkpt><trkpt lat="40.8477794" lon="8.7732665"><ele>389.0</ele><time>2026-04-26T09:12:36.978Z</time></trkpt><trkpt lat="40.847742" lon="8.7733589"><ele>389.0</ele><time>2026-04-26T09:12:37.977Z</time></trkpt><trkpt lat="40.8477043" lon="8.7734516"><ele>389.0</ele><time>2026-04-26T09:12:38.979Z</time></trkpt><trkpt lat="40.8476663" lon="8.773547"><ele>388.99999999999994</ele><time>2026-04-26T09:12:39.977Z</time></trkpt><trkpt lat="40.8476269" lon="8.7736436"><ele>389.0</ele><time>2026-04-26T09:12:40.977Z</time></trkpt><trkpt lat="40.8475875" lon="8.7737432"><ele>388.4</ele><time>2026-04-26T09:12:41.977Z</time></trkpt><trkpt lat="40.8475475" lon="8.7738472"><ele>387.79999999999995</ele><time>2026-04-26T09:12:42.978Z</time></trkpt><trkpt lat="40.8475086" lon="8.7739548"><ele>387.20000000000005</ele><time>2026-04-26T09:12:43.98Z</time></trkpt><trkpt lat="40.8474713" lon="8.7740681"><ele>386.6</ele><time>2026-04-26T09:12:44.979Z</time></trkpt><trkpt lat="40.8474349" lon="8.7741822"><ele>386.0</ele><time>2026-04-26T09:12:45.977Z</time></trkpt><trkpt lat="40.8474016" lon="8.7742958"><ele>385.8333333333333</ele><time>2026-04-26T09:12:46.978Z</time></trkpt><trkpt lat="40.8473704" lon="8.7744066"><ele>385.66666666666663</ele><time>2026-04-26T09:12:47.978Z</time></trkpt><trkpt lat="40.8473394" lon="8.7745126"><ele>385.5</ele><time>2026-04-26T09:12:48.977Z</time></trkpt><trkpt lat="40.8473071" lon="8.7746119"><ele>385.33333333333337</ele><time>2026-04-26T09:12:49.977Z</time></trkpt><trkpt lat="40.8472741" lon="8.7747055"><ele>385.1666666666667</ele><time>2026-04-26T09:12:50.981Z</time></trkpt><trkpt lat="40.8472371" lon="8.7747922"><ele>385.0</ele><time>2026-04-26T09:12:51.978Z</time></trkpt><trkpt lat="40.8471983" lon="8.7748664"><ele>385.0</ele><time>2026-04-26T09:12:52.977Z</time></trkpt><trkpt lat="40.8471364" lon="8.7749992"><ele>385.0</ele><time>2026-04-26T09:12:54.978Z</time></trkpt><trkpt lat="40.8471238" lon="8.7751331"><ele>385.0</ele><time>2026-04-26T09:12:56.979Z</time></trkpt><trkpt lat="40.8471863" lon="8.7752745"><ele>385.0</ele><time>2026-04-26T09:12:58.978Z</time></trkpt><trkpt lat="40.8472451" lon="8.7753575"><ele>385.0</ele><time>2026-04-26T09:12:59.979Z</time></trkpt><trkpt lat="40.8473013" lon="8.7754563"><ele>385.0</ele><time>2026-04-26T09:13:00.977Z</time></trkpt><trkpt lat="40.8473547" lon="8.7755653"><ele>385.0</ele><time>2026-04-26T09:13:01.979Z</time></trkpt><trkpt lat="40.8474053" lon="8.7756835"><ele>385.0</ele><time>2026-04-26T09:13:02.978Z</time></trkpt><trkpt lat="40.8474549" lon="8.7758025"><ele>385.0</ele><time>2026-04-26T09:13:03.978Z</time></trkpt><trkpt lat="40.8475048" lon="8.7759206"><ele>385.0</ele><time>2026-04-26T09:13:04.979Z</time></trkpt><trkpt lat="40.8475545" lon="8.7760385"><ele>384.8</ele><time>2026-04-26T09:13:05.978Z</time></trkpt><trkpt lat="40.8476058" lon="8.7761575"><ele>384.6</ele><time>2026-04-26T09:13:06.977Z</time></trkpt><trkpt lat="40.8476572" lon="8.7762763"><ele>384.4</ele><time>2026-04-26T09:13:07.977Z</time></trkpt><trkpt lat="40.8477103" lon="8.7763978"><ele>384.2</ele><time>2026-04-26T09:13:08.982Z</time></trkpt><trkpt lat="40.8477685" lon="8.7765206"><ele>384.0</ele><time>2026-04-26T09:13:09.979Z</time></trkpt><trkpt lat="40.847833" lon="8.7766445"><ele>384.0</ele><time>2026-04-26T09:13:10.977Z</time></trkpt><trkpt lat="40.8479029" lon="8.7767656"><ele>384.0</ele><time>2026-04-26T09:13:11.978Z</time></trkpt><trkpt lat="40.8479787" lon="8.7768856"><ele>384.0</ele><time>2026-04-26T09:13:12.977Z</time></trkpt><trkpt lat="40.8480589" lon="8.777002"><ele>384.0</ele><time>2026-04-26T09:13:13.978Z</time></trkpt><trkpt lat="40.8481413" lon="8.7771167"><ele>383.75</ele><time>2026-04-26T09:13:14.977Z</time></trkpt><trkpt lat="40.8482257" lon="8.7772289"><ele>383.5</ele><time>2026-04-26T09:13:15.981Z</time></trkpt><trkpt lat="40.8483117" lon="8.7773375"><ele>383.25</ele><time>2026-04-26T09:13:16.978Z</time></trkpt><trkpt lat="40.8483969" lon="8.7774476"><ele>383.0</ele><time>2026-04-26T09:13:17.977Z</time></trkpt><trkpt lat="40.8484808" lon="8.7775638"><ele>383.0</ele><time>2026-04-26T09:13:18.978Z</time></trkpt><trkpt lat="40.8485653" lon="8.7776844"><ele>383.0</ele><time>2026-04-26T09:13:19.978Z</time></trkpt><trkpt lat="40.8486514" lon="8.7778072"><ele>383.0</ele><time>2026-04-26T09:13:20.978Z</time></trkpt><trkpt lat="40.8487384" lon="8.7779253"><ele>383.0</ele><time>2026-04-26T09:13:21.978Z</time></trkpt><trkpt lat="40.8488227" lon="8.7780412"><ele>383.0</ele><time>2026-04-26T09:13:22.978Z</time></trkpt><trkpt lat="40.848908" lon="8.778157"><ele>383.0</ele><time>2026-04-26T09:13:23.979Z</time></trkpt><trkpt lat="40.848996" lon="8.7782688"><ele>383.0</ele><time>2026-04-26T09:13:24.978Z</time></trkpt><trkpt lat="40.8490874" lon="8.7783791"><ele>383.0</ele><time>2026-04-26T09:13:25.978Z</time></trkpt><trkpt lat="40.8491802" lon="8.7784879"><ele>382.75</ele><time>2026-04-26T09:13:26.979Z</time></trkpt><trkpt lat="40.8492718" lon="8.7785958"><ele>382.5</ele><time>2026-04-26T09:13:27.979Z</time></trkpt><trkpt lat="40.8493633" lon="8.7787034"><ele>382.25</ele><time>2026-04-26T09:13:28.977Z</time></trkpt><trkpt lat="40.8494547" lon="8.7788103"><ele>382.0</ele><time>2026-04-26T09:13:29.978Z</time></trkpt><trkpt lat="40.8495473" lon="8.7789172"><ele>382.0</ele><time>2026-04-26T09:13:30.978Z</time></trkpt><trkpt lat="40.8496389" lon="8.7790222"><ele>382.0</ele><time>2026-04-26T09:13:31.978Z</time></trkpt><trkpt lat="40.8497302" lon="8.7791269"><ele>382.0</ele><time>2026-04-26T09:13:32.978Z</time></trkpt><trkpt lat="40.8498217" lon="8.7792332"><ele>382.0</ele><time>2026-04-26T09:13:33.977Z</time></trkpt><trkpt lat="40.8499134" lon="8.7793397"><ele>382.0</ele><time>2026-04-26T09:13:34.978Z</time></trkpt><trkpt lat="40.8500062" lon="8.7794462"><ele>382.0</ele><time>2026-04-26T09:13:35.979Z</time></trkpt><trkpt lat="40.850099" lon="8.7795511"><ele>382.0</ele><time>2026-04-26T09:13:36.979Z</time></trkpt><trkpt lat="40.8501891" lon="8.7796565"><ele>382.0</ele><time>2026-04-26T09:13:37.978Z</time></trkpt><trkpt lat="40.8502757" lon="8.779761"><ele>382.0</ele><time>2026-04-26T09:13:38.979Z</time></trkpt><trkpt lat="40.8503608" lon="8.7798647"><ele>382.0</ele><time>2026-04-26T09:13:39.978Z</time></trkpt><trkpt lat="40.8504438" lon="8.7799658"><ele>382.0</ele><time>2026-04-26T09:13:40.978Z</time></trkpt><trkpt lat="40.8505223" lon="8.7800616"><ele>382.0</ele><time>2026-04-26T09:13:41.978Z</time></trkpt><trkpt lat="40.8505986" lon="8.7801554"><ele>382.0</ele><time>2026-04-26T09:13:42.979Z</time></trkpt><trkpt lat="40.8506702" lon="8.780245"><ele>381.66666666666663</ele><time>2026-04-26T09:13:43.979Z</time></trkpt><trkpt lat="40.8507378" lon="8.78033"><ele>381.3333333333333</ele><time>2026-04-26T09:13:44.979Z</time></trkpt><trkpt lat="40.8508039" lon="8.780408"><ele>381.0</ele><time>2026-04-26T09:13:45.979Z</time></trkpt><trkpt lat="40.8508615" lon="8.7804732"><ele>380.6666666666667</ele><time>2026-04-26T09:13:46.978Z</time></trkpt><trkpt lat="40.850911" lon="8.7805318"><ele>380.33333333333337</ele><time>2026-04-26T09:13:47.978Z</time></trkpt><trkpt lat="40.8509648" lon="8.7806327"><ele>380.0</ele><time>2026-04-26T09:13:49.978Z</time></trkpt><trkpt lat="40.8509512" lon="8.7807201"><ele>380.0</ele><time>2026-04-26T09:13:51.978Z</time></trkpt><trkpt lat="40.8508642" lon="8.7808257"><ele>380.0</ele><time>2026-04-26T09:13:53.978Z</time></trkpt><trkpt lat="40.8507691" lon="8.7809279"><ele>380.0</ele><time>2026-04-26T09:13:55.979Z</time></trkpt><trkpt lat="40.8507192" lon="8.780981"><ele>380.0</ele><time>2026-04-26T09:13:56.979Z</time></trkpt><trkpt lat="40.850668" lon="8.7810351"><ele>380.0</ele><time>2026-04-26T09:13:57.977Z</time></trkpt><trkpt lat="40.8506141" lon="8.781092"><ele>380.0</ele><time>2026-04-26T09:13:58.978Z</time></trkpt><trkpt lat="40.85056" lon="8.7811511"><ele>380.0</ele><time>2026-04-26T09:13:59.977Z</time></trkpt><trkpt lat="40.8505061" lon="8.781214"><ele>380.0</ele><time>2026-04-26T09:14:00.981Z</time></trkpt><trkpt lat="40.8504489" lon="8.7812813"><ele>380.0</ele><time>2026-04-26T09:14:01.978Z</time></trkpt><trkpt lat="40.8503918" lon="8.7813504"><ele>380.0</ele><time>2026-04-26T09:14:02.978Z</time></trkpt><trkpt lat="40.8503327" lon="8.7814196"><ele>380.0</ele><time>2026-04-26T09:14:03.977Z</time></trkpt><trkpt lat="40.8502698" lon="8.7814936"><ele>380.0</ele><time>2026-04-26T09:14:04.978Z</time></trkpt><trkpt lat="40.8502051" lon="8.7815753"><ele>380.0</ele><time>2026-04-26T09:14:05.977Z</time></trkpt><trkpt lat="40.8501373" lon="8.7816616"><ele>380.0</ele><time>2026-04-26T09:14:06.977Z</time></trkpt><trkpt lat="40.8500684" lon="8.7817535"><ele>380.0</ele><time>2026-04-26T09:14:07.978Z</time></trkpt><trkpt lat="40.8499958" lon="8.7818505"><ele>380.0</ele><time>2026-04-26T09:14:08.98Z</time></trkpt><trkpt lat="40.849922" lon="8.7819498"><ele>380.0</ele><time>2026-04-26T09:14:09.978Z</time></trkpt><trkpt lat="40.8498469" lon="8.7820546"><ele>380.0</ele><time>2026-04-26T09:14:10.979Z</time></trkpt><trkpt lat="40.8497709" lon="8.7821622"><ele>380.0</ele><time>2026-04-26T09:14:11.978Z</time></trkpt><trkpt lat="40.8496932" lon="8.7822755"><ele>380.0</ele><time>2026-04-26T09:14:12.977Z</time></trkpt><trkpt lat="40.8496159" lon="8.7823934"><ele>380.0</ele><time>2026-04-26T09:14:13.977Z</time></trkpt><trkpt lat="40.849536" lon="8.7825125"><ele>380.0</ele><time>2026-04-26T09:14:14.979Z</time></trkpt><trkpt lat="40.8494544" lon="8.7826351"><ele>380.0</ele><time>2026-04-26T09:14:15.979Z</time></trkpt><trkpt lat="40.8493742" lon="8.7827614"><ele>380.0</ele><time>2026-04-26T09:14:16.977Z</time></trkpt><trkpt lat="40.8492938" lon="8.7828906"><ele>380.0</ele><time>2026-04-26T09:14:17.978Z</time></trkpt><trkpt lat="40.849213" lon="8.7830169"><ele>380.0</ele><time>2026-04-26T09:14:18.978Z</time></trkpt><trkpt lat="40.8491336" lon="8.7831448"><ele>380.0</ele><time>2026-04-26T09:14:19.978Z</time></trkpt><trkpt lat="40.8490537" lon="8.7832728"><ele>380.0</ele><time>2026-04-26T09:14:20.979Z</time></trkpt><trkpt lat="40.8489718" lon="8.7834004"><ele>380.0</ele><time>2026-04-26T09:14:21.978Z</time></trkpt><trkpt lat="40.8488905" lon="8.7835275"><ele>380.0</ele><time>2026-04-26T09:14:22.978Z</time></trkpt><trkpt lat="40.8488101" lon="8.7836559"><ele>380.0</ele><time>2026-04-26T09:14:23.981Z</time></trkpt><trkpt lat="40.8487308" lon="8.7837798"><ele>380.0</ele><time>2026-04-26T09:14:24.979Z</time></trkpt><trkpt lat="40.84865" lon="8.7839017"><ele>380.0</ele><time>2026-04-26T09:14:25.977Z</time></trkpt><trkpt lat="40.8485648" lon="8.7840251"><ele>380.0</ele><time>2026-04-26T09:14:26.978Z</time></trkpt><trkpt lat="40.848474" lon="8.7841436"><ele>380.0</ele><time>2026-04-26T09:14:27.978Z</time></trkpt><trkpt lat="40.8483798" lon="8.7842538"><ele>380.0</ele><time>2026-04-26T09:14:28.978Z</time></trkpt><trkpt lat="40.8482807" lon="8.7843549"><ele>380.0</ele><time>2026-04-26T09:14:29.979Z</time></trkpt><trkpt lat="40.848173" lon="8.7844472"><ele>380.25</ele><time>2026-04-26T09:14:30.979Z</time></trkpt><trkpt lat="40.8480608" lon="8.7845364"><ele>380.5</ele><time>2026-04-26T09:14:31.977Z</time></trkpt><trkpt lat="40.8479459" lon="8.7846244"><ele>380.75</ele><time>2026-04-26T09:14:32.979Z</time></trkpt><trkpt lat="40.8478266" lon="8.7847105"><ele>381.0</ele><time>2026-04-26T09:14:33.978Z</time></trkpt><trkpt lat="40.8477087" lon="8.7847959"><ele>380.5</ele><time>2026-04-26T09:14:34.977Z</time></trkpt><trkpt lat="40.8475905" lon="8.7848792"><ele>380.0</ele><time>2026-04-26T09:14:35.979Z</time></trkpt><trkpt lat="40.847474" lon="8.7849634"><ele>379.5</ele><time>2026-04-26T09:14:36.978Z</time></trkpt><trkpt lat="40.8473564" lon="8.7850509"><ele>379.0</ele><time>2026-04-26T09:14:37.977Z</time></trkpt><trkpt lat="40.8472393" lon="8.78514"><ele>379.0</ele><time>2026-04-26T09:14:38.979Z</time></trkpt><trkpt lat="40.8471225" lon="8.7852304"><ele>379.0</ele><time>2026-04-26T09:14:39.978Z</time></trkpt><trkpt lat="40.847005" lon="8.7853163"><ele>379.0</ele><time>2026-04-26T09:14:40.978Z</time></trkpt><trkpt lat="40.8468909" lon="8.7854004"><ele>379.0</ele><time>2026-04-26T09:14:41.977Z</time></trkpt><trkpt lat="40.8467802" lon="8.7854798"><ele>379.0</ele><time>2026-04-26T09:14:42.977Z</time></trkpt><trkpt lat="40.8466694" lon="8.7855543"><ele>379.0</ele><time>2026-04-26T09:14:43.978Z</time></trkpt><trkpt lat="40.8465545" lon="8.7856218"><ele>379.0</ele><time>2026-04-26T09:14:44.979Z</time></trkpt><trkpt lat="40.8464328" lon="8.7856752"><ele>379.0</ele><time>2026-04-26T09:14:45.978Z</time></trkpt><trkpt lat="40.8463031" lon="8.785714"><ele>379.0</ele><time>2026-04-26T09:14:46.977Z</time></trkpt><trkpt lat="40.8461706" lon="8.7857513"><ele>379.0</ele><time>2026-04-26T09:14:47.979Z</time></trkpt><trkpt lat="40.8460366" lon="8.7857997"><ele>379.0</ele><time>2026-04-26T09:14:48.977Z</time></trkpt><trkpt lat="40.8459013" lon="8.7858535"><ele>379.0</ele><time>2026-04-26T09:14:49.979Z</time></trkpt><trkpt lat="40.8457702" lon="8.7859051"><ele>379.25</ele><time>2026-04-26T09:14:50.979Z</time></trkpt><trkpt lat="40.8456391" lon="8.7859551"><ele>379.5</ele><time>2026-04-26T09:14:51.978Z</time></trkpt><trkpt lat="40.8455148" lon="8.7860057"><ele>379.75</ele><time>2026-04-26T09:14:52.977Z</time></trkpt><trkpt lat="40.8454034" lon="8.7860527"><ele>380.0</ele><time>2026-04-26T09:14:53.977Z</time></trkpt><trkpt lat="40.8453037" lon="8.7860954"><ele>380.2</ele><time>2026-04-26T09:14:54.978Z</time></trkpt><trkpt lat="40.8452066" lon="8.7861325"><ele>380.4</ele><time>2026-04-26T09:14:55.977Z</time></trkpt><trkpt lat="40.8451106" lon="8.7861696"><ele>380.6</ele><time>2026-04-26T09:14:56.978Z</time></trkpt><trkpt lat="40.8450075" lon="8.7862087"><ele>380.8</ele><time>2026-04-26T09:14:57.979Z</time></trkpt><trkpt lat="40.8449056" lon="8.7862501"><ele>381.0</ele><time>2026-04-26T09:14:58.978Z</time></trkpt><trkpt lat="40.8448032" lon="8.7862903"><ele>381.5</ele><time>2026-04-26T09:14:59.979Z</time></trkpt><trkpt lat="40.8447017" lon="8.7863302"><ele>382.0</ele><time>2026-04-26T09:15:00.978Z</time></trkpt><trkpt lat="40.8446044" lon="8.7863683"><ele>382.5</ele><time>2026-04-26T09:15:01.979Z</time></trkpt><trkpt lat="40.8445181" lon="8.786403"><ele>383.0</ele><time>2026-04-26T09:15:02.978Z</time></trkpt><trkpt lat="40.8444414" lon="8.7864346"><ele>383.5</ele><time>2026-04-26T09:15:03.977Z</time></trkpt><trkpt lat="40.8443742" lon="8.7864668"><ele>384.0</ele><time>2026-04-26T09:15:04.977Z</time></trkpt><trkpt lat="40.8443143" lon="8.7864972"><ele>383.79999999999995</ele><time>2026-04-26T09:15:05.978Z</time></trkpt><trkpt lat="40.8442272" lon="8.7865657"><ele>383.59999999999997</ele><time>2026-04-26T09:15:07.978Z</time></trkpt><trkpt lat="40.8441943" lon="8.7866615"><ele>383.4</ele><time>2026-04-26T09:15:09.979Z</time></trkpt><trkpt lat="40.8442255" lon="8.7868355"><ele>383.2</ele><time>2026-04-26T09:15:11.977Z</time></trkpt><trkpt lat="40.8442449" lon="8.7869411"><ele>383.0</ele><time>2026-04-26T09:15:12.977Z</time></trkpt><trkpt lat="40.8442581" lon="8.7870565"><ele>382.59999999999997</ele><time>2026-04-26T09:15:13.977Z</time></trkpt><trkpt lat="40.8442686" lon="8.7871792"><ele>382.2</ele><time>2026-04-26T09:15:14.978Z</time></trkpt><trkpt lat="40.8442787" lon="8.7873027"><ele>381.8</ele><time>2026-04-26T09:15:15.978Z</time></trkpt><trkpt lat="40.8442855" lon="8.7874258"><ele>381.4</ele><time>2026-04-26T09:15:16.978Z</time></trkpt><trkpt lat="40.8442856" lon="8.7875453"><ele>381.0</ele><time>2026-04-26T09:15:17.978Z</time></trkpt><trkpt lat="40.8442704" lon="8.7876576"><ele>380.6666666666667</ele><time>2026-04-26T09:15:18.977Z</time></trkpt><trkpt lat="40.8442466" lon="8.787767"><ele>380.3333333333333</ele><time>2026-04-26T09:15:19.979Z</time></trkpt><trkpt lat="40.8442111" lon="8.7878726"><ele>380.0</ele><time>2026-04-26T09:15:20.98Z</time></trkpt><trkpt lat="40.8441632" lon="8.7879688"><ele>379.66666666666663</ele><time>2026-04-26T09:15:21.978Z</time></trkpt><trkpt lat="40.8441033" lon="8.7880497"><ele>379.3333333333333</ele><time>2026-04-26T09:15:22.978Z</time></trkpt><trkpt lat="40.844034" lon="8.7881269"><ele>379.0</ele><time>2026-04-26T09:15:23.979Z</time></trkpt><trkpt lat="40.8439571" lon="8.7882045"><ele>379.0</ele><time>2026-04-26T09:15:24.978Z</time></trkpt><trkpt lat="40.843873" lon="8.7882877"><ele>379.0</ele><time>2026-04-26T09:15:25.978Z</time></trkpt><trkpt lat="40.843785" lon="8.7883756"><ele>379.0</ele><time>2026-04-26T09:15:26.978Z</time></trkpt><trkpt lat="40.8436925" lon="8.788465"><ele>379.0</ele><time>2026-04-26T09:15:27.977Z</time></trkpt><trkpt lat="40.8435962" lon="8.7885546"><ele>379.0</ele><time>2026-04-26T09:15:28.977Z</time></trkpt><trkpt lat="40.843499" lon="8.7886433"><ele>373.0</ele><time>2026-04-26T09:15:29.978Z</time></trkpt><trkpt lat="40.8434043" lon="8.7887382"><ele>367.0</ele><time>2026-04-26T09:15:30.979Z</time></trkpt><trkpt lat="40.8433122" lon="8.7888403"><ele>361.0</ele><time>2026-04-26T09:15:31.979Z</time></trkpt><trkpt lat="40.8432258" lon="8.7889483"><ele>355.0</ele><time>2026-04-26T09:15:32.979Z</time></trkpt><trkpt lat="40.843139" lon="8.7890521"><ele>355.0</ele><time>2026-04-26T09:15:33.979Z</time></trkpt><trkpt lat="40.8430574" lon="8.7891514"><ele>355.0</ele><time>2026-04-26T09:15:34.978Z</time></trkpt><trkpt lat="40.842979" lon="8.7892503"><ele>355.0</ele><time>2026-04-26T09:15:35.978Z</time></trkpt><trkpt lat="40.8429032" lon="8.7893549"><ele>355.0</ele><time>2026-04-26T09:15:36.978Z</time></trkpt><trkpt lat="40.842825" lon="8.78946"><ele>355.0</ele><time>2026-04-26T09:15:37.977Z</time></trkpt><trkpt lat="40.8427427" lon="8.789562"><ele>354.0</ele><time>2026-04-26T09:15:38.978Z</time></trkpt><trkpt lat="40.8426595" lon="8.7896602"><ele>353.0</ele><time>2026-04-26T09:15:39.977Z</time></trkpt><trkpt lat="40.8425759" lon="8.7897569"><ele>352.0</ele><time>2026-04-26T09:15:40.978Z</time></trkpt><trkpt lat="40.8424933" lon="8.7898556"><ele>351.0</ele><time>2026-04-26T09:15:41.978Z</time></trkpt><trkpt lat="40.8424114" lon="8.7899623"><ele>350.0</ele><time>2026-04-26T09:15:42.979Z</time></trkpt><trkpt lat="40.8423293" lon="8.7900809"><ele>346.5</ele><time>2026-04-26T09:15:43.978Z</time></trkpt><trkpt lat="40.8422484" lon="8.7902033"><ele>343.0</ele><time>2026-04-26T09:15:44.979Z</time></trkpt><trkpt lat="40.8421676" lon="8.7903192"><ele>339.5</ele><time>2026-04-26T09:15:45.979Z</time></trkpt><trkpt lat="40.8420853" lon="8.7904315"><ele>336.0</ele><time>2026-04-26T09:15:46.978Z</time></trkpt><trkpt lat="40.8420003" lon="8.7905385"><ele>336.0</ele><time>2026-04-26T09:15:47.978Z</time></trkpt><trkpt lat="40.8419154" lon="8.7906378"><ele>336.0</ele><time>2026-04-26T09:15:48.977Z</time></trkpt><trkpt lat="40.8418255" lon="8.7907331"><ele>336.0</ele><time>2026-04-26T09:15:49.978Z</time></trkpt><trkpt lat="40.8417266" lon="8.7908263"><ele>336.0</ele><time>2026-04-26T09:15:50.979Z</time></trkpt><trkpt lat="40.841624" lon="8.7909154"><ele>334.5</ele><time>2026-04-26T09:15:51.977Z</time></trkpt><trkpt lat="40.8415201" lon="8.7909939"><ele>333.0</ele><time>2026-04-26T09:15:52.978Z</time></trkpt><trkpt lat="40.8414172" lon="8.791065"><ele>331.5</ele><time>2026-04-26T09:15:53.978Z</time></trkpt><trkpt lat="40.8413129" lon="8.7911304"><ele>330.0</ele><time>2026-04-26T09:15:54.979Z</time></trkpt><trkpt lat="40.84121" lon="8.7911907"><ele>329.8</ele><time>2026-04-26T09:15:55.977Z</time></trkpt><trkpt lat="40.8411082" lon="8.7912452"><ele>329.6</ele><time>2026-04-26T09:15:56.978Z</time></trkpt><trkpt lat="40.8410078" lon="8.79129"><ele>329.4</ele><time>2026-04-26T09:15:57.977Z</time></trkpt><trkpt lat="40.8409073" lon="8.7913276"><ele>329.2</ele><time>2026-04-26T09:15:58.977Z</time></trkpt><trkpt lat="40.840804" lon="8.7913648"><ele>329.0</ele><time>2026-04-26T09:15:59.978Z</time></trkpt><trkpt lat="40.8407007" lon="8.7914114"><ele>328.0</ele><time>2026-04-26T09:16:00.977Z</time></trkpt><trkpt lat="40.8405975" lon="8.7914707"><ele>327.0</ele><time>2026-04-26T09:16:01.979Z</time></trkpt><trkpt lat="40.8404953" lon="8.7915352"><ele>326.0</ele><time>2026-04-26T09:16:02.979Z</time></trkpt><trkpt lat="40.8403935" lon="8.7915985"><ele>325.0</ele><time>2026-04-26T09:16:03.977Z</time></trkpt><trkpt lat="40.8402932" lon="8.7916617"><ele>324.0</ele><time>2026-04-26T09:16:04.977Z</time></trkpt><trkpt lat="40.8401952" lon="8.7917227"><ele>322.59999999999997</ele><time>2026-04-26T09:16:05.978Z</time></trkpt><trkpt lat="40.8400994" lon="8.7917779"><ele>321.2</ele><time>2026-04-26T09:16:06.977Z</time></trkpt><trkpt lat="40.8400062" lon="8.7918229"><ele>319.79999999999995</ele><time>2026-04-26T09:16:07.977Z</time></trkpt><trkpt lat="40.839916" lon="8.7918659"><ele>318.4</ele><time>2026-04-26T09:16:08.979Z</time></trkpt><trkpt lat="40.8398348" lon="8.7919073"><ele>317.0</ele><time>2026-04-26T09:16:09.978Z</time></trkpt><trkpt lat="40.839772" lon="8.7919497"><ele>317.0</ele><time>2026-04-26T09:16:10.977Z</time></trkpt><trkpt lat="40.8397018" lon="8.7920502"><ele>317.0</ele><time>2026-04-26T09:16:12.977Z</time></trkpt><trkpt lat="40.8396902" lon="8.7921478"><ele>317.0</ele><time>2026-04-26T09:16:13.978Z</time></trkpt><trkpt lat="40.839683" lon="8.7922683"><ele>317.0</ele><time>2026-04-26T09:16:14.979Z</time></trkpt><trkpt lat="40.8396736" lon="8.7923844"><ele>317.0</ele><time>2026-04-26T09:16:15.977Z</time></trkpt><trkpt lat="40.8396659" lon="8.7925037"><ele>317.0</ele><time>2026-04-26T09:16:16.977Z</time></trkpt><trkpt lat="40.8396574" lon="8.7926204"><ele>317.1666666666667</ele><time>2026-04-26T09:16:17.977Z</time></trkpt><trkpt lat="40.8396418" lon="8.7927305"><ele>317.33333333333337</ele><time>2026-04-26T09:16:18.977Z</time></trkpt><trkpt lat="40.8396262" lon="8.7928374"><ele>317.5</ele><time>2026-04-26T09:16:19.977Z</time></trkpt><trkpt lat="40.8396108" lon="8.7929399"><ele>317.6666666666667</ele><time>2026-04-26T09:16:20.978Z</time></trkpt><trkpt lat="40.8395943" lon="8.7930453"><ele>317.8333333333333</ele><time>2026-04-26T09:16:21.977Z</time></trkpt><trkpt lat="40.8395791" lon="8.7931596"><ele>318.0</ele><time>2026-04-26T09:16:22.979Z</time></trkpt><trkpt lat="40.839565" lon="8.7932744"><ele>318.0</ele><time>2026-04-26T09:16:23.978Z</time></trkpt><trkpt lat="40.8395598" lon="8.7933928"><ele>318.0</ele><time>2026-04-26T09:16:24.977Z</time></trkpt><trkpt lat="40.8395648" lon="8.7935119"><ele>318.0</ele><time>2026-04-26T09:16:25.977Z</time></trkpt><trkpt lat="40.8395769" lon="8.7936312"><ele>318.0</ele><time>2026-04-26T09:16:26.978Z</time></trkpt><trkpt lat="40.839593" lon="8.793755"><ele>318.0</ele><time>2026-04-26T09:16:27.979Z</time></trkpt><trkpt lat="40.8396097" lon="8.7938785"><ele>317.3333333333333</ele><time>2026-04-26T09:16:28.977Z</time></trkpt><trkpt lat="40.8396204" lon="8.7939943"><ele>316.6666666666667</ele><time>2026-04-26T09:16:29.977Z</time></trkpt><trkpt lat="40.8396244" lon="8.7941065"><ele>316.0</ele><time>2026-04-26T09:16:30.978Z</time></trkpt><trkpt lat="40.8396287" lon="8.7942087"><ele>315.33333333333337</ele><time>2026-04-26T09:16:31.977Z</time></trkpt><trkpt lat="40.839644" lon="8.7942912"><ele>314.6666666666667</ele><time>2026-04-26T09:16:32.977Z</time></trkpt><trkpt lat="40.8396927" lon="8.7944046"><ele>314.0</ele><time>2026-04-26T09:16:34.978Z</time></trkpt><trkpt lat="40.8397287" lon="8.794513"><ele>313.8</ele><time>2026-04-26T09:16:36.978Z</time></trkpt><trkpt lat="40.839757" lon="8.7946758"><ele>313.59999999999997</ele><time>2026-04-26T09:16:38.978Z</time></trkpt><trkpt lat="40.8397773" lon="8.7947773"><ele>313.4</ele><time>2026-04-26T09:16:39.979Z</time></trkpt><trkpt lat="40.8397995" lon="8.7948842"><ele>313.2</ele><time>2026-04-26T09:16:40.978Z</time></trkpt><trkpt lat="40.8398162" lon="8.7949942"><ele>313.0</ele><time>2026-04-26T09:16:41.978Z</time></trkpt><trkpt lat="40.8398302" lon="8.7951036"><ele>313.0</ele><time>2026-04-26T09:16:42.979Z</time></trkpt><trkpt lat="40.8398417" lon="8.7952072"><ele>313.0</ele><time>2026-04-26T09:16:43.979Z</time></trkpt><trkpt lat="40.8398516" lon="8.7953077"><ele>313.0</ele><time>2026-04-26T09:16:44.979Z</time></trkpt><trkpt lat="40.8398607" lon="8.7954076"><ele>313.0</ele><time>2026-04-26T09:16:45.979Z</time></trkpt><trkpt lat="40.8398699" lon="8.7955004"><ele>313.0</ele><time>2026-04-26T09:16:46.979Z</time></trkpt><trkpt lat="40.839881" lon="8.7955836"><ele>313.0</ele><time>2026-04-26T09:16:47.979Z</time></trkpt><trkpt lat="40.8399036" lon="8.7957316"><ele>313.0</ele><time>2026-04-26T09:16:49.98Z</time></trkpt><trkpt lat="40.8399261" lon="8.7958562"><ele>313.0</ele><time>2026-04-26T09:16:51.978Z</time></trkpt><trkpt lat="40.8399437" lon="8.7959819"><ele>313.0</ele><time>2026-04-26T09:16:53.978Z</time></trkpt><trkpt lat="40.8399913" lon="8.7961138"><ele>313.0</ele><time>2026-04-26T09:16:55.978Z</time></trkpt><trkpt lat="40.8400654" lon="8.7962267"><ele>313.0</ele><time>2026-04-26T09:16:57.978Z</time></trkpt><trkpt lat="40.8400901" lon="8.796313"><ele>313.0</ele><time>2026-04-26T09:16:59.979Z</time></trkpt><trkpt lat="40.8400317" lon="8.7963482"><ele>313.0</ele><time>2026-04-26T09:17:02.979Z</time></trkpt><trkpt lat="40.8399578" lon="8.796225"><ele>313.0</ele><time>2026-04-26T09:17:04.978Z</time></trkpt><trkpt lat="40.8399219" lon="8.7961218"><ele>313.0</ele><time>2026-04-26T09:17:05.979Z</time></trkpt><trkpt lat="40.8398859" lon="8.7960039"><ele>313.0</ele><time>2026-04-26T09:17:06.979Z</time></trkpt><trkpt lat="40.8398556" lon="8.7958906"><ele>313.0</ele><time>2026-04-26T09:17:07.979Z</time></trkpt><trkpt lat="40.8398344" lon="8.7957676"><ele>313.0</ele><time>2026-04-26T09:17:08.98Z</time></trkpt><trkpt lat="40.8398191" lon="8.7956364"><ele>313.0</ele><time>2026-04-26T09:17:09.979Z</time></trkpt><trkpt lat="40.8398051" lon="8.7955094"><ele>313.0</ele><time>2026-04-26T09:17:10.979Z</time></trkpt><trkpt lat="40.8397883" lon="8.7953962"><ele>313.0</ele><time>2026-04-26T09:17:11.978Z</time></trkpt><trkpt lat="40.8397644" lon="8.7953038"><ele>313.0</ele><time>2026-04-26T09:17:12.979Z</time></trkpt><trkpt lat="40.8397271" lon="8.7952342"><ele>313.0</ele><time>2026-04-26T09:17:13.98Z</time></trkpt><trkpt lat="40.8396703" lon="8.7951963"><ele>313.0</ele><time>2026-04-26T09:17:14.979Z</time></trkpt><trkpt lat="40.8395884" lon="8.7951956"><ele>313.0</ele><time>2026-04-26T09:17:15.978Z</time></trkpt><trkpt lat="40.8394961" lon="8.7952117"><ele>313.0</ele><time>2026-04-26T09:17:16.978Z</time></trkpt><trkpt lat="40.8393914" lon="8.7952326"><ele>313.0</ele><time>2026-04-26T09:17:17.979Z</time></trkpt><trkpt lat="40.8392863" lon="8.7952437"><ele>315.0</ele><time>2026-04-26T09:17:18.978Z</time></trkpt><trkpt lat="40.8391732" lon="8.7952573"><ele>317.0</ele><time>2026-04-26T09:17:19.979Z</time></trkpt><trkpt lat="40.8390632" lon="8.7952682"><ele>319.0</ele><time>2026-04-26T09:17:20.98Z</time></trkpt><trkpt lat="40.8389489" lon="8.7952781"><ele>321.0</ele><time>2026-04-26T09:17:21.979Z</time></trkpt><trkpt lat="40.8388278" lon="8.7952869"><ele>321.0</ele><time>2026-04-26T09:17:22.979Z</time></trkpt><trkpt lat="40.8387049" lon="8.7953015"><ele>321.0</ele><time>2026-04-26T09:17:23.979Z</time></trkpt><trkpt lat="40.8385803" lon="8.795315"><ele>321.0</ele><time>2026-04-26T09:17:24.978Z</time></trkpt><trkpt lat="40.8384562" lon="8.795327"><ele>321.0</ele><time>2026-04-26T09:17:25.978Z</time></trkpt><trkpt lat="40.8383312" lon="8.7953378"><ele>322.75</ele><time>2026-04-26T09:17:26.979Z</time></trkpt><trkpt lat="40.8382036" lon="8.7953466"><ele>324.5</ele><time>2026-04-26T09:17:27.98Z</time></trkpt><trkpt lat="40.8380695" lon="8.7953562"><ele>326.25</ele><time>2026-04-26T09:17:28.979Z</time></trkpt><trkpt lat="40.8379307" lon="8.7953667"><ele>328.0</ele><time>2026-04-26T09:17:29.979Z</time></trkpt><trkpt lat="40.8377895" lon="8.7953774"><ele>328.0</ele><time>2026-04-26T09:17:30.979Z</time></trkpt><trkpt lat="40.8376498" lon="8.79539"><ele>328.0</ele><time>2026-04-26T09:17:31.978Z</time></trkpt><trkpt lat="40.8375179" lon="8.7954004"><ele>328.0</ele><time>2026-04-26T09:17:32.98Z</time></trkpt><trkpt lat="40.8373906" lon="8.795409"><ele>328.0</ele><time>2026-04-26T09:17:33.978Z</time></trkpt><trkpt lat="40.8372638" lon="8.7954183"><ele>329.0</ele><time>2026-04-26T09:17:34.978Z</time></trkpt><trkpt lat="40.8371388" lon="8.7954305"><ele>330.0</ele><time>2026-04-26T09:17:35.978Z</time></trkpt><trkpt lat="40.8370148" lon="8.795441"><ele>331.0</ele><time>2026-04-26T09:17:36.979Z</time></trkpt><trkpt lat="40.8368894" lon="8.79545"><ele>332.0</ele><time>2026-04-26T09:17:37.979Z</time></trkpt><trkpt lat="40.8367632" lon="8.7954623"><ele>333.5</ele><time>2026-04-26T09:17:38.979Z</time></trkpt><trkpt lat="40.8366373" lon="8.7954772"><ele>335.0</ele><time>2026-04-26T09:17:39.978Z</time></trkpt><trkpt lat="40.8365112" lon="8.795487"><ele>336.5</ele><time>2026-04-26T09:17:40.978Z</time></trkpt><trkpt lat="40.8363884" lon="8.7954971"><ele>338.0</ele><time>2026-04-26T09:17:41.979Z</time></trkpt><trkpt lat="40.8362655" lon="8.7955049"><ele>338.0</ele><time>2026-04-26T09:17:42.979Z</time></trkpt><trkpt lat="40.8361489" lon="8.7955065"><ele>338.0</ele><time>2026-04-26T09:17:43.978Z</time></trkpt><trkpt lat="40.8360444" lon="8.7954976"><ele>338.0</ele><time>2026-04-26T09:17:44.98Z</time></trkpt><trkpt lat="40.8359487" lon="8.7954788"><ele>338.0</ele><time>2026-04-26T09:17:45.979Z</time></trkpt><trkpt lat="40.8358572" lon="8.795446"><ele>338.0</ele><time>2026-04-26T09:17:46.978Z</time></trkpt><trkpt lat="40.8357658" lon="8.7953918"><ele>339.5</ele><time>2026-04-26T09:17:47.979Z</time></trkpt><trkpt lat="40.8356843" lon="8.7953257"><ele>341.0</ele><time>2026-04-26T09:17:48.979Z</time></trkpt><trkpt lat="40.8356099" lon="8.7952625"><ele>342.5</ele><time>2026-04-26T09:17:49.978Z</time></trkpt><trkpt lat="40.8355328" lon="8.7952192"><ele>344.0</ele><time>2026-04-26T09:17:50.98Z</time></trkpt><trkpt lat="40.8354525" lon="8.7951989"><ele>345.5</ele><time>2026-04-26T09:17:51.979Z</time></trkpt><trkpt lat="40.8353631" lon="8.7951941"><ele>347.0</ele><time>2026-04-26T09:17:52.979Z</time></trkpt><trkpt lat="40.8352699" lon="8.7951871"><ele>347.0</ele><time>2026-04-26T09:17:53.978Z</time></trkpt><trkpt lat="40.8351708" lon="8.7951774"><ele>347.0</ele><time>2026-04-26T09:17:54.978Z</time></trkpt><trkpt lat="40.8350761" lon="8.7951639"><ele>347.0</ele><time>2026-04-26T09:17:55.979Z</time></trkpt><trkpt lat="40.8349917" lon="8.7951521"><ele>347.0</ele><time>2026-04-26T09:17:56.979Z</time></trkpt><trkpt lat="40.8349149" lon="8.7951411"><ele>347.0</ele><time>2026-04-26T09:17:57.98Z</time></trkpt><trkpt lat="40.8348399" lon="8.7951363"><ele>347.0</ele><time>2026-04-26T09:17:58.979Z</time></trkpt><trkpt lat="40.83476" lon="8.7951306"><ele>347.83333333333337</ele><time>2026-04-26T09:17:59.978Z</time></trkpt><trkpt lat="40.8346752" lon="8.7951198"><ele>348.6666666666667</ele><time>2026-04-26T09:18:00.979Z</time></trkpt><trkpt lat="40.8345886" lon="8.7951037"><ele>349.5</ele><time>2026-04-26T09:18:01.978Z</time></trkpt><trkpt lat="40.8345031" lon="8.7950882"><ele>350.3333333333333</ele><time>2026-04-26T09:18:02.979Z</time></trkpt><trkpt lat="40.8344173" lon="8.7950706"><ele>351.16666666666663</ele><time>2026-04-26T09:18:03.979Z</time></trkpt><trkpt lat="40.8343355" lon="8.7950456"><ele>352.0</ele><time>2026-04-26T09:18:04.98Z</time></trkpt><trkpt lat="40.8342534" lon="8.795018"><ele>352.8333333333333</ele><time>2026-04-26T09:18:05.978Z</time></trkpt><trkpt lat="40.8341756" lon="8.7950037"><ele>353.66666666666663</ele><time>2026-04-26T09:18:06.978Z</time></trkpt><trkpt lat="40.8341009" lon="8.7950105"><ele>354.5</ele><time>2026-04-26T09:18:07.978Z</time></trkpt><trkpt lat="40.8340255" lon="8.795043"><ele>355.3333333333333</ele><time>2026-04-26T09:18:08.979Z</time></trkpt><trkpt lat="40.8339504" lon="8.7950964"><ele>356.1666666666667</ele><time>2026-04-26T09:18:09.979Z</time></trkpt><trkpt lat="40.8338762" lon="8.7951759"><ele>357.0</ele><time>2026-04-26T09:18:10.979Z</time></trkpt><trkpt lat="40.833804" lon="8.795269"><ele>357.0</ele><time>2026-04-26T09:18:11.979Z</time></trkpt><trkpt lat="40.8337227" lon="8.7953646"><ele>357.0</ele><time>2026-04-26T09:18:12.978Z</time></trkpt><trkpt lat="40.8336367" lon="8.7954637"><ele>357.0</ele><time>2026-04-26T09:18:13.979Z</time></trkpt><trkpt lat="40.8335537" lon="8.7955743"><ele>357.0</ele><time>2026-04-26T09:18:14.978Z</time></trkpt><trkpt lat="40.8334754" lon="8.7956896"><ele>357.40000000000003</ele><time>2026-04-26T09:18:15.978Z</time></trkpt><trkpt lat="40.8334058" lon="8.7958062"><ele>357.8</ele><time>2026-04-26T09:18:16.978Z</time></trkpt><trkpt lat="40.8333391" lon="8.7959212"><ele>358.2</ele><time>2026-04-26T09:18:17.978Z</time></trkpt><trkpt lat="40.8332678" lon="8.7960302"><ele>358.6</ele><time>2026-04-26T09:18:18.979Z</time></trkpt><trkpt lat="40.8331933" lon="8.7961266"><ele>359.0</ele><time>2026-04-26T09:18:19.978Z</time></trkpt><trkpt lat="40.8331179" lon="8.7962171"><ele>359.0</ele><time>2026-04-26T09:18:20.978Z</time></trkpt><trkpt lat="40.83304" lon="8.7963054"><ele>359.0</ele><time>2026-04-26T09:18:21.979Z</time></trkpt><trkpt lat="40.8329639" lon="8.7963931"><ele>359.0</ele><time>2026-04-26T09:18:22.98Z</time></trkpt><trkpt lat="40.8328912" lon="8.7964737"><ele>359.0</ele><time>2026-04-26T09:18:23.98Z</time></trkpt><trkpt lat="40.8328202" lon="8.796554"><ele>359.0</ele><time>2026-04-26T09:18:24.978Z</time></trkpt><trkpt lat="40.8327439" lon="8.7966336"><ele>359.0</ele><time>2026-04-26T09:18:25.979Z</time></trkpt><trkpt lat="40.8326621" lon="8.7967129"><ele>359.0</ele><time>2026-04-26T09:18:26.978Z</time></trkpt><trkpt lat="40.8325732" lon="8.7967895"><ele>359.0</ele><time>2026-04-26T09:18:27.978Z</time></trkpt><trkpt lat="40.8324789" lon="8.7968598"><ele>359.0</ele><time>2026-04-26T09:18:28.979Z</time></trkpt><trkpt lat="40.8323797" lon="8.7969263"><ele>359.0</ele><time>2026-04-26T09:18:29.978Z</time></trkpt><trkpt lat="40.8322793" lon="8.7970001"><ele>359.2</ele><time>2026-04-26T09:18:30.978Z</time></trkpt><trkpt lat="40.8321851" lon="8.7970821"><ele>359.4</ele><time>2026-04-26T09:18:31.978Z</time></trkpt><trkpt lat="40.8320994" lon="8.7971653"><ele>359.6</ele><time>2026-04-26T09:18:32.979Z</time></trkpt><trkpt lat="40.8320211" lon="8.7972405"><ele>359.8</ele><time>2026-04-26T09:18:33.978Z</time></trkpt><trkpt lat="40.8319475" lon="8.7973058"><ele>360.0</ele><time>2026-04-26T09:18:34.978Z</time></trkpt><trkpt lat="40.8318751" lon="8.7973617"><ele>360.3333333333333</ele><time>2026-04-26T09:18:35.979Z</time></trkpt><trkpt lat="40.8318034" lon="8.7974168"><ele>360.6666666666667</ele><time>2026-04-26T09:18:36.978Z</time></trkpt><trkpt lat="40.8317312" lon="8.7974771"><ele>361.0</ele><time>2026-04-26T09:18:37.979Z</time></trkpt><trkpt lat="40.8316573" lon="8.7975435"><ele>361.33333333333337</ele><time>2026-04-26T09:18:38.978Z</time></trkpt><trkpt lat="40.8315826" lon="8.7976165"><ele>361.6666666666667</ele><time>2026-04-26T09:18:39.978Z</time></trkpt><trkpt lat="40.8315089" lon="8.7976874"><ele>362.0</ele><time>2026-04-26T09:18:40.977Z</time></trkpt><trkpt lat="40.8314312" lon="8.7977535"><ele>362.0</ele><time>2026-04-26T09:18:41.978Z</time></trkpt><trkpt lat="40.8313587" lon="8.7978213"><ele>362.0</ele><time>2026-04-26T09:18:42.979Z</time></trkpt><trkpt lat="40.8312924" lon="8.7978969"><ele>362.0</ele><time>2026-04-26T09:18:43.979Z</time></trkpt><trkpt lat="40.8312296" lon="8.7979698"><ele>362.0</ele><time>2026-04-26T09:18:44.979Z</time></trkpt><trkpt lat="40.8311743" lon="8.7980334"><ele>362.0</ele><time>2026-04-26T09:18:45.978Z</time></trkpt><trkpt lat="40.8311208" lon="8.7980892"><ele>362.0</ele><time>2026-04-26T09:18:46.978Z</time></trkpt><trkpt lat="40.8310645" lon="8.7981376"><ele>362.0</ele><time>2026-04-26T09:18:47.979Z</time></trkpt><trkpt lat="40.8310009" lon="8.7981795"><ele>362.0</ele><time>2026-04-26T09:18:48.979Z</time></trkpt><trkpt lat="40.8309288" lon="8.7982083"><ele>362.0</ele><time>2026-04-26T09:18:49.978Z</time></trkpt><trkpt lat="40.8308496" lon="8.7982257"><ele>362.0</ele><time>2026-04-26T09:18:50.979Z</time></trkpt><trkpt lat="40.830768" lon="8.7982421"><ele>362.0</ele><time>2026-04-26T09:18:51.979Z</time></trkpt><trkpt lat="40.8306883" lon="8.7982587"><ele>362.0</ele><time>2026-04-26T09:18:52.978Z</time></trkpt><trkpt lat="40.8306145" lon="8.7982895"><ele>362.0</ele><time>2026-04-26T09:18:53.98Z</time></trkpt><trkpt lat="40.8305498" lon="8.7983347"><ele>362.0</ele><time>2026-04-26T09:18:54.979Z</time></trkpt><trkpt lat="40.8305009" lon="8.79841"><ele>362.0</ele><time>2026-04-26T09:18:55.979Z</time></trkpt><trkpt lat="40.8304799" lon="8.7985149"><ele>362.0</ele><time>2026-04-26T09:18:56.979Z</time></trkpt><trkpt lat="40.8304704" lon="8.7986144"><ele>362.0</ele><time>2026-04-26T09:18:57.979Z</time></trkpt><trkpt lat="40.8305081" lon="8.7987489"><ele>362.0</ele><time>2026-04-26T09:18:59.978Z</time></trkpt><trkpt lat="40.8305924" lon="8.7988543"><ele>362.33333333333337</ele><time>2026-04-26T09:19:01.979Z</time></trkpt><trkpt lat="40.8306508" lon="8.7990065"><ele>362.6666666666667</ele><time>2026-04-26T09:19:03.978Z</time></trkpt><trkpt lat="40.830677" lon="8.7990924"><ele>363.0</ele><time>2026-04-26T09:19:04.981Z</time></trkpt><trkpt lat="40.8306978" lon="8.7991767"><ele>363.3333333333333</ele><time>2026-04-26T09:19:05.978Z</time></trkpt><trkpt lat="40.8307059" lon="8.7992601"><ele>363.66666666666663</ele><time>2026-04-26T09:19:06.978Z</time></trkpt><trkpt lat="40.8306825" lon="8.7993969"><ele>364.0</ele><time>2026-04-26T09:19:08.978Z</time></trkpt><trkpt lat="40.8306262" lon="8.79947"><ele>365.0</ele><time>2026-04-26T09:19:10.979Z</time></trkpt><trkpt lat="40.8304927" lon="8.7995116"><ele>366.0</ele><time>2026-04-26T09:19:12.978Z</time></trkpt><trkpt lat="40.8304115" lon="8.7995294"><ele>367.0</ele><time>2026-04-26T09:19:13.979Z</time></trkpt><trkpt lat="40.8303438" lon="8.7995552"><ele>368.0</ele><time>2026-04-26T09:19:14.978Z</time></trkpt><trkpt lat="40.8302795" lon="8.7995892"><ele>369.0</ele><time>2026-04-26T09:19:15.979Z</time></trkpt><trkpt lat="40.8302113" lon="8.7997298"><ele>369.0</ele><time>2026-04-26T09:19:17.979Z</time></trkpt><trkpt lat="40.8301998" lon="8.7998378"><ele>369.0</ele><time>2026-04-26T09:19:18.979Z</time></trkpt><trkpt lat="40.8301919" lon="8.7999466"><ele>369.0</ele><time>2026-04-26T09:19:19.978Z</time></trkpt><trkpt lat="40.8301826" lon="8.8000504"><ele>369.0</ele><time>2026-04-26T09:19:20.979Z</time></trkpt><trkpt lat="40.8301626" lon="8.8001454"><ele>369.0</ele><time>2026-04-26T09:19:21.977Z</time></trkpt><trkpt lat="40.8301251" lon="8.8002404"><ele>369.0</ele><time>2026-04-26T09:19:22.979Z</time></trkpt><trkpt lat="40.8300801" lon="8.8003375"><ele>371.0</ele><time>2026-04-26T09:19:23.978Z</time></trkpt><trkpt lat="40.8300358" lon="8.8004301"><ele>373.0</ele><time>2026-04-26T09:19:24.979Z</time></trkpt><trkpt lat="40.829993" lon="8.8005247"><ele>375.0</ele><time>2026-04-26T09:19:25.979Z</time></trkpt><trkpt lat="40.8299538" lon="8.800617"><ele>377.0</ele><time>2026-04-26T09:19:26.979Z</time></trkpt><trkpt lat="40.8299153" lon="8.800699"><ele>379.0</ele><time>2026-04-26T09:19:27.979Z</time></trkpt><trkpt lat="40.8298768" lon="8.8007675"><ele>381.0</ele><time>2026-04-26T09:19:28.978Z</time></trkpt><trkpt lat="40.8298098" lon="8.8008803"><ele>380.6666666666667</ele><time>2026-04-26T09:19:30.979Z</time></trkpt><trkpt lat="40.8297951" lon="8.8010002"><ele>380.3333333333333</ele><time>2026-04-26T09:19:32.978Z</time></trkpt><trkpt lat="40.8298235" lon="8.8010801"><ele>380.0</ele><time>2026-04-26T09:19:33.978Z</time></trkpt><trkpt lat="40.8298669" lon="8.8011804"><ele>379.66666666666663</ele><time>2026-04-26T09:19:34.979Z</time></trkpt><trkpt lat="40.829911" lon="8.801294"><ele>379.3333333333333</ele><time>2026-04-26T09:19:35.978Z</time></trkpt><trkpt lat="40.8299573" lon="8.8014106"><ele>379.0</ele><time>2026-04-26T09:19:36.98Z</time></trkpt><trkpt lat="40.8300009" lon="8.8015276"><ele>379.0</ele><time>2026-04-26T09:19:37.978Z</time></trkpt><trkpt lat="40.8300356" lon="8.8016392"><ele>379.0</ele><time>2026-04-26T09:19:38.98Z</time></trkpt><trkpt lat="40.8300691" lon="8.8017464"><ele>379.0</ele><time>2026-04-26T09:19:39.979Z</time></trkpt><trkpt lat="40.8301037" lon="8.8018508"><ele>379.0</ele><time>2026-04-26T09:19:40.979Z</time></trkpt><trkpt lat="40.8301419" lon="8.8019558"><ele>379.0</ele><time>2026-04-26T09:19:41.979Z</time></trkpt><trkpt lat="40.8301843" lon="8.8020592"><ele>379.0</ele><time>2026-04-26T09:19:42.979Z</time></trkpt><trkpt lat="40.8302287" lon="8.8021668"><ele>377.4</ele><time>2026-04-26T09:19:43.977Z</time></trkpt><trkpt lat="40.8302743" lon="8.8022792"><ele>375.79999999999995</ele><time>2026-04-26T09:19:44.978Z</time></trkpt><trkpt lat="40.8303191" lon="8.8023895"><ele>374.20000000000005</ele><time>2026-04-26T09:19:45.978Z</time></trkpt><trkpt lat="40.8303622" lon="8.8025044"><ele>372.6</ele><time>2026-04-26T09:19:46.979Z</time></trkpt><trkpt lat="40.8304064" lon="8.8026225"><ele>371.0</ele><time>2026-04-26T09:19:47.979Z</time></trkpt><trkpt lat="40.8304503" lon="8.8027407"><ele>371.0</ele><time>2026-04-26T09:19:48.978Z</time></trkpt><trkpt lat="40.8304906" lon="8.8028564"><ele>371.0</ele><time>2026-04-26T09:19:49.979Z</time></trkpt><trkpt lat="40.8305284" lon="8.8029703"><ele>371.0</ele><time>2026-04-26T09:19:50.98Z</time></trkpt><trkpt lat="40.8305693" lon="8.8030805"><ele>371.0</ele><time>2026-04-26T09:19:51.978Z</time></trkpt><trkpt lat="40.8306111" lon="8.8031907"><ele>371.0</ele><time>2026-04-26T09:19:52.979Z</time></trkpt><trkpt lat="40.8306511" lon="8.8033025"><ele>371.0</ele><time>2026-04-26T09:19:53.979Z</time></trkpt><trkpt lat="40.8306886" lon="8.8034178"><ele>371.0</ele><time>2026-04-26T09:19:54.979Z</time></trkpt><trkpt lat="40.8307199" lon="8.8035393"><ele>371.0</ele><time>2026-04-26T09:19:55.98Z</time></trkpt><trkpt lat="40.8307455" lon="8.8036656"><ele>371.0</ele><time>2026-04-26T09:19:56.98Z</time></trkpt><trkpt lat="40.8307636" lon="8.8037967"><ele>371.0</ele><time>2026-04-26T09:19:57.983Z</time></trkpt><trkpt lat="40.8307792" lon="8.8039296"><ele>371.20000000000005</ele><time>2026-04-26T09:19:58.978Z</time></trkpt><trkpt lat="40.8307963" lon="8.8040636"><ele>371.40000000000003</ele><time>2026-04-26T09:19:59.979Z</time></trkpt><trkpt lat="40.8308093" lon="8.8042021"><ele>371.6</ele><time>2026-04-26T09:20:00.978Z</time></trkpt><trkpt lat="40.8308188" lon="8.804344"><ele>371.8</ele><time>2026-04-26T09:20:01.979Z</time></trkpt><trkpt lat="40.8308256" lon="8.8044899"><ele>372.0</ele><time>2026-04-26T09:20:02.979Z</time></trkpt><trkpt lat="40.830831" lon="8.8046397"><ele>372.0</ele><time>2026-04-26T09:20:03.978Z</time></trkpt><trkpt lat="40.8308351" lon="8.8047891"><ele>372.0</ele><time>2026-04-26T09:20:04.979Z</time></trkpt><trkpt lat="40.8308337" lon="8.804938"><ele>372.0</ele><time>2026-04-26T09:20:05.978Z</time></trkpt><trkpt lat="40.8308278" lon="8.8050867"><ele>372.0</ele><time>2026-04-26T09:20:06.979Z</time></trkpt><trkpt lat="40.8308248" lon="8.8052341"><ele>372.20000000000005</ele><time>2026-04-26T09:20:07.979Z</time></trkpt><trkpt lat="40.8308289" lon="8.8053834"><ele>372.4</ele><time>2026-04-26T09:20:08.978Z</time></trkpt><trkpt lat="40.830833" lon="8.8055304"><ele>372.6</ele><time>2026-04-26T09:20:09.979Z</time></trkpt><trkpt lat="40.8308369" lon="8.8056666"><ele>372.79999999999995</ele><time>2026-04-26T09:20:10.978Z</time></trkpt><trkpt lat="40.8308403" lon="8.8057985"><ele>373.0</ele><time>2026-04-26T09:20:11.978Z</time></trkpt><trkpt lat="40.8308408" lon="8.8059277"><ele>372.5</ele><time>2026-04-26T09:20:12.978Z</time></trkpt><trkpt lat="40.8308374" lon="8.8060427"><ele>372.0</ele><time>2026-04-26T09:20:13.979Z</time></trkpt><trkpt lat="40.8308291" lon="8.8061447"><ele>371.5</ele><time>2026-04-26T09:20:14.979Z</time></trkpt><trkpt lat="40.8308168" lon="8.8062358"><ele>371.0</ele><time>2026-04-26T09:20:15.978Z</time></trkpt><trkpt lat="40.8307983" lon="8.8063236"><ele>370.5</ele><time>2026-04-26T09:20:16.978Z</time></trkpt><trkpt lat="40.8307807" lon="8.8064128"><ele>370.0</ele><time>2026-04-26T09:20:17.979Z</time></trkpt><trkpt lat="40.8307408" lon="8.8065686"><ele>370.0</ele><time>2026-04-26T09:20:19.978Z</time></trkpt><trkpt lat="40.8306623" lon="8.8067144"><ele>370.0</ele><time>2026-04-26T09:20:21.979Z</time></trkpt><trkpt lat="40.8306065" lon="8.8067842"><ele>370.0</ele><time>2026-04-26T09:20:22.978Z</time></trkpt><trkpt lat="40.8305441" lon="8.8068435"><ele>370.0</ele><time>2026-04-26T09:20:23.978Z</time></trkpt><trkpt lat="40.8304705" lon="8.8068901"><ele>370.0</ele><time>2026-04-26T09:20:24.978Z</time></trkpt><trkpt lat="40.8303962" lon="8.8069359"><ele>369.5</ele><time>2026-04-26T09:20:25.978Z</time></trkpt><trkpt lat="40.8303247" lon="8.8069889"><ele>369.0</ele><time>2026-04-26T09:20:26.978Z</time></trkpt><trkpt lat="40.8302606" lon="8.8070582"><ele>368.5</ele><time>2026-04-26T09:20:27.978Z</time></trkpt><trkpt lat="40.8302002" lon="8.8071403"><ele>368.0</ele><time>2026-04-26T09:20:28.978Z</time></trkpt><trkpt lat="40.8301393" lon="8.8072232"><ele>367.5</ele><time>2026-04-26T09:20:29.979Z</time></trkpt><trkpt lat="40.8300761" lon="8.8072997"><ele>367.0</ele><time>2026-04-26T09:20:30.979Z</time></trkpt><trkpt lat="40.8300116" lon="8.8073706"><ele>367.0</ele><time>2026-04-26T09:20:31.979Z</time></trkpt><trkpt lat="40.8299493" lon="8.8074351"><ele>367.0</ele><time>2026-04-26T09:20:32.979Z</time></trkpt><trkpt lat="40.8298858" lon="8.8074949"><ele>367.0</ele><time>2026-04-26T09:20:33.978Z</time></trkpt><trkpt lat="40.8298239" lon="8.8075487"><ele>367.0</ele><time>2026-04-26T09:20:34.979Z</time></trkpt><trkpt lat="40.8297581" lon="8.8075988"><ele>367.0</ele><time>2026-04-26T09:20:35.98Z</time></trkpt><trkpt lat="40.8296905" lon="8.8076502"><ele>367.0</ele><time>2026-04-26T09:20:36.978Z</time></trkpt><trkpt lat="40.8296247" lon="8.8077017"><ele>366.4285714285714</ele><time>2026-04-26T09:20:37.979Z</time></trkpt><trkpt lat="40.829561" lon="8.807753"><ele>365.8571428571429</ele><time>2026-04-26T09:20:38.979Z</time></trkpt><trkpt lat="40.8295002" lon="8.8078072"><ele>365.2857142857143</ele><time>2026-04-26T09:20:39.978Z</time></trkpt><trkpt lat="40.8294395" lon="8.8078662"><ele>364.71428571428567</ele><time>2026-04-26T09:20:40.978Z</time></trkpt><trkpt lat="40.8293798" lon="8.8079238"><ele>364.1428571428571</ele><time>2026-04-26T09:20:41.978Z</time></trkpt><trkpt lat="40.8293177" lon="8.8079731"><ele>363.57142857142856</ele><time>2026-04-26T09:20:42.978Z</time></trkpt><trkpt lat="40.8292512" lon="8.808007"><ele>363.0</ele><time>2026-04-26T09:20:43.978Z</time></trkpt><trkpt lat="40.8291816" lon="8.8080392"><ele>362.6666666666667</ele><time>2026-04-26T09:20:44.979Z</time></trkpt><trkpt lat="40.8291039" lon="8.8080775"><ele>362.3333333333333</ele><time>2026-04-26T09:20:45.978Z</time></trkpt><trkpt lat="40.8290212" lon="8.8081195"><ele>362.0</ele><time>2026-04-26T09:20:46.979Z</time></trkpt><trkpt lat="40.828936" lon="8.8081656"><ele>361.66666666666663</ele><time>2026-04-26T09:20:47.979Z</time></trkpt><trkpt lat="40.828852" lon="8.8082107"><ele>361.3333333333333</ele><time>2026-04-26T09:20:48.978Z</time></trkpt><trkpt lat="40.8287712" lon="8.8082544"><ele>361.0</ele><time>2026-04-26T09:20:49.978Z</time></trkpt><trkpt lat="40.8286947" lon="8.8082967"><ele>361.0</ele><time>2026-04-26T09:20:50.979Z</time></trkpt><trkpt lat="40.8286277" lon="8.808347"><ele>361.0</ele><time>2026-04-26T09:20:51.978Z</time></trkpt><trkpt lat="40.8285617" lon="8.8084099"><ele>361.0</ele><time>2026-04-26T09:20:52.978Z</time></trkpt><trkpt lat="40.8285009" lon="8.8084849"><ele>361.0</ele><time>2026-04-26T09:20:53.979Z</time></trkpt><trkpt lat="40.8284417" lon="8.808554"><ele>361.0</ele><time>2026-04-26T09:20:54.979Z</time></trkpt><trkpt lat="40.8283726" lon="8.8086102"><ele>361.0</ele><time>2026-04-26T09:20:55.978Z</time></trkpt><trkpt lat="40.8282926" lon="8.8086614"><ele>359.0</ele><time>2026-04-26T09:20:56.978Z</time></trkpt><trkpt lat="40.828206" lon="8.8087048"><ele>357.0</ele><time>2026-04-26T09:20:57.977Z</time></trkpt><trkpt lat="40.8281159" lon="8.8087399"><ele>355.0</ele><time>2026-04-26T09:20:58.979Z</time></trkpt><trkpt lat="40.8280239" lon="8.808762"><ele>353.0</ele><time>2026-04-26T09:20:59.979Z</time></trkpt><trkpt lat="40.8279281" lon="8.8087694"><ele>351.0</ele><time>2026-04-26T09:21:00.978Z</time></trkpt><trkpt lat="40.8278337" lon="8.8087754"><ele>351.0</ele><time>2026-04-26T09:21:01.978Z</time></trkpt><trkpt lat="40.8277351" lon="8.8087858"><ele>351.0</ele><time>2026-04-26T09:21:02.979Z</time></trkpt><trkpt lat="40.8276336" lon="8.8088017"><ele>351.0</ele><time>2026-04-26T09:21:03.977Z</time></trkpt><trkpt lat="40.8275354" lon="8.8088203"><ele>351.0</ele><time>2026-04-26T09:21:04.978Z</time></trkpt><trkpt lat="40.8274322" lon="8.8088411"><ele>351.0</ele><time>2026-04-26T09:21:05.979Z</time></trkpt><trkpt lat="40.8273261" lon="8.8088597"><ele>351.4</ele><time>2026-04-26T09:21:06.979Z</time></trkpt><trkpt lat="40.8272184" lon="8.8088755"><ele>351.8</ele><time>2026-04-26T09:21:07.979Z</time></trkpt><trkpt lat="40.827109" lon="8.8088869"><ele>352.2</ele><time>2026-04-26T09:21:08.979Z</time></trkpt><trkpt lat="40.8270036" lon="8.8088969"><ele>352.59999999999997</ele><time>2026-04-26T09:21:09.979Z</time></trkpt><trkpt lat="40.826905" lon="8.8089098"><ele>353.0</ele><time>2026-04-26T09:21:10.979Z</time></trkpt><trkpt lat="40.8268075" lon="8.8089228"><ele>353.0</ele><time>2026-04-26T09:21:11.978Z</time></trkpt><trkpt lat="40.8267049" lon="8.8089364"><ele>353.0</ele><time>2026-04-26T09:21:12.979Z</time></trkpt><trkpt lat="40.8266008" lon="8.8089465"><ele>353.0</ele><time>2026-04-26T09:21:13.98Z</time></trkpt><trkpt lat="40.8264989" lon="8.8089473"><ele>353.0</ele><time>2026-04-26T09:21:14.979Z</time></trkpt><trkpt lat="40.8263956" lon="8.8089407"><ele>353.0</ele><time>2026-04-26T09:21:15.978Z</time></trkpt><trkpt lat="40.8262909" lon="8.8089316"><ele>353.0</ele><time>2026-04-26T09:21:16.979Z</time></trkpt><trkpt lat="40.8261874" lon="8.8089181"><ele>353.0</ele><time>2026-04-26T09:21:17.979Z</time></trkpt><trkpt lat="40.8260909" lon="8.808906"><ele>353.0</ele><time>2026-04-26T09:21:18.978Z</time></trkpt><trkpt lat="40.8259949" lon="8.8088975"><ele>353.0</ele><time>2026-04-26T09:21:19.978Z</time></trkpt><trkpt lat="40.825899" lon="8.8088894"><ele>353.0</ele><time>2026-04-26T09:21:20.98Z</time></trkpt><trkpt lat="40.825802" lon="8.8088835"><ele>352.59999999999997</ele><time>2026-04-26T09:21:21.979Z</time></trkpt><trkpt lat="40.8257034" lon="8.808878"><ele>352.2</ele><time>2026-04-26T09:21:22.978Z</time></trkpt><trkpt lat="40.8256024" lon="8.8088699"><ele>351.8</ele><time>2026-04-26T09:21:23.977Z</time></trkpt><trkpt lat="40.8254998" lon="8.8088606"><ele>351.4</ele><time>2026-04-26T09:21:24.978Z</time></trkpt><trkpt lat="40.8254022" lon="8.80885"><ele>351.0</ele><time>2026-04-26T09:21:25.978Z</time></trkpt><trkpt lat="40.8253087" lon="8.8088216"><ele>351.0</ele><time>2026-04-26T09:21:26.979Z</time></trkpt><trkpt lat="40.8252165" lon="8.808772"><ele>351.0</ele><time>2026-04-26T09:21:27.978Z</time></trkpt><trkpt lat="40.8251241" lon="8.808704"><ele>351.0</ele><time>2026-04-26T09:21:28.979Z</time></trkpt><trkpt lat="40.8250346" lon="8.8086306"><ele>351.0</ele><time>2026-04-26T09:21:29.978Z</time></trkpt><trkpt lat="40.8249494" lon="8.808559"><ele>351.0</ele><time>2026-04-26T09:21:30.978Z</time></trkpt><trkpt lat="40.8248703" lon="8.8084957"><ele>351.8</ele><time>2026-04-26T09:21:31.979Z</time></trkpt><trkpt lat="40.8247915" lon="8.8084514"><ele>352.6</ele><time>2026-04-26T09:21:32.979Z</time></trkpt><trkpt lat="40.8247111" lon="8.8084275"><ele>353.4</ele><time>2026-04-26T09:21:33.979Z</time></trkpt><trkpt lat="40.8246223" lon="8.808441"><ele>354.2</ele><time>2026-04-26T09:21:34.979Z</time></trkpt><trkpt lat="40.8245347" lon="8.8084797"><ele>355.0</ele><time>2026-04-26T09:21:35.979Z</time></trkpt><trkpt lat="40.8244407" lon="8.8085435"><ele>355.0</ele><time>2026-04-26T09:21:36.979Z</time></trkpt><trkpt lat="40.8243458" lon="8.8086277"><ele>355.0</ele><time>2026-04-26T09:21:37.978Z</time></trkpt><trkpt lat="40.8242618" lon="8.8087166"><ele>355.0</ele><time>2026-04-26T09:21:38.978Z</time></trkpt><trkpt lat="40.8241891" lon="8.8088"><ele>355.0</ele><time>2026-04-26T09:21:39.979Z</time></trkpt><trkpt lat="40.8241195" lon="8.8088821"><ele>355.0</ele><time>2026-04-26T09:21:40.977Z</time></trkpt><trkpt lat="40.8240498" lon="8.8089676"><ele>355.16666666666663</ele><time>2026-04-26T09:21:41.978Z</time></trkpt><trkpt lat="40.8239713" lon="8.809041"><ele>355.3333333333333</ele><time>2026-04-26T09:21:42.979Z</time></trkpt><trkpt lat="40.8238877" lon="8.8090927"><ele>355.5</ele><time>2026-04-26T09:21:43.978Z</time></trkpt><trkpt lat="40.8238012" lon="8.8091264"><ele>355.6666666666667</ele><time>2026-04-26T09:21:44.979Z</time></trkpt><trkpt lat="40.8237182" lon="8.8091435"><ele>355.83333333333337</ele><time>2026-04-26T09:21:45.978Z</time></trkpt><trkpt lat="40.8236405" lon="8.8091396"><ele>356.0</ele><time>2026-04-26T09:21:46.979Z</time></trkpt><trkpt lat="40.8235604" lon="8.8091244"><ele>357.0</ele><time>2026-04-26T09:21:47.978Z</time></trkpt><trkpt lat="40.8234732" lon="8.809106"><ele>358.0</ele><time>2026-04-26T09:21:48.978Z</time></trkpt><trkpt lat="40.8233684" lon="8.8090652"><ele>359.0</ele><time>2026-04-26T09:21:49.977Z</time></trkpt><trkpt lat="40.8232605" lon="8.8090229"><ele>360.0</ele><time>2026-04-26T09:21:50.978Z</time></trkpt><trkpt lat="40.8231509" lon="8.8089782"><ele>361.0</ele><time>2026-04-26T09:21:51.979Z</time></trkpt><trkpt lat="40.8230427" lon="8.8089309"><ele>361.0</ele><time>2026-04-26T09:21:52.978Z</time></trkpt><trkpt lat="40.8229366" lon="8.808877"><ele>361.0</ele><time>2026-04-26T09:21:53.978Z</time></trkpt><trkpt lat="40.8228317" lon="8.8088235"><ele>361.0</ele><time>2026-04-26T09:21:54.978Z</time></trkpt><trkpt lat="40.8227271" lon="8.8087685"><ele>361.0</ele><time>2026-04-26T09:21:55.98Z</time></trkpt><trkpt lat="40.8226167" lon="8.8087162"><ele>360.75</ele><time>2026-04-26T09:21:56.979Z</time></trkpt><trkpt lat="40.8225014" lon="8.8086696"><ele>360.5</ele><time>2026-04-26T09:21:57.978Z</time></trkpt><trkpt lat="40.8223832" lon="8.8086281"><ele>360.25</ele><time>2026-04-26T09:21:58.979Z</time></trkpt><trkpt lat="40.8222707" lon="8.8085931"><ele>360.0</ele><time>2026-04-26T09:21:59.979Z</time></trkpt><trkpt lat="40.822162" lon="8.8085601"><ele>360.0</ele><time>2026-04-26T09:22:00.979Z</time></trkpt><trkpt lat="40.8220516" lon="8.80853"><ele>360.0</ele><time>2026-04-26T09:22:01.978Z</time></trkpt><trkpt lat="40.8219499" lon="8.8085068"><ele>360.0</ele><time>2026-04-26T09:22:02.978Z</time></trkpt><trkpt lat="40.8218504" lon="8.8084886"><ele>360.0</ele><time>2026-04-26T09:22:03.978Z</time></trkpt><trkpt lat="40.821745" lon="8.80847"><ele>360.0</ele><time>2026-04-26T09:22:04.978Z</time></trkpt><trkpt lat="40.8216383" lon="8.8084459"><ele>362.1666666666667</ele><time>2026-04-26T09:22:05.979Z</time></trkpt><trkpt lat="40.8215355" lon="8.8084236"><ele>364.3333333333333</ele><time>2026-04-26T09:22:06.978Z</time></trkpt><trkpt lat="40.8214416" lon="8.808408"><ele>366.5</ele><time>2026-04-26T09:22:07.978Z</time></trkpt><trkpt lat="40.8213561" lon="8.8084014"><ele>368.66666666666663</ele><time>2026-04-26T09:22:08.978Z</time></trkpt><trkpt lat="40.8212778" lon="8.8083941"><ele>370.8333333333333</ele><time>2026-04-26T09:22:09.978Z</time></trkpt><trkpt lat="40.8212129" lon="8.8083765"><ele>373.0</ele><time>2026-04-26T09:22:10.978Z</time></trkpt><trkpt lat="40.8211509" lon="8.8083469"><ele>373.0</ele><time>2026-04-26T09:22:11.977Z</time></trkpt><trkpt lat="40.8210849" lon="8.8083045"><ele>373.0</ele><time>2026-04-26T09:22:12.978Z</time></trkpt><trkpt lat="40.8210164" lon="8.8082544"><ele>373.0</ele><time>2026-04-26T09:22:13.979Z</time></trkpt><trkpt lat="40.8209466" lon="8.8081967"><ele>373.0</ele><time>2026-04-26T09:22:14.979Z</time></trkpt><trkpt lat="40.8208802" lon="8.8081339"><ele>373.0</ele><time>2026-04-26T09:22:15.978Z</time></trkpt><trkpt lat="40.8208229" lon="8.8080744"><ele>373.0</ele><time>2026-04-26T09:22:16.979Z</time></trkpt><trkpt lat="40.8207664" lon="8.8080122"><ele>374.0</ele><time>2026-04-26T09:22:17.978Z</time></trkpt><trkpt lat="40.8207076" lon="8.8079474"><ele>375.0</ele><time>2026-04-26T09:22:18.979Z</time></trkpt><trkpt lat="40.8206472" lon="8.8078835"><ele>376.0</ele><time>2026-04-26T09:22:19.978Z</time></trkpt><trkpt lat="40.8205903" lon="8.8078201"><ele>377.0</ele><time>2026-04-26T09:22:20.98Z</time></trkpt><trkpt lat="40.8205338" lon="8.8077649"><ele>378.0</ele><time>2026-04-26T09:22:21.978Z</time></trkpt><trkpt lat="40.8204737" lon="8.8077307"><ele>379.0</ele><time>2026-04-26T09:22:22.977Z</time></trkpt><trkpt lat="40.8204115" lon="8.8077158"><ele>380.0</ele><time>2026-04-26T09:22:23.979Z</time></trkpt><trkpt lat="40.8203009" lon="8.80776"><ele>380.0</ele><time>2026-04-26T09:22:25.978Z</time></trkpt><trkpt lat="40.820234" lon="8.8078832"><ele>380.0</ele><time>2026-04-26T09:22:27.977Z</time></trkpt><trkpt lat="40.8201814" lon="8.8080069"><ele>380.0</ele><time>2026-04-26T09:22:29.978Z</time></trkpt><trkpt lat="40.820136" lon="8.8081299"><ele>380.0</ele><time>2026-04-26T09:22:31.978Z</time></trkpt><trkpt lat="40.8200738" lon="8.8082583"><ele>380.0</ele><time>2026-04-26T09:22:33.979Z</time></trkpt><trkpt lat="40.820037" lon="8.8083297"><ele>379.1666666666667</ele><time>2026-04-26T09:22:34.978Z</time></trkpt><trkpt lat="40.8199959" lon="8.8084118"><ele>378.33333333333337</ele><time>2026-04-26T09:22:35.978Z</time></trkpt><trkpt lat="40.8199545" lon="8.8084932"><ele>377.5</ele><time>2026-04-26T09:22:36.979Z</time></trkpt><trkpt lat="40.8199126" lon="8.8085682"><ele>376.6666666666667</ele><time>2026-04-26T09:22:37.978Z</time></trkpt><trkpt lat="40.8198717" lon="8.8086343"><ele>375.8333333333333</ele><time>2026-04-26T09:22:38.979Z</time></trkpt><trkpt lat="40.8198161" lon="8.8087325"><ele>375.0</ele><time>2026-04-26T09:22:40.978Z</time></trkpt><trkpt lat="40.8198023" lon="8.8088356"><ele>374.8</ele><time>2026-04-26T09:22:43.978Z</time></trkpt><trkpt lat="40.8198094" lon="8.8089617"><ele>374.6</ele><time>2026-04-26T09:22:46.978Z</time></trkpt><trkpt lat="40.8198408" lon="8.8091104"><ele>374.4</ele><time>2026-04-26T09:22:48.978Z</time></trkpt><trkpt lat="40.8198683" lon="8.8092016"><ele>374.2</ele><time>2026-04-26T09:22:49.978Z</time></trkpt><trkpt lat="40.8199086" lon="8.809301"><ele>374.0</ele><time>2026-04-26T09:22:50.978Z</time></trkpt><trkpt lat="40.8199545" lon="8.8094091"><ele>373.2</ele><time>2026-04-26T09:22:51.978Z</time></trkpt><trkpt lat="40.819999" lon="8.8095234"><ele>372.4</ele><time>2026-04-26T09:22:52.978Z</time></trkpt><trkpt lat="40.8200458" lon="8.809644"><ele>371.6</ele><time>2026-04-26T09:22:53.978Z</time></trkpt><trkpt lat="40.8200906" lon="8.8097669"><ele>370.8</ele><time>2026-04-26T09:22:54.979Z</time></trkpt><trkpt lat="40.8201317" lon="8.8098832"><ele>370.0</ele><time>2026-04-26T09:22:55.981Z</time></trkpt><trkpt lat="40.8201803" lon="8.8099966"><ele>370.0</ele><time>2026-04-26T09:22:56.979Z</time></trkpt><trkpt lat="40.8202409" lon="8.8101093"><ele>370.0</ele><time>2026-04-26T09:22:57.978Z</time></trkpt><trkpt lat="40.8203079" lon="8.8102234"><ele>370.0</ele><time>2026-04-26T09:22:58.978Z</time></trkpt><trkpt lat="40.8203748" lon="8.8103366"><ele>370.0</ele><time>2026-04-26T09:22:59.979Z</time></trkpt><trkpt lat="40.820435" lon="8.8104615"><ele>370.0</ele><time>2026-04-26T09:23:00.979Z</time></trkpt><trkpt lat="40.8204869" lon="8.8105922"><ele>368.75</ele><time>2026-04-26T09:23:01.979Z</time></trkpt><trkpt lat="40.8205374" lon="8.8107198"><ele>367.5</ele><time>2026-04-26T09:23:02.978Z</time></trkpt><trkpt lat="40.8205903" lon="8.8108478"><ele>366.25</ele><time>2026-04-26T09:23:03.98Z</time></trkpt><trkpt lat="40.8206484" lon="8.8109808"><ele>365.0</ele><time>2026-04-26T09:23:04.979Z</time></trkpt><trkpt lat="40.820717" lon="8.8111141"><ele>363.0</ele><time>2026-04-26T09:23:05.979Z</time></trkpt><trkpt lat="40.820797" lon="8.8112463"><ele>361.0</ele><time>2026-04-26T09:23:06.978Z</time></trkpt><trkpt lat="40.820883" lon="8.8113758"><ele>359.0</ele><time>2026-04-26T09:23:07.982Z</time></trkpt><trkpt lat="40.8209672" lon="8.8115066"><ele>357.0</ele><time>2026-04-26T09:23:08.98Z</time></trkpt><trkpt lat="40.821048" lon="8.8116402"><ele>357.0</ele><time>2026-04-26T09:23:09.979Z</time></trkpt><trkpt lat="40.8211237" lon="8.8117767"><ele>357.0</ele><time>2026-04-26T09:23:10.978Z</time></trkpt><trkpt lat="40.8211965" lon="8.8119102"><ele>357.0</ele><time>2026-04-26T09:23:11.979Z</time></trkpt><trkpt lat="40.8212673" lon="8.8120399"><ele>357.0</ele><time>2026-04-26T09:23:12.977Z</time></trkpt><trkpt lat="40.8213368" lon="8.8121636"><ele>356.6</ele><time>2026-04-26T09:23:13.979Z</time></trkpt><trkpt lat="40.8214121" lon="8.812276"><ele>356.20000000000005</ele><time>2026-04-26T09:23:14.979Z</time></trkpt><trkpt lat="40.8214938" lon="8.8123757"><ele>355.8</ele><time>2026-04-26T09:23:15.979Z</time></trkpt><trkpt lat="40.8215791" lon="8.8124649"><ele>355.4</ele><time>2026-04-26T09:23:16.978Z</time></trkpt><trkpt lat="40.8216647" lon="8.8125527"><ele>355.0</ele><time>2026-04-26T09:23:17.979Z</time></trkpt><trkpt lat="40.8217441" lon="8.8126454"><ele>354.4</ele><time>2026-04-26T09:23:18.978Z</time></trkpt><trkpt lat="40.8218124" lon="8.8127491"><ele>353.8</ele><time>2026-04-26T09:23:19.978Z</time></trkpt><trkpt lat="40.8218725" lon="8.8128622"><ele>353.20000000000005</ele><time>2026-04-26T09:23:20.978Z</time></trkpt><trkpt lat="40.8219314" lon="8.8129853"><ele>352.6</ele><time>2026-04-26T09:23:21.977Z</time></trkpt><trkpt lat="40.8219898" lon="8.8131186"><ele>352.0</ele><time>2026-04-26T09:23:22.978Z</time></trkpt><trkpt lat="40.8220476" lon="8.8132523"><ele>351.8</ele><time>2026-04-26T09:23:23.98Z</time></trkpt><trkpt lat="40.8221029" lon="8.8133835"><ele>351.6</ele><time>2026-04-26T09:23:24.979Z</time></trkpt><trkpt lat="40.8221526" lon="8.8135152"><ele>351.40000000000003</ele><time>2026-04-26T09:23:25.979Z</time></trkpt><trkpt lat="40.8221948" lon="8.8136515"><ele>351.20000000000005</ele><time>2026-04-26T09:23:26.979Z</time></trkpt><trkpt lat="40.822225" lon="8.8137926"><ele>351.0</ele><time>2026-04-26T09:23:27.979Z</time></trkpt><trkpt lat="40.8222468" lon="8.8139367"><ele>350.6</ele><time>2026-04-26T09:23:28.978Z</time></trkpt><trkpt lat="40.8222567" lon="8.8140814"><ele>350.20000000000005</ele><time>2026-04-26T09:23:29.979Z</time></trkpt><trkpt lat="40.8222509" lon="8.8142245"><ele>349.79999999999995</ele><time>2026-04-26T09:23:30.978Z</time></trkpt><trkpt lat="40.8222286" lon="8.8143612"><ele>349.4</ele><time>2026-04-26T09:23:31.979Z</time></trkpt><trkpt lat="40.8221966" lon="8.8144874"><ele>349.0</ele><time>2026-04-26T09:23:32.979Z</time></trkpt><trkpt lat="40.8221752" lon="8.8146105"><ele>349.0</ele><time>2026-04-26T09:23:33.978Z</time></trkpt><trkpt lat="40.8221742" lon="8.8147427"><ele>349.0</ele><time>2026-04-26T09:23:34.978Z</time></trkpt><trkpt lat="40.8221889" lon="8.8148836"><ele>349.0</ele><time>2026-04-26T09:23:35.978Z</time></trkpt><trkpt lat="40.8222066" lon="8.8150198"><ele>349.0</ele><time>2026-04-26T09:23:36.979Z</time></trkpt><trkpt lat="40.8222255" lon="8.8151465"><ele>349.0</ele><time>2026-04-26T09:23:37.979Z</time></trkpt><trkpt lat="40.8222453" lon="8.815265"><ele>348.6</ele><time>2026-04-26T09:23:38.98Z</time></trkpt><trkpt lat="40.8222672" lon="8.8153772"><ele>348.2</ele><time>2026-04-26T09:23:39.979Z</time></trkpt><trkpt lat="40.8222853" lon="8.8154956"><ele>347.8</ele><time>2026-04-26T09:23:40.979Z</time></trkpt><trkpt lat="40.8222926" lon="8.8156215"><ele>347.40000000000003</ele><time>2026-04-26T09:23:41.978Z</time></trkpt><trkpt lat="40.8222807" lon="8.8157524"><ele>347.0</ele><time>2026-04-26T09:23:42.979Z</time></trkpt><trkpt lat="40.8222485" lon="8.8158832"><ele>347.20000000000005</ele><time>2026-04-26T09:23:43.979Z</time></trkpt><trkpt lat="40.8222016" lon="8.8160121"><ele>347.4</ele><time>2026-04-26T09:23:44.978Z</time></trkpt><trkpt lat="40.8221448" lon="8.8161418"><ele>347.6</ele><time>2026-04-26T09:23:45.978Z</time></trkpt><trkpt lat="40.8220902" lon="8.816267"><ele>347.79999999999995</ele><time>2026-04-26T09:23:46.978Z</time></trkpt><trkpt lat="40.822047" lon="8.8163899"><ele>348.0</ele><time>2026-04-26T09:23:47.979Z</time></trkpt><trkpt lat="40.8220341" lon="8.8165181"><ele>348.0</ele><time>2026-04-26T09:23:48.979Z</time></trkpt><trkpt lat="40.8220593" lon="8.8166446"><ele>348.0</ele><time>2026-04-26T09:23:49.978Z</time></trkpt><trkpt lat="40.8221122" lon="8.8167684"><ele>348.0</ele><time>2026-04-26T09:23:50.978Z</time></trkpt><trkpt lat="40.8221745" lon="8.8169016"><ele>348.0</ele><time>2026-04-26T09:23:51.978Z</time></trkpt><trkpt lat="40.8222411" lon="8.8170405"><ele>348.0</ele><time>2026-04-26T09:23:52.978Z</time></trkpt><trkpt lat="40.8223091" lon="8.8171813"><ele>347.75</ele><time>2026-04-26T09:23:53.978Z</time></trkpt><trkpt lat="40.8223729" lon="8.8173271"><ele>347.5</ele><time>2026-04-26T09:23:54.978Z</time></trkpt><trkpt lat="40.8224337" lon="8.8174746"><ele>347.25</ele><time>2026-04-26T09:23:55.978Z</time></trkpt><trkpt lat="40.8224956" lon="8.8176213"><ele>347.0</ele><time>2026-04-26T09:23:56.979Z</time></trkpt><trkpt lat="40.8225566" lon="8.8177676"><ele>347.0</ele><time>2026-04-26T09:23:57.979Z</time></trkpt><trkpt lat="40.8226148" lon="8.8179072"><ele>347.0</ele><time>2026-04-26T09:23:58.979Z</time></trkpt><trkpt lat="40.8226772" lon="8.8180374"><ele>347.0</ele><time>2026-04-26T09:23:59.978Z</time></trkpt><trkpt lat="40.8227498" lon="8.8181589"><ele>347.0</ele><time>2026-04-26T09:24:00.979Z</time></trkpt><trkpt lat="40.8228293" lon="8.8182768"><ele>347.0</ele><time>2026-04-26T09:24:01.979Z</time></trkpt><trkpt lat="40.8229115" lon="8.8183901"><ele>347.0</ele><time>2026-04-26T09:24:02.98Z</time></trkpt><trkpt lat="40.8229893" lon="8.8185015"><ele>347.0</ele><time>2026-04-26T09:24:03.977Z</time></trkpt><trkpt lat="40.823058" lon="8.8186143"><ele>347.0</ele><time>2026-04-26T09:24:04.978Z</time></trkpt><trkpt lat="40.823112" lon="8.818736"><ele>346.75</ele><time>2026-04-26T09:24:05.981Z</time></trkpt><trkpt lat="40.8231572" lon="8.8188694"><ele>346.5</ele><time>2026-04-26T09:24:06.979Z</time></trkpt><trkpt lat="40.8231972" lon="8.8190128"><ele>346.25</ele><time>2026-04-26T09:24:07.979Z</time></trkpt><trkpt lat="40.823233" lon="8.8191623"><ele>346.0</ele><time>2026-04-26T09:24:08.979Z</time></trkpt><trkpt lat="40.8232495" lon="8.8193143"><ele>346.0</ele><time>2026-04-26T09:24:09.978Z</time></trkpt><trkpt lat="40.8232471" lon="8.8194672"><ele>346.0</ele><time>2026-04-26T09:24:10.978Z</time></trkpt><trkpt lat="40.8232286" lon="8.8196092"><ele>346.0</ele><time>2026-04-26T09:24:11.978Z</time></trkpt><trkpt lat="40.8231892" lon="8.8197434"><ele>346.0</ele><time>2026-04-26T09:24:12.979Z</time></trkpt><trkpt lat="40.8231359" lon="8.8198754"><ele>346.0</ele><time>2026-04-26T09:24:13.979Z</time></trkpt><trkpt lat="40.8230777" lon="8.8200132"><ele>345.75</ele><time>2026-04-26T09:24:14.979Z</time></trkpt><trkpt lat="40.8230106" lon="8.8201575"><ele>345.5</ele><time>2026-04-26T09:24:15.979Z</time></trkpt><trkpt lat="40.8229404" lon="8.8203028"><ele>345.25</ele><time>2026-04-26T09:24:16.979Z</time></trkpt><trkpt lat="40.822872" lon="8.8204464"><ele>345.0</ele><time>2026-04-26T09:24:17.979Z</time></trkpt><trkpt lat="40.8228053" lon="8.820585"><ele>345.0</ele><time>2026-04-26T09:24:18.979Z</time></trkpt><trkpt lat="40.822735" lon="8.8207173"><ele>345.0</ele><time>2026-04-26T09:24:19.978Z</time></trkpt><trkpt lat="40.8226624" lon="8.8208404"><ele>345.0</ele><time>2026-04-26T09:24:20.978Z</time></trkpt><trkpt lat="40.8225787" lon="8.82096"><ele>345.0</ele><time>2026-04-26T09:24:21.98Z</time></trkpt><trkpt lat="40.8224879" lon="8.8210755"><ele>343.75</ele><time>2026-04-26T09:24:22.979Z</time></trkpt><trkpt lat="40.8223919" lon="8.821191"><ele>342.5</ele><time>2026-04-26T09:24:23.978Z</time></trkpt><trkpt lat="40.8222894" lon="8.8212998"><ele>341.25</ele><time>2026-04-26T09:24:24.978Z</time></trkpt><trkpt lat="40.8221838" lon="8.8213884"><ele>340.0</ele><time>2026-04-26T09:24:25.978Z</time></trkpt><trkpt lat="40.822072" lon="8.821455"><ele>340.0</ele><time>2026-04-26T09:24:26.979Z</time></trkpt><trkpt lat="40.8219657" lon="8.8215244"><ele>340.0</ele><time>2026-04-26T09:24:27.978Z</time></trkpt><trkpt lat="40.8218735" lon="8.8216218"><ele>340.0</ele><time>2026-04-26T09:24:28.979Z</time></trkpt><trkpt lat="40.8217948" lon="8.8217503"><ele>340.0</ele><time>2026-04-26T09:24:29.98Z</time></trkpt><trkpt lat="40.8217182" lon="8.8218961"><ele>339.75</ele><time>2026-04-26T09:24:30.977Z</time></trkpt><trkpt lat="40.8216434" lon="8.8220546"><ele>339.5</ele><time>2026-04-26T09:24:31.978Z</time></trkpt><trkpt lat="40.8215703" lon="8.8222176"><ele>339.25</ele><time>2026-04-26T09:24:32.978Z</time></trkpt><trkpt lat="40.8215006" lon="8.8223879"><ele>339.0</ele><time>2026-04-26T09:24:33.978Z</time></trkpt><trkpt lat="40.8214308" lon="8.8225557"><ele>339.75</ele><time>2026-04-26T09:24:34.978Z</time></trkpt><trkpt lat="40.8213616" lon="8.8227215"><ele>340.5</ele><time>2026-04-26T09:24:35.978Z</time></trkpt><trkpt lat="40.8212857" lon="8.8228825"><ele>341.25</ele><time>2026-04-26T09:24:36.979Z</time></trkpt><trkpt lat="40.821213" lon="8.823046"><ele>342.0</ele><time>2026-04-26T09:24:37.979Z</time></trkpt><trkpt lat="40.8211459" lon="8.8232155"><ele>342.0</ele><time>2026-04-26T09:24:38.98Z</time></trkpt><trkpt lat="40.8210789" lon="8.823381"><ele>342.0</ele><time>2026-04-26T09:24:39.979Z</time></trkpt><trkpt lat="40.8210194" lon="8.8235374"><ele>342.0</ele><time>2026-04-26T09:24:40.979Z</time></trkpt><trkpt lat="40.8209593" lon="8.8236921"><ele>342.0</ele><time>2026-04-26T09:24:41.978Z</time></trkpt><trkpt lat="40.820902" lon="8.8238426"><ele>339.75</ele><time>2026-04-26T09:24:42.98Z</time></trkpt><trkpt lat="40.8208526" lon="8.823993"><ele>337.5</ele><time>2026-04-26T09:24:43.978Z</time></trkpt><trkpt lat="40.8208075" lon="8.8241382"><ele>335.25</ele><time>2026-04-26T09:24:44.978Z</time></trkpt><trkpt lat="40.8207678" lon="8.8242751"><ele>333.0</ele><time>2026-04-26T09:24:45.978Z</time></trkpt><trkpt lat="40.8207234" lon="8.8244057"><ele>333.0</ele><time>2026-04-26T09:24:46.979Z</time></trkpt><trkpt lat="40.8206788" lon="8.8245117"><ele>333.0</ele><time>2026-04-26T09:24:47.979Z</time></trkpt><trkpt lat="40.8206267" lon="8.8245856"><ele>333.0</ele><time>2026-04-26T09:24:48.979Z</time></trkpt><trkpt lat="40.820573" lon="8.8246428"><ele>333.0</ele><time>2026-04-26T09:24:49.978Z</time></trkpt><trkpt lat="40.8205093" lon="8.8246764"><ele>333.0</ele><time>2026-04-26T09:24:50.979Z</time></trkpt><trkpt lat="40.8204279" lon="8.8246834"><ele>333.0</ele><time>2026-04-26T09:24:51.978Z</time></trkpt><trkpt lat="40.8203392" lon="8.8246763"><ele>333.0</ele><time>2026-04-26T09:24:52.979Z</time></trkpt><trkpt lat="40.8202514" lon="8.8246763"><ele>333.0</ele><time>2026-04-26T09:24:53.978Z</time></trkpt><trkpt lat="40.8201706" lon="8.8246821"><ele>333.0</ele><time>2026-04-26T09:24:54.979Z</time></trkpt><trkpt lat="40.8200936" lon="8.8246865"><ele>333.0</ele><time>2026-04-26T09:24:55.978Z</time></trkpt><trkpt lat="40.8200188" lon="8.8246961"><ele>333.0</ele><time>2026-04-26T09:24:56.978Z</time></trkpt><trkpt lat="40.8199479" lon="8.8247157"><ele>333.0</ele><time>2026-04-26T09:24:57.978Z</time></trkpt><trkpt lat="40.8198848" lon="8.8247439"><ele>331.14285714285717</ele><time>2026-04-26T09:24:58.979Z</time></trkpt><trkpt lat="40.8198358" lon="8.8248029"><ele>329.2857142857143</ele><time>2026-04-26T09:24:59.978Z</time></trkpt><trkpt lat="40.8198017" lon="8.8248866"><ele>327.42857142857144</ele><time>2026-04-26T09:25:00.979Z</time></trkpt><trkpt lat="40.8197714" lon="8.8249736"><ele>325.57142857142856</ele><time>2026-04-26T09:25:01.979Z</time></trkpt><trkpt lat="40.8197328" lon="8.8250626"><ele>323.7142857142857</ele><time>2026-04-26T09:25:02.979Z</time></trkpt><trkpt lat="40.8196857" lon="8.8251453"><ele>321.85714285714283</ele><time>2026-04-26T09:25:03.979Z</time></trkpt><trkpt lat="40.819635" lon="8.8252256"><ele>320.0</ele><time>2026-04-26T09:25:04.979Z</time></trkpt><trkpt lat="40.8195815" lon="8.8253093"><ele>320.0</ele><time>2026-04-26T09:25:05.979Z</time></trkpt><trkpt lat="40.819519" lon="8.8253977"><ele>320.0</ele><time>2026-04-26T09:25:06.978Z</time></trkpt><trkpt lat="40.8194528" lon="8.8254892"><ele>320.0</ele><time>2026-04-26T09:25:07.979Z</time></trkpt><trkpt lat="40.8193832" lon="8.8255841"><ele>320.0</ele><time>2026-04-26T09:25:08.978Z</time></trkpt><trkpt lat="40.8193083" lon="8.8256762"><ele>320.0</ele><time>2026-04-26T09:25:09.979Z</time></trkpt><trkpt lat="40.8192299" lon="8.8257644"><ele>316.2</ele><time>2026-04-26T09:25:10.977Z</time></trkpt><trkpt lat="40.8191446" lon="8.8258493"><ele>312.4</ele><time>2026-04-26T09:25:11.979Z</time></trkpt><trkpt lat="40.8190586" lon="8.8259317"><ele>308.6</ele><time>2026-04-26T09:25:12.978Z</time></trkpt><trkpt lat="40.8189735" lon="8.8260149"><ele>304.8</ele><time>2026-04-26T09:25:13.978Z</time></trkpt><trkpt lat="40.8188885" lon="8.8261007"><ele>301.0</ele><time>2026-04-26T09:25:14.979Z</time></trkpt><trkpt lat="40.818803" lon="8.8261867"><ele>299.40000000000003</ele><time>2026-04-26T09:25:15.978Z</time></trkpt><trkpt lat="40.8187163" lon="8.826272"><ele>297.8</ele><time>2026-04-26T09:25:16.978Z</time></trkpt><trkpt lat="40.818626" lon="8.8263463"><ele>296.20000000000005</ele><time>2026-04-26T09:25:17.979Z</time></trkpt><trkpt lat="40.8185319" lon="8.826414"><ele>294.6</ele><time>2026-04-26T09:25:18.978Z</time></trkpt><trkpt lat="40.8184418" lon="8.8264802"><ele>293.0</ele><time>2026-04-26T09:25:19.979Z</time></trkpt><trkpt lat="40.8183618" lon="8.8265462"><ele>293.0</ele><time>2026-04-26T09:25:20.978Z</time></trkpt><trkpt lat="40.8182833" lon="8.8266255"><ele>293.0</ele><time>2026-04-26T09:25:21.979Z</time></trkpt><trkpt lat="40.8182174" lon="8.826719"><ele>293.0</ele><time>2026-04-26T09:25:22.979Z</time></trkpt><trkpt lat="40.8181571" lon="8.8268203"><ele>293.0</ele><time>2026-04-26T09:25:23.981Z</time></trkpt><trkpt lat="40.8180978" lon="8.8269248"><ele>293.0</ele><time>2026-04-26T09:25:24.979Z</time></trkpt><trkpt lat="40.8180387" lon="8.8270261"><ele>287.0</ele><time>2026-04-26T09:25:25.978Z</time></trkpt><trkpt lat="40.817978" lon="8.8271292"><ele>281.0</ele><time>2026-04-26T09:25:26.978Z</time></trkpt><trkpt lat="40.8179173" lon="8.8272343"><ele>275.0</ele><time>2026-04-26T09:25:27.979Z</time></trkpt><trkpt lat="40.8178535" lon="8.8273343"><ele>269.0</ele><time>2026-04-26T09:25:28.979Z</time></trkpt><trkpt lat="40.8177806" lon="8.8274355"><ele>263.0</ele><time>2026-04-26T09:25:29.979Z</time></trkpt><trkpt lat="40.8177076" lon="8.8275296"><ele>262.2</ele><time>2026-04-26T09:25:30.979Z</time></trkpt><trkpt lat="40.8176262" lon="8.8276179"><ele>261.4</ele><time>2026-04-26T09:25:31.979Z</time></trkpt><trkpt lat="40.8175499" lon="8.8277097"><ele>260.59999999999997</ele><time>2026-04-26T09:25:32.979Z</time></trkpt><trkpt lat="40.8174723" lon="8.827807"><ele>259.8</ele><time>2026-04-26T09:25:33.978Z</time></trkpt><trkpt lat="40.8174087" lon="8.8279167"><ele>259.0</ele><time>2026-04-26T09:25:34.979Z</time></trkpt><trkpt lat="40.8173523" lon="8.8280361"><ele>259.0</ele><time>2026-04-26T09:25:35.979Z</time></trkpt><trkpt lat="40.8172988" lon="8.8281558"><ele>259.0</ele><time>2026-04-26T09:25:36.978Z</time></trkpt><trkpt lat="40.817241" lon="8.8282654"><ele>259.0</ele><time>2026-04-26T09:25:37.978Z</time></trkpt><trkpt lat="40.8171702" lon="8.828357"><ele>259.0</ele><time>2026-04-26T09:25:38.98Z</time></trkpt><trkpt lat="40.8170901" lon="8.8284358"><ele>259.0</ele><time>2026-04-26T09:25:39.977Z</time></trkpt><trkpt lat="40.8170043" lon="8.828504"><ele>254.5</ele><time>2026-04-26T09:25:40.978Z</time></trkpt><trkpt lat="40.8169077" lon="8.8285673"><ele>250.0</ele><time>2026-04-26T09:25:41.978Z</time></trkpt><trkpt lat="40.8168053" lon="8.8286285"><ele>245.5</ele><time>2026-04-26T09:25:42.979Z</time></trkpt><trkpt lat="40.8166964" lon="8.8286814"><ele>241.0</ele><time>2026-04-26T09:25:43.978Z</time></trkpt><trkpt lat="40.8165869" lon="8.8287295"><ele>241.0</ele><time>2026-04-26T09:25:44.979Z</time></trkpt><trkpt lat="40.8164769" lon="8.8287711"><ele>241.0</ele><time>2026-04-26T09:25:45.978Z</time></trkpt><trkpt lat="40.8163672" lon="8.8288089"><ele>241.0</ele><time>2026-04-26T09:25:46.979Z</time></trkpt><trkpt lat="40.8162568" lon="8.8288397"><ele>241.0</ele><time>2026-04-26T09:25:47.978Z</time></trkpt><trkpt lat="40.8161475" lon="8.8288657"><ele>241.0</ele><time>2026-04-26T09:25:48.978Z</time></trkpt><trkpt lat="40.8160405" lon="8.8288842"><ele>241.00000000000003</ele><time>2026-04-26T09:25:49.978Z</time></trkpt><trkpt lat="40.8159343" lon="8.8288963"><ele>241.00000000000003</ele><time>2026-04-26T09:25:50.979Z</time></trkpt><trkpt lat="40.8158347" lon="8.828903"><ele>241.0</ele><time>2026-04-26T09:25:51.978Z</time></trkpt><trkpt lat="40.8157443" lon="8.8289061"><ele>241.0</ele><time>2026-04-26T09:25:52.979Z</time></trkpt><trkpt lat="40.815662" lon="8.8289019"><ele>241.33333333333331</ele><time>2026-04-26T09:25:53.978Z</time></trkpt><trkpt lat="40.8155862" lon="8.828892"><ele>241.66666666666666</ele><time>2026-04-26T09:25:54.979Z</time></trkpt><trkpt lat="40.8155184" lon="8.8288758"><ele>242.0</ele><time>2026-04-26T09:25:55.978Z</time></trkpt><trkpt lat="40.8154124" lon="8.8289082"><ele>242.33333333333331</ele><time>2026-04-26T09:25:57.979Z</time></trkpt><trkpt lat="40.8153813" lon="8.8290058"><ele>242.66666666666666</ele><time>2026-04-26T09:25:59.978Z</time></trkpt><trkpt lat="40.8154404" lon="8.8290712"><ele>243.0</ele><time>2026-04-26T09:26:00.978Z</time></trkpt><trkpt lat="40.8155137" lon="8.8291233"><ele>243.0</ele><time>2026-04-26T09:26:01.978Z</time></trkpt><trkpt lat="40.8155931" lon="8.8291608"><ele>243.0</ele><time>2026-04-26T09:26:02.98Z</time></trkpt><trkpt lat="40.8156849" lon="8.8291857"><ele>243.0</ele><time>2026-04-26T09:26:03.979Z</time></trkpt><trkpt lat="40.8157882" lon="8.8292077"><ele>243.0</ele><time>2026-04-26T09:26:04.978Z</time></trkpt><trkpt lat="40.8158961" lon="8.8292313"><ele>243.0</ele><time>2026-04-26T09:26:05.978Z</time></trkpt><trkpt lat="40.816003" lon="8.8292521"><ele>242.60000000000002</ele><time>2026-04-26T09:26:06.979Z</time></trkpt><trkpt lat="40.8161069" lon="8.8292802"><ele>242.20000000000002</ele><time>2026-04-26T09:26:07.979Z</time></trkpt><trkpt lat="40.8162063" lon="8.8293102"><ele>241.8</ele><time>2026-04-26T09:26:08.979Z</time></trkpt><trkpt lat="40.8162999" lon="8.829338"><ele>241.4</ele><time>2026-04-26T09:26:09.979Z</time></trkpt><trkpt lat="40.8163933" lon="8.8293669"><ele>241.0</ele><time>2026-04-26T09:26:10.978Z</time></trkpt><trkpt lat="40.8164919" lon="8.8293931"><ele>236.60000000000002</ele><time>2026-04-26T09:26:11.98Z</time></trkpt><trkpt lat="40.816592" lon="8.8294095"><ele>232.20000000000002</ele><time>2026-04-26T09:26:12.978Z</time></trkpt><trkpt lat="40.8166905" lon="8.8294316"><ele>227.79999999999998</ele><time>2026-04-26T09:26:13.98Z</time></trkpt><trkpt lat="40.8167909" lon="8.8294508"><ele>223.39999999999998</ele><time>2026-04-26T09:26:14.98Z</time></trkpt><trkpt lat="40.8168895" lon="8.8294644"><ele>219.0</ele><time>2026-04-26T09:26:15.978Z</time></trkpt><trkpt lat="40.8169849" lon="8.8294677"><ele>216.66666666666666</ele><time>2026-04-26T09:26:16.978Z</time></trkpt><trkpt lat="40.8170725" lon="8.8294516"><ele>214.33333333333331</ele><time>2026-04-26T09:26:17.979Z</time></trkpt><trkpt lat="40.8171568" lon="8.829422"><ele>212.0</ele><time>2026-04-26T09:26:18.979Z</time></trkpt><trkpt lat="40.8172297" lon="8.8293875"><ele>209.66666666666666</ele><time>2026-04-26T09:26:19.979Z</time></trkpt><trkpt lat="40.817298" lon="8.8293655"><ele>207.33333333333331</ele><time>2026-04-26T09:26:20.979Z</time></trkpt><trkpt lat="40.8173727" lon="8.8294157"><ele>205.0</ele><time>2026-04-26T09:26:22.978Z</time></trkpt><trkpt lat="40.8173027" lon="8.8295358"><ele>205.0</ele><time>2026-04-26T09:26:24.978Z</time></trkpt><trkpt lat="40.8172317" lon="8.8296033"><ele>205.0</ele><time>2026-04-26T09:26:25.978Z</time></trkpt><trkpt lat="40.817142" lon="8.8296786"><ele>205.0</ele><time>2026-04-26T09:26:26.979Z</time></trkpt><trkpt lat="40.8170472" lon="8.8297587"><ele>205.0</ele><time>2026-04-26T09:26:27.978Z</time></trkpt><trkpt lat="40.8169524" lon="8.8298411"><ele>205.0</ele><time>2026-04-26T09:26:28.978Z</time></trkpt><trkpt lat="40.8168623" lon="8.829928"><ele>204.0</ele><time>2026-04-26T09:26:29.979Z</time></trkpt><trkpt lat="40.8167794" lon="8.8300215"><ele>203.0</ele><time>2026-04-26T09:26:30.979Z</time></trkpt><trkpt lat="40.8166955" lon="8.8301177"><ele>202.0</ele><time>2026-04-26T09:26:31.978Z</time></trkpt><trkpt lat="40.816611" lon="8.830211"><ele>201.0</ele><time>2026-04-26T09:26:32.979Z</time></trkpt><trkpt lat="40.8165315" lon="8.830305"><ele>200.0</ele><time>2026-04-26T09:26:33.977Z</time></trkpt><trkpt lat="40.8164599" lon="8.8304049"><ele>200.0</ele><time>2026-04-26T09:26:34.979Z</time></trkpt><trkpt lat="40.8163963" lon="8.8305118"><ele>200.0</ele><time>2026-04-26T09:26:35.979Z</time></trkpt><trkpt lat="40.8163471" lon="8.8306334"><ele>200.0</ele><time>2026-04-26T09:26:36.978Z</time></trkpt><trkpt lat="40.8163254" lon="8.8307603"><ele>200.0</ele><time>2026-04-26T09:26:37.977Z</time></trkpt><trkpt lat="40.8163266" lon="8.8308901"><ele>200.0</ele><time>2026-04-26T09:26:38.979Z</time></trkpt><trkpt lat="40.816333" lon="8.8310179"><ele>199.00000000000003</ele><time>2026-04-26T09:26:39.977Z</time></trkpt><trkpt lat="40.8163358" lon="8.8311436"><ele>198.0</ele><time>2026-04-26T09:26:40.978Z</time></trkpt><trkpt lat="40.8163334" lon="8.831268"><ele>197.0</ele><time>2026-04-26T09:26:41.977Z</time></trkpt><trkpt lat="40.8163218" lon="8.8313839"><ele>196.0</ele><time>2026-04-26T09:26:42.978Z</time></trkpt><trkpt lat="40.8163003" lon="8.8314885"><ele>195.00000000000003</ele><time>2026-04-26T09:26:43.979Z</time></trkpt><trkpt lat="40.8162762" lon="8.8315861"><ele>194.0</ele><time>2026-04-26T09:26:44.979Z</time></trkpt><trkpt lat="40.8162481" lon="8.831677"><ele>194.00000000000003</ele><time>2026-04-26T09:26:45.979Z</time></trkpt><trkpt lat="40.8162224" lon="8.8317533"><ele>194.0</ele><time>2026-04-26T09:26:46.977Z</time></trkpt><trkpt lat="40.8161853" lon="8.8318489"><ele>194.0</ele><time>2026-04-26T09:26:48.977Z</time></trkpt><trkpt lat="40.8161533" lon="8.831946"><ele>194.0</ele><time>2026-04-26T09:26:50.978Z</time></trkpt><trkpt lat="40.8161255" lon="8.8320643"><ele>194.00000000000003</ele><time>2026-04-26T09:26:52.977Z</time></trkpt><trkpt lat="40.8160613" lon="8.83215"><ele>194.0</ele><time>2026-04-26T09:26:54.979Z</time></trkpt><trkpt lat="40.8159793" lon="8.8321925"><ele>193.50000000000003</ele><time>2026-04-26T09:26:56.978Z</time></trkpt><trkpt lat="40.8159098" lon="8.8322016"><ele>193.0</ele><time>2026-04-26T09:26:58.977Z</time></trkpt><trkpt lat="40.8158378" lon="8.8322293"><ele>192.5</ele><time>2026-04-26T09:27:15.979Z</time></trkpt><trkpt lat="40.8157732" lon="8.8322198"><ele>192.0</ele><time>2026-04-26T09:27:18.981Z</time></trkpt><trkpt lat="40.8156983" lon="8.8322124"><ele>191.5</ele><time>2026-04-26T09:27:29.979Z</time></trkpt><trkpt lat="40.8156069" lon="8.832223"><ele>191.0</ele><time>2026-04-26T09:27:31.978Z</time></trkpt><trkpt lat="40.8154907" lon="8.8322384"><ele>191.0</ele><time>2026-04-26T09:27:33.978Z</time></trkpt><trkpt lat="40.8153657" lon="8.8322448"><ele>191.0</ele><time>2026-04-26T09:27:35.978Z</time></trkpt><trkpt lat="40.8153025" lon="8.8322404"><ele>191.0</ele><time>2026-04-26T09:27:36.978Z</time></trkpt><trkpt lat="40.8151901" lon="8.8322373"><ele>191.0</ele><time>2026-04-26T09:27:38.979Z</time></trkpt><trkpt lat="40.8151258" lon="8.8322127"><ele>191.0</ele><time>2026-04-26T09:27:40.978Z</time></trkpt><trkpt lat="40.815068" lon="8.832171"><ele>191.0</ele><time>2026-04-26T09:27:45.979Z</time></trkpt><trkpt lat="40.8151103" lon="8.8322341"><ele>191.0</ele><time>2026-04-26T09:27:55.98Z</time></trkpt><trkpt lat="40.8151875" lon="8.832368"><ele>191.0</ele><time>2026-04-26T09:27:57.978Z</time></trkpt><trkpt lat="40.815218" lon="8.8324537"><ele>191.0</ele><time>2026-04-26T09:27:58.978Z</time></trkpt><trkpt lat="40.8152418" lon="8.8325312"><ele>191.0</ele><time>2026-04-26T09:27:59.979Z</time></trkpt><trkpt lat="40.8152697" lon="8.8326642"><ele>191.0</ele><time>2026-04-26T09:28:01.978Z</time></trkpt><trkpt lat="40.8153163" lon="8.8327674"><ele>189.0</ele><time>2026-04-26T09:28:04.977Z</time></trkpt><trkpt lat="40.815426" lon="8.8328385"><ele>187.0</ele><time>2026-04-26T09:28:06.978Z</time></trkpt><trkpt lat="40.8155145" lon="8.8328899"><ele>185.0</ele><time>2026-04-26T09:28:07.978Z</time></trkpt><trkpt lat="40.8156207" lon="8.8329457"><ele>183.0</ele><time>2026-04-26T09:28:08.978Z</time></trkpt><trkpt lat="40.8157192" lon="8.833001"><ele>181.0</ele><time>2026-04-26T09:28:09.98Z</time></trkpt><trkpt lat="40.8158096" lon="8.8330587"><ele>181.0</ele><time>2026-04-26T09:28:10.978Z</time></trkpt><trkpt lat="40.8158949" lon="8.8331123"><ele>181.0</ele><time>2026-04-26T09:28:11.978Z</time></trkpt><trkpt lat="40.8159705" lon="8.833161"><ele>181.0</ele><time>2026-04-26T09:28:12.978Z</time></trkpt><trkpt lat="40.8160366" lon="8.8331973"><ele>181.0</ele><time>2026-04-26T09:28:13.978Z</time></trkpt><trkpt lat="40.8161301" lon="8.8332491"><ele>181.0</ele><time>2026-04-26T09:28:15.979Z</time></trkpt><trkpt lat="40.8161919" lon="8.833295"><ele>181.0</ele><time>2026-04-26T09:28:17.977Z</time></trkpt><trkpt lat="40.8162671" lon="8.8333438"><ele>181.4</ele><time>2026-04-26T09:28:19.98Z</time></trkpt><trkpt lat="40.8163516" lon="8.8333838"><ele>181.8</ele><time>2026-04-26T09:28:21.977Z</time></trkpt><trkpt lat="40.8164329" lon="8.8334198"><ele>182.20000000000002</ele><time>2026-04-26T09:28:23.979Z</time></trkpt><trkpt lat="40.8165153" lon="8.8334314"><ele>182.60000000000002</ele><time>2026-04-26T09:28:25.977Z</time></trkpt><trkpt lat="40.81661" lon="8.833383"><ele>183.0</ele><time>2026-04-26T09:28:27.979Z</time></trkpt><trkpt lat="40.8167139" lon="8.8333105"><ele>183.0</ele><time>2026-04-26T09:28:29.978Z</time></trkpt><trkpt lat="40.81677" lon="8.8332726"><ele>183.0</ele><time>2026-04-26T09:28:30.978Z</time></trkpt><trkpt lat="40.8168295" lon="8.8332324"><ele>183.0</ele><time>2026-04-26T09:28:31.978Z</time></trkpt><trkpt lat="40.8169258" lon="8.8331559"><ele>183.0</ele><time>2026-04-26T09:28:33.979Z</time></trkpt><trkpt lat="40.817007" lon="8.833074"><ele>183.0</ele><time>2026-04-26T09:28:35.979Z</time></trkpt><trkpt lat="40.8170745" lon="8.8329598"><ele>182.8</ele><time>2026-04-26T09:28:37.978Z</time></trkpt><trkpt lat="40.8171191" lon="8.8328096"><ele>182.60000000000002</ele><time>2026-04-26T09:28:39.978Z</time></trkpt><trkpt lat="40.8171777" lon="8.832667"><ele>182.39999999999998</ele><time>2026-04-26T09:28:41.979Z</time></trkpt><trkpt lat="40.8172505" lon="8.8325847"><ele>182.2</ele><time>2026-04-26T09:28:43.979Z</time></trkpt><trkpt lat="40.8173236" lon="8.8326085"><ele>182.0</ele><time>2026-04-26T09:28:45.978Z</time></trkpt><trkpt lat="40.8173828" lon="8.8326381"><ele>182.0</ele><time>2026-04-26T09:28:47.978Z</time></trkpt><trkpt lat="40.8174342" lon="8.8327004"><ele>177.0</ele><time>2026-04-26T09:28:50.979Z</time></trkpt><trkpt lat="40.817462" lon="8.8327826"><ele>177.0</ele><time>2026-04-26T09:28:54.977Z</time></trkpt></trkseg><trkseg><trkpt lat="40.8175714" lon="8.8328719"><ele>177.0</ele><time>2026-04-26T09:42:27.977Z</time></trkpt><trkpt lat="40.8175942" lon="8.8329504"><ele>177.0</ele><time>2026-04-26T09:42:28.979Z</time></trkpt><trkpt lat="40.8176251" lon="8.8330343"><ele>177.0</ele><time>2026-04-26T09:42:29.981Z</time></trkpt><trkpt lat="40.8176545" lon="8.8331246"><ele>177.0</ele><time>2026-04-26T09:42:30.978Z</time></trkpt><trkpt lat="40.8176845" lon="8.8332219"><ele>177.0</ele><time>2026-04-26T09:42:31.979Z</time></trkpt><trkpt lat="40.8177109" lon="8.833325"><ele>177.0</ele><time>2026-04-26T09:42:32.979Z</time></trkpt><trkpt lat="40.8177295" lon="8.8334298"><ele>179.66666666666666</ele><time>2026-04-26T09:42:33.979Z</time></trkpt><trkpt lat="40.8177411" lon="8.8335381"><ele>182.33333333333331</ele><time>2026-04-26T09:42:34.98Z</time></trkpt><trkpt lat="40.8177418" lon="8.8336488"><ele>185.0</ele><time>2026-04-26T09:42:35.979Z</time></trkpt><trkpt lat="40.8177382" lon="8.8337598"><ele>187.66666666666666</ele><time>2026-04-26T09:42:36.978Z</time></trkpt><trkpt lat="40.8177299" lon="8.8338725"><ele>190.33333333333331</ele><time>2026-04-26T09:42:37.979Z</time></trkpt><trkpt lat="40.8177174" lon="8.8339852"><ele>193.0</ele><time>2026-04-26T09:42:38.979Z</time></trkpt><trkpt lat="40.8177049" lon="8.8340996"><ele>193.0</ele><time>2026-04-26T09:42:39.978Z</time></trkpt><trkpt lat="40.8176899" lon="8.8342184"><ele>193.0</ele><time>2026-04-26T09:42:40.978Z</time></trkpt><trkpt lat="40.8176698" lon="8.8343392"><ele>193.0</ele><time>2026-04-26T09:42:41.979Z</time></trkpt><trkpt lat="40.8176445" lon="8.834461"><ele>193.0</ele><time>2026-04-26T09:42:42.978Z</time></trkpt><trkpt lat="40.8176106" lon="8.8345809"><ele>193.0</ele><time>2026-04-26T09:42:43.979Z</time></trkpt><trkpt lat="40.8175614" lon="8.8346983"><ele>191.4</ele><time>2026-04-26T09:42:44.979Z</time></trkpt><trkpt lat="40.8174991" lon="8.8348103"><ele>189.8</ele><time>2026-04-26T09:42:45.978Z</time></trkpt><trkpt lat="40.8174239" lon="8.8349146"><ele>188.2</ele><time>2026-04-26T09:42:46.979Z</time></trkpt><trkpt lat="40.8173395" lon="8.8350163"><ele>186.6</ele><time>2026-04-26T09:42:47.978Z</time></trkpt><trkpt lat="40.8172536" lon="8.8351133"><ele>185.0</ele><time>2026-04-26T09:42:48.979Z</time></trkpt><trkpt lat="40.8171642" lon="8.835211"><ele>185.0</ele><time>2026-04-26T09:42:49.978Z</time></trkpt><trkpt lat="40.8170735" lon="8.8353113"><ele>185.0</ele><time>2026-04-26T09:42:50.978Z</time></trkpt><trkpt lat="40.816982" lon="8.8354114"><ele>185.0</ele><time>2026-04-26T09:42:51.978Z</time></trkpt><trkpt lat="40.8168908" lon="8.8355101"><ele>185.0</ele><time>2026-04-26T09:42:52.978Z</time></trkpt><trkpt lat="40.8167987" lon="8.8356093"><ele>182.5</ele><time>2026-04-26T09:42:53.979Z</time></trkpt><trkpt lat="40.8167097" lon="8.835713"><ele>180.0</ele><time>2026-04-26T09:42:54.979Z</time></trkpt><trkpt lat="40.8166204" lon="8.8358171"><ele>177.5</ele><time>2026-04-26T09:42:55.978Z</time></trkpt><trkpt lat="40.8165277" lon="8.8359162"><ele>175.0</ele><time>2026-04-26T09:42:56.979Z</time></trkpt><trkpt lat="40.8164348" lon="8.8360089"><ele>175.0</ele><time>2026-04-26T09:42:57.978Z</time></trkpt><trkpt lat="40.8163444" lon="8.8360902"><ele>175.0</ele><time>2026-04-26T09:42:58.978Z</time></trkpt><trkpt lat="40.8162532" lon="8.8361576"><ele>175.0</ele><time>2026-04-26T09:42:59.977Z</time></trkpt><trkpt lat="40.8161623" lon="8.8362048"><ele>175.0</ele><time>2026-04-26T09:43:00.977Z</time></trkpt><trkpt lat="40.816071" lon="8.8362424"><ele>175.0</ele><time>2026-04-26T09:43:01.978Z</time></trkpt><trkpt lat="40.8159813" lon="8.8362893"><ele>172.4</ele><time>2026-04-26T09:43:02.979Z</time></trkpt><trkpt lat="40.8158932" lon="8.836354"><ele>169.8</ele><time>2026-04-26T09:43:03.979Z</time></trkpt><trkpt lat="40.8158158" lon="8.8364363"><ele>167.2</ele><time>2026-04-26T09:43:04.978Z</time></trkpt><trkpt lat="40.8157632" lon="8.8365421"><ele>164.6</ele><time>2026-04-26T09:43:05.978Z</time></trkpt><trkpt lat="40.8157359" lon="8.8366506"><ele>162.0</ele><time>2026-04-26T09:43:06.978Z</time></trkpt><trkpt lat="40.8157375" lon="8.8367571"><ele>161.4</ele><time>2026-04-26T09:43:07.979Z</time></trkpt><trkpt lat="40.8157677" lon="8.8368648"><ele>160.79999999999998</ele><time>2026-04-26T09:43:08.978Z</time></trkpt><trkpt lat="40.8158201" lon="8.836962"><ele>160.2</ele><time>2026-04-26T09:43:09.979Z</time></trkpt><trkpt lat="40.8158864" lon="8.8370529"><ele>159.6</ele><time>2026-04-26T09:43:10.981Z</time></trkpt><trkpt lat="40.8159452" lon="8.8371535"><ele>159.0</ele><time>2026-04-26T09:43:11.979Z</time></trkpt><trkpt lat="40.8159888" lon="8.8372599"><ele>160.4</ele><time>2026-04-26T09:43:12.978Z</time></trkpt><trkpt lat="40.8160192" lon="8.8373761"><ele>161.8</ele><time>2026-04-26T09:43:13.977Z</time></trkpt><trkpt lat="40.816029" lon="8.8375053"><ele>163.20000000000002</ele><time>2026-04-26T09:43:14.979Z</time></trkpt><trkpt lat="40.8160244" lon="8.8376358"><ele>164.60000000000002</ele><time>2026-04-26T09:43:15.978Z</time></trkpt><trkpt lat="40.816015" lon="8.837757"><ele>166.0</ele><time>2026-04-26T09:43:16.979Z</time></trkpt><trkpt lat="40.8160025" lon="8.8378586"><ele>164.57142857142856</ele><time>2026-04-26T09:43:17.979Z</time></trkpt><trkpt lat="40.8159859" lon="8.8379474"><ele>163.14285714285717</ele><time>2026-04-26T09:43:18.979Z</time></trkpt><trkpt lat="40.8159609" lon="8.8380285"><ele>161.71428571428572</ele><time>2026-04-26T09:43:19.978Z</time></trkpt><trkpt lat="40.8159231" lon="8.8381052"><ele>160.28571428571428</ele><time>2026-04-26T09:43:20.98Z</time></trkpt><trkpt lat="40.8158734" lon="8.8381787"><ele>158.85714285714283</ele><time>2026-04-26T09:43:21.98Z</time></trkpt><trkpt lat="40.8158155" lon="8.8382503"><ele>157.42857142857144</ele><time>2026-04-26T09:43:22.978Z</time></trkpt><trkpt lat="40.8157523" lon="8.8383153"><ele>156.0</ele><time>2026-04-26T09:43:23.98Z</time></trkpt><trkpt lat="40.8156832" lon="8.8383863"><ele>156.0</ele><time>2026-04-26T09:43:24.979Z</time></trkpt><trkpt lat="40.8156086" lon="8.8384588"><ele>156.0</ele><time>2026-04-26T09:43:25.977Z</time></trkpt><trkpt lat="40.8155342" lon="8.8385369"><ele>156.0</ele><time>2026-04-26T09:43:26.979Z</time></trkpt><trkpt lat="40.8154625" lon="8.8386189"><ele>156.0</ele><time>2026-04-26T09:43:27.979Z</time></trkpt><trkpt lat="40.8153922" lon="8.8387016"><ele>156.0</ele><time>2026-04-26T09:43:28.979Z</time></trkpt><trkpt lat="40.8153214" lon="8.8387853"><ele>155.66666666666666</ele><time>2026-04-26T09:43:29.98Z</time></trkpt><trkpt lat="40.8152598" lon="8.8388788"><ele>155.33333333333334</ele><time>2026-04-26T09:43:30.979Z</time></trkpt><trkpt lat="40.8152091" lon="8.8389752"><ele>155.0</ele><time>2026-04-26T09:43:31.98Z</time></trkpt><trkpt lat="40.8151697" lon="8.839076"><ele>154.66666666666669</ele><time>2026-04-26T09:43:32.979Z</time></trkpt><trkpt lat="40.8151317" lon="8.8391794"><ele>154.33333333333334</ele><time>2026-04-26T09:43:33.979Z</time></trkpt><trkpt lat="40.8150919" lon="8.8392796"><ele>154.0</ele><time>2026-04-26T09:43:34.98Z</time></trkpt><trkpt lat="40.8150393" lon="8.8393761"><ele>150.8</ele><time>2026-04-26T09:43:35.978Z</time></trkpt><trkpt lat="40.8149722" lon="8.8394618"><ele>147.60000000000002</ele><time>2026-04-26T09:43:36.979Z</time></trkpt><trkpt lat="40.8148926" lon="8.8395475"><ele>144.4</ele><time>2026-04-26T09:43:37.978Z</time></trkpt><trkpt lat="40.8148013" lon="8.8396365"><ele>141.20000000000002</ele><time>2026-04-26T09:43:38.979Z</time></trkpt><trkpt lat="40.8147067" lon="8.8397321"><ele>138.0</ele><time>2026-04-26T09:43:39.979Z</time></trkpt><trkpt lat="40.8146062" lon="8.8398333"><ele>138.0</ele><time>2026-04-26T09:43:40.979Z</time></trkpt><trkpt lat="40.8145004" lon="8.8399354"><ele>138.0</ele><time>2026-04-26T09:43:41.979Z</time></trkpt><trkpt lat="40.8143927" lon="8.840036"><ele>138.0</ele><time>2026-04-26T09:43:42.982Z</time></trkpt><trkpt lat="40.8142902" lon="8.8401366"><ele>138.0</ele><time>2026-04-26T09:43:43.979Z</time></trkpt><trkpt lat="40.8141892" lon="8.8402385"><ele>134.25</ele><time>2026-04-26T09:43:44.978Z</time></trkpt><trkpt lat="40.814089" lon="8.840338"><ele>130.5</ele><time>2026-04-26T09:43:45.978Z</time></trkpt><trkpt lat="40.8139901" lon="8.8404335"><ele>126.75</ele><time>2026-04-26T09:43:46.978Z</time></trkpt><trkpt lat="40.8138923" lon="8.8405268"><ele>123.0</ele><time>2026-04-26T09:43:47.979Z</time></trkpt><trkpt lat="40.8137991" lon="8.840619"><ele>123.0</ele><time>2026-04-26T09:43:48.979Z</time></trkpt><trkpt lat="40.8137092" lon="8.8407074"><ele>123.00000000000001</ele><time>2026-04-26T09:43:49.979Z</time></trkpt><trkpt lat="40.8136202" lon="8.8407917"><ele>123.00000000000001</ele><time>2026-04-26T09:43:50.978Z</time></trkpt><trkpt lat="40.8135352" lon="8.8408704"><ele>123.0</ele><time>2026-04-26T09:43:51.979Z</time></trkpt><trkpt lat="40.813451" lon="8.8409381"><ele>123.0</ele><time>2026-04-26T09:43:52.978Z</time></trkpt><trkpt lat="40.8133634" lon="8.8409792"><ele>122.5</ele><time>2026-04-26T09:43:53.978Z</time></trkpt><trkpt lat="40.813277" lon="8.840989"><ele>122.0</ele><time>2026-04-26T09:43:54.978Z</time></trkpt><trkpt lat="40.8131899" lon="8.8409745"><ele>121.5</ele><time>2026-04-26T09:43:55.979Z</time></trkpt><trkpt lat="40.8131309" lon="8.8409177"><ele>121.0</ele><time>2026-04-26T09:43:56.979Z</time></trkpt><trkpt lat="40.8130661" lon="8.840855"><ele>120.5</ele><time>2026-04-26T09:43:57.977Z</time></trkpt><trkpt lat="40.8129994" lon="8.8407932"><ele>120.0</ele><time>2026-04-26T09:43:58.978Z</time></trkpt><trkpt lat="40.8129336" lon="8.8407479"><ele>120.0</ele><time>2026-04-26T09:43:59.978Z</time></trkpt><trkpt lat="40.8128722" lon="8.840728"><ele>120.0</ele><time>2026-04-26T09:44:00.979Z</time></trkpt><trkpt lat="40.8128082" lon="8.8407608"><ele>120.0</ele><time>2026-04-26T09:44:01.977Z</time></trkpt><trkpt lat="40.8127137" lon="8.840862"><ele>120.0</ele><time>2026-04-26T09:44:03.978Z</time></trkpt><trkpt lat="40.8126245" lon="8.8409591"><ele>120.0</ele><time>2026-04-26T09:44:05.979Z</time></trkpt><trkpt lat="40.8125828" lon="8.8410885"><ele>119.4</ele><time>2026-04-26T09:44:07.978Z</time></trkpt><trkpt lat="40.8126525" lon="8.8412286"><ele>118.8</ele><time>2026-04-26T09:44:09.979Z</time></trkpt><trkpt lat="40.812698" lon="8.8412941"><ele>118.19999999999999</ele><time>2026-04-26T09:44:10.98Z</time></trkpt><trkpt lat="40.812742" lon="8.8413544"><ele>117.6</ele><time>2026-04-26T09:44:11.979Z</time></trkpt><trkpt lat="40.8128215" lon="8.841457"><ele>117.0</ele><time>2026-04-26T09:44:13.979Z</time></trkpt><trkpt lat="40.8128877" lon="8.8415414"><ele>117.0</ele><time>2026-04-26T09:44:15.978Z</time></trkpt><trkpt lat="40.8129638" lon="8.8415932"><ele>116.99999999999999</ele><time>2026-04-26T09:44:17.978Z</time></trkpt><trkpt lat="40.8130544" lon="8.8416844"><ele>116.99999999999999</ele><time>2026-04-26T09:44:19.978Z</time></trkpt><trkpt lat="40.8131037" lon="8.8417683"><ele>117.0</ele><time>2026-04-26T09:44:21.977Z</time></trkpt><trkpt lat="40.8130383" lon="8.8417681"><ele>117.0</ele><time>2026-04-26T09:44:25.978Z</time></trkpt><trkpt lat="40.8129466" lon="8.8416464"><ele>117.0</ele><time>2026-04-26T09:44:27.978Z</time></trkpt><trkpt lat="40.8128991" lon="8.8415554"><ele>116.99999999999999</ele><time>2026-04-26T09:44:28.978Z</time></trkpt><trkpt lat="40.8128394" lon="8.8414546"><ele>116.99999999999999</ele><time>2026-04-26T09:44:29.979Z</time></trkpt><trkpt lat="40.8127711" lon="8.8413555"><ele>117.0</ele><time>2026-04-26T09:44:30.978Z</time></trkpt><trkpt lat="40.8127032" lon="8.8412638"><ele>117.0</ele><time>2026-04-26T09:44:31.979Z</time></trkpt><trkpt lat="40.8126372" lon="8.8411867"><ele>117.0</ele><time>2026-04-26T09:44:32.979Z</time></trkpt><trkpt lat="40.8125663" lon="8.8411253"><ele>117.0</ele><time>2026-04-26T09:44:33.978Z</time></trkpt><trkpt lat="40.8124997" lon="8.8410822"><ele>117.0</ele><time>2026-04-26T09:44:34.977Z</time></trkpt><trkpt lat="40.812438" lon="8.8410565"><ele>117.0</ele><time>2026-04-26T09:44:35.98Z</time></trkpt><trkpt lat="40.8123208" lon="8.8411123"><ele>117.0</ele><time>2026-04-26T09:44:37.979Z</time></trkpt><trkpt lat="40.8122593" lon="8.8411809"><ele>117.0</ele><time>2026-04-26T09:44:38.978Z</time></trkpt><trkpt lat="40.8121952" lon="8.84126"><ele>117.0</ele><time>2026-04-26T09:44:39.977Z</time></trkpt><trkpt lat="40.8121305" lon="8.8413435"><ele>116.99999999999999</ele><time>2026-04-26T09:44:40.978Z</time></trkpt><trkpt lat="40.8120632" lon="8.8414287"><ele>116.99999999999999</ele><time>2026-04-26T09:44:41.978Z</time></trkpt><trkpt lat="40.8119906" lon="8.8415111"><ele>117.0</ele><time>2026-04-26T09:44:42.978Z</time></trkpt><trkpt lat="40.8119076" lon="8.8415896"><ele>117.0</ele><time>2026-04-26T09:44:43.979Z</time></trkpt><trkpt lat="40.8118197" lon="8.8416669"><ele>117.0</ele><time>2026-04-26T09:44:44.978Z</time></trkpt><trkpt lat="40.8117258" lon="8.8417459"><ele>117.0</ele><time>2026-04-26T09:44:45.978Z</time></trkpt><trkpt lat="40.8116266" lon="8.8418225"><ele>117.0</ele><time>2026-04-26T09:44:46.979Z</time></trkpt><trkpt lat="40.811522" lon="8.8418995"><ele>117.0</ele><time>2026-04-26T09:44:47.98Z</time></trkpt><trkpt lat="40.811415" lon="8.8419812"><ele>116.0</ele><time>2026-04-26T09:44:48.978Z</time></trkpt><trkpt lat="40.8113102" lon="8.8420772"><ele>115.0</ele><time>2026-04-26T09:44:49.979Z</time></trkpt><trkpt lat="40.8112059" lon="8.8421844"><ele>114.0</ele><time>2026-04-26T09:44:50.979Z</time></trkpt><trkpt lat="40.811101" lon="8.8423041"><ele>113.0</ele><time>2026-04-26T09:44:51.979Z</time></trkpt><trkpt lat="40.8109962" lon="8.8424218"><ele>113.5</ele><time>2026-04-26T09:44:52.979Z</time></trkpt><trkpt lat="40.8108887" lon="8.8425405"><ele>114.0</ele><time>2026-04-26T09:44:53.979Z</time></trkpt><trkpt lat="40.8107773" lon="8.8426602"><ele>114.5</ele><time>2026-04-26T09:44:54.978Z</time></trkpt><trkpt lat="40.8106619" lon="8.8427808"><ele>115.0</ele><time>2026-04-26T09:44:55.978Z</time></trkpt><trkpt lat="40.8105386" lon="8.8428999"><ele>113.66666666666667</ele><time>2026-04-26T09:44:56.981Z</time></trkpt><trkpt lat="40.8104122" lon="8.8430224"><ele>112.33333333333334</ele><time>2026-04-26T09:44:57.979Z</time></trkpt><trkpt lat="40.8102808" lon="8.8431502"><ele>111.0</ele><time>2026-04-26T09:44:58.979Z</time></trkpt><trkpt lat="40.8101465" lon="8.8432823"><ele>111.0</ele><time>2026-04-26T09:44:59.978Z</time></trkpt><trkpt lat="40.8100074" lon="8.8434202"><ele>111.0</ele><time>2026-04-26T09:45:00.978Z</time></trkpt><trkpt lat="40.8098638" lon="8.8435625"><ele>111.0</ele><time>2026-04-26T09:45:01.979Z</time></trkpt><trkpt lat="40.809718" lon="8.8437058"><ele>111.0</ele><time>2026-04-26T09:45:02.979Z</time></trkpt><trkpt lat="40.8095708" lon="8.8438521"><ele>111.0</ele><time>2026-04-26T09:45:03.978Z</time></trkpt><trkpt lat="40.809419" lon="8.8439976"><ele>111.0</ele><time>2026-04-26T09:45:04.978Z</time></trkpt><trkpt lat="40.8092644" lon="8.8441409"><ele>111.0</ele><time>2026-04-26T09:45:05.979Z</time></trkpt><trkpt lat="40.8091086" lon="8.8442844"><ele>111.0</ele><time>2026-04-26T09:45:06.979Z</time></trkpt><trkpt lat="40.8089511" lon="8.844426"><ele>111.0</ele><time>2026-04-26T09:45:07.978Z</time></trkpt><trkpt lat="40.8087914" lon="8.844566"><ele>109.66666666666666</ele><time>2026-04-26T09:45:08.979Z</time></trkpt><trkpt lat="40.8086329" lon="8.8447042"><ele>108.33333333333333</ele><time>2026-04-26T09:45:09.98Z</time></trkpt><trkpt lat="40.8084791" lon="8.8448348"><ele>107.0</ele><time>2026-04-26T09:45:10.979Z</time></trkpt><trkpt lat="40.8083323" lon="8.8449581"><ele>107.0</ele><time>2026-04-26T09:45:11.978Z</time></trkpt><trkpt lat="40.8081911" lon="8.8450758"><ele>107.0</ele><time>2026-04-26T09:45:12.978Z</time></trkpt><trkpt lat="40.8080577" lon="8.8451798"><ele>107.0</ele><time>2026-04-26T09:45:13.98Z</time></trkpt><trkpt lat="40.8079299" lon="8.8452655"><ele>106.5</ele><time>2026-04-26T09:45:14.979Z</time></trkpt><trkpt lat="40.807802" lon="8.8453359"><ele>106.0</ele><time>2026-04-26T09:45:15.979Z</time></trkpt><trkpt lat="40.8076718" lon="8.8453985"><ele>105.5</ele><time>2026-04-26T09:45:16.979Z</time></trkpt><trkpt lat="40.8075344" lon="8.8454598"><ele>105.0</ele><time>2026-04-26T09:45:17.979Z</time></trkpt><trkpt lat="40.8073862" lon="8.8455199"><ele>104.33333333333334</ele><time>2026-04-26T09:45:18.978Z</time></trkpt><trkpt lat="40.807232" lon="8.8455799"><ele>103.66666666666667</ele><time>2026-04-26T09:45:19.978Z</time></trkpt><trkpt lat="40.8070713" lon="8.8456424"><ele>103.0</ele><time>2026-04-26T09:45:20.98Z</time></trkpt><trkpt lat="40.806911" lon="8.8457045"><ele>101.66666666666667</ele><time>2026-04-26T09:45:21.979Z</time></trkpt><trkpt lat="40.8067531" lon="8.8457649"><ele>100.33333333333334</ele><time>2026-04-26T09:45:22.98Z</time></trkpt><trkpt lat="40.8066023" lon="8.8458237"><ele>99.0</ele><time>2026-04-26T09:45:23.979Z</time></trkpt><trkpt lat="40.8064544" lon="8.84588"><ele>99.0</ele><time>2026-04-26T09:45:24.979Z</time></trkpt><trkpt lat="40.8063122" lon="8.845932"><ele>99.0</ele><time>2026-04-26T09:45:25.978Z</time></trkpt><trkpt lat="40.8061762" lon="8.8459877"><ele>99.0</ele><time>2026-04-26T09:45:26.98Z</time></trkpt><trkpt lat="40.8060475" lon="8.8460514"><ele>99.0</ele><time>2026-04-26T09:45:27.979Z</time></trkpt><trkpt lat="40.8059307" lon="8.8461258"><ele>98.4</ele><time>2026-04-26T09:45:28.979Z</time></trkpt><trkpt lat="40.8058226" lon="8.8461986"><ele>97.80000000000001</ele><time>2026-04-26T09:45:29.978Z</time></trkpt><trkpt lat="40.8057227" lon="8.8462674"><ele>97.19999999999999</ele><time>2026-04-26T09:45:30.978Z</time></trkpt><trkpt lat="40.8056377" lon="8.8463273"><ele>96.6</ele><time>2026-04-26T09:45:31.979Z</time></trkpt><trkpt lat="40.8055735" lon="8.8463732"><ele>96.0</ele><time>2026-04-26T09:45:32.979Z</time></trkpt><trkpt lat="40.8055143" lon="8.846421"><ele>96.0</ele><time>2026-04-26T09:45:35.978Z</time></trkpt><trkpt lat="40.8054569" lon="8.8464553"><ele>96.0</ele><time>2026-04-26T09:45:37.978Z</time></trkpt><trkpt lat="40.8053282" lon="8.8465427"><ele>96.0</ele><time>2026-04-26T09:45:39.978Z</time></trkpt><trkpt lat="40.8052427" lon="8.8466024"><ele>96.0</ele><time>2026-04-26T09:45:40.979Z</time></trkpt><trkpt lat="40.8051507" lon="8.8466653"><ele>96.0</ele><time>2026-04-26T09:45:41.978Z</time></trkpt><trkpt lat="40.8050672" lon="8.8467211"><ele>95.4</ele><time>2026-04-26T09:45:42.978Z</time></trkpt><trkpt lat="40.804996" lon="8.8467683"><ele>94.8</ele><time>2026-04-26T09:45:43.978Z</time></trkpt><trkpt lat="40.8049412" lon="8.8468108"><ele>94.2</ele><time>2026-04-26T09:45:44.978Z</time></trkpt><trkpt lat="40.8048763" lon="8.8469135"><ele>93.60000000000001</ele><time>2026-04-26T09:45:46.979Z</time></trkpt><trkpt lat="40.8049202" lon="8.847072"><ele>93.0</ele><time>2026-04-26T09:45:48.979Z</time></trkpt><trkpt lat="40.8049768" lon="8.8471869"><ele>92.75</ele><time>2026-04-26T09:45:49.978Z</time></trkpt><trkpt lat="40.805056" lon="8.8473263"><ele>92.5</ele><time>2026-04-26T09:45:50.979Z</time></trkpt><trkpt lat="40.8051417" lon="8.8474808"><ele>92.25</ele><time>2026-04-26T09:45:51.978Z</time></trkpt><trkpt lat="40.8052322" lon="8.8476482"><ele>92.0</ele><time>2026-04-26T09:45:52.978Z</time></trkpt><trkpt lat="40.8053208" lon="8.847814"><ele>92.0</ele><time>2026-04-26T09:45:53.978Z</time></trkpt><trkpt lat="40.8054078" lon="8.8479724"><ele>92.0</ele><time>2026-04-26T09:45:54.978Z</time></trkpt><trkpt lat="40.8054889" lon="8.8481252"><ele>92.0</ele><time>2026-04-26T09:45:55.979Z</time></trkpt><trkpt lat="40.8055641" lon="8.8482673"><ele>92.0</ele><time>2026-04-26T09:45:56.979Z</time></trkpt><trkpt lat="40.8056366" lon="8.8484068"><ele>91.0</ele><time>2026-04-26T09:45:57.979Z</time></trkpt><trkpt lat="40.8057129" lon="8.8485489"><ele>90.0</ele><time>2026-04-26T09:45:58.978Z</time></trkpt><trkpt lat="40.8057931" lon="8.8486909"><ele>89.0</ele><time>2026-04-26T09:45:59.979Z</time></trkpt><trkpt lat="40.8058789" lon="8.8488294"><ele>88.0</ele><time>2026-04-26T09:46:00.979Z</time></trkpt><trkpt lat="40.8059707" lon="8.8489707"><ele>88.0</ele><time>2026-04-26T09:46:01.979Z</time></trkpt><trkpt lat="40.806058" lon="8.8491279"><ele>88.0</ele><time>2026-04-26T09:46:02.978Z</time></trkpt><trkpt lat="40.8061433" lon="8.8492957"><ele>88.0</ele><time>2026-04-26T09:46:03.978Z</time></trkpt><trkpt lat="40.8062255" lon="8.8494689"><ele>88.0</ele><time>2026-04-26T09:46:04.978Z</time></trkpt><trkpt lat="40.8063073" lon="8.8496338"><ele>88.0</ele><time>2026-04-26T09:46:05.978Z</time></trkpt><trkpt lat="40.80639" lon="8.84978"><ele>88.0</ele><time>2026-04-26T09:46:06.978Z</time></trkpt><trkpt lat="40.8064672" lon="8.8499136"><ele>88.0</ele><time>2026-04-26T09:46:07.979Z</time></trkpt><trkpt lat="40.8065394" lon="8.85003"><ele>87.66666666666666</ele><time>2026-04-26T09:46:08.98Z</time></trkpt><trkpt lat="40.8065965" lon="8.8501315"><ele>87.33333333333333</ele><time>2026-04-26T09:46:09.979Z</time></trkpt><trkpt lat="40.8066456" lon="8.8502222"><ele>87.0</ele><time>2026-04-26T09:46:10.977Z</time></trkpt><trkpt lat="40.8066923" lon="8.8503105"><ele>86.66666666666667</ele><time>2026-04-26T09:46:11.978Z</time></trkpt><trkpt lat="40.8067338" lon="8.850405"><ele>86.33333333333334</ele><time>2026-04-26T09:46:12.978Z</time></trkpt><trkpt lat="40.8067709" lon="8.8505035"><ele>86.0</ele><time>2026-04-26T09:46:13.979Z</time></trkpt><trkpt lat="40.806807" lon="8.8506041"><ele>86.33333333333334</ele><time>2026-04-26T09:46:14.979Z</time></trkpt><trkpt lat="40.8068412" lon="8.8507087"><ele>86.66666666666667</ele><time>2026-04-26T09:46:15.978Z</time></trkpt><trkpt lat="40.806876" lon="8.8508152"><ele>87.0</ele><time>2026-04-26T09:46:16.979Z</time></trkpt><trkpt lat="40.8069159" lon="8.8509194"><ele>87.33333333333333</ele><time>2026-04-26T09:46:17.979Z</time></trkpt><trkpt lat="40.8069522" lon="8.8510155"><ele>87.66666666666666</ele><time>2026-04-26T09:46:18.978Z</time></trkpt><trkpt lat="40.8069906" lon="8.851111"><ele>88.0</ele><time>2026-04-26T09:46:19.979Z</time></trkpt><trkpt lat="40.8070397" lon="8.8511988"><ele>88.0</ele><time>2026-04-26T09:46:20.979Z</time></trkpt><trkpt lat="40.8070955" lon="8.8512825"><ele>88.0</ele><time>2026-04-26T09:46:21.978Z</time></trkpt><trkpt lat="40.8071517" lon="8.8513719"><ele>88.0</ele><time>2026-04-26T09:46:22.979Z</time></trkpt><trkpt lat="40.8072066" lon="8.8514664"><ele>88.0</ele><time>2026-04-26T09:46:23.979Z</time></trkpt><trkpt lat="40.8072566" lon="8.8515693"><ele>88.0</ele><time>2026-04-26T09:46:24.979Z</time></trkpt><trkpt lat="40.8073023" lon="8.8516788"><ele>88.0</ele><time>2026-04-26T09:46:25.978Z</time></trkpt><trkpt lat="40.8073492" lon="8.8517874"><ele>88.0</ele><time>2026-04-26T09:46:26.978Z</time></trkpt><trkpt lat="40.8073982" lon="8.8518996"><ele>88.0</ele><time>2026-04-26T09:46:27.978Z</time></trkpt><trkpt lat="40.8074432" lon="8.8520148"><ele>88.0</ele><time>2026-04-26T09:46:28.979Z</time></trkpt><trkpt lat="40.8074833" lon="8.8521288"><ele>88.0</ele><time>2026-04-26T09:46:29.979Z</time></trkpt><trkpt lat="40.807526" lon="8.8522404"><ele>88.0</ele><time>2026-04-26T09:46:30.979Z</time></trkpt><trkpt lat="40.8075735" lon="8.8523487"><ele>88.0</ele><time>2026-04-26T09:46:31.979Z</time></trkpt><trkpt lat="40.8076299" lon="8.8524517"><ele>88.0</ele><time>2026-04-26T09:46:32.979Z</time></trkpt><trkpt lat="40.8076909" lon="8.8525526"><ele>88.0</ele><time>2026-04-26T09:46:33.979Z</time></trkpt><trkpt lat="40.8077516" lon="8.8526512"><ele>88.0</ele><time>2026-04-26T09:46:34.979Z</time></trkpt><trkpt lat="40.8078132" lon="8.8527524"><ele>87.60000000000001</ele><time>2026-04-26T09:46:35.978Z</time></trkpt><trkpt lat="40.8078807" lon="8.8528497"><ele>87.2</ele><time>2026-04-26T09:46:36.979Z</time></trkpt><trkpt lat="40.8079463" lon="8.8529485"><ele>86.8</ele><time>2026-04-26T09:46:37.978Z</time></trkpt><trkpt lat="40.8080108" lon="8.8530493"><ele>86.4</ele><time>2026-04-26T09:46:38.978Z</time></trkpt><trkpt lat="40.8080739" lon="8.8531517"><ele>86.0</ele><time>2026-04-26T09:46:39.979Z</time></trkpt><trkpt lat="40.8081329" lon="8.8532535"><ele>86.0</ele><time>2026-04-26T09:46:40.979Z</time></trkpt><trkpt lat="40.8081894" lon="8.8533572"><ele>86.0</ele><time>2026-04-26T09:46:41.979Z</time></trkpt><trkpt lat="40.8082486" lon="8.8534568"><ele>86.0</ele><time>2026-04-26T09:46:42.978Z</time></trkpt><trkpt lat="40.8083088" lon="8.8535551"><ele>86.0</ele><time>2026-04-26T09:46:43.979Z</time></trkpt><trkpt lat="40.8083671" lon="8.8536553"><ele>86.0</ele><time>2026-04-26T09:46:44.979Z</time></trkpt><trkpt lat="40.8084231" lon="8.8537572"><ele>85.16666666666667</ele><time>2026-04-26T09:46:45.978Z</time></trkpt><trkpt lat="40.8084775" lon="8.8538577"><ele>84.33333333333334</ele><time>2026-04-26T09:46:46.979Z</time></trkpt><trkpt lat="40.8085309" lon="8.8539567"><ele>83.5</ele><time>2026-04-26T09:46:47.978Z</time></trkpt><trkpt lat="40.8085819" lon="8.8540488"><ele>82.66666666666667</ele><time>2026-04-26T09:46:48.979Z</time></trkpt><trkpt lat="40.8086302" lon="8.8541335"><ele>81.83333333333333</ele><time>2026-04-26T09:46:49.979Z</time></trkpt><trkpt lat="40.8086756" lon="8.8542144"><ele>81.0</ele><time>2026-04-26T09:46:50.979Z</time></trkpt><trkpt lat="40.8087189" lon="8.8542958"><ele>80.5</ele><time>2026-04-26T09:46:51.979Z</time></trkpt><trkpt lat="40.8087633" lon="8.8543739"><ele>80.0</ele><time>2026-04-26T09:46:52.978Z</time></trkpt><trkpt lat="40.8088156" lon="8.8544484"><ele>79.5</ele><time>2026-04-26T09:46:53.98Z</time></trkpt><trkpt lat="40.8088753" lon="8.8545132"><ele>79.0</ele><time>2026-04-26T09:46:54.979Z</time></trkpt><trkpt lat="40.8089323" lon="8.8545713"><ele>78.5</ele><time>2026-04-26T09:46:55.98Z</time></trkpt><trkpt lat="40.808984" lon="8.8546222"><ele>78.0</ele><time>2026-04-26T09:46:56.979Z</time></trkpt><trkpt lat="40.8090585" lon="8.8546872"><ele>78.0</ele><time>2026-04-26T09:46:58.977Z</time></trkpt><trkpt lat="40.8091277" lon="8.8547414"><ele>78.0</ele><time>2026-04-26T09:47:00.979Z</time></trkpt><trkpt lat="40.8092184" lon="8.8548108"><ele>78.0</ele><time>2026-04-26T09:47:02.978Z</time></trkpt><trkpt lat="40.8092809" lon="8.8548554"><ele>78.0</ele><time>2026-04-26T09:47:03.979Z</time></trkpt><trkpt lat="40.8093488" lon="8.8549016"><ele>78.0</ele><time>2026-04-26T09:47:04.979Z</time></trkpt><trkpt lat="40.8094232" lon="8.8549526"><ele>78.0</ele><time>2026-04-26T09:47:05.978Z</time></trkpt><trkpt lat="40.8095009" lon="8.8550058"><ele>78.0</ele><time>2026-04-26T09:47:06.978Z</time></trkpt><trkpt lat="40.8095807" lon="8.8550614"><ele>78.0</ele><time>2026-04-26T09:47:07.977Z</time></trkpt><trkpt lat="40.8096608" lon="8.8551178"><ele>78.0</ele><time>2026-04-26T09:47:08.98Z</time></trkpt><trkpt lat="40.8097393" lon="8.8551757"><ele>78.0</ele><time>2026-04-26T09:47:09.978Z</time></trkpt><trkpt lat="40.8098126" lon="8.8552336"><ele>78.0</ele><time>2026-04-26T09:47:10.978Z</time></trkpt><trkpt lat="40.8098796" lon="8.8552987"><ele>78.0</ele><time>2026-04-26T09:47:11.979Z</time></trkpt><trkpt lat="40.8099489" lon="8.8553677"><ele>78.0</ele><time>2026-04-26T09:47:12.979Z</time></trkpt><trkpt lat="40.810023" lon="8.8554328"><ele>78.0</ele><time>2026-04-26T09:47:13.978Z</time></trkpt><trkpt lat="40.8101049" lon="8.8554888"><ele>78.0</ele><time>2026-04-26T09:47:14.978Z</time></trkpt><trkpt lat="40.8101946" lon="8.8555411"><ele>78.0</ele><time>2026-04-26T09:47:15.978Z</time></trkpt><trkpt lat="40.8102897" lon="8.8555926"><ele>78.0</ele><time>2026-04-26T09:47:16.978Z</time></trkpt><trkpt lat="40.8103875" lon="8.8556455"><ele>77.8</ele><time>2026-04-26T09:47:17.979Z</time></trkpt><trkpt lat="40.810488" lon="8.8557004"><ele>77.6</ele><time>2026-04-26T09:47:18.978Z</time></trkpt><trkpt lat="40.8105909" lon="8.8557571"><ele>77.4</ele><time>2026-04-26T09:47:19.979Z</time></trkpt><trkpt lat="40.810691" lon="8.8558064"><ele>77.2</ele><time>2026-04-26T09:47:20.978Z</time></trkpt><trkpt lat="40.8107913" lon="8.8558465"><ele>77.0</ele><time>2026-04-26T09:47:21.978Z</time></trkpt><trkpt lat="40.8108879" lon="8.8558792"><ele>77.0</ele><time>2026-04-26T09:47:22.978Z</time></trkpt><trkpt lat="40.8109814" lon="8.8559113"><ele>77.0</ele><time>2026-04-26T09:47:23.978Z</time></trkpt><trkpt lat="40.8110738" lon="8.8559489"><ele>77.0</ele><time>2026-04-26T09:47:24.979Z</time></trkpt><trkpt lat="40.8111579" lon="8.8559936"><ele>77.0</ele><time>2026-04-26T09:47:25.979Z</time></trkpt><trkpt lat="40.8112332" lon="8.8560462"><ele>77.0</ele><time>2026-04-26T09:47:26.978Z</time></trkpt><trkpt lat="40.8113032" lon="8.8560996"><ele>77.0</ele><time>2026-04-26T09:47:27.978Z</time></trkpt><trkpt lat="40.8113691" lon="8.856145"><ele>77.0</ele><time>2026-04-26T09:47:28.978Z</time></trkpt><trkpt lat="40.8114651" lon="8.8562153"><ele>77.0</ele><time>2026-04-26T09:47:30.978Z</time></trkpt><trkpt lat="40.8114733" lon="8.8563061"><ele>77.0</ele><time>2026-04-26T09:47:32.979Z</time></trkpt><trkpt lat="40.8114386" lon="8.8563805"><ele>77.0</ele><time>2026-04-26T09:47:34.978Z</time></trkpt><trkpt lat="40.8114308" lon="8.856467"><ele>77.0</ele><time>2026-04-26T09:47:36.979Z</time></trkpt><trkpt lat="40.8115164" lon="8.8565177"><ele>77.0</ele><time>2026-04-26T09:47:39.979Z</time></trkpt><trkpt lat="40.8116583" lon="8.856516"><ele>77.0</ele><time>2026-04-26T09:47:41.979Z</time></trkpt><trkpt lat="40.8117502" lon="8.8565149"><ele>77.0</ele><time>2026-04-26T09:47:42.978Z</time></trkpt><trkpt lat="40.8118482" lon="8.8565078"><ele>77.0</ele><time>2026-04-26T09:47:43.978Z</time></trkpt><trkpt lat="40.8119533" lon="8.8564952"><ele>77.0</ele><time>2026-04-26T09:47:44.979Z</time></trkpt><trkpt lat="40.8120704" lon="8.8564727"><ele>78.5</ele><time>2026-04-26T09:47:45.978Z</time></trkpt><trkpt lat="40.8121965" lon="8.8564418"><ele>80.0</ele><time>2026-04-26T09:47:46.978Z</time></trkpt><trkpt lat="40.8123276" lon="8.8564125"><ele>81.5</ele><time>2026-04-26T09:47:47.978Z</time></trkpt><trkpt lat="40.8124604" lon="8.856388"><ele>83.0</ele><time>2026-04-26T09:47:48.979Z</time></trkpt><trkpt lat="40.8125871" lon="8.8563707"><ele>84.5</ele><time>2026-04-26T09:47:49.979Z</time></trkpt><trkpt lat="40.8127046" lon="8.8563772"><ele>86.0</ele><time>2026-04-26T09:47:50.981Z</time></trkpt><trkpt lat="40.8128159" lon="8.8564137"><ele>87.5</ele><time>2026-04-26T09:47:51.979Z</time></trkpt><trkpt lat="40.812919" lon="8.8564766"><ele>89.0</ele><time>2026-04-26T09:47:52.98Z</time></trkpt><trkpt lat="40.8130107" lon="8.8565555"><ele>89.0</ele><time>2026-04-26T09:47:53.978Z</time></trkpt><trkpt lat="40.8130954" lon="8.8566388"><ele>89.0</ele><time>2026-04-26T09:47:54.979Z</time></trkpt><trkpt lat="40.8131755" lon="8.856718"><ele>89.0</ele><time>2026-04-26T09:47:55.979Z</time></trkpt><trkpt lat="40.8132625" lon="8.8567667"><ele>89.0</ele><time>2026-04-26T09:47:56.981Z</time></trkpt><trkpt lat="40.8133485" lon="8.8567814"><ele>89.0</ele><time>2026-04-26T09:47:57.979Z</time></trkpt><trkpt lat="40.8134363" lon="8.8567406"><ele>89.83333333333334</ele><time>2026-04-26T09:47:58.977Z</time></trkpt><trkpt lat="40.8135101" lon="8.8566766"><ele>90.66666666666667</ele><time>2026-04-26T09:47:59.978Z</time></trkpt><trkpt lat="40.8135662" lon="8.8565926"><ele>91.5</ele><time>2026-04-26T09:48:00.979Z</time></trkpt><trkpt lat="40.8135997" lon="8.8564876"><ele>92.33333333333333</ele><time>2026-04-26T09:48:01.979Z</time></trkpt><trkpt lat="40.8136224" lon="8.8563894"><ele>93.16666666666666</ele><time>2026-04-26T09:48:02.979Z</time></trkpt><trkpt lat="40.8136402" lon="8.856305"><ele>94.0</ele><time>2026-04-26T09:48:03.978Z</time></trkpt><trkpt lat="40.81368" lon="8.8561903"><ele>94.0</ele><time>2026-04-26T09:48:05.978Z</time></trkpt><trkpt lat="40.813738" lon="8.8561384"><ele>94.0</ele><time>2026-04-26T09:48:07.979Z</time></trkpt><trkpt lat="40.8138254" lon="8.8561545"><ele>94.0</ele><time>2026-04-26T09:48:09.979Z</time></trkpt><trkpt lat="40.8139053" lon="8.8562338"><ele>94.0</ele><time>2026-04-26T09:48:11.978Z</time></trkpt><trkpt lat="40.8139431" lon="8.856326"><ele>94.0</ele><time>2026-04-26T09:48:13.978Z</time></trkpt><trkpt lat="40.813973" lon="8.8564162"><ele>94.0</ele><time>2026-04-26T09:48:17.978Z</time></trkpt><trkpt lat="40.8140103" lon="8.8565152"><ele>94.0</ele><time>2026-04-26T09:48:22.978Z</time></trkpt><trkpt lat="40.8140534" lon="8.8566484"><ele>94.0</ele><time>2026-04-26T09:48:24.979Z</time></trkpt><trkpt lat="40.81409" lon="8.8567833"><ele>94.0</ele><time>2026-04-26T09:48:26.979Z</time></trkpt><trkpt lat="40.8141256" lon="8.8569233"><ele>94.0</ele><time>2026-04-26T09:48:28.979Z</time></trkpt><trkpt lat="40.8141477" lon="8.8570336"><ele>94.0</ele><time>2026-04-26T09:48:30.978Z</time></trkpt><trkpt lat="40.8141754" lon="8.8571448"><ele>93.4</ele><time>2026-04-26T09:48:32.978Z</time></trkpt><trkpt lat="40.814208" lon="8.8572791"><ele>92.80000000000001</ele><time>2026-04-26T09:48:34.979Z</time></trkpt><trkpt lat="40.8142383" lon="8.8574284"><ele>92.19999999999999</ele><time>2026-04-26T09:48:36.98Z</time></trkpt><trkpt lat="40.8142683" lon="8.8575721"><ele>91.6</ele><time>2026-04-26T09:48:38.979Z</time></trkpt><trkpt lat="40.8142997" lon="8.8576987"><ele>91.0</ele><time>2026-04-26T09:48:40.978Z</time></trkpt><trkpt lat="40.8143313" lon="8.8578135"><ele>90.8</ele><time>2026-04-26T09:48:42.979Z</time></trkpt><trkpt lat="40.8143549" lon="8.8579227"><ele>90.6</ele><time>2026-04-26T09:48:44.979Z</time></trkpt><trkpt lat="40.8143836" lon="8.858031"><ele>90.4</ele><time>2026-04-26T09:48:46.979Z</time></trkpt><trkpt lat="40.8144115" lon="8.8581553"><ele>90.2</ele><time>2026-04-26T09:48:48.978Z</time></trkpt><trkpt lat="40.8144426" lon="8.8582846"><ele>90.0</ele><time>2026-04-26T09:48:50.979Z</time></trkpt><trkpt lat="40.8144691" lon="8.8584049"><ele>89.5</ele><time>2026-04-26T09:48:52.98Z</time></trkpt><trkpt lat="40.814496" lon="8.8585155"><ele>89.0</ele><time>2026-04-26T09:48:54.979Z</time></trkpt><trkpt lat="40.8145225" lon="8.8586276"><ele>88.5</ele><time>2026-04-26T09:48:56.979Z</time></trkpt><trkpt lat="40.8145431" lon="8.8587393"><ele>88.0</ele><time>2026-04-26T09:48:58.979Z</time></trkpt><trkpt lat="40.8145636" lon="8.8588525"><ele>87.5</ele><time>2026-04-26T09:49:00.979Z</time></trkpt><trkpt lat="40.8145923" lon="8.8589727"><ele>87.0</ele><time>2026-04-26T09:49:02.978Z</time></trkpt><trkpt lat="40.8146183" lon="8.8590899"><ele>87.0</ele><time>2026-04-26T09:49:04.978Z</time></trkpt><trkpt lat="40.814638" lon="8.8591829"><ele>87.0</ele><time>2026-04-26T09:49:06.978Z</time></trkpt><trkpt lat="40.8146706" lon="8.8592943"><ele>87.0</ele><time>2026-04-26T09:49:09.978Z</time></trkpt><trkpt lat="40.8146953" lon="8.859395"><ele>87.0</ele><time>2026-04-26T09:49:11.98Z</time></trkpt><trkpt lat="40.8147191" lon="8.8594771"><ele>87.0</ele><time>2026-04-26T09:49:13.978Z</time></trkpt><trkpt lat="40.8147424" lon="8.8595753"><ele>87.0</ele><time>2026-04-26T09:49:16.978Z</time></trkpt><trkpt lat="40.8147616" lon="8.8596827"><ele>86.66666666666667</ele><time>2026-04-26T09:49:19.979Z</time></trkpt><trkpt lat="40.8148249" lon="8.8596822"><ele>86.33333333333333</ele><time>2026-04-26T09:50:29.978Z</time></trkpt><trkpt lat="40.8147693" lon="8.859726"><ele>86.0</ele><time>2026-04-26T09:50:43.979Z</time></trkpt><trkpt lat="40.8147329" lon="8.8598477"><ele>85.66666666666666</ele><time>2026-04-26T09:50:45.978Z</time></trkpt><trkpt lat="40.8146906" lon="8.8599869"><ele>85.33333333333333</ele><time>2026-04-26T09:50:47.979Z</time></trkpt><trkpt lat="40.8146645" lon="8.8601142"><ele>85.0</ele><time>2026-04-26T09:50:49.979Z</time></trkpt><trkpt lat="40.8146512" lon="8.8602579"><ele>85.0</ele><time>2026-04-26T09:50:51.978Z</time></trkpt><trkpt lat="40.8146415" lon="8.8603898"><ele>85.0</ele><time>2026-04-26T09:50:53.98Z</time></trkpt><trkpt lat="40.8146344" lon="8.8605131"><ele>85.0</ele><time>2026-04-26T09:50:55.978Z</time></trkpt><trkpt lat="40.8146364" lon="8.8606317"><ele>85.0</ele><time>2026-04-26T09:50:57.979Z</time></trkpt><trkpt lat="40.8146424" lon="8.8607455"><ele>85.0</ele><time>2026-04-26T09:50:59.979Z</time></trkpt><trkpt lat="40.8146347" lon="8.8608513"><ele>83.85714285714286</ele><time>2026-04-26T09:51:01.979Z</time></trkpt><trkpt lat="40.8146167" lon="8.860952"><ele>82.71428571428571</ele><time>2026-04-26T09:51:03.979Z</time></trkpt><trkpt lat="40.8145985" lon="8.8610434"><ele>81.57142857142857</ele><time>2026-04-26T09:51:05.978Z</time></trkpt><trkpt lat="40.8145739" lon="8.8611279"><ele>80.42857142857143</ele><time>2026-04-26T09:51:08.979Z</time></trkpt><trkpt lat="40.8145495" lon="8.86121"><ele>79.28571428571428</ele><time>2026-04-26T09:51:10.979Z</time></trkpt><trkpt lat="40.8145205" lon="8.8612907"><ele>78.14285714285714</ele><time>2026-04-26T09:51:12.978Z</time></trkpt><trkpt lat="40.8144884" lon="8.8613939"><ele>77.0</ele><time>2026-04-26T09:51:15.979Z</time></trkpt><trkpt lat="40.8144575" lon="8.8615126"><ele>77.0</ele><time>2026-04-26T09:51:18.978Z</time></trkpt><trkpt lat="40.8144385" lon="8.86162"><ele>77.0</ele><time>2026-04-26T09:51:20.98Z</time></trkpt><trkpt lat="40.8144198" lon="8.8617428"><ele>77.0</ele><time>2026-04-26T09:51:22.978Z</time></trkpt><trkpt lat="40.8144032" lon="8.8618586"><ele>77.0</ele><time>2026-04-26T09:51:24.978Z</time></trkpt><trkpt lat="40.8143906" lon="8.8619747"><ele>77.0</ele><time>2026-04-26T09:51:26.98Z</time></trkpt><trkpt lat="40.8143835" lon="8.8620858"><ele>77.0</ele><time>2026-04-26T09:51:28.978Z</time></trkpt><trkpt lat="40.8143758" lon="8.8622042"><ele>76.8</ele><time>2026-04-26T09:51:30.978Z</time></trkpt><trkpt lat="40.8143633" lon="8.8623299"><ele>76.6</ele><time>2026-04-26T09:51:32.98Z</time></trkpt><trkpt lat="40.8143598" lon="8.86245"><ele>76.39999999999999</ele><time>2026-04-26T09:51:34.978Z</time></trkpt><trkpt lat="40.814357" lon="8.8625789"><ele>76.2</ele><time>2026-04-26T09:51:36.98Z</time></trkpt><trkpt lat="40.8143605" lon="8.8627105"><ele>76.0</ele><time>2026-04-26T09:51:38.979Z</time></trkpt><trkpt lat="40.814373" lon="8.8628353"><ele>75.5</ele><time>2026-04-26T09:51:40.978Z</time></trkpt><trkpt lat="40.814396" lon="8.8629639"><ele>75.0</ele><time>2026-04-26T09:51:42.98Z</time></trkpt><trkpt lat="40.8144155" lon="8.8630747"><ele>74.5</ele><time>2026-04-26T09:51:44.979Z</time></trkpt><trkpt lat="40.8144353" lon="8.8631716"><ele>74.0</ele><time>2026-04-26T09:51:46.978Z</time></trkpt><trkpt lat="40.8144526" lon="8.8632721"><ele>73.5</ele><time>2026-04-26T09:51:48.979Z</time></trkpt><trkpt lat="40.8144629" lon="8.8633864"><ele>73.0</ele><time>2026-04-26T09:51:50.979Z</time></trkpt><trkpt lat="40.8144659" lon="8.8634857"><ele>72.5</ele><time>2026-04-26T09:51:52.978Z</time></trkpt><trkpt lat="40.8144685" lon="8.8635703"><ele>72.0</ele><time>2026-04-26T09:51:54.979Z</time></trkpt><trkpt lat="40.8144674" lon="8.8636558"><ele>71.5</ele><time>2026-04-26T09:52:08.978Z</time></trkpt><trkpt lat="40.8144893" lon="8.8637558"><ele>71.0</ele><time>2026-04-26T09:52:11.979Z</time></trkpt><trkpt lat="40.8145038" lon="8.8638489"><ele>70.5</ele><time>2026-04-26T09:52:13.979Z</time></trkpt><trkpt lat="40.8145113" lon="8.8639629"><ele>70.0</ele><time>2026-04-26T09:52:15.978Z</time></trkpt><trkpt lat="40.8145071" lon="8.864085"><ele>70.0</ele><time>2026-04-26T09:52:17.978Z</time></trkpt><trkpt lat="40.8145063" lon="8.8641871"><ele>70.0</ele><time>2026-04-26T09:52:19.98Z</time></trkpt><trkpt lat="40.814522" lon="8.8642951"><ele>70.0</ele><time>2026-04-26T09:52:22.98Z</time></trkpt><trkpt lat="40.8145653" lon="8.8644011"><ele>70.0</ele><time>2026-04-26T09:52:25.978Z</time></trkpt><trkpt lat="40.8145982" lon="8.8644765"><ele>70.0</ele><time>2026-04-26T09:52:27.98Z</time></trkpt><trkpt lat="40.8146401" lon="8.8645469"><ele>70.0</ele><time>2026-04-26T09:52:29.979Z</time></trkpt><trkpt lat="40.8146869" lon="8.8646104"><ele>69.83333333333333</ele><time>2026-04-26T09:52:31.979Z</time></trkpt><trkpt lat="40.814733" lon="8.8646953"><ele>69.66666666666666</ele><time>2026-04-26T09:52:33.98Z</time></trkpt><trkpt lat="40.8147817" lon="8.8647853"><ele>69.5</ele><time>2026-04-26T09:52:35.978Z</time></trkpt><trkpt lat="40.8148277" lon="8.8648781"><ele>69.33333333333333</ele><time>2026-04-26T09:52:37.981Z</time></trkpt><trkpt lat="40.8148706" lon="8.8649645"><ele>69.16666666666667</ele><time>2026-04-26T09:52:39.98Z</time></trkpt><trkpt lat="40.8149052" lon="8.8650556"><ele>69.0</ele><time>2026-04-26T09:52:41.979Z</time></trkpt><trkpt lat="40.8149319" lon="8.8651519"><ele>68.83333333333333</ele><time>2026-04-26T09:52:43.978Z</time></trkpt><trkpt lat="40.8149583" lon="8.8652479"><ele>68.66666666666667</ele><time>2026-04-26T09:52:45.979Z</time></trkpt><trkpt lat="40.8149732" lon="8.8653399"><ele>68.5</ele><time>2026-04-26T09:52:47.98Z</time></trkpt><trkpt lat="40.8149861" lon="8.8654215"><ele>68.33333333333334</ele><time>2026-04-26T09:52:50.979Z</time></trkpt><trkpt lat="40.8149974" lon="8.8655583"><ele>68.16666666666667</ele><time>2026-04-26T09:53:17.98Z</time></trkpt><trkpt lat="40.8149874" lon="8.8656437"><ele>68.0</ele><time>2026-04-26T09:53:19.979Z</time></trkpt><trkpt lat="40.8149685" lon="8.865755"><ele>68.0</ele><time>2026-04-26T09:53:22.979Z</time></trkpt><trkpt lat="40.814948" lon="8.8658564"><ele>68.0</ele><time>2026-04-26T09:53:26.979Z</time></trkpt><trkpt lat="40.8149288" lon="8.8659498"><ele>68.0</ele><time>2026-04-26T09:53:29.98Z</time></trkpt><trkpt lat="40.8149031" lon="8.8660665"><ele>68.0</ele><time>2026-04-26T09:53:32.979Z</time></trkpt><trkpt lat="40.8148781" lon="8.866163"><ele>68.0</ele><time>2026-04-26T09:53:35.981Z</time></trkpt><trkpt lat="40.8148554" lon="8.8662726"><ele>68.0</ele><time>2026-04-26T09:53:38.979Z</time></trkpt><trkpt lat="40.8148463" lon="8.8663578"><ele>67.83333333333334</ele><time>2026-04-26T09:53:40.979Z</time></trkpt><trkpt lat="40.8148401" lon="8.8664466"><ele>67.66666666666667</ele><time>2026-04-26T09:53:42.979Z</time></trkpt><trkpt lat="40.8148296" lon="8.8665526"><ele>67.5</ele><time>2026-04-26T09:53:44.979Z</time></trkpt><trkpt lat="40.8148197" lon="8.8666638"><ele>67.33333333333333</ele><time>2026-04-26T09:53:46.979Z</time></trkpt><trkpt lat="40.8148166" lon="8.8667666"><ele>67.16666666666666</ele><time>2026-04-26T09:53:48.98Z</time></trkpt><trkpt lat="40.8148249" lon="8.8668705"><ele>67.0</ele><time>2026-04-26T09:53:50.981Z</time></trkpt><trkpt lat="40.8148398" lon="8.8669605"><ele>66.71428571428572</ele><time>2026-04-26T09:53:52.978Z</time></trkpt><trkpt lat="40.8148612" lon="8.8670506"><ele>66.42857142857143</ele><time>2026-04-26T09:53:54.979Z</time></trkpt><trkpt lat="40.8148901" lon="8.8671365"><ele>66.14285714285714</ele><time>2026-04-26T09:53:56.98Z</time></trkpt><trkpt lat="40.8149203" lon="8.8672299"><ele>65.85714285714286</ele><time>2026-04-26T09:53:58.978Z</time></trkpt><trkpt lat="40.8149568" lon="8.8673155"><ele>65.57142857142857</ele><time>2026-04-26T09:54:00.979Z</time></trkpt><trkpt lat="40.8149927" lon="8.867397"><ele>65.28571428571429</ele><time>2026-04-26T09:54:02.979Z</time></trkpt><trkpt lat="40.8150268" lon="8.8674762"><ele>65.0</ele><time>2026-04-26T09:54:04.979Z</time></trkpt><trkpt lat="40.8150623" lon="8.8675541"><ele>65.16666666666667</ele><time>2026-04-26T09:54:06.979Z</time></trkpt><trkpt lat="40.8150956" lon="8.8676453"><ele>65.33333333333334</ele><time>2026-04-26T09:54:08.98Z</time></trkpt><trkpt lat="40.8151327" lon="8.8677346"><ele>65.5</ele><time>2026-04-26T09:54:10.978Z</time></trkpt><trkpt lat="40.8151661" lon="8.8678289"><ele>65.66666666666667</ele><time>2026-04-26T09:54:12.979Z</time></trkpt><trkpt lat="40.815197" lon="8.8679168"><ele>65.83333333333333</ele><time>2026-04-26T09:54:14.98Z</time></trkpt><trkpt lat="40.8152274" lon="8.8680027"><ele>66.0</ele><time>2026-04-26T09:54:16.979Z</time></trkpt><trkpt lat="40.8152651" lon="8.86809"><ele>66.0</ele><time>2026-04-26T09:54:18.98Z</time></trkpt><trkpt lat="40.8152978" lon="8.868177"><ele>66.0</ele><time>2026-04-26T09:54:20.98Z</time></trkpt><trkpt lat="40.8153299" lon="8.868262"><ele>66.0</ele><time>2026-04-26T09:54:22.978Z</time></trkpt><trkpt lat="40.8153592" lon="8.8683399"><ele>66.0</ele><time>2026-04-26T09:54:24.979Z</time></trkpt><trkpt lat="40.8153927" lon="8.8684268"><ele>66.0</ele><time>2026-04-26T09:54:26.98Z</time></trkpt><trkpt lat="40.8154272" lon="8.868515"><ele>66.0</ele><time>2026-04-26T09:54:28.982Z</time></trkpt><trkpt lat="40.8154587" lon="8.8686061"><ele>66.0</ele><time>2026-04-26T09:54:30.979Z</time></trkpt><trkpt lat="40.8154876" lon="8.8687058"><ele>65.83333333333333</ele><time>2026-04-26T09:54:32.981Z</time></trkpt><trkpt lat="40.8155209" lon="8.8688017"><ele>65.66666666666667</ele><time>2026-04-26T09:54:34.979Z</time></trkpt><trkpt lat="40.8155531" lon="8.8689017"><ele>65.5</ele><time>2026-04-26T09:54:36.979Z</time></trkpt><trkpt lat="40.8155877" lon="8.869005"><ele>65.33333333333334</ele><time>2026-04-26T09:54:38.979Z</time></trkpt><trkpt lat="40.8156263" lon="8.8691127"><ele>65.16666666666667</ele><time>2026-04-26T09:54:40.979Z</time></trkpt><trkpt lat="40.8156682" lon="8.8692353"><ele>65.0</ele><time>2026-04-26T09:54:42.978Z</time></trkpt><trkpt lat="40.8157091" lon="8.8693612"><ele>64.2</ele><time>2026-04-26T09:54:44.978Z</time></trkpt><trkpt lat="40.8157608" lon="8.8694732"><ele>63.4</ele><time>2026-04-26T09:54:46.977Z</time></trkpt><trkpt lat="40.8158175" lon="8.8696139"><ele>62.599999999999994</ele><time>2026-04-26T09:54:48.978Z</time></trkpt><trkpt lat="40.8158779" lon="8.8697498"><ele>61.8</ele><time>2026-04-26T09:54:50.98Z</time></trkpt><trkpt lat="40.815915" lon="8.869821"><ele>61.0</ele><time>2026-04-26T09:54:51.979Z</time></trkpt><trkpt lat="40.8159535" lon="8.8698884"><ele>61.99999999999999</ele><time>2026-04-26T09:54:52.978Z</time></trkpt><trkpt lat="40.8160275" lon="8.870023"><ele>63.0</ele><time>2026-04-26T09:54:54.978Z</time></trkpt><trkpt lat="40.8160688" lon="8.8700988"><ele>64.0</ele><time>2026-04-26T09:54:55.979Z</time></trkpt><trkpt lat="40.8161148" lon="8.8701799"><ele>65.0</ele><time>2026-04-26T09:54:56.979Z</time></trkpt><trkpt lat="40.8161562" lon="8.8702641"><ele>66.0</ele><time>2026-04-26T09:54:57.979Z</time></trkpt><trkpt lat="40.8161982" lon="8.8703505"><ele>67.0</ele><time>2026-04-26T09:54:58.979Z</time></trkpt><trkpt lat="40.8162383" lon="8.8704356"><ele>67.0</ele><time>2026-04-26T09:54:59.978Z</time></trkpt><trkpt lat="40.8162646" lon="8.870518"><ele>67.0</ele><time>2026-04-26T09:55:00.979Z</time></trkpt><trkpt lat="40.8163075" lon="8.8706554"><ele>67.0</ele><time>2026-04-26T09:55:02.978Z</time></trkpt><trkpt lat="40.8163627" lon="8.8707874"><ele>67.0</ele><time>2026-04-26T09:55:04.978Z</time></trkpt><trkpt lat="40.8164159" lon="8.8709207"><ele>67.0</ele><time>2026-04-26T09:55:06.978Z</time></trkpt><trkpt lat="40.8164699" lon="8.8710513"><ele>66.6</ele><time>2026-04-26T09:55:08.978Z</time></trkpt><trkpt lat="40.8165256" lon="8.8711751"><ele>66.2</ele><time>2026-04-26T09:55:10.979Z</time></trkpt><trkpt lat="40.8165637" lon="8.8712827"><ele>65.8</ele><time>2026-04-26T09:55:12.979Z</time></trkpt><trkpt lat="40.8166143" lon="8.8713957"><ele>65.4</ele><time>2026-04-26T09:55:14.978Z</time></trkpt><trkpt lat="40.8166621" lon="8.8715397"><ele>65.0</ele><time>2026-04-26T09:55:16.978Z</time></trkpt><trkpt lat="40.8166853" lon="8.8716176"><ele>65.0</ele><time>2026-04-26T09:55:17.978Z</time></trkpt><trkpt lat="40.8167124" lon="8.8716974"><ele>65.0</ele><time>2026-04-26T09:55:18.979Z</time></trkpt><trkpt lat="40.816734" lon="8.8717757"><ele>65.0</ele><time>2026-04-26T09:55:19.979Z</time></trkpt><trkpt lat="40.8167745" lon="8.8718942"><ele>65.0</ele><time>2026-04-26T09:55:21.978Z</time></trkpt><trkpt lat="40.8168279" lon="8.8719409"><ele>65.0</ele><time>2026-04-26T09:55:23.978Z</time></trkpt><trkpt lat="40.8169212" lon="8.8719258"><ele>65.0</ele><time>2026-04-26T09:55:25.979Z</time></trkpt><trkpt lat="40.817027" lon="8.8719348"><ele>65.25</ele><time>2026-04-26T09:55:27.978Z</time></trkpt><trkpt lat="40.8171331" lon="8.872044"><ele>65.5</ele><time>2026-04-26T09:55:29.979Z</time></trkpt><trkpt lat="40.817204" lon="8.8721238"><ele>65.75</ele><time>2026-04-26T09:55:30.978Z</time></trkpt><trkpt lat="40.8172996" lon="8.8722155"><ele>66.0</ele><time>2026-04-26T09:55:31.977Z</time></trkpt><trkpt lat="40.8173935" lon="8.8722995"><ele>66.0</ele><time>2026-04-26T09:55:32.979Z</time></trkpt><trkpt lat="40.8174789" lon="8.8723711"><ele>66.0</ele><time>2026-04-26T09:55:33.978Z</time></trkpt><trkpt lat="40.8175455" lon="8.8724272"><ele>66.0</ele><time>2026-04-26T09:55:34.978Z</time></trkpt><trkpt lat="40.8176026" lon="8.8724893"><ele>66.0</ele><time>2026-04-26T09:55:35.978Z</time></trkpt><trkpt lat="40.8176637" lon="8.8725693"><ele>66.0</ele><time>2026-04-26T09:55:36.978Z</time></trkpt><trkpt lat="40.8177424" lon="8.8726863"><ele>66.75</ele><time>2026-04-26T09:55:37.978Z</time></trkpt><trkpt lat="40.8178235" lon="8.8728139"><ele>67.5</ele><time>2026-04-26T09:55:38.979Z</time></trkpt><trkpt lat="40.8179091" lon="8.8729478"><ele>68.25</ele><time>2026-04-26T09:55:39.98Z</time></trkpt><trkpt lat="40.8179941" lon="8.8730773"><ele>69.0</ele><time>2026-04-26T09:55:40.979Z</time></trkpt><trkpt lat="40.8180815" lon="8.8732147"><ele>69.0</ele><time>2026-04-26T09:55:41.979Z</time></trkpt><trkpt lat="40.8181754" lon="8.8733614"><ele>69.0</ele><time>2026-04-26T09:55:42.979Z</time></trkpt><trkpt lat="40.8182694" lon="8.8734961"><ele>69.0</ele><time>2026-04-26T09:55:43.978Z</time></trkpt><trkpt lat="40.8183632" lon="8.8736105"><ele>69.0</ele><time>2026-04-26T09:55:44.978Z</time></trkpt><trkpt lat="40.8184559" lon="8.8737106"><ele>70.0</ele><time>2026-04-26T09:55:45.979Z</time></trkpt><trkpt lat="40.8185505" lon="8.873802"><ele>71.0</ele><time>2026-04-26T09:55:46.978Z</time></trkpt><trkpt lat="40.8186438" lon="8.8738824"><ele>72.0</ele><time>2026-04-26T09:55:47.979Z</time></trkpt><trkpt lat="40.8187351" lon="8.8739574"><ele>73.0</ele><time>2026-04-26T09:55:48.978Z</time></trkpt><trkpt lat="40.8188186" lon="8.8740252"><ele>74.0</ele><time>2026-04-26T09:55:49.979Z</time></trkpt><trkpt lat="40.8188966" lon="8.8740926"><ele>74.0</ele><time>2026-04-26T09:55:50.978Z</time></trkpt><trkpt lat="40.8189752" lon="8.8741574"><ele>74.0</ele><time>2026-04-26T09:55:51.977Z</time></trkpt><trkpt lat="40.8190511" lon="8.8742228"><ele>74.0</ele><time>2026-04-26T09:55:52.978Z</time></trkpt><trkpt lat="40.8191249" lon="8.8742891"><ele>74.0</ele><time>2026-04-26T09:55:53.978Z</time></trkpt><trkpt lat="40.8191953" lon="8.8743602"><ele>74.0</ele><time>2026-04-26T09:55:54.978Z</time></trkpt><trkpt lat="40.8192687" lon="8.8744483"><ele>74.2</ele><time>2026-04-26T09:55:55.977Z</time></trkpt><trkpt lat="40.8193422" lon="8.8745506"><ele>74.4</ele><time>2026-04-26T09:55:56.978Z</time></trkpt><trkpt lat="40.8194117" lon="8.8746591"><ele>74.6</ele><time>2026-04-26T09:55:57.979Z</time></trkpt><trkpt lat="40.8194794" lon="8.8747715"><ele>74.8</ele><time>2026-04-26T09:55:58.979Z</time></trkpt><trkpt lat="40.8195432" lon="8.8748841"><ele>75.0</ele><time>2026-04-26T09:55:59.978Z</time></trkpt><trkpt lat="40.8196077" lon="8.874996"><ele>74.6</ele><time>2026-04-26T09:56:00.978Z</time></trkpt><trkpt lat="40.8196737" lon="8.8751078"><ele>74.2</ele><time>2026-04-26T09:56:01.978Z</time></trkpt><trkpt lat="40.8197385" lon="8.8752229"><ele>73.8</ele><time>2026-04-26T09:56:02.98Z</time></trkpt><trkpt lat="40.8198033" lon="8.8753384"><ele>73.4</ele><time>2026-04-26T09:56:03.979Z</time></trkpt><trkpt lat="40.8198745" lon="8.8754464"><ele>73.0</ele><time>2026-04-26T09:56:04.978Z</time></trkpt><trkpt lat="40.8199536" lon="8.875535"><ele>73.0</ele><time>2026-04-26T09:56:05.978Z</time></trkpt><trkpt lat="40.8200364" lon="8.8756138"><ele>73.0</ele><time>2026-04-26T09:56:06.979Z</time></trkpt><trkpt lat="40.8201189" lon="8.8756872"><ele>73.0</ele><time>2026-04-26T09:56:07.981Z</time></trkpt><trkpt lat="40.8201971" lon="8.8757567"><ele>73.0</ele><time>2026-04-26T09:56:08.981Z</time></trkpt><trkpt lat="40.8202679" lon="8.8758306"><ele>73.0</ele><time>2026-04-26T09:56:09.98Z</time></trkpt><trkpt lat="40.8203315" lon="8.8759149"><ele>72.6</ele><time>2026-04-26T09:56:10.977Z</time></trkpt><trkpt lat="40.8203797" lon="8.876008"><ele>72.19999999999999</ele><time>2026-04-26T09:56:11.979Z</time></trkpt><trkpt lat="40.8204145" lon="8.8761135"><ele>71.8</ele><time>2026-04-26T09:56:12.981Z</time></trkpt><trkpt lat="40.8204368" lon="8.8762336"><ele>71.39999999999999</ele><time>2026-04-26T09:56:13.979Z</time></trkpt><trkpt lat="40.8204503" lon="8.8763672"><ele>71.0</ele><time>2026-04-26T09:56:14.978Z</time></trkpt><trkpt lat="40.8204557" lon="8.8765112"><ele>71.0</ele><time>2026-04-26T09:56:15.979Z</time></trkpt><trkpt lat="40.8204554" lon="8.87666"><ele>71.0</ele><time>2026-04-26T09:56:16.979Z</time></trkpt><trkpt lat="40.8204493" lon="8.8768109"><ele>71.0</ele><time>2026-04-26T09:56:17.979Z</time></trkpt><trkpt lat="40.8204378" lon="8.8769563"><ele>71.0</ele><time>2026-04-26T09:56:18.979Z</time></trkpt><trkpt lat="40.8204255" lon="8.8770889"><ele>71.0</ele><time>2026-04-26T09:56:19.985Z</time></trkpt><trkpt lat="40.8204171" lon="8.8772148"><ele>71.0</ele><time>2026-04-26T09:56:20.979Z</time></trkpt><trkpt lat="40.8204211" lon="8.8773291"><ele>71.0</ele><time>2026-04-26T09:56:21.978Z</time></trkpt><trkpt lat="40.8204427" lon="8.8774324"><ele>71.0</ele><time>2026-04-26T09:56:22.979Z</time></trkpt><trkpt lat="40.8204841" lon="8.8775342"><ele>71.0</ele><time>2026-04-26T09:56:23.978Z</time></trkpt><trkpt lat="40.8205439" lon="8.877632"><ele>71.0</ele><time>2026-04-26T09:56:24.978Z</time></trkpt><trkpt lat="40.8206077" lon="8.877733"><ele>71.0</ele><time>2026-04-26T09:56:25.98Z</time></trkpt><trkpt lat="40.8206701" lon="8.8778354"><ele>71.0</ele><time>2026-04-26T09:56:26.979Z</time></trkpt><trkpt lat="40.8207283" lon="8.8779368"><ele>71.0</ele><time>2026-04-26T09:56:27.979Z</time></trkpt><trkpt lat="40.8207785" lon="8.8780403"><ele>71.0</ele><time>2026-04-26T09:56:28.979Z</time></trkpt><trkpt lat="40.8208229" lon="8.8781497"><ele>71.0</ele><time>2026-04-26T09:56:29.978Z</time></trkpt><trkpt lat="40.8208631" lon="8.8782623"><ele>71.0</ele><time>2026-04-26T09:56:30.978Z</time></trkpt><trkpt lat="40.8209012" lon="8.8783776"><ele>71.0</ele><time>2026-04-26T09:56:31.977Z</time></trkpt><trkpt lat="40.8209381" lon="8.8784991"><ele>71.0</ele><time>2026-04-26T09:56:32.978Z</time></trkpt><trkpt lat="40.8209758" lon="8.8786229"><ele>71.0</ele><time>2026-04-26T09:56:33.978Z</time></trkpt><trkpt lat="40.8210133" lon="8.878748"><ele>71.0</ele><time>2026-04-26T09:56:34.979Z</time></trkpt><trkpt lat="40.8210521" lon="8.8788746"><ele>71.2</ele><time>2026-04-26T09:56:35.978Z</time></trkpt><trkpt lat="40.8210906" lon="8.8790036"><ele>71.39999999999999</ele><time>2026-04-26T09:56:36.979Z</time></trkpt><trkpt lat="40.8211335" lon="8.8791275"><ele>71.6</ele><time>2026-04-26T09:56:37.979Z</time></trkpt><trkpt lat="40.8211787" lon="8.8792529"><ele>71.8</ele><time>2026-04-26T09:56:38.98Z</time></trkpt><trkpt lat="40.8212257" lon="8.8793801"><ele>72.0</ele><time>2026-04-26T09:56:39.979Z</time></trkpt><trkpt lat="40.8212767" lon="8.8795051"><ele>71.4</ele><time>2026-04-26T09:56:40.98Z</time></trkpt><trkpt lat="40.8213254" lon="8.8796323"><ele>70.80000000000001</ele><time>2026-04-26T09:56:41.978Z</time></trkpt><trkpt lat="40.8213723" lon="8.8797571"><ele>70.2</ele><time>2026-04-26T09:56:42.979Z</time></trkpt><trkpt lat="40.8214178" lon="8.8798784"><ele>69.60000000000001</ele><time>2026-04-26T09:56:43.978Z</time></trkpt><trkpt lat="40.8214594" lon="8.8799986"><ele>69.0</ele><time>2026-04-26T09:56:44.979Z</time></trkpt><trkpt lat="40.8214933" lon="8.8801161"><ele>68.8</ele><time>2026-04-26T09:56:45.979Z</time></trkpt><trkpt lat="40.8215255" lon="8.8802412"><ele>68.60000000000001</ele><time>2026-04-26T09:56:46.978Z</time></trkpt><trkpt lat="40.8215543" lon="8.8803822"><ele>68.4</ele><time>2026-04-26T09:56:47.979Z</time></trkpt><trkpt lat="40.8215791" lon="8.8805236"><ele>68.2</ele><time>2026-04-26T09:56:48.979Z</time></trkpt><trkpt lat="40.8215998" lon="8.8806617"><ele>68.0</ele><time>2026-04-26T09:56:49.978Z</time></trkpt><trkpt lat="40.8216163" lon="8.8807992"><ele>68.0</ele><time>2026-04-26T09:56:50.982Z</time></trkpt><trkpt lat="40.8216361" lon="8.8809316"><ele>68.0</ele><time>2026-04-26T09:56:51.979Z</time></trkpt><trkpt lat="40.8216588" lon="8.8810621"><ele>68.0</ele><time>2026-04-26T09:56:52.978Z</time></trkpt><trkpt lat="40.8216874" lon="8.8811949"><ele>68.0</ele><time>2026-04-26T09:56:53.979Z</time></trkpt><trkpt lat="40.8217253" lon="8.8813265"><ele>68.0</ele><time>2026-04-26T09:56:54.978Z</time></trkpt><trkpt lat="40.8217732" lon="8.8814536"><ele>69.75</ele><time>2026-04-26T09:56:55.979Z</time></trkpt><trkpt lat="40.8218191" lon="8.8815862"><ele>71.5</ele><time>2026-04-26T09:56:56.978Z</time></trkpt><trkpt lat="40.8218676" lon="8.881721"><ele>73.25</ele><time>2026-04-26T09:56:57.978Z</time></trkpt><trkpt lat="40.8219185" lon="8.8818548"><ele>75.0</ele><time>2026-04-26T09:56:58.979Z</time></trkpt><trkpt lat="40.8219683" lon="8.8819932"><ele>75.0</ele><time>2026-04-26T09:56:59.981Z</time></trkpt><trkpt lat="40.8220154" lon="8.8821342"><ele>75.0</ele><time>2026-04-26T09:57:00.979Z</time></trkpt><trkpt lat="40.822065" lon="8.8822707"><ele>75.0</ele><time>2026-04-26T09:57:01.978Z</time></trkpt><trkpt lat="40.8221175" lon="8.8824068"><ele>75.0</ele><time>2026-04-26T09:57:02.979Z</time></trkpt><trkpt lat="40.8221723" lon="8.882534"><ele>73.8</ele><time>2026-04-26T09:57:03.978Z</time></trkpt><trkpt lat="40.8222268" lon="8.882646"><ele>72.6</ele><time>2026-04-26T09:57:04.979Z</time></trkpt><trkpt lat="40.8222756" lon="8.8827394"><ele>71.4</ele><time>2026-04-26T09:57:05.978Z</time></trkpt><trkpt lat="40.8223148" lon="8.8828153"><ele>70.2</ele><time>2026-04-26T09:57:06.978Z</time></trkpt><trkpt lat="40.8223755" lon="8.8829142"><ele>69.0</ele><time>2026-04-26T09:57:08.978Z</time></trkpt><trkpt lat="40.8224462" lon="8.8830066"><ele>69.0</ele><time>2026-04-26T09:57:10.978Z</time></trkpt><trkpt lat="40.8225028" lon="8.8830537"><ele>69.0</ele><time>2026-04-26T09:57:11.979Z</time></trkpt><trkpt lat="40.8225751" lon="8.8831037"><ele>69.0</ele><time>2026-04-26T09:57:12.979Z</time></trkpt><trkpt lat="40.8226603" lon="8.8831625"><ele>69.0</ele><time>2026-04-26T09:57:13.979Z</time></trkpt><trkpt lat="40.8227576" lon="8.8832324"><ele>69.0</ele><time>2026-04-26T09:57:14.978Z</time></trkpt><trkpt lat="40.822868" lon="8.8833072"><ele>69.25</ele><time>2026-04-26T09:57:15.979Z</time></trkpt><trkpt lat="40.8229915" lon="8.883381"><ele>69.5</ele><time>2026-04-26T09:57:16.978Z</time></trkpt><trkpt lat="40.82312" lon="8.8834488"><ele>69.75</ele><time>2026-04-26T09:57:17.978Z</time></trkpt><trkpt lat="40.8232445" lon="8.8835064"><ele>70.0</ele><time>2026-04-26T09:57:18.979Z</time></trkpt><trkpt lat="40.8233633" lon="8.8835594"><ele>68.8</ele><time>2026-04-26T09:57:19.978Z</time></trkpt><trkpt lat="40.8234797" lon="8.8836096"><ele>67.6</ele><time>2026-04-26T09:57:20.98Z</time></trkpt><trkpt lat="40.8235869" lon="8.883654"><ele>66.4</ele><time>2026-04-26T09:57:21.979Z</time></trkpt><trkpt lat="40.8236842" lon="8.8836966"><ele>65.2</ele><time>2026-04-26T09:57:22.979Z</time></trkpt><trkpt lat="40.8237748" lon="8.8837398"><ele>64.0</ele><time>2026-04-26T09:57:23.978Z</time></trkpt><trkpt lat="40.8238491" lon="8.8837784"><ele>62.99999999999999</ele><time>2026-04-26T09:57:24.978Z</time></trkpt><trkpt lat="40.823911" lon="8.8838117"><ele>62.0</ele><time>2026-04-26T09:57:25.979Z</time></trkpt><trkpt lat="40.8239833" lon="8.8838636"><ele>61.0</ele><time>2026-04-26T09:57:27.977Z</time></trkpt><trkpt lat="40.8240332" lon="8.8839297"><ele>60.0</ele><time>2026-04-26T09:57:29.979Z</time></trkpt><trkpt lat="40.8240603" lon="8.8840496"><ele>58.99999999999999</ele><time>2026-04-26T09:57:31.979Z</time></trkpt><trkpt lat="40.8240523" lon="8.884136"><ele>58.0</ele><time>2026-04-26T09:57:32.98Z</time></trkpt><trkpt lat="40.8240305" lon="8.8842319"><ele>57.4</ele><time>2026-04-26T09:57:33.979Z</time></trkpt><trkpt lat="40.823995" lon="8.8843356"><ele>56.8</ele><time>2026-04-26T09:57:34.982Z</time></trkpt><trkpt lat="40.8239548" lon="8.8844373"><ele>56.2</ele><time>2026-04-26T09:57:35.979Z</time></trkpt><trkpt lat="40.8238955" lon="8.8845393"><ele>55.6</ele><time>2026-04-26T09:57:36.978Z</time></trkpt><trkpt lat="40.823835" lon="8.8846427"><ele>55.0</ele><time>2026-04-26T09:57:37.978Z</time></trkpt><trkpt lat="40.8237834" lon="8.8847504"><ele>54.99999999999999</ele><time>2026-04-26T09:57:38.978Z</time></trkpt><trkpt lat="40.8237666" lon="8.8848572"><ele>55.0</ele><time>2026-04-26T09:57:39.978Z</time></trkpt><trkpt lat="40.8237867" lon="8.8849557"><ele>55.0</ele><time>2026-04-26T09:57:40.979Z</time></trkpt><trkpt lat="40.8238578" lon="8.8849871"><ele>55.0</ele><time>2026-04-26T09:57:41.979Z</time></trkpt><trkpt lat="40.8239342" lon="8.8849837"><ele>54.99999999999999</ele><time>2026-04-26T09:57:42.979Z</time></trkpt><trkpt lat="40.8240153" lon="8.8849311"><ele>55.0</ele><time>2026-04-26T09:57:43.979Z</time></trkpt><trkpt lat="40.8240939" lon="8.8848592"><ele>55.0</ele><time>2026-04-26T09:57:44.979Z</time></trkpt><trkpt lat="40.8241615" lon="8.8847515"><ele>55.0</ele><time>2026-04-26T09:57:45.978Z</time></trkpt><trkpt lat="40.8242342" lon="8.8846457"><ele>55.0</ele><time>2026-04-26T09:57:46.979Z</time></trkpt><trkpt lat="40.8243084" lon="8.8845414"><ele>55.0</ele><time>2026-04-26T09:57:47.978Z</time></trkpt><trkpt lat="40.8243834" lon="8.8844435"><ele>55.0</ele><time>2026-04-26T09:57:48.979Z</time></trkpt><trkpt lat="40.8244611" lon="8.8843615"><ele>54.49999999999999</ele><time>2026-04-26T09:57:49.979Z</time></trkpt><trkpt lat="40.8245377" lon="8.8842906"><ele>54.0</ele><time>2026-04-26T09:57:50.98Z</time></trkpt><trkpt lat="40.8246221" lon="8.8842427"><ele>53.5</ele><time>2026-04-26T09:57:51.978Z</time></trkpt><trkpt lat="40.8246996" lon="8.8842189"><ele>53.0</ele><time>2026-04-26T09:57:52.979Z</time></trkpt><trkpt lat="40.8247771" lon="8.8842161"><ele>52.49999999999999</ele><time>2026-04-26T09:57:53.982Z</time></trkpt><trkpt lat="40.8248414" lon="8.8842346"><ele>52.0</ele><time>2026-04-26T09:57:54.978Z</time></trkpt><trkpt lat="40.8249572" lon="8.8843001"><ele>51.49999999999999</ele><time>2026-04-26T09:57:56.979Z</time></trkpt><trkpt lat="40.8250224" lon="8.8843305"><ele>51.0</ele><time>2026-04-26T09:57:57.979Z</time></trkpt><trkpt lat="40.8250966" lon="8.8843673"><ele>50.5</ele><time>2026-04-26T09:57:58.979Z</time></trkpt><trkpt lat="40.8251773" lon="8.8844148"><ele>50.0</ele><time>2026-04-26T09:57:59.979Z</time></trkpt><trkpt lat="40.8252641" lon="8.8844707"><ele>49.49999999999999</ele><time>2026-04-26T09:58:00.978Z</time></trkpt><trkpt lat="40.8253501" lon="8.8845276"><ele>49.0</ele><time>2026-04-26T09:58:01.979Z</time></trkpt><trkpt lat="40.8254375" lon="8.8845852"><ele>48.800000000000004</ele><time>2026-04-26T09:58:02.979Z</time></trkpt><trkpt lat="40.825529" lon="8.8846447"><ele>48.6</ele><time>2026-04-26T09:58:03.979Z</time></trkpt><trkpt lat="40.8256177" lon="8.8847045"><ele>48.4</ele><time>2026-04-26T09:58:04.977Z</time></trkpt><trkpt lat="40.8257071" lon="8.8847636"><ele>48.2</ele><time>2026-04-26T09:58:05.979Z</time></trkpt><trkpt lat="40.8258003" lon="8.8848235"><ele>48.0</ele><time>2026-04-26T09:58:06.978Z</time></trkpt><trkpt lat="40.8258977" lon="8.8848873"><ele>48.8</ele><time>2026-04-26T09:58:07.979Z</time></trkpt><trkpt lat="40.8259953" lon="8.88495"><ele>49.599999999999994</ele><time>2026-04-26T09:58:08.979Z</time></trkpt><trkpt lat="40.8260933" lon="8.885015"><ele>50.400000000000006</ele><time>2026-04-26T09:58:09.978Z</time></trkpt><trkpt lat="40.8261898" lon="8.885081"><ele>51.2</ele><time>2026-04-26T09:58:10.978Z</time></trkpt><trkpt lat="40.8262839" lon="8.8851465"><ele>52.0</ele><time>2026-04-26T09:58:11.98Z</time></trkpt><trkpt lat="40.8263743" lon="8.8852112"><ele>52.49999999999999</ele><time>2026-04-26T09:58:12.978Z</time></trkpt><trkpt lat="40.8264578" lon="8.8852752"><ele>53.0</ele><time>2026-04-26T09:58:13.978Z</time></trkpt><trkpt lat="40.8265337" lon="8.8853299"><ele>53.5</ele><time>2026-04-26T09:58:14.978Z</time></trkpt><trkpt lat="40.826599" lon="8.8853794"><ele>54.0</ele><time>2026-04-26T09:58:15.978Z</time></trkpt><trkpt lat="40.8266537" lon="8.8854291"><ele>54.49999999999999</ele><time>2026-04-26T09:58:16.978Z</time></trkpt><trkpt lat="40.8267164" lon="8.8855428"><ele>55.0</ele><time>2026-04-26T09:58:18.98Z</time></trkpt><trkpt lat="40.8267082" lon="8.8857061"><ele>55.0</ele><time>2026-04-26T09:58:20.979Z</time></trkpt><trkpt lat="40.8266745" lon="8.8858028"><ele>55.0</ele><time>2026-04-26T09:58:21.978Z</time></trkpt><trkpt lat="40.8266209" lon="8.8859177"><ele>55.0</ele><time>2026-04-26T09:58:22.979Z</time></trkpt><trkpt lat="40.8265618" lon="8.8860487"><ele>55.0</ele><time>2026-04-26T09:58:23.978Z</time></trkpt><trkpt lat="40.8265026" lon="8.8861836"><ele>55.0</ele><time>2026-04-26T09:58:24.979Z</time></trkpt><trkpt lat="40.8264435" lon="8.8863267"><ele>56.0</ele><time>2026-04-26T09:58:25.978Z</time></trkpt><trkpt lat="40.8263785" lon="8.886475"><ele>57.0</ele><time>2026-04-26T09:58:26.979Z</time></trkpt><trkpt lat="40.8263162" lon="8.8866287"><ele>58.0</ele><time>2026-04-26T09:58:27.978Z</time></trkpt><trkpt lat="40.8262536" lon="8.8867936"><ele>59.0</ele><time>2026-04-26T09:58:28.979Z</time></trkpt><trkpt lat="40.8261908" lon="8.8869607"><ele>58.0</ele><time>2026-04-26T09:58:29.98Z</time></trkpt><trkpt lat="40.8261221" lon="8.8871315"><ele>57.0</ele><time>2026-04-26T09:58:30.978Z</time></trkpt><trkpt lat="40.8260521" lon="8.8873019"><ele>56.0</ele><time>2026-04-26T09:58:31.978Z</time></trkpt><trkpt lat="40.8259856" lon="8.8874665"><ele>55.0</ele><time>2026-04-26T09:58:32.98Z</time></trkpt><trkpt lat="40.8259258" lon="8.8876295"><ele>55.0</ele><time>2026-04-26T09:58:33.979Z</time></trkpt><trkpt lat="40.8258856" lon="8.8877767"><ele>55.0</ele><time>2026-04-26T09:58:34.98Z</time></trkpt><trkpt lat="40.8258709" lon="8.8879084"><ele>55.0</ele><time>2026-04-26T09:58:35.979Z</time></trkpt><trkpt lat="40.8258647" lon="8.888028"><ele>55.0</ele><time>2026-04-26T09:58:36.979Z</time></trkpt><trkpt lat="40.8258588" lon="8.8881243"><ele>55.0</ele><time>2026-04-26T09:58:37.978Z</time></trkpt><trkpt lat="40.8258665" lon="8.8882203"><ele>54.99999999999999</ele><time>2026-04-26T09:58:40.979Z</time></trkpt><trkpt lat="40.8258238" lon="8.8883161"><ele>55.0</ele><time>2026-04-26T09:58:46.979Z</time></trkpt><trkpt lat="40.8257536" lon="8.8883943"><ele>55.0</ele><time>2026-04-26T09:58:48.978Z</time></trkpt><trkpt lat="40.8256936" lon="8.8884412"><ele>55.0</ele><time>2026-04-26T09:58:50.978Z</time></trkpt><trkpt lat="40.8256143" lon="8.888425"><ele>54.99999999999999</ele><time>2026-04-26T09:58:53.979Z</time></trkpt><trkpt lat="40.8255529" lon="8.8883501"><ele>55.0</ele><time>2026-04-26T09:58:55.979Z</time></trkpt><trkpt lat="40.825471" lon="8.8882326"><ele>55.0</ele><time>2026-04-26T09:58:57.978Z</time></trkpt><trkpt lat="40.8253651" lon="8.8881622"><ele>55.0</ele><time>2026-04-26T09:58:59.978Z</time></trkpt><trkpt lat="40.825264" lon="8.8881745"><ele>55.0</ele><time>2026-04-26T09:59:01.978Z</time></trkpt><trkpt lat="40.8251925" lon="8.8882702"><ele>55.0</ele><time>2026-04-26T09:59:03.98Z</time></trkpt><trkpt lat="40.8251686" lon="8.888351"><ele>55.0</ele><time>2026-04-26T09:59:04.98Z</time></trkpt><trkpt lat="40.825148" lon="8.8884402"><ele>54.666666666666664</ele><time>2026-04-26T09:59:05.979Z</time></trkpt><trkpt lat="40.8251275" lon="8.8885361"><ele>54.33333333333333</ele><time>2026-04-26T09:59:06.979Z</time></trkpt><trkpt lat="40.8251021" lon="8.8886372"><ele>54.0</ele><time>2026-04-26T09:59:07.979Z</time></trkpt><trkpt lat="40.8250738" lon="8.8887463"><ele>53.66666666666667</ele><time>2026-04-26T09:59:08.978Z</time></trkpt><trkpt lat="40.825038" lon="8.8888623"><ele>53.333333333333336</ele><time>2026-04-26T09:59:09.98Z</time></trkpt><trkpt lat="40.8249993" lon="8.8889894"><ele>53.0</ele><time>2026-04-26T09:59:10.979Z</time></trkpt><trkpt lat="40.8249555" lon="8.8891254"><ele>53.75</ele><time>2026-04-26T09:59:11.978Z</time></trkpt><trkpt lat="40.8249104" lon="8.8892673"><ele>54.5</ele><time>2026-04-26T09:59:12.979Z</time></trkpt><trkpt lat="40.8248602" lon="8.8894145"><ele>55.25</ele><time>2026-04-26T09:59:13.979Z</time></trkpt><trkpt lat="40.8248064" lon="8.8895639"><ele>56.0</ele><time>2026-04-26T09:59:14.979Z</time></trkpt><trkpt lat="40.824751" lon="8.8897163"><ele>56.0</ele><time>2026-04-26T09:59:15.979Z</time></trkpt><trkpt lat="40.8246988" lon="8.889871"><ele>56.0</ele><time>2026-04-26T09:59:16.978Z</time></trkpt><trkpt lat="40.8246569" lon="8.890028"><ele>56.0</ele><time>2026-04-26T09:59:17.979Z</time></trkpt><trkpt lat="40.8246276" lon="8.890189"><ele>56.0</ele><time>2026-04-26T09:59:18.978Z</time></trkpt><trkpt lat="40.8246138" lon="8.8903512"><ele>56.75</ele><time>2026-04-26T09:59:19.98Z</time></trkpt><trkpt lat="40.8246068" lon="8.8905163"><ele>57.5</ele><time>2026-04-26T09:59:20.979Z</time></trkpt><trkpt lat="40.8245988" lon="8.8906833"><ele>58.25</ele><time>2026-04-26T09:59:21.978Z</time></trkpt><trkpt lat="40.8245931" lon="8.8908433"><ele>59.0</ele><time>2026-04-26T09:59:22.978Z</time></trkpt><trkpt lat="40.8245898" lon="8.8909961"><ele>57.5</ele><time>2026-04-26T09:59:23.979Z</time></trkpt><trkpt lat="40.8245939" lon="8.8911468"><ele>56.0</ele><time>2026-04-26T09:59:24.979Z</time></trkpt><trkpt lat="40.824605" lon="8.8912983"><ele>54.5</ele><time>2026-04-26T09:59:25.979Z</time></trkpt><trkpt lat="40.8246191" lon="8.891449"><ele>53.0</ele><time>2026-04-26T09:59:26.979Z</time></trkpt><trkpt lat="40.8246408" lon="8.8915971"><ele>53.0</ele><time>2026-04-26T09:59:27.981Z</time></trkpt><trkpt lat="40.824678" lon="8.8917376"><ele>53.0</ele><time>2026-04-26T09:59:28.979Z</time></trkpt><trkpt lat="40.8247316" lon="8.8918795"><ele>53.0</ele><time>2026-04-26T09:59:29.984Z</time></trkpt><trkpt lat="40.8247966" lon="8.8920167"><ele>53.0</ele><time>2026-04-26T09:59:30.979Z</time></trkpt><trkpt lat="40.8248708" lon="8.8921486"><ele>52.0</ele><time>2026-04-26T09:59:31.979Z</time></trkpt><trkpt lat="40.824953" lon="8.8922787"><ele>51.0</ele><time>2026-04-26T09:59:32.978Z</time></trkpt><trkpt lat="40.8250475" lon="8.8924011"><ele>50.0</ele><time>2026-04-26T09:59:33.978Z</time></trkpt><trkpt lat="40.8251477" lon="8.8925184"><ele>49.0</ele><time>2026-04-26T09:59:34.978Z</time></trkpt><trkpt lat="40.8252484" lon="8.8926375"><ele>49.0</ele><time>2026-04-26T09:59:35.979Z</time></trkpt><trkpt lat="40.8253505" lon="8.8927606"><ele>49.0</ele><time>2026-04-26T09:59:36.979Z</time></trkpt><trkpt lat="40.8254511" lon="8.8928847"><ele>49.0</ele><time>2026-04-26T09:59:37.978Z</time></trkpt><trkpt lat="40.8255516" lon="8.8930106"><ele>49.0</ele><time>2026-04-26T09:59:38.978Z</time></trkpt><trkpt lat="40.825651" lon="8.8931348"><ele>49.0</ele><time>2026-04-26T09:59:39.978Z</time></trkpt><trkpt lat="40.8257467" lon="8.8932548"><ele>49.0</ele><time>2026-04-26T09:59:40.978Z</time></trkpt><trkpt lat="40.8258374" lon="8.8933701"><ele>49.0</ele><time>2026-04-26T09:59:41.979Z</time></trkpt><trkpt lat="40.825922" lon="8.8934806"><ele>49.0</ele><time>2026-04-26T09:59:42.979Z</time></trkpt><trkpt lat="40.8260004" lon="8.8935889"><ele>48.666666666666664</ele><time>2026-04-26T09:59:43.978Z</time></trkpt><trkpt lat="40.8260715" lon="8.89369"><ele>48.33333333333333</ele><time>2026-04-26T09:59:44.979Z</time></trkpt><trkpt lat="40.8261324" lon="8.8937862"><ele>48.0</ele><time>2026-04-26T09:59:45.978Z</time></trkpt><trkpt lat="40.8261724" lon="8.8938835"><ele>47.666666666666664</ele><time>2026-04-26T09:59:46.979Z</time></trkpt><trkpt lat="40.8261949" lon="8.893981"><ele>47.33333333333333</ele><time>2026-04-26T09:59:47.979Z</time></trkpt><trkpt lat="40.8261872" lon="8.894069"><ele>47.0</ele><time>2026-04-26T09:59:48.98Z</time></trkpt><trkpt lat="40.8261371" lon="8.894164"><ele>47.0</ele><time>2026-04-26T09:59:49.978Z</time></trkpt><trkpt lat="40.8260604" lon="8.8942519"><ele>47.0</ele><time>2026-04-26T09:59:50.979Z</time></trkpt><trkpt lat="40.8259719" lon="8.8943277"><ele>47.0</ele><time>2026-04-26T09:59:51.978Z</time></trkpt><trkpt lat="40.8258811" lon="8.8944042"><ele>47.0</ele><time>2026-04-26T09:59:52.979Z</time></trkpt><trkpt lat="40.8257908" lon="8.8944819"><ele>47.0</ele><time>2026-04-26T09:59:53.979Z</time></trkpt><trkpt lat="40.8257077" lon="8.8945628"><ele>45.83333333333333</ele><time>2026-04-26T09:59:54.979Z</time></trkpt><trkpt lat="40.8256341" lon="8.8946371"><ele>44.666666666666664</ele><time>2026-04-26T09:59:55.979Z</time></trkpt><trkpt lat="40.8255675" lon="8.8947056"><ele>43.5</ele><time>2026-04-26T09:59:56.979Z</time></trkpt><trkpt lat="40.8255092" lon="8.8947744"><ele>42.333333333333336</ele><time>2026-04-26T09:59:57.979Z</time></trkpt><trkpt lat="40.8254614" lon="8.8948396"><ele>41.16666666666667</ele><time>2026-04-26T09:59:58.978Z</time></trkpt><trkpt lat="40.8253934" lon="8.8949427"><ele>40.0</ele><time>2026-04-26T10:00:00.979Z</time></trkpt><trkpt lat="40.8253652" lon="8.8950199"><ele>40.0</ele><time>2026-04-26T10:00:04.98Z</time></trkpt><trkpt lat="40.8254227" lon="8.8950657"><ele>40.0</ele><time>2026-04-26T10:00:08.98Z</time></trkpt><trkpt lat="40.825478" lon="8.8951103"><ele>40.0</ele><time>2026-04-26T10:00:10.979Z</time></trkpt><trkpt lat="40.8255416" lon="8.8951645"><ele>40.0</ele><time>2026-04-26T10:00:12.978Z</time></trkpt><trkpt lat="40.8256111" lon="8.8952386"><ele>40.0</ele><time>2026-04-26T10:00:14.979Z</time></trkpt><trkpt lat="40.8256882" lon="8.8953489"><ele>40.0</ele><time>2026-04-26T10:00:16.979Z</time></trkpt><trkpt lat="40.8257302" lon="8.8954126"><ele>39.833333333333336</ele><time>2026-04-26T10:00:17.978Z</time></trkpt><trkpt lat="40.8257737" lon="8.8954803"><ele>39.66666666666667</ele><time>2026-04-26T10:00:18.978Z</time></trkpt><trkpt lat="40.8258214" lon="8.8955466"><ele>39.5</ele><time>2026-04-26T10:00:19.978Z</time></trkpt><trkpt lat="40.8258733" lon="8.8956067"><ele>39.333333333333336</ele><time>2026-04-26T10:00:20.979Z</time></trkpt><trkpt lat="40.8259717" lon="8.895694"><ele>39.166666666666664</ele><time>2026-04-26T10:00:22.979Z</time></trkpt><trkpt lat="40.8260794" lon="8.8957553"><ele>39.0</ele><time>2026-04-26T10:00:24.979Z</time></trkpt><trkpt lat="40.8261425" lon="8.8957888"><ele>38.8</ele><time>2026-04-26T10:00:25.979Z</time></trkpt><trkpt lat="40.8262545" lon="8.8958402"><ele>38.599999999999994</ele><time>2026-04-26T10:00:27.98Z</time></trkpt><trkpt lat="40.8263556" lon="8.8958917"><ele>38.4</ele><time>2026-04-26T10:00:29.978Z</time></trkpt><trkpt lat="40.826462" lon="8.8959443"><ele>38.199999999999996</ele><time>2026-04-26T10:00:31.979Z</time></trkpt><trkpt lat="40.8265232" lon="8.8959675"><ele>38.0</ele><time>2026-04-26T10:00:32.98Z</time></trkpt><trkpt lat="40.8265879" lon="8.8959873"><ele>38.0</ele><time>2026-04-26T10:00:33.978Z</time></trkpt><trkpt lat="40.8267019" lon="8.8960088"><ele>38.0</ele><time>2026-04-26T10:00:35.979Z</time></trkpt><trkpt lat="40.8267918" lon="8.8960053"><ele>38.0</ele><time>2026-04-26T10:00:37.979Z</time></trkpt><trkpt lat="40.8268939" lon="8.8959669"><ele>38.0</ele><time>2026-04-26T10:00:39.979Z</time></trkpt><trkpt lat="40.8269932" lon="8.8959196"><ele>38.0</ele><time>2026-04-26T10:00:41.98Z</time></trkpt><trkpt lat="40.8270678" lon="8.8959106"><ele>38.0</ele><time>2026-04-26T10:00:43.98Z</time></trkpt><trkpt lat="40.8271484" lon="8.8959444"><ele>38.0</ele><time>2026-04-26T10:00:45.98Z</time></trkpt><trkpt lat="40.8272479" lon="8.896014"><ele>38.0</ele><time>2026-04-26T10:00:47.979Z</time></trkpt><trkpt lat="40.8273047" lon="8.8960504"><ele>38.0</ele><time>2026-04-26T10:00:48.98Z</time></trkpt><trkpt lat="40.827364" lon="8.8960877"><ele>38.0</ele><time>2026-04-26T10:00:49.979Z</time></trkpt><trkpt lat="40.8274191" lon="8.8961285"><ele>38.0</ele><time>2026-04-26T10:00:50.978Z</time></trkpt><trkpt lat="40.8275071" lon="8.8962079"><ele>38.0</ele><time>2026-04-26T10:00:52.979Z</time></trkpt><trkpt lat="40.8275738" lon="8.8962733"><ele>38.0</ele><time>2026-04-26T10:00:54.98Z</time></trkpt><trkpt lat="40.8276343" lon="8.8963293"><ele>38.0</ele><time>2026-04-26T10:00:56.98Z</time></trkpt><trkpt lat="40.8276879" lon="8.8963845"><ele>38.0</ele><time>2026-04-26T10:00:58.979Z</time></trkpt><trkpt lat="40.8277385" lon="8.8964394"><ele>38.0</ele><time>2026-04-26T10:01:00.981Z</time></trkpt><trkpt lat="40.8278041" lon="8.8965273"><ele>38.0</ele><time>2026-04-26T10:01:03.979Z</time></trkpt><trkpt lat="40.8278491" lon="8.8965859"><ele>38.0</ele><time>2026-04-26T10:01:05.978Z</time></trkpt><trkpt lat="40.8279016" lon="8.8966714"><ele>38.166666666666664</ele><time>2026-04-26T10:01:08.98Z</time></trkpt><trkpt lat="40.8279523" lon="8.89677"><ele>38.33333333333333</ele><time>2026-04-26T10:01:16.979Z</time></trkpt><trkpt lat="40.8279871" lon="8.8968593"><ele>38.5</ele><time>2026-04-26T10:01:17.978Z</time></trkpt><trkpt lat="40.8280233" lon="8.896963"><ele>38.666666666666664</ele><time>2026-04-26T10:01:18.979Z</time></trkpt><trkpt lat="40.8280639" lon="8.8970716"><ele>38.833333333333336</ele><time>2026-04-26T10:01:19.978Z</time></trkpt><trkpt lat="40.8281039" lon="8.8971794"><ele>39.0</ele><time>2026-04-26T10:01:20.98Z</time></trkpt><trkpt lat="40.8281408" lon="8.8972762"><ele>39.0</ele><time>2026-04-26T10:01:21.978Z</time></trkpt><trkpt lat="40.8281759" lon="8.8973642"><ele>39.0</ele><time>2026-04-26T10:01:22.978Z</time></trkpt><trkpt lat="40.8282096" lon="8.8974456"><ele>39.0</ele><time>2026-04-26T10:01:23.979Z</time></trkpt><trkpt lat="40.8282418" lon="8.8975204"><ele>39.0</ele><time>2026-04-26T10:01:24.98Z</time></trkpt><trkpt lat="40.828276" lon="8.8975958"><ele>39.0</ele><time>2026-04-26T10:01:25.98Z</time></trkpt><trkpt lat="40.828314" lon="8.8976707"><ele>39.0</ele><time>2026-04-26T10:01:26.98Z</time></trkpt><trkpt lat="40.8283488" lon="8.8977465"><ele>39.0</ele><time>2026-04-26T10:01:27.978Z</time></trkpt><trkpt lat="40.8283801" lon="8.8978219"><ele>39.0</ele><time>2026-04-26T10:01:28.979Z</time></trkpt><trkpt lat="40.8284099" lon="8.897896"><ele>39.0</ele><time>2026-04-26T10:01:29.978Z</time></trkpt><trkpt lat="40.8284401" lon="8.8979702"><ele>39.0</ele><time>2026-04-26T10:01:30.98Z</time></trkpt><trkpt lat="40.8285023" lon="8.8981192"><ele>39.0</ele><time>2026-04-26T10:01:32.979Z</time></trkpt><trkpt lat="40.8285444" lon="8.8981966"><ele>39.0</ele><time>2026-04-26T10:01:33.979Z</time></trkpt><trkpt lat="40.828585" lon="8.8982815"><ele>39.0</ele><time>2026-04-26T10:01:34.979Z</time></trkpt><trkpt lat="40.8286237" lon="8.8983739"><ele>38.5</ele><time>2026-04-26T10:01:35.979Z</time></trkpt><trkpt lat="40.8286704" lon="8.8984602"><ele>38.0</ele><time>2026-04-26T10:01:36.981Z</time></trkpt><trkpt lat="40.8287198" lon="8.8985439"><ele>37.5</ele><time>2026-04-26T10:01:37.979Z</time></trkpt><trkpt lat="40.8287723" lon="8.8986215"><ele>37.0</ele><time>2026-04-26T10:01:38.98Z</time></trkpt><trkpt lat="40.8288317" lon="8.8986905"><ele>36.5</ele><time>2026-04-26T10:01:39.979Z</time></trkpt><trkpt lat="40.8288989" lon="8.8987479"><ele>36.0</ele><time>2026-04-26T10:01:40.978Z</time></trkpt><trkpt lat="40.8289741" lon="8.8987896"><ele>36.0</ele><time>2026-04-26T10:01:41.98Z</time></trkpt><trkpt lat="40.8290482" lon="8.8988255"><ele>36.0</ele><time>2026-04-26T10:01:42.98Z</time></trkpt><trkpt lat="40.8291178" lon="8.8988557"><ele>36.0</ele><time>2026-04-26T10:01:43.98Z</time></trkpt><trkpt lat="40.8291828" lon="8.8988774"><ele>36.0</ele><time>2026-04-26T10:01:44.979Z</time></trkpt><trkpt lat="40.8292458" lon="8.8988914"><ele>36.0</ele><time>2026-04-26T10:01:45.978Z</time></trkpt><trkpt lat="40.8293676" lon="8.8989033"><ele>36.0</ele><time>2026-04-26T10:01:47.98Z</time></trkpt><trkpt lat="40.8294762" lon="8.8989095"><ele>36.0</ele><time>2026-04-26T10:01:49.979Z</time></trkpt><trkpt lat="40.8295662" lon="8.8989475"><ele>36.0</ele><time>2026-04-26T10:01:51.978Z</time></trkpt><trkpt lat="40.829634" lon="8.8990074"><ele>36.0</ele><time>2026-04-26T10:01:54.979Z</time></trkpt><trkpt lat="40.8297323" lon="8.8990595"><ele>36.0</ele><time>2026-04-26T10:01:56.98Z</time></trkpt><trkpt lat="40.8298479" lon="8.8990887"><ele>36.0</ele><time>2026-04-26T10:01:58.978Z</time></trkpt><trkpt lat="40.8299719" lon="8.8991285"><ele>36.0</ele><time>2026-04-26T10:02:00.98Z</time></trkpt><trkpt lat="40.8300416" lon="8.8991476"><ele>36.0</ele><time>2026-04-26T10:02:01.981Z</time></trkpt><trkpt lat="40.8301175" lon="8.8991691"><ele>36.0</ele><time>2026-04-26T10:02:02.98Z</time></trkpt><trkpt lat="40.8302005" lon="8.8991894"><ele>36.0</ele><time>2026-04-26T10:02:03.978Z</time></trkpt><trkpt lat="40.8302843" lon="8.8992085"><ele>36.0</ele><time>2026-04-26T10:02:04.98Z</time></trkpt><trkpt lat="40.8303649" lon="8.8992297"><ele>36.0</ele><time>2026-04-26T10:02:05.979Z</time></trkpt><trkpt lat="40.8304424" lon="8.8992511"><ele>35.833333333333336</ele><time>2026-04-26T10:02:06.979Z</time></trkpt><trkpt lat="40.830521" lon="8.8992766"><ele>35.666666666666664</ele><time>2026-04-26T10:02:07.979Z</time></trkpt><trkpt lat="40.830598" lon="8.8993041"><ele>35.5</ele><time>2026-04-26T10:02:08.979Z</time></trkpt><trkpt lat="40.8306734" lon="8.8993302"><ele>35.33333333333333</ele><time>2026-04-26T10:02:09.98Z</time></trkpt><trkpt lat="40.8307486" lon="8.8993612"><ele>35.166666666666664</ele><time>2026-04-26T10:02:10.979Z</time></trkpt><trkpt lat="40.8308215" lon="8.8994007"><ele>35.0</ele><time>2026-04-26T10:02:11.978Z</time></trkpt><trkpt lat="40.8308925" lon="8.8994466"><ele>35.0</ele><time>2026-04-26T10:02:12.98Z</time></trkpt><trkpt lat="40.8309611" lon="8.8994961"><ele>35.0</ele><time>2026-04-26T10:02:13.98Z</time></trkpt><trkpt lat="40.8310307" lon="8.8995538"><ele>35.0</ele><time>2026-04-26T10:02:14.98Z</time></trkpt><trkpt lat="40.8310956" lon="8.8996163"><ele>35.0</ele><time>2026-04-26T10:02:15.979Z</time></trkpt><trkpt lat="40.8311522" lon="8.8996834"><ele>35.0</ele><time>2026-04-26T10:02:16.978Z</time></trkpt><trkpt lat="40.831199" lon="8.899752"><ele>35.0</ele><time>2026-04-26T10:02:17.982Z</time></trkpt><trkpt lat="40.8312722" lon="8.8998842"><ele>35.0</ele><time>2026-04-26T10:02:19.979Z</time></trkpt><trkpt lat="40.8313094" lon="8.8999517"><ele>35.0</ele><time>2026-04-26T10:02:20.979Z</time></trkpt><trkpt lat="40.831374" lon="8.9000788"><ele>35.0</ele><time>2026-04-26T10:02:22.979Z</time></trkpt><trkpt lat="40.8314298" lon="8.9002253"><ele>35.0</ele><time>2026-04-26T10:02:24.978Z</time></trkpt><trkpt lat="40.8314709" lon="8.9003748"><ele>35.0</ele><time>2026-04-26T10:02:26.98Z</time></trkpt><trkpt lat="40.8315167" lon="8.9005256"><ele>35.0</ele><time>2026-04-26T10:02:28.979Z</time></trkpt><trkpt lat="40.8315428" lon="8.9006065"><ele>35.0</ele><time>2026-04-26T10:02:29.978Z</time></trkpt><trkpt lat="40.8315704" lon="8.9006891"><ele>35.0</ele><time>2026-04-26T10:02:30.979Z</time></trkpt><trkpt lat="40.8316292" lon="8.9008167"><ele>35.0</ele><time>2026-04-26T10:02:32.979Z</time></trkpt><trkpt lat="40.831697" lon="8.9009174"><ele>35.0</ele><time>2026-04-26T10:02:34.978Z</time></trkpt><trkpt lat="40.8317878" lon="8.9010312"><ele>35.0</ele><time>2026-04-26T10:02:36.98Z</time></trkpt><trkpt lat="40.8318797" lon="8.9011281"><ele>35.0</ele><time>2026-04-26T10:02:38.98Z</time></trkpt><trkpt lat="40.8319626" lon="8.9012038"><ele>35.0</ele><time>2026-04-26T10:02:40.98Z</time></trkpt><trkpt lat="40.8320168" lon="8.9012487"><ele>35.0</ele><time>2026-04-26T10:02:43.979Z</time></trkpt><trkpt lat="40.8320984" lon="8.9013088"><ele>35.0</ele><time>2026-04-26T10:02:46.978Z</time></trkpt><trkpt lat="40.8321906" lon="8.901384"><ele>35.0</ele><time>2026-04-26T10:02:48.983Z</time></trkpt><trkpt lat="40.8322695" lon="8.9014495"><ele>35.0</ele><time>2026-04-26T10:02:50.98Z</time></trkpt><trkpt lat="40.8323477" lon="8.9015122"><ele>35.0</ele><time>2026-04-26T10:02:52.978Z</time></trkpt><trkpt lat="40.8324423" lon="8.9015921"><ele>35.0</ele><time>2026-04-26T10:02:54.979Z</time></trkpt><trkpt lat="40.8325301" lon="8.9016712"><ele>35.0</ele><time>2026-04-26T10:02:56.98Z</time></trkpt><trkpt lat="40.832621" lon="8.9017425"><ele>34.6</ele><time>2026-04-26T10:02:58.979Z</time></trkpt><trkpt lat="40.8327247" lon="8.9018278"><ele>34.2</ele><time>2026-04-26T10:03:00.98Z</time></trkpt><trkpt lat="40.8327808" lon="8.901875"><ele>33.8</ele><time>2026-04-26T10:03:01.979Z</time></trkpt><trkpt lat="40.8328813" lon="8.9019627"><ele>33.4</ele><time>2026-04-26T10:03:03.979Z</time></trkpt><trkpt lat="40.8329635" lon="8.9020361"><ele>33.0</ele><time>2026-04-26T10:03:05.979Z</time></trkpt><trkpt lat="40.8330366" lon="8.9021016"><ele>33.0</ele><time>2026-04-26T10:03:07.979Z</time></trkpt><trkpt lat="40.8331136" lon="8.9021698"><ele>33.0</ele><time>2026-04-26T10:03:09.979Z</time></trkpt><trkpt lat="40.8332084" lon="8.9022452"><ele>33.0</ele><time>2026-04-26T10:03:11.978Z</time></trkpt><trkpt lat="40.8332664" lon="8.9022932"><ele>33.0</ele><time>2026-04-26T10:03:12.978Z</time></trkpt><trkpt lat="40.8333229" lon="8.9023362"><ele>33.0</ele><time>2026-04-26T10:03:13.978Z</time></trkpt><trkpt lat="40.8333792" lon="8.9023765"><ele>33.0</ele><time>2026-04-26T10:03:14.979Z</time></trkpt><trkpt lat="40.8334383" lon="8.9024209"><ele>32.833333333333336</ele><time>2026-04-26T10:03:15.979Z</time></trkpt><trkpt lat="40.8334963" lon="8.9024678"><ele>32.666666666666664</ele><time>2026-04-26T10:03:16.979Z</time></trkpt><trkpt lat="40.8335577" lon="8.9025199"><ele>32.5</ele><time>2026-04-26T10:03:17.979Z</time></trkpt><trkpt lat="40.8336199" lon="8.9025742"><ele>32.33333333333333</ele><time>2026-04-26T10:03:18.978Z</time></trkpt><trkpt lat="40.8336762" lon="8.9026253"><ele>32.166666666666664</ele><time>2026-04-26T10:03:19.977Z</time></trkpt><trkpt lat="40.8337661" lon="8.9026965"><ele>32.0</ele><time>2026-04-26T10:03:21.978Z</time></trkpt><trkpt lat="40.8338579" lon="8.9027503"><ele>31.999999999999996</ele><time>2026-04-26T10:03:23.977Z</time></trkpt><trkpt lat="40.83397" lon="8.9027993"><ele>32.0</ele><time>2026-04-26T10:03:25.979Z</time></trkpt><trkpt lat="40.8340355" lon="8.9028181"><ele>32.0</ele><time>2026-04-26T10:03:26.979Z</time></trkpt><trkpt lat="40.8341049" lon="8.9028309"><ele>32.0</ele><time>2026-04-26T10:03:27.978Z</time></trkpt><trkpt lat="40.8341774" lon="8.9028382"><ele>31.999999999999996</ele><time>2026-04-26T10:03:28.978Z</time></trkpt><trkpt lat="40.8342441" lon="8.9028355"><ele>32.0</ele><time>2026-04-26T10:03:29.978Z</time></trkpt><trkpt lat="40.8343593" lon="8.9028094"><ele>31.999999999999996</ele><time>2026-04-26T10:03:31.977Z</time></trkpt><trkpt lat="40.8344227" lon="8.9027853"><ele>32.0</ele><time>2026-04-26T10:03:32.983Z</time></trkpt><trkpt lat="40.8344881" lon="8.9027565"><ele>32.0</ele><time>2026-04-26T10:03:33.98Z</time></trkpt><trkpt lat="40.8345593" lon="8.9027313"><ele>32.0</ele><time>2026-04-26T10:03:34.979Z</time></trkpt><trkpt lat="40.8346242" lon="8.9027077"><ele>31.999999999999996</ele><time>2026-04-26T10:03:35.978Z</time></trkpt><trkpt lat="40.834725" lon="8.9026712"><ele>32.0</ele><time>2026-04-26T10:03:37.977Z</time></trkpt><trkpt lat="40.8348305" lon="8.9026244"><ele>31.999999999999996</ele><time>2026-04-26T10:03:39.978Z</time></trkpt><trkpt lat="40.8349463" lon="8.9025748"><ele>32.0</ele><time>2026-04-26T10:03:41.978Z</time></trkpt><trkpt lat="40.8350072" lon="8.9025463"><ele>32.0</ele><time>2026-04-26T10:03:42.978Z</time></trkpt><trkpt lat="40.8350685" lon="8.9025204"><ele>32.0</ele><time>2026-04-26T10:03:43.978Z</time></trkpt><trkpt lat="40.8351357" lon="8.9024901"><ele>31.999999999999996</ele><time>2026-04-26T10:03:44.979Z</time></trkpt><trkpt lat="40.8352088" lon="8.9024573"><ele>32.0</ele><time>2026-04-26T10:03:45.978Z</time></trkpt><trkpt lat="40.8352838" lon="8.902426"><ele>32.14285714285714</ele><time>2026-04-26T10:03:46.978Z</time></trkpt><trkpt lat="40.8353588" lon="8.9023933"><ele>32.285714285714285</ele><time>2026-04-26T10:03:47.979Z</time></trkpt><trkpt lat="40.835431" lon="8.9023639"><ele>32.42857142857143</ele><time>2026-04-26T10:03:48.978Z</time></trkpt><trkpt lat="40.8355044" lon="8.9023353"><ele>32.57142857142857</ele><time>2026-04-26T10:03:49.978Z</time></trkpt><trkpt lat="40.8355783" lon="8.9023066"><ele>32.714285714285715</ele><time>2026-04-26T10:03:50.979Z</time></trkpt><trkpt lat="40.8356523" lon="8.9022826"><ele>32.857142857142854</ele><time>2026-04-26T10:03:51.979Z</time></trkpt><trkpt lat="40.8357151" lon="8.9022648"><ele>33.0</ele><time>2026-04-26T10:03:52.978Z</time></trkpt><trkpt lat="40.8358197" lon="8.9022364"><ele>33.0</ele><time>2026-04-26T10:03:54.979Z</time></trkpt><trkpt lat="40.8359033" lon="8.9022132"><ele>33.0</ele><time>2026-04-26T10:03:56.979Z</time></trkpt><trkpt lat="40.8360126" lon="8.902184"><ele>33.0</ele><time>2026-04-26T10:03:58.979Z</time></trkpt><trkpt lat="40.8361287" lon="8.9021507"><ele>33.0</ele><time>2026-04-26T10:04:00.978Z</time></trkpt><trkpt lat="40.8361908" lon="8.9021317"><ele>33.0</ele><time>2026-04-26T10:04:01.978Z</time></trkpt><trkpt lat="40.8362547" lon="8.9021118"><ele>33.0</ele><time>2026-04-26T10:04:02.979Z</time></trkpt><trkpt lat="40.8363183" lon="8.9020917"><ele>33.0</ele><time>2026-04-26T10:04:03.979Z</time></trkpt><trkpt lat="40.8364347" lon="8.902042"><ele>33.0</ele><time>2026-04-26T10:04:05.979Z</time></trkpt><trkpt lat="40.8364926" lon="8.9020066"><ele>33.0</ele><time>2026-04-26T10:04:06.978Z</time></trkpt><trkpt lat="40.8365862" lon="8.9019155"><ele>33.0</ele><time>2026-04-26T10:04:08.979Z</time></trkpt><trkpt lat="40.8366561" lon="8.9018156"><ele>33.0</ele><time>2026-04-26T10:04:10.978Z</time></trkpt><trkpt lat="40.8367038" lon="8.9017426"><ele>33.25</ele><time>2026-04-26T10:04:12.979Z</time></trkpt><trkpt lat="40.8367712" lon="8.9017677"><ele>33.5</ele><time>2026-04-26T10:04:14.98Z</time></trkpt><trkpt lat="40.8368863" lon="8.9019147"><ele>33.75</ele><time>2026-04-26T10:04:16.979Z</time></trkpt><trkpt lat="40.8369755" lon="8.9020464"><ele>34.0</ele><time>2026-04-26T10:04:17.978Z</time></trkpt><trkpt lat="40.8370748" lon="8.9021855"><ele>34.0</ele><time>2026-04-26T10:04:18.979Z</time></trkpt><trkpt lat="40.8371716" lon="8.9023205"><ele>34.0</ele><time>2026-04-26T10:04:19.977Z</time></trkpt><trkpt lat="40.8372596" lon="8.9024392"><ele>34.0</ele><time>2026-04-26T10:04:20.979Z</time></trkpt><trkpt lat="40.8373401" lon="8.9025499"><ele>34.0</ele><time>2026-04-26T10:04:21.979Z</time></trkpt><trkpt lat="40.8374161" lon="8.9026548"><ele>34.16666666666667</ele><time>2026-04-26T10:04:22.978Z</time></trkpt><trkpt lat="40.8374883" lon="8.902751"><ele>34.333333333333336</ele><time>2026-04-26T10:04:23.978Z</time></trkpt><trkpt lat="40.8375551" lon="8.9028368"><ele>34.5</ele><time>2026-04-26T10:04:24.978Z</time></trkpt><trkpt lat="40.8376171" lon="8.9029188"><ele>34.666666666666664</ele><time>2026-04-26T10:04:25.977Z</time></trkpt><trkpt lat="40.8376742" lon="8.9029921"><ele>34.83333333333333</ele><time>2026-04-26T10:04:26.979Z</time></trkpt><trkpt lat="40.8377273" lon="8.9030581"><ele>35.0</ele><time>2026-04-26T10:04:27.977Z</time></trkpt><trkpt lat="40.8377736" lon="8.903115"><ele>35.0</ele><time>2026-04-26T10:04:28.979Z</time></trkpt><trkpt lat="40.8378303" lon="8.9032119"><ele>35.0</ele><time>2026-04-26T10:04:30.978Z</time></trkpt><trkpt lat="40.8378686" lon="8.9032889"><ele>35.0</ele><time>2026-04-26T10:04:33.979Z</time></trkpt><trkpt lat="40.8379048" lon="8.9033667"><ele>35.0</ele><time>2026-04-26T10:04:39.978Z</time></trkpt><trkpt lat="40.8379409" lon="8.9034376"><ele>35.0</ele><time>2026-04-26T10:04:40.979Z</time></trkpt><trkpt lat="40.8379812" lon="8.9035397"><ele>35.0</ele><time>2026-04-26T10:04:41.978Z</time></trkpt><trkpt lat="40.8380122" lon="8.9036691"><ele>35.25</ele><time>2026-04-26T10:04:42.979Z</time></trkpt><trkpt lat="40.8380108" lon="8.9038415"><ele>35.5</ele><time>2026-04-26T10:04:43.979Z</time></trkpt><trkpt lat="40.8379831" lon="8.904035"><ele>35.75</ele><time>2026-04-26T10:04:44.979Z</time></trkpt><trkpt lat="40.8379376" lon="8.9042314"><ele>36.0</ele><time>2026-04-26T10:04:45.978Z</time></trkpt><trkpt lat="40.8378786" lon="8.9044338"><ele>36.333333333333336</ele><time>2026-04-26T10:04:46.979Z</time></trkpt><trkpt lat="40.8378114" lon="8.9046485"><ele>36.66666666666667</ele><time>2026-04-26T10:04:47.979Z</time></trkpt><trkpt lat="40.837742" lon="8.9048691"><ele>37.0</ele><time>2026-04-26T10:04:48.978Z</time></trkpt><trkpt lat="40.8376709" lon="8.9050927"><ele>37.0</ele><time>2026-04-26T10:04:49.979Z</time></trkpt><trkpt lat="40.8375997" lon="8.9053169"><ele>37.0</ele><time>2026-04-26T10:04:50.979Z</time></trkpt><trkpt lat="40.8375243" lon="8.9055418"><ele>37.0</ele><time>2026-04-26T10:04:51.979Z</time></trkpt><trkpt lat="40.83745" lon="8.9057682"><ele>37.0</ele><time>2026-04-26T10:04:52.978Z</time></trkpt><trkpt lat="40.8373788" lon="8.9059942"><ele>37.0</ele><time>2026-04-26T10:04:53.979Z</time></trkpt><trkpt lat="40.8373087" lon="8.9062219"><ele>37.0</ele><time>2026-04-26T10:04:54.979Z</time></trkpt><trkpt lat="40.8372366" lon="8.906447"><ele>37.0</ele><time>2026-04-26T10:04:55.977Z</time></trkpt><trkpt lat="40.8371638" lon="8.9066714"><ele>37.0</ele><time>2026-04-26T10:04:56.979Z</time></trkpt><trkpt lat="40.8370902" lon="8.9068956"><ele>37.0</ele><time>2026-04-26T10:04:57.979Z</time></trkpt><trkpt lat="40.8370161" lon="8.9071148"><ele>37.0</ele><time>2026-04-26T10:04:58.978Z</time></trkpt><trkpt lat="40.8369463" lon="8.9073249"><ele>37.0</ele><time>2026-04-26T10:04:59.979Z</time></trkpt><trkpt lat="40.836882" lon="8.9075207"><ele>37.0</ele><time>2026-04-26T10:05:00.978Z</time></trkpt><trkpt lat="40.8368189" lon="8.9077088"><ele>39.333333333333336</ele><time>2026-04-26T10:05:01.979Z</time></trkpt><trkpt lat="40.8367543" lon="8.9079008"><ele>41.666666666666664</ele><time>2026-04-26T10:05:02.979Z</time></trkpt><trkpt lat="40.8366856" lon="8.9080957"><ele>44.0</ele><time>2026-04-26T10:05:03.979Z</time></trkpt><trkpt lat="40.8366191" lon="8.9082918"><ele>43.666666666666664</ele><time>2026-04-26T10:05:04.979Z</time></trkpt><trkpt lat="40.8365501" lon="8.9084848"><ele>43.333333333333336</ele><time>2026-04-26T10:05:05.979Z</time></trkpt><trkpt lat="40.8364784" lon="8.9086796"><ele>43.0</ele><time>2026-04-26T10:05:06.979Z</time></trkpt><trkpt lat="40.8364051" lon="8.9088732"><ele>43.0</ele><time>2026-04-26T10:05:07.979Z</time></trkpt><trkpt lat="40.8363331" lon="8.9090678"><ele>43.0</ele><time>2026-04-26T10:05:08.978Z</time></trkpt><trkpt lat="40.836261" lon="8.9092592"><ele>43.0</ele><time>2026-04-26T10:05:09.979Z</time></trkpt><trkpt lat="40.8361871" lon="8.9094525"><ele>43.333333333333336</ele><time>2026-04-26T10:05:10.98Z</time></trkpt><trkpt lat="40.8361121" lon="8.9096456"><ele>43.666666666666664</ele><time>2026-04-26T10:05:11.979Z</time></trkpt><trkpt lat="40.8360382" lon="8.9098368"><ele>44.0</ele><time>2026-04-26T10:05:12.979Z</time></trkpt><trkpt lat="40.8359625" lon="8.9100245"><ele>45.0</ele><time>2026-04-26T10:05:13.979Z</time></trkpt><trkpt lat="40.8358899" lon="8.9102096"><ele>46.0</ele><time>2026-04-26T10:05:14.978Z</time></trkpt><trkpt lat="40.8358187" lon="8.9103933"><ele>47.0</ele><time>2026-04-26T10:05:15.98Z</time></trkpt><trkpt lat="40.835747" lon="8.9105777"><ele>47.0</ele><time>2026-04-26T10:05:16.979Z</time></trkpt><trkpt lat="40.8356776" lon="8.9107621"><ele>47.0</ele><time>2026-04-26T10:05:17.979Z</time></trkpt><trkpt lat="40.8356067" lon="8.9109483"><ele>47.0</ele><time>2026-04-26T10:05:18.979Z</time></trkpt><trkpt lat="40.8355333" lon="8.9111417"><ele>46.33333333333333</ele><time>2026-04-26T10:05:19.979Z</time></trkpt><trkpt lat="40.835464" lon="8.9113373"><ele>45.666666666666664</ele><time>2026-04-26T10:05:20.979Z</time></trkpt><trkpt lat="40.8354024" lon="8.911536"><ele>45.0</ele><time>2026-04-26T10:05:21.979Z</time></trkpt><trkpt lat="40.835358" lon="8.9117383"><ele>46.25</ele><time>2026-04-26T10:05:22.978Z</time></trkpt><trkpt lat="40.8353448" lon="8.9119414"><ele>47.5</ele><time>2026-04-26T10:05:23.979Z</time></trkpt><trkpt lat="40.8353629" lon="8.912134"><ele>48.75</ele><time>2026-04-26T10:05:24.978Z</time></trkpt><trkpt lat="40.8354088" lon="8.9123105"><ele>50.0</ele><time>2026-04-26T10:05:25.979Z</time></trkpt><trkpt lat="40.8354767" lon="8.9124606"><ele>51.25</ele><time>2026-04-26T10:05:26.981Z</time></trkpt><trkpt lat="40.8355548" lon="8.912591"><ele>52.5</ele><time>2026-04-26T10:05:27.978Z</time></trkpt><trkpt lat="40.8356339" lon="8.9127164"><ele>53.75</ele><time>2026-04-26T10:05:28.978Z</time></trkpt><trkpt lat="40.8356931" lon="8.9128535"><ele>55.0</ele><time>2026-04-26T10:05:29.978Z</time></trkpt><trkpt lat="40.8357254" lon="8.9129942"><ele>55.0</ele><time>2026-04-26T10:05:30.979Z</time></trkpt><trkpt lat="40.835731" lon="8.9131406"><ele>55.0</ele><time>2026-04-26T10:05:31.978Z</time></trkpt><trkpt lat="40.8357097" lon="8.9132877"><ele>55.0</ele><time>2026-04-26T10:05:32.978Z</time></trkpt><trkpt lat="40.8356652" lon="8.9134403"><ele>55.0</ele><time>2026-04-26T10:05:33.979Z</time></trkpt><trkpt lat="40.835595" lon="8.9135954"><ele>54.0</ele><time>2026-04-26T10:05:34.979Z</time></trkpt><trkpt lat="40.8355199" lon="8.9137546"><ele>53.0</ele><time>2026-04-26T10:05:35.979Z</time></trkpt><trkpt lat="40.8354478" lon="8.9139331"><ele>52.0</ele><time>2026-04-26T10:05:36.978Z</time></trkpt><trkpt lat="40.8353879" lon="8.9141248"><ele>51.666666666666664</ele><time>2026-04-26T10:05:37.979Z</time></trkpt><trkpt lat="40.8353425" lon="8.9143238"><ele>51.33333333333333</ele><time>2026-04-26T10:05:38.979Z</time></trkpt><trkpt lat="40.8353185" lon="8.9145285"><ele>51.0</ele><time>2026-04-26T10:05:39.978Z</time></trkpt><trkpt lat="40.8353126" lon="8.9147254"><ele>51.0</ele><time>2026-04-26T10:05:40.977Z</time></trkpt><trkpt lat="40.835316" lon="8.9149133"><ele>51.0</ele><time>2026-04-26T10:05:41.979Z</time></trkpt><trkpt lat="40.8353269" lon="8.9151074"><ele>51.0</ele><time>2026-04-26T10:05:42.979Z</time></trkpt><trkpt lat="40.8353454" lon="8.9153089"><ele>51.0</ele><time>2026-04-26T10:05:43.979Z</time></trkpt><trkpt lat="40.8353653" lon="8.9155127"><ele>51.33333333333333</ele><time>2026-04-26T10:05:44.979Z</time></trkpt><trkpt lat="40.835384" lon="8.9157219"><ele>51.666666666666664</ele><time>2026-04-26T10:05:45.978Z</time></trkpt><trkpt lat="40.8354007" lon="8.915937"><ele>52.0</ele><time>2026-04-26T10:05:46.978Z</time></trkpt><trkpt lat="40.8354184" lon="8.9161568"><ele>53.0</ele><time>2026-04-26T10:05:47.978Z</time></trkpt><trkpt lat="40.8354354" lon="8.9163773"><ele>54.0</ele><time>2026-04-26T10:05:48.979Z</time></trkpt><trkpt lat="40.8354516" lon="8.9165962"><ele>55.0</ele><time>2026-04-26T10:05:49.981Z</time></trkpt><trkpt lat="40.8354646" lon="8.9168185"><ele>55.33333333333333</ele><time>2026-04-26T10:05:50.978Z</time></trkpt><trkpt lat="40.8354792" lon="8.9170418"><ele>55.66666666666667</ele><time>2026-04-26T10:05:51.979Z</time></trkpt><trkpt lat="40.8354952" lon="8.9172625"><ele>56.0</ele><time>2026-04-26T10:05:52.979Z</time></trkpt><trkpt lat="40.8355128" lon="8.9174805"><ele>56.25</ele><time>2026-04-26T10:05:53.979Z</time></trkpt><trkpt lat="40.8355311" lon="8.917685"><ele>56.5</ele><time>2026-04-26T10:05:54.978Z</time></trkpt><trkpt lat="40.8355472" lon="8.9178777"><ele>56.75</ele><time>2026-04-26T10:05:55.978Z</time></trkpt><trkpt lat="40.8355643" lon="8.9180536"><ele>57.0</ele><time>2026-04-26T10:05:56.979Z</time></trkpt><trkpt lat="40.8355809" lon="8.918219"><ele>57.0</ele><time>2026-04-26T10:05:57.978Z</time></trkpt><trkpt lat="40.8355967" lon="8.9183706"><ele>57.0</ele><time>2026-04-26T10:05:58.978Z</time></trkpt><trkpt lat="40.8356107" lon="8.918506"><ele>57.0</ele><time>2026-04-26T10:05:59.978Z</time></trkpt><trkpt lat="40.8356261" lon="8.9186167"><ele>57.0</ele><time>2026-04-26T10:06:00.979Z</time></trkpt><trkpt lat="40.8356444" lon="8.9187158"><ele>57.0</ele><time>2026-04-26T10:06:01.979Z</time></trkpt><trkpt lat="40.8356803" lon="8.9187926"><ele>57.8</ele><time>2026-04-26T10:06:02.978Z</time></trkpt><trkpt lat="40.8357408" lon="8.9188427"><ele>58.6</ele><time>2026-04-26T10:06:03.979Z</time></trkpt><trkpt lat="40.8358163" lon="8.918902"><ele>59.39999999999999</ele><time>2026-04-26T10:06:04.979Z</time></trkpt><trkpt lat="40.8358802" lon="8.9189839"><ele>60.199999999999996</ele><time>2026-04-26T10:06:05.978Z</time></trkpt><trkpt lat="40.8359423" lon="8.9191049"><ele>61.0</ele><time>2026-04-26T10:06:06.978Z</time></trkpt><trkpt lat="40.8359981" lon="8.9192408"><ele>62.5</ele><time>2026-04-26T10:06:07.978Z</time></trkpt><trkpt lat="40.836057" lon="8.919389"><ele>64.0</ele><time>2026-04-26T10:06:08.979Z</time></trkpt><trkpt lat="40.8361174" lon="8.9195437"><ele>65.5</ele><time>2026-04-26T10:06:09.979Z</time></trkpt><trkpt lat="40.8361837" lon="8.9197003"><ele>67.0</ele><time>2026-04-26T10:06:10.979Z</time></trkpt><trkpt lat="40.8362552" lon="8.9198566"><ele>67.0</ele><time>2026-04-26T10:06:11.979Z</time></trkpt><trkpt lat="40.8363253" lon="8.9200082"><ele>67.0</ele><time>2026-04-26T10:06:12.979Z</time></trkpt><trkpt lat="40.8363979" lon="8.9201534"><ele>67.0</ele><time>2026-04-26T10:06:13.98Z</time></trkpt><trkpt lat="40.8364715" lon="8.9202981"><ele>67.0</ele><time>2026-04-26T10:06:14.979Z</time></trkpt><trkpt lat="40.8365514" lon="8.9204448"><ele>67.0</ele><time>2026-04-26T10:06:15.979Z</time></trkpt><trkpt lat="40.8366317" lon="8.9206"><ele>67.0</ele><time>2026-04-26T10:06:16.978Z</time></trkpt><trkpt lat="40.8367136" lon="8.9207588"><ele>67.0</ele><time>2026-04-26T10:06:17.978Z</time></trkpt><trkpt lat="40.8367954" lon="8.9209123"><ele>67.0</ele><time>2026-04-26T10:06:18.979Z</time></trkpt><trkpt lat="40.8368763" lon="8.9210565"><ele>65.25</ele><time>2026-04-26T10:06:19.979Z</time></trkpt><trkpt lat="40.8369534" lon="8.9211909"><ele>63.5</ele><time>2026-04-26T10:06:20.978Z</time></trkpt><trkpt lat="40.8370253" lon="8.9213196"><ele>61.75</ele><time>2026-04-26T10:06:21.978Z</time></trkpt><trkpt lat="40.8370862" lon="8.9214399"><ele>60.0</ele><time>2026-04-26T10:06:22.978Z</time></trkpt><trkpt lat="40.8371376" lon="8.9215524"><ele>60.0</ele><time>2026-04-26T10:06:23.977Z</time></trkpt><trkpt lat="40.8371898" lon="8.9216656"><ele>60.0</ele><time>2026-04-26T10:06:24.979Z</time></trkpt><trkpt lat="40.8372389" lon="8.9217867"><ele>60.0</ele><time>2026-04-26T10:06:25.978Z</time></trkpt><trkpt lat="40.8372815" lon="8.9219336"><ele>60.0</ele><time>2026-04-26T10:06:26.978Z</time></trkpt><trkpt lat="40.8373123" lon="8.9220912"><ele>60.0</ele><time>2026-04-26T10:06:27.979Z</time></trkpt><trkpt lat="40.8373373" lon="8.922258"><ele>60.75</ele><time>2026-04-26T10:06:28.977Z</time></trkpt><trkpt lat="40.8373545" lon="8.9224304"><ele>61.5</ele><time>2026-04-26T10:06:29.979Z</time></trkpt><trkpt lat="40.8373652" lon="8.9226037"><ele>62.25</ele><time>2026-04-26T10:06:30.979Z</time></trkpt><trkpt lat="40.8373734" lon="8.9227753"><ele>63.0</ele><time>2026-04-26T10:06:31.979Z</time></trkpt><trkpt lat="40.8373723" lon="8.9229538"><ele>63.5</ele><time>2026-04-26T10:06:32.978Z</time></trkpt><trkpt lat="40.8373652" lon="8.9231294"><ele>64.0</ele><time>2026-04-26T10:06:33.978Z</time></trkpt><trkpt lat="40.8373635" lon="8.9232987"><ele>64.5</ele><time>2026-04-26T10:06:34.979Z</time></trkpt><trkpt lat="40.8373739" lon="8.9234674"><ele>65.0</ele><time>2026-04-26T10:06:35.978Z</time></trkpt><trkpt lat="40.8373919" lon="8.9236394"><ele>65.75</ele><time>2026-04-26T10:06:36.979Z</time></trkpt><trkpt lat="40.8374189" lon="8.9238167"><ele>66.5</ele><time>2026-04-26T10:06:37.979Z</time></trkpt><trkpt lat="40.8374567" lon="8.9239932"><ele>67.25</ele><time>2026-04-26T10:06:38.98Z</time></trkpt><trkpt lat="40.8375054" lon="8.9241654"><ele>68.0</ele><time>2026-04-26T10:06:39.979Z</time></trkpt><trkpt lat="40.8375544" lon="8.9243284"><ele>68.0</ele><time>2026-04-26T10:06:40.979Z</time></trkpt><trkpt lat="40.8375983" lon="8.9244803"><ele>68.0</ele><time>2026-04-26T10:06:41.979Z</time></trkpt><trkpt lat="40.8376342" lon="8.9246254"><ele>68.0</ele><time>2026-04-26T10:06:42.978Z</time></trkpt><trkpt lat="40.8376605" lon="8.9247678"><ele>68.0</ele><time>2026-04-26T10:06:43.978Z</time></trkpt><trkpt lat="40.8376738" lon="8.9249153"><ele>67.75</ele><time>2026-04-26T10:06:44.979Z</time></trkpt><trkpt lat="40.8376844" lon="8.9250695"><ele>67.5</ele><time>2026-04-26T10:06:45.978Z</time></trkpt><trkpt lat="40.8376938" lon="8.9252361"><ele>67.25</ele><time>2026-04-26T10:06:46.979Z</time></trkpt><trkpt lat="40.8377013" lon="8.9254147"><ele>67.0</ele><time>2026-04-26T10:06:47.979Z</time></trkpt><trkpt lat="40.8377038" lon="8.9256062"><ele>67.0</ele><time>2026-04-26T10:06:48.982Z</time></trkpt><trkpt lat="40.8377053" lon="8.9258009"><ele>67.0</ele><time>2026-04-26T10:06:49.979Z</time></trkpt><trkpt lat="40.8377079" lon="8.9259992"><ele>67.0</ele><time>2026-04-26T10:06:50.978Z</time></trkpt><trkpt lat="40.8377121" lon="8.9261992"><ele>67.0</ele><time>2026-04-26T10:06:51.978Z</time></trkpt><trkpt lat="40.8377171" lon="8.9264006"><ele>67.0</ele><time>2026-04-26T10:06:52.978Z</time></trkpt><trkpt lat="40.8377216" lon="8.9266046"><ele>67.0</ele><time>2026-04-26T10:06:53.979Z</time></trkpt><trkpt lat="40.8377232" lon="8.9268034"><ele>67.0</ele><time>2026-04-26T10:06:54.979Z</time></trkpt><trkpt lat="40.8377191" lon="8.9269972"><ele>67.0</ele><time>2026-04-26T10:06:55.978Z</time></trkpt><trkpt lat="40.8377149" lon="8.9271813"><ele>67.0</ele><time>2026-04-26T10:06:56.979Z</time></trkpt><trkpt lat="40.8377082" lon="8.9273643"><ele>67.0</ele><time>2026-04-26T10:06:57.978Z</time></trkpt><trkpt lat="40.8376962" lon="8.9275572"><ele>67.0</ele><time>2026-04-26T10:06:58.978Z</time></trkpt><trkpt lat="40.837683" lon="8.9277476"><ele>67.0</ele><time>2026-04-26T10:06:59.978Z</time></trkpt><trkpt lat="40.8376687" lon="8.9279289"><ele>67.0</ele><time>2026-04-26T10:07:00.98Z</time></trkpt><trkpt lat="40.8376574" lon="8.9280921"><ele>67.0</ele><time>2026-04-26T10:07:01.98Z</time></trkpt><trkpt lat="40.837651" lon="8.9282243"><ele>67.0</ele><time>2026-04-26T10:07:02.979Z</time></trkpt><trkpt lat="40.8376562" lon="8.9283278"><ele>67.0</ele><time>2026-04-26T10:07:03.978Z</time></trkpt><trkpt lat="40.8376689" lon="8.9284181"><ele>66.5</ele><time>2026-04-26T10:07:04.978Z</time></trkpt><trkpt lat="40.8376926" lon="8.9285012"><ele>66.0</ele><time>2026-04-26T10:07:05.979Z</time></trkpt><trkpt lat="40.8377387" lon="8.9285758"><ele>65.5</ele><time>2026-04-26T10:07:06.978Z</time></trkpt><trkpt lat="40.8378037" lon="8.9286395"><ele>65.0</ele><time>2026-04-26T10:07:07.978Z</time></trkpt><trkpt lat="40.8378842" lon="8.9286901"><ele>64.5</ele><time>2026-04-26T10:07:08.98Z</time></trkpt><trkpt lat="40.8379619" lon="8.9287428"><ele>64.0</ele><time>2026-04-26T10:07:09.978Z</time></trkpt><trkpt lat="40.8380196" lon="8.9287992"><ele>64.0</ele><time>2026-04-26T10:07:10.978Z</time></trkpt><trkpt lat="40.8380862" lon="8.9288963"><ele>64.0</ele><time>2026-04-26T10:07:12.979Z</time></trkpt><trkpt lat="40.8381268" lon="8.9290271"><ele>64.0</ele><time>2026-04-26T10:07:14.979Z</time></trkpt><trkpt lat="40.8381406" lon="8.9291316"><ele>64.0</ele><time>2026-04-26T10:07:15.981Z</time></trkpt><trkpt lat="40.838153" lon="8.9292574"><ele>64.0</ele><time>2026-04-26T10:07:16.978Z</time></trkpt><trkpt lat="40.8381649" lon="8.9294017"><ele>64.5</ele><time>2026-04-26T10:07:17.979Z</time></trkpt><trkpt lat="40.8381804" lon="8.9295625"><ele>65.0</ele><time>2026-04-26T10:07:18.98Z</time></trkpt><trkpt lat="40.8381962" lon="8.929742"><ele>65.5</ele><time>2026-04-26T10:07:19.979Z</time></trkpt><trkpt lat="40.8382115" lon="8.9299325"><ele>66.0</ele><time>2026-04-26T10:07:20.979Z</time></trkpt><trkpt lat="40.8382262" lon="8.930116"><ele>66.8</ele><time>2026-04-26T10:07:21.979Z</time></trkpt><trkpt lat="40.8382404" lon="8.9302834"><ele>67.6</ele><time>2026-04-26T10:07:22.979Z</time></trkpt><trkpt lat="40.8382558" lon="8.9304372"><ele>68.4</ele><time>2026-04-26T10:07:23.978Z</time></trkpt><trkpt lat="40.8382722" lon="8.930572"><ele>69.2</ele><time>2026-04-26T10:07:24.978Z</time></trkpt><trkpt lat="40.838288" lon="8.9306948"><ele>70.0</ele><time>2026-04-26T10:07:25.979Z</time></trkpt><trkpt lat="40.8383056" lon="8.9308089"><ele>70.16666666666666</ele><time>2026-04-26T10:07:26.979Z</time></trkpt><trkpt lat="40.8383206" lon="8.9309235"><ele>70.33333333333333</ele><time>2026-04-26T10:07:27.98Z</time></trkpt><trkpt lat="40.8383339" lon="8.9310335"><ele>70.5</ele><time>2026-04-26T10:07:28.979Z</time></trkpt><trkpt lat="40.8383434" lon="8.9311421"><ele>70.66666666666667</ele><time>2026-04-26T10:07:29.979Z</time></trkpt><trkpt lat="40.8383522" lon="8.9312501"><ele>70.83333333333334</ele><time>2026-04-26T10:07:30.979Z</time></trkpt><trkpt lat="40.838363" lon="8.9313534"><ele>71.0</ele><time>2026-04-26T10:07:31.979Z</time></trkpt><trkpt lat="40.8383758" lon="8.9314517"><ele>71.0</ele><time>2026-04-26T10:07:32.979Z</time></trkpt><trkpt lat="40.8383911" lon="8.9315457"><ele>71.0</ele><time>2026-04-26T10:07:33.978Z</time></trkpt><trkpt lat="40.8384053" lon="8.9316397"><ele>71.0</ele><time>2026-04-26T10:07:34.979Z</time></trkpt><trkpt lat="40.8384191" lon="8.9317356"><ele>71.0</ele><time>2026-04-26T10:07:35.98Z</time></trkpt><trkpt lat="40.8384367" lon="8.9318353"><ele>71.0</ele><time>2026-04-26T10:07:36.978Z</time></trkpt><trkpt lat="40.8384623" lon="8.9319452"><ele>71.0</ele><time>2026-04-26T10:07:37.98Z</time></trkpt><trkpt lat="40.838491" lon="8.9320636"><ele>70.0</ele><time>2026-04-26T10:07:38.981Z</time></trkpt><trkpt lat="40.8385234" lon="8.9321798"><ele>69.0</ele><time>2026-04-26T10:07:39.978Z</time></trkpt><trkpt lat="40.8385517" lon="8.9323007"><ele>68.0</ele><time>2026-04-26T10:07:40.98Z</time></trkpt><trkpt lat="40.8385783" lon="8.9324205"><ele>67.0</ele><time>2026-04-26T10:07:41.978Z</time></trkpt><trkpt lat="40.8386053" lon="8.9325403"><ele>66.0</ele><time>2026-04-26T10:07:42.977Z</time></trkpt><trkpt lat="40.8386294" lon="8.932658"><ele>66.0</ele><time>2026-04-26T10:07:43.978Z</time></trkpt><trkpt lat="40.8386517" lon="8.9327681"><ele>66.0</ele><time>2026-04-26T10:07:44.979Z</time></trkpt><trkpt lat="40.8386676" lon="8.9328747"><ele>66.0</ele><time>2026-04-26T10:07:45.978Z</time></trkpt><trkpt lat="40.8386766" lon="8.9329766"><ele>66.0</ele><time>2026-04-26T10:07:46.978Z</time></trkpt><trkpt lat="40.8386728" lon="8.9330783"><ele>66.0</ele><time>2026-04-26T10:07:47.979Z</time></trkpt><trkpt lat="40.8386555" lon="8.9331824"><ele>66.0</ele><time>2026-04-26T10:07:48.979Z</time></trkpt><trkpt lat="40.8386329" lon="8.9332951"><ele>67.39999999999999</ele><time>2026-04-26T10:07:49.98Z</time></trkpt><trkpt lat="40.8386107" lon="8.9334196"><ele>68.8</ele><time>2026-04-26T10:07:50.979Z</time></trkpt><trkpt lat="40.8386028" lon="8.9335474"><ele>70.19999999999999</ele><time>2026-04-26T10:07:51.979Z</time></trkpt><trkpt lat="40.8386034" lon="8.9336729"><ele>71.6</ele><time>2026-04-26T10:07:52.978Z</time></trkpt><trkpt lat="40.838618" lon="8.9337925"><ele>73.0</ele><time>2026-04-26T10:07:53.979Z</time></trkpt><trkpt lat="40.8386509" lon="8.9339053"><ele>73.0</ele><time>2026-04-26T10:07:54.979Z</time></trkpt><trkpt lat="40.8386901" lon="8.9340231"><ele>73.0</ele><time>2026-04-26T10:07:55.978Z</time></trkpt><trkpt lat="40.8387273" lon="8.9341448"><ele>73.0</ele><time>2026-04-26T10:07:56.978Z</time></trkpt><trkpt lat="40.8387438" lon="8.934276"><ele>73.0</ele><time>2026-04-26T10:07:57.978Z</time></trkpt><trkpt lat="40.8387471" lon="8.9344056"><ele>73.0</ele><time>2026-04-26T10:07:58.982Z</time></trkpt><trkpt lat="40.8387574" lon="8.9345263"><ele>74.0</ele><time>2026-04-26T10:07:59.979Z</time></trkpt><trkpt lat="40.8387907" lon="8.9346408"><ele>75.0</ele><time>2026-04-26T10:08:00.979Z</time></trkpt><trkpt lat="40.8388419" lon="8.9347525"><ele>76.0</ele><time>2026-04-26T10:08:01.979Z</time></trkpt><trkpt lat="40.8389046" lon="8.9348644"><ele>77.0</ele><time>2026-04-26T10:08:02.98Z</time></trkpt><trkpt lat="40.8389743" lon="8.9349789"><ele>78.0</ele><time>2026-04-26T10:08:03.978Z</time></trkpt><trkpt lat="40.8390406" lon="8.935086"><ele>77.8</ele><time>2026-04-26T10:08:04.98Z</time></trkpt><trkpt lat="40.8391042" lon="8.9351852"><ele>77.6</ele><time>2026-04-26T10:08:05.978Z</time></trkpt><trkpt lat="40.8391667" lon="8.9352803"><ele>77.4</ele><time>2026-04-26T10:08:06.978Z</time></trkpt><trkpt lat="40.8392262" lon="8.9353792"><ele>77.2</ele><time>2026-04-26T10:08:07.978Z</time></trkpt><trkpt lat="40.8392793" lon="8.9354747"><ele>77.0</ele><time>2026-04-26T10:08:08.98Z</time></trkpt><trkpt lat="40.8393238" lon="8.9355638"><ele>77.0</ele><time>2026-04-26T10:08:09.979Z</time></trkpt><trkpt lat="40.8393563" lon="8.9356506"><ele>77.0</ele><time>2026-04-26T10:08:10.979Z</time></trkpt><trkpt lat="40.8393789" lon="8.9357402"><ele>77.0</ele><time>2026-04-26T10:08:11.979Z</time></trkpt><trkpt lat="40.8393916" lon="8.9358378"><ele>77.0</ele><time>2026-04-26T10:08:12.979Z</time></trkpt><trkpt lat="40.8394014" lon="8.9359371"><ele>77.0</ele><time>2026-04-26T10:08:13.978Z</time></trkpt><trkpt lat="40.8394153" lon="8.9360323"><ele>77.0</ele><time>2026-04-26T10:08:14.98Z</time></trkpt><trkpt lat="40.8394446" lon="8.9361187"><ele>77.0</ele><time>2026-04-26T10:08:15.979Z</time></trkpt><trkpt lat="40.8394906" lon="8.9361899"><ele>77.71428571428571</ele><time>2026-04-26T10:08:16.979Z</time></trkpt><trkpt lat="40.8395489" lon="8.9362425"><ele>78.42857142857143</ele><time>2026-04-26T10:08:17.978Z</time></trkpt><trkpt lat="40.8396116" lon="8.9362857"><ele>79.14285714285714</ele><time>2026-04-26T10:08:18.979Z</time></trkpt><trkpt lat="40.8396725" lon="8.9363325"><ele>79.85714285714286</ele><time>2026-04-26T10:08:19.979Z</time></trkpt><trkpt lat="40.8397265" lon="8.936391"><ele>80.57142857142857</ele><time>2026-04-26T10:08:20.979Z</time></trkpt><trkpt lat="40.8397772" lon="8.9364709"><ele>81.28571428571428</ele><time>2026-04-26T10:08:21.98Z</time></trkpt><trkpt lat="40.8398281" lon="8.9365622"><ele>82.0</ele><time>2026-04-26T10:08:22.978Z</time></trkpt><trkpt lat="40.8398807" lon="8.9366527"><ele>82.83333333333333</ele><time>2026-04-26T10:08:23.978Z</time></trkpt><trkpt lat="40.8399367" lon="8.9367383"><ele>83.66666666666666</ele><time>2026-04-26T10:08:24.978Z</time></trkpt><trkpt lat="40.8399969" lon="8.9368163"><ele>84.5</ele><time>2026-04-26T10:08:25.978Z</time></trkpt><trkpt lat="40.8400632" lon="8.936885"><ele>85.33333333333333</ele><time>2026-04-26T10:08:26.979Z</time></trkpt><trkpt lat="40.8401349" lon="8.936944"><ele>86.16666666666667</ele><time>2026-04-26T10:08:27.979Z</time></trkpt><trkpt lat="40.840207" lon="8.9369985"><ele>87.0</ele><time>2026-04-26T10:08:28.978Z</time></trkpt><trkpt lat="40.8402741" lon="8.9370484"><ele>88.0</ele><time>2026-04-26T10:08:29.979Z</time></trkpt><trkpt lat="40.8403408" lon="8.937087"><ele>89.0</ele><time>2026-04-26T10:08:30.978Z</time></trkpt><trkpt lat="40.8404065" lon="8.9371059"><ele>90.0</ele><time>2026-04-26T10:08:31.977Z</time></trkpt><trkpt lat="40.8404954" lon="8.9370464"><ele>91.0</ele><time>2026-04-26T10:08:33.978Z</time></trkpt><trkpt lat="40.8405278" lon="8.9368797"><ele>92.0</ele><time>2026-04-26T10:08:35.978Z</time></trkpt><trkpt lat="40.8405272" lon="8.9367724"><ele>91.0</ele><time>2026-04-26T10:08:36.978Z</time></trkpt><trkpt lat="40.8405344" lon="8.9366576"><ele>90.0</ele><time>2026-04-26T10:08:37.979Z</time></trkpt><trkpt lat="40.8405596" lon="8.936562"><ele>89.0</ele><time>2026-04-26T10:08:38.979Z</time></trkpt><trkpt lat="40.8405965" lon="8.9364739"><ele>88.0</ele><time>2026-04-26T10:08:39.978Z</time></trkpt><trkpt lat="40.8406525" lon="8.9363978"><ele>87.0</ele><time>2026-04-26T10:08:40.98Z</time></trkpt><trkpt lat="40.8407242" lon="8.9363402"><ele>86.0</ele><time>2026-04-26T10:08:41.979Z</time></trkpt><trkpt lat="40.8408" lon="8.9362931"><ele>86.0</ele><time>2026-04-26T10:08:42.978Z</time></trkpt><trkpt lat="40.8408863" lon="8.9362604"><ele>86.0</ele><time>2026-04-26T10:08:43.978Z</time></trkpt><trkpt lat="40.8409724" lon="8.9362324"><ele>86.0</ele><time>2026-04-26T10:08:44.978Z</time></trkpt><trkpt lat="40.8410571" lon="8.936218"><ele>86.0</ele><time>2026-04-26T10:08:45.98Z</time></trkpt><trkpt lat="40.8411337" lon="8.9362148"><ele>86.0</ele><time>2026-04-26T10:08:46.978Z</time></trkpt><trkpt lat="40.8411997" lon="8.9362035"><ele>86.0</ele><time>2026-04-26T10:08:47.979Z</time></trkpt><trkpt lat="40.8412654" lon="8.936181"><ele>85.19999999999999</ele><time>2026-04-26T10:08:48.979Z</time></trkpt><trkpt lat="40.8413551" lon="8.9360476"><ele>84.39999999999999</ele><time>2026-04-26T10:08:50.979Z</time></trkpt><trkpt lat="40.8413825" lon="8.9359438"><ele>83.6</ele><time>2026-04-26T10:08:51.978Z</time></trkpt><trkpt lat="40.8414071" lon="8.9358406"><ele>82.8</ele><time>2026-04-26T10:08:52.979Z</time></trkpt><trkpt lat="40.8414371" lon="8.935761"><ele>82.0</ele><time>2026-04-26T10:08:53.98Z</time></trkpt><trkpt lat="40.8415094" lon="8.935653"><ele>81.0</ele><time>2026-04-26T10:08:55.978Z</time></trkpt><trkpt lat="40.8416097" lon="8.9356249"><ele>80.0</ele><time>2026-04-26T10:08:57.978Z</time></trkpt><trkpt lat="40.841677" lon="8.9356431"><ele>79.0</ele><time>2026-04-26T10:08:58.978Z</time></trkpt><trkpt lat="40.841751" lon="8.9356783"><ele>78.0</ele><time>2026-04-26T10:08:59.979Z</time></trkpt><trkpt lat="40.8418262" lon="8.9357204"><ele>77.0</ele><time>2026-04-26T10:09:00.979Z</time></trkpt><trkpt lat="40.8419055" lon="8.9357641"><ele>76.0</ele><time>2026-04-26T10:09:01.979Z</time></trkpt><trkpt lat="40.8419864" lon="8.9358131"><ele>75.8</ele><time>2026-04-26T10:09:02.98Z</time></trkpt><trkpt lat="40.8420692" lon="8.9358699"><ele>75.6</ele><time>2026-04-26T10:09:03.979Z</time></trkpt><trkpt lat="40.842154" lon="8.9359331"><ele>75.4</ele><time>2026-04-26T10:09:04.978Z</time></trkpt><trkpt lat="40.8422406" lon="8.9360021"><ele>75.2</ele><time>2026-04-26T10:09:05.978Z</time></trkpt><trkpt lat="40.842325" lon="8.936075"><ele>75.0</ele><time>2026-04-26T10:09:06.981Z</time></trkpt><trkpt lat="40.8424044" lon="8.9361459"><ele>75.0</ele><time>2026-04-26T10:09:07.98Z</time></trkpt><trkpt lat="40.8424773" lon="8.9362176"><ele>75.0</ele><time>2026-04-26T10:09:08.979Z</time></trkpt><trkpt lat="40.8425403" lon="8.9362912"><ele>75.0</ele><time>2026-04-26T10:09:09.979Z</time></trkpt><trkpt lat="40.8425929" lon="8.9363689"><ele>75.0</ele><time>2026-04-26T10:09:10.979Z</time></trkpt><trkpt lat="40.8426384" lon="8.9364427"><ele>75.0</ele><time>2026-04-26T10:09:11.981Z</time></trkpt><trkpt lat="40.8426797" lon="8.9365096"><ele>75.0</ele><time>2026-04-26T10:09:12.978Z</time></trkpt><trkpt lat="40.8427441" lon="8.9365905"><ele>73.5</ele><time>2026-04-26T10:09:14.98Z</time></trkpt><trkpt lat="40.8428419" lon="8.936601"><ele>72.0</ele><time>2026-04-26T10:09:16.98Z</time></trkpt><trkpt lat="40.8429149" lon="8.9365953"><ele>70.5</ele><time>2026-04-26T10:09:17.978Z</time></trkpt><trkpt lat="40.842996" lon="8.9365827"><ele>69.0</ele><time>2026-04-26T10:09:18.978Z</time></trkpt><trkpt lat="40.8430791" lon="8.9365707"><ele>67.5</ele><time>2026-04-26T10:09:19.978Z</time></trkpt><trkpt lat="40.8431589" lon="8.9365591"><ele>66.0</ele><time>2026-04-26T10:09:20.978Z</time></trkpt><trkpt lat="40.8432388" lon="8.9365427"><ele>66.0</ele><time>2026-04-26T10:09:21.979Z</time></trkpt><trkpt lat="40.8433155" lon="8.9365121"><ele>66.0</ele><time>2026-04-26T10:09:22.98Z</time></trkpt><trkpt lat="40.8433882" lon="8.9364671"><ele>66.0</ele><time>2026-04-26T10:09:23.978Z</time></trkpt><trkpt lat="40.8434652" lon="8.936423"><ele>66.0</ele><time>2026-04-26T10:09:24.98Z</time></trkpt><trkpt lat="40.8435409" lon="8.9363855"><ele>66.0</ele><time>2026-04-26T10:09:25.98Z</time></trkpt><trkpt lat="40.843618" lon="8.9363606"><ele>66.0</ele><time>2026-04-26T10:09:26.979Z</time></trkpt><trkpt lat="40.8436964" lon="8.9363439"><ele>65.66666666666667</ele><time>2026-04-26T10:09:27.979Z</time></trkpt><trkpt lat="40.8437719" lon="8.9363279"><ele>65.33333333333333</ele><time>2026-04-26T10:09:28.98Z</time></trkpt><trkpt lat="40.8438417" lon="8.9363088"><ele>65.0</ele><time>2026-04-26T10:09:29.983Z</time></trkpt><trkpt lat="40.8439068" lon="8.9362796"><ele>64.66666666666666</ele><time>2026-04-26T10:09:30.98Z</time></trkpt><trkpt lat="40.8439663" lon="8.9362499"><ele>64.33333333333333</ele><time>2026-04-26T10:09:31.978Z</time></trkpt><trkpt lat="40.8440498" lon="8.9362303"><ele>64.0</ele><time>2026-04-26T10:09:33.979Z</time></trkpt><trkpt lat="40.84412" lon="8.9363006"><ele>63.99999999999999</ele><time>2026-04-26T10:09:35.98Z</time></trkpt><trkpt lat="40.8441722" lon="8.9364448"><ele>64.0</ele><time>2026-04-26T10:09:37.979Z</time></trkpt><trkpt lat="40.8441983" lon="8.9365367"><ele>64.0</ele><time>2026-04-26T10:09:38.979Z</time></trkpt><trkpt lat="40.8442271" lon="8.9366322"><ele>64.0</ele><time>2026-04-26T10:09:39.978Z</time></trkpt><trkpt lat="40.8442574" lon="8.9367279"><ele>63.99999999999999</ele><time>2026-04-26T10:09:40.978Z</time></trkpt><trkpt lat="40.84429" lon="8.936822"><ele>64.0</ele><time>2026-04-26T10:09:41.979Z</time></trkpt><trkpt lat="40.8443216" lon="8.9369087"><ele>64.83333333333333</ele><time>2026-04-26T10:09:42.978Z</time></trkpt><trkpt lat="40.8443589" lon="8.9369931"><ele>65.66666666666666</ele><time>2026-04-26T10:09:43.979Z</time></trkpt><trkpt lat="40.8444122" lon="8.9370673"><ele>66.5</ele><time>2026-04-26T10:09:44.978Z</time></trkpt><trkpt lat="40.8444871" lon="8.9371221"><ele>67.33333333333333</ele><time>2026-04-26T10:09:45.978Z</time></trkpt><trkpt lat="40.8445729" lon="8.9371618"><ele>68.16666666666667</ele><time>2026-04-26T10:09:46.979Z</time></trkpt><trkpt lat="40.8446564" lon="8.9372025"><ele>69.0</ele><time>2026-04-26T10:09:47.98Z</time></trkpt><trkpt lat="40.8447396" lon="8.9372449"><ele>69.0</ele><time>2026-04-26T10:09:48.979Z</time></trkpt><trkpt lat="40.8448213" lon="8.9372877"><ele>69.0</ele><time>2026-04-26T10:09:49.979Z</time></trkpt><trkpt lat="40.8448957" lon="8.9373322"><ele>69.0</ele><time>2026-04-26T10:09:50.98Z</time></trkpt><trkpt lat="40.8449641" lon="8.9373727"><ele>69.0</ele><time>2026-04-26T10:09:51.978Z</time></trkpt><trkpt lat="40.8450345" lon="8.9374082"><ele>69.0</ele><time>2026-04-26T10:09:52.979Z</time></trkpt><trkpt lat="40.8451087" lon="8.9374319"><ele>69.0</ele><time>2026-04-26T10:09:53.978Z</time></trkpt><trkpt lat="40.8451847" lon="8.9374477"><ele>68.83333333333333</ele><time>2026-04-26T10:09:54.978Z</time></trkpt><trkpt lat="40.8452582" lon="8.9374564"><ele>68.66666666666667</ele><time>2026-04-26T10:09:55.98Z</time></trkpt><trkpt lat="40.8453239" lon="8.9374653"><ele>68.5</ele><time>2026-04-26T10:09:56.979Z</time></trkpt><trkpt lat="40.8453878" lon="8.9374707"><ele>68.33333333333334</ele><time>2026-04-26T10:09:57.98Z</time></trkpt><trkpt lat="40.8454725" lon="8.9374945"><ele>68.16666666666667</ele><time>2026-04-26T10:09:59.98Z</time></trkpt><trkpt lat="40.8455164" lon="8.9375788"><ele>68.0</ele><time>2026-04-26T10:10:01.979Z</time></trkpt><trkpt lat="40.8455278" lon="8.9377503"><ele>70.0</ele><time>2026-04-26T10:10:03.978Z</time></trkpt><trkpt lat="40.8455343" lon="8.9378617"><ele>72.0</ele><time>2026-04-26T10:10:04.979Z</time></trkpt><trkpt lat="40.8455397" lon="8.9379856"><ele>74.0</ele><time>2026-04-26T10:10:05.979Z</time></trkpt><trkpt lat="40.8455483" lon="8.9381102"><ele>76.0</ele><time>2026-04-26T10:10:06.979Z</time></trkpt><trkpt lat="40.84556" lon="8.938234"><ele>78.0</ele><time>2026-04-26T10:10:07.982Z</time></trkpt><trkpt lat="40.8455697" lon="8.9383549"><ele>79.0</ele><time>2026-04-26T10:10:08.984Z</time></trkpt><trkpt lat="40.8455826" lon="8.9384806"><ele>80.0</ele><time>2026-04-26T10:10:09.978Z</time></trkpt><trkpt lat="40.8456061" lon="8.9385897"><ele>81.0</ele><time>2026-04-26T10:10:10.979Z</time></trkpt><trkpt lat="40.8456444" lon="8.9386784"><ele>82.0</ele><time>2026-04-26T10:10:11.979Z</time></trkpt><trkpt lat="40.8456977" lon="8.9387448"><ele>83.0</ele><time>2026-04-26T10:10:12.978Z</time></trkpt><trkpt lat="40.8457744" lon="8.9387835"><ele>84.0</ele><time>2026-04-26T10:10:13.978Z</time></trkpt><trkpt lat="40.8458606" lon="8.9388091"><ele>84.0</ele><time>2026-04-26T10:10:14.98Z</time></trkpt><trkpt lat="40.8459506" lon="8.9388345"><ele>84.0</ele><time>2026-04-26T10:10:15.978Z</time></trkpt><trkpt lat="40.8460433" lon="8.9388617"><ele>84.0</ele><time>2026-04-26T10:10:16.978Z</time></trkpt><trkpt lat="40.8461345" lon="8.9388916"><ele>84.0</ele><time>2026-04-26T10:10:17.979Z</time></trkpt><trkpt lat="40.8462229" lon="8.9389153"><ele>84.0</ele><time>2026-04-26T10:10:18.979Z</time></trkpt><trkpt lat="40.8463133" lon="8.9389406"><ele>83.0</ele><time>2026-04-26T10:10:19.979Z</time></trkpt><trkpt lat="40.8464011" lon="8.9389683"><ele>82.0</ele><time>2026-04-26T10:10:20.98Z</time></trkpt><trkpt lat="40.8464894" lon="8.9390018"><ele>81.0</ele><time>2026-04-26T10:10:21.978Z</time></trkpt><trkpt lat="40.8465796" lon="8.9390402"><ele>80.0</ele><time>2026-04-26T10:10:22.978Z</time></trkpt><trkpt lat="40.8466758" lon="8.9390845"><ele>79.0</ele><time>2026-04-26T10:10:23.979Z</time></trkpt><trkpt lat="40.8467739" lon="8.9391288"><ele>78.60000000000001</ele><time>2026-04-26T10:10:24.98Z</time></trkpt><trkpt lat="40.8468716" lon="8.9391795"><ele>78.2</ele><time>2026-04-26T10:10:25.98Z</time></trkpt><trkpt lat="40.8469749" lon="8.9392325"><ele>77.80000000000001</ele><time>2026-04-26T10:10:26.979Z</time></trkpt><trkpt lat="40.8470792" lon="8.9392851"><ele>77.4</ele><time>2026-04-26T10:10:27.98Z</time></trkpt><trkpt lat="40.8471815" lon="8.9393359"><ele>77.0</ele><time>2026-04-26T10:10:28.979Z</time></trkpt><trkpt lat="40.8472785" lon="8.939384"><ele>77.0</ele><time>2026-04-26T10:10:29.98Z</time></trkpt><trkpt lat="40.8473682" lon="8.9394335"><ele>77.0</ele><time>2026-04-26T10:10:30.979Z</time></trkpt><trkpt lat="40.8474518" lon="8.9394857"><ele>77.0</ele><time>2026-04-26T10:10:31.978Z</time></trkpt><trkpt lat="40.8475258" lon="8.9395485"><ele>77.0</ele><time>2026-04-26T10:10:32.979Z</time></trkpt><trkpt lat="40.84759" lon="8.9396217"><ele>77.0</ele><time>2026-04-26T10:10:33.979Z</time></trkpt><trkpt lat="40.8476432" lon="8.9397063"><ele>77.0</ele><time>2026-04-26T10:10:34.98Z</time></trkpt><trkpt lat="40.847691" lon="8.9397951"><ele>76.16666666666667</ele><time>2026-04-26T10:10:35.978Z</time></trkpt><trkpt lat="40.8477389" lon="8.9398916"><ele>75.33333333333334</ele><time>2026-04-26T10:10:36.979Z</time></trkpt><trkpt lat="40.8477772" lon="8.9399888"><ele>74.5</ele><time>2026-04-26T10:10:37.98Z</time></trkpt><trkpt lat="40.847801" lon="8.9400814"><ele>73.66666666666667</ele><time>2026-04-26T10:10:38.978Z</time></trkpt><trkpt lat="40.8478103" lon="8.9401766"><ele>72.83333333333333</ele><time>2026-04-26T10:10:39.978Z</time></trkpt><trkpt lat="40.8477965" lon="8.9402761"><ele>72.0</ele><time>2026-04-26T10:10:40.978Z</time></trkpt><trkpt lat="40.847755" lon="8.9403782"><ele>72.0</ele><time>2026-04-26T10:10:41.979Z</time></trkpt><trkpt lat="40.8476966" lon="8.9404839"><ele>72.0</ele><time>2026-04-26T10:10:42.979Z</time></trkpt><trkpt lat="40.8476411" lon="8.9406077"><ele>72.0</ele><time>2026-04-26T10:10:43.979Z</time></trkpt><trkpt lat="40.8475851" lon="8.9407373"><ele>72.0</ele><time>2026-04-26T10:10:44.981Z</time></trkpt><trkpt lat="40.8475271" lon="8.9408718"><ele>72.0</ele><time>2026-04-26T10:10:45.979Z</time></trkpt><trkpt lat="40.8474683" lon="8.9410081"><ele>73.2</ele><time>2026-04-26T10:10:46.98Z</time></trkpt><trkpt lat="40.8474168" lon="8.9411366"><ele>74.4</ele><time>2026-04-26T10:10:47.979Z</time></trkpt><trkpt lat="40.8473745" lon="8.9412539"><ele>75.6</ele><time>2026-04-26T10:10:48.979Z</time></trkpt><trkpt lat="40.8473373" lon="8.9413681"><ele>76.8</ele><time>2026-04-26T10:10:49.98Z</time></trkpt><trkpt lat="40.8473135" lon="8.9414901"><ele>78.0</ele><time>2026-04-26T10:10:50.979Z</time></trkpt><trkpt lat="40.8473074" lon="8.9416207"><ele>78.0</ele><time>2026-04-26T10:10:51.979Z</time></trkpt><trkpt lat="40.8473134" lon="8.9417485"><ele>78.0</ele><time>2026-04-26T10:10:52.983Z</time></trkpt><trkpt lat="40.8473339" lon="8.9418652"><ele>78.0</ele><time>2026-04-26T10:10:53.978Z</time></trkpt><trkpt lat="40.8473675" lon="8.9419653"><ele>78.0</ele><time>2026-04-26T10:10:54.979Z</time></trkpt><trkpt lat="40.8474074" lon="8.9420472"><ele>78.0</ele><time>2026-04-26T10:10:55.979Z</time></trkpt><trkpt lat="40.8474435" lon="8.9421249"><ele>78.0</ele><time>2026-04-26T10:10:56.979Z</time></trkpt><trkpt lat="40.8474661" lon="8.9422077"><ele>78.0</ele><time>2026-04-26T10:10:57.979Z</time></trkpt><trkpt lat="40.8474773" lon="8.9422969"><ele>78.0</ele><time>2026-04-26T10:10:58.979Z</time></trkpt><trkpt lat="40.8474673" lon="8.9424068"><ele>78.0</ele><time>2026-04-26T10:10:59.98Z</time></trkpt><trkpt lat="40.8474396" lon="8.9425291"><ele>78.0</ele><time>2026-04-26T10:11:00.98Z</time></trkpt><trkpt lat="40.8474029" lon="8.9426696"><ele>78.0</ele><time>2026-04-26T10:11:01.979Z</time></trkpt><trkpt lat="40.8473714" lon="8.9428291"><ele>78.75</ele><time>2026-04-26T10:11:02.978Z</time></trkpt><trkpt lat="40.8473452" lon="8.9429997"><ele>79.5</ele><time>2026-04-26T10:11:03.979Z</time></trkpt><trkpt lat="40.8473203" lon="8.9431791"><ele>80.25</ele><time>2026-04-26T10:11:04.98Z</time></trkpt><trkpt lat="40.8472861" lon="8.943365"><ele>81.0</ele><time>2026-04-26T10:11:05.978Z</time></trkpt><trkpt lat="40.8472467" lon="8.9435483"><ele>81.0</ele><time>2026-04-26T10:11:06.978Z</time></trkpt><trkpt lat="40.8472041" lon="8.9437131"><ele>81.0</ele><time>2026-04-26T10:11:07.979Z</time></trkpt><trkpt lat="40.847151" lon="8.9438453"><ele>81.0</ele><time>2026-04-26T10:11:08.98Z</time></trkpt><trkpt lat="40.8470878" lon="8.94393"><ele>81.0</ele><time>2026-04-26T10:11:09.978Z</time></trkpt><trkpt lat="40.8470202" lon="8.9439788"><ele>81.0</ele><time>2026-04-26T10:11:10.979Z</time></trkpt><trkpt lat="40.8469299" lon="8.9440089"><ele>81.0</ele><time>2026-04-26T10:11:11.979Z</time></trkpt><trkpt lat="40.8468135" lon="8.9440215"><ele>81.0</ele><time>2026-04-26T10:11:12.978Z</time></trkpt><trkpt lat="40.8466965" lon="8.9440575"><ele>81.0</ele><time>2026-04-26T10:11:13.979Z</time></trkpt><trkpt lat="40.8465804" lon="8.9441157"><ele>81.0</ele><time>2026-04-26T10:11:14.979Z</time></trkpt><trkpt lat="40.8464709" lon="8.9441975"><ele>82.5</ele><time>2026-04-26T10:11:15.978Z</time></trkpt><trkpt lat="40.8463624" lon="8.9442889"><ele>84.0</ele><time>2026-04-26T10:11:16.979Z</time></trkpt><trkpt lat="40.8462607" lon="8.9443777"><ele>85.5</ele><time>2026-04-26T10:11:17.978Z</time></trkpt><trkpt lat="40.8461695" lon="8.9444586"><ele>87.0</ele><time>2026-04-26T10:11:18.978Z</time></trkpt><trkpt lat="40.8460906" lon="8.9445364"><ele>87.0</ele><time>2026-04-26T10:11:19.979Z</time></trkpt><trkpt lat="40.8460272" lon="8.9446099"><ele>87.0</ele><time>2026-04-26T10:11:20.979Z</time></trkpt><trkpt lat="40.8459842" lon="8.9446839"><ele>87.0</ele><time>2026-04-26T10:11:21.979Z</time></trkpt><trkpt lat="40.8459617" lon="8.9447628"><ele>87.0</ele><time>2026-04-26T10:11:22.979Z</time></trkpt><trkpt lat="40.8459595" lon="8.9448471"><ele>87.0</ele><time>2026-04-26T10:11:23.98Z</time></trkpt><trkpt lat="40.8459824" lon="8.9449435"><ele>87.0</ele><time>2026-04-26T10:11:24.979Z</time></trkpt><trkpt lat="40.8460249" lon="8.9450615"><ele>87.25</ele><time>2026-04-26T10:11:25.979Z</time></trkpt><trkpt lat="40.8460883" lon="8.9452044"><ele>87.5</ele><time>2026-04-26T10:11:26.979Z</time></trkpt><trkpt lat="40.8461383" lon="8.9453581"><ele>87.75</ele><time>2026-04-26T10:11:27.979Z</time></trkpt><trkpt lat="40.8461836" lon="8.9455198"><ele>88.0</ele><time>2026-04-26T10:11:28.981Z</time></trkpt><trkpt lat="40.8462326" lon="8.9456829"><ele>88.0</ele><time>2026-04-26T10:11:29.979Z</time></trkpt><trkpt lat="40.8462792" lon="8.9458419"><ele>88.0</ele><time>2026-04-26T10:11:30.979Z</time></trkpt><trkpt lat="40.8463216" lon="8.9459935"><ele>88.0</ele><time>2026-04-26T10:11:31.98Z</time></trkpt><trkpt lat="40.8463624" lon="8.9461418"><ele>88.0</ele><time>2026-04-26T10:11:32.98Z</time></trkpt><trkpt lat="40.8464041" lon="8.9462867"><ele>88.0</ele><time>2026-04-26T10:11:33.98Z</time></trkpt><trkpt lat="40.8464423" lon="8.9464318"><ele>88.0</ele><time>2026-04-26T10:11:34.978Z</time></trkpt><trkpt lat="40.8464877" lon="8.9465668"><ele>88.0</ele><time>2026-04-26T10:11:35.98Z</time></trkpt><trkpt lat="40.8465447" lon="8.9467019"><ele>88.0</ele><time>2026-04-26T10:11:36.98Z</time></trkpt><trkpt lat="40.8466113" lon="8.94683"><ele>88.0</ele><time>2026-04-26T10:11:37.979Z</time></trkpt><trkpt lat="40.8466889" lon="8.9469603"><ele>88.0</ele><time>2026-04-26T10:11:38.979Z</time></trkpt><trkpt lat="40.8467667" lon="8.9470984"><ele>88.0</ele><time>2026-04-26T10:11:39.98Z</time></trkpt><trkpt lat="40.8468404" lon="8.947253"><ele>88.0</ele><time>2026-04-26T10:11:40.978Z</time></trkpt><trkpt lat="40.8469121" lon="8.9474179"><ele>87.75</ele><time>2026-04-26T10:11:41.98Z</time></trkpt><trkpt lat="40.8469805" lon="8.9475861"><ele>87.5</ele><time>2026-04-26T10:11:42.981Z</time></trkpt><trkpt lat="40.8470455" lon="8.9477552"><ele>87.25</ele><time>2026-04-26T10:11:43.98Z</time></trkpt><trkpt lat="40.8471054" lon="8.9479164"><ele>87.0</ele><time>2026-04-26T10:11:44.98Z</time></trkpt><trkpt lat="40.8471554" lon="8.948067"><ele>87.0</ele><time>2026-04-26T10:11:45.978Z</time></trkpt><trkpt lat="40.847198" lon="8.9482067"><ele>87.0</ele><time>2026-04-26T10:11:46.979Z</time></trkpt><trkpt lat="40.8472222" lon="8.9483442"><ele>87.0</ele><time>2026-04-26T10:11:47.979Z</time></trkpt><trkpt lat="40.847229" lon="8.9484859"><ele>87.0</ele><time>2026-04-26T10:11:48.979Z</time></trkpt><trkpt lat="40.847225" lon="8.9486389"><ele>87.0</ele><time>2026-04-26T10:11:49.98Z</time></trkpt><trkpt lat="40.8471982" lon="8.9488077"><ele>88.25</ele><time>2026-04-26T10:11:50.98Z</time></trkpt><trkpt lat="40.8471711" lon="8.9489853"><ele>89.5</ele><time>2026-04-26T10:11:51.979Z</time></trkpt><trkpt lat="40.8471441" lon="8.9491714"><ele>90.75</ele><time>2026-04-26T10:11:52.979Z</time></trkpt><trkpt lat="40.8471107" lon="8.9493678"><ele>92.0</ele><time>2026-04-26T10:11:53.98Z</time></trkpt><trkpt lat="40.8470715" lon="8.9495783"><ele>94.0</ele><time>2026-04-26T10:11:54.98Z</time></trkpt><trkpt lat="40.8470335" lon="8.9497947"><ele>96.0</ele><time>2026-04-26T10:11:55.98Z</time></trkpt><trkpt lat="40.8469957" lon="8.9500137"><ele>98.0</ele><time>2026-04-26T10:11:56.983Z</time></trkpt><trkpt lat="40.8469573" lon="8.9502309"><ele>100.33333333333333</ele><time>2026-04-26T10:11:57.979Z</time></trkpt><trkpt lat="40.8469187" lon="8.9504478"><ele>102.66666666666666</ele><time>2026-04-26T10:11:58.98Z</time></trkpt><trkpt lat="40.8468715" lon="8.9506642"><ele>105.0</ele><time>2026-04-26T10:11:59.98Z</time></trkpt><trkpt lat="40.8468224" lon="8.9508752"><ele>109.33333333333334</ele><time>2026-04-26T10:12:00.979Z</time></trkpt><trkpt lat="40.8467729" lon="8.9510862"><ele>113.66666666666667</ele><time>2026-04-26T10:12:01.979Z</time></trkpt><trkpt lat="40.8467311" lon="8.9512905"><ele>118.0</ele><time>2026-04-26T10:12:02.982Z</time></trkpt><trkpt lat="40.8466914" lon="8.9514888"><ele>118.0</ele><time>2026-04-26T10:12:03.978Z</time></trkpt><trkpt lat="40.8466371" lon="8.9516763"><ele>118.0</ele><time>2026-04-26T10:12:04.978Z</time></trkpt><trkpt lat="40.8465674" lon="8.9518651"><ele>118.0</ele><time>2026-04-26T10:12:05.979Z</time></trkpt><trkpt lat="40.8465021" lon="8.9520602"><ele>120.33333333333334</ele><time>2026-04-26T10:12:06.979Z</time></trkpt><trkpt lat="40.8464333" lon="8.9522594"><ele>122.66666666666666</ele><time>2026-04-26T10:12:07.979Z</time></trkpt><trkpt lat="40.8463648" lon="8.9524583"><ele>125.0</ele><time>2026-04-26T10:12:08.979Z</time></trkpt><trkpt lat="40.8463021" lon="8.9526565"><ele>127.25</ele><time>2026-04-26T10:12:09.979Z</time></trkpt><trkpt lat="40.8462424" lon="8.9528437"><ele>129.5</ele><time>2026-04-26T10:12:10.977Z</time></trkpt><trkpt lat="40.8461919" lon="8.9530285"><ele>131.75</ele><time>2026-04-26T10:12:11.978Z</time></trkpt><trkpt lat="40.8461478" lon="8.9532131"><ele>134.0</ele><time>2026-04-26T10:12:12.979Z</time></trkpt><trkpt lat="40.8461201" lon="8.9533991"><ele>137.0</ele><time>2026-04-26T10:12:13.979Z</time></trkpt><trkpt lat="40.8460937" lon="8.953575"><ele>140.0</ele><time>2026-04-26T10:12:14.979Z</time></trkpt><trkpt lat="40.8460681" lon="8.9537317"><ele>143.0</ele><time>2026-04-26T10:12:15.978Z</time></trkpt><trkpt lat="40.8460329" lon="8.9538609"><ele>146.0</ele><time>2026-04-26T10:12:16.98Z</time></trkpt><trkpt lat="40.8459787" lon="8.9539636"><ele>147.16666666666666</ele><time>2026-04-26T10:12:17.978Z</time></trkpt><trkpt lat="40.8459255" lon="8.9540553"><ele>148.33333333333331</ele><time>2026-04-26T10:12:18.978Z</time></trkpt><trkpt lat="40.8458839" lon="8.9541471"><ele>149.5</ele><time>2026-04-26T10:12:19.978Z</time></trkpt><trkpt lat="40.8458714" lon="8.9542386"><ele>150.66666666666666</ele><time>2026-04-26T10:12:20.979Z</time></trkpt><trkpt lat="40.8459228" lon="8.9543412"><ele>151.83333333333334</ele><time>2026-04-26T10:12:21.978Z</time></trkpt><trkpt lat="40.8459784" lon="8.9544307"><ele>153.0</ele><time>2026-04-26T10:12:22.979Z</time></trkpt><trkpt lat="40.8460268" lon="8.9545131"><ele>154.20000000000002</ele><time>2026-04-26T10:12:23.977Z</time></trkpt><trkpt lat="40.8460605" lon="8.954597"><ele>155.4</ele><time>2026-04-26T10:12:24.979Z</time></trkpt><trkpt lat="40.8460267" lon="8.9547033"><ele>156.60000000000002</ele><time>2026-04-26T10:12:26.979Z</time></trkpt><trkpt lat="40.8458877" lon="8.9547577"><ele>157.8</ele><time>2026-04-26T10:12:28.978Z</time></trkpt><trkpt lat="40.8457862" lon="8.9547621"><ele>159.0</ele><time>2026-04-26T10:12:29.978Z</time></trkpt><trkpt lat="40.8456953" lon="8.9547604"><ele>160.5</ele><time>2026-04-26T10:12:30.979Z</time></trkpt><trkpt lat="40.845606" lon="8.9547694"><ele>162.0</ele><time>2026-04-26T10:12:31.978Z</time></trkpt><trkpt lat="40.8455297" lon="8.9547876"><ele>163.5</ele><time>2026-04-26T10:12:32.979Z</time></trkpt><trkpt lat="40.8454679" lon="8.954821"><ele>165.0</ele><time>2026-04-26T10:12:33.979Z</time></trkpt><trkpt lat="40.845423" lon="8.9549612"><ele>166.5</ele><time>2026-04-26T10:12:35.979Z</time></trkpt><trkpt lat="40.8454326" lon="8.9550578"><ele>168.0</ele><time>2026-04-26T10:12:36.983Z</time></trkpt><trkpt lat="40.8454612" lon="8.9551531"><ele>170.0</ele><time>2026-04-26T10:12:37.978Z</time></trkpt><trkpt lat="40.8454929" lon="8.9552517"><ele>172.0</ele><time>2026-04-26T10:12:38.979Z</time></trkpt><trkpt lat="40.8455277" lon="8.9553581"><ele>174.0</ele><time>2026-04-26T10:12:39.978Z</time></trkpt><trkpt lat="40.8455674" lon="8.9554665"><ele>176.0</ele><time>2026-04-26T10:12:40.978Z</time></trkpt><trkpt lat="40.8456097" lon="8.9555804"><ele>178.0</ele><time>2026-04-26T10:12:41.98Z</time></trkpt><trkpt lat="40.845655" lon="8.9557087"><ele>178.0</ele><time>2026-04-26T10:12:42.979Z</time></trkpt><trkpt lat="40.8456955" lon="8.9558432"><ele>178.0</ele><time>2026-04-26T10:12:43.978Z</time></trkpt><trkpt lat="40.8457265" lon="8.9559792"><ele>178.0</ele><time>2026-04-26T10:12:44.979Z</time></trkpt><trkpt lat="40.8457453" lon="8.9561287"><ele>178.0</ele><time>2026-04-26T10:12:45.979Z</time></trkpt><trkpt lat="40.8457444" lon="8.9562905"><ele>179.75</ele><time>2026-04-26T10:12:46.978Z</time></trkpt><trkpt lat="40.8457282" lon="8.9564655"><ele>181.5</ele><time>2026-04-26T10:12:47.979Z</time></trkpt><trkpt lat="40.8457104" lon="8.956656"><ele>183.25</ele><time>2026-04-26T10:12:48.979Z</time></trkpt><trkpt lat="40.8456963" lon="8.9568466"><ele>185.0</ele><time>2026-04-26T10:12:49.978Z</time></trkpt><trkpt lat="40.8456928" lon="8.9570393"><ele>186.25</ele><time>2026-04-26T10:12:50.979Z</time></trkpt><trkpt lat="40.8456931" lon="8.9572339"><ele>187.5</ele><time>2026-04-26T10:12:51.978Z</time></trkpt><trkpt lat="40.8456852" lon="8.9574273"><ele>188.75</ele><time>2026-04-26T10:12:52.979Z</time></trkpt><trkpt lat="40.8456691" lon="8.9576241"><ele>190.0</ele><time>2026-04-26T10:12:53.978Z</time></trkpt><trkpt lat="40.8456497" lon="8.9578184"><ele>191.0</ele><time>2026-04-26T10:12:54.978Z</time></trkpt><trkpt lat="40.8456306" lon="8.9580012"><ele>192.0</ele><time>2026-04-26T10:12:55.979Z</time></trkpt><trkpt lat="40.8456136" lon="8.9581777"><ele>193.0</ele><time>2026-04-26T10:12:56.978Z</time></trkpt><trkpt lat="40.8455962" lon="8.9583621"><ele>194.0</ele><time>2026-04-26T10:12:57.978Z</time></trkpt><trkpt lat="40.8455824" lon="8.9585522"><ele>194.0</ele><time>2026-04-26T10:12:58.978Z</time></trkpt><trkpt lat="40.8455647" lon="8.958748"><ele>194.0</ele><time>2026-04-26T10:12:59.977Z</time></trkpt><trkpt lat="40.8455437" lon="8.9589497"><ele>194.0</ele><time>2026-04-26T10:13:00.979Z</time></trkpt><trkpt lat="40.8455148" lon="8.9591557"><ele>194.33333333333334</ele><time>2026-04-26T10:13:01.977Z</time></trkpt><trkpt lat="40.8454822" lon="8.9593645"><ele>194.66666666666669</ele><time>2026-04-26T10:13:02.978Z</time></trkpt><trkpt lat="40.8454471" lon="8.9595655"><ele>195.0</ele><time>2026-04-26T10:13:03.977Z</time></trkpt><trkpt lat="40.8454158" lon="8.9597543"><ele>195.0</ele><time>2026-04-26T10:13:04.978Z</time></trkpt><trkpt lat="40.8453931" lon="8.9599415"><ele>195.0</ele><time>2026-04-26T10:13:05.977Z</time></trkpt><trkpt lat="40.8453859" lon="8.9601263"><ele>195.0</ele><time>2026-04-26T10:13:06.978Z</time></trkpt><trkpt lat="40.845384" lon="8.9602909"><ele>195.0</ele><time>2026-04-26T10:13:07.978Z</time></trkpt><trkpt lat="40.8453873" lon="8.9604073"><ele>195.0</ele><time>2026-04-26T10:13:08.978Z</time></trkpt><trkpt lat="40.8453928" lon="8.9605187"><ele>195.0</ele><time>2026-04-26T10:13:10.978Z</time></trkpt><trkpt lat="40.8454769" lon="8.9604592"><ele>195.0</ele><time>2026-04-26T10:13:14.979Z</time></trkpt><trkpt lat="40.8456064" lon="8.9603642"><ele>195.0</ele><time>2026-04-26T10:13:16.979Z</time></trkpt><trkpt lat="40.845695" lon="8.960321"><ele>195.0</ele><time>2026-04-26T10:13:17.979Z</time></trkpt><trkpt lat="40.8457959" lon="8.9602798"><ele>195.0</ele><time>2026-04-26T10:13:18.979Z</time></trkpt><trkpt lat="40.8458956" lon="8.9602464"><ele>195.0</ele><time>2026-04-26T10:13:19.978Z</time></trkpt><trkpt lat="40.8459898" lon="8.9602252"><ele>195.0</ele><time>2026-04-26T10:13:20.978Z</time></trkpt><trkpt lat="40.8460909" lon="8.9602122"><ele>195.0</ele><time>2026-04-26T10:13:21.978Z</time></trkpt><trkpt lat="40.8461929" lon="8.9602058"><ele>195.0</ele><time>2026-04-26T10:13:22.979Z</time></trkpt><trkpt lat="40.8462914" lon="8.9602063"><ele>192.6</ele><time>2026-04-26T10:13:23.978Z</time></trkpt><trkpt lat="40.8463918" lon="8.960204"><ele>190.2</ele><time>2026-04-26T10:13:24.978Z</time></trkpt><trkpt lat="40.8464924" lon="8.9601778"><ele>187.8</ele><time>2026-04-26T10:13:25.978Z</time></trkpt><trkpt lat="40.8465963" lon="8.9601435"><ele>185.4</ele><time>2026-04-26T10:13:26.978Z</time></trkpt><trkpt lat="40.8467059" lon="8.9600953"><ele>183.0</ele><time>2026-04-26T10:13:27.978Z</time></trkpt><trkpt lat="40.8468135" lon="8.960043"><ele>182.4</ele><time>2026-04-26T10:13:28.979Z</time></trkpt><trkpt lat="40.8469164" lon="8.9599894"><ele>181.8</ele><time>2026-04-26T10:13:29.978Z</time></trkpt><trkpt lat="40.8470113" lon="8.9599495"><ele>181.2</ele><time>2026-04-26T10:13:30.978Z</time></trkpt><trkpt lat="40.8470969" lon="8.9599187"><ele>180.6</ele><time>2026-04-26T10:13:31.979Z</time></trkpt><trkpt lat="40.8471767" lon="8.9599115"><ele>180.0</ele><time>2026-04-26T10:13:32.979Z</time></trkpt><trkpt lat="40.8472571" lon="8.9599187"><ele>180.0</ele><time>2026-04-26T10:13:33.979Z</time></trkpt><trkpt lat="40.8473302" lon="8.9599413"><ele>180.0</ele><time>2026-04-26T10:13:34.978Z</time></trkpt><trkpt lat="40.8473887" lon="8.9599792"><ele>180.0</ele><time>2026-04-26T10:13:35.979Z</time></trkpt><trkpt lat="40.8474675" lon="8.9600528"><ele>180.0</ele><time>2026-04-26T10:13:37.979Z</time></trkpt><trkpt lat="40.8475066" lon="8.9601181"><ele>180.0</ele><time>2026-04-26T10:13:39.978Z</time></trkpt><trkpt lat="40.8475803" lon="8.9601552"><ele>180.0</ele><time>2026-04-26T10:13:41.978Z</time></trkpt><trkpt lat="40.8476594" lon="8.9601293"><ele>179.8</ele><time>2026-04-26T10:13:43.979Z</time></trkpt><trkpt lat="40.8477641" lon="8.9600469"><ele>179.6</ele><time>2026-04-26T10:13:45.978Z</time></trkpt><trkpt lat="40.8478725" lon="8.9599811"><ele>179.39999999999998</ele><time>2026-04-26T10:13:47.979Z</time></trkpt><trkpt lat="40.8479684" lon="8.9599335"><ele>179.2</ele><time>2026-04-26T10:13:49.979Z</time></trkpt><trkpt lat="40.8480253" lon="8.9598947"><ele>179.0</ele><time>2026-04-26T10:13:51.978Z</time></trkpt><trkpt lat="40.8479468" lon="8.9599354"><ele>179.00000000000003</ele><time>2026-04-26T10:13:57.979Z</time></trkpt><trkpt lat="40.8478925" lon="8.9599798"><ele>179.0</ele><time>2026-04-26T10:13:58.978Z</time></trkpt><trkpt lat="40.8478143" lon="8.9600203"><ele>179.0</ele><time>2026-04-26T10:13:59.979Z</time></trkpt><trkpt lat="40.8477453" lon="8.9600706"><ele>179.0</ele><time>2026-04-26T10:14:00.979Z</time></trkpt><trkpt lat="40.8476797" lon="8.9601164"><ele>179.0</ele><time>2026-04-26T10:14:01.979Z</time></trkpt><trkpt lat="40.8476118" lon="8.9601483"><ele>179.00000000000003</ele><time>2026-04-26T10:14:02.979Z</time></trkpt><trkpt lat="40.8475415" lon="8.9601613"><ele>179.0</ele><time>2026-04-26T10:14:03.979Z</time></trkpt><trkpt lat="40.847443" lon="8.9601622"><ele>178.16666666666666</ele><time>2026-04-26T10:14:05.978Z</time></trkpt><trkpt lat="40.8474267" lon="8.9602809"><ele>177.33333333333331</ele><time>2026-04-26T10:14:08.978Z</time></trkpt><trkpt lat="40.847488" lon="8.9604169"><ele>176.5</ele><time>2026-04-26T10:14:10.979Z</time></trkpt><trkpt lat="40.8475227" lon="8.9604926"><ele>175.66666666666666</ele><time>2026-04-26T10:14:11.978Z</time></trkpt><trkpt lat="40.8475577" lon="8.9605735"><ele>174.83333333333334</ele><time>2026-04-26T10:14:12.979Z</time></trkpt><trkpt lat="40.8475983" lon="8.9606558"><ele>174.0</ele><time>2026-04-26T10:14:13.979Z</time></trkpt><trkpt lat="40.8476495" lon="8.9607306"><ele>173.66666666666666</ele><time>2026-04-26T10:14:14.978Z</time></trkpt><trkpt lat="40.8477126" lon="8.9607899"><ele>173.33333333333334</ele><time>2026-04-26T10:14:15.979Z</time></trkpt><trkpt lat="40.8477858" lon="8.9608259"><ele>173.0</ele><time>2026-04-26T10:14:16.979Z</time></trkpt><trkpt lat="40.8478648" lon="8.9608412"><ele>172.66666666666669</ele><time>2026-04-26T10:14:17.978Z</time></trkpt><trkpt lat="40.8479395" lon="8.9608573"><ele>172.33333333333334</ele><time>2026-04-26T10:14:18.978Z</time></trkpt><trkpt lat="40.8480072" lon="8.9608888"><ele>172.0</ele><time>2026-04-26T10:14:19.978Z</time></trkpt><trkpt lat="40.8480917" lon="8.9609881"><ele>172.0</ele><time>2026-04-26T10:14:21.979Z</time></trkpt><trkpt lat="40.8481171" lon="8.9611414"><ele>172.0</ele><time>2026-04-26T10:14:23.979Z</time></trkpt><trkpt lat="40.8480935" lon="8.9612442"><ele>172.0</ele><time>2026-04-26T10:14:24.979Z</time></trkpt><trkpt lat="40.8480825" lon="8.9613568"><ele>172.0</ele><time>2026-04-26T10:14:25.98Z</time></trkpt><trkpt lat="40.8480782" lon="8.9614577"><ele>172.0</ele><time>2026-04-26T10:14:26.979Z</time></trkpt><trkpt lat="40.8480856" lon="8.961547"><ele>172.0</ele><time>2026-04-26T10:14:27.977Z</time></trkpt><trkpt lat="40.8481373" lon="8.9616095"><ele>172.0</ele><time>2026-04-26T10:14:28.978Z</time></trkpt><trkpt lat="40.8482076" lon="8.9616476"><ele>172.0</ele><time>2026-04-26T10:14:29.978Z</time></trkpt><trkpt lat="40.8482953" lon="8.9616694"><ele>172.0</ele><time>2026-04-26T10:14:30.977Z</time></trkpt><trkpt lat="40.8483936" lon="8.9616823"><ele>172.0</ele><time>2026-04-26T10:14:31.978Z</time></trkpt><trkpt lat="40.8484914" lon="8.9616819"><ele>172.0</ele><time>2026-04-26T10:14:32.979Z</time></trkpt><trkpt lat="40.8485904" lon="8.9616635"><ele>172.16666666666669</ele><time>2026-04-26T10:14:33.978Z</time></trkpt><trkpt lat="40.8486868" lon="8.9616389"><ele>172.33333333333334</ele><time>2026-04-26T10:14:34.978Z</time></trkpt><trkpt lat="40.8487757" lon="8.9616243"><ele>172.5</ele><time>2026-04-26T10:14:35.979Z</time></trkpt><trkpt lat="40.8488596" lon="8.9616289"><ele>172.66666666666666</ele><time>2026-04-26T10:14:36.98Z</time></trkpt><trkpt lat="40.8489362" lon="8.9616527"><ele>172.83333333333331</ele><time>2026-04-26T10:14:37.982Z</time></trkpt><trkpt lat="40.8490024" lon="8.9617093"><ele>173.0</ele><time>2026-04-26T10:14:38.978Z</time></trkpt><trkpt lat="40.8490643" lon="8.9617906"><ele>174.4</ele><time>2026-04-26T10:14:39.978Z</time></trkpt><trkpt lat="40.8491201" lon="8.9618924"><ele>175.8</ele><time>2026-04-26T10:14:40.978Z</time></trkpt><trkpt lat="40.8491679" lon="8.962013"><ele>177.2</ele><time>2026-04-26T10:14:41.979Z</time></trkpt><trkpt lat="40.8492261" lon="8.9621151"><ele>178.6</ele><time>2026-04-26T10:14:42.978Z</time></trkpt><trkpt lat="40.8492925" lon="8.962198"><ele>180.0</ele><time>2026-04-26T10:14:43.978Z</time></trkpt><trkpt lat="40.8493667" lon="8.9622483"><ele>180.0</ele><time>2026-04-26T10:14:44.978Z</time></trkpt><trkpt lat="40.8494528" lon="8.9622693"><ele>180.0</ele><time>2026-04-26T10:14:45.979Z</time></trkpt><trkpt lat="40.8495511" lon="8.9622607"><ele>180.0</ele><time>2026-04-26T10:14:46.977Z</time></trkpt><trkpt lat="40.8496556" lon="8.9622464"><ele>180.0</ele><time>2026-04-26T10:14:47.978Z</time></trkpt><trkpt lat="40.8497621" lon="8.9622278"><ele>180.0</ele><time>2026-04-26T10:14:48.979Z</time></trkpt><trkpt lat="40.8498697" lon="8.9622045"><ele>180.0</ele><time>2026-04-26T10:14:49.979Z</time></trkpt><trkpt lat="40.8499798" lon="8.9621687"><ele>180.0</ele><time>2026-04-26T10:14:50.979Z</time></trkpt><trkpt lat="40.8500906" lon="8.9621167"><ele>180.0</ele><time>2026-04-26T10:14:51.98Z</time></trkpt><trkpt lat="40.8502091" lon="8.962058"><ele>180.0</ele><time>2026-04-26T10:14:52.982Z</time></trkpt><trkpt lat="40.8503242" lon="8.9619966"><ele>178.75</ele><time>2026-04-26T10:14:53.979Z</time></trkpt><trkpt lat="40.8504437" lon="8.9619393"><ele>177.5</ele><time>2026-04-26T10:14:54.978Z</time></trkpt><trkpt lat="40.8505643" lon="8.9618867"><ele>176.25</ele><time>2026-04-26T10:14:55.978Z</time></trkpt><trkpt lat="40.8506845" lon="8.9618442"><ele>175.0</ele><time>2026-04-26T10:14:56.978Z</time></trkpt><trkpt lat="40.8508035" lon="8.9618188"><ele>175.0</ele><time>2026-04-26T10:14:57.979Z</time></trkpt><trkpt lat="40.8509159" lon="8.9618118"><ele>175.0</ele><time>2026-04-26T10:14:58.978Z</time></trkpt><trkpt lat="40.8510296" lon="8.9618166"><ele>175.0</ele><time>2026-04-26T10:14:59.978Z</time></trkpt><trkpt lat="40.8511395" lon="8.9618204"><ele>175.0</ele><time>2026-04-26T10:15:00.979Z</time></trkpt><trkpt lat="40.8512472" lon="8.9618152"><ele>175.0</ele><time>2026-04-26T10:15:01.978Z</time></trkpt><trkpt lat="40.851355" lon="8.9618022"><ele>172.25</ele><time>2026-04-26T10:15:02.982Z</time></trkpt><trkpt lat="40.8514561" lon="8.9617683"><ele>169.5</ele><time>2026-04-26T10:15:03.978Z</time></trkpt><trkpt lat="40.8515579" lon="8.9617177"><ele>166.75</ele><time>2026-04-26T10:15:04.979Z</time></trkpt><trkpt lat="40.8516645" lon="8.9616566"><ele>164.0</ele><time>2026-04-26T10:15:05.979Z</time></trkpt><trkpt lat="40.8517802" lon="8.9615904"><ele>162.0</ele><time>2026-04-26T10:15:06.979Z</time></trkpt><trkpt lat="40.8518976" lon="8.9615215"><ele>160.0</ele><time>2026-04-26T10:15:07.98Z</time></trkpt><trkpt lat="40.8520134" lon="8.9614517"><ele>158.0</ele><time>2026-04-26T10:15:08.979Z</time></trkpt><trkpt lat="40.8521261" lon="8.9613853"><ele>156.0</ele><time>2026-04-26T10:15:09.981Z</time></trkpt><trkpt lat="40.8522331" lon="8.9613251"><ele>156.0</ele><time>2026-04-26T10:15:10.978Z</time></trkpt><trkpt lat="40.8523359" lon="8.9612783"><ele>156.0</ele><time>2026-04-26T10:15:11.979Z</time></trkpt><trkpt lat="40.8524389" lon="8.9612479"><ele>156.0</ele><time>2026-04-26T10:15:12.978Z</time></trkpt><trkpt lat="40.8525356" lon="8.9612191"><ele>156.0</ele><time>2026-04-26T10:15:13.979Z</time></trkpt><trkpt lat="40.8526199" lon="8.961172"><ele>156.0</ele><time>2026-04-26T10:15:14.979Z</time></trkpt><trkpt lat="40.852695" lon="8.9611044"><ele>150.0</ele><time>2026-04-26T10:15:15.979Z</time></trkpt><trkpt lat="40.8527652" lon="8.9610315"><ele>144.0</ele><time>2026-04-26T10:15:16.979Z</time></trkpt><trkpt lat="40.8528413" lon="8.9609684"><ele>138.0</ele><time>2026-04-26T10:15:17.98Z</time></trkpt><trkpt lat="40.8529266" lon="8.9609196"><ele>132.0</ele><time>2026-04-26T10:15:18.978Z</time></trkpt><trkpt lat="40.853017" lon="8.9608966"><ele>126.0</ele><time>2026-04-26T10:15:19.979Z</time></trkpt><trkpt lat="40.8531135" lon="8.9608969"><ele>126.0</ele><time>2026-04-26T10:15:20.978Z</time></trkpt><trkpt lat="40.8532108" lon="8.9609035"><ele>126.0</ele><time>2026-04-26T10:15:21.978Z</time></trkpt><trkpt lat="40.8533148" lon="8.9609111"><ele>126.0</ele><time>2026-04-26T10:15:22.979Z</time></trkpt><trkpt lat="40.8534258" lon="8.9609089"><ele>126.0</ele><time>2026-04-26T10:15:23.978Z</time></trkpt><trkpt lat="40.8535403" lon="8.960901"><ele>126.0</ele><time>2026-04-26T10:15:24.979Z</time></trkpt><trkpt lat="40.8536524" lon="8.9608847"><ele>123.4</ele><time>2026-04-26T10:15:25.979Z</time></trkpt><trkpt lat="40.8537551" lon="8.9608531"><ele>120.8</ele><time>2026-04-26T10:15:26.978Z</time></trkpt><trkpt lat="40.8538439" lon="8.9608059"><ele>118.20000000000002</ele><time>2026-04-26T10:15:27.978Z</time></trkpt><trkpt lat="40.8539176" lon="8.9607355"><ele>115.60000000000001</ele><time>2026-04-26T10:15:28.979Z</time></trkpt><trkpt lat="40.8539769" lon="8.9606482"><ele>113.0</ele><time>2026-04-26T10:15:29.979Z</time></trkpt><trkpt lat="40.8540239" lon="8.960545"><ele>112.99999999999999</ele><time>2026-04-26T10:15:30.978Z</time></trkpt><trkpt lat="40.8540659" lon="8.9604425"><ele>113.0</ele><time>2026-04-26T10:15:31.98Z</time></trkpt><trkpt lat="40.8541098" lon="8.9603456"><ele>113.0</ele><time>2026-04-26T10:15:32.978Z</time></trkpt><trkpt lat="40.8541533" lon="8.960262"><ele>113.0</ele><time>2026-04-26T10:15:33.978Z</time></trkpt><trkpt lat="40.854196" lon="8.9601998"><ele>112.99999999999999</ele><time>2026-04-26T10:15:34.979Z</time></trkpt><trkpt lat="40.8542728" lon="8.9601378"><ele>113.0</ele><time>2026-04-26T10:15:36.979Z</time></trkpt><trkpt lat="40.8543441" lon="8.9601838"><ele>113.49999999999999</ele><time>2026-04-26T10:15:38.98Z</time></trkpt><trkpt lat="40.8544196" lon="8.9602401"><ele>114.0</ele><time>2026-04-26T10:15:40.979Z</time></trkpt><trkpt lat="40.8544822" lon="8.9602669"><ele>114.5</ele><time>2026-04-26T10:15:42.98Z</time></trkpt><trkpt lat="40.8545425" lon="8.9603132"><ele>115.0</ele><time>2026-04-26T10:15:46.978Z</time></trkpt><trkpt lat="40.8546047" lon="8.9603963"><ele>115.49999999999999</ele><time>2026-04-26T10:15:53.979Z</time></trkpt><trkpt lat="40.8546225" lon="8.9605099"><ele>116.0</ele><time>2026-04-26T10:15:55.978Z</time></trkpt><trkpt lat="40.8546034" lon="8.9606587"><ele>115.99999999999999</ele><time>2026-04-26T10:15:57.979Z</time></trkpt><trkpt lat="40.854564" lon="8.9608199"><ele>116.0</ele><time>2026-04-26T10:15:59.979Z</time></trkpt><trkpt lat="40.8545475" lon="8.9609058"><ele>116.0</ele><time>2026-04-26T10:16:00.979Z</time></trkpt><trkpt lat="40.854527" lon="8.9610012"><ele>116.0</ele><time>2026-04-26T10:16:01.978Z</time></trkpt><trkpt lat="40.8545059" lon="8.961099"><ele>115.99999999999999</ele><time>2026-04-26T10:16:02.979Z</time></trkpt><trkpt lat="40.8544854" lon="8.9611993"><ele>116.0</ele><time>2026-04-26T10:16:03.979Z</time></trkpt><trkpt lat="40.8544707" lon="8.9613021"><ele>111.66666666666666</ele><time>2026-04-26T10:16:04.98Z</time></trkpt><trkpt lat="40.8544591" lon="8.9614106"><ele>107.33333333333333</ele><time>2026-04-26T10:16:05.979Z</time></trkpt><trkpt lat="40.8544502" lon="8.9615195"><ele>103.0</ele><time>2026-04-26T10:16:06.977Z</time></trkpt><trkpt lat="40.8544455" lon="8.9616293"><ele>98.66666666666666</ele><time>2026-04-26T10:16:07.979Z</time></trkpt><trkpt lat="40.854441" lon="8.9617408"><ele>94.33333333333333</ele><time>2026-04-26T10:16:08.978Z</time></trkpt><trkpt lat="40.8544348" lon="8.9618536"><ele>90.0</ele><time>2026-04-26T10:16:09.978Z</time></trkpt><trkpt lat="40.8544275" lon="8.9619696"><ele>86.4</ele><time>2026-04-26T10:16:10.98Z</time></trkpt><trkpt lat="40.8544218" lon="8.9620886"><ele>82.8</ele><time>2026-04-26T10:16:11.978Z</time></trkpt><trkpt lat="40.8544142" lon="8.9622144"><ele>79.2</ele><time>2026-04-26T10:16:12.979Z</time></trkpt><trkpt lat="40.854406" lon="8.9623494"><ele>75.6</ele><time>2026-04-26T10:16:13.979Z</time></trkpt><trkpt lat="40.8543952" lon="8.9624866"><ele>72.0</ele><time>2026-04-26T10:16:14.978Z</time></trkpt><trkpt lat="40.8543865" lon="8.9626296"><ele>70.75</ele><time>2026-04-26T10:16:15.978Z</time></trkpt><trkpt lat="40.8543797" lon="8.9627765"><ele>69.5</ele><time>2026-04-26T10:16:16.978Z</time></trkpt><trkpt lat="40.8543718" lon="8.962927"><ele>68.25</ele><time>2026-04-26T10:16:17.979Z</time></trkpt><trkpt lat="40.8543627" lon="8.96308"><ele>67.0</ele><time>2026-04-26T10:16:18.979Z</time></trkpt><trkpt lat="40.8543507" lon="8.9632278"><ele>66.6</ele><time>2026-04-26T10:16:19.978Z</time></trkpt><trkpt lat="40.8543309" lon="8.9633731"><ele>66.2</ele><time>2026-04-26T10:16:20.978Z</time></trkpt><trkpt lat="40.8543088" lon="8.9635166"><ele>65.8</ele><time>2026-04-26T10:16:21.979Z</time></trkpt><trkpt lat="40.8542852" lon="8.9636557"><ele>65.4</ele><time>2026-04-26T10:16:22.98Z</time></trkpt><trkpt lat="40.8542591" lon="8.9637948"><ele>65.0</ele><time>2026-04-26T10:16:23.979Z</time></trkpt><trkpt lat="40.8542298" lon="8.9639301"><ele>65.0</ele><time>2026-04-26T10:16:24.978Z</time></trkpt><trkpt lat="40.8541963" lon="8.964062"><ele>65.0</ele><time>2026-04-26T10:16:25.979Z</time></trkpt><trkpt lat="40.8541573" lon="8.9641924"><ele>65.0</ele><time>2026-04-26T10:16:26.978Z</time></trkpt><trkpt lat="40.8541131" lon="8.9643269"><ele>65.0</ele><time>2026-04-26T10:16:27.978Z</time></trkpt><trkpt lat="40.854065" lon="8.9644648"><ele>65.0</ele><time>2026-04-26T10:16:28.978Z</time></trkpt><trkpt lat="40.8540135" lon="8.9646049"><ele>63.25</ele><time>2026-04-26T10:16:29.979Z</time></trkpt><trkpt lat="40.8539535" lon="8.9647464"><ele>61.5</ele><time>2026-04-26T10:16:30.978Z</time></trkpt><trkpt lat="40.853889" lon="8.9648817"><ele>59.75</ele><time>2026-04-26T10:16:31.979Z</time></trkpt><trkpt lat="40.8538259" lon="8.9650023"><ele>58.0</ele><time>2026-04-26T10:16:32.979Z</time></trkpt><trkpt lat="40.8537673" lon="8.9651077"><ele>57.599999999999994</ele><time>2026-04-26T10:16:33.979Z</time></trkpt><trkpt lat="40.8537115" lon="8.9652032"><ele>57.199999999999996</ele><time>2026-04-26T10:16:34.978Z</time></trkpt><trkpt lat="40.8536618" lon="8.9652893"><ele>56.8</ele><time>2026-04-26T10:16:35.978Z</time></trkpt><trkpt lat="40.8536153" lon="8.9653648"><ele>56.4</ele><time>2026-04-26T10:16:36.978Z</time></trkpt><trkpt lat="40.8535732" lon="8.9654315"><ele>56.0</ele><time>2026-04-26T10:16:37.978Z</time></trkpt><trkpt lat="40.8534509" lon="8.965592"><ele>57.199999999999996</ele><time>2026-04-26T10:16:40.982Z</time></trkpt><trkpt lat="40.8533771" lon="8.9657153"><ele>58.39999999999999</ele><time>2026-04-26T10:16:42.977Z</time></trkpt><trkpt lat="40.8533326" lon="8.9657989"><ele>59.6</ele><time>2026-04-26T10:16:43.979Z</time></trkpt><trkpt lat="40.8532813" lon="8.9658901"><ele>60.8</ele><time>2026-04-26T10:16:44.979Z</time></trkpt><trkpt lat="40.8532233" lon="8.96599"><ele>62.0</ele><time>2026-04-26T10:16:45.978Z</time></trkpt><trkpt lat="40.8531594" lon="8.9660965"><ele>62.0</ele><time>2026-04-26T10:16:46.978Z</time></trkpt><trkpt lat="40.853093" lon="8.9662081"><ele>62.0</ele><time>2026-04-26T10:16:47.979Z</time></trkpt><trkpt lat="40.8530249" lon="8.9663336"><ele>62.0</ele><time>2026-04-26T10:16:48.978Z</time></trkpt><trkpt lat="40.8529581" lon="8.9664649"><ele>62.0</ele><time>2026-04-26T10:16:49.978Z</time></trkpt><trkpt lat="40.8528964" lon="8.9666031"><ele>62.25</ele><time>2026-04-26T10:16:50.979Z</time></trkpt><trkpt lat="40.8528342" lon="8.9667461"><ele>62.5</ele><time>2026-04-26T10:16:51.978Z</time></trkpt><trkpt lat="40.852777" lon="8.9668949"><ele>62.75</ele><time>2026-04-26T10:16:52.979Z</time></trkpt><trkpt lat="40.8527196" lon="8.9670485"><ele>63.0</ele><time>2026-04-26T10:16:53.982Z</time></trkpt><trkpt lat="40.8526647" lon="8.9672029"><ele>64.5</ele><time>2026-04-26T10:16:54.98Z</time></trkpt><trkpt lat="40.8526071" lon="8.9673561"><ele>66.0</ele><time>2026-04-26T10:16:55.98Z</time></trkpt><trkpt lat="40.8525483" lon="8.9675081"><ele>67.5</ele><time>2026-04-26T10:16:56.979Z</time></trkpt><trkpt lat="40.8524883" lon="8.9676584"><ele>69.0</ele><time>2026-04-26T10:16:57.979Z</time></trkpt><trkpt lat="40.8524347" lon="8.9678097"><ele>69.25</ele><time>2026-04-26T10:16:58.978Z</time></trkpt><trkpt lat="40.8523886" lon="8.9679681"><ele>69.5</ele><time>2026-04-26T10:16:59.978Z</time></trkpt><trkpt lat="40.852359" lon="8.9681284"><ele>69.75</ele><time>2026-04-26T10:17:00.979Z</time></trkpt><trkpt lat="40.8523494" lon="8.9682955"><ele>70.0</ele><time>2026-04-26T10:17:01.978Z</time></trkpt><trkpt lat="40.8523575" lon="8.9684638"><ele>70.0</ele><time>2026-04-26T10:17:02.979Z</time></trkpt><trkpt lat="40.8523839" lon="8.9686339"><ele>70.0</ele><time>2026-04-26T10:17:03.978Z</time></trkpt><trkpt lat="40.8524159" lon="8.9688054"><ele>70.0</ele><time>2026-04-26T10:17:04.979Z</time></trkpt><trkpt lat="40.8524493" lon="8.9689783"><ele>70.0</ele><time>2026-04-26T10:17:05.98Z</time></trkpt><trkpt lat="40.8524836" lon="8.9691476"><ele>70.25</ele><time>2026-04-26T10:17:06.98Z</time></trkpt><trkpt lat="40.8525138" lon="8.9693131"><ele>70.5</ele><time>2026-04-26T10:17:07.978Z</time></trkpt><trkpt lat="40.8525343" lon="8.9694794"><ele>70.75</ele><time>2026-04-26T10:17:08.979Z</time></trkpt><trkpt lat="40.8525354" lon="8.9696521"><ele>71.0</ele><time>2026-04-26T10:17:09.978Z</time></trkpt><trkpt lat="40.8525165" lon="8.9698214"><ele>71.0</ele><time>2026-04-26T10:17:10.979Z</time></trkpt><trkpt lat="40.8524835" lon="8.9699857"><ele>71.0</ele><time>2026-04-26T10:17:11.979Z</time></trkpt><trkpt lat="40.8524477" lon="8.9701467"><ele>71.0</ele><time>2026-04-26T10:17:12.979Z</time></trkpt><trkpt lat="40.8524164" lon="8.9703093"><ele>71.0</ele><time>2026-04-26T10:17:13.978Z</time></trkpt><trkpt lat="40.8523941" lon="8.9704754"><ele>72.0</ele><time>2026-04-26T10:17:14.979Z</time></trkpt><trkpt lat="40.8523844" lon="8.9706434"><ele>73.0</ele><time>2026-04-26T10:17:15.979Z</time></trkpt><trkpt lat="40.852393" lon="8.9708128"><ele>74.0</ele><time>2026-04-26T10:17:16.978Z</time></trkpt><trkpt lat="40.8524274" lon="8.9709812"><ele>75.0</ele><time>2026-04-26T10:17:17.979Z</time></trkpt><trkpt lat="40.8524795" lon="8.9711378"><ele>74.6</ele><time>2026-04-26T10:17:18.98Z</time></trkpt><trkpt lat="40.8525426" lon="8.971278"><ele>74.2</ele><time>2026-04-26T10:17:19.978Z</time></trkpt><trkpt lat="40.8526021" lon="8.9713983"><ele>73.8</ele><time>2026-04-26T10:17:20.979Z</time></trkpt><trkpt lat="40.8526476" lon="8.9715062"><ele>73.4</ele><time>2026-04-26T10:17:21.979Z</time></trkpt><trkpt lat="40.8526829" lon="8.971604"><ele>73.0</ele><time>2026-04-26T10:17:22.978Z</time></trkpt><trkpt lat="40.8527055" lon="8.9716937"><ele>73.0</ele><time>2026-04-26T10:17:23.978Z</time></trkpt><trkpt lat="40.8527127" lon="8.9717783"><ele>73.0</ele><time>2026-04-26T10:17:24.978Z</time></trkpt><trkpt lat="40.8526792" lon="8.9719109"><ele>73.0</ele><time>2026-04-26T10:17:26.98Z</time></trkpt><trkpt lat="40.8525776" lon="8.9720111"><ele>73.0</ele><time>2026-04-26T10:17:28.978Z</time></trkpt><trkpt lat="40.8525079" lon="8.9720628"><ele>73.0</ele><time>2026-04-26T10:17:29.979Z</time></trkpt><trkpt lat="40.8524322" lon="8.9721048"><ele>74.0</ele><time>2026-04-26T10:17:30.978Z</time></trkpt><trkpt lat="40.852348" lon="8.9721381"><ele>75.0</ele><time>2026-04-26T10:17:31.978Z</time></trkpt><trkpt lat="40.8522739" lon="8.9721649"><ele>76.0</ele><time>2026-04-26T10:17:32.98Z</time></trkpt><trkpt lat="40.8522" lon="8.9721903"><ele>77.0</ele><time>2026-04-26T10:17:33.979Z</time></trkpt><trkpt lat="40.8521318" lon="8.9722155"><ele>78.0</ele><time>2026-04-26T10:17:34.979Z</time></trkpt><trkpt lat="40.8520696" lon="8.972245"><ele>79.0</ele><time>2026-04-26T10:17:35.979Z</time></trkpt><trkpt lat="40.8519677" lon="8.9723332"><ele>79.0</ele><time>2026-04-26T10:17:37.978Z</time></trkpt><trkpt lat="40.8518995" lon="8.972479"><ele>79.0</ele><time>2026-04-26T10:17:39.978Z</time></trkpt><trkpt lat="40.8518758" lon="8.972569"><ele>79.0</ele><time>2026-04-26T10:17:40.979Z</time></trkpt><trkpt lat="40.8518598" lon="8.9726699"><ele>79.0</ele><time>2026-04-26T10:17:41.98Z</time></trkpt><trkpt lat="40.8518475" lon="8.9727809"><ele>79.0</ele><time>2026-04-26T10:17:42.98Z</time></trkpt><trkpt lat="40.8518318" lon="8.9728988"><ele>79.16666666666666</ele><time>2026-04-26T10:17:43.979Z</time></trkpt><trkpt lat="40.8518068" lon="8.9730204"><ele>79.33333333333333</ele><time>2026-04-26T10:17:44.98Z</time></trkpt><trkpt lat="40.8517788" lon="8.9731359"><ele>79.5</ele><time>2026-04-26T10:17:45.978Z</time></trkpt><trkpt lat="40.8517582" lon="8.9732459"><ele>79.66666666666667</ele><time>2026-04-26T10:17:46.979Z</time></trkpt><trkpt lat="40.8517404" lon="8.9733558"><ele>79.83333333333334</ele><time>2026-04-26T10:17:47.979Z</time></trkpt><trkpt lat="40.8517197" lon="8.9734715"><ele>80.0</ele><time>2026-04-26T10:17:48.98Z</time></trkpt><trkpt lat="40.8516962" lon="8.9735926"><ele>82.0</ele><time>2026-04-26T10:17:49.979Z</time></trkpt><trkpt lat="40.8516772" lon="8.9737143"><ele>84.0</ele><time>2026-04-26T10:17:50.979Z</time></trkpt><trkpt lat="40.8516623" lon="8.973837"><ele>86.0</ele><time>2026-04-26T10:17:51.979Z</time></trkpt><trkpt lat="40.8516506" lon="8.9739596"><ele>88.0</ele><time>2026-04-26T10:17:52.978Z</time></trkpt><trkpt lat="40.8516442" lon="8.9740828"><ele>90.0</ele><time>2026-04-26T10:17:53.978Z</time></trkpt><trkpt lat="40.8516347" lon="8.9742075"><ele>90.0</ele><time>2026-04-26T10:17:54.978Z</time></trkpt><trkpt lat="40.851617" lon="8.9743324"><ele>90.0</ele><time>2026-04-26T10:17:55.98Z</time></trkpt><trkpt lat="40.8515977" lon="8.974455"><ele>90.0</ele><time>2026-04-26T10:17:56.979Z</time></trkpt><trkpt lat="40.8515834" lon="8.9745686"><ele>90.0</ele><time>2026-04-26T10:17:57.978Z</time></trkpt><trkpt lat="40.8515743" lon="8.9746777"><ele>90.0</ele><time>2026-04-26T10:17:58.979Z</time></trkpt><trkpt lat="40.8515659" lon="8.9747867"><ele>90.0</ele><time>2026-04-26T10:17:59.981Z</time></trkpt><trkpt lat="40.8515562" lon="8.9748938"><ele>90.0</ele><time>2026-04-26T10:18:00.98Z</time></trkpt><trkpt lat="40.8515377" lon="8.9749997"><ele>90.0</ele><time>2026-04-26T10:18:01.979Z</time></trkpt><trkpt lat="40.8515117" lon="8.975102"><ele>90.0</ele><time>2026-04-26T10:18:02.979Z</time></trkpt><trkpt lat="40.8514876" lon="8.9751959"><ele>90.0</ele><time>2026-04-26T10:18:03.979Z</time></trkpt><trkpt lat="40.8514689" lon="8.9752828"><ele>90.0</ele><time>2026-04-26T10:18:04.978Z</time></trkpt><trkpt lat="40.8514515" lon="8.975371"><ele>90.0</ele><time>2026-04-26T10:18:05.979Z</time></trkpt><trkpt lat="40.851437" lon="8.9754632"><ele>90.0</ele><time>2026-04-26T10:18:06.978Z</time></trkpt><trkpt lat="40.8514239" lon="8.9755585"><ele>90.0</ele><time>2026-04-26T10:18:07.979Z</time></trkpt><trkpt lat="40.8514109" lon="8.9756534"><ele>90.0</ele><time>2026-04-26T10:18:08.979Z</time></trkpt><trkpt lat="40.8513988" lon="8.9757449"><ele>90.0</ele><time>2026-04-26T10:18:09.978Z</time></trkpt><trkpt lat="40.8513849" lon="8.9758353"><ele>90.0</ele><time>2026-04-26T10:18:10.978Z</time></trkpt><trkpt lat="40.8513732" lon="8.9759253"><ele>90.0</ele><time>2026-04-26T10:18:11.979Z</time></trkpt><trkpt lat="40.8513656" lon="8.9760152"><ele>90.0</ele><time>2026-04-26T10:18:12.978Z</time></trkpt><trkpt lat="40.8513589" lon="8.9760997"><ele>90.0</ele><time>2026-04-26T10:18:13.979Z</time></trkpt><trkpt lat="40.8513526" lon="8.9761854"><ele>89.83333333333333</ele><time>2026-04-26T10:18:14.98Z</time></trkpt><trkpt lat="40.8513401" lon="8.9762748"><ele>89.66666666666667</ele><time>2026-04-26T10:18:15.98Z</time></trkpt><trkpt lat="40.851323" lon="8.9763687"><ele>89.5</ele><time>2026-04-26T10:18:16.978Z</time></trkpt><trkpt lat="40.8513007" lon="8.9764681"><ele>89.33333333333334</ele><time>2026-04-26T10:18:17.979Z</time></trkpt><trkpt lat="40.8512737" lon="8.9765714"><ele>89.16666666666667</ele><time>2026-04-26T10:18:18.979Z</time></trkpt><trkpt lat="40.8512472" lon="8.9766731"><ele>89.0</ele><time>2026-04-26T10:18:19.978Z</time></trkpt><trkpt lat="40.8512175" lon="8.9767691"><ele>89.0</ele><time>2026-04-26T10:18:20.979Z</time></trkpt><trkpt lat="40.8511905" lon="8.9768572"><ele>89.0</ele><time>2026-04-26T10:18:21.981Z</time></trkpt><trkpt lat="40.8511286" lon="8.9769848"><ele>89.0</ele><time>2026-04-26T10:18:23.98Z</time></trkpt><trkpt lat="40.8510268" lon="8.9770478"><ele>89.0</ele><time>2026-04-26T10:18:25.978Z</time></trkpt><trkpt lat="40.8509179" lon="8.9770584"><ele>89.0</ele><time>2026-04-26T10:18:27.98Z</time></trkpt><trkpt lat="40.850838" lon="8.9770797"><ele>89.6</ele><time>2026-04-26T10:18:29.978Z</time></trkpt><trkpt lat="40.8507794" lon="8.9771231"><ele>90.2</ele><time>2026-04-26T10:18:31.978Z</time></trkpt><trkpt lat="40.8506983" lon="8.9771962"><ele>90.8</ele><time>2026-04-26T10:18:33.978Z</time></trkpt><trkpt lat="40.8505776" lon="8.9772749"><ele>91.39999999999999</ele><time>2026-04-26T10:18:35.979Z</time></trkpt><trkpt lat="40.8505032" lon="8.9773154"><ele>92.0</ele><time>2026-04-26T10:18:36.978Z</time></trkpt><trkpt lat="40.850431" lon="8.9773572"><ele>92.0</ele><time>2026-04-26T10:18:37.979Z</time></trkpt><trkpt lat="40.8503626" lon="8.9774024"><ele>92.0</ele><time>2026-04-26T10:18:38.98Z</time></trkpt><trkpt lat="40.8502984" lon="8.977446"><ele>92.0</ele><time>2026-04-26T10:18:39.978Z</time></trkpt><trkpt lat="40.8502366" lon="8.9774921"><ele>92.0</ele><time>2026-04-26T10:18:40.978Z</time></trkpt><trkpt lat="40.8501723" lon="8.9775303"><ele>92.0</ele><time>2026-04-26T10:18:41.979Z</time></trkpt><trkpt lat="40.8501108" lon="8.9775557"><ele>92.0</ele><time>2026-04-26T10:18:42.978Z</time></trkpt><trkpt lat="40.8500488" lon="8.9775834"><ele>92.0</ele><time>2026-04-26T10:18:43.98Z</time></trkpt><trkpt lat="40.8499811" lon="8.9776146"><ele>90.5</ele><time>2026-04-26T10:18:44.98Z</time></trkpt><trkpt lat="40.8499189" lon="8.9776678"><ele>89.0</ele><time>2026-04-26T10:18:45.978Z</time></trkpt><trkpt lat="40.8498686" lon="8.9777342"><ele>87.5</ele><time>2026-04-26T10:18:46.979Z</time></trkpt><trkpt lat="40.8498172" lon="8.9778114"><ele>86.0</ele><time>2026-04-26T10:18:47.978Z</time></trkpt><trkpt lat="40.8497687" lon="8.9778832"><ele>84.5</ele><time>2026-04-26T10:18:48.978Z</time></trkpt><trkpt lat="40.8497259" lon="8.9779494"><ele>83.0</ele><time>2026-04-26T10:18:49.979Z</time></trkpt><trkpt lat="40.849666" lon="8.978098"><ele>83.0</ele><time>2026-04-26T10:18:51.978Z</time></trkpt><trkpt lat="40.8496483" lon="8.9781916"><ele>83.0</ele><time>2026-04-26T10:18:52.979Z</time></trkpt><trkpt lat="40.8496372" lon="8.9782855"><ele>83.0</ele><time>2026-04-26T10:18:53.979Z</time></trkpt><trkpt lat="40.8496228" lon="8.9784422"><ele>83.0</ele><time>2026-04-26T10:18:55.979Z</time></trkpt><trkpt lat="40.8496047" lon="8.9785739"><ele>83.0</ele><time>2026-04-26T10:18:57.979Z</time></trkpt><trkpt lat="40.8495861" lon="8.9786737"><ele>83.0</ele><time>2026-04-26T10:18:59.978Z</time></trkpt><trkpt lat="40.8495318" lon="8.9787295"><ele>82.33333333333334</ele><time>2026-04-26T10:19:01.978Z</time></trkpt><trkpt lat="40.8494541" lon="8.9787239"><ele>81.66666666666667</ele><time>2026-04-26T10:19:03.979Z</time></trkpt><trkpt lat="40.8493865" lon="8.9786783"><ele>81.0</ele><time>2026-04-26T10:19:05.979Z</time></trkpt><trkpt lat="40.8493166" lon="8.9786623"><ele>80.33333333333333</ele><time>2026-04-26T10:19:07.979Z</time></trkpt><trkpt lat="40.8492279" lon="8.978727"><ele>79.66666666666666</ele><time>2026-04-26T10:19:09.978Z</time></trkpt><trkpt lat="40.8491392" lon="8.9788302"><ele>79.0</ele><time>2026-04-26T10:19:11.979Z</time></trkpt><trkpt lat="40.8490641" lon="8.978935"><ele>79.0</ele><time>2026-04-26T10:19:13.979Z</time></trkpt><trkpt lat="40.8489816" lon="8.9790193"><ele>79.0</ele><time>2026-04-26T10:19:15.978Z</time></trkpt><trkpt lat="40.8488893" lon="8.9790585"><ele>79.0</ele><time>2026-04-26T10:19:17.979Z</time></trkpt><trkpt lat="40.8488128" lon="8.9791345"><ele>79.0</ele><time>2026-04-26T10:19:19.978Z</time></trkpt><trkpt lat="40.8487709" lon="8.9792304"><ele>79.0</ele><time>2026-04-26T10:19:21.979Z</time></trkpt><trkpt lat="40.8487126" lon="8.9793013"><ele>78.14285714285715</ele><time>2026-04-26T10:19:23.981Z</time></trkpt><trkpt lat="40.8486401" lon="8.979296"><ele>77.28571428571429</ele><time>2026-04-26T10:19:25.978Z</time></trkpt><trkpt lat="40.8485705" lon="8.9792796"><ele>76.42857142857143</ele><time>2026-04-26T10:19:27.979Z</time></trkpt><trkpt lat="40.8484961" lon="8.9793055"><ele>75.57142857142858</ele><time>2026-04-26T10:19:29.979Z</time></trkpt><trkpt lat="40.8484668" lon="8.9793882"><ele>74.71428571428572</ele><time>2026-04-26T10:19:31.979Z</time></trkpt><trkpt lat="40.8484878" lon="8.979496"><ele>73.85714285714286</ele><time>2026-04-26T10:19:33.978Z</time></trkpt><trkpt lat="40.8485123" lon="8.9795867"><ele>73.0</ele><time>2026-04-26T10:19:35.979Z</time></trkpt><trkpt lat="40.8485443" lon="8.979681"><ele>73.0</ele><time>2026-04-26T10:19:37.979Z</time></trkpt><trkpt lat="40.848602" lon="8.9798004"><ele>73.0</ele><time>2026-04-26T10:19:39.98Z</time></trkpt><trkpt lat="40.8486644" lon="8.9799064"><ele>73.0</ele><time>2026-04-26T10:19:41.979Z</time></trkpt><trkpt lat="40.8486802" lon="8.9800277"><ele>73.0</ele><time>2026-04-26T10:19:43.978Z</time></trkpt><trkpt lat="40.8486296" lon="8.9801162"><ele>73.0</ele><time>2026-04-26T10:19:45.98Z</time></trkpt><trkpt lat="40.8485419" lon="8.9802148"><ele>72.0</ele><time>2026-04-26T10:19:47.978Z</time></trkpt><trkpt lat="40.8485185" lon="8.9802939"><ele>71.0</ele><time>2026-04-26T10:19:48.978Z</time></trkpt><trkpt lat="40.8485043" lon="8.9803926"><ele>70.0</ele><time>2026-04-26T10:19:49.978Z</time></trkpt><trkpt lat="40.8484975" lon="8.9805062"><ele>69.0</ele><time>2026-04-26T10:19:50.979Z</time></trkpt><trkpt lat="40.8484983" lon="8.980619"><ele>68.0</ele><time>2026-04-26T10:19:51.979Z</time></trkpt><trkpt lat="40.8484996" lon="8.9807298"><ele>67.0</ele><time>2026-04-26T10:19:52.98Z</time></trkpt><trkpt lat="40.8485082" lon="8.98084"><ele>65.16666666666666</ele><time>2026-04-26T10:19:53.978Z</time></trkpt><trkpt lat="40.848521" lon="8.9809557"><ele>63.33333333333333</ele><time>2026-04-26T10:19:54.979Z</time></trkpt><trkpt lat="40.8485358" lon="8.9810804"><ele>61.5</ele><time>2026-04-26T10:19:55.979Z</time></trkpt><trkpt lat="40.8485459" lon="8.9812032"><ele>59.66666666666667</ele><time>2026-04-26T10:19:56.98Z</time></trkpt><trkpt lat="40.848557" lon="8.9813215"><ele>57.833333333333336</ele><time>2026-04-26T10:19:57.978Z</time></trkpt><trkpt lat="40.8485696" lon="8.981427"><ele>56.0</ele><time>2026-04-26T10:19:58.978Z</time></trkpt><trkpt lat="40.8485818" lon="8.9815353"><ele>56.00000000000001</ele><time>2026-04-26T10:19:59.978Z</time></trkpt><trkpt lat="40.848597" lon="8.9816441"><ele>56.0</ele><time>2026-04-26T10:20:00.978Z</time></trkpt><trkpt lat="40.8486145" lon="8.9817494"><ele>56.0</ele><time>2026-04-26T10:20:01.978Z</time></trkpt><trkpt lat="40.8486344" lon="8.9818457"><ele>56.0</ele><time>2026-04-26T10:20:02.98Z</time></trkpt><trkpt lat="40.8486564" lon="8.9819349"><ele>56.00000000000001</ele><time>2026-04-26T10:20:03.978Z</time></trkpt><trkpt lat="40.8486755" lon="8.9820151"><ele>56.0</ele><time>2026-04-26T10:20:04.978Z</time></trkpt><trkpt lat="40.8487141" lon="8.9821507"><ele>54.599999999999994</ele><time>2026-04-26T10:20:06.979Z</time></trkpt><trkpt lat="40.8487331" lon="8.9822532"><ele>53.199999999999996</ele><time>2026-04-26T10:20:09.979Z</time></trkpt><trkpt lat="40.8487147" lon="8.982341"><ele>51.8</ele><time>2026-04-26T10:20:11.98Z</time></trkpt><trkpt lat="40.8486724" lon="8.9824999"><ele>50.400000000000006</ele><time>2026-04-26T10:20:13.979Z</time></trkpt><trkpt lat="40.8486478" lon="8.9826009"><ele>49.0</ele><time>2026-04-26T10:20:14.98Z</time></trkpt><trkpt lat="40.8486211" lon="8.9827195"><ele>49.0</ele><time>2026-04-26T10:20:15.979Z</time></trkpt><trkpt lat="40.8485947" lon="8.9828516"><ele>49.0</ele><time>2026-04-26T10:20:16.98Z</time></trkpt><trkpt lat="40.8485686" lon="8.9829882"><ele>49.0</ele><time>2026-04-26T10:20:17.979Z</time></trkpt><trkpt lat="40.8485428" lon="8.9831333"><ele>49.0</ele><time>2026-04-26T10:20:18.978Z</time></trkpt><trkpt lat="40.848518" lon="8.983289"><ele>49.0</ele><time>2026-04-26T10:20:19.98Z</time></trkpt><trkpt lat="40.8484959" lon="8.9834531"><ele>49.0</ele><time>2026-04-26T10:20:20.98Z</time></trkpt><trkpt lat="40.8484731" lon="8.9836245"><ele>49.0</ele><time>2026-04-26T10:20:21.979Z</time></trkpt><trkpt lat="40.8484479" lon="8.9838105"><ele>49.0</ele><time>2026-04-26T10:20:22.979Z</time></trkpt><trkpt lat="40.8484219" lon="8.984001"><ele>49.0</ele><time>2026-04-26T10:20:23.98Z</time></trkpt><trkpt lat="40.848394" lon="8.9841976"><ele>51.75</ele><time>2026-04-26T10:20:24.979Z</time></trkpt><trkpt lat="40.8483658" lon="8.9843926"><ele>54.5</ele><time>2026-04-26T10:20:25.98Z</time></trkpt><trkpt lat="40.8483393" lon="8.9845745"><ele>57.25</ele><time>2026-04-26T10:20:26.98Z</time></trkpt><trkpt lat="40.848314" lon="8.9847457"><ele>60.0</ele><time>2026-04-26T10:20:27.979Z</time></trkpt><trkpt lat="40.8482935" lon="8.9849086"><ele>58.75</ele><time>2026-04-26T10:20:28.978Z</time></trkpt><trkpt lat="40.8482747" lon="8.9850677"><ele>57.5</ele><time>2026-04-26T10:20:29.98Z</time></trkpt><trkpt lat="40.8482517" lon="8.9852216"><ele>56.25</ele><time>2026-04-26T10:20:30.979Z</time></trkpt><trkpt lat="40.8482265" lon="8.9853652"><ele>55.0</ele><time>2026-04-26T10:20:31.978Z</time></trkpt><trkpt lat="40.8481993" lon="8.9855007"><ele>55.0</ele><time>2026-04-26T10:20:32.979Z</time></trkpt><trkpt lat="40.8481669" lon="8.9856251"><ele>55.0</ele><time>2026-04-26T10:20:33.978Z</time></trkpt><trkpt lat="40.8481328" lon="8.9857409"><ele>55.0</ele><time>2026-04-26T10:20:34.979Z</time></trkpt><trkpt lat="40.8481024" lon="8.9858581"><ele>55.0</ele><time>2026-04-26T10:20:35.98Z</time></trkpt><trkpt lat="40.8480708" lon="8.9859818"><ele>55.0</ele><time>2026-04-26T10:20:36.98Z</time></trkpt><trkpt lat="40.8480401" lon="8.986112"><ele>54.5</ele><time>2026-04-26T10:20:37.979Z</time></trkpt><trkpt lat="40.8480054" lon="8.9862513"><ele>54.0</ele><time>2026-04-26T10:20:38.98Z</time></trkpt><trkpt lat="40.8479665" lon="8.9863984"><ele>53.5</ele><time>2026-04-26T10:20:39.98Z</time></trkpt><trkpt lat="40.8479235" lon="8.9865459"><ele>53.0</ele><time>2026-04-26T10:20:40.978Z</time></trkpt><trkpt lat="40.847875" lon="8.9866974"><ele>51.5</ele><time>2026-04-26T10:20:41.981Z</time></trkpt><trkpt lat="40.8478282" lon="8.986849"><ele>50.0</ele><time>2026-04-26T10:20:42.979Z</time></trkpt><trkpt lat="40.8477826" lon="8.9869886"><ele>48.5</ele><time>2026-04-26T10:20:43.98Z</time></trkpt><trkpt lat="40.847737" lon="8.9871173"><ele>47.0</ele><time>2026-04-26T10:20:44.979Z</time></trkpt><trkpt lat="40.8476897" lon="8.9872419"><ele>47.0</ele><time>2026-04-26T10:20:45.978Z</time></trkpt><trkpt lat="40.8476342" lon="8.9873718"><ele>47.0</ele><time>2026-04-26T10:20:46.98Z</time></trkpt><trkpt lat="40.8475668" lon="8.9875046"><ele>47.0</ele><time>2026-04-26T10:20:47.979Z</time></trkpt><trkpt lat="40.8474919" lon="8.9876364"><ele>47.0</ele><time>2026-04-26T10:20:48.979Z</time></trkpt><trkpt lat="40.8474063" lon="8.9877698"><ele>48.25</ele><time>2026-04-26T10:20:49.978Z</time></trkpt><trkpt lat="40.8473084" lon="8.9879049"><ele>49.5</ele><time>2026-04-26T10:20:50.98Z</time></trkpt><trkpt lat="40.8472057" lon="8.988049"><ele>50.75</ele><time>2026-04-26T10:20:51.979Z</time></trkpt><trkpt lat="40.8471" lon="8.988198"><ele>52.0</ele><time>2026-04-26T10:20:52.979Z</time></trkpt><trkpt lat="40.8469928" lon="8.9883487"><ele>52.0</ele><time>2026-04-26T10:20:53.978Z</time></trkpt><trkpt lat="40.8468867" lon="8.9885014"><ele>52.0</ele><time>2026-04-26T10:20:54.979Z</time></trkpt><trkpt lat="40.8467821" lon="8.9886517"><ele>52.0</ele><time>2026-04-26T10:20:55.979Z</time></trkpt><trkpt lat="40.8466835" lon="8.9887999"><ele>52.0</ele><time>2026-04-26T10:20:56.98Z</time></trkpt><trkpt lat="40.8465849" lon="8.9889473"><ele>52.0</ele><time>2026-04-26T10:20:57.979Z</time></trkpt><trkpt lat="40.8464933" lon="8.989088"><ele>52.0</ele><time>2026-04-26T10:20:58.979Z</time></trkpt><trkpt lat="40.8464031" lon="8.9892233"><ele>52.0</ele><time>2026-04-26T10:20:59.98Z</time></trkpt><trkpt lat="40.8463175" lon="8.9893459"><ele>52.0</ele><time>2026-04-26T10:21:00.979Z</time></trkpt><trkpt lat="40.8462357" lon="8.9894597"><ele>52.0</ele><time>2026-04-26T10:21:01.98Z</time></trkpt><trkpt lat="40.8461467" lon="8.9895649"><ele>52.0</ele><time>2026-04-26T10:21:02.981Z</time></trkpt><trkpt lat="40.8460479" lon="8.9896639"><ele>52.0</ele><time>2026-04-26T10:21:03.979Z</time></trkpt><trkpt lat="40.8459384" lon="8.989761"><ele>51.0</ele><time>2026-04-26T10:21:04.979Z</time></trkpt><trkpt lat="40.845818" lon="8.9898641"><ele>50.0</ele><time>2026-04-26T10:21:05.979Z</time></trkpt><trkpt lat="40.8456914" lon="8.9899738"><ele>49.0</ele><time>2026-04-26T10:21:06.979Z</time></trkpt><trkpt lat="40.8455603" lon="8.9900904"><ele>49.0</ele><time>2026-04-26T10:21:07.978Z</time></trkpt><trkpt lat="40.8454242" lon="8.9902127"><ele>49.0</ele><time>2026-04-26T10:21:08.979Z</time></trkpt><trkpt lat="40.8452878" lon="8.9903378"><ele>49.0</ele><time>2026-04-26T10:21:09.979Z</time></trkpt><trkpt lat="40.845156" lon="8.9904589"><ele>48.5</ele><time>2026-04-26T10:21:10.979Z</time></trkpt><trkpt lat="40.8450304" lon="8.9905745"><ele>48.0</ele><time>2026-04-26T10:21:11.979Z</time></trkpt><trkpt lat="40.8449103" lon="8.990686"><ele>47.5</ele><time>2026-04-26T10:21:12.978Z</time></trkpt><trkpt lat="40.8447928" lon="8.9907922"><ele>47.0</ele><time>2026-04-26T10:21:13.979Z</time></trkpt><trkpt lat="40.8446792" lon="8.9908971"><ele>47.0</ele><time>2026-04-26T10:21:14.979Z</time></trkpt><trkpt lat="40.8445612" lon="8.9909998"><ele>47.0</ele><time>2026-04-26T10:21:15.98Z</time></trkpt><trkpt lat="40.8444329" lon="8.9911024"><ele>47.0</ele><time>2026-04-26T10:21:16.98Z</time></trkpt><trkpt lat="40.8443051" lon="8.9912045"><ele>47.0</ele><time>2026-04-26T10:21:17.978Z</time></trkpt><trkpt lat="40.8441775" lon="8.9913061"><ele>47.25</ele><time>2026-04-26T10:21:18.978Z</time></trkpt><trkpt lat="40.8440526" lon="8.9914133"><ele>47.5</ele><time>2026-04-26T10:21:19.981Z</time></trkpt><trkpt lat="40.8439317" lon="8.9915255"><ele>47.75</ele><time>2026-04-26T10:21:20.98Z</time></trkpt><trkpt lat="40.8438167" lon="8.9916425"><ele>48.0</ele><time>2026-04-26T10:21:21.979Z</time></trkpt><trkpt lat="40.8437087" lon="8.9917599"><ele>48.0</ele><time>2026-04-26T10:21:22.98Z</time></trkpt><trkpt lat="40.8436123" lon="8.9918706"><ele>48.0</ele><time>2026-04-26T10:21:23.979Z</time></trkpt><trkpt lat="40.8435164" lon="8.9919753"><ele>48.0</ele><time>2026-04-26T10:21:24.98Z</time></trkpt><trkpt lat="40.8434164" lon="8.9920754"><ele>48.0</ele><time>2026-04-26T10:21:25.978Z</time></trkpt><trkpt lat="40.8433114" lon="8.9921719"><ele>49.0</ele><time>2026-04-26T10:21:26.979Z</time></trkpt><trkpt lat="40.8431981" lon="8.9922596"><ele>50.0</ele><time>2026-04-26T10:21:27.978Z</time></trkpt><trkpt lat="40.8430756" lon="8.9923381"><ele>51.0</ele><time>2026-04-26T10:21:28.979Z</time></trkpt><trkpt lat="40.8429482" lon="8.9924161"><ele>52.0</ele><time>2026-04-26T10:21:29.979Z</time></trkpt><trkpt lat="40.8428195" lon="8.9924951"><ele>51.5</ele><time>2026-04-26T10:21:30.979Z</time></trkpt><trkpt lat="40.8426901" lon="8.9925714"><ele>51.0</ele><time>2026-04-26T10:21:31.979Z</time></trkpt><trkpt lat="40.8425615" lon="8.9926466"><ele>50.5</ele><time>2026-04-26T10:21:32.979Z</time></trkpt><trkpt lat="40.8424372" lon="8.9927225"><ele>50.0</ele><time>2026-04-26T10:21:33.982Z</time></trkpt><trkpt lat="40.8423226" lon="8.9927981"><ele>50.0</ele><time>2026-04-26T10:21:34.978Z</time></trkpt><trkpt lat="40.8422146" lon="8.9928798"><ele>50.0</ele><time>2026-04-26T10:21:35.979Z</time></trkpt><trkpt lat="40.8421122" lon="8.9929781"><ele>50.0</ele><time>2026-04-26T10:21:36.979Z</time></trkpt><trkpt lat="40.8420101" lon="8.9930977"><ele>50.0</ele><time>2026-04-26T10:21:37.979Z</time></trkpt><trkpt lat="40.8419064" lon="8.9932317"><ele>50.25</ele><time>2026-04-26T10:21:38.979Z</time></trkpt><trkpt lat="40.8418076" lon="8.9933698"><ele>50.5</ele><time>2026-04-26T10:21:39.979Z</time></trkpt><trkpt lat="40.8417146" lon="8.9935056"><ele>50.75</ele><time>2026-04-26T10:21:40.979Z</time></trkpt><trkpt lat="40.8416362" lon="8.99364"><ele>51.0</ele><time>2026-04-26T10:21:41.978Z</time></trkpt><trkpt lat="40.841561" lon="8.9937632"><ele>51.5</ele><time>2026-04-26T10:21:42.98Z</time></trkpt><trkpt lat="40.8414952" lon="8.9938748"><ele>52.0</ele><time>2026-04-26T10:21:43.978Z</time></trkpt><trkpt lat="40.8414304" lon="8.9939689"><ele>52.5</ele><time>2026-04-26T10:21:44.98Z</time></trkpt><trkpt lat="40.8413682" lon="8.9940446"><ele>53.0</ele><time>2026-04-26T10:21:45.979Z</time></trkpt><trkpt lat="40.8413045" lon="8.994108"><ele>53.5</ele><time>2026-04-26T10:21:46.98Z</time></trkpt><trkpt lat="40.8412452" lon="8.9941687"><ele>54.0</ele><time>2026-04-26T10:21:47.978Z</time></trkpt><trkpt lat="40.8411884" lon="8.9942196"><ele>54.0</ele><time>2026-04-26T10:21:48.979Z</time></trkpt><trkpt lat="40.8410887" lon="8.9943"><ele>54.00000000000001</ele><time>2026-04-26T10:21:50.98Z</time></trkpt><trkpt lat="40.8410327" lon="8.9943916"><ele>54.00000000000001</ele><time>2026-04-26T10:21:52.979Z</time></trkpt><trkpt lat="40.8410434" lon="8.9945565"><ele>54.0</ele><time>2026-04-26T10:21:54.979Z</time></trkpt><trkpt lat="40.8410819" lon="8.9946323"><ele>54.0</ele><time>2026-04-26T10:21:55.978Z</time></trkpt><trkpt lat="40.8411342" lon="8.9946996"><ele>54.0</ele><time>2026-04-26T10:21:56.98Z</time></trkpt><trkpt lat="40.8411854" lon="8.9947604"><ele>54.0</ele><time>2026-04-26T10:21:57.979Z</time></trkpt><trkpt lat="40.8412312" lon="8.9948239"><ele>54.0</ele><time>2026-04-26T10:21:58.979Z</time></trkpt><trkpt lat="40.8412661" lon="8.9949031"><ele>54.0</ele><time>2026-04-26T10:21:59.979Z</time></trkpt><trkpt lat="40.8412912" lon="8.9950032"><ele>54.0</ele><time>2026-04-26T10:22:00.98Z</time></trkpt><trkpt lat="40.8413157" lon="8.9951175"><ele>54.0</ele><time>2026-04-26T10:22:01.978Z</time></trkpt><trkpt lat="40.8413372" lon="8.9952443"><ele>55.25</ele><time>2026-04-26T10:22:02.98Z</time></trkpt><trkpt lat="40.8413556" lon="8.995384"><ele>56.5</ele><time>2026-04-26T10:22:03.98Z</time></trkpt><trkpt lat="40.8413806" lon="8.9955355"><ele>57.75</ele><time>2026-04-26T10:22:04.978Z</time></trkpt><trkpt lat="40.8414096" lon="8.9956984"><ele>59.0</ele><time>2026-04-26T10:22:05.979Z</time></trkpt><trkpt lat="40.8414447" lon="8.9958687"><ele>60.75</ele><time>2026-04-26T10:22:06.978Z</time></trkpt><trkpt lat="40.8414835" lon="8.9960502"><ele>62.5</ele><time>2026-04-26T10:22:07.978Z</time></trkpt><trkpt lat="40.8415187" lon="8.9962331"><ele>64.25</ele><time>2026-04-26T10:22:08.98Z</time></trkpt><trkpt lat="40.841553" lon="8.9964034"><ele>66.0</ele><time>2026-04-26T10:22:09.979Z</time></trkpt><trkpt lat="40.8415848" lon="8.9965624"><ele>66.0</ele><time>2026-04-26T10:22:10.978Z</time></trkpt><trkpt lat="40.8416151" lon="8.9967068"><ele>66.0</ele><time>2026-04-26T10:22:11.979Z</time></trkpt><trkpt lat="40.841644" lon="8.9968403"><ele>66.0</ele><time>2026-04-26T10:22:12.979Z</time></trkpt><trkpt lat="40.8416657" lon="8.9969674"><ele>66.0</ele><time>2026-04-26T10:22:13.98Z</time></trkpt><trkpt lat="40.8416733" lon="8.9970906"><ele>66.0</ele><time>2026-04-26T10:22:14.98Z</time></trkpt><trkpt lat="40.8416666" lon="8.9972047"><ele>66.0</ele><time>2026-04-26T10:22:15.979Z</time></trkpt><trkpt lat="40.8416417" lon="8.9973152"><ele>66.0</ele><time>2026-04-26T10:22:16.979Z</time></trkpt><trkpt lat="40.8416002" lon="8.9974239"><ele>66.0</ele><time>2026-04-26T10:22:17.98Z</time></trkpt><trkpt lat="40.8415507" lon="8.9975325"><ele>66.0</ele><time>2026-04-26T10:22:18.978Z</time></trkpt><trkpt lat="40.8415011" lon="8.9976343"><ele>66.0</ele><time>2026-04-26T10:22:19.978Z</time></trkpt><trkpt lat="40.8414555" lon="8.9977259"><ele>66.66666666666667</ele><time>2026-04-26T10:22:20.979Z</time></trkpt><trkpt lat="40.8414175" lon="8.9978089"><ele>67.33333333333333</ele><time>2026-04-26T10:22:21.978Z</time></trkpt><trkpt lat="40.8413595" lon="8.9979399"><ele>68.0</ele><time>2026-04-26T10:22:23.979Z</time></trkpt><trkpt lat="40.8413391" lon="8.9980253"><ele>68.66666666666666</ele><time>2026-04-26T10:22:25.979Z</time></trkpt><trkpt lat="40.8412927" lon="8.9981217"><ele>69.33333333333333</ele><time>2026-04-26T10:22:30.979Z</time></trkpt><trkpt lat="40.8412071" lon="8.9981885"><ele>70.0</ele><time>2026-04-26T10:22:33.978Z</time></trkpt><trkpt lat="40.8411419" lon="8.9982332"><ele>70.0</ele><time>2026-04-26T10:22:35.979Z</time></trkpt><trkpt lat="40.8410878" lon="8.9982884"><ele>70.0</ele><time>2026-04-26T10:22:38.979Z</time></trkpt><trkpt lat="40.8410158" lon="8.9982979"><ele>70.0</ele><time>2026-04-26T10:22:41.978Z</time></trkpt><trkpt lat="40.8409404" lon="8.9983163"><ele>70.0</ele><time>2026-04-26T10:22:43.979Z</time></trkpt><trkpt lat="40.8408765" lon="8.9983377"><ele>70.0</ele><time>2026-04-26T10:22:45.978Z</time></trkpt><trkpt lat="40.8406538" lon="8.9982867"><ele>71.25</ele><time>2026-04-26T10:26:36.978Z</time></trkpt><trkpt lat="40.840529" lon="8.9982453"><ele>72.5</ele><time>2026-04-26T10:26:38.978Z</time></trkpt><trkpt lat="40.8403651" lon="8.9981707"><ele>73.75</ele><time>2026-04-26T10:26:41.979Z</time></trkpt><trkpt lat="40.8402842" lon="8.9981104"><ele>75.0</ele><time>2026-04-26T10:26:43.979Z</time></trkpt><trkpt lat="40.8401974" lon="8.9980648"><ele>72.4</ele><time>2026-04-26T10:26:45.98Z</time></trkpt><trkpt lat="40.840106" lon="8.9980259"><ele>69.8</ele><time>2026-04-26T10:26:47.978Z</time></trkpt><trkpt lat="40.8400041" lon="8.9979572"><ele>67.2</ele><time>2026-04-26T10:26:49.979Z</time></trkpt><trkpt lat="40.8399224" lon="8.9978576"><ele>64.6</ele><time>2026-04-26T10:26:51.979Z</time></trkpt><trkpt lat="40.8398482" lon="8.997746"><ele>62.0</ele><time>2026-04-26T10:26:53.979Z</time></trkpt><trkpt lat="40.8397768" lon="8.9976439"><ele>62.0</ele><time>2026-04-26T10:26:55.979Z</time></trkpt><trkpt lat="40.8397123" lon="8.9975453"><ele>62.0</ele><time>2026-04-26T10:26:57.979Z</time></trkpt><trkpt lat="40.8396428" lon="8.9974354"><ele>62.0</ele><time>2026-04-26T10:26:59.979Z</time></trkpt><trkpt lat="40.8395813" lon="8.9973387"><ele>62.0</ele><time>2026-04-26T10:27:01.979Z</time></trkpt><trkpt lat="40.8396296" lon="8.9973963"><ele>62.0</ele><time>2026-04-26T10:28:30.979Z</time></trkpt><trkpt lat="40.8397185" lon="8.9975189"><ele>62.0</ele><time>2026-04-26T10:28:33.979Z</time></trkpt><trkpt lat="40.8397852" lon="8.9976138"><ele>62.0</ele><time>2026-04-26T10:28:35.979Z</time></trkpt><trkpt lat="40.8398672" lon="8.9977138"><ele>62.0</ele><time>2026-04-26T10:28:37.98Z</time></trkpt><trkpt lat="40.8399465" lon="8.9978227"><ele>62.0</ele><time>2026-04-26T10:28:39.978Z</time></trkpt><trkpt lat="40.8400372" lon="8.9979212"><ele>62.0</ele><time>2026-04-26T10:28:41.979Z</time></trkpt><trkpt lat="40.8400905" lon="8.9979662"><ele>64.6</ele><time>2026-04-26T10:28:42.979Z</time></trkpt><trkpt lat="40.8401468" lon="8.9980055"><ele>67.2</ele><time>2026-04-26T10:28:43.979Z</time></trkpt><trkpt lat="40.8402071" lon="8.9980365"><ele>69.8</ele><time>2026-04-26T10:28:44.979Z</time></trkpt><trkpt lat="40.8402687" lon="8.9980663"><ele>72.4</ele><time>2026-04-26T10:28:45.979Z</time></trkpt><trkpt lat="40.840422" lon="8.9981759"><ele>75.0</ele><time>2026-04-26T10:28:48.978Z</time></trkpt><trkpt lat="40.8405285" lon="8.9982306"><ele>75.0</ele><time>2026-04-26T10:28:50.978Z</time></trkpt><trkpt lat="40.8406271" lon="8.9982695"><ele>75.0</ele><time>2026-04-26T10:28:52.98Z</time></trkpt><trkpt lat="40.8407213" lon="8.9982923"><ele>75.0</ele><time>2026-04-26T10:28:54.979Z</time></trkpt><trkpt lat="40.8407874" lon="8.9983186"><ele>75.0</ele><time>2026-04-26T10:28:56.98Z</time></trkpt><trkpt lat="40.8408937" lon="8.9983411"><ele>75.0</ele><time>2026-04-26T10:29:15.978Z</time></trkpt><trkpt lat="40.8410669" lon="8.9983208"><ele>74.0</ele><time>2026-04-26T10:29:18.979Z</time></trkpt><trkpt lat="40.8411526" lon="8.9982502"><ele>73.0</ele><time>2026-04-26T10:29:20.98Z</time></trkpt><trkpt lat="40.8412237" lon="8.9981755"><ele>72.0</ele><time>2026-04-26T10:29:22.979Z</time></trkpt><trkpt lat="40.8413084" lon="8.9980756"><ele>71.0</ele><time>2026-04-26T10:29:25.98Z</time></trkpt><trkpt lat="40.8413651" lon="8.9980106"><ele>70.0</ele><time>2026-04-26T10:29:30.978Z</time></trkpt><trkpt lat="40.8413963" lon="8.9978736"><ele>70.0</ele><time>2026-04-26T10:29:33.979Z</time></trkpt><trkpt lat="40.8414293" lon="8.9977953"><ele>70.0</ele><time>2026-04-26T10:29:34.978Z</time></trkpt><trkpt lat="40.8414691" lon="8.9977111"><ele>70.0</ele><time>2026-04-26T10:29:35.98Z</time></trkpt><trkpt lat="40.841511" lon="8.9976176"><ele>70.0</ele><time>2026-04-26T10:29:36.978Z</time></trkpt><trkpt lat="40.8416032" lon="8.9974297"><ele>70.0</ele><time>2026-04-26T10:29:38.978Z</time></trkpt><trkpt lat="40.8416644" lon="8.9972812"><ele>68.66666666666666</ele><time>2026-04-26T10:29:40.981Z</time></trkpt><trkpt lat="40.8416907" lon="8.9971215"><ele>67.33333333333333</ele><time>2026-04-26T10:29:42.979Z</time></trkpt><trkpt lat="40.8416772" lon="8.9969156"><ele>66.0</ele><time>2026-04-26T10:29:44.979Z</time></trkpt><trkpt lat="40.8415814" lon="8.9964519"><ele>66.0</ele><time>2026-04-26T10:29:48.979Z</time></trkpt><trkpt lat="40.8415619" lon="8.996343"><ele>66.0</ele><time>2026-04-26T10:29:49.98Z</time></trkpt><trkpt lat="40.841545" lon="8.9962368"><ele>66.0</ele><time>2026-04-26T10:29:50.979Z</time></trkpt><trkpt lat="40.8415274" lon="8.9961363"><ele>66.0</ele><time>2026-04-26T10:29:51.978Z</time></trkpt><trkpt lat="40.8415119" lon="8.9960404"><ele>66.0</ele><time>2026-04-26T10:29:52.979Z</time></trkpt><trkpt lat="40.8414968" lon="8.9959471"><ele>66.0</ele><time>2026-04-26T10:29:53.979Z</time></trkpt><trkpt lat="40.8414815" lon="8.9958584"><ele>64.6</ele><time>2026-04-26T10:29:54.978Z</time></trkpt><trkpt lat="40.8414692" lon="8.9957736"><ele>63.199999999999996</ele><time>2026-04-26T10:29:55.98Z</time></trkpt><trkpt lat="40.8414427" lon="8.9956143"><ele>61.800000000000004</ele><time>2026-04-26T10:29:57.978Z</time></trkpt><trkpt lat="40.8414107" lon="8.995469"><ele>60.400000000000006</ele><time>2026-04-26T10:29:59.98Z</time></trkpt><trkpt lat="40.8413843" lon="8.9953281"><ele>59.0</ele><time>2026-04-26T10:30:01.979Z</time></trkpt><trkpt lat="40.8413702" lon="8.9951862"><ele>59.0</ele><time>2026-04-26T10:30:03.979Z</time></trkpt><trkpt lat="40.8413496" lon="8.9950504"><ele>59.00000000000001</ele><time>2026-04-26T10:30:05.979Z</time></trkpt><trkpt lat="40.8413178" lon="8.9949043"><ele>59.00000000000001</ele><time>2026-04-26T10:30:07.98Z</time></trkpt><trkpt lat="40.8412531" lon="8.9947767"><ele>59.0</ele><time>2026-04-26T10:30:09.979Z</time></trkpt><trkpt lat="40.8411649" lon="8.9946829"><ele>59.0</ele><time>2026-04-26T10:30:11.979Z</time></trkpt><trkpt lat="40.84109" lon="8.9945659"><ele>58.0</ele><time>2026-04-26T10:30:13.979Z</time></trkpt><trkpt lat="40.8410721" lon="8.9944368"><ele>57.00000000000001</ele><time>2026-04-26T10:30:15.979Z</time></trkpt><trkpt lat="40.8411111" lon="8.9943245"><ele>56.00000000000001</ele><time>2026-04-26T10:30:17.979Z</time></trkpt><trkpt lat="40.8411859" lon="8.9942468"><ele>55.0</ele><time>2026-04-26T10:30:19.979Z</time></trkpt><trkpt lat="40.8412654" lon="8.9941652"><ele>54.0</ele><time>2026-04-26T10:30:21.979Z</time></trkpt><trkpt lat="40.8413505" lon="8.9940699"><ele>54.0</ele><time>2026-04-26T10:30:23.979Z</time></trkpt><trkpt lat="40.8413937" lon="8.9940067"><ele>54.0</ele><time>2026-04-26T10:30:24.979Z</time></trkpt><trkpt lat="40.8414392" lon="8.9939391"><ele>54.0</ele><time>2026-04-26T10:30:25.979Z</time></trkpt><trkpt lat="40.8414844" lon="8.9938695"><ele>54.0</ele><time>2026-04-26T10:30:26.98Z</time></trkpt><trkpt lat="40.841533" lon="8.9938005"><ele>54.0</ele><time>2026-04-26T10:30:27.978Z</time></trkpt><trkpt lat="40.8415805" lon="8.9937272"><ele>54.0</ele><time>2026-04-26T10:30:28.979Z</time></trkpt><trkpt lat="40.8416292" lon="8.9936505"><ele>54.0</ele><time>2026-04-26T10:30:29.98Z</time></trkpt><trkpt lat="40.8416768" lon="8.9935711"><ele>54.0</ele><time>2026-04-26T10:30:30.978Z</time></trkpt><trkpt lat="40.8417268" lon="8.9934876"><ele>54.0</ele><time>2026-04-26T10:30:31.978Z</time></trkpt><trkpt lat="40.8417808" lon="8.9934048"><ele>54.0</ele><time>2026-04-26T10:30:32.981Z</time></trkpt><trkpt lat="40.8418366" lon="8.9933243"><ele>54.0</ele><time>2026-04-26T10:30:33.978Z</time></trkpt><trkpt lat="40.8418952" lon="8.9932449"><ele>54.0</ele><time>2026-04-26T10:30:34.979Z</time></trkpt><trkpt lat="40.8419575" lon="8.9931643"><ele>54.0</ele><time>2026-04-26T10:30:35.979Z</time></trkpt><trkpt lat="40.8420205" lon="8.993084"><ele>53.2</ele><time>2026-04-26T10:30:36.979Z</time></trkpt><trkpt lat="40.842085" lon="8.9930061"><ele>52.400000000000006</ele><time>2026-04-26T10:30:37.98Z</time></trkpt><trkpt lat="40.8421533" lon="8.9929336"><ele>51.6</ele><time>2026-04-26T10:30:38.98Z</time></trkpt><trkpt lat="40.8422338" lon="8.9928733"><ele>50.8</ele><time>2026-04-26T10:30:39.979Z</time></trkpt><trkpt lat="40.8423158" lon="8.9928157"><ele>50.0</ele><time>2026-04-26T10:30:40.978Z</time></trkpt><trkpt lat="40.8424004" lon="8.9927567"><ele>50.0</ele><time>2026-04-26T10:30:41.979Z</time></trkpt><trkpt lat="40.8424871" lon="8.9926995"><ele>50.0</ele><time>2026-04-26T10:30:42.979Z</time></trkpt><trkpt lat="40.8425787" lon="8.9926471"><ele>50.0</ele><time>2026-04-26T10:30:43.978Z</time></trkpt><trkpt lat="40.8426734" lon="8.9925967"><ele>50.0</ele><time>2026-04-26T10:30:44.981Z</time></trkpt><trkpt lat="40.8427665" lon="8.9925452"><ele>50.0</ele><time>2026-04-26T10:30:45.98Z</time></trkpt><trkpt lat="40.8428577" lon="8.9924886"><ele>50.4</ele><time>2026-04-26T10:30:46.979Z</time></trkpt><trkpt lat="40.8429503" lon="8.9924336"><ele>50.8</ele><time>2026-04-26T10:30:47.979Z</time></trkpt><trkpt lat="40.8430448" lon="8.9923839"><ele>51.2</ele><time>2026-04-26T10:30:48.978Z</time></trkpt><trkpt lat="40.8431324" lon="8.9923314"><ele>51.6</ele><time>2026-04-26T10:30:49.978Z</time></trkpt><trkpt lat="40.8432174" lon="8.9922771"><ele>52.0</ele><time>2026-04-26T10:30:50.98Z</time></trkpt><trkpt lat="40.8433021" lon="8.9922121"><ele>52.0</ele><time>2026-04-26T10:30:51.978Z</time></trkpt><trkpt lat="40.8433836" lon="8.992136"><ele>52.0</ele><time>2026-04-26T10:30:52.979Z</time></trkpt><trkpt lat="40.8434644" lon="8.9920533"><ele>52.0</ele><time>2026-04-26T10:30:53.981Z</time></trkpt><trkpt lat="40.843544" lon="8.991967"><ele>52.0</ele><time>2026-04-26T10:30:54.979Z</time></trkpt><trkpt lat="40.843619" lon="8.9918781"><ele>52.0</ele><time>2026-04-26T10:30:55.979Z</time></trkpt><trkpt lat="40.8436967" lon="8.991789"><ele>52.2</ele><time>2026-04-26T10:30:56.979Z</time></trkpt><trkpt lat="40.843779" lon="8.9917034"><ele>52.400000000000006</ele><time>2026-04-26T10:30:57.98Z</time></trkpt><trkpt lat="40.8438641" lon="8.9916176"><ele>52.599999999999994</ele><time>2026-04-26T10:30:58.98Z</time></trkpt><trkpt lat="40.8439536" lon="8.9915323"><ele>52.8</ele><time>2026-04-26T10:30:59.979Z</time></trkpt><trkpt lat="40.8440463" lon="8.9914488"><ele>53.0</ele><time>2026-04-26T10:31:00.98Z</time></trkpt><trkpt lat="40.8441392" lon="8.9913663"><ele>53.0</ele><time>2026-04-26T10:31:01.98Z</time></trkpt><trkpt lat="40.8442325" lon="8.9912893"><ele>53.0</ele><time>2026-04-26T10:31:02.98Z</time></trkpt><trkpt lat="40.8443227" lon="8.9912128"><ele>53.0</ele><time>2026-04-26T10:31:03.98Z</time></trkpt><trkpt lat="40.8444117" lon="8.9911387"><ele>53.0</ele><time>2026-04-26T10:31:04.98Z</time></trkpt><trkpt lat="40.844495" lon="8.9910657"><ele>53.0</ele><time>2026-04-26T10:31:05.979Z</time></trkpt><trkpt lat="40.8445722" lon="8.9909938"><ele>53.0</ele><time>2026-04-26T10:31:06.979Z</time></trkpt><trkpt lat="40.8446508" lon="8.9909251"><ele>53.0</ele><time>2026-04-26T10:31:07.979Z</time></trkpt><trkpt lat="40.8447343" lon="8.9908509"><ele>53.0</ele><time>2026-04-26T10:31:08.979Z</time></trkpt><trkpt lat="40.8448202" lon="8.9907757"><ele>53.0</ele><time>2026-04-26T10:31:09.978Z</time></trkpt><trkpt lat="40.8449069" lon="8.9906971"><ele>53.0</ele><time>2026-04-26T10:31:10.979Z</time></trkpt><trkpt lat="40.8449936" lon="8.9906186"><ele>53.0</ele><time>2026-04-26T10:31:11.979Z</time></trkpt><trkpt lat="40.8450773" lon="8.9905395"><ele>53.0</ele><time>2026-04-26T10:31:12.979Z</time></trkpt><trkpt lat="40.8451651" lon="8.9904609"><ele>53.0</ele><time>2026-04-26T10:31:13.98Z</time></trkpt><trkpt lat="40.845252" lon="8.9903803"><ele>53.0</ele><time>2026-04-26T10:31:14.98Z</time></trkpt><trkpt lat="40.845342" lon="8.9903002"><ele>53.0</ele><time>2026-04-26T10:31:15.978Z</time></trkpt><trkpt lat="40.8454304" lon="8.9902179"><ele>52.2</ele><time>2026-04-26T10:31:16.978Z</time></trkpt><trkpt lat="40.8455179" lon="8.9901336"><ele>51.4</ele><time>2026-04-26T10:31:17.98Z</time></trkpt><trkpt lat="40.8456066" lon="8.9900485"><ele>50.6</ele><time>2026-04-26T10:31:18.979Z</time></trkpt><trkpt lat="40.8456968" lon="8.9899644"><ele>49.800000000000004</ele><time>2026-04-26T10:31:19.979Z</time></trkpt><trkpt lat="40.8457885" lon="8.9898824"><ele>49.0</ele><time>2026-04-26T10:31:20.979Z</time></trkpt><trkpt lat="40.845883" lon="8.9898016"><ele>49.75</ele><time>2026-04-26T10:31:21.979Z</time></trkpt><trkpt lat="40.8459817" lon="8.9897239"><ele>50.5</ele><time>2026-04-26T10:31:22.979Z</time></trkpt><trkpt lat="40.8460804" lon="8.9896411"><ele>51.25</ele><time>2026-04-26T10:31:23.98Z</time></trkpt><trkpt lat="40.8461734" lon="8.9895458"><ele>52.0</ele><time>2026-04-26T10:31:24.979Z</time></trkpt><trkpt lat="40.84626" lon="8.9894346"><ele>52.0</ele><time>2026-04-26T10:31:25.979Z</time></trkpt><trkpt lat="40.846341" lon="8.9893109"><ele>52.0</ele><time>2026-04-26T10:31:26.98Z</time></trkpt><trkpt lat="40.8464214" lon="8.9891857"><ele>52.0</ele><time>2026-04-26T10:31:27.978Z</time></trkpt><trkpt lat="40.8465062" lon="8.9890607"><ele>52.0</ele><time>2026-04-26T10:31:28.98Z</time></trkpt><trkpt lat="40.8465952" lon="8.9889362"><ele>52.0</ele><time>2026-04-26T10:31:29.98Z</time></trkpt><trkpt lat="40.8466831" lon="8.9888073"><ele>52.0</ele><time>2026-04-26T10:31:30.979Z</time></trkpt><trkpt lat="40.8467724" lon="8.9886801"><ele>52.0</ele><time>2026-04-26T10:31:31.979Z</time></trkpt><trkpt lat="40.8468603" lon="8.9885532"><ele>52.0</ele><time>2026-04-26T10:31:32.98Z</time></trkpt><trkpt lat="40.8469516" lon="8.9884249"><ele>52.0</ele><time>2026-04-26T10:31:33.979Z</time></trkpt><trkpt lat="40.8470415" lon="8.9882979"><ele>52.0</ele><time>2026-04-26T10:31:34.981Z</time></trkpt><trkpt lat="40.8471333" lon="8.9881706"><ele>52.0</ele><time>2026-04-26T10:31:35.979Z</time></trkpt><trkpt lat="40.8472276" lon="8.9880435"><ele>52.0</ele><time>2026-04-26T10:31:36.98Z</time></trkpt><trkpt lat="40.8473182" lon="8.9879157"><ele>52.0</ele><time>2026-04-26T10:31:37.979Z</time></trkpt><trkpt lat="40.8474063" lon="8.9877866"><ele>52.0</ele><time>2026-04-26T10:31:38.981Z</time></trkpt><trkpt lat="40.8474881" lon="8.9876564"><ele>52.0</ele><time>2026-04-26T10:31:39.98Z</time></trkpt><trkpt lat="40.8475601" lon="8.9875292"><ele>52.0</ele><time>2026-04-26T10:31:40.981Z</time></trkpt><trkpt lat="40.8476281" lon="8.9874059"><ele>50.75</ele><time>2026-04-26T10:31:41.979Z</time></trkpt><trkpt lat="40.8476937" lon="8.9872797"><ele>49.5</ele><time>2026-04-26T10:31:42.978Z</time></trkpt><trkpt lat="40.8477503" lon="8.9871414"><ele>48.25</ele><time>2026-04-26T10:31:43.978Z</time></trkpt><trkpt lat="40.8477943" lon="8.9869915"><ele>47.0</ele><time>2026-04-26T10:31:44.981Z</time></trkpt><trkpt lat="40.8478387" lon="8.9868366"><ele>47.0</ele><time>2026-04-26T10:31:45.98Z</time></trkpt><trkpt lat="40.8478864" lon="8.9866797"><ele>47.0</ele><time>2026-04-26T10:31:46.979Z</time></trkpt><trkpt lat="40.847932" lon="8.9865175"><ele>47.0</ele><time>2026-04-26T10:31:47.978Z</time></trkpt><trkpt lat="40.8479779" lon="8.9863521"><ele>47.0</ele><time>2026-04-26T10:31:48.981Z</time></trkpt><trkpt lat="40.8480237" lon="8.9861875"><ele>48.5</ele><time>2026-04-26T10:31:49.979Z</time></trkpt><trkpt lat="40.8480686" lon="8.9860253"><ele>50.0</ele><time>2026-04-26T10:31:50.979Z</time></trkpt><trkpt lat="40.8481075" lon="8.9858702"><ele>51.5</ele><time>2026-04-26T10:31:51.978Z</time></trkpt><trkpt lat="40.8481458" lon="8.9857262"><ele>53.0</ele><time>2026-04-26T10:31:52.979Z</time></trkpt><trkpt lat="40.8481858" lon="8.9855966"><ele>53.4</ele><time>2026-04-26T10:31:53.98Z</time></trkpt><trkpt lat="40.8482203" lon="8.9854633"><ele>53.8</ele><time>2026-04-26T10:31:54.979Z</time></trkpt><trkpt lat="40.8482416" lon="8.9853247"><ele>54.2</ele><time>2026-04-26T10:31:55.978Z</time></trkpt><trkpt lat="40.8482649" lon="8.985176"><ele>54.6</ele><time>2026-04-26T10:31:56.979Z</time></trkpt><trkpt lat="40.8482883" lon="8.9850233"><ele>55.0</ele><time>2026-04-26T10:31:57.979Z</time></trkpt><trkpt lat="40.8483128" lon="8.9848687"><ele>56.25</ele><time>2026-04-26T10:31:58.978Z</time></trkpt><trkpt lat="40.8483373" lon="8.9847166"><ele>57.5</ele><time>2026-04-26T10:31:59.979Z</time></trkpt><trkpt lat="40.8483594" lon="8.9845721"><ele>58.75</ele><time>2026-04-26T10:32:00.979Z</time></trkpt><trkpt lat="40.8483765" lon="8.9844341"><ele>60.0</ele><time>2026-04-26T10:32:01.979Z</time></trkpt><trkpt lat="40.8484535" lon="8.983937"><ele>57.8</ele><time>2026-04-26T10:32:05.98Z</time></trkpt><trkpt lat="40.8484747" lon="8.9838035"><ele>55.6</ele><time>2026-04-26T10:32:06.979Z</time></trkpt><trkpt lat="40.8484924" lon="8.9836666"><ele>53.400000000000006</ele><time>2026-04-26T10:32:07.979Z</time></trkpt><trkpt lat="40.8485128" lon="8.9835262"><ele>51.2</ele><time>2026-04-26T10:32:08.979Z</time></trkpt><trkpt lat="40.8485357" lon="8.9833781"><ele>49.0</ele><time>2026-04-26T10:32:09.98Z</time></trkpt><trkpt lat="40.8485607" lon="8.9832274"><ele>49.0</ele><time>2026-04-26T10:32:10.979Z</time></trkpt><trkpt lat="40.8485862" lon="8.983077"><ele>49.0</ele><time>2026-04-26T10:32:11.979Z</time></trkpt><trkpt lat="40.8486143" lon="8.982923"><ele>49.0</ele><time>2026-04-26T10:32:12.98Z</time></trkpt><trkpt lat="40.8486437" lon="8.9827718"><ele>49.0</ele><time>2026-04-26T10:32:13.98Z</time></trkpt><trkpt lat="40.8486732" lon="8.9826321"><ele>48.99999999999999</ele><time>2026-04-26T10:32:14.979Z</time></trkpt><trkpt lat="40.8486991" lon="8.9825104"><ele>49.0</ele><time>2026-04-26T10:32:15.979Z</time></trkpt><trkpt lat="40.8487276" lon="8.982405"><ele>49.0</ele><time>2026-04-26T10:32:16.98Z</time></trkpt><trkpt lat="40.8487519" lon="8.9823186"><ele>49.0</ele><time>2026-04-26T10:32:17.979Z</time></trkpt><trkpt lat="40.8487889" lon="8.9822174"><ele>48.99999999999999</ele><time>2026-04-26T10:32:19.979Z</time></trkpt><trkpt lat="40.8488153" lon="8.9821265"><ele>49.0</ele><time>2026-04-26T10:32:22.98Z</time></trkpt><trkpt lat="40.8488558" lon="8.9820047"><ele>48.99999999999999</ele><time>2026-04-26T10:32:24.979Z</time></trkpt><trkpt lat="40.8488929" lon="8.9819312"><ele>49.0</ele><time>2026-04-26T10:32:25.978Z</time></trkpt><trkpt lat="40.8489424" lon="8.9818581"><ele>49.0</ele><time>2026-04-26T10:32:26.979Z</time></trkpt><trkpt lat="40.849007" lon="8.9817857"><ele>49.0</ele><time>2026-04-26T10:32:27.979Z</time></trkpt><trkpt lat="40.8490722" lon="8.9817125"><ele>48.99999999999999</ele><time>2026-04-26T10:32:28.979Z</time></trkpt><trkpt lat="40.849136" lon="8.9816347"><ele>49.0</ele><time>2026-04-26T10:32:29.98Z</time></trkpt><trkpt lat="40.8492022" lon="8.9815512"><ele>48.99999999999999</ele><time>2026-04-26T10:32:30.98Z</time></trkpt><trkpt lat="40.8492655" lon="8.9814683"><ele>49.0</ele><time>2026-04-26T10:32:31.98Z</time></trkpt><trkpt lat="40.8493275" lon="8.9813879"><ele>49.0</ele><time>2026-04-26T10:32:32.98Z</time></trkpt><trkpt lat="40.8493809" lon="8.9813152"><ele>49.0</ele><time>2026-04-26T10:32:33.979Z</time></trkpt><trkpt lat="40.8494315" lon="8.9812471"><ele>48.99999999999999</ele><time>2026-04-26T10:32:34.98Z</time></trkpt><trkpt lat="40.8494852" lon="8.9811778"><ele>49.0</ele><time>2026-04-26T10:32:35.98Z</time></trkpt><trkpt lat="40.8495444" lon="8.9811034"><ele>49.0</ele><time>2026-04-26T10:32:36.979Z</time></trkpt><trkpt lat="40.8496088" lon="8.9810254"><ele>49.0</ele><time>2026-04-26T10:32:37.98Z</time></trkpt><trkpt lat="40.8496808" lon="8.9809412"><ele>49.0</ele><time>2026-04-26T10:32:38.979Z</time></trkpt><trkpt lat="40.8497582" lon="8.9808502"><ele>49.0</ele><time>2026-04-26T10:32:39.979Z</time></trkpt><trkpt lat="40.8498393" lon="8.9807559"><ele>49.0</ele><time>2026-04-26T10:32:40.978Z</time></trkpt><trkpt lat="40.8499179" lon="8.9806568"><ele>49.0</ele><time>2026-04-26T10:32:41.98Z</time></trkpt><trkpt lat="40.8499963" lon="8.9805592"><ele>49.0</ele><time>2026-04-26T10:32:42.979Z</time></trkpt><trkpt lat="40.8500722" lon="8.9804629"><ele>49.0</ele><time>2026-04-26T10:32:43.979Z</time></trkpt><trkpt lat="40.8501496" lon="8.9803677"><ele>49.0</ele><time>2026-04-26T10:32:44.98Z</time></trkpt><trkpt lat="40.8502259" lon="8.9802752"><ele>49.0</ele><time>2026-04-26T10:32:45.98Z</time></trkpt><trkpt lat="40.8502994" lon="8.9801852"><ele>49.0</ele><time>2026-04-26T10:32:46.979Z</time></trkpt><trkpt lat="40.8503713" lon="8.9800985"><ele>49.0</ele><time>2026-04-26T10:32:47.979Z</time></trkpt><trkpt lat="40.8504363" lon="8.9800262"><ele>49.0</ele><time>2026-04-26T10:32:48.98Z</time></trkpt><trkpt lat="40.8504966" lon="8.9799684"><ele>49.0</ele><time>2026-04-26T10:32:49.979Z</time></trkpt><trkpt lat="40.8506013" lon="8.9799107"><ele>49.0</ele><time>2026-04-26T10:32:51.98Z</time></trkpt><trkpt lat="40.8507242" lon="8.9798932"><ele>49.99999999999999</ele><time>2026-04-26T10:32:53.978Z</time></trkpt><trkpt lat="40.8507975" lon="8.9798986"><ele>51.0</ele><time>2026-04-26T10:32:54.98Z</time></trkpt><trkpt lat="40.8508792" lon="8.9799142"><ele>52.0</ele><time>2026-04-26T10:32:55.98Z</time></trkpt><trkpt lat="40.8509686" lon="8.9799345"><ele>53.0</ele><time>2026-04-26T10:32:56.979Z</time></trkpt><trkpt lat="40.8510643" lon="8.9799516"><ele>53.99999999999999</ele><time>2026-04-26T10:32:57.979Z</time></trkpt><trkpt lat="40.8511656" lon="8.9799719"><ele>55.0</ele><time>2026-04-26T10:32:58.978Z</time></trkpt><trkpt lat="40.8512719" lon="8.9799977"><ele>53.6</ele><time>2026-04-26T10:32:59.982Z</time></trkpt><trkpt lat="40.8513785" lon="8.9800218"><ele>52.2</ele><time>2026-04-26T10:33:00.979Z</time></trkpt><trkpt lat="40.851485" lon="8.980037"><ele>50.8</ele><time>2026-04-26T10:33:01.979Z</time></trkpt><trkpt lat="40.8515957" lon="8.9800423"><ele>49.4</ele><time>2026-04-26T10:33:02.979Z</time></trkpt><trkpt lat="40.8517097" lon="8.9800354"><ele>48.0</ele><time>2026-04-26T10:33:03.979Z</time></trkpt><trkpt lat="40.8518289" lon="8.9800257"><ele>50.0</ele><time>2026-04-26T10:33:04.979Z</time></trkpt><trkpt lat="40.8519522" lon="8.9800154"><ele>52.0</ele><time>2026-04-26T10:33:05.978Z</time></trkpt><trkpt lat="40.852079" lon="8.9800091"><ele>54.0</ele><time>2026-04-26T10:33:06.98Z</time></trkpt><trkpt lat="40.8522072" lon="8.9800032"><ele>56.0</ele><time>2026-04-26T10:33:07.98Z</time></trkpt><trkpt lat="40.8523344" lon="8.9799947"><ele>56.0</ele><time>2026-04-26T10:33:08.979Z</time></trkpt><trkpt lat="40.8524656" lon="8.9799862"><ele>56.0</ele><time>2026-04-26T10:33:09.98Z</time></trkpt><trkpt lat="40.8525963" lon="8.9799783"><ele>56.0</ele><time>2026-04-26T10:33:10.98Z</time></trkpt><trkpt lat="40.8527244" lon="8.9799692"><ele>56.0</ele><time>2026-04-26T10:33:11.979Z</time></trkpt><trkpt lat="40.8528548" lon="8.9799596"><ele>55.25</ele><time>2026-04-26T10:33:12.978Z</time></trkpt><trkpt lat="40.8529861" lon="8.9799493"><ele>54.5</ele><time>2026-04-26T10:33:13.978Z</time></trkpt><trkpt lat="40.8531145" lon="8.9799408"><ele>53.75</ele><time>2026-04-26T10:33:14.979Z</time></trkpt><trkpt lat="40.8532376" lon="8.9799315"><ele>53.0</ele><time>2026-04-26T10:33:15.978Z</time></trkpt><trkpt lat="40.8533585" lon="8.9799233"><ele>52.4</ele><time>2026-04-26T10:33:16.979Z</time></trkpt><trkpt lat="40.853476" lon="8.9799162"><ele>51.8</ele><time>2026-04-26T10:33:17.979Z</time></trkpt><trkpt lat="40.8535896" lon="8.9799071"><ele>51.2</ele><time>2026-04-26T10:33:18.979Z</time></trkpt><trkpt lat="40.8537002" lon="8.9798914"><ele>50.6</ele><time>2026-04-26T10:33:19.978Z</time></trkpt><trkpt lat="40.8538043" lon="8.9798655"><ele>50.0</ele><time>2026-04-26T10:33:20.98Z</time></trkpt><trkpt lat="40.8539029" lon="8.9798263"><ele>50.0</ele><time>2026-04-26T10:33:21.979Z</time></trkpt><trkpt lat="40.8539976" lon="8.9797731"><ele>50.0</ele><time>2026-04-26T10:33:22.978Z</time></trkpt><trkpt lat="40.8540882" lon="8.9797174"><ele>50.0</ele><time>2026-04-26T10:33:23.979Z</time></trkpt><trkpt lat="40.8541693" lon="8.9796682"><ele>50.0</ele><time>2026-04-26T10:33:24.979Z</time></trkpt><trkpt lat="40.8542467" lon="8.9796294"><ele>50.0</ele><time>2026-04-26T10:33:25.978Z</time></trkpt><trkpt lat="40.8543197" lon="8.9795966"><ele>49.16666666666667</ele><time>2026-04-26T10:33:26.978Z</time></trkpt><trkpt lat="40.8543969" lon="8.9795721"><ele>48.333333333333336</ele><time>2026-04-26T10:33:27.979Z</time></trkpt><trkpt lat="40.8544738" lon="8.9795491"><ele>47.5</ele><time>2026-04-26T10:33:28.979Z</time></trkpt><trkpt lat="40.8545413" lon="8.9795285"><ele>46.66666666666667</ele><time>2026-04-26T10:33:29.979Z</time></trkpt><trkpt lat="40.8546436" lon="8.9795017"><ele>45.833333333333336</ele><time>2026-04-26T10:33:31.979Z</time></trkpt><trkpt lat="40.8547257" lon="8.979488"><ele>45.0</ele><time>2026-04-26T10:33:33.978Z</time></trkpt><trkpt lat="40.8547914" lon="8.9794794"><ele>45.0</ele><time>2026-04-26T10:33:35.979Z</time></trkpt><trkpt lat="40.8548577" lon="8.979463"><ele>45.0</ele><time>2026-04-26T10:33:39.978Z</time></trkpt><trkpt lat="40.8547404" lon="8.9794823"><ele>45.0</ele><time>2026-04-26T10:34:05.979Z</time></trkpt><trkpt lat="40.8545491" lon="8.9795236"><ele>45.0</ele><time>2026-04-26T10:34:08.979Z</time></trkpt><trkpt lat="40.8544327" lon="8.979557"><ele>45.0</ele><time>2026-04-26T10:34:10.977Z</time></trkpt><trkpt lat="40.8543245" lon="8.9795973"><ele>45.0</ele><time>2026-04-26T10:34:12.978Z</time></trkpt><trkpt lat="40.8541957" lon="8.9796463"><ele>45.0</ele><time>2026-04-26T10:34:14.978Z</time></trkpt><trkpt lat="40.8541282" lon="8.9796706"><ele>45.0</ele><time>2026-04-26T10:34:15.978Z</time></trkpt><trkpt lat="40.8540066" lon="8.9797492"><ele>46.0</ele><time>2026-04-26T10:34:18.977Z</time></trkpt><trkpt lat="40.85398" lon="8.9796391"><ele>47.0</ele><time>2026-04-26T10:34:23.979Z</time></trkpt><trkpt lat="40.8540184" lon="8.9795214"><ele>48.0</ele><time>2026-04-26T10:34:25.977Z</time></trkpt><trkpt lat="40.8540536" lon="8.9793875"><ele>49.0</ele><time>2026-04-26T10:34:27.978Z</time></trkpt><trkpt lat="40.8540719" lon="8.9791953"><ele>50.0</ele><time>2026-04-26T10:34:30.978Z</time></trkpt><trkpt lat="40.854045" lon="8.9790716"><ele>52.6</ele><time>2026-04-26T10:34:32.978Z</time></trkpt><trkpt lat="40.8540019" lon="8.9789417"><ele>55.2</ele><time>2026-04-26T10:34:34.979Z</time></trkpt><trkpt lat="40.8539468" lon="8.9788038"><ele>57.8</ele><time>2026-04-26T10:34:36.978Z</time></trkpt><trkpt lat="40.8538796" lon="8.9786528"><ele>60.4</ele><time>2026-04-26T10:34:39.979Z</time></trkpt><trkpt lat="40.8538747" lon="8.9785394"><ele>63.0</ele><time>2026-04-26T10:34:43.979Z</time></trkpt><trkpt lat="40.8538865" lon="8.9786429"><ele>63.0</ele><time>2026-04-26T10:35:14.979Z</time></trkpt><trkpt lat="40.8539087" lon="8.9787294"><ele>63.0</ele><time>2026-04-26T10:35:17.978Z</time></trkpt><trkpt lat="40.8539453" lon="8.9788009"><ele>63.0</ele><time>2026-04-26T10:35:19.979Z</time></trkpt><trkpt lat="40.8539792" lon="8.978887"><ele>63.0</ele><time>2026-04-26T10:35:21.979Z</time></trkpt><trkpt lat="40.8540218" lon="8.9790145"><ele>63.0</ele><time>2026-04-26T10:35:24.981Z</time></trkpt><trkpt lat="40.8540493" lon="8.9791099"><ele>63.0</ele><time>2026-04-26T10:35:26.981Z</time></trkpt><trkpt lat="40.8540793" lon="8.9792145"><ele>60.4</ele><time>2026-04-26T10:35:28.979Z</time></trkpt><trkpt lat="40.8540801" lon="8.9793652"><ele>57.8</ele><time>2026-04-26T10:35:31.978Z</time></trkpt><trkpt lat="40.8540569" lon="8.9794447"><ele>55.2</ele><time>2026-04-26T10:35:33.979Z</time></trkpt><trkpt lat="40.8540327" lon="8.9795237"><ele>52.6</ele><time>2026-04-26T10:35:35.978Z</time></trkpt><trkpt lat="40.8539857" lon="8.9796826"><ele>50.0</ele><time>2026-04-26T10:35:38.978Z</time></trkpt><trkpt lat="40.8539426" lon="8.9797741"><ele>50.0</ele><time>2026-04-26T10:35:40.978Z</time></trkpt><trkpt lat="40.8538554" lon="8.9798361"><ele>50.0</ele><time>2026-04-26T10:35:42.978Z</time></trkpt><trkpt lat="40.8536986" lon="8.9798883"><ele>50.0</ele><time>2026-04-26T10:35:44.979Z</time></trkpt><trkpt lat="40.8534544" lon="8.9799136"><ele>50.75</ele><time>2026-04-26T10:35:46.978Z</time></trkpt><trkpt lat="40.8533164" lon="8.9799234"><ele>51.5</ele><time>2026-04-26T10:35:47.978Z</time></trkpt><trkpt lat="40.853183" lon="8.9799296"><ele>52.25</ele><time>2026-04-26T10:35:48.978Z</time></trkpt><trkpt lat="40.8530491" lon="8.9799368"><ele>53.0</ele><time>2026-04-26T10:35:49.979Z</time></trkpt><trkpt lat="40.8527818" lon="8.9799506"><ele>54.5</ele><time>2026-04-26T10:35:51.979Z</time></trkpt><trkpt lat="40.8525283" lon="8.9799664"><ele>56.0</ele><time>2026-04-26T10:35:53.979Z</time></trkpt><trkpt lat="40.8522864" lon="8.9799872"><ele>56.0</ele><time>2026-04-26T10:35:55.978Z</time></trkpt><trkpt lat="40.8520378" lon="8.9800042"><ele>56.0</ele><time>2026-04-26T10:35:57.982Z</time></trkpt><trkpt lat="40.851802" lon="8.9800247"><ele>54.0</ele><time>2026-04-26T10:35:59.979Z</time></trkpt><trkpt lat="40.8517031" lon="8.9800348"><ele>51.99999999999999</ele><time>2026-04-26T10:36:00.979Z</time></trkpt><trkpt lat="40.85162" lon="8.980043"><ele>50.0</ele><time>2026-04-26T10:36:01.978Z</time></trkpt><trkpt lat="40.8514998" lon="8.9800545"><ele>48.0</ele><time>2026-04-26T10:36:03.978Z</time></trkpt><trkpt lat="40.8514319" lon="8.9800536"><ele>46.0</ele><time>2026-04-26T10:36:05.979Z</time></trkpt><trkpt lat="40.8513474" lon="8.9800303"><ele>49.0</ele><time>2026-04-26T10:36:29.978Z</time></trkpt><trkpt lat="40.8512135" lon="8.9799886"><ele>52.0</ele><time>2026-04-26T10:36:31.978Z</time></trkpt><trkpt lat="40.8510294" lon="8.9799501"><ele>55.0</ele><time>2026-04-26T10:36:33.979Z</time></trkpt><trkpt lat="40.8508526" lon="8.9799235"><ele>55.0</ele><time>2026-04-26T10:36:35.978Z</time></trkpt><trkpt lat="40.8507683" lon="8.979917"><ele>55.0</ele><time>2026-04-26T10:36:36.977Z</time></trkpt><trkpt lat="40.8506218" lon="8.9799176"><ele>55.0</ele><time>2026-04-26T10:36:38.979Z</time></trkpt><trkpt lat="40.8505072" lon="8.9799533"><ele>55.0</ele><time>2026-04-26T10:36:40.98Z</time></trkpt><trkpt lat="40.8504514" lon="8.9799983"><ele>55.0</ele><time>2026-04-26T10:36:41.978Z</time></trkpt><trkpt lat="40.8503918" lon="8.9800653"><ele>55.0</ele><time>2026-04-26T10:36:42.978Z</time></trkpt><trkpt lat="40.8503259" lon="8.9801506"><ele>55.0</ele><time>2026-04-26T10:36:43.978Z</time></trkpt><trkpt lat="40.8502484" lon="8.9802514"><ele>55.0</ele><time>2026-04-26T10:36:44.98Z</time></trkpt><trkpt lat="40.8501653" lon="8.9803604"><ele>55.0</ele><time>2026-04-26T10:36:45.978Z</time></trkpt><trkpt lat="40.8500787" lon="8.9804739"><ele>55.0</ele><time>2026-04-26T10:36:46.983Z</time></trkpt><trkpt lat="40.8499906" lon="8.9805861"><ele>55.0</ele><time>2026-04-26T10:36:47.979Z</time></trkpt><trkpt lat="40.8499012" lon="8.9806953"><ele>55.0</ele><time>2026-04-26T10:36:48.978Z</time></trkpt><trkpt lat="40.8498129" lon="8.9808018"><ele>55.0</ele><time>2026-04-26T10:36:49.978Z</time></trkpt><trkpt lat="40.8497303" lon="8.9809042"><ele>55.0</ele><time>2026-04-26T10:36:50.978Z</time></trkpt><trkpt lat="40.8496508" lon="8.981007"><ele>55.25</ele><time>2026-04-26T10:36:51.979Z</time></trkpt><trkpt lat="40.8495691" lon="8.9811119"><ele>55.5</ele><time>2026-04-26T10:36:52.979Z</time></trkpt><trkpt lat="40.8494893" lon="8.9812122"><ele>55.75</ele><time>2026-04-26T10:36:53.978Z</time></trkpt><trkpt lat="40.8494135" lon="8.9813056"><ele>56.0</ele><time>2026-04-26T10:36:54.978Z</time></trkpt><trkpt lat="40.8492778" lon="8.9814752"><ele>56.0</ele><time>2026-04-26T10:36:56.979Z</time></trkpt><trkpt lat="40.8492115" lon="8.9815559"><ele>56.0</ele><time>2026-04-26T10:36:57.978Z</time></trkpt><trkpt lat="40.849145" lon="8.9816367"><ele>56.0</ele><time>2026-04-26T10:36:58.98Z</time></trkpt><trkpt lat="40.8490081" lon="8.9817955"><ele>56.0</ele><time>2026-04-26T10:37:00.979Z</time></trkpt><trkpt lat="40.8488874" lon="8.9819533"><ele>54.599999999999994</ele><time>2026-04-26T10:37:02.979Z</time></trkpt><trkpt lat="40.8488406" lon="8.9820282"><ele>53.199999999999996</ele><time>2026-04-26T10:37:03.978Z</time></trkpt><trkpt lat="40.848786" lon="8.982131"><ele>51.8</ele><time>2026-04-26T10:37:05.979Z</time></trkpt><trkpt lat="40.8487173" lon="8.9821131"><ele>50.400000000000006</ele><time>2026-04-26T10:37:08.978Z</time></trkpt><trkpt lat="40.8486732" lon="8.9819798"><ele>49.0</ele><time>2026-04-26T10:37:10.981Z</time></trkpt><trkpt lat="40.848621" lon="8.9817482"><ele>50.75</ele><time>2026-04-26T10:37:12.979Z</time></trkpt><trkpt lat="40.848595" lon="8.9816286"><ele>52.5</ele><time>2026-04-26T10:37:13.978Z</time></trkpt><trkpt lat="40.8485763" lon="8.9815039"><ele>54.25</ele><time>2026-04-26T10:37:14.979Z</time></trkpt><trkpt lat="40.8485492" lon="8.9812418"><ele>56.0</ele><time>2026-04-26T10:37:16.978Z</time></trkpt><trkpt lat="40.848527" lon="8.9809866"><ele>56.0</ele><time>2026-04-26T10:37:18.979Z</time></trkpt><trkpt lat="40.848513" lon="8.9808669"><ele>56.0</ele><time>2026-04-26T10:37:19.978Z</time></trkpt><trkpt lat="40.8485043" lon="8.9807435"><ele>56.0</ele><time>2026-04-26T10:37:20.98Z</time></trkpt><trkpt lat="40.8484923" lon="8.9804969"><ele>56.0</ele><time>2026-04-26T10:37:22.979Z</time></trkpt><trkpt lat="40.8484969" lon="8.9803797"><ele>58.75</ele><time>2026-04-26T10:37:23.979Z</time></trkpt><trkpt lat="40.8485277" lon="8.9801947"><ele>61.5</ele><time>2026-04-26T10:37:25.978Z</time></trkpt><trkpt lat="40.8486002" lon="8.9800843"><ele>64.25</ele><time>2026-04-26T10:37:27.979Z</time></trkpt><trkpt lat="40.8486792" lon="8.9799927"><ele>67.0</ele><time>2026-04-26T10:37:29.98Z</time></trkpt><trkpt lat="40.8486524" lon="8.979834"><ele>68.5</ele><time>2026-04-26T10:37:32.98Z</time></trkpt><trkpt lat="40.8485471" lon="8.9796961"><ele>70.0</ele><time>2026-04-26T10:37:34.979Z</time></trkpt><trkpt lat="40.8484838" lon="8.9795176"><ele>71.5</ele><time>2026-04-26T10:37:36.979Z</time></trkpt><trkpt lat="40.8484616" lon="8.9794291"><ele>73.0</ele><time>2026-04-26T10:37:37.979Z</time></trkpt><trkpt lat="40.8484701" lon="8.9793038"><ele>73.0</ele><time>2026-04-26T10:37:39.978Z</time></trkpt><trkpt lat="40.8485476" lon="8.979254"><ele>73.0</ele><time>2026-04-26T10:37:41.98Z</time></trkpt><trkpt lat="40.848651" lon="8.979262"><ele>73.0</ele><time>2026-04-26T10:37:43.979Z</time></trkpt><trkpt lat="40.8487518" lon="8.9792429"><ele>73.0</ele><time>2026-04-26T10:37:45.978Z</time></trkpt><trkpt lat="40.8488648" lon="8.9790907"><ele>72.8</ele><time>2026-04-26T10:37:48.979Z</time></trkpt><trkpt lat="40.8489461" lon="8.9790289"><ele>72.6</ele><time>2026-04-26T10:37:50.979Z</time></trkpt><trkpt lat="40.8490576" lon="8.9789687"><ele>72.4</ele><time>2026-04-26T10:37:52.981Z</time></trkpt><trkpt lat="40.8491099" lon="8.9789125"><ele>72.2</ele><time>2026-04-26T10:37:53.979Z</time></trkpt><trkpt lat="40.8492093" lon="8.9787815"><ele>72.0</ele><time>2026-04-26T10:37:55.978Z</time></trkpt><trkpt lat="40.8493067" lon="8.9786869"><ele>72.0</ele><time>2026-04-26T10:37:57.978Z</time></trkpt><trkpt lat="40.8493982" lon="8.9786803"><ele>72.0</ele><time>2026-04-26T10:37:59.979Z</time></trkpt><trkpt lat="40.8494996" lon="8.9787309"><ele>72.0</ele><time>2026-04-26T10:38:01.978Z</time></trkpt><trkpt lat="40.8495943" lon="8.9787131"><ele>72.0</ele><time>2026-04-26T10:38:03.98Z</time></trkpt><trkpt lat="40.8496388" lon="8.9785724"><ele>72.0</ele><time>2026-04-26T10:38:05.979Z</time></trkpt><trkpt lat="40.8496796" lon="8.9783238"><ele>74.2</ele><time>2026-04-26T10:38:08.979Z</time></trkpt><trkpt lat="40.8496876" lon="8.9781552"><ele>76.4</ele><time>2026-04-26T10:38:10.978Z</time></trkpt><trkpt lat="40.8497196" lon="8.978012"><ele>78.60000000000001</ele><time>2026-04-26T10:38:12.978Z</time></trkpt><trkpt lat="40.8498041" lon="8.9778828"><ele>80.80000000000001</ele><time>2026-04-26T10:38:14.98Z</time></trkpt><trkpt lat="40.8498585" lon="8.9778072"><ele>83.0</ele><time>2026-04-26T10:38:15.979Z</time></trkpt><trkpt lat="40.8499151" lon="8.9777283"><ele>83.0</ele><time>2026-04-26T10:38:16.979Z</time></trkpt><trkpt lat="40.8500296" lon="8.9776006"><ele>83.0</ele><time>2026-04-26T10:38:18.978Z</time></trkpt><trkpt lat="40.8500978" lon="8.9775561"><ele>83.0</ele><time>2026-04-26T10:38:19.978Z</time></trkpt><trkpt lat="40.8501748" lon="8.9775235"><ele>83.0</ele><time>2026-04-26T10:38:20.981Z</time></trkpt><trkpt lat="40.8502549" lon="8.9774852"><ele>83.0</ele><time>2026-04-26T10:38:21.979Z</time></trkpt><trkpt lat="40.8503361" lon="8.9774312"><ele>85.25</ele><time>2026-04-26T10:38:22.978Z</time></trkpt><trkpt lat="40.8504159" lon="8.9773656"><ele>87.5</ele><time>2026-04-26T10:38:23.979Z</time></trkpt><trkpt lat="40.8505794" lon="8.9772589"><ele>89.75</ele><time>2026-04-26T10:38:25.978Z</time></trkpt><trkpt lat="40.8506475" lon="8.977219"><ele>92.0</ele><time>2026-04-26T10:38:26.978Z</time></trkpt><trkpt lat="40.8507628" lon="8.9771353"><ele>92.0</ele><time>2026-04-26T10:38:28.979Z</time></trkpt><trkpt lat="40.8508374" lon="8.9770738"><ele>92.0</ele><time>2026-04-26T10:38:30.979Z</time></trkpt><trkpt lat="40.8509185" lon="8.9770449"><ele>92.0</ele><time>2026-04-26T10:38:43.982Z</time></trkpt><trkpt lat="40.8510095" lon="8.9770502"><ele>92.0</ele><time>2026-04-26T10:38:45.978Z</time></trkpt><trkpt lat="40.8510941" lon="8.9770127"><ele>92.0</ele><time>2026-04-26T10:38:47.98Z</time></trkpt><trkpt lat="40.8511567" lon="8.9769067"><ele>92.0</ele><time>2026-04-26T10:38:49.979Z</time></trkpt><trkpt lat="40.8512084" lon="8.97675"><ele>92.0</ele><time>2026-04-26T10:38:51.978Z</time></trkpt><trkpt lat="40.851273" lon="8.9765651"><ele>92.0</ele><time>2026-04-26T10:38:53.982Z</time></trkpt><trkpt lat="40.8513347" lon="8.9763706"><ele>92.0</ele><time>2026-04-26T10:38:55.979Z</time></trkpt><trkpt lat="40.8513574" lon="8.9762608"><ele>92.0</ele><time>2026-04-26T10:38:56.98Z</time></trkpt><trkpt lat="40.8513733" lon="8.9761456"><ele>92.0</ele><time>2026-04-26T10:38:57.979Z</time></trkpt><trkpt lat="40.8513876" lon="8.9760219"><ele>92.0</ele><time>2026-04-26T10:38:58.978Z</time></trkpt><trkpt lat="40.8513978" lon="8.9758987"><ele>92.0</ele><time>2026-04-26T10:38:59.978Z</time></trkpt><trkpt lat="40.8514328" lon="8.9756611"><ele>91.5</ele><time>2026-04-26T10:39:01.978Z</time></trkpt><trkpt lat="40.8514697" lon="8.9754241"><ele>91.0</ele><time>2026-04-26T10:39:03.978Z</time></trkpt><trkpt lat="40.8514905" lon="8.9752975"><ele>90.5</ele><time>2026-04-26T10:39:04.978Z</time></trkpt><trkpt lat="40.8515121" lon="8.9751766"><ele>90.0</ele><time>2026-04-26T10:39:05.978Z</time></trkpt><trkpt lat="40.8515299" lon="8.9750618"><ele>90.0</ele><time>2026-04-26T10:39:06.978Z</time></trkpt><trkpt lat="40.8515689" lon="8.9748254"><ele>90.0</ele><time>2026-04-26T10:39:08.978Z</time></trkpt><trkpt lat="40.8515925" lon="8.9745917"><ele>90.0</ele><time>2026-04-26T10:39:10.978Z</time></trkpt><trkpt lat="40.8516095" lon="8.9744706"><ele>90.0</ele><time>2026-04-26T10:39:11.979Z</time></trkpt><trkpt lat="40.8516249" lon="8.97435"><ele>90.0</ele><time>2026-04-26T10:39:12.978Z</time></trkpt><trkpt lat="40.8516375" lon="8.9742216"><ele>90.0</ele><time>2026-04-26T10:39:13.979Z</time></trkpt><trkpt lat="40.8516618" lon="8.9739473"><ele>90.0</ele><time>2026-04-26T10:39:15.979Z</time></trkpt><trkpt lat="40.8516774" lon="8.9738066"><ele>90.25</ele><time>2026-04-26T10:39:16.978Z</time></trkpt><trkpt lat="40.8517023" lon="8.9736688"><ele>90.5</ele><time>2026-04-26T10:39:17.979Z</time></trkpt><trkpt lat="40.8517299" lon="8.9735343"><ele>90.75</ele><time>2026-04-26T10:39:18.979Z</time></trkpt><trkpt lat="40.8517815" lon="8.9732755"><ele>91.0</ele><time>2026-04-26T10:39:20.98Z</time></trkpt><trkpt lat="40.8518069" lon="8.9731507"><ele>89.16666666666666</ele><time>2026-04-26T10:39:21.978Z</time></trkpt><trkpt lat="40.8518341" lon="8.9730295"><ele>87.33333333333333</ele><time>2026-04-26T10:39:22.978Z</time></trkpt><trkpt lat="40.8518583" lon="8.9729126"><ele>85.5</ele><time>2026-04-26T10:39:23.979Z</time></trkpt><trkpt lat="40.8518802" lon="8.972799"><ele>83.66666666666667</ele><time>2026-04-26T10:39:24.978Z</time></trkpt><trkpt lat="40.8518999" lon="8.9726903"><ele>81.83333333333334</ele><time>2026-04-26T10:39:25.979Z</time></trkpt><trkpt lat="40.8519179" lon="8.9725911"><ele>80.0</ele><time>2026-04-26T10:39:26.978Z</time></trkpt><trkpt lat="40.8519288" lon="8.9725079"><ele>79.8</ele><time>2026-04-26T10:39:27.979Z</time></trkpt><trkpt lat="40.8519379" lon="8.9723934"><ele>79.6</ele><time>2026-04-26T10:39:29.979Z</time></trkpt><trkpt lat="40.851908" lon="8.9722945"><ele>79.4</ele><time>2026-04-26T10:41:08.978Z</time></trkpt><trkpt lat="40.8518107" lon="8.9722705"><ele>79.2</ele><time>2026-04-26T10:41:10.979Z</time></trkpt><trkpt lat="40.8517466" lon="8.9722583"><ele>79.0</ele><time>2026-04-26T10:41:11.98Z</time></trkpt><trkpt lat="40.8516345" lon="8.9721802"><ele>79.16666666666666</ele><time>2026-04-26T10:41:13.98Z</time></trkpt><trkpt lat="40.851584" lon="8.9721136"><ele>79.33333333333333</ele><time>2026-04-26T10:41:14.979Z</time></trkpt><trkpt lat="40.8515388" lon="8.9720286"><ele>79.5</ele><time>2026-04-26T10:41:15.978Z</time></trkpt><trkpt lat="40.8515043" lon="8.9719329"><ele>79.66666666666667</ele><time>2026-04-26T10:41:16.977Z</time></trkpt><trkpt lat="40.8514861" lon="8.9718327"><ele>79.83333333333334</ele><time>2026-04-26T10:41:17.984Z</time></trkpt><trkpt lat="40.8514896" lon="8.9717311"><ele>80.0</ele><time>2026-04-26T10:41:18.977Z</time></trkpt><trkpt lat="40.851511" lon="8.9716299"><ele>80.0</ele><time>2026-04-26T10:41:19.977Z</time></trkpt><trkpt lat="40.851551" lon="8.9715363"><ele>80.0</ele><time>2026-04-26T10:41:20.979Z</time></trkpt><trkpt lat="40.8516077" lon="8.9714607"><ele>80.0</ele><time>2026-04-26T10:41:21.977Z</time></trkpt><trkpt lat="40.8516914" lon="8.9714175"><ele>80.0</ele><time>2026-04-26T10:41:22.977Z</time></trkpt><trkpt lat="40.8517714" lon="8.9713929"><ele>80.0</ele><time>2026-04-26T10:41:23.978Z</time></trkpt><trkpt lat="40.8518566" lon="8.9713967"><ele>80.0</ele><time>2026-04-26T10:41:24.977Z</time></trkpt><trkpt lat="40.8519393" lon="8.9714217"><ele>79.8</ele><time>2026-04-26T10:41:25.979Z</time></trkpt><trkpt lat="40.8520143" lon="8.9714728"><ele>79.6</ele><time>2026-04-26T10:41:26.978Z</time></trkpt><trkpt lat="40.8520756" lon="8.9715434"><ele>79.4</ele><time>2026-04-26T10:41:27.978Z</time></trkpt><trkpt lat="40.85213" lon="8.9716276"><ele>79.2</ele><time>2026-04-26T10:41:28.978Z</time></trkpt><trkpt lat="40.8521737" lon="8.9717337"><ele>79.0</ele><time>2026-04-26T10:41:29.979Z</time></trkpt><trkpt lat="40.8522066" lon="8.9718795"><ele>79.0</ele><time>2026-04-26T10:41:30.978Z</time></trkpt><trkpt lat="40.8522402" lon="8.9720362"><ele>79.0</ele><time>2026-04-26T10:41:31.98Z</time></trkpt><trkpt lat="40.8522785" lon="8.9721969"><ele>79.0</ele><time>2026-04-26T10:41:32.979Z</time></trkpt><trkpt lat="40.8523244" lon="8.9723695"><ele>79.0</ele><time>2026-04-26T10:41:33.978Z</time></trkpt><trkpt lat="40.8523733" lon="8.9725576"><ele>79.5</ele><time>2026-04-26T10:41:34.978Z</time></trkpt><trkpt lat="40.8524217" lon="8.9727505"><ele>80.0</ele><time>2026-04-26T10:41:35.978Z</time></trkpt><trkpt lat="40.8525048" lon="8.9731285"><ele>80.0</ele><time>2026-04-26T10:41:37.979Z</time></trkpt><trkpt lat="40.8525402" lon="8.9733074"><ele>80.0</ele><time>2026-04-26T10:41:38.98Z</time></trkpt><trkpt lat="40.8525743" lon="8.9734783"><ele>80.0</ele><time>2026-04-26T10:41:39.978Z</time></trkpt><trkpt lat="40.8526102" lon="8.9736418"><ele>80.0</ele><time>2026-04-26T10:41:40.979Z</time></trkpt><trkpt lat="40.8526477" lon="8.9738058"><ele>80.66666666666667</ele><time>2026-04-26T10:41:41.978Z</time></trkpt><trkpt lat="40.8526852" lon="8.9739706"><ele>81.33333333333333</ele><time>2026-04-26T10:41:42.979Z</time></trkpt><trkpt lat="40.8527579" lon="8.974318"><ele>82.0</ele><time>2026-04-26T10:41:44.979Z</time></trkpt><trkpt lat="40.8527955" lon="8.9744977"><ele>82.0</ele><time>2026-04-26T10:41:45.978Z</time></trkpt><trkpt lat="40.852834" lon="8.9746813"><ele>82.0</ele><time>2026-04-26T10:41:46.979Z</time></trkpt><trkpt lat="40.8528719" lon="8.9748704"><ele>82.0</ele><time>2026-04-26T10:41:47.978Z</time></trkpt><trkpt lat="40.8529099" lon="8.975062"><ele>82.0</ele><time>2026-04-26T10:41:48.978Z</time></trkpt><trkpt lat="40.8529502" lon="8.9752547"><ele>82.0</ele><time>2026-04-26T10:41:49.979Z</time></trkpt><trkpt lat="40.8529942" lon="8.9754496"><ele>82.0</ele><time>2026-04-26T10:41:50.978Z</time></trkpt><trkpt lat="40.8530369" lon="8.9756494"><ele>82.0</ele><time>2026-04-26T10:41:51.979Z</time></trkpt><trkpt lat="40.8530839" lon="8.9758495"><ele>81.0</ele><time>2026-04-26T10:41:52.977Z</time></trkpt><trkpt lat="40.8531366" lon="8.9760482"><ele>80.0</ele><time>2026-04-26T10:41:53.979Z</time></trkpt><trkpt lat="40.8531934" lon="8.9762445"><ele>79.0</ele><time>2026-04-26T10:41:54.979Z</time></trkpt><trkpt lat="40.8533075" lon="8.9766431"><ele>80.33333333333333</ele><time>2026-04-26T10:41:56.978Z</time></trkpt><trkpt lat="40.8533698" lon="8.9768424"><ele>81.66666666666667</ele><time>2026-04-26T10:41:57.979Z</time></trkpt><trkpt lat="40.8534328" lon="8.9770408"><ele>83.0</ele><time>2026-04-26T10:41:58.979Z</time></trkpt><trkpt lat="40.8534957" lon="8.9772418"><ele>79.5</ele><time>2026-04-26T10:41:59.978Z</time></trkpt><trkpt lat="40.853639" lon="8.9776614"><ele>76.0</ele><time>2026-04-26T10:42:01.979Z</time></trkpt><trkpt lat="40.8538056" lon="8.9781251"><ele>69.5</ele><time>2026-04-26T10:42:03.979Z</time></trkpt><trkpt lat="40.853994" lon="8.9786483"><ele>63.0</ele><time>2026-04-26T10:42:05.978Z</time></trkpt><trkpt lat="40.8540913" lon="8.9789176"><ele>63.0</ele><time>2026-04-26T10:42:06.978Z</time></trkpt><trkpt lat="40.8541865" lon="8.9791826"><ele>63.0</ele><time>2026-04-26T10:42:07.978Z</time></trkpt><trkpt lat="40.854371" lon="8.9797032"><ele>47.0</ele><time>2026-04-26T10:42:09.978Z</time></trkpt><trkpt lat="40.8545632" lon="8.9802413"><ele>47.0</ele><time>2026-04-26T10:42:11.979Z</time></trkpt><trkpt lat="40.854761" lon="8.980805"><ele>55.0</ele><time>2026-04-26T10:42:13.978Z</time></trkpt><trkpt lat="40.8549662" lon="8.9813937"><ele>74.0</ele><time>2026-04-26T10:42:15.979Z</time></trkpt><trkpt lat="40.8552922" lon="8.982329"><ele>79.0</ele><time>2026-04-26T10:42:18.979Z</time></trkpt><trkpt lat="40.8555283" lon="8.9830561"><ele>78.0</ele><time>2026-04-26T10:42:20.978Z</time></trkpt><trkpt lat="40.8556356" lon="8.9834443"><ele>77.0</ele><time>2026-04-26T10:42:21.978Z</time></trkpt><trkpt lat="40.8557308" lon="8.9838454"><ele>65.0</ele><time>2026-04-26T10:42:22.979Z</time></trkpt><trkpt lat="40.8559593" lon="8.985123"><ele>68.0</ele><time>2026-04-26T10:42:25.978Z</time></trkpt><trkpt lat="40.8560407" lon="8.986009"><ele>72.0</ele><time>2026-04-26T10:42:27.978Z</time></trkpt><trkpt lat="40.8560667" lon="8.986884"><ele>72.0</ele><time>2026-04-26T10:42:29.978Z</time></trkpt><trkpt lat="40.8560631" lon="8.9873123"><ele>72.0</ele><time>2026-04-26T10:42:30.978Z</time></trkpt><trkpt lat="40.8560167" lon="8.9881495"><ele>81.0</ele><time>2026-04-26T10:42:32.979Z</time></trkpt><trkpt lat="40.8559282" lon="8.9889401"><ele>85.0</ele><time>2026-04-26T10:42:34.979Z</time></trkpt><trkpt lat="40.8558257" lon="8.9896631"><ele>91.0</ele><time>2026-04-26T10:42:36.979Z</time></trkpt><trkpt lat="40.8557551" lon="8.9903672"><ele>93.0</ele><time>2026-04-26T10:42:38.979Z</time></trkpt><trkpt lat="40.8557432" lon="8.9911"><ele>99.0</ele><time>2026-04-26T10:42:40.978Z</time></trkpt><trkpt lat="40.8557907" lon="8.9918747"><ele>108.0</ele><time>2026-04-26T10:42:42.978Z</time></trkpt><trkpt lat="40.8558715" lon="8.9926742"><ele>111.0</ele><time>2026-04-26T10:42:44.979Z</time></trkpt><trkpt lat="40.8559621" lon="8.9935009"><ele>118.0</ele><time>2026-04-26T10:42:46.978Z</time></trkpt><trkpt lat="40.85606" lon="8.9943496"><ele>122.0</ele><time>2026-04-26T10:42:48.978Z</time></trkpt><trkpt lat="40.8561632" lon="8.9951978"><ele>119.0</ele><time>2026-04-26T10:42:50.978Z</time></trkpt><trkpt lat="40.8562609" lon="8.9960277"><ele>119.0</ele><time>2026-04-26T10:42:52.979Z</time></trkpt><trkpt lat="40.8563098" lon="8.9964362"><ele>119.0</ele><time>2026-04-26T10:42:53.979Z</time></trkpt><trkpt lat="40.8563573" lon="8.9968401"><ele>118.5</ele><time>2026-04-26T10:42:54.977Z</time></trkpt><trkpt lat="40.8564049" lon="8.9972343"><ele>118.0</ele><time>2026-04-26T10:42:55.979Z</time></trkpt><trkpt lat="40.8564567" lon="8.9976149"><ele>118.0</ele><time>2026-04-26T10:42:56.978Z</time></trkpt><trkpt lat="40.8565144" lon="8.997981"><ele>118.0</ele><time>2026-04-26T10:42:57.979Z</time></trkpt><trkpt lat="40.8565826" lon="8.9983339"><ele>110.0</ele><time>2026-04-26T10:42:58.979Z</time></trkpt><trkpt lat="40.8567733" lon="8.9990238"><ele>120.0</ele><time>2026-04-26T10:43:00.978Z</time></trkpt><trkpt lat="40.8568916" lon="8.9993698"><ele>130.0</ele><time>2026-04-26T10:43:01.979Z</time></trkpt><trkpt lat="40.8571178" lon="9.0000222"><ele>130.0</ele><time>2026-04-26T10:43:03.978Z</time></trkpt><trkpt lat="40.8573175" lon="9.0006067"><ele>127.0</ele><time>2026-04-26T10:43:05.979Z</time></trkpt><trkpt lat="40.8574087" lon="9.0008779"><ele>124.0</ele><time>2026-04-26T10:43:06.977Z</time></trkpt><trkpt lat="40.8574892" lon="9.0011484"><ele>121.0</ele><time>2026-04-26T10:43:07.978Z</time></trkpt><trkpt lat="40.8575597" lon="9.0014316"><ele>131.0</ele><time>2026-04-26T10:43:08.98Z</time></trkpt><trkpt lat="40.8576649" lon="9.002041"><ele>128.0</ele><time>2026-04-26T10:43:10.977Z</time></trkpt><trkpt lat="40.8577149" lon="9.0027299"><ele>128.0</ele><time>2026-04-26T10:43:12.978Z</time></trkpt><trkpt lat="40.8577037" lon="9.0030921"><ele>128.0</ele><time>2026-04-26T10:43:13.978Z</time></trkpt><trkpt lat="40.8576688" lon="9.0034617"><ele>120.5</ele><time>2026-04-26T10:43:14.979Z</time></trkpt><trkpt lat="40.8576186" lon="9.0038363"><ele>113.0</ele><time>2026-04-26T10:43:15.978Z</time></trkpt><trkpt lat="40.8575558" lon="9.0042092"><ele>111.0</ele><time>2026-04-26T10:43:16.978Z</time></trkpt><trkpt lat="40.8574822" lon="9.0045783"><ele>109.0</ele><time>2026-04-26T10:43:17.979Z</time></trkpt><trkpt lat="40.8573285" lon="9.0053262"><ele>116.0</ele><time>2026-04-26T10:43:19.979Z</time></trkpt><trkpt lat="40.8571802" lon="9.0060955"><ele>120.0</ele><time>2026-04-26T10:43:21.977Z</time></trkpt><trkpt lat="40.8570942" lon="9.0068808"><ele>112.0</ele><time>2026-04-26T10:43:23.978Z</time></trkpt><trkpt lat="40.8571085" lon="9.0076796"><ele>108.0</ele><time>2026-04-26T10:43:25.979Z</time></trkpt><trkpt lat="40.857227" lon="9.0084605"><ele>108.0</ele><time>2026-04-26T10:43:27.978Z</time></trkpt><trkpt lat="40.8573254" lon="9.0088401"><ele>108.0</ele><time>2026-04-26T10:43:28.977Z</time></trkpt><trkpt lat="40.8574437" lon="9.0092089"><ele>107.0</ele><time>2026-04-26T10:43:29.98Z</time></trkpt><trkpt lat="40.8575755" lon="9.009568"><ele>106.0</ele><time>2026-04-26T10:43:30.979Z</time></trkpt><trkpt lat="40.8577145" lon="9.0099201"><ele>101.5</ele><time>2026-04-26T10:43:31.979Z</time></trkpt><trkpt lat="40.8578524" lon="9.0102658"><ele>97.0</ele><time>2026-04-26T10:43:32.979Z</time></trkpt><trkpt lat="40.8581315" lon="9.0109539"><ele>97.0</ele><time>2026-04-26T10:43:34.977Z</time></trkpt><trkpt lat="40.8582686" lon="9.0112993"><ele>97.0</ele><time>2026-04-26T10:43:35.978Z</time></trkpt><trkpt lat="40.8584035" lon="9.0116423"><ele>94.0</ele><time>2026-04-26T10:43:36.977Z</time></trkpt><trkpt lat="40.858677" lon="9.0123212"><ele>92.0</ele><time>2026-04-26T10:43:38.98Z</time></trkpt><trkpt lat="40.8589709" lon="9.0129777"><ele>92.0</ele><time>2026-04-26T10:43:40.979Z</time></trkpt><trkpt lat="40.8591354" lon="9.0132877"><ele>92.0</ele><time>2026-04-26T10:43:41.978Z</time></trkpt><trkpt lat="40.859315" lon="9.0135796"><ele>93.0</ele><time>2026-04-26T10:43:42.978Z</time></trkpt><trkpt lat="40.8595078" lon="9.0138576"><ele>94.0</ele><time>2026-04-26T10:43:43.979Z</time></trkpt><trkpt lat="40.8597076" lon="9.0141216"><ele>94.5</ele><time>2026-04-26T10:43:44.98Z</time></trkpt><trkpt lat="40.8599101" lon="9.0143842"><ele>95.0</ele><time>2026-04-26T10:43:45.979Z</time></trkpt><trkpt lat="40.8603093" lon="9.0149257"><ele>104.0</ele><time>2026-04-26T10:43:47.977Z</time></trkpt><trkpt lat="40.8606717" lon="9.0155057"><ele>117.0</ele><time>2026-04-26T10:43:49.978Z</time></trkpt><trkpt lat="40.8609962" lon="9.0161148"><ele>113.0</ele><time>2026-04-26T10:43:51.977Z</time></trkpt><trkpt lat="40.8613132" lon="9.0167209"><ele>113.0</ele><time>2026-04-26T10:43:53.977Z</time></trkpt><trkpt lat="40.8614697" lon="9.0170184"><ele>113.0</ele><time>2026-04-26T10:43:54.979Z</time></trkpt><trkpt lat="40.8616229" lon="9.01731"><ele>114.5</ele><time>2026-04-26T10:43:55.979Z</time></trkpt><trkpt lat="40.8617721" lon="9.0175925"><ele>116.0</ele><time>2026-04-26T10:43:56.979Z</time></trkpt><trkpt lat="40.8619182" lon="9.0178666"><ele>116.0</ele><time>2026-04-26T10:43:57.979Z</time></trkpt><trkpt lat="40.8620648" lon="9.0181334"><ele>116.0</ele><time>2026-04-26T10:43:58.978Z</time></trkpt><trkpt lat="40.8622118" lon="9.0183917"><ele>113.0</ele><time>2026-04-26T10:43:59.979Z</time></trkpt><trkpt lat="40.8623599" lon="9.0186417"><ele>110.0</ele><time>2026-04-26T10:44:00.979Z</time></trkpt><trkpt lat="40.8625098" lon="9.0188817"><ele>113.5</ele><time>2026-04-26T10:44:01.978Z</time></trkpt><trkpt lat="40.8626644" lon="9.0191077"><ele>117.0</ele><time>2026-04-26T10:44:02.978Z</time></trkpt><trkpt lat="40.8628233" lon="9.0193218"><ele>117.0</ele><time>2026-04-26T10:44:03.978Z</time></trkpt><trkpt lat="40.8629848" lon="9.0195253"><ele>117.0</ele><time>2026-04-26T10:44:04.979Z</time></trkpt><trkpt lat="40.8633177" lon="9.0199004"><ele>120.0</ele><time>2026-04-26T10:44:06.978Z</time></trkpt><trkpt lat="40.8634899" lon="9.0200719"><ele>123.0</ele><time>2026-04-26T10:44:07.978Z</time></trkpt><trkpt lat="40.8636637" lon="9.0202296"><ele>126.0</ele><time>2026-04-26T10:44:08.979Z</time></trkpt><trkpt lat="40.8640154" lon="9.0205049"><ele>126.0</ele><time>2026-04-26T10:44:10.978Z</time></trkpt><trkpt lat="40.8641905" lon="9.0206331"><ele>126.0</ele><time>2026-04-26T10:44:11.979Z</time></trkpt><trkpt lat="40.8643662" lon="9.0207554"><ele>126.0</ele><time>2026-04-26T10:44:12.978Z</time></trkpt><trkpt lat="40.8645392" lon="9.0208737"><ele>128.0</ele><time>2026-04-26T10:44:13.98Z</time></trkpt><trkpt lat="40.8647111" lon="9.0209886"><ele>130.0</ele><time>2026-04-26T10:44:14.978Z</time></trkpt><trkpt lat="40.8650477" lon="9.0212182"><ele>131.0</ele><time>2026-04-26T10:44:16.981Z</time></trkpt><trkpt lat="40.8653705" lon="9.0214468"><ele>132.0</ele><time>2026-04-26T10:44:18.979Z</time></trkpt><trkpt lat="40.8655191" lon="9.0215787"><ele>131.33333333333334</ele><time>2026-04-26T10:44:19.978Z</time></trkpt><trkpt lat="40.8656619" lon="9.0217269"><ele>130.66666666666669</ele><time>2026-04-26T10:44:20.979Z</time></trkpt><trkpt lat="40.8658038" lon="9.0218739"><ele>130.0</ele><time>2026-04-26T10:44:21.978Z</time></trkpt><trkpt lat="40.8660754" lon="9.0221496"><ele>130.0</ele><time>2026-04-26T10:44:23.978Z</time></trkpt><trkpt lat="40.8663144" lon="9.0224"><ele>130.0</ele><time>2026-04-26T10:44:25.979Z</time></trkpt><trkpt lat="40.8664234" lon="9.0225147"><ele>130.0</ele><time>2026-04-26T10:44:26.978Z</time></trkpt><trkpt lat="40.8665244" lon="9.0226219"><ele>128.66666666666669</ele><time>2026-04-26T10:44:27.978Z</time></trkpt><trkpt lat="40.8666138" lon="9.0227276"><ele>127.33333333333334</ele><time>2026-04-26T10:44:28.979Z</time></trkpt><trkpt lat="40.8667567" lon="9.0229525"><ele>126.0</ele><time>2026-04-26T10:44:30.978Z</time></trkpt><trkpt lat="40.8668285" lon="9.0232003"><ele>127.25</ele><time>2026-04-26T10:44:32.979Z</time></trkpt><trkpt lat="40.8668137" lon="9.0234393"><ele>128.5</ele><time>2026-04-26T10:44:34.98Z</time></trkpt><trkpt lat="40.8667852" lon="9.023545"><ele>129.75</ele><time>2026-04-26T10:44:35.978Z</time></trkpt><trkpt lat="40.8667475" lon="9.0236432"><ele>131.0</ele><time>2026-04-26T10:44:36.978Z</time></trkpt><trkpt lat="40.8667009" lon="9.0238499"><ele>130.25</ele><time>2026-04-26T10:44:38.978Z</time></trkpt><trkpt lat="40.8667305" lon="9.0240818"><ele>129.5</ele><time>2026-04-26T10:44:40.979Z</time></trkpt><trkpt lat="40.8667777" lon="9.0241947"><ele>128.75</ele><time>2026-04-26T10:44:41.98Z</time></trkpt><trkpt lat="40.8668591" lon="9.0242839"><ele>128.0</ele><time>2026-04-26T10:44:42.978Z</time></trkpt><trkpt lat="40.8669521" lon="9.024352"><ele>128.0</ele><time>2026-04-26T10:44:43.979Z</time></trkpt><trkpt lat="40.8670592" lon="9.02438"><ele>128.0</ele><time>2026-04-26T10:44:44.978Z</time></trkpt><trkpt lat="40.8671732" lon="9.02436"><ele>128.0</ele><time>2026-04-26T10:44:45.98Z</time></trkpt><trkpt lat="40.8673847" lon="9.0242026"><ele>129.0</ele><time>2026-04-26T10:44:47.979Z</time></trkpt><trkpt lat="40.8674746" lon="9.0240913"><ele>130.0</ele><time>2026-04-26T10:44:48.979Z</time></trkpt><trkpt lat="40.867559" lon="9.0239706"><ele>131.0</ele><time>2026-04-26T10:44:49.98Z</time></trkpt><trkpt lat="40.8677364" lon="9.0237234"><ele>132.75</ele><time>2026-04-26T10:44:51.979Z</time></trkpt><trkpt lat="40.8678933" lon="9.0235069"><ele>134.5</ele><time>2026-04-26T10:44:53.978Z</time></trkpt><trkpt lat="40.8679594" lon="9.0234169"><ele>136.25</ele><time>2026-04-26T10:44:54.979Z</time></trkpt><trkpt lat="40.8680134" lon="9.0233353"><ele>138.0</ele><time>2026-04-26T10:44:55.979Z</time></trkpt><trkpt lat="40.8681161" lon="9.0231959"><ele>142.0</ele><time>2026-04-26T10:44:57.979Z</time></trkpt><trkpt lat="40.8681645" lon="9.0231321"><ele>142.0</ele><time>2026-04-26T10:44:58.979Z</time></trkpt><trkpt lat="40.8682701" lon="9.0230226"><ele>142.0</ele><time>2026-04-26T10:45:00.979Z</time></trkpt><trkpt lat="40.868354" lon="9.0229671"><ele>142.0</ele><time>2026-04-26T10:45:02.978Z</time></trkpt><trkpt lat="40.8684196" lon="9.0229712"><ele>142.0</ele><time>2026-04-26T10:45:15.979Z</time></trkpt></trkseg></trk></gpx>